<?xml version="1.0" encoding="UTF-8" standalone="no" ?>
<gpx xmlns="http://www.topografix.com/GPX/1/1" xmlns:xsi="http://www.w3.org/2001/XMLSchema-instance" xsi:schemaLocation="http://www.topografix.com/GPX/1/1 http://www.topografix.com/GPX/1/1/gpx.xsd" version="1.1" creator="VisuGPX - https://www.visugpx.com">
  <metadata>
    <name>sortie du 22-7-2012</name>
    <desc><![CDATA[Sortie autour de Nueil les Aubiers]]></desc>
  </metadata>
  <trk>
    <name><![CDATA[2012-07-22-01]]></name>
    <trkseg>
      <trkpt lat="46.94068" lon="-0.59732">
        <ele>121.6</ele>
        <time>2012-07-22T06:46:43Z</time>
      </trkpt>
      <trkpt lat="46.94071" lon="-0.59733">
        <ele>120.9</ele>
        <time>2012-07-22T06:46:44Z</time>
      </trkpt>
      <trkpt lat="46.94084" lon="-0.59733">
        <ele>121.5</ele>
        <time>2012-07-22T06:46:48Z</time>
      </trkpt>
      <trkpt lat="46.94091" lon="-0.59735">
        <ele>121.5</ele>
        <time>2012-07-22T06:46:50Z</time>
      </trkpt>
      <trkpt lat="46.94098" lon="-0.59736">
        <ele>120.5</ele>
        <time>2012-07-22T06:46:52Z</time>
      </trkpt>
      <trkpt lat="46.94103" lon="-0.59737">
        <ele>120</ele>
        <time>2012-07-22T06:46:53Z</time>
      </trkpt>
      <trkpt lat="46.94107" lon="-0.59738">
        <ele>120.4</ele>
        <time>2012-07-22T06:46:54Z</time>
      </trkpt>
      <trkpt lat="46.94112" lon="-0.59738">
        <ele>120.8</ele>
        <time>2012-07-22T06:46:55Z</time>
      </trkpt>
      <trkpt lat="46.94119" lon="-0.5974">
        <ele>121</ele>
        <time>2012-07-22T06:46:56Z</time>
      </trkpt>
      <trkpt lat="46.94126" lon="-0.59742">
        <ele>121</ele>
        <time>2012-07-22T06:46:57Z</time>
      </trkpt>
      <trkpt lat="46.94132" lon="-0.59744">
        <ele>120.5</ele>
        <time>2012-07-22T06:46:58Z</time>
      </trkpt>
      <trkpt lat="46.94139" lon="-0.59745">
        <ele>120.5</ele>
        <time>2012-07-22T06:46:59Z</time>
      </trkpt>
      <trkpt lat="46.94145" lon="-0.59744">
        <ele>120.5</ele>
        <time>2012-07-22T06:47:00Z</time>
      </trkpt>
      <trkpt lat="46.94152" lon="-0.59743">
        <ele>120.5</ele>
        <time>2012-07-22T06:47:01Z</time>
      </trkpt>
      <trkpt lat="46.94159" lon="-0.59741">
        <ele>120.3</ele>
        <time>2012-07-22T06:47:02Z</time>
      </trkpt>
      <trkpt lat="46.94166" lon="-0.59739">
        <ele>120</ele>
        <time>2012-07-22T06:47:03Z</time>
      </trkpt>
      <trkpt lat="46.94173" lon="-0.59734">
        <ele>119.9</ele>
        <time>2012-07-22T06:47:04Z</time>
      </trkpt>
      <trkpt lat="46.94179" lon="-0.5973">
        <ele>119.8</ele>
        <time>2012-07-22T06:47:05Z</time>
      </trkpt>
      <trkpt lat="46.94184" lon="-0.59725">
        <ele>119.8</ele>
        <time>2012-07-22T06:47:06Z</time>
      </trkpt>
      <trkpt lat="46.94188" lon="-0.59719">
        <ele>119.8</ele>
        <time>2012-07-22T06:47:07Z</time>
      </trkpt>
      <trkpt lat="46.9419" lon="-0.59707">
        <ele>119.5</ele>
        <time>2012-07-22T06:47:09Z</time>
      </trkpt>
      <trkpt lat="46.94196" lon="-0.59698">
        <ele>119.4</ele>
        <time>2012-07-22T06:47:12Z</time>
      </trkpt>
      <trkpt lat="46.94205" lon="-0.59699">
        <ele>119</ele>
        <time>2012-07-22T06:47:17Z</time>
      </trkpt>
      <trkpt lat="46.94208" lon="-0.5971">
        <ele>119</ele>
        <time>2012-07-22T06:47:22Z</time>
      </trkpt>
      <trkpt lat="46.9421" lon="-0.59719">
        <ele>119</ele>
        <time>2012-07-22T06:47:23Z</time>
      </trkpt>
      <trkpt lat="46.94211" lon="-0.59729">
        <ele>118.9</ele>
        <time>2012-07-22T06:47:26Z</time>
      </trkpt>
      <trkpt lat="46.94212" lon="-0.59737">
        <ele>118.5</ele>
        <time>2012-07-22T06:47:28Z</time>
      </trkpt>
      <trkpt lat="46.94214" lon="-0.59748">
        <ele>118.4</ele>
        <time>2012-07-22T06:47:30Z</time>
      </trkpt>
      <trkpt lat="46.94216" lon="-0.59761">
        <ele>118</ele>
        <time>2012-07-22T06:47:32Z</time>
      </trkpt>
      <trkpt lat="46.94217" lon="-0.59771">
        <ele>117.5</ele>
        <time>2012-07-22T06:47:34Z</time>
      </trkpt>
      <trkpt lat="46.94218" lon="-0.59783">
        <ele>117</ele>
        <time>2012-07-22T06:47:36Z</time>
      </trkpt>
      <trkpt lat="46.94219" lon="-0.59794">
        <ele>116.5</ele>
        <time>2012-07-22T06:47:38Z</time>
      </trkpt>
      <trkpt lat="46.94219" lon="-0.59803">
        <ele>116</ele>
        <time>2012-07-22T06:47:40Z</time>
      </trkpt>
      <trkpt lat="46.9422" lon="-0.59812">
        <ele>115.5</ele>
        <time>2012-07-22T06:47:42Z</time>
      </trkpt>
      <trkpt lat="46.94222" lon="-0.59822">
        <ele>115.4</ele>
        <time>2012-07-22T06:47:44Z</time>
      </trkpt>
      <trkpt lat="46.94223" lon="-0.59826">
        <ele>115.3</ele>
        <time>2012-07-22T06:47:45Z</time>
      </trkpt>
      <trkpt lat="46.94225" lon="-0.59842">
        <ele>115</ele>
        <time>2012-07-22T06:47:48Z</time>
      </trkpt>
      <trkpt lat="46.94226" lon="-0.59854">
        <ele>114.9</ele>
        <time>2012-07-22T06:47:50Z</time>
      </trkpt>
      <trkpt lat="46.94228" lon="-0.59862">
        <ele>114.8</ele>
        <time>2012-07-22T06:47:52Z</time>
      </trkpt>
      <trkpt lat="46.9423" lon="-0.59872">
        <ele>114.5</ele>
        <time>2012-07-22T06:47:54Z</time>
      </trkpt>
      <trkpt lat="46.94231" lon="-0.59883">
        <ele>114.4</ele>
        <time>2012-07-22T06:47:56Z</time>
      </trkpt>
      <trkpt lat="46.94232" lon="-0.59895">
        <ele>114</ele>
        <time>2012-07-22T06:47:59Z</time>
      </trkpt>
      <trkpt lat="46.94234" lon="-0.59905">
        <ele>114</ele>
        <time>2012-07-22T06:48:02Z</time>
      </trkpt>
      <trkpt lat="46.94236" lon="-0.59914">
        <ele>113.9</ele>
        <time>2012-07-22T06:48:05Z</time>
      </trkpt>
      <trkpt lat="46.94239" lon="-0.59926">
        <ele>113.8</ele>
        <time>2012-07-22T06:48:08Z</time>
      </trkpt>
      <trkpt lat="46.9424" lon="-0.59937">
        <ele>113.5</ele>
        <time>2012-07-22T06:48:10Z</time>
      </trkpt>
      <trkpt lat="46.94242" lon="-0.59948">
        <ele>113.5</ele>
        <time>2012-07-22T06:48:12Z</time>
      </trkpt>
      <trkpt lat="46.94245" lon="-0.5996">
        <ele>113.5</ele>
        <time>2012-07-22T06:48:14Z</time>
      </trkpt>
      <trkpt lat="46.94247" lon="-0.59971">
        <ele>113.5</ele>
        <time>2012-07-22T06:48:16Z</time>
      </trkpt>
      <trkpt lat="46.9425" lon="-0.59982">
        <ele>113.5</ele>
        <time>2012-07-22T06:48:18Z</time>
      </trkpt>
      <trkpt lat="46.94252" lon="-0.59994">
        <ele>113.3</ele>
        <time>2012-07-22T06:48:20Z</time>
      </trkpt>
      <trkpt lat="46.94255" lon="-0.60006">
        <ele>112.3</ele>
        <time>2012-07-22T06:48:22Z</time>
      </trkpt>
      <trkpt lat="46.94256" lon="-0.60012">
        <ele>112.3</ele>
        <time>2012-07-22T06:48:23Z</time>
      </trkpt>
      <trkpt lat="46.94258" lon="-0.60019">
        <ele>112</ele>
        <time>2012-07-22T06:48:24Z</time>
      </trkpt>
      <trkpt lat="46.9426" lon="-0.60025">
        <ele>112</ele>
        <time>2012-07-22T06:48:25Z</time>
      </trkpt>
      <trkpt lat="46.94261" lon="-0.60032">
        <ele>112</ele>
        <time>2012-07-22T06:48:26Z</time>
      </trkpt>
      <trkpt lat="46.94263" lon="-0.60038">
        <ele>112</ele>
        <time>2012-07-22T06:48:27Z</time>
      </trkpt>
      <trkpt lat="46.94265" lon="-0.60051">
        <ele>111.9</ele>
        <time>2012-07-22T06:48:29Z</time>
      </trkpt>
      <trkpt lat="46.94268" lon="-0.60062">
        <ele>111.5</ele>
        <time>2012-07-22T06:48:31Z</time>
      </trkpt>
      <trkpt lat="46.9427" lon="-0.60072">
        <ele>111.5</ele>
        <time>2012-07-22T06:48:33Z</time>
      </trkpt>
      <trkpt lat="46.94272" lon="-0.60082">
        <ele>111.5</ele>
        <time>2012-07-22T06:48:35Z</time>
      </trkpt>
      <trkpt lat="46.94274" lon="-0.60093">
        <ele>111.8</ele>
        <time>2012-07-22T06:48:37Z</time>
      </trkpt>
      <trkpt lat="46.94276" lon="-0.60105">
        <ele>111.9</ele>
        <time>2012-07-22T06:48:39Z</time>
      </trkpt>
      <trkpt lat="46.94278" lon="-0.60115">
        <ele>112</ele>
        <time>2012-07-22T06:48:41Z</time>
      </trkpt>
      <trkpt lat="46.9428" lon="-0.60125">
        <ele>112.3</ele>
        <time>2012-07-22T06:48:43Z</time>
      </trkpt>
      <trkpt lat="46.94281" lon="-0.60134">
        <ele>112.5</ele>
        <time>2012-07-22T06:48:45Z</time>
      </trkpt>
      <trkpt lat="46.94281" lon="-0.60138">
        <ele>112.5</ele>
        <time>2012-07-22T06:48:46Z</time>
      </trkpt>
      <trkpt lat="46.94285" lon="-0.60157">
        <ele>113</ele>
        <time>2012-07-22T06:48:51Z</time>
      </trkpt>
      <trkpt lat="46.94287" lon="-0.60167">
        <ele>113.4</ele>
        <time>2012-07-22T06:48:53Z</time>
      </trkpt>
      <trkpt lat="46.94289" lon="-0.60176">
        <ele>113.5</ele>
        <time>2012-07-22T06:48:55Z</time>
      </trkpt>
      <trkpt lat="46.94291" lon="-0.60186">
        <ele>113.5</ele>
        <time>2012-07-22T06:48:57Z</time>
      </trkpt>
      <trkpt lat="46.94293" lon="-0.60195">
        <ele>113.9</ele>
        <time>2012-07-22T06:48:59Z</time>
      </trkpt>
      <trkpt lat="46.94295" lon="-0.60204">
        <ele>114</ele>
        <time>2012-07-22T06:49:01Z</time>
      </trkpt>
      <trkpt lat="46.94297" lon="-0.60214">
        <ele>114.3</ele>
        <time>2012-07-22T06:49:03Z</time>
      </trkpt>
      <trkpt lat="46.943" lon="-0.60224">
        <ele>114.5</ele>
        <time>2012-07-22T06:49:05Z</time>
      </trkpt>
      <trkpt lat="46.94302" lon="-0.60235">
        <ele>114.5</ele>
        <time>2012-07-22T06:49:07Z</time>
      </trkpt>
      <trkpt lat="46.94304" lon="-0.60246">
        <ele>115</ele>
        <time>2012-07-22T06:49:09Z</time>
      </trkpt>
      <trkpt lat="46.94307" lon="-0.60258">
        <ele>115</ele>
        <time>2012-07-22T06:49:11Z</time>
      </trkpt>
      <trkpt lat="46.94308" lon="-0.60264">
        <ele>115</ele>
        <time>2012-07-22T06:49:12Z</time>
      </trkpt>
      <trkpt lat="46.94311" lon="-0.60277">
        <ele>115.4</ele>
        <time>2012-07-22T06:49:14Z</time>
      </trkpt>
      <trkpt lat="46.94312" lon="-0.60284">
        <ele>115.4</ele>
        <time>2012-07-22T06:49:15Z</time>
      </trkpt>
      <trkpt lat="46.94313" lon="-0.60291">
        <ele>115.4</ele>
        <time>2012-07-22T06:49:16Z</time>
      </trkpt>
      <trkpt lat="46.94315" lon="-0.60299">
        <ele>115.4</ele>
        <time>2012-07-22T06:49:17Z</time>
      </trkpt>
      <trkpt lat="46.94316" lon="-0.60307">
        <ele>115.4</ele>
        <time>2012-07-22T06:49:18Z</time>
      </trkpt>
      <trkpt lat="46.94318" lon="-0.60315">
        <ele>115.4</ele>
        <time>2012-07-22T06:49:19Z</time>
      </trkpt>
      <trkpt lat="46.94319" lon="-0.60322">
        <ele>115.4</ele>
        <time>2012-07-22T06:49:20Z</time>
      </trkpt>
      <trkpt lat="46.94321" lon="-0.60329">
        <ele>115.4</ele>
        <time>2012-07-22T06:49:21Z</time>
      </trkpt>
      <trkpt lat="46.94322" lon="-0.60337">
        <ele>115.4</ele>
        <time>2012-07-22T06:49:22Z</time>
      </trkpt>
      <trkpt lat="46.94324" lon="-0.60344">
        <ele>115.4</ele>
        <time>2012-07-22T06:49:23Z</time>
      </trkpt>
      <trkpt lat="46.94326" lon="-0.60351">
        <ele>114.9</ele>
        <time>2012-07-22T06:49:24Z</time>
      </trkpt>
      <trkpt lat="46.94328" lon="-0.60359">
        <ele>114.5</ele>
        <time>2012-07-22T06:49:25Z</time>
      </trkpt>
      <trkpt lat="46.94332" lon="-0.60374">
        <ele>114</ele>
        <time>2012-07-22T06:49:26Z</time>
      </trkpt>
      <trkpt lat="46.94334" lon="-0.60382">
        <ele>113.5</ele>
        <time>2012-07-22T06:49:27Z</time>
      </trkpt>
      <trkpt lat="46.94336" lon="-0.6039">
        <ele>113.4</ele>
        <time>2012-07-22T06:49:28Z</time>
      </trkpt>
      <trkpt lat="46.94337" lon="-0.60397">
        <ele>113</ele>
        <time>2012-07-22T06:49:29Z</time>
      </trkpt>
      <trkpt lat="46.94339" lon="-0.60409">
        <ele>113</ele>
        <time>2012-07-22T06:49:31Z</time>
      </trkpt>
      <trkpt lat="46.9434" lon="-0.6042">
        <ele>113</ele>
        <time>2012-07-22T06:49:33Z</time>
      </trkpt>
      <trkpt lat="46.94341" lon="-0.6043">
        <ele>113</ele>
        <time>2012-07-22T06:49:35Z</time>
      </trkpt>
      <trkpt lat="46.94342" lon="-0.60441">
        <ele>113</ele>
        <time>2012-07-22T06:49:37Z</time>
      </trkpt>
      <trkpt lat="46.94343" lon="-0.60452">
        <ele>113.3</ele>
        <time>2012-07-22T06:49:39Z</time>
      </trkpt>
      <trkpt lat="46.94344" lon="-0.60462">
        <ele>113.4</ele>
        <time>2012-07-22T06:49:41Z</time>
      </trkpt>
      <trkpt lat="46.94345" lon="-0.60474">
        <ele>113.5</ele>
        <time>2012-07-22T06:49:43Z</time>
      </trkpt>
      <trkpt lat="46.94345" lon="-0.60485">
        <ele>114</ele>
        <time>2012-07-22T06:49:45Z</time>
      </trkpt>
      <trkpt lat="46.94345" lon="-0.6049">
        <ele>114</ele>
        <time>2012-07-22T06:49:49Z</time>
      </trkpt>
      <trkpt lat="46.94342" lon="-0.60505">
        <ele>114.8</ele>
        <time>2012-07-22T06:49:50Z</time>
      </trkpt>
      <trkpt lat="46.94342" lon="-0.60505">
        <ele>114.8</ele>
        <time>2012-07-22T06:49:53Z</time>
      </trkpt>
      <trkpt lat="46.9434" lon="-0.60523">
        <ele>115.5</ele>
        <time>2012-07-22T06:49:54Z</time>
      </trkpt>
      <trkpt lat="46.9434" lon="-0.6053">
        <ele>115.5</ele>
        <time>2012-07-22T06:49:55Z</time>
      </trkpt>
      <trkpt lat="46.9434" lon="-0.60537">
        <ele>115.8</ele>
        <time>2012-07-22T06:49:56Z</time>
      </trkpt>
      <trkpt lat="46.9434" lon="-0.60544">
        <ele>115.9</ele>
        <time>2012-07-22T06:49:57Z</time>
      </trkpt>
      <trkpt lat="46.9434" lon="-0.60551">
        <ele>116</ele>
        <time>2012-07-22T06:49:58Z</time>
      </trkpt>
      <trkpt lat="46.9434" lon="-0.60559">
        <ele>116</ele>
        <time>2012-07-22T06:49:59Z</time>
      </trkpt>
      <trkpt lat="46.94341" lon="-0.60567">
        <ele>116</ele>
        <time>2012-07-22T06:50:00Z</time>
      </trkpt>
      <trkpt lat="46.94342" lon="-0.60575">
        <ele>116</ele>
        <time>2012-07-22T06:50:01Z</time>
      </trkpt>
      <trkpt lat="46.94342" lon="-0.60582">
        <ele>116</ele>
        <time>2012-07-22T06:50:02Z</time>
      </trkpt>
      <trkpt lat="46.94343" lon="-0.6059">
        <ele>116</ele>
        <time>2012-07-22T06:50:03Z</time>
      </trkpt>
      <trkpt lat="46.94343" lon="-0.60603">
        <ele>116.3</ele>
        <time>2012-07-22T06:50:05Z</time>
      </trkpt>
      <trkpt lat="46.94345" lon="-0.60615">
        <ele>116.4</ele>
        <time>2012-07-22T06:50:07Z</time>
      </trkpt>
      <trkpt lat="46.94346" lon="-0.60627">
        <ele>116.4</ele>
        <time>2012-07-22T06:50:09Z</time>
      </trkpt>
      <trkpt lat="46.94347" lon="-0.60639">
        <ele>116.4</ele>
        <time>2012-07-22T06:50:11Z</time>
      </trkpt>
      <trkpt lat="46.94348" lon="-0.60643">
        <ele>116.5</ele>
        <time>2012-07-22T06:50:16Z</time>
      </trkpt>
      <trkpt lat="46.9435" lon="-0.60659">
        <ele>116.8</ele>
        <time>2012-07-22T06:50:17Z</time>
      </trkpt>
      <trkpt lat="46.94351" lon="-0.6067">
        <ele>117</ele>
        <time>2012-07-22T06:50:19Z</time>
      </trkpt>
      <trkpt lat="46.94351" lon="-0.60677">
        <ele>117</ele>
        <time>2012-07-22T06:50:20Z</time>
      </trkpt>
      <trkpt lat="46.94351" lon="-0.60684">
        <ele>119.5</ele>
        <time>2012-07-22T06:50:21Z</time>
      </trkpt>
      <trkpt lat="46.9435" lon="-0.60692">
        <ele>119.9</ele>
        <time>2012-07-22T06:50:22Z</time>
      </trkpt>
      <trkpt lat="46.9435" lon="-0.607">
        <ele>123</ele>
        <time>2012-07-22T06:50:23Z</time>
      </trkpt>
      <trkpt lat="46.9435" lon="-0.60708">
        <ele>123</ele>
        <time>2012-07-22T06:50:24Z</time>
      </trkpt>
      <trkpt lat="46.9435" lon="-0.60715">
        <ele>123.5</ele>
        <time>2012-07-22T06:50:25Z</time>
      </trkpt>
      <trkpt lat="46.9435" lon="-0.60728">
        <ele>124</ele>
        <time>2012-07-22T06:50:27Z</time>
      </trkpt>
      <trkpt lat="46.9435" lon="-0.60734">
        <ele>124.3</ele>
        <time>2012-07-22T06:50:28Z</time>
      </trkpt>
      <trkpt lat="46.9435" lon="-0.60741">
        <ele>127</ele>
        <time>2012-07-22T06:50:29Z</time>
      </trkpt>
      <trkpt lat="46.9435" lon="-0.60748">
        <ele>128.8</ele>
        <time>2012-07-22T06:50:30Z</time>
      </trkpt>
      <trkpt lat="46.9435" lon="-0.60755">
        <ele>129.8</ele>
        <time>2012-07-22T06:50:31Z</time>
      </trkpt>
      <trkpt lat="46.9435" lon="-0.60763">
        <ele>130.8</ele>
        <time>2012-07-22T06:50:32Z</time>
      </trkpt>
      <trkpt lat="46.9435" lon="-0.60771">
        <ele>131.3</ele>
        <time>2012-07-22T06:50:33Z</time>
      </trkpt>
      <trkpt lat="46.94351" lon="-0.60778">
        <ele>132</ele>
        <time>2012-07-22T06:50:34Z</time>
      </trkpt>
      <trkpt lat="46.94351" lon="-0.60786">
        <ele>132.3</ele>
        <time>2012-07-22T06:50:35Z</time>
      </trkpt>
      <trkpt lat="46.94352" lon="-0.60794">
        <ele>132.5</ele>
        <time>2012-07-22T06:50:36Z</time>
      </trkpt>
      <trkpt lat="46.94352" lon="-0.60802">
        <ele>132.5</ele>
        <time>2012-07-22T06:50:37Z</time>
      </trkpt>
      <trkpt lat="46.94352" lon="-0.6081">
        <ele>132.5</ele>
        <time>2012-07-22T06:50:38Z</time>
      </trkpt>
      <trkpt lat="46.94352" lon="-0.60818">
        <ele>132.3</ele>
        <time>2012-07-22T06:50:39Z</time>
      </trkpt>
      <trkpt lat="46.94351" lon="-0.60826">
        <ele>132.1</ele>
        <time>2012-07-22T06:50:40Z</time>
      </trkpt>
      <trkpt lat="46.94351" lon="-0.60834">
        <ele>131.8</ele>
        <time>2012-07-22T06:50:41Z</time>
      </trkpt>
      <trkpt lat="46.94351" lon="-0.60841">
        <ele>131.6</ele>
        <time>2012-07-22T06:50:42Z</time>
      </trkpt>
      <trkpt lat="46.9435" lon="-0.60849">
        <ele>131.3</ele>
        <time>2012-07-22T06:50:43Z</time>
      </trkpt>
      <trkpt lat="46.9435" lon="-0.60856">
        <ele>131.1</ele>
        <time>2012-07-22T06:50:44Z</time>
      </trkpt>
      <trkpt lat="46.9435" lon="-0.60864">
        <ele>130.8</ele>
        <time>2012-07-22T06:50:45Z</time>
      </trkpt>
      <trkpt lat="46.94349" lon="-0.60872">
        <ele>130.5</ele>
        <time>2012-07-22T06:50:46Z</time>
      </trkpt>
      <trkpt lat="46.94349" lon="-0.6088">
        <ele>130.1</ele>
        <time>2012-07-22T06:50:47Z</time>
      </trkpt>
      <trkpt lat="46.94348" lon="-0.60887">
        <ele>129.8</ele>
        <time>2012-07-22T06:50:48Z</time>
      </trkpt>
      <trkpt lat="46.94348" lon="-0.60895">
        <ele>129.6</ele>
        <time>2012-07-22T06:50:49Z</time>
      </trkpt>
      <trkpt lat="46.94347" lon="-0.60902">
        <ele>129.3</ele>
        <time>2012-07-22T06:50:50Z</time>
      </trkpt>
      <trkpt lat="46.94346" lon="-0.60909">
        <ele>129</ele>
        <time>2012-07-22T06:50:51Z</time>
      </trkpt>
      <trkpt lat="46.94346" lon="-0.60916">
        <ele>128.6</ele>
        <time>2012-07-22T06:50:52Z</time>
      </trkpt>
      <trkpt lat="46.94344" lon="-0.60927">
        <ele>128.3</ele>
        <time>2012-07-22T06:50:54Z</time>
      </trkpt>
      <trkpt lat="46.94344" lon="-0.60931">
        <ele>128.3</ele>
        <time>2012-07-22T06:50:59Z</time>
      </trkpt>
      <trkpt lat="46.94339" lon="-0.60942">
        <ele>128.1</ele>
        <time>2012-07-22T06:51:00Z</time>
      </trkpt>
      <trkpt lat="46.94339" lon="-0.60954">
        <ele>128</ele>
        <time>2012-07-22T06:51:04Z</time>
      </trkpt>
      <trkpt lat="46.94338" lon="-0.60967">
        <ele>127.9</ele>
        <time>2012-07-22T06:51:07Z</time>
      </trkpt>
      <trkpt lat="46.94338" lon="-0.60976">
        <ele>127.5</ele>
        <time>2012-07-22T06:51:09Z</time>
      </trkpt>
      <trkpt lat="46.94338" lon="-0.60986">
        <ele>127.4</ele>
        <time>2012-07-22T06:51:11Z</time>
      </trkpt>
      <trkpt lat="46.94339" lon="-0.60998">
        <ele>124</ele>
        <time>2012-07-22T06:51:13Z</time>
      </trkpt>
      <trkpt lat="46.94339" lon="-0.6101">
        <ele>124</ele>
        <time>2012-07-22T06:51:15Z</time>
      </trkpt>
      <trkpt lat="46.9434" lon="-0.61022">
        <ele>123.8</ele>
        <time>2012-07-22T06:51:17Z</time>
      </trkpt>
      <trkpt lat="46.94341" lon="-0.61035">
        <ele>123.5</ele>
        <time>2012-07-22T06:51:19Z</time>
      </trkpt>
      <trkpt lat="46.94342" lon="-0.61047">
        <ele>123</ele>
        <time>2012-07-22T06:51:21Z</time>
      </trkpt>
      <trkpt lat="46.94344" lon="-0.61059">
        <ele>122.9</ele>
        <time>2012-07-22T06:51:23Z</time>
      </trkpt>
      <trkpt lat="46.94345" lon="-0.61071">
        <ele>122.5</ele>
        <time>2012-07-22T06:51:25Z</time>
      </trkpt>
      <trkpt lat="46.94347" lon="-0.61084">
        <ele>120.5</ele>
        <time>2012-07-22T06:51:27Z</time>
      </trkpt>
      <trkpt lat="46.94348" lon="-0.61097">
        <ele>118</ele>
        <time>2012-07-22T06:51:29Z</time>
      </trkpt>
      <trkpt lat="46.94349" lon="-0.61104">
        <ele>117</ele>
        <time>2012-07-22T06:51:30Z</time>
      </trkpt>
      <trkpt lat="46.94349" lon="-0.61111">
        <ele>116</ele>
        <time>2012-07-22T06:51:31Z</time>
      </trkpt>
      <trkpt lat="46.9435" lon="-0.61119">
        <ele>115.4</ele>
        <time>2012-07-22T06:51:32Z</time>
      </trkpt>
      <trkpt lat="46.9435" lon="-0.61126">
        <ele>114.8</ele>
        <time>2012-07-22T06:51:33Z</time>
      </trkpt>
      <trkpt lat="46.94351" lon="-0.61133">
        <ele>114</ele>
        <time>2012-07-22T06:51:34Z</time>
      </trkpt>
      <trkpt lat="46.94352" lon="-0.6114">
        <ele>114</ele>
        <time>2012-07-22T06:51:35Z</time>
      </trkpt>
      <trkpt lat="46.94353" lon="-0.61148">
        <ele>114.5</ele>
        <time>2012-07-22T06:51:36Z</time>
      </trkpt>
      <trkpt lat="46.94353" lon="-0.61156">
        <ele>115.5</ele>
        <time>2012-07-22T06:51:37Z</time>
      </trkpt>
      <trkpt lat="46.94354" lon="-0.61164">
        <ele>116.4</ele>
        <time>2012-07-22T06:51:38Z</time>
      </trkpt>
      <trkpt lat="46.94354" lon="-0.61172">
        <ele>117</ele>
        <time>2012-07-22T06:51:39Z</time>
      </trkpt>
      <trkpt lat="46.94354" lon="-0.61179">
        <ele>117.5</ele>
        <time>2012-07-22T06:51:40Z</time>
      </trkpt>
      <trkpt lat="46.94355" lon="-0.61187">
        <ele>118.5</ele>
        <time>2012-07-22T06:51:41Z</time>
      </trkpt>
      <trkpt lat="46.94356" lon="-0.61193">
        <ele>118.5</ele>
        <time>2012-07-22T06:51:45Z</time>
      </trkpt>
      <trkpt lat="46.94362" lon="-0.61206">
        <ele>119</ele>
        <time>2012-07-22T06:51:46Z</time>
      </trkpt>
      <trkpt lat="46.94362" lon="-0.61206">
        <ele>119</ele>
        <time>2012-07-22T06:51:49Z</time>
      </trkpt>
      <trkpt lat="46.94366" lon="-0.61218">
        <ele>119.9</ele>
        <time>2012-07-22T06:51:50Z</time>
      </trkpt>
      <trkpt lat="46.94369" lon="-0.61226">
        <ele>120</ele>
        <time>2012-07-22T06:51:52Z</time>
      </trkpt>
      <trkpt lat="46.9437" lon="-0.61231">
        <ele>120.4</ele>
        <time>2012-07-22T06:51:53Z</time>
      </trkpt>
      <trkpt lat="46.94373" lon="-0.61246">
        <ele>120.5</ele>
        <time>2012-07-22T06:51:56Z</time>
      </trkpt>
      <trkpt lat="46.94375" lon="-0.61256">
        <ele>120.8</ele>
        <time>2012-07-22T06:51:58Z</time>
      </trkpt>
      <trkpt lat="46.94377" lon="-0.61265">
        <ele>120.9</ele>
        <time>2012-07-22T06:52:00Z</time>
      </trkpt>
      <trkpt lat="46.94379" lon="-0.61275">
        <ele>121</ele>
        <time>2012-07-22T06:52:02Z</time>
      </trkpt>
      <trkpt lat="46.94382" lon="-0.61287">
        <ele>121</ele>
        <time>2012-07-22T06:52:04Z</time>
      </trkpt>
      <trkpt lat="46.94383" lon="-0.61293">
        <ele>121</ele>
        <time>2012-07-22T06:52:05Z</time>
      </trkpt>
      <trkpt lat="46.94385" lon="-0.613">
        <ele>121.4</ele>
        <time>2012-07-22T06:52:06Z</time>
      </trkpt>
      <trkpt lat="46.94386" lon="-0.61307">
        <ele>121.5</ele>
        <time>2012-07-22T06:52:07Z</time>
      </trkpt>
      <trkpt lat="46.94387" lon="-0.61315">
        <ele>121.5</ele>
        <time>2012-07-22T06:52:08Z</time>
      </trkpt>
      <trkpt lat="46.94388" lon="-0.61323">
        <ele>121.4</ele>
        <time>2012-07-22T06:52:09Z</time>
      </trkpt>
      <trkpt lat="46.9439" lon="-0.61331">
        <ele>121.5</ele>
        <time>2012-07-22T06:52:10Z</time>
      </trkpt>
      <trkpt lat="46.94391" lon="-0.61338">
        <ele>121.8</ele>
        <time>2012-07-22T06:52:11Z</time>
      </trkpt>
      <trkpt lat="46.94392" lon="-0.61347">
        <ele>122</ele>
        <time>2012-07-22T06:52:12Z</time>
      </trkpt>
      <trkpt lat="46.94393" lon="-0.61355">
        <ele>122.9</ele>
        <time>2012-07-22T06:52:13Z</time>
      </trkpt>
      <trkpt lat="46.94394" lon="-0.61363">
        <ele>123.4</ele>
        <time>2012-07-22T06:52:14Z</time>
      </trkpt>
      <trkpt lat="46.94395" lon="-0.61371">
        <ele>124</ele>
        <time>2012-07-22T06:52:15Z</time>
      </trkpt>
      <trkpt lat="46.94396" lon="-0.61379">
        <ele>124.5</ele>
        <time>2012-07-22T06:52:16Z</time>
      </trkpt>
      <trkpt lat="46.94398" lon="-0.61387">
        <ele>124.9</ele>
        <time>2012-07-22T06:52:17Z</time>
      </trkpt>
      <trkpt lat="46.94399" lon="-0.61394">
        <ele>125</ele>
        <time>2012-07-22T06:52:18Z</time>
      </trkpt>
      <trkpt lat="46.944" lon="-0.61401">
        <ele>125.3</ele>
        <time>2012-07-22T06:52:19Z</time>
      </trkpt>
      <trkpt lat="46.94402" lon="-0.61409">
        <ele>125.3</ele>
        <time>2012-07-22T06:52:20Z</time>
      </trkpt>
      <trkpt lat="46.94403" lon="-0.61416">
        <ele>125.3</ele>
        <time>2012-07-22T06:52:21Z</time>
      </trkpt>
      <trkpt lat="46.94404" lon="-0.61423">
        <ele>125</ele>
        <time>2012-07-22T06:52:22Z</time>
      </trkpt>
      <trkpt lat="46.94406" lon="-0.6143">
        <ele>125</ele>
        <time>2012-07-22T06:52:23Z</time>
      </trkpt>
      <trkpt lat="46.94407" lon="-0.61437">
        <ele>124.9</ele>
        <time>2012-07-22T06:52:24Z</time>
      </trkpt>
      <trkpt lat="46.94409" lon="-0.61449">
        <ele>124.5</ele>
        <time>2012-07-22T06:52:26Z</time>
      </trkpt>
      <trkpt lat="46.9441" lon="-0.6146">
        <ele>124.3</ele>
        <time>2012-07-22T06:52:28Z</time>
      </trkpt>
      <trkpt lat="46.94411" lon="-0.6147">
        <ele>124</ele>
        <time>2012-07-22T06:52:30Z</time>
      </trkpt>
      <trkpt lat="46.94412" lon="-0.6148">
        <ele>124.3</ele>
        <time>2012-07-22T06:52:32Z</time>
      </trkpt>
      <trkpt lat="46.94413" lon="-0.61487">
        <ele>124.3</ele>
        <time>2012-07-22T06:52:33Z</time>
      </trkpt>
      <trkpt lat="46.94414" lon="-0.61494">
        <ele>124.5</ele>
        <time>2012-07-22T06:52:34Z</time>
      </trkpt>
      <trkpt lat="46.94415" lon="-0.61502">
        <ele>124.9</ele>
        <time>2012-07-22T06:52:35Z</time>
      </trkpt>
      <trkpt lat="46.94416" lon="-0.61509">
        <ele>125</ele>
        <time>2012-07-22T06:52:36Z</time>
      </trkpt>
      <trkpt lat="46.94418" lon="-0.61516">
        <ele>125</ele>
        <time>2012-07-22T06:52:37Z</time>
      </trkpt>
      <trkpt lat="46.94419" lon="-0.61524">
        <ele>125.3</ele>
        <time>2012-07-22T06:52:38Z</time>
      </trkpt>
      <trkpt lat="46.94419" lon="-0.61531">
        <ele>125.3</ele>
        <time>2012-07-22T06:52:39Z</time>
      </trkpt>
      <trkpt lat="46.9442" lon="-0.61539">
        <ele>125.5</ele>
        <time>2012-07-22T06:52:40Z</time>
      </trkpt>
      <trkpt lat="46.94421" lon="-0.61546">
        <ele>125.9</ele>
        <time>2012-07-22T06:52:41Z</time>
      </trkpt>
      <trkpt lat="46.94421" lon="-0.61554">
        <ele>126.3</ele>
        <time>2012-07-22T06:52:42Z</time>
      </trkpt>
      <trkpt lat="46.94422" lon="-0.61562">
        <ele>126.5</ele>
        <time>2012-07-22T06:52:43Z</time>
      </trkpt>
      <trkpt lat="46.94422" lon="-0.61569">
        <ele>126.9</ele>
        <time>2012-07-22T06:52:44Z</time>
      </trkpt>
      <trkpt lat="46.94423" lon="-0.61576">
        <ele>127</ele>
        <time>2012-07-22T06:52:45Z</time>
      </trkpt>
      <trkpt lat="46.94423" lon="-0.61583">
        <ele>127</ele>
        <time>2012-07-22T06:52:46Z</time>
      </trkpt>
      <trkpt lat="46.94423" lon="-0.6159">
        <ele>127.4</ele>
        <time>2012-07-22T06:52:47Z</time>
      </trkpt>
      <trkpt lat="46.94423" lon="-0.61597">
        <ele>127.4</ele>
        <time>2012-07-22T06:52:48Z</time>
      </trkpt>
      <trkpt lat="46.94423" lon="-0.61604">
        <ele>127.5</ele>
        <time>2012-07-22T06:52:49Z</time>
      </trkpt>
      <trkpt lat="46.94423" lon="-0.61617">
        <ele>127.5</ele>
        <time>2012-07-22T06:52:51Z</time>
      </trkpt>
      <trkpt lat="46.94425" lon="-0.6163">
        <ele>127.9</ele>
        <time>2012-07-22T06:52:53Z</time>
      </trkpt>
      <trkpt lat="46.94425" lon="-0.61636">
        <ele>128</ele>
        <time>2012-07-22T06:52:54Z</time>
      </trkpt>
      <trkpt lat="46.94424" lon="-0.61643">
        <ele>128.1</ele>
        <time>2012-07-22T06:52:55Z</time>
      </trkpt>
      <trkpt lat="46.94422" lon="-0.61656">
        <ele>128.3</ele>
        <time>2012-07-22T06:52:57Z</time>
      </trkpt>
      <trkpt lat="46.94417" lon="-0.61663">
        <ele>128.8</ele>
        <time>2012-07-22T06:53:01Z</time>
      </trkpt>
      <trkpt lat="46.94413" lon="-0.61668">
        <ele>129.1</ele>
        <time>2012-07-22T06:53:03Z</time>
      </trkpt>
      <trkpt lat="46.94412" lon="-0.6168">
        <ele>129.3</ele>
        <time>2012-07-22T06:53:05Z</time>
      </trkpt>
      <trkpt lat="46.94411" lon="-0.61688">
        <ele>129.6</ele>
        <time>2012-07-22T06:53:07Z</time>
      </trkpt>
      <trkpt lat="46.9441" lon="-0.61697">
        <ele>129.8</ele>
        <time>2012-07-22T06:53:09Z</time>
      </trkpt>
      <trkpt lat="46.94409" lon="-0.61707">
        <ele>130</ele>
        <time>2012-07-22T06:53:11Z</time>
      </trkpt>
      <trkpt lat="46.94407" lon="-0.61719">
        <ele>130.1</ele>
        <time>2012-07-22T06:53:14Z</time>
      </trkpt>
      <trkpt lat="46.94407" lon="-0.6173">
        <ele>130.3</ele>
        <time>2012-07-22T06:53:17Z</time>
      </trkpt>
      <trkpt lat="46.94402" lon="-0.61741">
        <ele>130.5</ele>
        <time>2012-07-22T06:53:20Z</time>
      </trkpt>
      <trkpt lat="46.94398" lon="-0.61748">
        <ele>130.6</ele>
        <time>2012-07-22T06:53:22Z</time>
      </trkpt>
      <trkpt lat="46.94395" lon="-0.61757">
        <ele>130.6</ele>
        <time>2012-07-22T06:53:24Z</time>
      </trkpt>
      <trkpt lat="46.94396" lon="-0.61768">
        <ele>130.6</ele>
        <time>2012-07-22T06:53:26Z</time>
      </trkpt>
      <trkpt lat="46.94397" lon="-0.6178">
        <ele>130.6</ele>
        <time>2012-07-22T06:53:28Z</time>
      </trkpt>
      <trkpt lat="46.94397" lon="-0.61787">
        <ele>130.6</ele>
        <time>2012-07-22T06:53:29Z</time>
      </trkpt>
      <trkpt lat="46.94397" lon="-0.61793">
        <ele>130.6</ele>
        <time>2012-07-22T06:53:30Z</time>
      </trkpt>
      <trkpt lat="46.94397" lon="-0.618">
        <ele>130.5</ele>
        <time>2012-07-22T06:53:31Z</time>
      </trkpt>
      <trkpt lat="46.94397" lon="-0.61807">
        <ele>130.3</ele>
        <time>2012-07-22T06:53:32Z</time>
      </trkpt>
      <trkpt lat="46.94396" lon="-0.61814">
        <ele>130.3</ele>
        <time>2012-07-22T06:53:33Z</time>
      </trkpt>
      <trkpt lat="46.94395" lon="-0.61821">
        <ele>130.3</ele>
        <time>2012-07-22T06:53:34Z</time>
      </trkpt>
      <trkpt lat="46.94394" lon="-0.61827">
        <ele>130.5</ele>
        <time>2012-07-22T06:53:35Z</time>
      </trkpt>
      <trkpt lat="46.94392" lon="-0.61834">
        <ele>130.5</ele>
        <time>2012-07-22T06:53:36Z</time>
      </trkpt>
      <trkpt lat="46.94391" lon="-0.61841">
        <ele>130.5</ele>
        <time>2012-07-22T06:53:37Z</time>
      </trkpt>
      <trkpt lat="46.9439" lon="-0.61847">
        <ele>130.5</ele>
        <time>2012-07-22T06:53:38Z</time>
      </trkpt>
      <trkpt lat="46.94388" lon="-0.61854">
        <ele>130.3</ele>
        <time>2012-07-22T06:53:39Z</time>
      </trkpt>
      <trkpt lat="46.94385" lon="-0.61865">
        <ele>130.3</ele>
        <time>2012-07-22T06:53:41Z</time>
      </trkpt>
      <trkpt lat="46.94382" lon="-0.61878">
        <ele>130.5</ele>
        <time>2012-07-22T06:53:43Z</time>
      </trkpt>
      <trkpt lat="46.9438" lon="-0.61884">
        <ele>130.5</ele>
        <time>2012-07-22T06:53:44Z</time>
      </trkpt>
      <trkpt lat="46.94379" lon="-0.6189">
        <ele>130.5</ele>
        <time>2012-07-22T06:53:45Z</time>
      </trkpt>
      <trkpt lat="46.94378" lon="-0.61897">
        <ele>130.6</ele>
        <time>2012-07-22T06:53:46Z</time>
      </trkpt>
      <trkpt lat="46.94376" lon="-0.61903">
        <ele>130.6</ele>
        <time>2012-07-22T06:53:47Z</time>
      </trkpt>
      <trkpt lat="46.94374" lon="-0.6191">
        <ele>130.6</ele>
        <time>2012-07-22T06:53:48Z</time>
      </trkpt>
      <trkpt lat="46.94372" lon="-0.61916">
        <ele>130.5</ele>
        <time>2012-07-22T06:53:49Z</time>
      </trkpt>
      <trkpt lat="46.94371" lon="-0.61923">
        <ele>130.3</ele>
        <time>2012-07-22T06:53:50Z</time>
      </trkpt>
      <trkpt lat="46.94368" lon="-0.61929">
        <ele>130.1</ele>
        <time>2012-07-22T06:53:51Z</time>
      </trkpt>
      <trkpt lat="46.94366" lon="-0.61936">
        <ele>130.1</ele>
        <time>2012-07-22T06:53:52Z</time>
      </trkpt>
      <trkpt lat="46.94364" lon="-0.61942">
        <ele>130.1</ele>
        <time>2012-07-22T06:53:53Z</time>
      </trkpt>
      <trkpt lat="46.94362" lon="-0.61948">
        <ele>130</ele>
        <time>2012-07-22T06:53:54Z</time>
      </trkpt>
      <trkpt lat="46.94359" lon="-0.61955">
        <ele>130</ele>
        <time>2012-07-22T06:53:55Z</time>
      </trkpt>
      <trkpt lat="46.94357" lon="-0.61961">
        <ele>130.3</ele>
        <time>2012-07-22T06:53:56Z</time>
      </trkpt>
      <trkpt lat="46.94355" lon="-0.61967">
        <ele>130.5</ele>
        <time>2012-07-22T06:53:57Z</time>
      </trkpt>
      <trkpt lat="46.94352" lon="-0.61978">
        <ele>130.6</ele>
        <time>2012-07-22T06:53:59Z</time>
      </trkpt>
      <trkpt lat="46.94348" lon="-0.61988">
        <ele>130.6</ele>
        <time>2012-07-22T06:54:01Z</time>
      </trkpt>
      <trkpt lat="46.94344" lon="-0.61999">
        <ele>130.6</ele>
        <time>2012-07-22T06:54:03Z</time>
      </trkpt>
      <trkpt lat="46.9434" lon="-0.62008">
        <ele>130.5</ele>
        <time>2012-07-22T06:54:05Z</time>
      </trkpt>
      <trkpt lat="46.94336" lon="-0.62017">
        <ele>130.5</ele>
        <time>2012-07-22T06:54:07Z</time>
      </trkpt>
      <trkpt lat="46.94332" lon="-0.62025">
        <ele>130.3</ele>
        <time>2012-07-22T06:54:09Z</time>
      </trkpt>
      <trkpt lat="46.94327" lon="-0.62033">
        <ele>130.3</ele>
        <time>2012-07-22T06:54:11Z</time>
      </trkpt>
      <trkpt lat="46.94321" lon="-0.62042">
        <ele>130</ele>
        <time>2012-07-22T06:54:13Z</time>
      </trkpt>
      <trkpt lat="46.94315" lon="-0.6205">
        <ele>129.8</ele>
        <time>2012-07-22T06:54:15Z</time>
      </trkpt>
      <trkpt lat="46.94309" lon="-0.62058">
        <ele>129.5</ele>
        <time>2012-07-22T06:54:17Z</time>
      </trkpt>
      <trkpt lat="46.94303" lon="-0.62066">
        <ele>129.3</ele>
        <time>2012-07-22T06:54:19Z</time>
      </trkpt>
      <trkpt lat="46.94297" lon="-0.62075">
        <ele>129.1</ele>
        <time>2012-07-22T06:54:21Z</time>
      </trkpt>
      <trkpt lat="46.94294" lon="-0.62081">
        <ele>129.1</ele>
        <time>2012-07-22T06:54:22Z</time>
      </trkpt>
      <trkpt lat="46.94291" lon="-0.62086">
        <ele>129.5</ele>
        <time>2012-07-22T06:54:23Z</time>
      </trkpt>
      <trkpt lat="46.94288" lon="-0.62092">
        <ele>129.8</ele>
        <time>2012-07-22T06:54:24Z</time>
      </trkpt>
      <trkpt lat="46.94285" lon="-0.62098">
        <ele>130.1</ele>
        <time>2012-07-22T06:54:25Z</time>
      </trkpt>
      <trkpt lat="46.94282" lon="-0.62105">
        <ele>130.8</ele>
        <time>2012-07-22T06:54:26Z</time>
      </trkpt>
      <trkpt lat="46.94279" lon="-0.62112">
        <ele>131.3</ele>
        <time>2012-07-22T06:54:27Z</time>
      </trkpt>
      <trkpt lat="46.94276" lon="-0.62118">
        <ele>131.8</ele>
        <time>2012-07-22T06:54:28Z</time>
      </trkpt>
      <trkpt lat="46.94273" lon="-0.62124">
        <ele>132.3</ele>
        <time>2012-07-22T06:54:29Z</time>
      </trkpt>
      <trkpt lat="46.94269" lon="-0.6213">
        <ele>132.8</ele>
        <time>2012-07-22T06:54:30Z</time>
      </trkpt>
      <trkpt lat="46.94266" lon="-0.62136">
        <ele>133.1</ele>
        <time>2012-07-22T06:54:31Z</time>
      </trkpt>
      <trkpt lat="46.94262" lon="-0.62141">
        <ele>133.3</ele>
        <time>2012-07-22T06:54:32Z</time>
      </trkpt>
      <trkpt lat="46.94258" lon="-0.62146">
        <ele>133.6</ele>
        <time>2012-07-22T06:54:33Z</time>
      </trkpt>
      <trkpt lat="46.94254" lon="-0.62151">
        <ele>133.8</ele>
        <time>2012-07-22T06:54:34Z</time>
      </trkpt>
      <trkpt lat="46.94251" lon="-0.62156">
        <ele>133.8</ele>
        <time>2012-07-22T06:54:35Z</time>
      </trkpt>
      <trkpt lat="46.94247" lon="-0.62161">
        <ele>134</ele>
        <time>2012-07-22T06:54:36Z</time>
      </trkpt>
      <trkpt lat="46.94243" lon="-0.62165">
        <ele>134.1</ele>
        <time>2012-07-22T06:54:37Z</time>
      </trkpt>
      <trkpt lat="46.9424" lon="-0.6217">
        <ele>134.3</ele>
        <time>2012-07-22T06:54:38Z</time>
      </trkpt>
      <trkpt lat="46.94234" lon="-0.62179">
        <ele>134.6</ele>
        <time>2012-07-22T06:54:40Z</time>
      </trkpt>
      <trkpt lat="46.94229" lon="-0.62187">
        <ele>134.6</ele>
        <time>2012-07-22T06:54:42Z</time>
      </trkpt>
      <trkpt lat="46.94225" lon="-0.62194">
        <ele>134.6</ele>
        <time>2012-07-22T06:54:44Z</time>
      </trkpt>
      <trkpt lat="46.9422" lon="-0.62201">
        <ele>134.6</ele>
        <time>2012-07-22T06:54:46Z</time>
      </trkpt>
      <trkpt lat="46.94215" lon="-0.62208">
        <ele>134.6</ele>
        <time>2012-07-22T06:54:48Z</time>
      </trkpt>
      <trkpt lat="46.9421" lon="-0.62214">
        <ele>134.6</ele>
        <time>2012-07-22T06:54:50Z</time>
      </trkpt>
      <trkpt lat="46.94206" lon="-0.62221">
        <ele>134.6</ele>
        <time>2012-07-22T06:54:52Z</time>
      </trkpt>
      <trkpt lat="46.94201" lon="-0.62228">
        <ele>134.6</ele>
        <time>2012-07-22T06:54:54Z</time>
      </trkpt>
      <trkpt lat="46.94196" lon="-0.62235">
        <ele>134.6</ele>
        <time>2012-07-22T06:54:56Z</time>
      </trkpt>
      <trkpt lat="46.94194" lon="-0.62238">
        <ele>134.6</ele>
        <time>2012-07-22T06:54:57Z</time>
      </trkpt>
      <trkpt lat="46.94186" lon="-0.6225">
        <ele>134.3</ele>
        <time>2012-07-22T06:55:00Z</time>
      </trkpt>
      <trkpt lat="46.94182" lon="-0.6226">
        <ele>134.3</ele>
        <time>2012-07-22T06:55:02Z</time>
      </trkpt>
      <trkpt lat="46.94178" lon="-0.6227">
        <ele>134.5</ele>
        <time>2012-07-22T06:55:04Z</time>
      </trkpt>
      <trkpt lat="46.94174" lon="-0.6228">
        <ele>134.6</ele>
        <time>2012-07-22T06:55:06Z</time>
      </trkpt>
      <trkpt lat="46.94171" lon="-0.62289">
        <ele>134.6</ele>
        <time>2012-07-22T06:55:08Z</time>
      </trkpt>
      <trkpt lat="46.94168" lon="-0.62298">
        <ele>134.6</ele>
        <time>2012-07-22T06:55:10Z</time>
      </trkpt>
      <trkpt lat="46.94164" lon="-0.62309">
        <ele>135.6</ele>
        <time>2012-07-22T06:55:12Z</time>
      </trkpt>
      <trkpt lat="46.9416" lon="-0.62319">
        <ele>136</ele>
        <time>2012-07-22T06:55:14Z</time>
      </trkpt>
      <trkpt lat="46.94156" lon="-0.62329">
        <ele>136.5</ele>
        <time>2012-07-22T06:55:16Z</time>
      </trkpt>
      <trkpt lat="46.94152" lon="-0.6234">
        <ele>136.8</ele>
        <time>2012-07-22T06:55:18Z</time>
      </trkpt>
      <trkpt lat="46.94148" lon="-0.62351">
        <ele>137.1</ele>
        <time>2012-07-22T06:55:20Z</time>
      </trkpt>
      <trkpt lat="46.94146" lon="-0.62356">
        <ele>137.6</ele>
        <time>2012-07-22T06:55:21Z</time>
      </trkpt>
      <trkpt lat="46.94143" lon="-0.62363">
        <ele>138.3</ele>
        <time>2012-07-22T06:55:22Z</time>
      </trkpt>
      <trkpt lat="46.94141" lon="-0.62369">
        <ele>139.1</ele>
        <time>2012-07-22T06:55:23Z</time>
      </trkpt>
      <trkpt lat="46.94138" lon="-0.62375">
        <ele>140.1</ele>
        <time>2012-07-22T06:55:24Z</time>
      </trkpt>
      <trkpt lat="46.94135" lon="-0.62382">
        <ele>140.8</ele>
        <time>2012-07-22T06:55:25Z</time>
      </trkpt>
      <trkpt lat="46.94133" lon="-0.62388">
        <ele>141.5</ele>
        <time>2012-07-22T06:55:26Z</time>
      </trkpt>
      <trkpt lat="46.9413" lon="-0.62394">
        <ele>142</ele>
        <time>2012-07-22T06:55:27Z</time>
      </trkpt>
      <trkpt lat="46.94128" lon="-0.624">
        <ele>142.3</ele>
        <time>2012-07-22T06:55:28Z</time>
      </trkpt>
      <trkpt lat="46.94125" lon="-0.62406">
        <ele>142.6</ele>
        <time>2012-07-22T06:55:29Z</time>
      </trkpt>
      <trkpt lat="46.94122" lon="-0.62412">
        <ele>142.8</ele>
        <time>2012-07-22T06:55:30Z</time>
      </trkpt>
      <trkpt lat="46.94119" lon="-0.62417">
        <ele>142.8</ele>
        <time>2012-07-22T06:55:31Z</time>
      </trkpt>
      <trkpt lat="46.94116" lon="-0.62423">
        <ele>142.8</ele>
        <time>2012-07-22T06:55:32Z</time>
      </trkpt>
      <trkpt lat="46.94113" lon="-0.62428">
        <ele>142.8</ele>
        <time>2012-07-22T06:55:33Z</time>
      </trkpt>
      <trkpt lat="46.9411" lon="-0.62433">
        <ele>142.8</ele>
        <time>2012-07-22T06:55:34Z</time>
      </trkpt>
      <trkpt lat="46.94107" lon="-0.62438">
        <ele>142.8</ele>
        <time>2012-07-22T06:55:35Z</time>
      </trkpt>
      <trkpt lat="46.94104" lon="-0.62444">
        <ele>142.8</ele>
        <time>2012-07-22T06:55:36Z</time>
      </trkpt>
      <trkpt lat="46.94101" lon="-0.62449">
        <ele>142.6</ele>
        <time>2012-07-22T06:55:37Z</time>
      </trkpt>
      <trkpt lat="46.94098" lon="-0.62455">
        <ele>142.6</ele>
        <time>2012-07-22T06:55:38Z</time>
      </trkpt>
      <trkpt lat="46.94094" lon="-0.62461">
        <ele>142.6</ele>
        <time>2012-07-22T06:55:39Z</time>
      </trkpt>
      <trkpt lat="46.94091" lon="-0.62468">
        <ele>142.6</ele>
        <time>2012-07-22T06:55:40Z</time>
      </trkpt>
      <trkpt lat="46.94088" lon="-0.62474">
        <ele>142.6</ele>
        <time>2012-07-22T06:55:41Z</time>
      </trkpt>
      <trkpt lat="46.94085" lon="-0.62481">
        <ele>142.6</ele>
        <time>2012-07-22T06:55:42Z</time>
      </trkpt>
      <trkpt lat="46.94081" lon="-0.62488">
        <ele>142.6</ele>
        <time>2012-07-22T06:55:43Z</time>
      </trkpt>
      <trkpt lat="46.94078" lon="-0.62496">
        <ele>142.6</ele>
        <time>2012-07-22T06:55:44Z</time>
      </trkpt>
      <trkpt lat="46.94074" lon="-0.62503">
        <ele>142.6</ele>
        <time>2012-07-22T06:55:45Z</time>
      </trkpt>
      <trkpt lat="46.94071" lon="-0.6251">
        <ele>142.6</ele>
        <time>2012-07-22T06:55:46Z</time>
      </trkpt>
      <trkpt lat="46.94067" lon="-0.62518">
        <ele>142.5</ele>
        <time>2012-07-22T06:55:47Z</time>
      </trkpt>
      <trkpt lat="46.94063" lon="-0.62526">
        <ele>142.3</ele>
        <time>2012-07-22T06:55:48Z</time>
      </trkpt>
      <trkpt lat="46.94059" lon="-0.62534">
        <ele>142.5</ele>
        <time>2012-07-22T06:55:49Z</time>
      </trkpt>
      <trkpt lat="46.94056" lon="-0.62543">
        <ele>142.6</ele>
        <time>2012-07-22T06:55:50Z</time>
      </trkpt>
      <trkpt lat="46.94053" lon="-0.62552">
        <ele>142.8</ele>
        <time>2012-07-22T06:55:51Z</time>
      </trkpt>
      <trkpt lat="46.9405" lon="-0.6256">
        <ele>143</ele>
        <time>2012-07-22T06:55:52Z</time>
      </trkpt>
      <trkpt lat="46.94046" lon="-0.62568">
        <ele>143.1</ele>
        <time>2012-07-22T06:55:53Z</time>
      </trkpt>
      <trkpt lat="46.94043" lon="-0.62576">
        <ele>143.3</ele>
        <time>2012-07-22T06:55:54Z</time>
      </trkpt>
      <trkpt lat="46.94041" lon="-0.62584">
        <ele>143.5</ele>
        <time>2012-07-22T06:55:55Z</time>
      </trkpt>
      <trkpt lat="46.94038" lon="-0.62591">
        <ele>143.6</ele>
        <time>2012-07-22T06:55:56Z</time>
      </trkpt>
      <trkpt lat="46.94035" lon="-0.62598">
        <ele>143.8</ele>
        <time>2012-07-22T06:55:57Z</time>
      </trkpt>
      <trkpt lat="46.94032" lon="-0.62604">
        <ele>144</ele>
        <time>2012-07-22T06:55:58Z</time>
      </trkpt>
      <trkpt lat="46.9403" lon="-0.62611">
        <ele>144</ele>
        <time>2012-07-22T06:55:59Z</time>
      </trkpt>
      <trkpt lat="46.94029" lon="-0.62619">
        <ele>144.1</ele>
        <time>2012-07-22T06:56:00Z</time>
      </trkpt>
      <trkpt lat="46.94028" lon="-0.62626">
        <ele>144.1</ele>
        <time>2012-07-22T06:56:01Z</time>
      </trkpt>
      <trkpt lat="46.94027" lon="-0.62634">
        <ele>144.1</ele>
        <time>2012-07-22T06:56:02Z</time>
      </trkpt>
      <trkpt lat="46.94026" lon="-0.62642">
        <ele>144.1</ele>
        <time>2012-07-22T06:56:03Z</time>
      </trkpt>
      <trkpt lat="46.94024" lon="-0.6265">
        <ele>144.1</ele>
        <time>2012-07-22T06:56:04Z</time>
      </trkpt>
      <trkpt lat="46.94023" lon="-0.62658">
        <ele>144.1</ele>
        <time>2012-07-22T06:56:05Z</time>
      </trkpt>
      <trkpt lat="46.94022" lon="-0.62666">
        <ele>144.1</ele>
        <time>2012-07-22T06:56:06Z</time>
      </trkpt>
      <trkpt lat="46.94021" lon="-0.62673">
        <ele>144.1</ele>
        <time>2012-07-22T06:56:07Z</time>
      </trkpt>
      <trkpt lat="46.9402" lon="-0.62681">
        <ele>144.1</ele>
        <time>2012-07-22T06:56:08Z</time>
      </trkpt>
      <trkpt lat="46.94019" lon="-0.62688">
        <ele>144.1</ele>
        <time>2012-07-22T06:56:09Z</time>
      </trkpt>
      <trkpt lat="46.94018" lon="-0.62695">
        <ele>144.1</ele>
        <time>2012-07-22T06:56:10Z</time>
      </trkpt>
      <trkpt lat="46.94016" lon="-0.62702">
        <ele>144.1</ele>
        <time>2012-07-22T06:56:11Z</time>
      </trkpt>
      <trkpt lat="46.94014" lon="-0.62709">
        <ele>144.1</ele>
        <time>2012-07-22T06:56:12Z</time>
      </trkpt>
      <trkpt lat="46.94013" lon="-0.62717">
        <ele>144.3</ele>
        <time>2012-07-22T06:56:13Z</time>
      </trkpt>
      <trkpt lat="46.94011" lon="-0.62724">
        <ele>144.3</ele>
        <time>2012-07-22T06:56:14Z</time>
      </trkpt>
      <trkpt lat="46.94009" lon="-0.62732">
        <ele>144.3</ele>
        <time>2012-07-22T06:56:15Z</time>
      </trkpt>
      <trkpt lat="46.94007" lon="-0.6274">
        <ele>144.3</ele>
        <time>2012-07-22T06:56:16Z</time>
      </trkpt>
      <trkpt lat="46.94005" lon="-0.62747">
        <ele>144.5</ele>
        <time>2012-07-22T06:56:17Z</time>
      </trkpt>
      <trkpt lat="46.94003" lon="-0.62755">
        <ele>144.5</ele>
        <time>2012-07-22T06:56:18Z</time>
      </trkpt>
      <trkpt lat="46.94001" lon="-0.62763">
        <ele>144.5</ele>
        <time>2012-07-22T06:56:19Z</time>
      </trkpt>
      <trkpt lat="46.94" lon="-0.6277">
        <ele>144.5</ele>
        <time>2012-07-22T06:56:20Z</time>
      </trkpt>
      <trkpt lat="46.93998" lon="-0.62778">
        <ele>144.3</ele>
        <time>2012-07-22T06:56:21Z</time>
      </trkpt>
      <trkpt lat="46.93996" lon="-0.62786">
        <ele>144.3</ele>
        <time>2012-07-22T06:56:22Z</time>
      </trkpt>
      <trkpt lat="46.93993" lon="-0.62793">
        <ele>144.3</ele>
        <time>2012-07-22T06:56:23Z</time>
      </trkpt>
      <trkpt lat="46.93991" lon="-0.62801">
        <ele>144.3</ele>
        <time>2012-07-22T06:56:24Z</time>
      </trkpt>
      <trkpt lat="46.93989" lon="-0.62809">
        <ele>144.1</ele>
        <time>2012-07-22T06:56:25Z</time>
      </trkpt>
      <trkpt lat="46.93987" lon="-0.62817">
        <ele>144.1</ele>
        <time>2012-07-22T06:56:26Z</time>
      </trkpt>
      <trkpt lat="46.93985" lon="-0.62825">
        <ele>144.1</ele>
        <time>2012-07-22T06:56:27Z</time>
      </trkpt>
      <trkpt lat="46.93983" lon="-0.62833">
        <ele>144.1</ele>
        <time>2012-07-22T06:56:28Z</time>
      </trkpt>
      <trkpt lat="46.9398" lon="-0.62841">
        <ele>144</ele>
        <time>2012-07-22T06:56:29Z</time>
      </trkpt>
      <trkpt lat="46.93978" lon="-0.62849">
        <ele>144</ele>
        <time>2012-07-22T06:56:30Z</time>
      </trkpt>
      <trkpt lat="46.93976" lon="-0.62857">
        <ele>143.8</ele>
        <time>2012-07-22T06:56:31Z</time>
      </trkpt>
      <trkpt lat="46.93974" lon="-0.62865">
        <ele>143.8</ele>
        <time>2012-07-22T06:56:32Z</time>
      </trkpt>
      <trkpt lat="46.93971" lon="-0.62873">
        <ele>143.8</ele>
        <time>2012-07-22T06:56:33Z</time>
      </trkpt>
      <trkpt lat="46.93969" lon="-0.62881">
        <ele>143.8</ele>
        <time>2012-07-22T06:56:34Z</time>
      </trkpt>
      <trkpt lat="46.93967" lon="-0.62889">
        <ele>143.8</ele>
        <time>2012-07-22T06:56:35Z</time>
      </trkpt>
      <trkpt lat="46.93965" lon="-0.62897">
        <ele>143.6</ele>
        <time>2012-07-22T06:56:36Z</time>
      </trkpt>
      <trkpt lat="46.93963" lon="-0.62905">
        <ele>143.6</ele>
        <time>2012-07-22T06:56:37Z</time>
      </trkpt>
      <trkpt lat="46.93961" lon="-0.62913">
        <ele>143.6</ele>
        <time>2012-07-22T06:56:38Z</time>
      </trkpt>
      <trkpt lat="46.93958" lon="-0.62922">
        <ele>143.6</ele>
        <time>2012-07-22T06:56:39Z</time>
      </trkpt>
      <trkpt lat="46.93956" lon="-0.6293">
        <ele>143.6</ele>
        <time>2012-07-22T06:56:40Z</time>
      </trkpt>
      <trkpt lat="46.93954" lon="-0.62938">
        <ele>143.6</ele>
        <time>2012-07-22T06:56:41Z</time>
      </trkpt>
      <trkpt lat="46.93952" lon="-0.62947">
        <ele>143.8</ele>
        <time>2012-07-22T06:56:42Z</time>
      </trkpt>
      <trkpt lat="46.9395" lon="-0.62955">
        <ele>143.8</ele>
        <time>2012-07-22T06:56:43Z</time>
      </trkpt>
      <trkpt lat="46.93947" lon="-0.62963">
        <ele>143.8</ele>
        <time>2012-07-22T06:56:44Z</time>
      </trkpt>
      <trkpt lat="46.93945" lon="-0.62971">
        <ele>143.8</ele>
        <time>2012-07-22T06:56:45Z</time>
      </trkpt>
      <trkpt lat="46.93943" lon="-0.62979">
        <ele>143.8</ele>
        <time>2012-07-22T06:56:46Z</time>
      </trkpt>
      <trkpt lat="46.93941" lon="-0.62987">
        <ele>143.6</ele>
        <time>2012-07-22T06:56:47Z</time>
      </trkpt>
      <trkpt lat="46.93939" lon="-0.62995">
        <ele>143.6</ele>
        <time>2012-07-22T06:56:48Z</time>
      </trkpt>
      <trkpt lat="46.93937" lon="-0.63003">
        <ele>143.6</ele>
        <time>2012-07-22T06:56:49Z</time>
      </trkpt>
      <trkpt lat="46.93935" lon="-0.6301">
        <ele>143.6</ele>
        <time>2012-07-22T06:56:50Z</time>
      </trkpt>
      <trkpt lat="46.93933" lon="-0.63018">
        <ele>143.5</ele>
        <time>2012-07-22T06:56:51Z</time>
      </trkpt>
      <trkpt lat="46.93932" lon="-0.63025">
        <ele>143.5</ele>
        <time>2012-07-22T06:56:52Z</time>
      </trkpt>
      <trkpt lat="46.9393" lon="-0.63032">
        <ele>143.5</ele>
        <time>2012-07-22T06:56:53Z</time>
      </trkpt>
      <trkpt lat="46.93928" lon="-0.6304">
        <ele>143.5</ele>
        <time>2012-07-22T06:56:54Z</time>
      </trkpt>
      <trkpt lat="46.93926" lon="-0.63047">
        <ele>143.5</ele>
        <time>2012-07-22T06:56:55Z</time>
      </trkpt>
      <trkpt lat="46.93925" lon="-0.63054">
        <ele>143.5</ele>
        <time>2012-07-22T06:56:56Z</time>
      </trkpt>
      <trkpt lat="46.93923" lon="-0.63061">
        <ele>143.5</ele>
        <time>2012-07-22T06:56:57Z</time>
      </trkpt>
      <trkpt lat="46.93922" lon="-0.63069">
        <ele>143.3</ele>
        <time>2012-07-22T06:56:58Z</time>
      </trkpt>
      <trkpt lat="46.9392" lon="-0.63076">
        <ele>143.3</ele>
        <time>2012-07-22T06:56:59Z</time>
      </trkpt>
      <trkpt lat="46.93919" lon="-0.63083">
        <ele>143.3</ele>
        <time>2012-07-22T06:57:00Z</time>
      </trkpt>
      <trkpt lat="46.93917" lon="-0.6309">
        <ele>143.3</ele>
        <time>2012-07-22T06:57:01Z</time>
      </trkpt>
      <trkpt lat="46.93916" lon="-0.63097">
        <ele>143.1</ele>
        <time>2012-07-22T06:57:02Z</time>
      </trkpt>
      <trkpt lat="46.93914" lon="-0.63104">
        <ele>143.1</ele>
        <time>2012-07-22T06:57:03Z</time>
      </trkpt>
      <trkpt lat="46.93913" lon="-0.63111">
        <ele>143</ele>
        <time>2012-07-22T06:57:04Z</time>
      </trkpt>
      <trkpt lat="46.93912" lon="-0.63118">
        <ele>143</ele>
        <time>2012-07-22T06:57:05Z</time>
      </trkpt>
      <trkpt lat="46.9391" lon="-0.63126">
        <ele>142.8</ele>
        <time>2012-07-22T06:57:06Z</time>
      </trkpt>
      <trkpt lat="46.93909" lon="-0.63133">
        <ele>142.8</ele>
        <time>2012-07-22T06:57:07Z</time>
      </trkpt>
      <trkpt lat="46.93908" lon="-0.6314">
        <ele>143</ele>
        <time>2012-07-22T06:57:08Z</time>
      </trkpt>
      <trkpt lat="46.93906" lon="-0.63147">
        <ele>143</ele>
        <time>2012-07-22T06:57:09Z</time>
      </trkpt>
      <trkpt lat="46.93905" lon="-0.63154">
        <ele>143</ele>
        <time>2012-07-22T06:57:10Z</time>
      </trkpt>
      <trkpt lat="46.93904" lon="-0.63161">
        <ele>143.1</ele>
        <time>2012-07-22T06:57:11Z</time>
      </trkpt>
      <trkpt lat="46.93903" lon="-0.63168">
        <ele>143.1</ele>
        <time>2012-07-22T06:57:12Z</time>
      </trkpt>
      <trkpt lat="46.93902" lon="-0.63176">
        <ele>143.1</ele>
        <time>2012-07-22T06:57:13Z</time>
      </trkpt>
      <trkpt lat="46.93901" lon="-0.63183">
        <ele>143.1</ele>
        <time>2012-07-22T06:57:14Z</time>
      </trkpt>
      <trkpt lat="46.939" lon="-0.6319">
        <ele>143.1</ele>
        <time>2012-07-22T06:57:15Z</time>
      </trkpt>
      <trkpt lat="46.93899" lon="-0.63197">
        <ele>143.3</ele>
        <time>2012-07-22T06:57:16Z</time>
      </trkpt>
      <trkpt lat="46.93899" lon="-0.63204">
        <ele>143.3</ele>
        <time>2012-07-22T06:57:17Z</time>
      </trkpt>
      <trkpt lat="46.93898" lon="-0.63212">
        <ele>143.3</ele>
        <time>2012-07-22T06:57:18Z</time>
      </trkpt>
      <trkpt lat="46.93898" lon="-0.63219">
        <ele>143.3</ele>
        <time>2012-07-22T06:57:19Z</time>
      </trkpt>
      <trkpt lat="46.93897" lon="-0.63226">
        <ele>143.3</ele>
        <time>2012-07-22T06:57:20Z</time>
      </trkpt>
      <trkpt lat="46.93896" lon="-0.63233">
        <ele>143.3</ele>
        <time>2012-07-22T06:57:21Z</time>
      </trkpt>
      <trkpt lat="46.93895" lon="-0.6324">
        <ele>143.3</ele>
        <time>2012-07-22T06:57:22Z</time>
      </trkpt>
      <trkpt lat="46.93894" lon="-0.63247">
        <ele>143.3</ele>
        <time>2012-07-22T06:57:23Z</time>
      </trkpt>
      <trkpt lat="46.93892" lon="-0.63255">
        <ele>143.5</ele>
        <time>2012-07-22T06:57:24Z</time>
      </trkpt>
      <trkpt lat="46.93891" lon="-0.63262">
        <ele>143.5</ele>
        <time>2012-07-22T06:57:25Z</time>
      </trkpt>
      <trkpt lat="46.9389" lon="-0.6327">
        <ele>143.6</ele>
        <time>2012-07-22T06:57:26Z</time>
      </trkpt>
      <trkpt lat="46.93889" lon="-0.63277">
        <ele>143.6</ele>
        <time>2012-07-22T06:57:27Z</time>
      </trkpt>
      <trkpt lat="46.93888" lon="-0.63285">
        <ele>143.6</ele>
        <time>2012-07-22T06:57:28Z</time>
      </trkpt>
      <trkpt lat="46.93887" lon="-0.63292">
        <ele>143.6</ele>
        <time>2012-07-22T06:57:29Z</time>
      </trkpt>
      <trkpt lat="46.93886" lon="-0.63299">
        <ele>143.8</ele>
        <time>2012-07-22T06:57:30Z</time>
      </trkpt>
      <trkpt lat="46.93885" lon="-0.63307">
        <ele>143.8</ele>
        <time>2012-07-22T06:57:31Z</time>
      </trkpt>
      <trkpt lat="46.93884" lon="-0.63314">
        <ele>143.8</ele>
        <time>2012-07-22T06:57:32Z</time>
      </trkpt>
      <trkpt lat="46.93883" lon="-0.63321">
        <ele>144</ele>
        <time>2012-07-22T06:57:33Z</time>
      </trkpt>
      <trkpt lat="46.93882" lon="-0.63328">
        <ele>144</ele>
        <time>2012-07-22T06:57:34Z</time>
      </trkpt>
      <trkpt lat="46.93882" lon="-0.63335">
        <ele>144.1</ele>
        <time>2012-07-22T06:57:35Z</time>
      </trkpt>
      <trkpt lat="46.93881" lon="-0.63343">
        <ele>144.1</ele>
        <time>2012-07-22T06:57:36Z</time>
      </trkpt>
      <trkpt lat="46.9388" lon="-0.6335">
        <ele>144.1</ele>
        <time>2012-07-22T06:57:37Z</time>
      </trkpt>
      <trkpt lat="46.93879" lon="-0.63357">
        <ele>144.1</ele>
        <time>2012-07-22T06:57:38Z</time>
      </trkpt>
      <trkpt lat="46.93878" lon="-0.63364">
        <ele>144.1</ele>
        <time>2012-07-22T06:57:39Z</time>
      </trkpt>
      <trkpt lat="46.93877" lon="-0.6337">
        <ele>144.1</ele>
        <time>2012-07-22T06:57:40Z</time>
      </trkpt>
      <trkpt lat="46.93876" lon="-0.63377">
        <ele>144.3</ele>
        <time>2012-07-22T06:57:41Z</time>
      </trkpt>
      <trkpt lat="46.93876" lon="-0.63384">
        <ele>144.3</ele>
        <time>2012-07-22T06:57:42Z</time>
      </trkpt>
      <trkpt lat="46.93875" lon="-0.63391">
        <ele>144.3</ele>
        <time>2012-07-22T06:57:43Z</time>
      </trkpt>
      <trkpt lat="46.93875" lon="-0.63398">
        <ele>144.3</ele>
        <time>2012-07-22T06:57:44Z</time>
      </trkpt>
      <trkpt lat="46.93876" lon="-0.63404">
        <ele>144.3</ele>
        <time>2012-07-22T06:57:45Z</time>
      </trkpt>
      <trkpt lat="46.93876" lon="-0.63417">
        <ele>144.5</ele>
        <time>2012-07-22T06:57:47Z</time>
      </trkpt>
      <trkpt lat="46.93877" lon="-0.63431">
        <ele>144.6</ele>
        <time>2012-07-22T06:57:49Z</time>
      </trkpt>
      <trkpt lat="46.93877" lon="-0.63437">
        <ele>144.6</ele>
        <time>2012-07-22T06:57:50Z</time>
      </trkpt>
      <trkpt lat="46.93877" lon="-0.63444">
        <ele>144.6</ele>
        <time>2012-07-22T06:57:51Z</time>
      </trkpt>
      <trkpt lat="46.93878" lon="-0.6345">
        <ele>144.6</ele>
        <time>2012-07-22T06:57:52Z</time>
      </trkpt>
      <trkpt lat="46.93878" lon="-0.63457">
        <ele>144.6</ele>
        <time>2012-07-22T06:57:53Z</time>
      </trkpt>
      <trkpt lat="46.9388" lon="-0.63464">
        <ele>144.6</ele>
        <time>2012-07-22T06:57:54Z</time>
      </trkpt>
      <trkpt lat="46.93881" lon="-0.63471">
        <ele>144.6</ele>
        <time>2012-07-22T06:57:55Z</time>
      </trkpt>
      <trkpt lat="46.93882" lon="-0.63478">
        <ele>144.6</ele>
        <time>2012-07-22T06:57:56Z</time>
      </trkpt>
      <trkpt lat="46.93884" lon="-0.63485">
        <ele>144.5</ele>
        <time>2012-07-22T06:57:57Z</time>
      </trkpt>
      <trkpt lat="46.93885" lon="-0.63493">
        <ele>144.5</ele>
        <time>2012-07-22T06:57:58Z</time>
      </trkpt>
      <trkpt lat="46.93886" lon="-0.635">
        <ele>144.5</ele>
        <time>2012-07-22T06:57:59Z</time>
      </trkpt>
      <trkpt lat="46.93887" lon="-0.63508">
        <ele>144.3</ele>
        <time>2012-07-22T06:58:00Z</time>
      </trkpt>
      <trkpt lat="46.93888" lon="-0.63516">
        <ele>144.3</ele>
        <time>2012-07-22T06:58:01Z</time>
      </trkpt>
      <trkpt lat="46.93886" lon="-0.63524">
        <ele>144.3</ele>
        <time>2012-07-22T06:58:02Z</time>
      </trkpt>
      <trkpt lat="46.93885" lon="-0.63532">
        <ele>144.3</ele>
        <time>2012-07-22T06:58:03Z</time>
      </trkpt>
      <trkpt lat="46.93883" lon="-0.63539">
        <ele>144.5</ele>
        <time>2012-07-22T06:58:04Z</time>
      </trkpt>
      <trkpt lat="46.93881" lon="-0.63547">
        <ele>144.5</ele>
        <time>2012-07-22T06:58:05Z</time>
      </trkpt>
      <trkpt lat="46.93878" lon="-0.63554">
        <ele>144.5</ele>
        <time>2012-07-22T06:58:06Z</time>
      </trkpt>
      <trkpt lat="46.93876" lon="-0.63561">
        <ele>144.5</ele>
        <time>2012-07-22T06:58:07Z</time>
      </trkpt>
      <trkpt lat="46.93874" lon="-0.63569">
        <ele>144.5</ele>
        <time>2012-07-22T06:58:08Z</time>
      </trkpt>
      <trkpt lat="46.93871" lon="-0.63576">
        <ele>144.5</ele>
        <time>2012-07-22T06:58:09Z</time>
      </trkpt>
      <trkpt lat="46.93869" lon="-0.63583">
        <ele>144.5</ele>
        <time>2012-07-22T06:58:10Z</time>
      </trkpt>
      <trkpt lat="46.93868" lon="-0.63591">
        <ele>144.5</ele>
        <time>2012-07-22T06:58:11Z</time>
      </trkpt>
      <trkpt lat="46.93867" lon="-0.63599">
        <ele>144.6</ele>
        <time>2012-07-22T06:58:12Z</time>
      </trkpt>
      <trkpt lat="46.93865" lon="-0.63607">
        <ele>144.6</ele>
        <time>2012-07-22T06:58:13Z</time>
      </trkpt>
      <trkpt lat="46.93864" lon="-0.63614">
        <ele>144.6</ele>
        <time>2012-07-22T06:58:14Z</time>
      </trkpt>
      <trkpt lat="46.93864" lon="-0.63622">
        <ele>144.8</ele>
        <time>2012-07-22T06:58:15Z</time>
      </trkpt>
      <trkpt lat="46.93863" lon="-0.6363">
        <ele>144.8</ele>
        <time>2012-07-22T06:58:16Z</time>
      </trkpt>
      <trkpt lat="46.93862" lon="-0.63637">
        <ele>144.8</ele>
        <time>2012-07-22T06:58:17Z</time>
      </trkpt>
      <trkpt lat="46.93861" lon="-0.63645">
        <ele>144.8</ele>
        <time>2012-07-22T06:58:18Z</time>
      </trkpt>
      <trkpt lat="46.9386" lon="-0.63653">
        <ele>145</ele>
        <time>2012-07-22T06:58:19Z</time>
      </trkpt>
      <trkpt lat="46.93859" lon="-0.6366">
        <ele>145.1</ele>
        <time>2012-07-22T06:58:20Z</time>
      </trkpt>
      <trkpt lat="46.93859" lon="-0.63667">
        <ele>145.1</ele>
        <time>2012-07-22T06:58:21Z</time>
      </trkpt>
      <trkpt lat="46.93858" lon="-0.63675">
        <ele>145.3</ele>
        <time>2012-07-22T06:58:22Z</time>
      </trkpt>
      <trkpt lat="46.93857" lon="-0.63682">
        <ele>145.5</ele>
        <time>2012-07-22T06:58:23Z</time>
      </trkpt>
      <trkpt lat="46.93856" lon="-0.63689">
        <ele>145.6</ele>
        <time>2012-07-22T06:58:24Z</time>
      </trkpt>
      <trkpt lat="46.93855" lon="-0.63697">
        <ele>145.6</ele>
        <time>2012-07-22T06:58:25Z</time>
      </trkpt>
      <trkpt lat="46.93854" lon="-0.63704">
        <ele>145.8</ele>
        <time>2012-07-22T06:58:26Z</time>
      </trkpt>
      <trkpt lat="46.93853" lon="-0.63711">
        <ele>145.8</ele>
        <time>2012-07-22T06:58:27Z</time>
      </trkpt>
      <trkpt lat="46.93852" lon="-0.63719">
        <ele>145.8</ele>
        <time>2012-07-22T06:58:28Z</time>
      </trkpt>
      <trkpt lat="46.93851" lon="-0.63726">
        <ele>145.8</ele>
        <time>2012-07-22T06:58:29Z</time>
      </trkpt>
      <trkpt lat="46.9385" lon="-0.63733">
        <ele>146</ele>
        <time>2012-07-22T06:58:30Z</time>
      </trkpt>
      <trkpt lat="46.93849" lon="-0.63741">
        <ele>146</ele>
        <time>2012-07-22T06:58:31Z</time>
      </trkpt>
      <trkpt lat="46.93848" lon="-0.63748">
        <ele>146</ele>
        <time>2012-07-22T06:58:32Z</time>
      </trkpt>
      <trkpt lat="46.93847" lon="-0.63756">
        <ele>145.8</ele>
        <time>2012-07-22T06:58:33Z</time>
      </trkpt>
      <trkpt lat="46.93846" lon="-0.63763">
        <ele>145.8</ele>
        <time>2012-07-22T06:58:34Z</time>
      </trkpt>
      <trkpt lat="46.93844" lon="-0.63771">
        <ele>145.6</ele>
        <time>2012-07-22T06:58:35Z</time>
      </trkpt>
      <trkpt lat="46.93843" lon="-0.63778">
        <ele>145.6</ele>
        <time>2012-07-22T06:58:36Z</time>
      </trkpt>
      <trkpt lat="46.93842" lon="-0.63785">
        <ele>145.6</ele>
        <time>2012-07-22T06:58:37Z</time>
      </trkpt>
      <trkpt lat="46.93841" lon="-0.63793">
        <ele>145.5</ele>
        <time>2012-07-22T06:58:38Z</time>
      </trkpt>
      <trkpt lat="46.9384" lon="-0.638">
        <ele>145.5</ele>
        <time>2012-07-22T06:58:39Z</time>
      </trkpt>
      <trkpt lat="46.93839" lon="-0.63808">
        <ele>145.3</ele>
        <time>2012-07-22T06:58:40Z</time>
      </trkpt>
      <trkpt lat="46.93837" lon="-0.63815">
        <ele>145.3</ele>
        <time>2012-07-22T06:58:41Z</time>
      </trkpt>
      <trkpt lat="46.93836" lon="-0.63823">
        <ele>145.3</ele>
        <time>2012-07-22T06:58:42Z</time>
      </trkpt>
      <trkpt lat="46.93834" lon="-0.63831">
        <ele>145.3</ele>
        <time>2012-07-22T06:58:43Z</time>
      </trkpt>
      <trkpt lat="46.93833" lon="-0.63839">
        <ele>145.3</ele>
        <time>2012-07-22T06:58:44Z</time>
      </trkpt>
      <trkpt lat="46.93832" lon="-0.63847">
        <ele>145.1</ele>
        <time>2012-07-22T06:58:45Z</time>
      </trkpt>
      <trkpt lat="46.93831" lon="-0.63855">
        <ele>145.1</ele>
        <time>2012-07-22T06:58:46Z</time>
      </trkpt>
      <trkpt lat="46.93829" lon="-0.63863">
        <ele>145.1</ele>
        <time>2012-07-22T06:58:47Z</time>
      </trkpt>
      <trkpt lat="46.93828" lon="-0.6387">
        <ele>145.1</ele>
        <time>2012-07-22T06:58:48Z</time>
      </trkpt>
      <trkpt lat="46.93826" lon="-0.63878">
        <ele>145.1</ele>
        <time>2012-07-22T06:58:49Z</time>
      </trkpt>
      <trkpt lat="46.93825" lon="-0.63885">
        <ele>145.1</ele>
        <time>2012-07-22T06:58:50Z</time>
      </trkpt>
      <trkpt lat="46.93824" lon="-0.63892">
        <ele>145.1</ele>
        <time>2012-07-22T06:58:51Z</time>
      </trkpt>
      <trkpt lat="46.93823" lon="-0.63899">
        <ele>145.1</ele>
        <time>2012-07-22T06:58:52Z</time>
      </trkpt>
      <trkpt lat="46.93822" lon="-0.63906">
        <ele>145.1</ele>
        <time>2012-07-22T06:58:53Z</time>
      </trkpt>
      <trkpt lat="46.9382" lon="-0.63918">
        <ele>145.1</ele>
        <time>2012-07-22T06:58:55Z</time>
      </trkpt>
      <trkpt lat="46.9382" lon="-0.63925">
        <ele>145</ele>
        <time>2012-07-22T06:58:56Z</time>
      </trkpt>
      <trkpt lat="46.93819" lon="-0.63933">
        <ele>144.8</ele>
        <time>2012-07-22T06:58:57Z</time>
      </trkpt>
      <trkpt lat="46.93819" lon="-0.6394">
        <ele>144.6</ele>
        <time>2012-07-22T06:58:58Z</time>
      </trkpt>
      <trkpt lat="46.93818" lon="-0.63948">
        <ele>144.6</ele>
        <time>2012-07-22T06:58:59Z</time>
      </trkpt>
      <trkpt lat="46.93817" lon="-0.63955">
        <ele>144.5</ele>
        <time>2012-07-22T06:59:00Z</time>
      </trkpt>
      <trkpt lat="46.93816" lon="-0.63963">
        <ele>144.3</ele>
        <time>2012-07-22T06:59:01Z</time>
      </trkpt>
      <trkpt lat="46.93815" lon="-0.63971">
        <ele>144.1</ele>
        <time>2012-07-22T06:59:02Z</time>
      </trkpt>
      <trkpt lat="46.93814" lon="-0.63979">
        <ele>144</ele>
        <time>2012-07-22T06:59:03Z</time>
      </trkpt>
      <trkpt lat="46.93812" lon="-0.63986">
        <ele>143.8</ele>
        <time>2012-07-22T06:59:04Z</time>
      </trkpt>
      <trkpt lat="46.93811" lon="-0.63994">
        <ele>143.8</ele>
        <time>2012-07-22T06:59:05Z</time>
      </trkpt>
      <trkpt lat="46.93809" lon="-0.64002">
        <ele>143.8</ele>
        <time>2012-07-22T06:59:06Z</time>
      </trkpt>
      <trkpt lat="46.93808" lon="-0.64009">
        <ele>143.8</ele>
        <time>2012-07-22T06:59:07Z</time>
      </trkpt>
      <trkpt lat="46.93806" lon="-0.64017">
        <ele>143.8</ele>
        <time>2012-07-22T06:59:08Z</time>
      </trkpt>
      <trkpt lat="46.93804" lon="-0.64024">
        <ele>143.8</ele>
        <time>2012-07-22T06:59:09Z</time>
      </trkpt>
      <trkpt lat="46.93802" lon="-0.64032">
        <ele>143.6</ele>
        <time>2012-07-22T06:59:10Z</time>
      </trkpt>
      <trkpt lat="46.938" lon="-0.6404">
        <ele>143.6</ele>
        <time>2012-07-22T06:59:11Z</time>
      </trkpt>
      <trkpt lat="46.93798" lon="-0.64048">
        <ele>143.6</ele>
        <time>2012-07-22T06:59:12Z</time>
      </trkpt>
      <trkpt lat="46.93796" lon="-0.64056">
        <ele>143.8</ele>
        <time>2012-07-22T06:59:13Z</time>
      </trkpt>
      <trkpt lat="46.93794" lon="-0.64065">
        <ele>144</ele>
        <time>2012-07-22T06:59:14Z</time>
      </trkpt>
      <trkpt lat="46.93792" lon="-0.64075">
        <ele>144.6</ele>
        <time>2012-07-22T06:59:15Z</time>
      </trkpt>
      <trkpt lat="46.93789" lon="-0.64084">
        <ele>145.1</ele>
        <time>2012-07-22T06:59:16Z</time>
      </trkpt>
      <trkpt lat="46.93787" lon="-0.64093">
        <ele>145.6</ele>
        <time>2012-07-22T06:59:17Z</time>
      </trkpt>
      <trkpt lat="46.93784" lon="-0.64102">
        <ele>146.1</ele>
        <time>2012-07-22T06:59:18Z</time>
      </trkpt>
      <trkpt lat="46.9378" lon="-0.6411">
        <ele>146.5</ele>
        <time>2012-07-22T06:59:19Z</time>
      </trkpt>
      <trkpt lat="46.93777" lon="-0.64117">
        <ele>146.8</ele>
        <time>2012-07-22T06:59:20Z</time>
      </trkpt>
      <trkpt lat="46.93774" lon="-0.64125">
        <ele>147.1</ele>
        <time>2012-07-22T06:59:21Z</time>
      </trkpt>
      <trkpt lat="46.93771" lon="-0.64132">
        <ele>147.5</ele>
        <time>2012-07-22T06:59:22Z</time>
      </trkpt>
      <trkpt lat="46.93768" lon="-0.6414">
        <ele>147.8</ele>
        <time>2012-07-22T06:59:23Z</time>
      </trkpt>
      <trkpt lat="46.93765" lon="-0.64149">
        <ele>148.1</ele>
        <time>2012-07-22T06:59:24Z</time>
      </trkpt>
      <trkpt lat="46.93763" lon="-0.64157">
        <ele>148.6</ele>
        <time>2012-07-22T06:59:25Z</time>
      </trkpt>
      <trkpt lat="46.93761" lon="-0.64165">
        <ele>148.8</ele>
        <time>2012-07-22T06:59:26Z</time>
      </trkpt>
      <trkpt lat="46.93759" lon="-0.64173">
        <ele>149.3</ele>
        <time>2012-07-22T06:59:27Z</time>
      </trkpt>
      <trkpt lat="46.93757" lon="-0.64181">
        <ele>149.6</ele>
        <time>2012-07-22T06:59:28Z</time>
      </trkpt>
      <trkpt lat="46.93755" lon="-0.64189">
        <ele>149.8</ele>
        <time>2012-07-22T06:59:29Z</time>
      </trkpt>
      <trkpt lat="46.93753" lon="-0.64197">
        <ele>150.1</ele>
        <time>2012-07-22T06:59:30Z</time>
      </trkpt>
      <trkpt lat="46.93751" lon="-0.64205">
        <ele>150.6</ele>
        <time>2012-07-22T06:59:31Z</time>
      </trkpt>
      <trkpt lat="46.9375" lon="-0.64213">
        <ele>150.8</ele>
        <time>2012-07-22T06:59:32Z</time>
      </trkpt>
      <trkpt lat="46.93748" lon="-0.64221">
        <ele>151.1</ele>
        <time>2012-07-22T06:59:33Z</time>
      </trkpt>
      <trkpt lat="46.93747" lon="-0.6423">
        <ele>151.3</ele>
        <time>2012-07-22T06:59:34Z</time>
      </trkpt>
      <trkpt lat="46.93746" lon="-0.64238">
        <ele>151.5</ele>
        <time>2012-07-22T06:59:35Z</time>
      </trkpt>
      <trkpt lat="46.93744" lon="-0.64246">
        <ele>151.6</ele>
        <time>2012-07-22T06:59:36Z</time>
      </trkpt>
      <trkpt lat="46.93742" lon="-0.64255">
        <ele>151.6</ele>
        <time>2012-07-22T06:59:37Z</time>
      </trkpt>
      <trkpt lat="46.93741" lon="-0.64263">
        <ele>151.8</ele>
        <time>2012-07-22T06:59:38Z</time>
      </trkpt>
      <trkpt lat="46.93739" lon="-0.64271">
        <ele>152.1</ele>
        <time>2012-07-22T06:59:39Z</time>
      </trkpt>
      <trkpt lat="46.93738" lon="-0.6428">
        <ele>152.1</ele>
        <time>2012-07-22T06:59:40Z</time>
      </trkpt>
      <trkpt lat="46.93737" lon="-0.64288">
        <ele>152.3</ele>
        <time>2012-07-22T06:59:41Z</time>
      </trkpt>
      <trkpt lat="46.93736" lon="-0.64296">
        <ele>152.3</ele>
        <time>2012-07-22T06:59:42Z</time>
      </trkpt>
      <trkpt lat="46.93735" lon="-0.64304">
        <ele>152.1</ele>
        <time>2012-07-22T06:59:43Z</time>
      </trkpt>
      <trkpt lat="46.93733" lon="-0.64312">
        <ele>152.1</ele>
        <time>2012-07-22T06:59:44Z</time>
      </trkpt>
      <trkpt lat="46.93732" lon="-0.6432">
        <ele>152.1</ele>
        <time>2012-07-22T06:59:45Z</time>
      </trkpt>
      <trkpt lat="46.93731" lon="-0.64328">
        <ele>152.1</ele>
        <time>2012-07-22T06:59:46Z</time>
      </trkpt>
      <trkpt lat="46.93729" lon="-0.64336">
        <ele>152.1</ele>
        <time>2012-07-22T06:59:47Z</time>
      </trkpt>
      <trkpt lat="46.93728" lon="-0.64344">
        <ele>152.1</ele>
        <time>2012-07-22T06:59:48Z</time>
      </trkpt>
      <trkpt lat="46.93727" lon="-0.64352">
        <ele>152.1</ele>
        <time>2012-07-22T06:59:49Z</time>
      </trkpt>
      <trkpt lat="46.93725" lon="-0.6436">
        <ele>152.1</ele>
        <time>2012-07-22T06:59:50Z</time>
      </trkpt>
      <trkpt lat="46.93724" lon="-0.64368">
        <ele>152.3</ele>
        <time>2012-07-22T06:59:51Z</time>
      </trkpt>
      <trkpt lat="46.93723" lon="-0.64376">
        <ele>152.3</ele>
        <time>2012-07-22T06:59:52Z</time>
      </trkpt>
      <trkpt lat="46.93722" lon="-0.64383">
        <ele>152.5</ele>
        <time>2012-07-22T06:59:53Z</time>
      </trkpt>
      <trkpt lat="46.9372" lon="-0.6439">
        <ele>152.5</ele>
        <time>2012-07-22T06:59:54Z</time>
      </trkpt>
      <trkpt lat="46.93719" lon="-0.64397">
        <ele>152.5</ele>
        <time>2012-07-22T06:59:55Z</time>
      </trkpt>
      <trkpt lat="46.93718" lon="-0.64405">
        <ele>152.5</ele>
        <time>2012-07-22T06:59:56Z</time>
      </trkpt>
      <trkpt lat="46.93716" lon="-0.64413">
        <ele>152.5</ele>
        <time>2012-07-22T06:59:57Z</time>
      </trkpt>
      <trkpt lat="46.93714" lon="-0.6442">
        <ele>152.6</ele>
        <time>2012-07-22T06:59:58Z</time>
      </trkpt>
      <trkpt lat="46.93711" lon="-0.64427">
        <ele>152.6</ele>
        <time>2012-07-22T06:59:59Z</time>
      </trkpt>
      <trkpt lat="46.93709" lon="-0.64434">
        <ele>152.6</ele>
        <time>2012-07-22T07:00:00Z</time>
      </trkpt>
      <trkpt lat="46.93706" lon="-0.64441">
        <ele>152.8</ele>
        <time>2012-07-22T07:00:01Z</time>
      </trkpt>
      <trkpt lat="46.93703" lon="-0.64448">
        <ele>152.8</ele>
        <time>2012-07-22T07:00:02Z</time>
      </trkpt>
      <trkpt lat="46.937" lon="-0.64455">
        <ele>153</ele>
        <time>2012-07-22T07:00:03Z</time>
      </trkpt>
      <trkpt lat="46.93698" lon="-0.64462">
        <ele>153</ele>
        <time>2012-07-22T07:00:04Z</time>
      </trkpt>
      <trkpt lat="46.93695" lon="-0.64469">
        <ele>153</ele>
        <time>2012-07-22T07:00:05Z</time>
      </trkpt>
      <trkpt lat="46.93692" lon="-0.64476">
        <ele>152.8</ele>
        <time>2012-07-22T07:00:06Z</time>
      </trkpt>
      <trkpt lat="46.9369" lon="-0.64483">
        <ele>152.8</ele>
        <time>2012-07-22T07:00:07Z</time>
      </trkpt>
      <trkpt lat="46.93687" lon="-0.64491">
        <ele>153</ele>
        <time>2012-07-22T07:00:08Z</time>
      </trkpt>
      <trkpt lat="46.93685" lon="-0.64499">
        <ele>153.1</ele>
        <time>2012-07-22T07:00:09Z</time>
      </trkpt>
      <trkpt lat="46.93682" lon="-0.64506">
        <ele>153.3</ele>
        <time>2012-07-22T07:00:10Z</time>
      </trkpt>
      <trkpt lat="46.9368" lon="-0.64514">
        <ele>153.6</ele>
        <time>2012-07-22T07:00:11Z</time>
      </trkpt>
      <trkpt lat="46.93677" lon="-0.64521">
        <ele>153.8</ele>
        <time>2012-07-22T07:00:12Z</time>
      </trkpt>
      <trkpt lat="46.93675" lon="-0.64529">
        <ele>154</ele>
        <time>2012-07-22T07:00:13Z</time>
      </trkpt>
      <trkpt lat="46.93673" lon="-0.64536">
        <ele>154.1</ele>
        <time>2012-07-22T07:00:14Z</time>
      </trkpt>
      <trkpt lat="46.93671" lon="-0.64543">
        <ele>154.1</ele>
        <time>2012-07-22T07:00:15Z</time>
      </trkpt>
      <trkpt lat="46.93668" lon="-0.6455">
        <ele>154.3</ele>
        <time>2012-07-22T07:00:16Z</time>
      </trkpt>
      <trkpt lat="46.93666" lon="-0.64557">
        <ele>154.3</ele>
        <time>2012-07-22T07:00:17Z</time>
      </trkpt>
      <trkpt lat="46.93663" lon="-0.64564">
        <ele>154.3</ele>
        <time>2012-07-22T07:00:18Z</time>
      </trkpt>
      <trkpt lat="46.93661" lon="-0.64571">
        <ele>154.1</ele>
        <time>2012-07-22T07:00:19Z</time>
      </trkpt>
      <trkpt lat="46.93658" lon="-0.64577">
        <ele>154.1</ele>
        <time>2012-07-22T07:00:20Z</time>
      </trkpt>
      <trkpt lat="46.93655" lon="-0.64584">
        <ele>154.1</ele>
        <time>2012-07-22T07:00:21Z</time>
      </trkpt>
      <trkpt lat="46.93652" lon="-0.6459">
        <ele>154.1</ele>
        <time>2012-07-22T07:00:22Z</time>
      </trkpt>
      <trkpt lat="46.93649" lon="-0.64597">
        <ele>154.1</ele>
        <time>2012-07-22T07:00:23Z</time>
      </trkpt>
      <trkpt lat="46.93646" lon="-0.64603">
        <ele>154.1</ele>
        <time>2012-07-22T07:00:24Z</time>
      </trkpt>
      <trkpt lat="46.93642" lon="-0.64609">
        <ele>154</ele>
        <time>2012-07-22T07:00:25Z</time>
      </trkpt>
      <trkpt lat="46.93639" lon="-0.64616">
        <ele>153.8</ele>
        <time>2012-07-22T07:00:26Z</time>
      </trkpt>
      <trkpt lat="46.93636" lon="-0.64622">
        <ele>153.8</ele>
        <time>2012-07-22T07:00:27Z</time>
      </trkpt>
      <trkpt lat="46.93633" lon="-0.64628">
        <ele>153.8</ele>
        <time>2012-07-22T07:00:28Z</time>
      </trkpt>
      <trkpt lat="46.9363" lon="-0.64635">
        <ele>153.8</ele>
        <time>2012-07-22T07:00:29Z</time>
      </trkpt>
      <trkpt lat="46.93627" lon="-0.64642">
        <ele>153.8</ele>
        <time>2012-07-22T07:00:30Z</time>
      </trkpt>
      <trkpt lat="46.93624" lon="-0.64649">
        <ele>153.8</ele>
        <time>2012-07-22T07:00:31Z</time>
      </trkpt>
      <trkpt lat="46.93621" lon="-0.64656">
        <ele>154.1</ele>
        <time>2012-07-22T07:00:32Z</time>
      </trkpt>
      <trkpt lat="46.93618" lon="-0.64664">
        <ele>154.3</ele>
        <time>2012-07-22T07:00:33Z</time>
      </trkpt>
      <trkpt lat="46.93615" lon="-0.64671">
        <ele>154.6</ele>
        <time>2012-07-22T07:00:34Z</time>
      </trkpt>
      <trkpt lat="46.93612" lon="-0.64678">
        <ele>154.8</ele>
        <time>2012-07-22T07:00:35Z</time>
      </trkpt>
      <trkpt lat="46.93609" lon="-0.64685">
        <ele>155.1</ele>
        <time>2012-07-22T07:00:36Z</time>
      </trkpt>
      <trkpt lat="46.93607" lon="-0.64693">
        <ele>155.3</ele>
        <time>2012-07-22T07:00:37Z</time>
      </trkpt>
      <trkpt lat="46.93604" lon="-0.647">
        <ele>155.5</ele>
        <time>2012-07-22T07:00:38Z</time>
      </trkpt>
      <trkpt lat="46.93601" lon="-0.64707">
        <ele>155.6</ele>
        <time>2012-07-22T07:00:39Z</time>
      </trkpt>
      <trkpt lat="46.93599" lon="-0.64714">
        <ele>155.8</ele>
        <time>2012-07-22T07:00:40Z</time>
      </trkpt>
      <trkpt lat="46.93596" lon="-0.64721">
        <ele>155.8</ele>
        <time>2012-07-22T07:00:41Z</time>
      </trkpt>
      <trkpt lat="46.93594" lon="-0.64728">
        <ele>155.8</ele>
        <time>2012-07-22T07:00:42Z</time>
      </trkpt>
      <trkpt lat="46.93591" lon="-0.64735">
        <ele>156</ele>
        <time>2012-07-22T07:00:43Z</time>
      </trkpt>
      <trkpt lat="46.93589" lon="-0.64742">
        <ele>156</ele>
        <time>2012-07-22T07:00:44Z</time>
      </trkpt>
      <trkpt lat="46.93586" lon="-0.64748">
        <ele>156.1</ele>
        <time>2012-07-22T07:00:45Z</time>
      </trkpt>
      <trkpt lat="46.93583" lon="-0.64755">
        <ele>156.1</ele>
        <time>2012-07-22T07:00:46Z</time>
      </trkpt>
      <trkpt lat="46.93581" lon="-0.64762">
        <ele>156.3</ele>
        <time>2012-07-22T07:00:47Z</time>
      </trkpt>
      <trkpt lat="46.93578" lon="-0.64768">
        <ele>156.3</ele>
        <time>2012-07-22T07:00:48Z</time>
      </trkpt>
      <trkpt lat="46.93576" lon="-0.64775">
        <ele>156.5</ele>
        <time>2012-07-22T07:00:49Z</time>
      </trkpt>
      <trkpt lat="46.93573" lon="-0.64782">
        <ele>156.6</ele>
        <time>2012-07-22T07:00:50Z</time>
      </trkpt>
      <trkpt lat="46.93571" lon="-0.64789">
        <ele>156.6</ele>
        <time>2012-07-22T07:00:51Z</time>
      </trkpt>
      <trkpt lat="46.93568" lon="-0.64795">
        <ele>156.8</ele>
        <time>2012-07-22T07:00:52Z</time>
      </trkpt>
      <trkpt lat="46.93565" lon="-0.64802">
        <ele>157</ele>
        <time>2012-07-22T07:00:53Z</time>
      </trkpt>
      <trkpt lat="46.93563" lon="-0.64808">
        <ele>157.1</ele>
        <time>2012-07-22T07:00:54Z</time>
      </trkpt>
      <trkpt lat="46.9356" lon="-0.64815">
        <ele>157.3</ele>
        <time>2012-07-22T07:00:55Z</time>
      </trkpt>
      <trkpt lat="46.93558" lon="-0.64822">
        <ele>157.5</ele>
        <time>2012-07-22T07:00:56Z</time>
      </trkpt>
      <trkpt lat="46.93555" lon="-0.64828">
        <ele>157.6</ele>
        <time>2012-07-22T07:00:57Z</time>
      </trkpt>
      <trkpt lat="46.93553" lon="-0.64835">
        <ele>157.8</ele>
        <time>2012-07-22T07:00:58Z</time>
      </trkpt>
      <trkpt lat="46.9355" lon="-0.64841">
        <ele>157.8</ele>
        <time>2012-07-22T07:00:59Z</time>
      </trkpt>
      <trkpt lat="46.93548" lon="-0.64848">
        <ele>158</ele>
        <time>2012-07-22T07:01:00Z</time>
      </trkpt>
      <trkpt lat="46.93546" lon="-0.64854">
        <ele>158</ele>
        <time>2012-07-22T07:01:01Z</time>
      </trkpt>
      <trkpt lat="46.93543" lon="-0.6486">
        <ele>158.1</ele>
        <time>2012-07-22T07:01:02Z</time>
      </trkpt>
      <trkpt lat="46.93541" lon="-0.64867">
        <ele>158.1</ele>
        <time>2012-07-22T07:01:03Z</time>
      </trkpt>
      <trkpt lat="46.93539" lon="-0.64873">
        <ele>158.1</ele>
        <time>2012-07-22T07:01:04Z</time>
      </trkpt>
      <trkpt lat="46.93536" lon="-0.64879">
        <ele>158.1</ele>
        <time>2012-07-22T07:01:05Z</time>
      </trkpt>
      <trkpt lat="46.93534" lon="-0.64886">
        <ele>158.1</ele>
        <time>2012-07-22T07:01:06Z</time>
      </trkpt>
      <trkpt lat="46.93532" lon="-0.64892">
        <ele>158.1</ele>
        <time>2012-07-22T07:01:07Z</time>
      </trkpt>
      <trkpt lat="46.93529" lon="-0.64898">
        <ele>158.3</ele>
        <time>2012-07-22T07:01:08Z</time>
      </trkpt>
      <trkpt lat="46.93526" lon="-0.64904">
        <ele>158.3</ele>
        <time>2012-07-22T07:01:09Z</time>
      </trkpt>
      <trkpt lat="46.93523" lon="-0.6491">
        <ele>158.3</ele>
        <time>2012-07-22T07:01:10Z</time>
      </trkpt>
      <trkpt lat="46.9352" lon="-0.64916">
        <ele>158.5</ele>
        <time>2012-07-22T07:01:11Z</time>
      </trkpt>
      <trkpt lat="46.93517" lon="-0.64921">
        <ele>158.6</ele>
        <time>2012-07-22T07:01:12Z</time>
      </trkpt>
      <trkpt lat="46.93514" lon="-0.64927">
        <ele>158.8</ele>
        <time>2012-07-22T07:01:13Z</time>
      </trkpt>
      <trkpt lat="46.93511" lon="-0.64933">
        <ele>158.8</ele>
        <time>2012-07-22T07:01:14Z</time>
      </trkpt>
      <trkpt lat="46.93508" lon="-0.64939">
        <ele>159.1</ele>
        <time>2012-07-22T07:01:15Z</time>
      </trkpt>
      <trkpt lat="46.93504" lon="-0.64945">
        <ele>159.1</ele>
        <time>2012-07-22T07:01:16Z</time>
      </trkpt>
      <trkpt lat="46.93501" lon="-0.64951">
        <ele>159.3</ele>
        <time>2012-07-22T07:01:17Z</time>
      </trkpt>
      <trkpt lat="46.93498" lon="-0.64956">
        <ele>159.5</ele>
        <time>2012-07-22T07:01:18Z</time>
      </trkpt>
      <trkpt lat="46.93494" lon="-0.64962">
        <ele>159.6</ele>
        <time>2012-07-22T07:01:19Z</time>
      </trkpt>
      <trkpt lat="46.93491" lon="-0.64967">
        <ele>159.6</ele>
        <time>2012-07-22T07:01:20Z</time>
      </trkpt>
      <trkpt lat="46.93488" lon="-0.64972">
        <ele>159.6</ele>
        <time>2012-07-22T07:01:21Z</time>
      </trkpt>
      <trkpt lat="46.93485" lon="-0.64978">
        <ele>159.6</ele>
        <time>2012-07-22T07:01:22Z</time>
      </trkpt>
      <trkpt lat="46.93483" lon="-0.64983">
        <ele>159.6</ele>
        <time>2012-07-22T07:01:23Z</time>
      </trkpt>
      <trkpt lat="46.9348" lon="-0.64988">
        <ele>159.6</ele>
        <time>2012-07-22T07:01:24Z</time>
      </trkpt>
      <trkpt lat="46.93476" lon="-0.64994">
        <ele>159.6</ele>
        <time>2012-07-22T07:01:25Z</time>
      </trkpt>
      <trkpt lat="46.93473" lon="-0.65">
        <ele>159.6</ele>
        <time>2012-07-22T07:01:26Z</time>
      </trkpt>
      <trkpt lat="46.9347" lon="-0.65006">
        <ele>159.6</ele>
        <time>2012-07-22T07:01:27Z</time>
      </trkpt>
      <trkpt lat="46.93467" lon="-0.65011">
        <ele>159.5</ele>
        <time>2012-07-22T07:01:28Z</time>
      </trkpt>
      <trkpt lat="46.93464" lon="-0.65017">
        <ele>159.5</ele>
        <time>2012-07-22T07:01:29Z</time>
      </trkpt>
      <trkpt lat="46.93461" lon="-0.65023">
        <ele>159.5</ele>
        <time>2012-07-22T07:01:30Z</time>
      </trkpt>
      <trkpt lat="46.93458" lon="-0.6503">
        <ele>159.6</ele>
        <time>2012-07-22T07:01:31Z</time>
      </trkpt>
      <trkpt lat="46.93456" lon="-0.65036">
        <ele>159.6</ele>
        <time>2012-07-22T07:01:32Z</time>
      </trkpt>
      <trkpt lat="46.93453" lon="-0.65043">
        <ele>159.8</ele>
        <time>2012-07-22T07:01:33Z</time>
      </trkpt>
      <trkpt lat="46.93451" lon="-0.6505">
        <ele>160</ele>
        <time>2012-07-22T07:01:34Z</time>
      </trkpt>
      <trkpt lat="46.93448" lon="-0.65057">
        <ele>160.1</ele>
        <time>2012-07-22T07:01:35Z</time>
      </trkpt>
      <trkpt lat="46.93446" lon="-0.65064">
        <ele>160.1</ele>
        <time>2012-07-22T07:01:36Z</time>
      </trkpt>
      <trkpt lat="46.93444" lon="-0.65071">
        <ele>160.3</ele>
        <time>2012-07-22T07:01:37Z</time>
      </trkpt>
      <trkpt lat="46.93442" lon="-0.65077">
        <ele>160.5</ele>
        <time>2012-07-22T07:01:38Z</time>
      </trkpt>
      <trkpt lat="46.9344" lon="-0.65084">
        <ele>160.6</ele>
        <time>2012-07-22T07:01:39Z</time>
      </trkpt>
      <trkpt lat="46.93438" lon="-0.65091">
        <ele>160.6</ele>
        <time>2012-07-22T07:01:40Z</time>
      </trkpt>
      <trkpt lat="46.93437" lon="-0.65097">
        <ele>160.6</ele>
        <time>2012-07-22T07:01:41Z</time>
      </trkpt>
      <trkpt lat="46.93435" lon="-0.65104">
        <ele>160.6</ele>
        <time>2012-07-22T07:01:42Z</time>
      </trkpt>
      <trkpt lat="46.93434" lon="-0.65116">
        <ele>160.3</ele>
        <time>2012-07-22T07:01:44Z</time>
      </trkpt>
      <trkpt lat="46.93432" lon="-0.65129">
        <ele>160.1</ele>
        <time>2012-07-22T07:01:46Z</time>
      </trkpt>
      <trkpt lat="46.93429" lon="-0.6514">
        <ele>159.8</ele>
        <time>2012-07-22T07:01:48Z</time>
      </trkpt>
      <trkpt lat="46.93423" lon="-0.65145">
        <ele>159.8</ele>
        <time>2012-07-22T07:01:50Z</time>
      </trkpt>
      <trkpt lat="46.93417" lon="-0.6514">
        <ele>160</ele>
        <time>2012-07-22T07:01:53Z</time>
      </trkpt>
      <trkpt lat="46.93416" lon="-0.6513">
        <ele>160.8</ele>
        <time>2012-07-22T07:01:55Z</time>
      </trkpt>
      <trkpt lat="46.93411" lon="-0.65121">
        <ele>161.6</ele>
        <time>2012-07-22T07:01:57Z</time>
      </trkpt>
      <trkpt lat="46.93405" lon="-0.65114">
        <ele>162.1</ele>
        <time>2012-07-22T07:01:59Z</time>
      </trkpt>
      <trkpt lat="46.93397" lon="-0.65107">
        <ele>162.6</ele>
        <time>2012-07-22T07:02:01Z</time>
      </trkpt>
      <trkpt lat="46.93393" lon="-0.65104">
        <ele>162.8</ele>
        <time>2012-07-22T07:02:02Z</time>
      </trkpt>
      <trkpt lat="46.93389" lon="-0.651">
        <ele>163</ele>
        <time>2012-07-22T07:02:03Z</time>
      </trkpt>
      <trkpt lat="46.93385" lon="-0.65096">
        <ele>163.1</ele>
        <time>2012-07-22T07:02:04Z</time>
      </trkpt>
      <trkpt lat="46.9338" lon="-0.65092">
        <ele>163.1</ele>
        <time>2012-07-22T07:02:05Z</time>
      </trkpt>
      <trkpt lat="46.93376" lon="-0.65088">
        <ele>163.3</ele>
        <time>2012-07-22T07:02:06Z</time>
      </trkpt>
      <trkpt lat="46.93371" lon="-0.65083">
        <ele>163.3</ele>
        <time>2012-07-22T07:02:07Z</time>
      </trkpt>
      <trkpt lat="46.93367" lon="-0.65079">
        <ele>163.3</ele>
        <time>2012-07-22T07:02:08Z</time>
      </trkpt>
      <trkpt lat="46.93363" lon="-0.65074">
        <ele>163.3</ele>
        <time>2012-07-22T07:02:09Z</time>
      </trkpt>
      <trkpt lat="46.93359" lon="-0.6507">
        <ele>163.3</ele>
        <time>2012-07-22T07:02:10Z</time>
      </trkpt>
      <trkpt lat="46.93355" lon="-0.65065">
        <ele>163.3</ele>
        <time>2012-07-22T07:02:11Z</time>
      </trkpt>
      <trkpt lat="46.93351" lon="-0.6506">
        <ele>163.3</ele>
        <time>2012-07-22T07:02:12Z</time>
      </trkpt>
      <trkpt lat="46.93347" lon="-0.65055">
        <ele>163.3</ele>
        <time>2012-07-22T07:02:13Z</time>
      </trkpt>
      <trkpt lat="46.93343" lon="-0.6505">
        <ele>163.3</ele>
        <time>2012-07-22T07:02:14Z</time>
      </trkpt>
      <trkpt lat="46.93338" lon="-0.65045">
        <ele>163.3</ele>
        <time>2012-07-22T07:02:15Z</time>
      </trkpt>
      <trkpt lat="46.93334" lon="-0.6504">
        <ele>163.3</ele>
        <time>2012-07-22T07:02:16Z</time>
      </trkpt>
      <trkpt lat="46.93329" lon="-0.65035">
        <ele>163.3</ele>
        <time>2012-07-22T07:02:17Z</time>
      </trkpt>
      <trkpt lat="46.93323" lon="-0.6503">
        <ele>163.3</ele>
        <time>2012-07-22T07:02:18Z</time>
      </trkpt>
      <trkpt lat="46.93318" lon="-0.65025">
        <ele>163.3</ele>
        <time>2012-07-22T07:02:19Z</time>
      </trkpt>
      <trkpt lat="46.93313" lon="-0.65019">
        <ele>163.3</ele>
        <time>2012-07-22T07:02:20Z</time>
      </trkpt>
      <trkpt lat="46.93307" lon="-0.65014">
        <ele>163.3</ele>
        <time>2012-07-22T07:02:21Z</time>
      </trkpt>
      <trkpt lat="46.93302" lon="-0.65009">
        <ele>163.1</ele>
        <time>2012-07-22T07:02:22Z</time>
      </trkpt>
      <trkpt lat="46.93297" lon="-0.65003">
        <ele>163.1</ele>
        <time>2012-07-22T07:02:23Z</time>
      </trkpt>
      <trkpt lat="46.93292" lon="-0.64997">
        <ele>163.1</ele>
        <time>2012-07-22T07:02:24Z</time>
      </trkpt>
      <trkpt lat="46.93287" lon="-0.64991">
        <ele>163.1</ele>
        <time>2012-07-22T07:02:25Z</time>
      </trkpt>
      <trkpt lat="46.93282" lon="-0.64985">
        <ele>163.1</ele>
        <time>2012-07-22T07:02:26Z</time>
      </trkpt>
      <trkpt lat="46.93277" lon="-0.6498">
        <ele>163</ele>
        <time>2012-07-22T07:02:27Z</time>
      </trkpt>
      <trkpt lat="46.93272" lon="-0.64974">
        <ele>163</ele>
        <time>2012-07-22T07:02:28Z</time>
      </trkpt>
      <trkpt lat="46.93267" lon="-0.64968">
        <ele>162.8</ele>
        <time>2012-07-22T07:02:29Z</time>
      </trkpt>
      <trkpt lat="46.93262" lon="-0.64962">
        <ele>162.6</ele>
        <time>2012-07-22T07:02:30Z</time>
      </trkpt>
      <trkpt lat="46.93257" lon="-0.64955">
        <ele>162.6</ele>
        <time>2012-07-22T07:02:31Z</time>
      </trkpt>
      <trkpt lat="46.93251" lon="-0.64949">
        <ele>162.3</ele>
        <time>2012-07-22T07:02:32Z</time>
      </trkpt>
      <trkpt lat="46.93245" lon="-0.64942">
        <ele>162.1</ele>
        <time>2012-07-22T07:02:33Z</time>
      </trkpt>
      <trkpt lat="46.93238" lon="-0.64937">
        <ele>162.1</ele>
        <time>2012-07-22T07:02:34Z</time>
      </trkpt>
      <trkpt lat="46.93232" lon="-0.64931">
        <ele>161.8</ele>
        <time>2012-07-22T07:02:35Z</time>
      </trkpt>
      <trkpt lat="46.93224" lon="-0.64927">
        <ele>161.8</ele>
        <time>2012-07-22T07:02:36Z</time>
      </trkpt>
      <trkpt lat="46.93217" lon="-0.64923">
        <ele>161.6</ele>
        <time>2012-07-22T07:02:37Z</time>
      </trkpt>
      <trkpt lat="46.9321" lon="-0.6492">
        <ele>161.6</ele>
        <time>2012-07-22T07:02:38Z</time>
      </trkpt>
      <trkpt lat="46.93203" lon="-0.64916">
        <ele>161.5</ele>
        <time>2012-07-22T07:02:39Z</time>
      </trkpt>
      <trkpt lat="46.93197" lon="-0.64913">
        <ele>161.3</ele>
        <time>2012-07-22T07:02:40Z</time>
      </trkpt>
      <trkpt lat="46.9319" lon="-0.64911">
        <ele>161.1</ele>
        <time>2012-07-22T07:02:41Z</time>
      </trkpt>
      <trkpt lat="46.93182" lon="-0.64908">
        <ele>161.1</ele>
        <time>2012-07-22T07:02:42Z</time>
      </trkpt>
      <trkpt lat="46.93175" lon="-0.64905">
        <ele>160.8</ele>
        <time>2012-07-22T07:02:43Z</time>
      </trkpt>
      <trkpt lat="46.93168" lon="-0.649">
        <ele>160.8</ele>
        <time>2012-07-22T07:02:44Z</time>
      </trkpt>
      <trkpt lat="46.93162" lon="-0.64893">
        <ele>160.8</ele>
        <time>2012-07-22T07:02:45Z</time>
      </trkpt>
      <trkpt lat="46.93156" lon="-0.64886">
        <ele>160.6</ele>
        <time>2012-07-22T07:02:46Z</time>
      </trkpt>
      <trkpt lat="46.93151" lon="-0.64879">
        <ele>160.3</ele>
        <time>2012-07-22T07:02:47Z</time>
      </trkpt>
      <trkpt lat="46.93146" lon="-0.64872">
        <ele>160.1</ele>
        <time>2012-07-22T07:02:48Z</time>
      </trkpt>
      <trkpt lat="46.93142" lon="-0.64865">
        <ele>160</ele>
        <time>2012-07-22T07:02:49Z</time>
      </trkpt>
      <trkpt lat="46.93137" lon="-0.64859">
        <ele>159.8</ele>
        <time>2012-07-22T07:02:50Z</time>
      </trkpt>
      <trkpt lat="46.93131" lon="-0.64856">
        <ele>159.6</ele>
        <time>2012-07-22T07:02:51Z</time>
      </trkpt>
      <trkpt lat="46.93125" lon="-0.64853">
        <ele>159.6</ele>
        <time>2012-07-22T07:02:52Z</time>
      </trkpt>
      <trkpt lat="46.93118" lon="-0.64851">
        <ele>159.5</ele>
        <time>2012-07-22T07:02:53Z</time>
      </trkpt>
      <trkpt lat="46.93112" lon="-0.64849">
        <ele>159.3</ele>
        <time>2012-07-22T07:02:54Z</time>
      </trkpt>
      <trkpt lat="46.93105" lon="-0.64847">
        <ele>159.3</ele>
        <time>2012-07-22T07:02:55Z</time>
      </trkpt>
      <trkpt lat="46.93099" lon="-0.64843">
        <ele>159.1</ele>
        <time>2012-07-22T07:02:56Z</time>
      </trkpt>
      <trkpt lat="46.93093" lon="-0.64839">
        <ele>159.1</ele>
        <time>2012-07-22T07:02:57Z</time>
      </trkpt>
      <trkpt lat="46.93086" lon="-0.64833">
        <ele>159.1</ele>
        <time>2012-07-22T07:02:58Z</time>
      </trkpt>
      <trkpt lat="46.9308" lon="-0.64826">
        <ele>159</ele>
        <time>2012-07-22T07:02:59Z</time>
      </trkpt>
      <trkpt lat="46.93073" lon="-0.64818">
        <ele>158.8</ele>
        <time>2012-07-22T07:03:00Z</time>
      </trkpt>
      <trkpt lat="46.93067" lon="-0.6481">
        <ele>158.6</ele>
        <time>2012-07-22T07:03:01Z</time>
      </trkpt>
      <trkpt lat="46.9306" lon="-0.64803">
        <ele>158.5</ele>
        <time>2012-07-22T07:03:02Z</time>
      </trkpt>
      <trkpt lat="46.93054" lon="-0.64795">
        <ele>158.3</ele>
        <time>2012-07-22T07:03:03Z</time>
      </trkpt>
      <trkpt lat="46.93047" lon="-0.64788">
        <ele>158.3</ele>
        <time>2012-07-22T07:03:04Z</time>
      </trkpt>
      <trkpt lat="46.93041" lon="-0.6478">
        <ele>158.1</ele>
        <time>2012-07-22T07:03:05Z</time>
      </trkpt>
      <trkpt lat="46.93034" lon="-0.64772">
        <ele>158</ele>
        <time>2012-07-22T07:03:06Z</time>
      </trkpt>
      <trkpt lat="46.93027" lon="-0.64764">
        <ele>157.8</ele>
        <time>2012-07-22T07:03:07Z</time>
      </trkpt>
      <trkpt lat="46.9302" lon="-0.64755">
        <ele>157.6</ele>
        <time>2012-07-22T07:03:08Z</time>
      </trkpt>
      <trkpt lat="46.93013" lon="-0.64747">
        <ele>157.3</ele>
        <time>2012-07-22T07:03:09Z</time>
      </trkpt>
      <trkpt lat="46.93006" lon="-0.64738">
        <ele>157.1</ele>
        <time>2012-07-22T07:03:10Z</time>
      </trkpt>
      <trkpt lat="46.92999" lon="-0.6473">
        <ele>156.8</ele>
        <time>2012-07-22T07:03:11Z</time>
      </trkpt>
      <trkpt lat="46.92992" lon="-0.64721">
        <ele>156.6</ele>
        <time>2012-07-22T07:03:12Z</time>
      </trkpt>
      <trkpt lat="46.92985" lon="-0.64713">
        <ele>156.3</ele>
        <time>2012-07-22T07:03:13Z</time>
      </trkpt>
      <trkpt lat="46.92978" lon="-0.64704">
        <ele>156.1</ele>
        <time>2012-07-22T07:03:14Z</time>
      </trkpt>
      <trkpt lat="46.9297" lon="-0.64695">
        <ele>155.8</ele>
        <time>2012-07-22T07:03:15Z</time>
      </trkpt>
      <trkpt lat="46.92963" lon="-0.64686">
        <ele>155.6</ele>
        <time>2012-07-22T07:03:16Z</time>
      </trkpt>
      <trkpt lat="46.92955" lon="-0.64677">
        <ele>155.3</ele>
        <time>2012-07-22T07:03:17Z</time>
      </trkpt>
      <trkpt lat="46.92948" lon="-0.64668">
        <ele>155.1</ele>
        <time>2012-07-22T07:03:18Z</time>
      </trkpt>
      <trkpt lat="46.9294" lon="-0.6466">
        <ele>154.8</ele>
        <time>2012-07-22T07:03:19Z</time>
      </trkpt>
      <trkpt lat="46.92933" lon="-0.64651">
        <ele>154.6</ele>
        <time>2012-07-22T07:03:20Z</time>
      </trkpt>
      <trkpt lat="46.92925" lon="-0.64642">
        <ele>154.3</ele>
        <time>2012-07-22T07:03:21Z</time>
      </trkpt>
      <trkpt lat="46.92918" lon="-0.64633">
        <ele>154.1</ele>
        <time>2012-07-22T07:03:22Z</time>
      </trkpt>
      <trkpt lat="46.92911" lon="-0.64624">
        <ele>154</ele>
        <time>2012-07-22T07:03:23Z</time>
      </trkpt>
      <trkpt lat="46.92904" lon="-0.64616">
        <ele>153.8</ele>
        <time>2012-07-22T07:03:24Z</time>
      </trkpt>
      <trkpt lat="46.92897" lon="-0.64607">
        <ele>153.6</ele>
        <time>2012-07-22T07:03:25Z</time>
      </trkpt>
      <trkpt lat="46.9289" lon="-0.64599">
        <ele>153.6</ele>
        <time>2012-07-22T07:03:26Z</time>
      </trkpt>
      <trkpt lat="46.92883" lon="-0.64591">
        <ele>153.3</ele>
        <time>2012-07-22T07:03:27Z</time>
      </trkpt>
      <trkpt lat="46.92877" lon="-0.64583">
        <ele>153.1</ele>
        <time>2012-07-22T07:03:28Z</time>
      </trkpt>
      <trkpt lat="46.92871" lon="-0.64575">
        <ele>153</ele>
        <time>2012-07-22T07:03:29Z</time>
      </trkpt>
      <trkpt lat="46.92867" lon="-0.64565">
        <ele>152.6</ele>
        <time>2012-07-22T07:03:30Z</time>
      </trkpt>
      <trkpt lat="46.92865" lon="-0.64554">
        <ele>152.3</ele>
        <time>2012-07-22T07:03:31Z</time>
      </trkpt>
      <trkpt lat="46.92866" lon="-0.64543">
        <ele>152.1</ele>
        <time>2012-07-22T07:03:32Z</time>
      </trkpt>
      <trkpt lat="46.92868" lon="-0.64534">
        <ele>151.6</ele>
        <time>2012-07-22T07:03:33Z</time>
      </trkpt>
      <trkpt lat="46.92871" lon="-0.64524">
        <ele>151.3</ele>
        <time>2012-07-22T07:03:34Z</time>
      </trkpt>
      <trkpt lat="46.92875" lon="-0.64515">
        <ele>151.1</ele>
        <time>2012-07-22T07:03:35Z</time>
      </trkpt>
      <trkpt lat="46.92879" lon="-0.64505">
        <ele>150.8</ele>
        <time>2012-07-22T07:03:36Z</time>
      </trkpt>
      <trkpt lat="46.92882" lon="-0.64495">
        <ele>150.3</ele>
        <time>2012-07-22T07:03:37Z</time>
      </trkpt>
      <trkpt lat="46.92882" lon="-0.64485">
        <ele>150.1</ele>
        <time>2012-07-22T07:03:38Z</time>
      </trkpt>
      <trkpt lat="46.92881" lon="-0.64475">
        <ele>149.8</ele>
        <time>2012-07-22T07:03:39Z</time>
      </trkpt>
      <trkpt lat="46.92879" lon="-0.64465">
        <ele>149.3</ele>
        <time>2012-07-22T07:03:40Z</time>
      </trkpt>
      <trkpt lat="46.92877" lon="-0.64457">
        <ele>149</ele>
        <time>2012-07-22T07:03:41Z</time>
      </trkpt>
      <trkpt lat="46.92874" lon="-0.64449">
        <ele>148.6</ele>
        <time>2012-07-22T07:03:42Z</time>
      </trkpt>
      <trkpt lat="46.92871" lon="-0.64442">
        <ele>148.3</ele>
        <time>2012-07-22T07:03:43Z</time>
      </trkpt>
      <trkpt lat="46.92868" lon="-0.64434">
        <ele>148</ele>
        <time>2012-07-22T07:03:44Z</time>
      </trkpt>
      <trkpt lat="46.92864" lon="-0.64426">
        <ele>147.8</ele>
        <time>2012-07-22T07:03:45Z</time>
      </trkpt>
      <trkpt lat="46.9286" lon="-0.64419">
        <ele>147.6</ele>
        <time>2012-07-22T07:03:46Z</time>
      </trkpt>
      <trkpt lat="46.92856" lon="-0.64412">
        <ele>147.3</ele>
        <time>2012-07-22T07:03:47Z</time>
      </trkpt>
      <trkpt lat="46.92852" lon="-0.64405">
        <ele>147.3</ele>
        <time>2012-07-22T07:03:48Z</time>
      </trkpt>
      <trkpt lat="46.92847" lon="-0.64399">
        <ele>147.1</ele>
        <time>2012-07-22T07:03:49Z</time>
      </trkpt>
      <trkpt lat="46.92843" lon="-0.64394">
        <ele>147</ele>
        <time>2012-07-22T07:03:50Z</time>
      </trkpt>
      <trkpt lat="46.92838" lon="-0.64388">
        <ele>147</ele>
        <time>2012-07-22T07:03:51Z</time>
      </trkpt>
      <trkpt lat="46.92833" lon="-0.64383">
        <ele>147</ele>
        <time>2012-07-22T07:03:52Z</time>
      </trkpt>
      <trkpt lat="46.92829" lon="-0.64378">
        <ele>147.1</ele>
        <time>2012-07-22T07:03:53Z</time>
      </trkpt>
      <trkpt lat="46.92824" lon="-0.64374">
        <ele>147.1</ele>
        <time>2012-07-22T07:03:54Z</time>
      </trkpt>
      <trkpt lat="46.9282" lon="-0.64369">
        <ele>147.1</ele>
        <time>2012-07-22T07:03:55Z</time>
      </trkpt>
      <trkpt lat="46.92816" lon="-0.64364">
        <ele>147.1</ele>
        <time>2012-07-22T07:03:56Z</time>
      </trkpt>
      <trkpt lat="46.92812" lon="-0.64359">
        <ele>147.1</ele>
        <time>2012-07-22T07:03:57Z</time>
      </trkpt>
      <trkpt lat="46.92808" lon="-0.64355">
        <ele>147.1</ele>
        <time>2012-07-22T07:03:58Z</time>
      </trkpt>
      <trkpt lat="46.92804" lon="-0.64351">
        <ele>147.1</ele>
        <time>2012-07-22T07:03:59Z</time>
      </trkpt>
      <trkpt lat="46.92796" lon="-0.64343">
        <ele>147.1</ele>
        <time>2012-07-22T07:04:01Z</time>
      </trkpt>
      <trkpt lat="46.9279" lon="-0.64336">
        <ele>147.3</ele>
        <time>2012-07-22T07:04:03Z</time>
      </trkpt>
      <trkpt lat="46.92783" lon="-0.6433">
        <ele>147.3</ele>
        <time>2012-07-22T07:04:05Z</time>
      </trkpt>
      <trkpt lat="46.9278" lon="-0.64327">
        <ele>147.3</ele>
        <time>2012-07-22T07:04:06Z</time>
      </trkpt>
      <trkpt lat="46.92772" lon="-0.64319">
        <ele>147.3</ele>
        <time>2012-07-22T07:04:09Z</time>
      </trkpt>
      <trkpt lat="46.92766" lon="-0.64314">
        <ele>147.3</ele>
        <time>2012-07-22T07:04:11Z</time>
      </trkpt>
      <trkpt lat="46.92761" lon="-0.64308">
        <ele>147.3</ele>
        <time>2012-07-22T07:04:13Z</time>
      </trkpt>
      <trkpt lat="46.92753" lon="-0.64303">
        <ele>147.6</ele>
        <time>2012-07-22T07:04:15Z</time>
      </trkpt>
      <trkpt lat="46.92749" lon="-0.64299">
        <ele>147.8</ele>
        <time>2012-07-22T07:04:16Z</time>
      </trkpt>
      <trkpt lat="46.92744" lon="-0.64296">
        <ele>147.8</ele>
        <time>2012-07-22T07:04:17Z</time>
      </trkpt>
      <trkpt lat="46.9274" lon="-0.64292">
        <ele>148</ele>
        <time>2012-07-22T07:04:18Z</time>
      </trkpt>
      <trkpt lat="46.92735" lon="-0.64288">
        <ele>148</ele>
        <time>2012-07-22T07:04:19Z</time>
      </trkpt>
      <trkpt lat="46.92729" lon="-0.64284">
        <ele>148</ele>
        <time>2012-07-22T07:04:20Z</time>
      </trkpt>
      <trkpt lat="46.92724" lon="-0.6428">
        <ele>148.1</ele>
        <time>2012-07-22T07:04:21Z</time>
      </trkpt>
      <trkpt lat="46.92718" lon="-0.64276">
        <ele>148</ele>
        <time>2012-07-22T07:04:22Z</time>
      </trkpt>
      <trkpt lat="46.92712" lon="-0.64271">
        <ele>148</ele>
        <time>2012-07-22T07:04:23Z</time>
      </trkpt>
      <trkpt lat="46.92706" lon="-0.64267">
        <ele>148</ele>
        <time>2012-07-22T07:04:24Z</time>
      </trkpt>
      <trkpt lat="46.927" lon="-0.64264">
        <ele>148</ele>
        <time>2012-07-22T07:04:25Z</time>
      </trkpt>
      <trkpt lat="46.92692" lon="-0.64263">
        <ele>147.8</ele>
        <time>2012-07-22T07:04:26Z</time>
      </trkpt>
      <trkpt lat="46.92685" lon="-0.64263">
        <ele>147.8</ele>
        <time>2012-07-22T07:04:27Z</time>
      </trkpt>
      <trkpt lat="46.92677" lon="-0.64265">
        <ele>147.8</ele>
        <time>2012-07-22T07:04:28Z</time>
      </trkpt>
      <trkpt lat="46.9267" lon="-0.64268">
        <ele>148</ele>
        <time>2012-07-22T07:04:29Z</time>
      </trkpt>
      <trkpt lat="46.92663" lon="-0.64271">
        <ele>148</ele>
        <time>2012-07-22T07:04:30Z</time>
      </trkpt>
      <trkpt lat="46.92656" lon="-0.64275">
        <ele>148</ele>
        <time>2012-07-22T07:04:31Z</time>
      </trkpt>
      <trkpt lat="46.92648" lon="-0.64279">
        <ele>148</ele>
        <time>2012-07-22T07:04:32Z</time>
      </trkpt>
      <trkpt lat="46.92641" lon="-0.64283">
        <ele>148</ele>
        <time>2012-07-22T07:04:33Z</time>
      </trkpt>
      <trkpt lat="46.92635" lon="-0.64287">
        <ele>148</ele>
        <time>2012-07-22T07:04:34Z</time>
      </trkpt>
      <trkpt lat="46.92628" lon="-0.64291">
        <ele>148</ele>
        <time>2012-07-22T07:04:35Z</time>
      </trkpt>
      <trkpt lat="46.92621" lon="-0.64294">
        <ele>148.1</ele>
        <time>2012-07-22T07:04:36Z</time>
      </trkpt>
      <trkpt lat="46.92615" lon="-0.64297">
        <ele>148.1</ele>
        <time>2012-07-22T07:04:37Z</time>
      </trkpt>
      <trkpt lat="46.92609" lon="-0.643">
        <ele>148.1</ele>
        <time>2012-07-22T07:04:38Z</time>
      </trkpt>
      <trkpt lat="46.92604" lon="-0.64302">
        <ele>148</ele>
        <time>2012-07-22T07:04:39Z</time>
      </trkpt>
      <trkpt lat="46.92598" lon="-0.64304">
        <ele>148</ele>
        <time>2012-07-22T07:04:40Z</time>
      </trkpt>
      <trkpt lat="46.92593" lon="-0.64305">
        <ele>148</ele>
        <time>2012-07-22T07:04:41Z</time>
      </trkpt>
      <trkpt lat="46.92588" lon="-0.64307">
        <ele>148</ele>
        <time>2012-07-22T07:04:42Z</time>
      </trkpt>
      <trkpt lat="46.92584" lon="-0.64309">
        <ele>148.1</ele>
        <time>2012-07-22T07:04:43Z</time>
      </trkpt>
      <trkpt lat="46.92579" lon="-0.64311">
        <ele>148.1</ele>
        <time>2012-07-22T07:04:44Z</time>
      </trkpt>
      <trkpt lat="46.92571" lon="-0.64314">
        <ele>148</ele>
        <time>2012-07-22T07:04:46Z</time>
      </trkpt>
      <trkpt lat="46.92563" lon="-0.64316">
        <ele>148</ele>
        <time>2012-07-22T07:04:48Z</time>
      </trkpt>
      <trkpt lat="46.92555" lon="-0.64313">
        <ele>147.8</ele>
        <time>2012-07-22T07:04:50Z</time>
      </trkpt>
      <trkpt lat="46.92548" lon="-0.64305">
        <ele>147.6</ele>
        <time>2012-07-22T07:04:52Z</time>
      </trkpt>
      <trkpt lat="46.92545" lon="-0.64299">
        <ele>147.6</ele>
        <time>2012-07-22T07:04:53Z</time>
      </trkpt>
      <trkpt lat="46.92542" lon="-0.64293">
        <ele>147.5</ele>
        <time>2012-07-22T07:04:54Z</time>
      </trkpt>
      <trkpt lat="46.9254" lon="-0.64285">
        <ele>147.3</ele>
        <time>2012-07-22T07:04:55Z</time>
      </trkpt>
      <trkpt lat="46.92537" lon="-0.64277">
        <ele>147.1</ele>
        <time>2012-07-22T07:04:56Z</time>
      </trkpt>
      <trkpt lat="46.92535" lon="-0.64269">
        <ele>147.1</ele>
        <time>2012-07-22T07:04:57Z</time>
      </trkpt>
      <trkpt lat="46.92533" lon="-0.64261">
        <ele>147</ele>
        <time>2012-07-22T07:04:58Z</time>
      </trkpt>
      <trkpt lat="46.92531" lon="-0.64253">
        <ele>146.8</ele>
        <time>2012-07-22T07:04:59Z</time>
      </trkpt>
      <trkpt lat="46.92528" lon="-0.64244">
        <ele>146.8</ele>
        <time>2012-07-22T07:05:00Z</time>
      </trkpt>
      <trkpt lat="46.92526" lon="-0.64236">
        <ele>146.6</ele>
        <time>2012-07-22T07:05:01Z</time>
      </trkpt>
      <trkpt lat="46.92524" lon="-0.64228">
        <ele>146.6</ele>
        <time>2012-07-22T07:05:02Z</time>
      </trkpt>
      <trkpt lat="46.92522" lon="-0.64219">
        <ele>146.5</ele>
        <time>2012-07-22T07:05:03Z</time>
      </trkpt>
      <trkpt lat="46.92519" lon="-0.64211">
        <ele>146.3</ele>
        <time>2012-07-22T07:05:04Z</time>
      </trkpt>
      <trkpt lat="46.92517" lon="-0.64203">
        <ele>146.3</ele>
        <time>2012-07-22T07:05:05Z</time>
      </trkpt>
      <trkpt lat="46.92514" lon="-0.64194">
        <ele>146.1</ele>
        <time>2012-07-22T07:05:06Z</time>
      </trkpt>
      <trkpt lat="46.92512" lon="-0.64186">
        <ele>146.1</ele>
        <time>2012-07-22T07:05:07Z</time>
      </trkpt>
      <trkpt lat="46.9251" lon="-0.64177">
        <ele>146</ele>
        <time>2012-07-22T07:05:08Z</time>
      </trkpt>
      <trkpt lat="46.92507" lon="-0.64169">
        <ele>145.8</ele>
        <time>2012-07-22T07:05:09Z</time>
      </trkpt>
      <trkpt lat="46.92505" lon="-0.6416">
        <ele>145.8</ele>
        <time>2012-07-22T07:05:10Z</time>
      </trkpt>
      <trkpt lat="46.92502" lon="-0.64152">
        <ele>145.6</ele>
        <time>2012-07-22T07:05:11Z</time>
      </trkpt>
      <trkpt lat="46.925" lon="-0.64143">
        <ele>145.6</ele>
        <time>2012-07-22T07:05:12Z</time>
      </trkpt>
      <trkpt lat="46.92498" lon="-0.64134">
        <ele>145.6</ele>
        <time>2012-07-22T07:05:13Z</time>
      </trkpt>
      <trkpt lat="46.92495" lon="-0.64125">
        <ele>145.6</ele>
        <time>2012-07-22T07:05:14Z</time>
      </trkpt>
      <trkpt lat="46.92492" lon="-0.64116">
        <ele>145.5</ele>
        <time>2012-07-22T07:05:15Z</time>
      </trkpt>
      <trkpt lat="46.9249" lon="-0.64107">
        <ele>145.3</ele>
        <time>2012-07-22T07:05:16Z</time>
      </trkpt>
      <trkpt lat="46.92487" lon="-0.64098">
        <ele>145.3</ele>
        <time>2012-07-22T07:05:17Z</time>
      </trkpt>
      <trkpt lat="46.92484" lon="-0.64089">
        <ele>145.3</ele>
        <time>2012-07-22T07:05:18Z</time>
      </trkpt>
      <trkpt lat="46.92482" lon="-0.6408">
        <ele>145.1</ele>
        <time>2012-07-22T07:05:19Z</time>
      </trkpt>
      <trkpt lat="46.92479" lon="-0.64071">
        <ele>145.1</ele>
        <time>2012-07-22T07:05:20Z</time>
      </trkpt>
      <trkpt lat="46.92476" lon="-0.64062">
        <ele>145.1</ele>
        <time>2012-07-22T07:05:21Z</time>
      </trkpt>
      <trkpt lat="46.92474" lon="-0.64053">
        <ele>145</ele>
        <time>2012-07-22T07:05:22Z</time>
      </trkpt>
      <trkpt lat="46.92471" lon="-0.64044">
        <ele>145</ele>
        <time>2012-07-22T07:05:23Z</time>
      </trkpt>
      <trkpt lat="46.92468" lon="-0.64036">
        <ele>144.8</ele>
        <time>2012-07-22T07:05:24Z</time>
      </trkpt>
      <trkpt lat="46.92465" lon="-0.64027">
        <ele>144.6</ele>
        <time>2012-07-22T07:05:25Z</time>
      </trkpt>
      <trkpt lat="46.92461" lon="-0.64019">
        <ele>144.6</ele>
        <time>2012-07-22T07:05:26Z</time>
      </trkpt>
      <trkpt lat="46.92458" lon="-0.6401">
        <ele>144.5</ele>
        <time>2012-07-22T07:05:27Z</time>
      </trkpt>
      <trkpt lat="46.92455" lon="-0.64002">
        <ele>144.3</ele>
        <time>2012-07-22T07:05:28Z</time>
      </trkpt>
      <trkpt lat="46.92451" lon="-0.63995">
        <ele>144.3</ele>
        <time>2012-07-22T07:05:29Z</time>
      </trkpt>
      <trkpt lat="46.92449" lon="-0.63987">
        <ele>144.3</ele>
        <time>2012-07-22T07:05:30Z</time>
      </trkpt>
      <trkpt lat="46.92446" lon="-0.6398">
        <ele>144.1</ele>
        <time>2012-07-22T07:05:31Z</time>
      </trkpt>
      <trkpt lat="46.92444" lon="-0.63972">
        <ele>144</ele>
        <time>2012-07-22T07:05:32Z</time>
      </trkpt>
      <trkpt lat="46.92443" lon="-0.63965">
        <ele>143.8</ele>
        <time>2012-07-22T07:05:33Z</time>
      </trkpt>
      <trkpt lat="46.92443" lon="-0.63958">
        <ele>143.5</ele>
        <time>2012-07-22T07:05:34Z</time>
      </trkpt>
      <trkpt lat="46.92443" lon="-0.63951">
        <ele>143.1</ele>
        <time>2012-07-22T07:05:35Z</time>
      </trkpt>
      <trkpt lat="46.92443" lon="-0.63943">
        <ele>142.8</ele>
        <time>2012-07-22T07:05:36Z</time>
      </trkpt>
      <trkpt lat="46.92443" lon="-0.63935">
        <ele>142.6</ele>
        <time>2012-07-22T07:05:37Z</time>
      </trkpt>
      <trkpt lat="46.92443" lon="-0.63927">
        <ele>142.5</ele>
        <time>2012-07-22T07:05:38Z</time>
      </trkpt>
      <trkpt lat="46.92442" lon="-0.6392">
        <ele>142.3</ele>
        <time>2012-07-22T07:05:39Z</time>
      </trkpt>
      <trkpt lat="46.9244" lon="-0.63912">
        <ele>142.1</ele>
        <time>2012-07-22T07:05:40Z</time>
      </trkpt>
      <trkpt lat="46.92439" lon="-0.63903">
        <ele>142.1</ele>
        <time>2012-07-22T07:05:41Z</time>
      </trkpt>
      <trkpt lat="46.92437" lon="-0.63895">
        <ele>142</ele>
        <time>2012-07-22T07:05:42Z</time>
      </trkpt>
      <trkpt lat="46.92435" lon="-0.63887">
        <ele>141.8</ele>
        <time>2012-07-22T07:05:43Z</time>
      </trkpt>
      <trkpt lat="46.92433" lon="-0.63878">
        <ele>141.8</ele>
        <time>2012-07-22T07:05:44Z</time>
      </trkpt>
      <trkpt lat="46.92431" lon="-0.63869">
        <ele>141.8</ele>
        <time>2012-07-22T07:05:45Z</time>
      </trkpt>
      <trkpt lat="46.92429" lon="-0.6386">
        <ele>141.6</ele>
        <time>2012-07-22T07:05:46Z</time>
      </trkpt>
      <trkpt lat="46.92427" lon="-0.63851">
        <ele>141.6</ele>
        <time>2012-07-22T07:05:47Z</time>
      </trkpt>
      <trkpt lat="46.92425" lon="-0.63842">
        <ele>141.5</ele>
        <time>2012-07-22T07:05:48Z</time>
      </trkpt>
      <trkpt lat="46.92422" lon="-0.63832">
        <ele>141.3</ele>
        <time>2012-07-22T07:05:49Z</time>
      </trkpt>
      <trkpt lat="46.9242" lon="-0.63822">
        <ele>141.3</ele>
        <time>2012-07-22T07:05:50Z</time>
      </trkpt>
      <trkpt lat="46.92418" lon="-0.63812">
        <ele>141.1</ele>
        <time>2012-07-22T07:05:51Z</time>
      </trkpt>
      <trkpt lat="46.92416" lon="-0.63802">
        <ele>141.1</ele>
        <time>2012-07-22T07:05:52Z</time>
      </trkpt>
      <trkpt lat="46.92414" lon="-0.63792">
        <ele>141</ele>
        <time>2012-07-22T07:05:53Z</time>
      </trkpt>
      <trkpt lat="46.92412" lon="-0.63782">
        <ele>140.8</ele>
        <time>2012-07-22T07:05:54Z</time>
      </trkpt>
      <trkpt lat="46.9241" lon="-0.63773">
        <ele>140.8</ele>
        <time>2012-07-22T07:05:55Z</time>
      </trkpt>
      <trkpt lat="46.92407" lon="-0.63763">
        <ele>140.6</ele>
        <time>2012-07-22T07:05:56Z</time>
      </trkpt>
      <trkpt lat="46.92405" lon="-0.63753">
        <ele>140.3</ele>
        <time>2012-07-22T07:05:57Z</time>
      </trkpt>
      <trkpt lat="46.92403" lon="-0.63743">
        <ele>140.1</ele>
        <time>2012-07-22T07:05:58Z</time>
      </trkpt>
      <trkpt lat="46.92401" lon="-0.63734">
        <ele>139.8</ele>
        <time>2012-07-22T07:05:59Z</time>
      </trkpt>
      <trkpt lat="46.92399" lon="-0.63724">
        <ele>139.6</ele>
        <time>2012-07-22T07:06:00Z</time>
      </trkpt>
      <trkpt lat="46.92397" lon="-0.63714">
        <ele>139.3</ele>
        <time>2012-07-22T07:06:01Z</time>
      </trkpt>
      <trkpt lat="46.92395" lon="-0.63704">
        <ele>139.1</ele>
        <time>2012-07-22T07:06:02Z</time>
      </trkpt>
      <trkpt lat="46.92392" lon="-0.63694">
        <ele>139</ele>
        <time>2012-07-22T07:06:03Z</time>
      </trkpt>
      <trkpt lat="46.92389" lon="-0.63683">
        <ele>138.8</ele>
        <time>2012-07-22T07:06:04Z</time>
      </trkpt>
      <trkpt lat="46.92387" lon="-0.63673">
        <ele>138.6</ele>
        <time>2012-07-22T07:06:05Z</time>
      </trkpt>
      <trkpt lat="46.92384" lon="-0.63662">
        <ele>138.3</ele>
        <time>2012-07-22T07:06:06Z</time>
      </trkpt>
      <trkpt lat="46.92381" lon="-0.63653">
        <ele>138.3</ele>
        <time>2012-07-22T07:06:07Z</time>
      </trkpt>
      <trkpt lat="46.92378" lon="-0.63643">
        <ele>138.1</ele>
        <time>2012-07-22T07:06:08Z</time>
      </trkpt>
      <trkpt lat="46.92376" lon="-0.63632">
        <ele>138</ele>
        <time>2012-07-22T07:06:09Z</time>
      </trkpt>
      <trkpt lat="46.92375" lon="-0.63622">
        <ele>137.8</ele>
        <time>2012-07-22T07:06:10Z</time>
      </trkpt>
      <trkpt lat="46.92373" lon="-0.63611">
        <ele>137.6</ele>
        <time>2012-07-22T07:06:11Z</time>
      </trkpt>
      <trkpt lat="46.92372" lon="-0.63599">
        <ele>137.3</ele>
        <time>2012-07-22T07:06:12Z</time>
      </trkpt>
      <trkpt lat="46.92371" lon="-0.63588">
        <ele>137.3</ele>
        <time>2012-07-22T07:06:13Z</time>
      </trkpt>
      <trkpt lat="46.9237" lon="-0.63577">
        <ele>137.1</ele>
        <time>2012-07-22T07:06:14Z</time>
      </trkpt>
      <trkpt lat="46.92368" lon="-0.63566">
        <ele>137.1</ele>
        <time>2012-07-22T07:06:15Z</time>
      </trkpt>
      <trkpt lat="46.92367" lon="-0.63556">
        <ele>136.8</ele>
        <time>2012-07-22T07:06:16Z</time>
      </trkpt>
      <trkpt lat="46.92366" lon="-0.63545">
        <ele>136.6</ele>
        <time>2012-07-22T07:06:17Z</time>
      </trkpt>
      <trkpt lat="46.92365" lon="-0.63534">
        <ele>136.5</ele>
        <time>2012-07-22T07:06:18Z</time>
      </trkpt>
      <trkpt lat="46.92364" lon="-0.63523">
        <ele>136.1</ele>
        <time>2012-07-22T07:06:19Z</time>
      </trkpt>
      <trkpt lat="46.92363" lon="-0.63512">
        <ele>135.8</ele>
        <time>2012-07-22T07:06:20Z</time>
      </trkpt>
      <trkpt lat="46.92361" lon="-0.635">
        <ele>135.6</ele>
        <time>2012-07-22T07:06:21Z</time>
      </trkpt>
      <trkpt lat="46.9236" lon="-0.63489">
        <ele>135.5</ele>
        <time>2012-07-22T07:06:22Z</time>
      </trkpt>
      <trkpt lat="46.92358" lon="-0.63478">
        <ele>135.1</ele>
        <time>2012-07-22T07:06:23Z</time>
      </trkpt>
      <trkpt lat="46.92356" lon="-0.63467">
        <ele>135</ele>
        <time>2012-07-22T07:06:24Z</time>
      </trkpt>
      <trkpt lat="46.92354" lon="-0.63457">
        <ele>134.8</ele>
        <time>2012-07-22T07:06:25Z</time>
      </trkpt>
      <trkpt lat="46.92352" lon="-0.63447">
        <ele>134.6</ele>
        <time>2012-07-22T07:06:26Z</time>
      </trkpt>
      <trkpt lat="46.92351" lon="-0.63437">
        <ele>134.3</ele>
        <time>2012-07-22T07:06:27Z</time>
      </trkpt>
      <trkpt lat="46.9235" lon="-0.63427">
        <ele>134</ele>
        <time>2012-07-22T07:06:28Z</time>
      </trkpt>
      <trkpt lat="46.92349" lon="-0.63416">
        <ele>133.6</ele>
        <time>2012-07-22T07:06:29Z</time>
      </trkpt>
      <trkpt lat="46.92348" lon="-0.63406">
        <ele>133.3</ele>
        <time>2012-07-22T07:06:30Z</time>
      </trkpt>
      <trkpt lat="46.92347" lon="-0.63395">
        <ele>133</ele>
        <time>2012-07-22T07:06:31Z</time>
      </trkpt>
      <trkpt lat="46.92343" lon="-0.63385">
        <ele>132.6</ele>
        <time>2012-07-22T07:06:32Z</time>
      </trkpt>
      <trkpt lat="46.9234" lon="-0.63375">
        <ele>132.5</ele>
        <time>2012-07-22T07:06:33Z</time>
      </trkpt>
      <trkpt lat="46.92336" lon="-0.63364">
        <ele>132.3</ele>
        <time>2012-07-22T07:06:34Z</time>
      </trkpt>
      <trkpt lat="46.92332" lon="-0.63353">
        <ele>132.1</ele>
        <time>2012-07-22T07:06:35Z</time>
      </trkpt>
      <trkpt lat="46.92327" lon="-0.63342">
        <ele>132</ele>
        <time>2012-07-22T07:06:36Z</time>
      </trkpt>
      <trkpt lat="46.92322" lon="-0.63333">
        <ele>131.8</ele>
        <time>2012-07-22T07:06:37Z</time>
      </trkpt>
      <trkpt lat="46.92316" lon="-0.63324">
        <ele>131.8</ele>
        <time>2012-07-22T07:06:38Z</time>
      </trkpt>
      <trkpt lat="46.9231" lon="-0.63316">
        <ele>131.6</ele>
        <time>2012-07-22T07:06:39Z</time>
      </trkpt>
      <trkpt lat="46.92303" lon="-0.63308">
        <ele>131.5</ele>
        <time>2012-07-22T07:06:40Z</time>
      </trkpt>
      <trkpt lat="46.92296" lon="-0.633">
        <ele>131.3</ele>
        <time>2012-07-22T07:06:41Z</time>
      </trkpt>
      <trkpt lat="46.92289" lon="-0.63293">
        <ele>131.3</ele>
        <time>2012-07-22T07:06:42Z</time>
      </trkpt>
      <trkpt lat="46.92282" lon="-0.63287">
        <ele>131.6</ele>
        <time>2012-07-22T07:06:43Z</time>
      </trkpt>
      <trkpt lat="46.92274" lon="-0.63281">
        <ele>131.6</ele>
        <time>2012-07-22T07:06:44Z</time>
      </trkpt>
      <trkpt lat="46.92266" lon="-0.63276">
        <ele>131.8</ele>
        <time>2012-07-22T07:06:45Z</time>
      </trkpt>
      <trkpt lat="46.92258" lon="-0.63271">
        <ele>131.8</ele>
        <time>2012-07-22T07:06:46Z</time>
      </trkpt>
      <trkpt lat="46.9225" lon="-0.63266">
        <ele>131.5</ele>
        <time>2012-07-22T07:06:47Z</time>
      </trkpt>
      <trkpt lat="46.92243" lon="-0.63262">
        <ele>131.1</ele>
        <time>2012-07-22T07:06:48Z</time>
      </trkpt>
      <trkpt lat="46.92235" lon="-0.63259">
        <ele>130.6</ele>
        <time>2012-07-22T07:06:49Z</time>
      </trkpt>
      <trkpt lat="46.92229" lon="-0.63256">
        <ele>130</ele>
        <time>2012-07-22T07:06:50Z</time>
      </trkpt>
      <trkpt lat="46.92222" lon="-0.63252">
        <ele>129.3</ele>
        <time>2012-07-22T07:06:51Z</time>
      </trkpt>
      <trkpt lat="46.92215" lon="-0.63247">
        <ele>128.6</ele>
        <time>2012-07-22T07:06:52Z</time>
      </trkpt>
      <trkpt lat="46.92209" lon="-0.63241">
        <ele>128.1</ele>
        <time>2012-07-22T07:06:53Z</time>
      </trkpt>
      <trkpt lat="46.92203" lon="-0.63235">
        <ele>127.5</ele>
        <time>2012-07-22T07:06:54Z</time>
      </trkpt>
      <trkpt lat="46.92199" lon="-0.63227">
        <ele>127</ele>
        <time>2012-07-22T07:06:55Z</time>
      </trkpt>
      <trkpt lat="46.92195" lon="-0.63219">
        <ele>126.5</ele>
        <time>2012-07-22T07:06:56Z</time>
      </trkpt>
      <trkpt lat="46.92193" lon="-0.6321">
        <ele>126.4</ele>
        <time>2012-07-22T07:06:57Z</time>
      </trkpt>
      <trkpt lat="46.92191" lon="-0.632">
        <ele>126.3</ele>
        <time>2012-07-22T07:06:58Z</time>
      </trkpt>
      <trkpt lat="46.9219" lon="-0.6319">
        <ele>126.3</ele>
        <time>2012-07-22T07:06:59Z</time>
      </trkpt>
      <trkpt lat="46.92189" lon="-0.6318">
        <ele>126.3</ele>
        <time>2012-07-22T07:07:00Z</time>
      </trkpt>
      <trkpt lat="46.92187" lon="-0.6317">
        <ele>126</ele>
        <time>2012-07-22T07:07:01Z</time>
      </trkpt>
      <trkpt lat="46.92186" lon="-0.6316">
        <ele>126</ele>
        <time>2012-07-22T07:07:02Z</time>
      </trkpt>
      <trkpt lat="46.92185" lon="-0.6315">
        <ele>126</ele>
        <time>2012-07-22T07:07:03Z</time>
      </trkpt>
      <trkpt lat="46.92184" lon="-0.63141">
        <ele>125.9</ele>
        <time>2012-07-22T07:07:04Z</time>
      </trkpt>
      <trkpt lat="46.9218" lon="-0.63133">
        <ele>125.5</ele>
        <time>2012-07-22T07:07:05Z</time>
      </trkpt>
      <trkpt lat="46.92176" lon="-0.63126">
        <ele>125.3</ele>
        <time>2012-07-22T07:07:06Z</time>
      </trkpt>
      <trkpt lat="46.92171" lon="-0.63119">
        <ele>125</ele>
        <time>2012-07-22T07:07:07Z</time>
      </trkpt>
      <trkpt lat="46.92166" lon="-0.63113">
        <ele>124.9</ele>
        <time>2012-07-22T07:07:08Z</time>
      </trkpt>
      <trkpt lat="46.9216" lon="-0.63106">
        <ele>124.4</ele>
        <time>2012-07-22T07:07:09Z</time>
      </trkpt>
      <trkpt lat="46.92154" lon="-0.63099">
        <ele>123.8</ele>
        <time>2012-07-22T07:07:10Z</time>
      </trkpt>
      <trkpt lat="46.92149" lon="-0.63092">
        <ele>123</ele>
        <time>2012-07-22T07:07:11Z</time>
      </trkpt>
      <trkpt lat="46.92142" lon="-0.63085">
        <ele>122.5</ele>
        <time>2012-07-22T07:07:12Z</time>
      </trkpt>
      <trkpt lat="46.92137" lon="-0.63079">
        <ele>122.3</ele>
        <time>2012-07-22T07:07:13Z</time>
      </trkpt>
      <trkpt lat="46.92131" lon="-0.63073">
        <ele>121.9</ele>
        <time>2012-07-22T07:07:14Z</time>
      </trkpt>
      <trkpt lat="46.92124" lon="-0.63066">
        <ele>121.5</ele>
        <time>2012-07-22T07:07:15Z</time>
      </trkpt>
      <trkpt lat="46.92119" lon="-0.63059">
        <ele>121.3</ele>
        <time>2012-07-22T07:07:16Z</time>
      </trkpt>
      <trkpt lat="46.92112" lon="-0.63052">
        <ele>121</ele>
        <time>2012-07-22T07:07:17Z</time>
      </trkpt>
      <trkpt lat="46.92106" lon="-0.63046">
        <ele>120.8</ele>
        <time>2012-07-22T07:07:18Z</time>
      </trkpt>
      <trkpt lat="46.92101" lon="-0.6304">
        <ele>120.5</ele>
        <time>2012-07-22T07:07:19Z</time>
      </trkpt>
      <trkpt lat="46.92096" lon="-0.63036">
        <ele>120.4</ele>
        <time>2012-07-22T07:07:20Z</time>
      </trkpt>
      <trkpt lat="46.92089" lon="-0.63029">
        <ele>120</ele>
        <time>2012-07-22T07:07:22Z</time>
      </trkpt>
      <trkpt lat="46.92083" lon="-0.63025">
        <ele>119.9</ele>
        <time>2012-07-22T07:07:34Z</time>
      </trkpt>
      <trkpt lat="46.92075" lon="-0.63028">
        <ele>119.5</ele>
        <time>2012-07-22T07:07:37Z</time>
      </trkpt>
      <trkpt lat="46.92069" lon="-0.63028">
        <ele>119.3</ele>
        <time>2012-07-22T07:07:48Z</time>
      </trkpt>
      <trkpt lat="46.92064" lon="-0.63022">
        <ele>119</ele>
        <time>2012-07-22T07:07:50Z</time>
      </trkpt>
      <trkpt lat="46.92059" lon="-0.63015">
        <ele>119</ele>
        <time>2012-07-22T07:07:52Z</time>
      </trkpt>
      <trkpt lat="46.92052" lon="-0.63015">
        <ele>118.5</ele>
        <time>2012-07-22T07:07:55Z</time>
      </trkpt>
      <trkpt lat="46.92043" lon="-0.63015">
        <ele>118.4</ele>
        <time>2012-07-22T07:07:59Z</time>
      </trkpt>
      <trkpt lat="46.92036" lon="-0.63012">
        <ele>118</ele>
        <time>2012-07-22T07:08:02Z</time>
      </trkpt>
      <trkpt lat="46.92028" lon="-0.63008">
        <ele>117.8</ele>
        <time>2012-07-22T07:08:05Z</time>
      </trkpt>
      <trkpt lat="46.9202" lon="-0.63002">
        <ele>117.5</ele>
        <time>2012-07-22T07:08:08Z</time>
      </trkpt>
      <trkpt lat="46.92012" lon="-0.62996">
        <ele>117.3</ele>
        <time>2012-07-22T07:08:11Z</time>
      </trkpt>
      <trkpt lat="46.9201" lon="-0.62994">
        <ele>117</ele>
        <time>2012-07-22T07:08:12Z</time>
      </trkpt>
      <trkpt lat="46.92007" lon="-0.62976">
        <ele>116.5</ele>
        <time>2012-07-22T07:08:19Z</time>
      </trkpt>
      <trkpt lat="46.92009" lon="-0.62964">
        <ele>116</ele>
        <time>2012-07-22T07:08:24Z</time>
      </trkpt>
      <trkpt lat="46.9201" lon="-0.62951">
        <ele>115.9</ele>
        <time>2012-07-22T07:08:38Z</time>
      </trkpt>
      <trkpt lat="46.92012" lon="-0.6294">
        <ele>115.9</ele>
        <time>2012-07-22T07:08:42Z</time>
      </trkpt>
      <trkpt lat="46.92014" lon="-0.62929">
        <ele>116</ele>
        <time>2012-07-22T07:08:45Z</time>
      </trkpt>
      <trkpt lat="46.92015" lon="-0.62919">
        <ele>116</ele>
        <time>2012-07-22T07:08:48Z</time>
      </trkpt>
      <trkpt lat="46.92014" lon="-0.62907">
        <ele>116</ele>
        <time>2012-07-22T07:08:51Z</time>
      </trkpt>
      <trkpt lat="46.92012" lon="-0.62895">
        <ele>116.3</ele>
        <time>2012-07-22T07:08:54Z</time>
      </trkpt>
      <trkpt lat="46.92011" lon="-0.62886">
        <ele>116.4</ele>
        <time>2012-07-22T07:08:56Z</time>
      </trkpt>
      <trkpt lat="46.9201" lon="-0.62877">
        <ele>116.5</ele>
        <time>2012-07-22T07:08:58Z</time>
      </trkpt>
      <trkpt lat="46.92008" lon="-0.62868">
        <ele>116.5</ele>
        <time>2012-07-22T07:09:00Z</time>
      </trkpt>
      <trkpt lat="46.92006" lon="-0.62859">
        <ele>116.5</ele>
        <time>2012-07-22T07:09:02Z</time>
      </trkpt>
      <trkpt lat="46.92004" lon="-0.62848">
        <ele>116.9</ele>
        <time>2012-07-22T07:09:05Z</time>
      </trkpt>
      <trkpt lat="46.92002" lon="-0.62838">
        <ele>117</ele>
        <time>2012-07-22T07:09:08Z</time>
      </trkpt>
      <trkpt lat="46.91999" lon="-0.62826">
        <ele>117.4</ele>
        <time>2012-07-22T07:09:12Z</time>
      </trkpt>
      <trkpt lat="46.91998" lon="-0.62822">
        <ele>117.5</ele>
        <time>2012-07-22T07:09:13Z</time>
      </trkpt>
      <trkpt lat="46.91993" lon="-0.62804">
        <ele>117.9</ele>
        <time>2012-07-22T07:09:19Z</time>
      </trkpt>
      <trkpt lat="46.9199" lon="-0.62794">
        <ele>118</ele>
        <time>2012-07-22T07:09:22Z</time>
      </trkpt>
      <trkpt lat="46.91987" lon="-0.62784">
        <ele>118.3</ele>
        <time>2012-07-22T07:09:25Z</time>
      </trkpt>
      <trkpt lat="46.91984" lon="-0.62773">
        <ele>118.5</ele>
        <time>2012-07-22T07:09:28Z</time>
      </trkpt>
      <trkpt lat="46.91981" lon="-0.62763">
        <ele>119</ele>
        <time>2012-07-22T07:09:31Z</time>
      </trkpt>
      <trkpt lat="46.91979" lon="-0.62753">
        <ele>119.3</ele>
        <time>2012-07-22T07:09:34Z</time>
      </trkpt>
      <trkpt lat="46.91976" lon="-0.62744">
        <ele>119.5</ele>
        <time>2012-07-22T07:09:37Z</time>
      </trkpt>
      <trkpt lat="46.91973" lon="-0.62733">
        <ele>120</ele>
        <time>2012-07-22T07:09:40Z</time>
      </trkpt>
      <trkpt lat="46.9197" lon="-0.6272">
        <ele>120.5</ele>
        <time>2012-07-22T07:09:43Z</time>
      </trkpt>
      <trkpt lat="46.91968" lon="-0.62709">
        <ele>121</ele>
        <time>2012-07-22T07:09:46Z</time>
      </trkpt>
      <trkpt lat="46.91966" lon="-0.62697">
        <ele>121.5</ele>
        <time>2012-07-22T07:09:49Z</time>
      </trkpt>
      <trkpt lat="46.91964" lon="-0.62685">
        <ele>122</ele>
        <time>2012-07-22T07:09:52Z</time>
      </trkpt>
      <trkpt lat="46.91962" lon="-0.62672">
        <ele>122.5</ele>
        <time>2012-07-22T07:09:55Z</time>
      </trkpt>
      <trkpt lat="46.9196" lon="-0.62663">
        <ele>123</ele>
        <time>2012-07-22T07:09:57Z</time>
      </trkpt>
      <trkpt lat="46.91957" lon="-0.62654">
        <ele>123.4</ele>
        <time>2012-07-22T07:09:59Z</time>
      </trkpt>
      <trkpt lat="46.91955" lon="-0.62644">
        <ele>123.8</ele>
        <time>2012-07-22T07:10:01Z</time>
      </trkpt>
      <trkpt lat="46.91951" lon="-0.62635">
        <ele>124</ele>
        <time>2012-07-22T07:10:03Z</time>
      </trkpt>
      <trkpt lat="46.91947" lon="-0.62627">
        <ele>124.5</ele>
        <time>2012-07-22T07:10:05Z</time>
      </trkpt>
      <trkpt lat="46.91941" lon="-0.62619">
        <ele>125</ele>
        <time>2012-07-22T07:10:07Z</time>
      </trkpt>
      <trkpt lat="46.91936" lon="-0.62611">
        <ele>125.4</ele>
        <time>2012-07-22T07:10:09Z</time>
      </trkpt>
      <trkpt lat="46.9193" lon="-0.62604">
        <ele>125.5</ele>
        <time>2012-07-22T07:10:11Z</time>
      </trkpt>
      <trkpt lat="46.91924" lon="-0.62597">
        <ele>126</ele>
        <time>2012-07-22T07:10:13Z</time>
      </trkpt>
      <trkpt lat="46.91921" lon="-0.62593">
        <ele>126</ele>
        <time>2012-07-22T07:10:14Z</time>
      </trkpt>
      <trkpt lat="46.91913" lon="-0.62581">
        <ele>126.5</ele>
        <time>2012-07-22T07:10:17Z</time>
      </trkpt>
      <trkpt lat="46.91909" lon="-0.62574">
        <ele>127</ele>
        <time>2012-07-22T07:10:19Z</time>
      </trkpt>
      <trkpt lat="46.91905" lon="-0.62565">
        <ele>127.3</ele>
        <time>2012-07-22T07:10:21Z</time>
      </trkpt>
      <trkpt lat="46.91903" lon="-0.62556">
        <ele>127.5</ele>
        <time>2012-07-22T07:10:23Z</time>
      </trkpt>
      <trkpt lat="46.91901" lon="-0.62547">
        <ele>127.8</ele>
        <time>2012-07-22T07:10:25Z</time>
      </trkpt>
      <trkpt lat="46.91901" lon="-0.62538">
        <ele>128.1</ele>
        <time>2012-07-22T07:10:27Z</time>
      </trkpt>
      <trkpt lat="46.91902" lon="-0.62529">
        <ele>128.3</ele>
        <time>2012-07-22T07:10:29Z</time>
      </trkpt>
      <trkpt lat="46.91903" lon="-0.62519">
        <ele>128.6</ele>
        <time>2012-07-22T07:10:31Z</time>
      </trkpt>
      <trkpt lat="46.91904" lon="-0.62508">
        <ele>128.8</ele>
        <time>2012-07-22T07:10:33Z</time>
      </trkpt>
      <trkpt lat="46.91906" lon="-0.62498">
        <ele>129</ele>
        <time>2012-07-22T07:10:35Z</time>
      </trkpt>
      <trkpt lat="46.91908" lon="-0.62487">
        <ele>129.3</ele>
        <time>2012-07-22T07:10:37Z</time>
      </trkpt>
      <trkpt lat="46.9191" lon="-0.62477">
        <ele>129.5</ele>
        <time>2012-07-22T07:10:39Z</time>
      </trkpt>
      <trkpt lat="46.91912" lon="-0.62467">
        <ele>129.6</ele>
        <time>2012-07-22T07:10:41Z</time>
      </trkpt>
      <trkpt lat="46.91915" lon="-0.62457">
        <ele>129.8</ele>
        <time>2012-07-22T07:10:43Z</time>
      </trkpt>
      <trkpt lat="46.91918" lon="-0.62447">
        <ele>130.1</ele>
        <time>2012-07-22T07:10:45Z</time>
      </trkpt>
      <trkpt lat="46.91921" lon="-0.62438">
        <ele>130.3</ele>
        <time>2012-07-22T07:10:47Z</time>
      </trkpt>
      <trkpt lat="46.91924" lon="-0.62428">
        <ele>131.1</ele>
        <time>2012-07-22T07:10:49Z</time>
      </trkpt>
      <trkpt lat="46.91928" lon="-0.62417">
        <ele>131.8</ele>
        <time>2012-07-22T07:10:51Z</time>
      </trkpt>
      <trkpt lat="46.91933" lon="-0.62406">
        <ele>131.8</ele>
        <time>2012-07-22T07:10:53Z</time>
      </trkpt>
      <trkpt lat="46.91935" lon="-0.62399">
        <ele>131.8</ele>
        <time>2012-07-22T07:10:54Z</time>
      </trkpt>
      <trkpt lat="46.91937" lon="-0.62393">
        <ele>131.8</ele>
        <time>2012-07-22T07:10:55Z</time>
      </trkpt>
      <trkpt lat="46.91939" lon="-0.62386">
        <ele>131.6</ele>
        <time>2012-07-22T07:10:56Z</time>
      </trkpt>
      <trkpt lat="46.91941" lon="-0.62379">
        <ele>131.6</ele>
        <time>2012-07-22T07:10:57Z</time>
      </trkpt>
      <trkpt lat="46.91943" lon="-0.62372">
        <ele>131.5</ele>
        <time>2012-07-22T07:10:58Z</time>
      </trkpt>
      <trkpt lat="46.91945" lon="-0.62365">
        <ele>131.3</ele>
        <time>2012-07-22T07:10:59Z</time>
      </trkpt>
      <trkpt lat="46.91947" lon="-0.62358">
        <ele>131</ele>
        <time>2012-07-22T07:11:00Z</time>
      </trkpt>
      <trkpt lat="46.9195" lon="-0.62351">
        <ele>130.8</ele>
        <time>2012-07-22T07:11:01Z</time>
      </trkpt>
      <trkpt lat="46.91952" lon="-0.62343">
        <ele>130.6</ele>
        <time>2012-07-22T07:11:02Z</time>
      </trkpt>
      <trkpt lat="46.91954" lon="-0.62336">
        <ele>130.6</ele>
        <time>2012-07-22T07:11:03Z</time>
      </trkpt>
      <trkpt lat="46.91957" lon="-0.62328">
        <ele>130.8</ele>
        <time>2012-07-22T07:11:04Z</time>
      </trkpt>
      <trkpt lat="46.9196" lon="-0.6232">
        <ele>131</ele>
        <time>2012-07-22T07:11:05Z</time>
      </trkpt>
      <trkpt lat="46.91962" lon="-0.62312">
        <ele>131</ele>
        <time>2012-07-22T07:11:06Z</time>
      </trkpt>
      <trkpt lat="46.91965" lon="-0.62305">
        <ele>131.3</ele>
        <time>2012-07-22T07:11:07Z</time>
      </trkpt>
      <trkpt lat="46.91967" lon="-0.62297">
        <ele>131.5</ele>
        <time>2012-07-22T07:11:08Z</time>
      </trkpt>
      <trkpt lat="46.91969" lon="-0.62289">
        <ele>131.6</ele>
        <time>2012-07-22T07:11:09Z</time>
      </trkpt>
      <trkpt lat="46.91972" lon="-0.62282">
        <ele>131.8</ele>
        <time>2012-07-22T07:11:10Z</time>
      </trkpt>
      <trkpt lat="46.91974" lon="-0.62275">
        <ele>131.8</ele>
        <time>2012-07-22T07:11:11Z</time>
      </trkpt>
      <trkpt lat="46.91976" lon="-0.62267">
        <ele>132</ele>
        <time>2012-07-22T07:11:12Z</time>
      </trkpt>
      <trkpt lat="46.91978" lon="-0.6226">
        <ele>132.1</ele>
        <time>2012-07-22T07:11:13Z</time>
      </trkpt>
      <trkpt lat="46.9198" lon="-0.62253">
        <ele>132.1</ele>
        <time>2012-07-22T07:11:14Z</time>
      </trkpt>
      <trkpt lat="46.9198" lon="-0.62246">
        <ele>132.1</ele>
        <time>2012-07-22T07:11:15Z</time>
      </trkpt>
      <trkpt lat="46.91978" lon="-0.6224">
        <ele>132.3</ele>
        <time>2012-07-22T07:11:16Z</time>
      </trkpt>
      <trkpt lat="46.91976" lon="-0.62234">
        <ele>132.3</ele>
        <time>2012-07-22T07:11:17Z</time>
      </trkpt>
      <trkpt lat="46.91974" lon="-0.62228">
        <ele>132.6</ele>
        <time>2012-07-22T07:11:18Z</time>
      </trkpt>
      <trkpt lat="46.91971" lon="-0.62221">
        <ele>133.1</ele>
        <time>2012-07-22T07:11:19Z</time>
      </trkpt>
      <trkpt lat="46.91968" lon="-0.62216">
        <ele>133.5</ele>
        <time>2012-07-22T07:11:20Z</time>
      </trkpt>
      <trkpt lat="46.91966" lon="-0.6221">
        <ele>134.1</ele>
        <time>2012-07-22T07:11:21Z</time>
      </trkpt>
      <trkpt lat="46.91963" lon="-0.62204">
        <ele>134.6</ele>
        <time>2012-07-22T07:11:22Z</time>
      </trkpt>
      <trkpt lat="46.9196" lon="-0.62199">
        <ele>135.3</ele>
        <time>2012-07-22T07:11:23Z</time>
      </trkpt>
      <trkpt lat="46.91957" lon="-0.62194">
        <ele>136</ele>
        <time>2012-07-22T07:11:24Z</time>
      </trkpt>
      <trkpt lat="46.91954" lon="-0.62188">
        <ele>136.6</ele>
        <time>2012-07-22T07:11:25Z</time>
      </trkpt>
      <trkpt lat="46.91951" lon="-0.62183">
        <ele>137.1</ele>
        <time>2012-07-22T07:11:26Z</time>
      </trkpt>
      <trkpt lat="46.91948" lon="-0.62178">
        <ele>137.6</ele>
        <time>2012-07-22T07:11:27Z</time>
      </trkpt>
      <trkpt lat="46.91945" lon="-0.62173">
        <ele>138.1</ele>
        <time>2012-07-22T07:11:28Z</time>
      </trkpt>
      <trkpt lat="46.91942" lon="-0.62168">
        <ele>138.5</ele>
        <time>2012-07-22T07:11:29Z</time>
      </trkpt>
      <trkpt lat="46.91938" lon="-0.62164">
        <ele>138.8</ele>
        <time>2012-07-22T07:11:30Z</time>
      </trkpt>
      <trkpt lat="46.91935" lon="-0.62159">
        <ele>139.3</ele>
        <time>2012-07-22T07:11:31Z</time>
      </trkpt>
      <trkpt lat="46.91931" lon="-0.62155">
        <ele>139.6</ele>
        <time>2012-07-22T07:11:32Z</time>
      </trkpt>
      <trkpt lat="46.91924" lon="-0.62149">
        <ele>140.1</ele>
        <time>2012-07-22T07:11:34Z</time>
      </trkpt>
      <trkpt lat="46.91917" lon="-0.62142">
        <ele>140.3</ele>
        <time>2012-07-22T07:11:36Z</time>
      </trkpt>
      <trkpt lat="46.91911" lon="-0.62136">
        <ele>140.5</ele>
        <time>2012-07-22T07:11:38Z</time>
      </trkpt>
      <trkpt lat="46.91905" lon="-0.6213">
        <ele>140.5</ele>
        <time>2012-07-22T07:11:40Z</time>
      </trkpt>
      <trkpt lat="46.919" lon="-0.62122">
        <ele>141.1</ele>
        <time>2012-07-22T07:11:42Z</time>
      </trkpt>
      <trkpt lat="46.91894" lon="-0.62114">
        <ele>141.5</ele>
        <time>2012-07-22T07:11:44Z</time>
      </trkpt>
      <trkpt lat="46.91889" lon="-0.62104">
        <ele>141.8</ele>
        <time>2012-07-22T07:11:46Z</time>
      </trkpt>
      <trkpt lat="46.91886" lon="-0.62099">
        <ele>142.1</ele>
        <time>2012-07-22T07:11:47Z</time>
      </trkpt>
      <trkpt lat="46.91883" lon="-0.62094">
        <ele>142.3</ele>
        <time>2012-07-22T07:11:48Z</time>
      </trkpt>
      <trkpt lat="46.9188" lon="-0.62089">
        <ele>142.6</ele>
        <time>2012-07-22T07:11:49Z</time>
      </trkpt>
      <trkpt lat="46.91877" lon="-0.62083">
        <ele>142.8</ele>
        <time>2012-07-22T07:11:50Z</time>
      </trkpt>
      <trkpt lat="46.91874" lon="-0.62078">
        <ele>143.1</ele>
        <time>2012-07-22T07:11:51Z</time>
      </trkpt>
      <trkpt lat="46.91871" lon="-0.62073">
        <ele>143.3</ele>
        <time>2012-07-22T07:11:52Z</time>
      </trkpt>
      <trkpt lat="46.91868" lon="-0.62067">
        <ele>143.6</ele>
        <time>2012-07-22T07:11:53Z</time>
      </trkpt>
      <trkpt lat="46.91864" lon="-0.62062">
        <ele>143.8</ele>
        <time>2012-07-22T07:11:54Z</time>
      </trkpt>
      <trkpt lat="46.91861" lon="-0.62056">
        <ele>144.1</ele>
        <time>2012-07-22T07:11:55Z</time>
      </trkpt>
      <trkpt lat="46.91858" lon="-0.62051">
        <ele>144.3</ele>
        <time>2012-07-22T07:11:56Z</time>
      </trkpt>
      <trkpt lat="46.91854" lon="-0.62045">
        <ele>144.5</ele>
        <time>2012-07-22T07:11:57Z</time>
      </trkpt>
      <trkpt lat="46.91851" lon="-0.62039">
        <ele>144.6</ele>
        <time>2012-07-22T07:11:58Z</time>
      </trkpt>
      <trkpt lat="46.91847" lon="-0.62034">
        <ele>144.8</ele>
        <time>2012-07-22T07:11:59Z</time>
      </trkpt>
      <trkpt lat="46.91844" lon="-0.62028">
        <ele>145.1</ele>
        <time>2012-07-22T07:12:00Z</time>
      </trkpt>
      <trkpt lat="46.9184" lon="-0.62023">
        <ele>145.3</ele>
        <time>2012-07-22T07:12:01Z</time>
      </trkpt>
      <trkpt lat="46.91837" lon="-0.62018">
        <ele>145.5</ele>
        <time>2012-07-22T07:12:02Z</time>
      </trkpt>
      <trkpt lat="46.91833" lon="-0.62013">
        <ele>145.6</ele>
        <time>2012-07-22T07:12:03Z</time>
      </trkpt>
      <trkpt lat="46.91829" lon="-0.62008">
        <ele>145.8</ele>
        <time>2012-07-22T07:12:04Z</time>
      </trkpt>
      <trkpt lat="46.91826" lon="-0.62003">
        <ele>146</ele>
        <time>2012-07-22T07:12:05Z</time>
      </trkpt>
      <trkpt lat="46.91823" lon="-0.61997">
        <ele>146.1</ele>
        <time>2012-07-22T07:12:06Z</time>
      </trkpt>
      <trkpt lat="46.9182" lon="-0.61992">
        <ele>146.1</ele>
        <time>2012-07-22T07:12:07Z</time>
      </trkpt>
      <trkpt lat="46.91817" lon="-0.61987">
        <ele>146.3</ele>
        <time>2012-07-22T07:12:08Z</time>
      </trkpt>
      <trkpt lat="46.91814" lon="-0.61981">
        <ele>146.3</ele>
        <time>2012-07-22T07:12:09Z</time>
      </trkpt>
      <trkpt lat="46.91812" lon="-0.61975">
        <ele>146.5</ele>
        <time>2012-07-22T07:12:10Z</time>
      </trkpt>
      <trkpt lat="46.9181" lon="-0.61969">
        <ele>146.5</ele>
        <time>2012-07-22T07:12:11Z</time>
      </trkpt>
      <trkpt lat="46.91808" lon="-0.61963">
        <ele>146.5</ele>
        <time>2012-07-22T07:12:12Z</time>
      </trkpt>
      <trkpt lat="46.91806" lon="-0.61957">
        <ele>146.6</ele>
        <time>2012-07-22T07:12:13Z</time>
      </trkpt>
      <trkpt lat="46.91805" lon="-0.6195">
        <ele>146.6</ele>
        <time>2012-07-22T07:12:14Z</time>
      </trkpt>
      <trkpt lat="46.91804" lon="-0.61944">
        <ele>146.6</ele>
        <time>2012-07-22T07:12:15Z</time>
      </trkpt>
      <trkpt lat="46.91803" lon="-0.61937">
        <ele>146.6</ele>
        <time>2012-07-22T07:12:16Z</time>
      </trkpt>
      <trkpt lat="46.91802" lon="-0.61931">
        <ele>146.8</ele>
        <time>2012-07-22T07:12:17Z</time>
      </trkpt>
      <trkpt lat="46.918" lon="-0.61924">
        <ele>146.8</ele>
        <time>2012-07-22T07:12:18Z</time>
      </trkpt>
      <trkpt lat="46.91799" lon="-0.61918">
        <ele>146.8</ele>
        <time>2012-07-22T07:12:19Z</time>
      </trkpt>
      <trkpt lat="46.91798" lon="-0.61911">
        <ele>146.8</ele>
        <time>2012-07-22T07:12:20Z</time>
      </trkpt>
      <trkpt lat="46.91797" lon="-0.61904">
        <ele>146.8</ele>
        <time>2012-07-22T07:12:21Z</time>
      </trkpt>
      <trkpt lat="46.91796" lon="-0.61897">
        <ele>146.6</ele>
        <time>2012-07-22T07:12:22Z</time>
      </trkpt>
      <trkpt lat="46.91794" lon="-0.6189">
        <ele>146.6</ele>
        <time>2012-07-22T07:12:23Z</time>
      </trkpt>
      <trkpt lat="46.91793" lon="-0.61883">
        <ele>146.6</ele>
        <time>2012-07-22T07:12:24Z</time>
      </trkpt>
      <trkpt lat="46.91792" lon="-0.61876">
        <ele>146.6</ele>
        <time>2012-07-22T07:12:25Z</time>
      </trkpt>
      <trkpt lat="46.9179" lon="-0.61869">
        <ele>146.6</ele>
        <time>2012-07-22T07:12:26Z</time>
      </trkpt>
      <trkpt lat="46.91789" lon="-0.61863">
        <ele>146.6</ele>
        <time>2012-07-22T07:12:27Z</time>
      </trkpt>
      <trkpt lat="46.91787" lon="-0.61856">
        <ele>146.3</ele>
        <time>2012-07-22T07:12:28Z</time>
      </trkpt>
      <trkpt lat="46.91786" lon="-0.6185">
        <ele>146.1</ele>
        <time>2012-07-22T07:12:29Z</time>
      </trkpt>
      <trkpt lat="46.91784" lon="-0.61843">
        <ele>145.8</ele>
        <time>2012-07-22T07:12:30Z</time>
      </trkpt>
      <trkpt lat="46.91783" lon="-0.61836">
        <ele>145.8</ele>
        <time>2012-07-22T07:12:31Z</time>
      </trkpt>
      <trkpt lat="46.91781" lon="-0.6183">
        <ele>145.6</ele>
        <time>2012-07-22T07:12:32Z</time>
      </trkpt>
      <trkpt lat="46.9178" lon="-0.61823">
        <ele>145.3</ele>
        <time>2012-07-22T07:12:33Z</time>
      </trkpt>
      <trkpt lat="46.91779" lon="-0.61816">
        <ele>145.1</ele>
        <time>2012-07-22T07:12:34Z</time>
      </trkpt>
      <trkpt lat="46.91777" lon="-0.61809">
        <ele>145.1</ele>
        <time>2012-07-22T07:12:35Z</time>
      </trkpt>
      <trkpt lat="46.91776" lon="-0.61803">
        <ele>145</ele>
        <time>2012-07-22T07:12:36Z</time>
      </trkpt>
      <trkpt lat="46.91776" lon="-0.61796">
        <ele>144.8</ele>
        <time>2012-07-22T07:12:37Z</time>
      </trkpt>
      <trkpt lat="46.91775" lon="-0.61789">
        <ele>144.8</ele>
        <time>2012-07-22T07:12:38Z</time>
      </trkpt>
      <trkpt lat="46.91775" lon="-0.61781">
        <ele>144.8</ele>
        <time>2012-07-22T07:12:39Z</time>
      </trkpt>
      <trkpt lat="46.91775" lon="-0.61773">
        <ele>144.6</ele>
        <time>2012-07-22T07:12:40Z</time>
      </trkpt>
      <trkpt lat="46.91775" lon="-0.61764">
        <ele>144.5</ele>
        <time>2012-07-22T07:12:41Z</time>
      </trkpt>
      <trkpt lat="46.91774" lon="-0.61755">
        <ele>144.3</ele>
        <time>2012-07-22T07:12:42Z</time>
      </trkpt>
      <trkpt lat="46.91774" lon="-0.61745">
        <ele>144.1</ele>
        <time>2012-07-22T07:12:43Z</time>
      </trkpt>
      <trkpt lat="46.91773" lon="-0.61736">
        <ele>144</ele>
        <time>2012-07-22T07:12:44Z</time>
      </trkpt>
      <trkpt lat="46.91773" lon="-0.61726">
        <ele>143.8</ele>
        <time>2012-07-22T07:12:45Z</time>
      </trkpt>
      <trkpt lat="46.91773" lon="-0.61717">
        <ele>143.6</ele>
        <time>2012-07-22T07:12:46Z</time>
      </trkpt>
      <trkpt lat="46.91772" lon="-0.61707">
        <ele>143.5</ele>
        <time>2012-07-22T07:12:47Z</time>
      </trkpt>
      <trkpt lat="46.91772" lon="-0.61696">
        <ele>143.6</ele>
        <time>2012-07-22T07:12:48Z</time>
      </trkpt>
      <trkpt lat="46.91771" lon="-0.61686">
        <ele>143.8</ele>
        <time>2012-07-22T07:12:49Z</time>
      </trkpt>
      <trkpt lat="46.9177" lon="-0.61676">
        <ele>144.1</ele>
        <time>2012-07-22T07:12:50Z</time>
      </trkpt>
      <trkpt lat="46.9177" lon="-0.61666">
        <ele>144.3</ele>
        <time>2012-07-22T07:12:51Z</time>
      </trkpt>
      <trkpt lat="46.91769" lon="-0.61656">
        <ele>144.6</ele>
        <time>2012-07-22T07:12:52Z</time>
      </trkpt>
      <trkpt lat="46.91769" lon="-0.61646">
        <ele>144.8</ele>
        <time>2012-07-22T07:12:53Z</time>
      </trkpt>
      <trkpt lat="46.91768" lon="-0.61636">
        <ele>145.1</ele>
        <time>2012-07-22T07:12:54Z</time>
      </trkpt>
      <trkpt lat="46.91768" lon="-0.61626">
        <ele>145.3</ele>
        <time>2012-07-22T07:12:55Z</time>
      </trkpt>
      <trkpt lat="46.91767" lon="-0.61616">
        <ele>145.5</ele>
        <time>2012-07-22T07:12:56Z</time>
      </trkpt>
      <trkpt lat="46.91767" lon="-0.61607">
        <ele>145.6</ele>
        <time>2012-07-22T07:12:57Z</time>
      </trkpt>
      <trkpt lat="46.91766" lon="-0.61597">
        <ele>145.6</ele>
        <time>2012-07-22T07:12:58Z</time>
      </trkpt>
      <trkpt lat="46.91766" lon="-0.61587">
        <ele>145.6</ele>
        <time>2012-07-22T07:12:59Z</time>
      </trkpt>
      <trkpt lat="46.91766" lon="-0.61577">
        <ele>145.6</ele>
        <time>2012-07-22T07:13:00Z</time>
      </trkpt>
      <trkpt lat="46.91765" lon="-0.61566">
        <ele>145.8</ele>
        <time>2012-07-22T07:13:01Z</time>
      </trkpt>
      <trkpt lat="46.91762" lon="-0.61557">
        <ele>146.1</ele>
        <time>2012-07-22T07:13:02Z</time>
      </trkpt>
      <trkpt lat="46.91758" lon="-0.61549">
        <ele>146.3</ele>
        <time>2012-07-22T07:13:03Z</time>
      </trkpt>
      <trkpt lat="46.91754" lon="-0.61541">
        <ele>146.6</ele>
        <time>2012-07-22T07:13:04Z</time>
      </trkpt>
      <trkpt lat="46.9175" lon="-0.61534">
        <ele>146.8</ele>
        <time>2012-07-22T07:13:05Z</time>
      </trkpt>
      <trkpt lat="46.91746" lon="-0.61527">
        <ele>146.8</ele>
        <time>2012-07-22T07:13:06Z</time>
      </trkpt>
      <trkpt lat="46.91742" lon="-0.6152">
        <ele>147.1</ele>
        <time>2012-07-22T07:13:07Z</time>
      </trkpt>
      <trkpt lat="46.91737" lon="-0.61513">
        <ele>147.3</ele>
        <time>2012-07-22T07:13:08Z</time>
      </trkpt>
      <trkpt lat="46.91733" lon="-0.61507">
        <ele>147.5</ele>
        <time>2012-07-22T07:13:09Z</time>
      </trkpt>
      <trkpt lat="46.91729" lon="-0.61502">
        <ele>147.6</ele>
        <time>2012-07-22T07:13:10Z</time>
      </trkpt>
      <trkpt lat="46.91725" lon="-0.61496">
        <ele>147.8</ele>
        <time>2012-07-22T07:13:11Z</time>
      </trkpt>
      <trkpt lat="46.91721" lon="-0.61491">
        <ele>147.8</ele>
        <time>2012-07-22T07:13:12Z</time>
      </trkpt>
      <trkpt lat="46.91717" lon="-0.61485">
        <ele>147.8</ele>
        <time>2012-07-22T07:13:13Z</time>
      </trkpt>
      <trkpt lat="46.91713" lon="-0.6148">
        <ele>148</ele>
        <time>2012-07-22T07:13:14Z</time>
      </trkpt>
      <trkpt lat="46.91709" lon="-0.61475">
        <ele>148</ele>
        <time>2012-07-22T07:13:15Z</time>
      </trkpt>
      <trkpt lat="46.91705" lon="-0.61469">
        <ele>148.1</ele>
        <time>2012-07-22T07:13:16Z</time>
      </trkpt>
      <trkpt lat="46.91701" lon="-0.61464">
        <ele>148.1</ele>
        <time>2012-07-22T07:13:17Z</time>
      </trkpt>
      <trkpt lat="46.91696" lon="-0.61459">
        <ele>148</ele>
        <time>2012-07-22T07:13:18Z</time>
      </trkpt>
      <trkpt lat="46.91692" lon="-0.61454">
        <ele>148</ele>
        <time>2012-07-22T07:13:19Z</time>
      </trkpt>
      <trkpt lat="46.91687" lon="-0.61449">
        <ele>148</ele>
        <time>2012-07-22T07:13:20Z</time>
      </trkpt>
      <trkpt lat="46.91682" lon="-0.61445">
        <ele>148</ele>
        <time>2012-07-22T07:13:21Z</time>
      </trkpt>
      <trkpt lat="46.91677" lon="-0.61441">
        <ele>148.1</ele>
        <time>2012-07-22T07:13:22Z</time>
      </trkpt>
      <trkpt lat="46.91671" lon="-0.61437">
        <ele>148.1</ele>
        <time>2012-07-22T07:13:23Z</time>
      </trkpt>
      <trkpt lat="46.91665" lon="-0.61433">
        <ele>148.1</ele>
        <time>2012-07-22T07:13:24Z</time>
      </trkpt>
      <trkpt lat="46.9166" lon="-0.61428">
        <ele>148</ele>
        <time>2012-07-22T07:13:25Z</time>
      </trkpt>
      <trkpt lat="46.91654" lon="-0.61422">
        <ele>147.8</ele>
        <time>2012-07-22T07:13:26Z</time>
      </trkpt>
      <trkpt lat="46.9165" lon="-0.61415">
        <ele>147.8</ele>
        <time>2012-07-22T07:13:27Z</time>
      </trkpt>
      <trkpt lat="46.91646" lon="-0.61408">
        <ele>147.6</ele>
        <time>2012-07-22T07:13:28Z</time>
      </trkpt>
      <trkpt lat="46.91641" lon="-0.61399">
        <ele>147.3</ele>
        <time>2012-07-22T07:13:29Z</time>
      </trkpt>
      <trkpt lat="46.91636" lon="-0.61391">
        <ele>147.1</ele>
        <time>2012-07-22T07:13:30Z</time>
      </trkpt>
      <trkpt lat="46.91631" lon="-0.61382">
        <ele>147</ele>
        <time>2012-07-22T07:13:31Z</time>
      </trkpt>
      <trkpt lat="46.91625" lon="-0.61374">
        <ele>146.8</ele>
        <time>2012-07-22T07:13:32Z</time>
      </trkpt>
      <trkpt lat="46.91619" lon="-0.61366">
        <ele>146.6</ele>
        <time>2012-07-22T07:13:33Z</time>
      </trkpt>
      <trkpt lat="46.91612" lon="-0.61358">
        <ele>146.3</ele>
        <time>2012-07-22T07:13:34Z</time>
      </trkpt>
      <trkpt lat="46.91606" lon="-0.6135">
        <ele>146.3</ele>
        <time>2012-07-22T07:13:35Z</time>
      </trkpt>
      <trkpt lat="46.916" lon="-0.61343">
        <ele>146.1</ele>
        <time>2012-07-22T07:13:36Z</time>
      </trkpt>
      <trkpt lat="46.91593" lon="-0.61335">
        <ele>146.1</ele>
        <time>2012-07-22T07:13:37Z</time>
      </trkpt>
      <trkpt lat="46.91587" lon="-0.61328">
        <ele>146</ele>
        <time>2012-07-22T07:13:38Z</time>
      </trkpt>
      <trkpt lat="46.91581" lon="-0.6132">
        <ele>145.8</ele>
        <time>2012-07-22T07:13:39Z</time>
      </trkpt>
      <trkpt lat="46.91576" lon="-0.61313">
        <ele>145.6</ele>
        <time>2012-07-22T07:13:40Z</time>
      </trkpt>
      <trkpt lat="46.91572" lon="-0.61308">
        <ele>145.6</ele>
        <time>2012-07-22T07:13:41Z</time>
      </trkpt>
      <trkpt lat="46.91568" lon="-0.61302">
        <ele>145.3</ele>
        <time>2012-07-22T07:13:42Z</time>
      </trkpt>
      <trkpt lat="46.91565" lon="-0.61291">
        <ele>144.8</ele>
        <time>2012-07-22T07:13:44Z</time>
      </trkpt>
      <trkpt lat="46.91564" lon="-0.61285">
        <ele>144.6</ele>
        <time>2012-07-22T07:13:45Z</time>
      </trkpt>
      <trkpt lat="46.91564" lon="-0.61278">
        <ele>144.3</ele>
        <time>2012-07-22T07:13:46Z</time>
      </trkpt>
      <trkpt lat="46.91563" lon="-0.6127">
        <ele>144.1</ele>
        <time>2012-07-22T07:13:47Z</time>
      </trkpt>
      <trkpt lat="46.91562" lon="-0.61262">
        <ele>143.8</ele>
        <time>2012-07-22T07:13:48Z</time>
      </trkpt>
      <trkpt lat="46.91559" lon="-0.61255">
        <ele>143.5</ele>
        <time>2012-07-22T07:13:49Z</time>
      </trkpt>
      <trkpt lat="46.91555" lon="-0.61248">
        <ele>143.3</ele>
        <time>2012-07-22T07:13:50Z</time>
      </trkpt>
      <trkpt lat="46.91551" lon="-0.61242">
        <ele>143.1</ele>
        <time>2012-07-22T07:13:51Z</time>
      </trkpt>
      <trkpt lat="46.91546" lon="-0.61237">
        <ele>143.1</ele>
        <time>2012-07-22T07:13:52Z</time>
      </trkpt>
      <trkpt lat="46.9154" lon="-0.61234">
        <ele>143</ele>
        <time>2012-07-22T07:13:53Z</time>
      </trkpt>
      <trkpt lat="46.91535" lon="-0.61231">
        <ele>142.8</ele>
        <time>2012-07-22T07:13:54Z</time>
      </trkpt>
      <trkpt lat="46.91529" lon="-0.61227">
        <ele>142.8</ele>
        <time>2012-07-22T07:13:55Z</time>
      </trkpt>
      <trkpt lat="46.91523" lon="-0.61223">
        <ele>142.6</ele>
        <time>2012-07-22T07:13:56Z</time>
      </trkpt>
      <trkpt lat="46.91518" lon="-0.61217">
        <ele>142.6</ele>
        <time>2012-07-22T07:13:57Z</time>
      </trkpt>
      <trkpt lat="46.91513" lon="-0.6121">
        <ele>142.3</ele>
        <time>2012-07-22T07:13:58Z</time>
      </trkpt>
      <trkpt lat="46.91508" lon="-0.61203">
        <ele>142.1</ele>
        <time>2012-07-22T07:13:59Z</time>
      </trkpt>
      <trkpt lat="46.91502" lon="-0.61196">
        <ele>142</ele>
        <time>2012-07-22T07:14:00Z</time>
      </trkpt>
      <trkpt lat="46.91496" lon="-0.61189">
        <ele>141.6</ele>
        <time>2012-07-22T07:14:01Z</time>
      </trkpt>
      <trkpt lat="46.9149" lon="-0.61182">
        <ele>141.5</ele>
        <time>2012-07-22T07:14:02Z</time>
      </trkpt>
      <trkpt lat="46.91483" lon="-0.61174">
        <ele>141.3</ele>
        <time>2012-07-22T07:14:03Z</time>
      </trkpt>
      <trkpt lat="46.91476" lon="-0.61167">
        <ele>141.1</ele>
        <time>2012-07-22T07:14:04Z</time>
      </trkpt>
      <trkpt lat="46.91468" lon="-0.61158">
        <ele>140.8</ele>
        <time>2012-07-22T07:14:05Z</time>
      </trkpt>
      <trkpt lat="46.9146" lon="-0.61149">
        <ele>140.5</ele>
        <time>2012-07-22T07:14:06Z</time>
      </trkpt>
      <trkpt lat="46.91451" lon="-0.61141">
        <ele>140.1</ele>
        <time>2012-07-22T07:14:07Z</time>
      </trkpt>
      <trkpt lat="46.91441" lon="-0.61131">
        <ele>139.8</ele>
        <time>2012-07-22T07:14:08Z</time>
      </trkpt>
      <trkpt lat="46.91432" lon="-0.61121">
        <ele>139.6</ele>
        <time>2012-07-22T07:14:09Z</time>
      </trkpt>
      <trkpt lat="46.91422" lon="-0.61112">
        <ele>139.3</ele>
        <time>2012-07-22T07:14:10Z</time>
      </trkpt>
      <trkpt lat="46.91413" lon="-0.61102">
        <ele>139.1</ele>
        <time>2012-07-22T07:14:11Z</time>
      </trkpt>
      <trkpt lat="46.91403" lon="-0.61092">
        <ele>139</ele>
        <time>2012-07-22T07:14:12Z</time>
      </trkpt>
      <trkpt lat="46.91394" lon="-0.61082">
        <ele>138.8</ele>
        <time>2012-07-22T07:14:13Z</time>
      </trkpt>
      <trkpt lat="46.91385" lon="-0.61073">
        <ele>138.6</ele>
        <time>2012-07-22T07:14:14Z</time>
      </trkpt>
      <trkpt lat="46.91377" lon="-0.61063">
        <ele>138.5</ele>
        <time>2012-07-22T07:14:15Z</time>
      </trkpt>
      <trkpt lat="46.91369" lon="-0.61054">
        <ele>138.3</ele>
        <time>2012-07-22T07:14:16Z</time>
      </trkpt>
      <trkpt lat="46.91361" lon="-0.61044">
        <ele>138.1</ele>
        <time>2012-07-22T07:14:17Z</time>
      </trkpt>
      <trkpt lat="46.91354" lon="-0.61035">
        <ele>137.8</ele>
        <time>2012-07-22T07:14:18Z</time>
      </trkpt>
      <trkpt lat="46.91348" lon="-0.61026">
        <ele>137.6</ele>
        <time>2012-07-22T07:14:19Z</time>
      </trkpt>
      <trkpt lat="46.91342" lon="-0.61017">
        <ele>137.3</ele>
        <time>2012-07-22T07:14:20Z</time>
      </trkpt>
      <trkpt lat="46.91337" lon="-0.61009">
        <ele>137.1</ele>
        <time>2012-07-22T07:14:21Z</time>
      </trkpt>
      <trkpt lat="46.91331" lon="-0.61002">
        <ele>136.8</ele>
        <time>2012-07-22T07:14:22Z</time>
      </trkpt>
      <trkpt lat="46.91327" lon="-0.60995">
        <ele>136.6</ele>
        <time>2012-07-22T07:14:23Z</time>
      </trkpt>
      <trkpt lat="46.91322" lon="-0.60989">
        <ele>136.5</ele>
        <time>2012-07-22T07:14:24Z</time>
      </trkpt>
      <trkpt lat="46.91318" lon="-0.60982">
        <ele>136.3</ele>
        <time>2012-07-22T07:14:25Z</time>
      </trkpt>
      <trkpt lat="46.91313" lon="-0.60976">
        <ele>136.3</ele>
        <time>2012-07-22T07:14:26Z</time>
      </trkpt>
      <trkpt lat="46.91308" lon="-0.6097">
        <ele>136.1</ele>
        <time>2012-07-22T07:14:27Z</time>
      </trkpt>
      <trkpt lat="46.91303" lon="-0.60964">
        <ele>136.1</ele>
        <time>2012-07-22T07:14:28Z</time>
      </trkpt>
      <trkpt lat="46.91298" lon="-0.60958">
        <ele>136.1</ele>
        <time>2012-07-22T07:14:29Z</time>
      </trkpt>
      <trkpt lat="46.91293" lon="-0.60952">
        <ele>136</ele>
        <time>2012-07-22T07:14:30Z</time>
      </trkpt>
      <trkpt lat="46.91288" lon="-0.60946">
        <ele>135.8</ele>
        <time>2012-07-22T07:14:31Z</time>
      </trkpt>
      <trkpt lat="46.91284" lon="-0.6094">
        <ele>135.8</ele>
        <time>2012-07-22T07:14:32Z</time>
      </trkpt>
      <trkpt lat="46.9128" lon="-0.60935">
        <ele>135.8</ele>
        <time>2012-07-22T07:14:33Z</time>
      </trkpt>
      <trkpt lat="46.91276" lon="-0.6093">
        <ele>135.8</ele>
        <time>2012-07-22T07:14:34Z</time>
      </trkpt>
      <trkpt lat="46.91272" lon="-0.60925">
        <ele>135.8</ele>
        <time>2012-07-22T07:14:35Z</time>
      </trkpt>
      <trkpt lat="46.91268" lon="-0.6092">
        <ele>135.8</ele>
        <time>2012-07-22T07:14:36Z</time>
      </trkpt>
      <trkpt lat="46.91265" lon="-0.60915">
        <ele>135.8</ele>
        <time>2012-07-22T07:14:37Z</time>
      </trkpt>
      <trkpt lat="46.91261" lon="-0.6091">
        <ele>135.8</ele>
        <time>2012-07-22T07:14:38Z</time>
      </trkpt>
      <trkpt lat="46.91257" lon="-0.60905">
        <ele>135.8</ele>
        <time>2012-07-22T07:14:39Z</time>
      </trkpt>
      <trkpt lat="46.91254" lon="-0.609">
        <ele>135.6</ele>
        <time>2012-07-22T07:14:40Z</time>
      </trkpt>
      <trkpt lat="46.9125" lon="-0.60895">
        <ele>135.6</ele>
        <time>2012-07-22T07:14:41Z</time>
      </trkpt>
      <trkpt lat="46.91246" lon="-0.6089">
        <ele>135.8</ele>
        <time>2012-07-22T07:14:42Z</time>
      </trkpt>
      <trkpt lat="46.91242" lon="-0.60885">
        <ele>135.8</ele>
        <time>2012-07-22T07:14:43Z</time>
      </trkpt>
      <trkpt lat="46.91239" lon="-0.6088">
        <ele>135.8</ele>
        <time>2012-07-22T07:14:44Z</time>
      </trkpt>
      <trkpt lat="46.91235" lon="-0.60875">
        <ele>136</ele>
        <time>2012-07-22T07:14:45Z</time>
      </trkpt>
      <trkpt lat="46.91232" lon="-0.6087">
        <ele>136.1</ele>
        <time>2012-07-22T07:14:46Z</time>
      </trkpt>
      <trkpt lat="46.91228" lon="-0.60866">
        <ele>136.1</ele>
        <time>2012-07-22T07:14:47Z</time>
      </trkpt>
      <trkpt lat="46.91225" lon="-0.60861">
        <ele>136.3</ele>
        <time>2012-07-22T07:14:48Z</time>
      </trkpt>
      <trkpt lat="46.91222" lon="-0.60856">
        <ele>136.3</ele>
        <time>2012-07-22T07:14:49Z</time>
      </trkpt>
      <trkpt lat="46.91216" lon="-0.60847">
        <ele>136.6</ele>
        <time>2012-07-22T07:14:51Z</time>
      </trkpt>
      <trkpt lat="46.9121" lon="-0.60839">
        <ele>136.6</ele>
        <time>2012-07-22T07:14:53Z</time>
      </trkpt>
      <trkpt lat="46.91206" lon="-0.60832">
        <ele>136.6</ele>
        <time>2012-07-22T07:14:55Z</time>
      </trkpt>
      <trkpt lat="46.91201" lon="-0.60824">
        <ele>136.6</ele>
        <time>2012-07-22T07:14:57Z</time>
      </trkpt>
      <trkpt lat="46.91197" lon="-0.60816">
        <ele>136.8</ele>
        <time>2012-07-22T07:14:59Z</time>
      </trkpt>
      <trkpt lat="46.91193" lon="-0.60808">
        <ele>136.8</ele>
        <time>2012-07-22T07:15:01Z</time>
      </trkpt>
      <trkpt lat="46.91189" lon="-0.60799">
        <ele>136.8</ele>
        <time>2012-07-22T07:15:03Z</time>
      </trkpt>
      <trkpt lat="46.91184" lon="-0.6079">
        <ele>137</ele>
        <time>2012-07-22T07:15:05Z</time>
      </trkpt>
      <trkpt lat="46.91179" lon="-0.6078">
        <ele>137.6</ele>
        <time>2012-07-22T07:15:07Z</time>
      </trkpt>
      <trkpt lat="46.91174" lon="-0.6077">
        <ele>138.1</ele>
        <time>2012-07-22T07:15:09Z</time>
      </trkpt>
      <trkpt lat="46.91172" lon="-0.60765">
        <ele>138.3</ele>
        <time>2012-07-22T07:15:10Z</time>
      </trkpt>
      <trkpt lat="46.91169" lon="-0.6076">
        <ele>138.6</ele>
        <time>2012-07-22T07:15:11Z</time>
      </trkpt>
      <trkpt lat="46.91166" lon="-0.60754">
        <ele>138.6</ele>
        <time>2012-07-22T07:15:12Z</time>
      </trkpt>
      <trkpt lat="46.91163" lon="-0.60748">
        <ele>138.8</ele>
        <time>2012-07-22T07:15:13Z</time>
      </trkpt>
      <trkpt lat="46.9116" lon="-0.60742">
        <ele>139</ele>
        <time>2012-07-22T07:15:14Z</time>
      </trkpt>
      <trkpt lat="46.91158" lon="-0.60737">
        <ele>139.1</ele>
        <time>2012-07-22T07:15:15Z</time>
      </trkpt>
      <trkpt lat="46.91155" lon="-0.60731">
        <ele>139.1</ele>
        <time>2012-07-22T07:15:16Z</time>
      </trkpt>
      <trkpt lat="46.91152" lon="-0.60725">
        <ele>139.1</ele>
        <time>2012-07-22T07:15:17Z</time>
      </trkpt>
      <trkpt lat="46.9115" lon="-0.6072">
        <ele>139.1</ele>
        <time>2012-07-22T07:15:18Z</time>
      </trkpt>
      <trkpt lat="46.91147" lon="-0.60714">
        <ele>139.3</ele>
        <time>2012-07-22T07:15:19Z</time>
      </trkpt>
      <trkpt lat="46.91145" lon="-0.60708">
        <ele>139.3</ele>
        <time>2012-07-22T07:15:20Z</time>
      </trkpt>
      <trkpt lat="46.91142" lon="-0.60702">
        <ele>139.3</ele>
        <time>2012-07-22T07:15:21Z</time>
      </trkpt>
      <trkpt lat="46.9114" lon="-0.60696">
        <ele>139.5</ele>
        <time>2012-07-22T07:15:22Z</time>
      </trkpt>
      <trkpt lat="46.91137" lon="-0.60689">
        <ele>139.5</ele>
        <time>2012-07-22T07:15:23Z</time>
      </trkpt>
      <trkpt lat="46.91135" lon="-0.60682">
        <ele>139.5</ele>
        <time>2012-07-22T07:15:24Z</time>
      </trkpt>
      <trkpt lat="46.91133" lon="-0.60675">
        <ele>139.5</ele>
        <time>2012-07-22T07:15:25Z</time>
      </trkpt>
      <trkpt lat="46.91132" lon="-0.60668">
        <ele>139.5</ele>
        <time>2012-07-22T07:15:26Z</time>
      </trkpt>
      <trkpt lat="46.9113" lon="-0.60661">
        <ele>139.5</ele>
        <time>2012-07-22T07:15:27Z</time>
      </trkpt>
      <trkpt lat="46.91128" lon="-0.60654">
        <ele>139.5</ele>
        <time>2012-07-22T07:15:28Z</time>
      </trkpt>
      <trkpt lat="46.91126" lon="-0.60647">
        <ele>139.5</ele>
        <time>2012-07-22T07:15:29Z</time>
      </trkpt>
      <trkpt lat="46.91124" lon="-0.6064">
        <ele>139.5</ele>
        <time>2012-07-22T07:15:30Z</time>
      </trkpt>
      <trkpt lat="46.91123" lon="-0.60633">
        <ele>139.5</ele>
        <time>2012-07-22T07:15:31Z</time>
      </trkpt>
      <trkpt lat="46.9112" lon="-0.60626">
        <ele>139.5</ele>
        <time>2012-07-22T07:15:32Z</time>
      </trkpt>
      <trkpt lat="46.91118" lon="-0.60618">
        <ele>139.5</ele>
        <time>2012-07-22T07:15:33Z</time>
      </trkpt>
      <trkpt lat="46.91116" lon="-0.60611">
        <ele>139.5</ele>
        <time>2012-07-22T07:15:34Z</time>
      </trkpt>
      <trkpt lat="46.91114" lon="-0.60603">
        <ele>139.6</ele>
        <time>2012-07-22T07:15:35Z</time>
      </trkpt>
      <trkpt lat="46.91112" lon="-0.60596">
        <ele>139.6</ele>
        <time>2012-07-22T07:15:36Z</time>
      </trkpt>
      <trkpt lat="46.9111" lon="-0.60588">
        <ele>139.8</ele>
        <time>2012-07-22T07:15:37Z</time>
      </trkpt>
      <trkpt lat="46.91108" lon="-0.60581">
        <ele>139.8</ele>
        <time>2012-07-22T07:15:38Z</time>
      </trkpt>
      <trkpt lat="46.91106" lon="-0.60573">
        <ele>140</ele>
        <time>2012-07-22T07:15:39Z</time>
      </trkpt>
      <trkpt lat="46.91105" lon="-0.60566">
        <ele>140.1</ele>
        <time>2012-07-22T07:15:40Z</time>
      </trkpt>
      <trkpt lat="46.91103" lon="-0.60558">
        <ele>140.3</ele>
        <time>2012-07-22T07:15:41Z</time>
      </trkpt>
      <trkpt lat="46.91103" lon="-0.6055">
        <ele>140.3</ele>
        <time>2012-07-22T07:15:42Z</time>
      </trkpt>
      <trkpt lat="46.91102" lon="-0.60542">
        <ele>140.6</ele>
        <time>2012-07-22T07:15:43Z</time>
      </trkpt>
      <trkpt lat="46.91101" lon="-0.60533">
        <ele>140.6</ele>
        <time>2012-07-22T07:15:44Z</time>
      </trkpt>
      <trkpt lat="46.911" lon="-0.60525">
        <ele>140.8</ele>
        <time>2012-07-22T07:15:45Z</time>
      </trkpt>
      <trkpt lat="46.91099" lon="-0.60516">
        <ele>140.8</ele>
        <time>2012-07-22T07:15:46Z</time>
      </trkpt>
      <trkpt lat="46.91098" lon="-0.60507">
        <ele>140.8</ele>
        <time>2012-07-22T07:15:47Z</time>
      </trkpt>
      <trkpt lat="46.91097" lon="-0.60499">
        <ele>141</ele>
        <time>2012-07-22T07:15:48Z</time>
      </trkpt>
      <trkpt lat="46.91094" lon="-0.60491">
        <ele>141.1</ele>
        <time>2012-07-22T07:15:49Z</time>
      </trkpt>
      <trkpt lat="46.91092" lon="-0.60483">
        <ele>141.3</ele>
        <time>2012-07-22T07:15:50Z</time>
      </trkpt>
      <trkpt lat="46.91089" lon="-0.60476">
        <ele>141.3</ele>
        <time>2012-07-22T07:15:51Z</time>
      </trkpt>
      <trkpt lat="46.91086" lon="-0.60469">
        <ele>141.5</ele>
        <time>2012-07-22T07:15:52Z</time>
      </trkpt>
      <trkpt lat="46.91083" lon="-0.60464">
        <ele>141.6</ele>
        <time>2012-07-22T07:15:53Z</time>
      </trkpt>
      <trkpt lat="46.91078" lon="-0.60455">
        <ele>141.8</ele>
        <time>2012-07-22T07:15:55Z</time>
      </trkpt>
      <trkpt lat="46.91072" lon="-0.60449">
        <ele>141.8</ele>
        <time>2012-07-22T07:15:57Z</time>
      </trkpt>
      <trkpt lat="46.91064" lon="-0.60442">
        <ele>141.8</ele>
        <time>2012-07-22T07:16:00Z</time>
      </trkpt>
      <trkpt lat="46.91057" lon="-0.60442">
        <ele>141.8</ele>
        <time>2012-07-22T07:16:03Z</time>
      </trkpt>
      <trkpt lat="46.9105" lon="-0.60438">
        <ele>141.8</ele>
        <time>2012-07-22T07:16:06Z</time>
      </trkpt>
      <trkpt lat="46.91043" lon="-0.60439">
        <ele>142</ele>
        <time>2012-07-22T07:16:10Z</time>
      </trkpt>
      <trkpt lat="46.91034" lon="-0.60441">
        <ele>142</ele>
        <time>2012-07-22T07:16:13Z</time>
      </trkpt>
      <trkpt lat="46.91027" lon="-0.60441">
        <ele>142</ele>
        <time>2012-07-22T07:16:15Z</time>
      </trkpt>
      <trkpt lat="46.9102" lon="-0.60441">
        <ele>142</ele>
        <time>2012-07-22T07:16:17Z</time>
      </trkpt>
      <trkpt lat="46.91013" lon="-0.60441">
        <ele>142</ele>
        <time>2012-07-22T07:16:19Z</time>
      </trkpt>
      <trkpt lat="46.9101" lon="-0.6044">
        <ele>142</ele>
        <time>2012-07-22T07:16:20Z</time>
      </trkpt>
      <trkpt lat="46.90999" lon="-0.60438">
        <ele>141.8</ele>
        <time>2012-07-22T07:16:23Z</time>
      </trkpt>
      <trkpt lat="46.90991" lon="-0.60435">
        <ele>141.8</ele>
        <time>2012-07-22T07:16:25Z</time>
      </trkpt>
      <trkpt lat="46.90983" lon="-0.60433">
        <ele>142</ele>
        <time>2012-07-22T07:16:27Z</time>
      </trkpt>
      <trkpt lat="46.90975" lon="-0.60431">
        <ele>142.1</ele>
        <time>2012-07-22T07:16:29Z</time>
      </trkpt>
      <trkpt lat="46.90967" lon="-0.60429">
        <ele>142.3</ele>
        <time>2012-07-22T07:16:31Z</time>
      </trkpt>
      <trkpt lat="46.90959" lon="-0.60427">
        <ele>142.6</ele>
        <time>2012-07-22T07:16:33Z</time>
      </trkpt>
      <trkpt lat="46.90951" lon="-0.60426">
        <ele>142.8</ele>
        <time>2012-07-22T07:16:35Z</time>
      </trkpt>
      <trkpt lat="46.90942" lon="-0.60425">
        <ele>143.3</ele>
        <time>2012-07-22T07:16:37Z</time>
      </trkpt>
      <trkpt lat="46.90934" lon="-0.60425">
        <ele>143.6</ele>
        <time>2012-07-22T07:16:39Z</time>
      </trkpt>
      <trkpt lat="46.90925" lon="-0.60423">
        <ele>143.8</ele>
        <time>2012-07-22T07:16:41Z</time>
      </trkpt>
      <trkpt lat="46.90917" lon="-0.60422">
        <ele>144.1</ele>
        <time>2012-07-22T07:16:43Z</time>
      </trkpt>
      <trkpt lat="46.90909" lon="-0.60419">
        <ele>144.6</ele>
        <time>2012-07-22T07:16:45Z</time>
      </trkpt>
      <trkpt lat="46.90904" lon="-0.60413">
        <ele>144.6</ele>
        <time>2012-07-22T07:16:47Z</time>
      </trkpt>
      <trkpt lat="46.90902" lon="-0.60405">
        <ele>144.8</ele>
        <time>2012-07-22T07:16:49Z</time>
      </trkpt>
      <trkpt lat="46.90902" lon="-0.60395">
        <ele>145.6</ele>
        <time>2012-07-22T07:16:51Z</time>
      </trkpt>
      <trkpt lat="46.909" lon="-0.60383">
        <ele>146.6</ele>
        <time>2012-07-22T07:16:53Z</time>
      </trkpt>
      <trkpt lat="46.90898" lon="-0.60371">
        <ele>147.5</ele>
        <time>2012-07-22T07:16:55Z</time>
      </trkpt>
      <trkpt lat="46.90897" lon="-0.6036">
        <ele>148.1</ele>
        <time>2012-07-22T07:16:57Z</time>
      </trkpt>
      <trkpt lat="46.90897" lon="-0.60353">
        <ele>148.5</ele>
        <time>2012-07-22T07:16:58Z</time>
      </trkpt>
      <trkpt lat="46.90896" lon="-0.60346">
        <ele>148.8</ele>
        <time>2012-07-22T07:16:59Z</time>
      </trkpt>
      <trkpt lat="46.90895" lon="-0.60339">
        <ele>149.1</ele>
        <time>2012-07-22T07:17:00Z</time>
      </trkpt>
      <trkpt lat="46.90895" lon="-0.60331">
        <ele>149.3</ele>
        <time>2012-07-22T07:17:01Z</time>
      </trkpt>
      <trkpt lat="46.90894" lon="-0.60322">
        <ele>149.3</ele>
        <time>2012-07-22T07:17:02Z</time>
      </trkpt>
      <trkpt lat="46.90894" lon="-0.60312">
        <ele>149.5</ele>
        <time>2012-07-22T07:17:03Z</time>
      </trkpt>
      <trkpt lat="46.90892" lon="-0.60303">
        <ele>149.6</ele>
        <time>2012-07-22T07:17:04Z</time>
      </trkpt>
      <trkpt lat="46.90891" lon="-0.60293">
        <ele>149.5</ele>
        <time>2012-07-22T07:17:05Z</time>
      </trkpt>
      <trkpt lat="46.90889" lon="-0.60283">
        <ele>149.3</ele>
        <time>2012-07-22T07:17:06Z</time>
      </trkpt>
      <trkpt lat="46.90888" lon="-0.60273">
        <ele>149.3</ele>
        <time>2012-07-22T07:17:07Z</time>
      </trkpt>
      <trkpt lat="46.90886" lon="-0.60263">
        <ele>149.3</ele>
        <time>2012-07-22T07:17:08Z</time>
      </trkpt>
      <trkpt lat="46.90884" lon="-0.60252">
        <ele>149.3</ele>
        <time>2012-07-22T07:17:09Z</time>
      </trkpt>
      <trkpt lat="46.90882" lon="-0.60241">
        <ele>149.1</ele>
        <time>2012-07-22T07:17:10Z</time>
      </trkpt>
      <trkpt lat="46.9088" lon="-0.6023">
        <ele>149.1</ele>
        <time>2012-07-22T07:17:11Z</time>
      </trkpt>
      <trkpt lat="46.90878" lon="-0.60219">
        <ele>149.1</ele>
        <time>2012-07-22T07:17:12Z</time>
      </trkpt>
      <trkpt lat="46.90876" lon="-0.60207">
        <ele>148.8</ele>
        <time>2012-07-22T07:17:13Z</time>
      </trkpt>
      <trkpt lat="46.90874" lon="-0.60196">
        <ele>148.6</ele>
        <time>2012-07-22T07:17:14Z</time>
      </trkpt>
      <trkpt lat="46.90871" lon="-0.60185">
        <ele>148.5</ele>
        <time>2012-07-22T07:17:15Z</time>
      </trkpt>
      <trkpt lat="46.90869" lon="-0.60175">
        <ele>148.1</ele>
        <time>2012-07-22T07:17:16Z</time>
      </trkpt>
      <trkpt lat="46.90867" lon="-0.60164">
        <ele>147.8</ele>
        <time>2012-07-22T07:17:17Z</time>
      </trkpt>
      <trkpt lat="46.90865" lon="-0.60152">
        <ele>147.5</ele>
        <time>2012-07-22T07:17:18Z</time>
      </trkpt>
      <trkpt lat="46.90863" lon="-0.60139">
        <ele>147.1</ele>
        <time>2012-07-22T07:17:19Z</time>
      </trkpt>
      <trkpt lat="46.90861" lon="-0.60126">
        <ele>146.8</ele>
        <time>2012-07-22T07:17:20Z</time>
      </trkpt>
      <trkpt lat="46.90858" lon="-0.60113">
        <ele>146.5</ele>
        <time>2012-07-22T07:17:21Z</time>
      </trkpt>
      <trkpt lat="46.90855" lon="-0.601">
        <ele>146.3</ele>
        <time>2012-07-22T07:17:22Z</time>
      </trkpt>
      <trkpt lat="46.90852" lon="-0.6009">
        <ele>146.1</ele>
        <time>2012-07-22T07:17:23Z</time>
      </trkpt>
      <trkpt lat="46.9085" lon="-0.60081">
        <ele>146.1</ele>
        <time>2012-07-22T07:17:24Z</time>
      </trkpt>
      <trkpt lat="46.90846" lon="-0.60075">
        <ele>146.1</ele>
        <time>2012-07-22T07:17:25Z</time>
      </trkpt>
      <trkpt lat="46.90842" lon="-0.60069">
        <ele>146.1</ele>
        <time>2012-07-22T07:17:26Z</time>
      </trkpt>
      <trkpt lat="46.90839" lon="-0.60063">
        <ele>146.3</ele>
        <time>2012-07-22T07:17:27Z</time>
      </trkpt>
      <trkpt lat="46.90836" lon="-0.60057">
        <ele>146.3</ele>
        <time>2012-07-22T07:17:28Z</time>
      </trkpt>
      <trkpt lat="46.90833" lon="-0.60051">
        <ele>146.1</ele>
        <time>2012-07-22T07:17:29Z</time>
      </trkpt>
      <trkpt lat="46.90831" lon="-0.60045">
        <ele>146.1</ele>
        <time>2012-07-22T07:17:30Z</time>
      </trkpt>
      <trkpt lat="46.90828" lon="-0.6004">
        <ele>145.8</ele>
        <time>2012-07-22T07:17:31Z</time>
      </trkpt>
      <trkpt lat="46.90826" lon="-0.60034">
        <ele>145.6</ele>
        <time>2012-07-22T07:17:32Z</time>
      </trkpt>
      <trkpt lat="46.90823" lon="-0.60028">
        <ele>145.5</ele>
        <time>2012-07-22T07:17:33Z</time>
      </trkpt>
      <trkpt lat="46.9082" lon="-0.60023">
        <ele>145.3</ele>
        <time>2012-07-22T07:17:34Z</time>
      </trkpt>
      <trkpt lat="46.90817" lon="-0.60017">
        <ele>145.1</ele>
        <time>2012-07-22T07:17:35Z</time>
      </trkpt>
      <trkpt lat="46.90814" lon="-0.60012">
        <ele>145.1</ele>
        <time>2012-07-22T07:17:36Z</time>
      </trkpt>
      <trkpt lat="46.90811" lon="-0.60007">
        <ele>145.1</ele>
        <time>2012-07-22T07:17:37Z</time>
      </trkpt>
      <trkpt lat="46.90808" lon="-0.60002">
        <ele>145</ele>
        <time>2012-07-22T07:17:38Z</time>
      </trkpt>
      <trkpt lat="46.90804" lon="-0.59998">
        <ele>144.8</ele>
        <time>2012-07-22T07:17:39Z</time>
      </trkpt>
      <trkpt lat="46.90801" lon="-0.59993">
        <ele>144.8</ele>
        <time>2012-07-22T07:17:40Z</time>
      </trkpt>
      <trkpt lat="46.90795" lon="-0.59984">
        <ele>144.6</ele>
        <time>2012-07-22T07:17:42Z</time>
      </trkpt>
      <trkpt lat="46.90789" lon="-0.59976">
        <ele>144.3</ele>
        <time>2012-07-22T07:17:44Z</time>
      </trkpt>
      <trkpt lat="46.90782" lon="-0.59968">
        <ele>144.3</ele>
        <time>2012-07-22T07:17:46Z</time>
      </trkpt>
      <trkpt lat="46.90777" lon="-0.5996">
        <ele>144.3</ele>
        <time>2012-07-22T07:17:48Z</time>
      </trkpt>
      <trkpt lat="46.90771" lon="-0.59952">
        <ele>144.3</ele>
        <time>2012-07-22T07:17:50Z</time>
      </trkpt>
      <trkpt lat="46.90766" lon="-0.59944">
        <ele>144.3</ele>
        <time>2012-07-22T07:17:52Z</time>
      </trkpt>
      <trkpt lat="46.9076" lon="-0.59936">
        <ele>144.3</ele>
        <time>2012-07-22T07:17:54Z</time>
      </trkpt>
      <trkpt lat="46.90755" lon="-0.59929">
        <ele>144.5</ele>
        <time>2012-07-22T07:17:56Z</time>
      </trkpt>
      <trkpt lat="46.90749" lon="-0.59921">
        <ele>144.5</ele>
        <time>2012-07-22T07:17:58Z</time>
      </trkpt>
      <trkpt lat="46.90744" lon="-0.59914">
        <ele>144.6</ele>
        <time>2012-07-22T07:18:00Z</time>
      </trkpt>
      <trkpt lat="46.90738" lon="-0.59907">
        <ele>144.6</ele>
        <time>2012-07-22T07:18:02Z</time>
      </trkpt>
      <trkpt lat="46.90733" lon="-0.59899">
        <ele>144.6</ele>
        <time>2012-07-22T07:18:04Z</time>
      </trkpt>
      <trkpt lat="46.90728" lon="-0.59892">
        <ele>144.8</ele>
        <time>2012-07-22T07:18:06Z</time>
      </trkpt>
      <trkpt lat="46.90723" lon="-0.59884">
        <ele>144.8</ele>
        <time>2012-07-22T07:18:08Z</time>
      </trkpt>
      <trkpt lat="46.90717" lon="-0.59877">
        <ele>144.8</ele>
        <time>2012-07-22T07:18:10Z</time>
      </trkpt>
      <trkpt lat="46.90712" lon="-0.5987">
        <ele>145</ele>
        <time>2012-07-22T07:18:12Z</time>
      </trkpt>
      <trkpt lat="46.90706" lon="-0.59863">
        <ele>145.1</ele>
        <time>2012-07-22T07:18:14Z</time>
      </trkpt>
      <trkpt lat="46.90699" lon="-0.59856">
        <ele>145.6</ele>
        <time>2012-07-22T07:18:16Z</time>
      </trkpt>
      <trkpt lat="46.90693" lon="-0.5985">
        <ele>146.6</ele>
        <time>2012-07-22T07:18:18Z</time>
      </trkpt>
      <trkpt lat="46.90686" lon="-0.59844">
        <ele>147.5</ele>
        <time>2012-07-22T07:18:20Z</time>
      </trkpt>
      <trkpt lat="46.90679" lon="-0.59837">
        <ele>148.3</ele>
        <time>2012-07-22T07:18:22Z</time>
      </trkpt>
      <trkpt lat="46.90676" lon="-0.59834">
        <ele>148.8</ele>
        <time>2012-07-22T07:18:23Z</time>
      </trkpt>
      <trkpt lat="46.90666" lon="-0.59824">
        <ele>149.5</ele>
        <time>2012-07-22T07:18:26Z</time>
      </trkpt>
      <trkpt lat="46.9066" lon="-0.59817">
        <ele>150.1</ele>
        <time>2012-07-22T07:18:28Z</time>
      </trkpt>
      <trkpt lat="46.90654" lon="-0.59809">
        <ele>150.6</ele>
        <time>2012-07-22T07:18:30Z</time>
      </trkpt>
      <trkpt lat="46.90647" lon="-0.59802">
        <ele>150.8</ele>
        <time>2012-07-22T07:18:32Z</time>
      </trkpt>
      <trkpt lat="46.90641" lon="-0.59795">
        <ele>151</ele>
        <time>2012-07-22T07:18:34Z</time>
      </trkpt>
      <trkpt lat="46.90635" lon="-0.59787">
        <ele>151</ele>
        <time>2012-07-22T07:18:36Z</time>
      </trkpt>
      <trkpt lat="46.9063" lon="-0.5978">
        <ele>151.1</ele>
        <time>2012-07-22T07:18:38Z</time>
      </trkpt>
      <trkpt lat="46.90624" lon="-0.59774">
        <ele>151.1</ele>
        <time>2012-07-22T07:18:40Z</time>
      </trkpt>
      <trkpt lat="46.90619" lon="-0.59767">
        <ele>151.3</ele>
        <time>2012-07-22T07:18:42Z</time>
      </trkpt>
      <trkpt lat="46.90615" lon="-0.5976">
        <ele>151.3</ele>
        <time>2012-07-22T07:18:44Z</time>
      </trkpt>
      <trkpt lat="46.9061" lon="-0.59751">
        <ele>151.6</ele>
        <time>2012-07-22T07:18:47Z</time>
      </trkpt>
      <trkpt lat="46.90605" lon="-0.59742">
        <ele>151.8</ele>
        <time>2012-07-22T07:18:50Z</time>
      </trkpt>
      <trkpt lat="46.90599" lon="-0.59734">
        <ele>152.1</ele>
        <time>2012-07-22T07:18:53Z</time>
      </trkpt>
      <trkpt lat="46.90599" lon="-0.59723">
        <ele>152.6</ele>
        <time>2012-07-22T07:18:58Z</time>
      </trkpt>
      <trkpt lat="46.90603" lon="-0.59714">
        <ele>153</ele>
        <time>2012-07-22T07:19:01Z</time>
      </trkpt>
      <trkpt lat="46.90605" lon="-0.59706">
        <ele>153.1</ele>
        <time>2012-07-22T07:19:03Z</time>
      </trkpt>
      <trkpt lat="46.90608" lon="-0.59697">
        <ele>153.3</ele>
        <time>2012-07-22T07:19:05Z</time>
      </trkpt>
      <trkpt lat="46.9061" lon="-0.59687">
        <ele>154.5</ele>
        <time>2012-07-22T07:19:07Z</time>
      </trkpt>
      <trkpt lat="46.90612" lon="-0.59675">
        <ele>155.8</ele>
        <time>2012-07-22T07:19:09Z</time>
      </trkpt>
      <trkpt lat="46.90615" lon="-0.59664">
        <ele>156.8</ele>
        <time>2012-07-22T07:19:11Z</time>
      </trkpt>
      <trkpt lat="46.90617" lon="-0.59652">
        <ele>157.6</ele>
        <time>2012-07-22T07:19:13Z</time>
      </trkpt>
      <trkpt lat="46.9062" lon="-0.5964">
        <ele>158.1</ele>
        <time>2012-07-22T07:19:15Z</time>
      </trkpt>
      <trkpt lat="46.90622" lon="-0.59634">
        <ele>158.3</ele>
        <time>2012-07-22T07:19:16Z</time>
      </trkpt>
      <trkpt lat="46.90623" lon="-0.59628">
        <ele>158.5</ele>
        <time>2012-07-22T07:19:17Z</time>
      </trkpt>
      <trkpt lat="46.90625" lon="-0.59622">
        <ele>158.6</ele>
        <time>2012-07-22T07:19:18Z</time>
      </trkpt>
      <trkpt lat="46.90626" lon="-0.59615">
        <ele>158.8</ele>
        <time>2012-07-22T07:19:19Z</time>
      </trkpt>
      <trkpt lat="46.90628" lon="-0.59608">
        <ele>158.8</ele>
        <time>2012-07-22T07:19:20Z</time>
      </trkpt>
      <trkpt lat="46.9063" lon="-0.59601">
        <ele>158.8</ele>
        <time>2012-07-22T07:19:21Z</time>
      </trkpt>
      <trkpt lat="46.90632" lon="-0.59595">
        <ele>159</ele>
        <time>2012-07-22T07:19:22Z</time>
      </trkpt>
      <trkpt lat="46.90635" lon="-0.59588">
        <ele>159.1</ele>
        <time>2012-07-22T07:19:23Z</time>
      </trkpt>
      <trkpt lat="46.90638" lon="-0.59581">
        <ele>159.1</ele>
        <time>2012-07-22T07:19:24Z</time>
      </trkpt>
      <trkpt lat="46.90641" lon="-0.59574">
        <ele>159.1</ele>
        <time>2012-07-22T07:19:25Z</time>
      </trkpt>
      <trkpt lat="46.90645" lon="-0.59567">
        <ele>159.3</ele>
        <time>2012-07-22T07:19:26Z</time>
      </trkpt>
      <trkpt lat="46.90649" lon="-0.5956">
        <ele>159.3</ele>
        <time>2012-07-22T07:19:27Z</time>
      </trkpt>
      <trkpt lat="46.90653" lon="-0.59553">
        <ele>159.3</ele>
        <time>2012-07-22T07:19:28Z</time>
      </trkpt>
      <trkpt lat="46.90657" lon="-0.59545">
        <ele>159.3</ele>
        <time>2012-07-22T07:19:29Z</time>
      </trkpt>
      <trkpt lat="46.9066" lon="-0.59536">
        <ele>159.3</ele>
        <time>2012-07-22T07:19:30Z</time>
      </trkpt>
      <trkpt lat="46.90663" lon="-0.59528">
        <ele>159.3</ele>
        <time>2012-07-22T07:19:31Z</time>
      </trkpt>
      <trkpt lat="46.90666" lon="-0.59519">
        <ele>159.3</ele>
        <time>2012-07-22T07:19:32Z</time>
      </trkpt>
      <trkpt lat="46.90668" lon="-0.5951">
        <ele>159.3</ele>
        <time>2012-07-22T07:19:33Z</time>
      </trkpt>
      <trkpt lat="46.90669" lon="-0.595">
        <ele>159.1</ele>
        <time>2012-07-22T07:19:34Z</time>
      </trkpt>
      <trkpt lat="46.90669" lon="-0.59491">
        <ele>159</ele>
        <time>2012-07-22T07:19:35Z</time>
      </trkpt>
      <trkpt lat="46.90669" lon="-0.59481">
        <ele>159</ele>
        <time>2012-07-22T07:19:36Z</time>
      </trkpt>
      <trkpt lat="46.90669" lon="-0.59473">
        <ele>158.8</ele>
        <time>2012-07-22T07:19:37Z</time>
      </trkpt>
      <trkpt lat="46.90669" lon="-0.59464">
        <ele>158.6</ele>
        <time>2012-07-22T07:19:38Z</time>
      </trkpt>
      <trkpt lat="46.90668" lon="-0.59457">
        <ele>158.6</ele>
        <time>2012-07-22T07:19:39Z</time>
      </trkpt>
      <trkpt lat="46.90667" lon="-0.59449">
        <ele>158.5</ele>
        <time>2012-07-22T07:19:40Z</time>
      </trkpt>
      <trkpt lat="46.90667" lon="-0.59442">
        <ele>158.5</ele>
        <time>2012-07-22T07:19:41Z</time>
      </trkpt>
      <trkpt lat="46.90667" lon="-0.59435">
        <ele>158.3</ele>
        <time>2012-07-22T07:19:42Z</time>
      </trkpt>
      <trkpt lat="46.90669" lon="-0.59428">
        <ele>158.3</ele>
        <time>2012-07-22T07:19:43Z</time>
      </trkpt>
      <trkpt lat="46.9067" lon="-0.59422">
        <ele>158.3</ele>
        <time>2012-07-22T07:19:44Z</time>
      </trkpt>
      <trkpt lat="46.90672" lon="-0.59416">
        <ele>158.3</ele>
        <time>2012-07-22T07:19:45Z</time>
      </trkpt>
      <trkpt lat="46.90674" lon="-0.59409">
        <ele>158.1</ele>
        <time>2012-07-22T07:19:46Z</time>
      </trkpt>
      <trkpt lat="46.90676" lon="-0.59402">
        <ele>158.1</ele>
        <time>2012-07-22T07:19:47Z</time>
      </trkpt>
      <trkpt lat="46.90678" lon="-0.59395">
        <ele>158.1</ele>
        <time>2012-07-22T07:19:48Z</time>
      </trkpt>
      <trkpt lat="46.9068" lon="-0.59388">
        <ele>158</ele>
        <time>2012-07-22T07:19:49Z</time>
      </trkpt>
      <trkpt lat="46.90682" lon="-0.59381">
        <ele>157.8</ele>
        <time>2012-07-22T07:19:50Z</time>
      </trkpt>
      <trkpt lat="46.90684" lon="-0.59373">
        <ele>157.8</ele>
        <time>2012-07-22T07:19:51Z</time>
      </trkpt>
      <trkpt lat="46.90687" lon="-0.59365">
        <ele>157.8</ele>
        <time>2012-07-22T07:19:52Z</time>
      </trkpt>
      <trkpt lat="46.90689" lon="-0.59358">
        <ele>157.8</ele>
        <time>2012-07-22T07:19:53Z</time>
      </trkpt>
      <trkpt lat="46.90693" lon="-0.59351">
        <ele>158</ele>
        <time>2012-07-22T07:19:54Z</time>
      </trkpt>
      <trkpt lat="46.90697" lon="-0.59344">
        <ele>158.1</ele>
        <time>2012-07-22T07:19:55Z</time>
      </trkpt>
      <trkpt lat="46.90701" lon="-0.59338">
        <ele>158.3</ele>
        <time>2012-07-22T07:19:56Z</time>
      </trkpt>
      <trkpt lat="46.90705" lon="-0.59331">
        <ele>158.6</ele>
        <time>2012-07-22T07:19:57Z</time>
      </trkpt>
      <trkpt lat="46.90709" lon="-0.59325">
        <ele>158.8</ele>
        <time>2012-07-22T07:19:58Z</time>
      </trkpt>
      <trkpt lat="46.90713" lon="-0.59319">
        <ele>159.1</ele>
        <time>2012-07-22T07:19:59Z</time>
      </trkpt>
      <trkpt lat="46.90717" lon="-0.59313">
        <ele>159.3</ele>
        <time>2012-07-22T07:20:00Z</time>
      </trkpt>
      <trkpt lat="46.90721" lon="-0.59308">
        <ele>159.6</ele>
        <time>2012-07-22T07:20:01Z</time>
      </trkpt>
      <trkpt lat="46.90725" lon="-0.59303">
        <ele>159.8</ele>
        <time>2012-07-22T07:20:02Z</time>
      </trkpt>
      <trkpt lat="46.90731" lon="-0.59294">
        <ele>160.3</ele>
        <time>2012-07-22T07:20:04Z</time>
      </trkpt>
      <trkpt lat="46.90737" lon="-0.59284">
        <ele>160.6</ele>
        <time>2012-07-22T07:20:06Z</time>
      </trkpt>
      <trkpt lat="46.90741" lon="-0.5928">
        <ele>160.8</ele>
        <time>2012-07-22T07:20:07Z</time>
      </trkpt>
      <trkpt lat="46.90744" lon="-0.59276">
        <ele>160.8</ele>
        <time>2012-07-22T07:20:08Z</time>
      </trkpt>
      <trkpt lat="46.90748" lon="-0.59271">
        <ele>160.8</ele>
        <time>2012-07-22T07:20:09Z</time>
      </trkpt>
      <trkpt lat="46.90753" lon="-0.59267">
        <ele>160.8</ele>
        <time>2012-07-22T07:20:10Z</time>
      </trkpt>
      <trkpt lat="46.90757" lon="-0.59264">
        <ele>160.6</ele>
        <time>2012-07-22T07:20:11Z</time>
      </trkpt>
      <trkpt lat="46.90763" lon="-0.5926">
        <ele>160.5</ele>
        <time>2012-07-22T07:20:12Z</time>
      </trkpt>
      <trkpt lat="46.90768" lon="-0.59257">
        <ele>160.3</ele>
        <time>2012-07-22T07:20:13Z</time>
      </trkpt>
      <trkpt lat="46.90774" lon="-0.59254">
        <ele>160.3</ele>
        <time>2012-07-22T07:20:14Z</time>
      </trkpt>
      <trkpt lat="46.90779" lon="-0.5925">
        <ele>160.3</ele>
        <time>2012-07-22T07:20:15Z</time>
      </trkpt>
      <trkpt lat="46.90785" lon="-0.59247">
        <ele>160.6</ele>
        <time>2012-07-22T07:20:16Z</time>
      </trkpt>
      <trkpt lat="46.9079" lon="-0.59244">
        <ele>161</ele>
        <time>2012-07-22T07:20:17Z</time>
      </trkpt>
      <trkpt lat="46.90795" lon="-0.59242">
        <ele>161.3</ele>
        <time>2012-07-22T07:20:18Z</time>
      </trkpt>
      <trkpt lat="46.90801" lon="-0.59239">
        <ele>161.6</ele>
        <time>2012-07-22T07:20:19Z</time>
      </trkpt>
      <trkpt lat="46.90806" lon="-0.59236">
        <ele>161.8</ele>
        <time>2012-07-22T07:20:20Z</time>
      </trkpt>
      <trkpt lat="46.90812" lon="-0.59234">
        <ele>162</ele>
        <time>2012-07-22T07:20:21Z</time>
      </trkpt>
      <trkpt lat="46.90817" lon="-0.59233">
        <ele>162.1</ele>
        <time>2012-07-22T07:20:22Z</time>
      </trkpt>
      <trkpt lat="46.90822" lon="-0.59232">
        <ele>162.3</ele>
        <time>2012-07-22T07:20:23Z</time>
      </trkpt>
      <trkpt lat="46.90827" lon="-0.59232">
        <ele>162.6</ele>
        <time>2012-07-22T07:20:24Z</time>
      </trkpt>
      <trkpt lat="46.90832" lon="-0.5923">
        <ele>162.6</ele>
        <time>2012-07-22T07:20:25Z</time>
      </trkpt>
      <trkpt lat="46.90842" lon="-0.59218">
        <ele>163.1</ele>
        <time>2012-07-22T07:20:28Z</time>
      </trkpt>
      <trkpt lat="46.90848" lon="-0.59209">
        <ele>163.3</ele>
        <time>2012-07-22T07:20:30Z</time>
      </trkpt>
      <trkpt lat="46.90851" lon="-0.59204">
        <ele>163.3</ele>
        <time>2012-07-22T07:20:31Z</time>
      </trkpt>
      <trkpt lat="46.90854" lon="-0.59199">
        <ele>163.6</ele>
        <time>2012-07-22T07:20:32Z</time>
      </trkpt>
      <trkpt lat="46.90857" lon="-0.59194">
        <ele>163.8</ele>
        <time>2012-07-22T07:20:33Z</time>
      </trkpt>
      <trkpt lat="46.9086" lon="-0.59188">
        <ele>164.1</ele>
        <time>2012-07-22T07:20:34Z</time>
      </trkpt>
      <trkpt lat="46.90863" lon="-0.59183">
        <ele>164.3</ele>
        <time>2012-07-22T07:20:35Z</time>
      </trkpt>
      <trkpt lat="46.90867" lon="-0.59177">
        <ele>164.5</ele>
        <time>2012-07-22T07:20:36Z</time>
      </trkpt>
      <trkpt lat="46.9087" lon="-0.59172">
        <ele>164.6</ele>
        <time>2012-07-22T07:20:37Z</time>
      </trkpt>
      <trkpt lat="46.90873" lon="-0.59166">
        <ele>164.8</ele>
        <time>2012-07-22T07:20:38Z</time>
      </trkpt>
      <trkpt lat="46.90876" lon="-0.5916">
        <ele>165.3</ele>
        <time>2012-07-22T07:20:39Z</time>
      </trkpt>
      <trkpt lat="46.90879" lon="-0.59155">
        <ele>165.6</ele>
        <time>2012-07-22T07:20:40Z</time>
      </trkpt>
      <trkpt lat="46.90882" lon="-0.5915">
        <ele>165.8</ele>
        <time>2012-07-22T07:20:41Z</time>
      </trkpt>
      <trkpt lat="46.90885" lon="-0.59144">
        <ele>166.1</ele>
        <time>2012-07-22T07:20:42Z</time>
      </trkpt>
      <trkpt lat="46.90887" lon="-0.59139">
        <ele>166.3</ele>
        <time>2012-07-22T07:20:43Z</time>
      </trkpt>
      <trkpt lat="46.9089" lon="-0.59133">
        <ele>166.5</ele>
        <time>2012-07-22T07:20:44Z</time>
      </trkpt>
      <trkpt lat="46.90893" lon="-0.59128">
        <ele>166.6</ele>
        <time>2012-07-22T07:20:45Z</time>
      </trkpt>
      <trkpt lat="46.90898" lon="-0.59118">
        <ele>166.6</ele>
        <time>2012-07-22T07:20:47Z</time>
      </trkpt>
      <trkpt lat="46.90904" lon="-0.59108">
        <ele>166.6</ele>
        <time>2012-07-22T07:20:49Z</time>
      </trkpt>
      <trkpt lat="46.90908" lon="-0.59099">
        <ele>166.6</ele>
        <time>2012-07-22T07:20:51Z</time>
      </trkpt>
      <trkpt lat="46.90913" lon="-0.5909">
        <ele>166.8</ele>
        <time>2012-07-22T07:20:53Z</time>
      </trkpt>
      <trkpt lat="46.90917" lon="-0.59083">
        <ele>166.8</ele>
        <time>2012-07-22T07:20:55Z</time>
      </trkpt>
      <trkpt lat="46.90921" lon="-0.59076">
        <ele>166.6</ele>
        <time>2012-07-22T07:20:57Z</time>
      </trkpt>
      <trkpt lat="46.90925" lon="-0.59068">
        <ele>166.8</ele>
        <time>2012-07-22T07:20:59Z</time>
      </trkpt>
      <trkpt lat="46.9093" lon="-0.59061">
        <ele>166.8</ele>
        <time>2012-07-22T07:21:01Z</time>
      </trkpt>
      <trkpt lat="46.90935" lon="-0.59053">
        <ele>166.8</ele>
        <time>2012-07-22T07:21:03Z</time>
      </trkpt>
      <trkpt lat="46.90939" lon="-0.59046">
        <ele>166.8</ele>
        <time>2012-07-22T07:21:05Z</time>
      </trkpt>
      <trkpt lat="46.90943" lon="-0.59039">
        <ele>166.8</ele>
        <time>2012-07-22T07:21:07Z</time>
      </trkpt>
      <trkpt lat="46.90947" lon="-0.59032">
        <ele>167</ele>
        <time>2012-07-22T07:21:09Z</time>
      </trkpt>
      <trkpt lat="46.90952" lon="-0.59027">
        <ele>167.1</ele>
        <time>2012-07-22T07:21:14Z</time>
      </trkpt>
      <trkpt lat="46.90945" lon="-0.59023">
        <ele>168</ele>
        <time>2012-07-22T07:21:21Z</time>
      </trkpt>
      <trkpt lat="46.90938" lon="-0.59022">
        <ele>168.1</ele>
        <time>2012-07-22T07:21:23Z</time>
      </trkpt>
      <trkpt lat="46.90932" lon="-0.59022">
        <ele>168.3</ele>
        <time>2012-07-22T07:21:25Z</time>
      </trkpt>
      <trkpt lat="46.90929" lon="-0.59021">
        <ele>168.6</ele>
        <time>2012-07-22T07:21:26Z</time>
      </trkpt>
      <trkpt lat="46.90918" lon="-0.59021">
        <ele>168.8</ele>
        <time>2012-07-22T07:21:29Z</time>
      </trkpt>
      <trkpt lat="46.9091" lon="-0.59022">
        <ele>169.1</ele>
        <time>2012-07-22T07:21:31Z</time>
      </trkpt>
      <trkpt lat="46.90902" lon="-0.59021">
        <ele>170.5</ele>
        <time>2012-07-22T07:21:33Z</time>
      </trkpt>
      <trkpt lat="46.90893" lon="-0.59022">
        <ele>171.3</ele>
        <time>2012-07-22T07:21:35Z</time>
      </trkpt>
      <trkpt lat="46.90888" lon="-0.59022">
        <ele>171.6</ele>
        <time>2012-07-22T07:21:36Z</time>
      </trkpt>
      <trkpt lat="46.90884" lon="-0.59023">
        <ele>171.6</ele>
        <time>2012-07-22T07:21:37Z</time>
      </trkpt>
      <trkpt lat="46.90879" lon="-0.59024">
        <ele>171.8</ele>
        <time>2012-07-22T07:21:38Z</time>
      </trkpt>
      <trkpt lat="46.90874" lon="-0.59024">
        <ele>172</ele>
        <time>2012-07-22T07:21:39Z</time>
      </trkpt>
      <trkpt lat="46.90869" lon="-0.59025">
        <ele>172</ele>
        <time>2012-07-22T07:21:40Z</time>
      </trkpt>
      <trkpt lat="46.90864" lon="-0.59027">
        <ele>172</ele>
        <time>2012-07-22T07:21:41Z</time>
      </trkpt>
      <trkpt lat="46.9086" lon="-0.59028">
        <ele>172</ele>
        <time>2012-07-22T07:21:42Z</time>
      </trkpt>
      <trkpt lat="46.90855" lon="-0.5903">
        <ele>172</ele>
        <time>2012-07-22T07:21:43Z</time>
      </trkpt>
      <trkpt lat="46.9085" lon="-0.59032">
        <ele>171.8</ele>
        <time>2012-07-22T07:21:44Z</time>
      </trkpt>
      <trkpt lat="46.90845" lon="-0.59034">
        <ele>171.8</ele>
        <time>2012-07-22T07:21:45Z</time>
      </trkpt>
      <trkpt lat="46.90839" lon="-0.59036">
        <ele>171.8</ele>
        <time>2012-07-22T07:21:46Z</time>
      </trkpt>
      <trkpt lat="46.90834" lon="-0.59038">
        <ele>171.6</ele>
        <time>2012-07-22T07:21:47Z</time>
      </trkpt>
      <trkpt lat="46.90829" lon="-0.59041">
        <ele>171.6</ele>
        <time>2012-07-22T07:21:48Z</time>
      </trkpt>
      <trkpt lat="46.90824" lon="-0.59043">
        <ele>171.6</ele>
        <time>2012-07-22T07:21:49Z</time>
      </trkpt>
      <trkpt lat="46.90819" lon="-0.59045">
        <ele>171.6</ele>
        <time>2012-07-22T07:21:50Z</time>
      </trkpt>
      <trkpt lat="46.90814" lon="-0.59048">
        <ele>171.5</ele>
        <time>2012-07-22T07:21:51Z</time>
      </trkpt>
      <trkpt lat="46.90809" lon="-0.59051">
        <ele>171.5</ele>
        <time>2012-07-22T07:21:52Z</time>
      </trkpt>
      <trkpt lat="46.90804" lon="-0.59053">
        <ele>171.3</ele>
        <time>2012-07-22T07:21:53Z</time>
      </trkpt>
      <trkpt lat="46.90799" lon="-0.59056">
        <ele>171.3</ele>
        <time>2012-07-22T07:21:54Z</time>
      </trkpt>
      <trkpt lat="46.90794" lon="-0.59059">
        <ele>171.3</ele>
        <time>2012-07-22T07:21:55Z</time>
      </trkpt>
      <trkpt lat="46.90789" lon="-0.59062">
        <ele>171.1</ele>
        <time>2012-07-22T07:21:56Z</time>
      </trkpt>
      <trkpt lat="46.90785" lon="-0.59065">
        <ele>171.1</ele>
        <time>2012-07-22T07:21:57Z</time>
      </trkpt>
      <trkpt lat="46.9078" lon="-0.59068">
        <ele>171.1</ele>
        <time>2012-07-22T07:21:58Z</time>
      </trkpt>
      <trkpt lat="46.90775" lon="-0.5907">
        <ele>171</ele>
        <time>2012-07-22T07:21:59Z</time>
      </trkpt>
      <trkpt lat="46.9077" lon="-0.59072">
        <ele>170.8</ele>
        <time>2012-07-22T07:22:00Z</time>
      </trkpt>
      <trkpt lat="46.90765" lon="-0.59075">
        <ele>170.8</ele>
        <time>2012-07-22T07:22:01Z</time>
      </trkpt>
      <trkpt lat="46.9076" lon="-0.59077">
        <ele>170.6</ele>
        <time>2012-07-22T07:22:02Z</time>
      </trkpt>
      <trkpt lat="46.90755" lon="-0.5908">
        <ele>170.6</ele>
        <time>2012-07-22T07:22:03Z</time>
      </trkpt>
      <trkpt lat="46.9075" lon="-0.59082">
        <ele>170.6</ele>
        <time>2012-07-22T07:22:04Z</time>
      </trkpt>
      <trkpt lat="46.90745" lon="-0.59084">
        <ele>170.5</ele>
        <time>2012-07-22T07:22:05Z</time>
      </trkpt>
      <trkpt lat="46.9074" lon="-0.59087">
        <ele>170.3</ele>
        <time>2012-07-22T07:22:06Z</time>
      </trkpt>
      <trkpt lat="46.90735" lon="-0.59089">
        <ele>170.3</ele>
        <time>2012-07-22T07:22:07Z</time>
      </trkpt>
      <trkpt lat="46.9073" lon="-0.59092">
        <ele>170.1</ele>
        <time>2012-07-22T07:22:08Z</time>
      </trkpt>
      <trkpt lat="46.90724" lon="-0.59094">
        <ele>170.1</ele>
        <time>2012-07-22T07:22:09Z</time>
      </trkpt>
      <trkpt lat="46.90719" lon="-0.59097">
        <ele>170</ele>
        <time>2012-07-22T07:22:10Z</time>
      </trkpt>
      <trkpt lat="46.90714" lon="-0.59099">
        <ele>169.8</ele>
        <time>2012-07-22T07:22:11Z</time>
      </trkpt>
      <trkpt lat="46.90709" lon="-0.59102">
        <ele>169.8</ele>
        <time>2012-07-22T07:22:12Z</time>
      </trkpt>
      <trkpt lat="46.90704" lon="-0.59104">
        <ele>169.8</ele>
        <time>2012-07-22T07:22:13Z</time>
      </trkpt>
      <trkpt lat="46.90698" lon="-0.59107">
        <ele>169.6</ele>
        <time>2012-07-22T07:22:14Z</time>
      </trkpt>
      <trkpt lat="46.90693" lon="-0.59109">
        <ele>169.6</ele>
        <time>2012-07-22T07:22:15Z</time>
      </trkpt>
      <trkpt lat="46.90687" lon="-0.59112">
        <ele>169.5</ele>
        <time>2012-07-22T07:22:16Z</time>
      </trkpt>
      <trkpt lat="46.90682" lon="-0.59114">
        <ele>169.3</ele>
        <time>2012-07-22T07:22:17Z</time>
      </trkpt>
      <trkpt lat="46.90676" lon="-0.59117">
        <ele>169.3</ele>
        <time>2012-07-22T07:22:18Z</time>
      </trkpt>
      <trkpt lat="46.90671" lon="-0.59119">
        <ele>169.1</ele>
        <time>2012-07-22T07:22:19Z</time>
      </trkpt>
      <trkpt lat="46.90665" lon="-0.59122">
        <ele>169.1</ele>
        <time>2012-07-22T07:22:20Z</time>
      </trkpt>
      <trkpt lat="46.9066" lon="-0.59124">
        <ele>169</ele>
        <time>2012-07-22T07:22:21Z</time>
      </trkpt>
      <trkpt lat="46.90654" lon="-0.59126">
        <ele>168.8</ele>
        <time>2012-07-22T07:22:22Z</time>
      </trkpt>
      <trkpt lat="46.90649" lon="-0.59129">
        <ele>168.8</ele>
        <time>2012-07-22T07:22:23Z</time>
      </trkpt>
      <trkpt lat="46.90643" lon="-0.59132">
        <ele>168.8</ele>
        <time>2012-07-22T07:22:24Z</time>
      </trkpt>
      <trkpt lat="46.90637" lon="-0.59134">
        <ele>168.8</ele>
        <time>2012-07-22T07:22:25Z</time>
      </trkpt>
      <trkpt lat="46.90632" lon="-0.59137">
        <ele>168.8</ele>
        <time>2012-07-22T07:22:26Z</time>
      </trkpt>
      <trkpt lat="46.90626" lon="-0.59139">
        <ele>168.8</ele>
        <time>2012-07-22T07:22:27Z</time>
      </trkpt>
      <trkpt lat="46.9062" lon="-0.59142">
        <ele>168.8</ele>
        <time>2012-07-22T07:22:28Z</time>
      </trkpt>
      <trkpt lat="46.90614" lon="-0.59145">
        <ele>168.8</ele>
        <time>2012-07-22T07:22:29Z</time>
      </trkpt>
      <trkpt lat="46.90609" lon="-0.59147">
        <ele>168.6</ele>
        <time>2012-07-22T07:22:30Z</time>
      </trkpt>
      <trkpt lat="46.90603" lon="-0.5915">
        <ele>168.6</ele>
        <time>2012-07-22T07:22:31Z</time>
      </trkpt>
      <trkpt lat="46.90597" lon="-0.59152">
        <ele>168.6</ele>
        <time>2012-07-22T07:22:32Z</time>
      </trkpt>
      <trkpt lat="46.90591" lon="-0.59155">
        <ele>168.5</ele>
        <time>2012-07-22T07:22:33Z</time>
      </trkpt>
      <trkpt lat="46.90585" lon="-0.59157">
        <ele>168.5</ele>
        <time>2012-07-22T07:22:34Z</time>
      </trkpt>
      <trkpt lat="46.90579" lon="-0.5916">
        <ele>168.3</ele>
        <time>2012-07-22T07:22:35Z</time>
      </trkpt>
      <trkpt lat="46.90573" lon="-0.59163">
        <ele>168.3</ele>
        <time>2012-07-22T07:22:36Z</time>
      </trkpt>
      <trkpt lat="46.90567" lon="-0.59165">
        <ele>168.3</ele>
        <time>2012-07-22T07:22:37Z</time>
      </trkpt>
      <trkpt lat="46.90561" lon="-0.59168">
        <ele>168.1</ele>
        <time>2012-07-22T07:22:38Z</time>
      </trkpt>
      <trkpt lat="46.90555" lon="-0.59171">
        <ele>168.1</ele>
        <time>2012-07-22T07:22:39Z</time>
      </trkpt>
      <trkpt lat="46.90549" lon="-0.59174">
        <ele>168.1</ele>
        <time>2012-07-22T07:22:40Z</time>
      </trkpt>
      <trkpt lat="46.90543" lon="-0.59177">
        <ele>168.1</ele>
        <time>2012-07-22T07:22:41Z</time>
      </trkpt>
      <trkpt lat="46.90537" lon="-0.5918">
        <ele>168</ele>
        <time>2012-07-22T07:22:42Z</time>
      </trkpt>
      <trkpt lat="46.90531" lon="-0.59182">
        <ele>168</ele>
        <time>2012-07-22T07:22:43Z</time>
      </trkpt>
      <trkpt lat="46.90526" lon="-0.59185">
        <ele>168</ele>
        <time>2012-07-22T07:22:44Z</time>
      </trkpt>
      <trkpt lat="46.9052" lon="-0.59188">
        <ele>167.8</ele>
        <time>2012-07-22T07:22:45Z</time>
      </trkpt>
      <trkpt lat="46.90514" lon="-0.59191">
        <ele>167.8</ele>
        <time>2012-07-22T07:22:46Z</time>
      </trkpt>
      <trkpt lat="46.90508" lon="-0.59194">
        <ele>167.8</ele>
        <time>2012-07-22T07:22:47Z</time>
      </trkpt>
      <trkpt lat="46.90503" lon="-0.59196">
        <ele>167.8</ele>
        <time>2012-07-22T07:22:48Z</time>
      </trkpt>
      <trkpt lat="46.90497" lon="-0.59199">
        <ele>167.8</ele>
        <time>2012-07-22T07:22:49Z</time>
      </trkpt>
      <trkpt lat="46.90492" lon="-0.59202">
        <ele>167.8</ele>
        <time>2012-07-22T07:22:50Z</time>
      </trkpt>
      <trkpt lat="46.90486" lon="-0.59204">
        <ele>167.8</ele>
        <time>2012-07-22T07:22:51Z</time>
      </trkpt>
      <trkpt lat="46.90481" lon="-0.59207">
        <ele>167.8</ele>
        <time>2012-07-22T07:22:52Z</time>
      </trkpt>
      <trkpt lat="46.90475" lon="-0.59209">
        <ele>167.8</ele>
        <time>2012-07-22T07:22:53Z</time>
      </trkpt>
      <trkpt lat="46.9047" lon="-0.59212">
        <ele>167.8</ele>
        <time>2012-07-22T07:22:54Z</time>
      </trkpt>
      <trkpt lat="46.90464" lon="-0.59214">
        <ele>168</ele>
        <time>2012-07-22T07:22:55Z</time>
      </trkpt>
      <trkpt lat="46.90459" lon="-0.59216">
        <ele>168</ele>
        <time>2012-07-22T07:22:56Z</time>
      </trkpt>
      <trkpt lat="46.90453" lon="-0.59218">
        <ele>168</ele>
        <time>2012-07-22T07:22:57Z</time>
      </trkpt>
      <trkpt lat="46.90447" lon="-0.59219">
        <ele>168</ele>
        <time>2012-07-22T07:22:58Z</time>
      </trkpt>
      <trkpt lat="46.90442" lon="-0.59221">
        <ele>167.8</ele>
        <time>2012-07-22T07:22:59Z</time>
      </trkpt>
      <trkpt lat="46.90436" lon="-0.59222">
        <ele>168</ele>
        <time>2012-07-22T07:23:00Z</time>
      </trkpt>
      <trkpt lat="46.9043" lon="-0.59221">
        <ele>168</ele>
        <time>2012-07-22T07:23:01Z</time>
      </trkpt>
      <trkpt lat="46.90425" lon="-0.59217">
        <ele>168</ele>
        <time>2012-07-22T07:23:02Z</time>
      </trkpt>
      <trkpt lat="46.90421" lon="-0.59213">
        <ele>167.8</ele>
        <time>2012-07-22T07:23:03Z</time>
      </trkpt>
      <trkpt lat="46.90416" lon="-0.59207">
        <ele>167.8</ele>
        <time>2012-07-22T07:23:04Z</time>
      </trkpt>
      <trkpt lat="46.90412" lon="-0.592">
        <ele>167.8</ele>
        <time>2012-07-22T07:23:05Z</time>
      </trkpt>
      <trkpt lat="46.90407" lon="-0.59193">
        <ele>167.6</ele>
        <time>2012-07-22T07:23:06Z</time>
      </trkpt>
      <trkpt lat="46.90402" lon="-0.59185">
        <ele>167.5</ele>
        <time>2012-07-22T07:23:07Z</time>
      </trkpt>
      <trkpt lat="46.90397" lon="-0.59178">
        <ele>167.3</ele>
        <time>2012-07-22T07:23:08Z</time>
      </trkpt>
      <trkpt lat="46.90392" lon="-0.5917">
        <ele>167.1</ele>
        <time>2012-07-22T07:23:09Z</time>
      </trkpt>
      <trkpt lat="46.90387" lon="-0.59162">
        <ele>167.1</ele>
        <time>2012-07-22T07:23:10Z</time>
      </trkpt>
      <trkpt lat="46.90382" lon="-0.59154">
        <ele>167</ele>
        <time>2012-07-22T07:23:11Z</time>
      </trkpt>
      <trkpt lat="46.90378" lon="-0.59148">
        <ele>166.8</ele>
        <time>2012-07-22T07:23:12Z</time>
      </trkpt>
      <trkpt lat="46.90376" lon="-0.59141">
        <ele>166.8</ele>
        <time>2012-07-22T07:23:13Z</time>
      </trkpt>
      <trkpt lat="46.90376" lon="-0.59134">
        <ele>166.6</ele>
        <time>2012-07-22T07:23:14Z</time>
      </trkpt>
      <trkpt lat="46.90378" lon="-0.59128">
        <ele>166.5</ele>
        <time>2012-07-22T07:23:15Z</time>
      </trkpt>
      <trkpt lat="46.90381" lon="-0.59121">
        <ele>166.5</ele>
        <time>2012-07-22T07:23:16Z</time>
      </trkpt>
      <trkpt lat="46.90384" lon="-0.59114">
        <ele>166.3</ele>
        <time>2012-07-22T07:23:17Z</time>
      </trkpt>
      <trkpt lat="46.90387" lon="-0.59108">
        <ele>166.3</ele>
        <time>2012-07-22T07:23:18Z</time>
      </trkpt>
      <trkpt lat="46.90391" lon="-0.59101">
        <ele>166.3</ele>
        <time>2012-07-22T07:23:19Z</time>
      </trkpt>
      <trkpt lat="46.90395" lon="-0.59094">
        <ele>166.1</ele>
        <time>2012-07-22T07:23:20Z</time>
      </trkpt>
      <trkpt lat="46.90398" lon="-0.59086">
        <ele>166.1</ele>
        <time>2012-07-22T07:23:21Z</time>
      </trkpt>
      <trkpt lat="46.90402" lon="-0.59078">
        <ele>165.8</ele>
        <time>2012-07-22T07:23:22Z</time>
      </trkpt>
      <trkpt lat="46.90405" lon="-0.5907">
        <ele>165.6</ele>
        <time>2012-07-22T07:23:23Z</time>
      </trkpt>
      <trkpt lat="46.90408" lon="-0.59062">
        <ele>165.3</ele>
        <time>2012-07-22T07:23:24Z</time>
      </trkpt>
      <trkpt lat="46.90412" lon="-0.59053">
        <ele>165.1</ele>
        <time>2012-07-22T07:23:25Z</time>
      </trkpt>
      <trkpt lat="46.90414" lon="-0.59044">
        <ele>164.8</ele>
        <time>2012-07-22T07:23:26Z</time>
      </trkpt>
      <trkpt lat="46.90417" lon="-0.59035">
        <ele>164.5</ele>
        <time>2012-07-22T07:23:27Z</time>
      </trkpt>
      <trkpt lat="46.9042" lon="-0.59026">
        <ele>164.1</ele>
        <time>2012-07-22T07:23:28Z</time>
      </trkpt>
      <trkpt lat="46.90424" lon="-0.59016">
        <ele>163.6</ele>
        <time>2012-07-22T07:23:29Z</time>
      </trkpt>
      <trkpt lat="46.90427" lon="-0.59007">
        <ele>163.1</ele>
        <time>2012-07-22T07:23:30Z</time>
      </trkpt>
      <trkpt lat="46.9043" lon="-0.58998">
        <ele>162.6</ele>
        <time>2012-07-22T07:23:31Z</time>
      </trkpt>
      <trkpt lat="46.90434" lon="-0.5899">
        <ele>162.1</ele>
        <time>2012-07-22T07:23:32Z</time>
      </trkpt>
      <trkpt lat="46.90438" lon="-0.58982">
        <ele>161.8</ele>
        <time>2012-07-22T07:23:33Z</time>
      </trkpt>
      <trkpt lat="46.90442" lon="-0.58974">
        <ele>161.3</ele>
        <time>2012-07-22T07:23:34Z</time>
      </trkpt>
      <trkpt lat="46.90446" lon="-0.58967">
        <ele>161</ele>
        <time>2012-07-22T07:23:35Z</time>
      </trkpt>
      <trkpt lat="46.9045" lon="-0.5896">
        <ele>160.6</ele>
        <time>2012-07-22T07:23:36Z</time>
      </trkpt>
      <trkpt lat="46.90455" lon="-0.58953">
        <ele>160.3</ele>
        <time>2012-07-22T07:23:37Z</time>
      </trkpt>
      <trkpt lat="46.9046" lon="-0.58947">
        <ele>160.1</ele>
        <time>2012-07-22T07:23:38Z</time>
      </trkpt>
      <trkpt lat="46.90465" lon="-0.58942">
        <ele>159.8</ele>
        <time>2012-07-22T07:23:39Z</time>
      </trkpt>
      <trkpt lat="46.9047" lon="-0.58936">
        <ele>159.6</ele>
        <time>2012-07-22T07:23:40Z</time>
      </trkpt>
      <trkpt lat="46.90475" lon="-0.58931">
        <ele>159.5</ele>
        <time>2012-07-22T07:23:41Z</time>
      </trkpt>
      <trkpt lat="46.9048" lon="-0.58926">
        <ele>159.3</ele>
        <time>2012-07-22T07:23:42Z</time>
      </trkpt>
      <trkpt lat="46.90485" lon="-0.58921">
        <ele>159.1</ele>
        <time>2012-07-22T07:23:43Z</time>
      </trkpt>
      <trkpt lat="46.90489" lon="-0.58916">
        <ele>158.8</ele>
        <time>2012-07-22T07:23:44Z</time>
      </trkpt>
      <trkpt lat="46.90494" lon="-0.58912">
        <ele>158.6</ele>
        <time>2012-07-22T07:23:45Z</time>
      </trkpt>
      <trkpt lat="46.90499" lon="-0.58908">
        <ele>158.5</ele>
        <time>2012-07-22T07:23:46Z</time>
      </trkpt>
      <trkpt lat="46.90504" lon="-0.58904">
        <ele>158.3</ele>
        <time>2012-07-22T07:23:47Z</time>
      </trkpt>
      <trkpt lat="46.90509" lon="-0.589">
        <ele>158.1</ele>
        <time>2012-07-22T07:23:48Z</time>
      </trkpt>
      <trkpt lat="46.90513" lon="-0.58896">
        <ele>158.1</ele>
        <time>2012-07-22T07:23:49Z</time>
      </trkpt>
      <trkpt lat="46.90518" lon="-0.58891">
        <ele>158.1</ele>
        <time>2012-07-22T07:23:50Z</time>
      </trkpt>
      <trkpt lat="46.90522" lon="-0.58886">
        <ele>158.3</ele>
        <time>2012-07-22T07:23:51Z</time>
      </trkpt>
      <trkpt lat="46.90527" lon="-0.58881">
        <ele>158.3</ele>
        <time>2012-07-22T07:23:52Z</time>
      </trkpt>
      <trkpt lat="46.90532" lon="-0.58876">
        <ele>158.3</ele>
        <time>2012-07-22T07:23:53Z</time>
      </trkpt>
      <trkpt lat="46.90537" lon="-0.58871">
        <ele>158.3</ele>
        <time>2012-07-22T07:23:54Z</time>
      </trkpt>
      <trkpt lat="46.90542" lon="-0.58866">
        <ele>158.3</ele>
        <time>2012-07-22T07:23:55Z</time>
      </trkpt>
      <trkpt lat="46.90547" lon="-0.58861">
        <ele>158.5</ele>
        <time>2012-07-22T07:23:56Z</time>
      </trkpt>
      <trkpt lat="46.90552" lon="-0.58855">
        <ele>158.6</ele>
        <time>2012-07-22T07:23:57Z</time>
      </trkpt>
      <trkpt lat="46.90556" lon="-0.5885">
        <ele>158.6</ele>
        <time>2012-07-22T07:23:58Z</time>
      </trkpt>
      <trkpt lat="46.90561" lon="-0.58844">
        <ele>158.8</ele>
        <time>2012-07-22T07:23:59Z</time>
      </trkpt>
      <trkpt lat="46.90566" lon="-0.58839">
        <ele>159.1</ele>
        <time>2012-07-22T07:24:00Z</time>
      </trkpt>
      <trkpt lat="46.9057" lon="-0.58832">
        <ele>159.6</ele>
        <time>2012-07-22T07:24:01Z</time>
      </trkpt>
      <trkpt lat="46.90574" lon="-0.58826">
        <ele>160.1</ele>
        <time>2012-07-22T07:24:02Z</time>
      </trkpt>
      <trkpt lat="46.90578" lon="-0.5882">
        <ele>160.6</ele>
        <time>2012-07-22T07:24:03Z</time>
      </trkpt>
      <trkpt lat="46.90582" lon="-0.58815">
        <ele>160.8</ele>
        <time>2012-07-22T07:24:04Z</time>
      </trkpt>
      <trkpt lat="46.90586" lon="-0.5881">
        <ele>161</ele>
        <time>2012-07-22T07:24:05Z</time>
      </trkpt>
      <trkpt lat="46.9059" lon="-0.58805">
        <ele>161.1</ele>
        <time>2012-07-22T07:24:06Z</time>
      </trkpt>
      <trkpt lat="46.90594" lon="-0.588">
        <ele>161.3</ele>
        <time>2012-07-22T07:24:07Z</time>
      </trkpt>
      <trkpt lat="46.90598" lon="-0.58795">
        <ele>161.5</ele>
        <time>2012-07-22T07:24:08Z</time>
      </trkpt>
      <trkpt lat="46.90602" lon="-0.58791">
        <ele>161.6</ele>
        <time>2012-07-22T07:24:09Z</time>
      </trkpt>
      <trkpt lat="46.90606" lon="-0.58786">
        <ele>161.8</ele>
        <time>2012-07-22T07:24:10Z</time>
      </trkpt>
      <trkpt lat="46.9061" lon="-0.58782">
        <ele>162.1</ele>
        <time>2012-07-22T07:24:11Z</time>
      </trkpt>
      <trkpt lat="46.90614" lon="-0.58777">
        <ele>162.8</ele>
        <time>2012-07-22T07:24:12Z</time>
      </trkpt>
      <trkpt lat="46.90617" lon="-0.58773">
        <ele>163.3</ele>
        <time>2012-07-22T07:24:13Z</time>
      </trkpt>
      <trkpt lat="46.90621" lon="-0.58769">
        <ele>163.6</ele>
        <time>2012-07-22T07:24:14Z</time>
      </trkpt>
      <trkpt lat="46.90625" lon="-0.58765">
        <ele>164</ele>
        <time>2012-07-22T07:24:15Z</time>
      </trkpt>
      <trkpt lat="46.90629" lon="-0.58761">
        <ele>164.1</ele>
        <time>2012-07-22T07:24:16Z</time>
      </trkpt>
      <trkpt lat="46.90633" lon="-0.58757">
        <ele>164.3</ele>
        <time>2012-07-22T07:24:17Z</time>
      </trkpt>
      <trkpt lat="46.90636" lon="-0.58753">
        <ele>164.6</ele>
        <time>2012-07-22T07:24:18Z</time>
      </trkpt>
      <trkpt lat="46.9064" lon="-0.58749">
        <ele>164.6</ele>
        <time>2012-07-22T07:24:19Z</time>
      </trkpt>
      <trkpt lat="46.90644" lon="-0.58745">
        <ele>164.8</ele>
        <time>2012-07-22T07:24:20Z</time>
      </trkpt>
      <trkpt lat="46.90647" lon="-0.5874">
        <ele>165</ele>
        <time>2012-07-22T07:24:21Z</time>
      </trkpt>
      <trkpt lat="46.90651" lon="-0.58736">
        <ele>165.3</ele>
        <time>2012-07-22T07:24:22Z</time>
      </trkpt>
      <trkpt lat="46.90657" lon="-0.58727">
        <ele>166</ele>
        <time>2012-07-22T07:24:24Z</time>
      </trkpt>
      <trkpt lat="46.90664" lon="-0.58718">
        <ele>166.5</ele>
        <time>2012-07-22T07:24:26Z</time>
      </trkpt>
      <trkpt lat="46.90667" lon="-0.58714">
        <ele>166.8</ele>
        <time>2012-07-22T07:24:27Z</time>
      </trkpt>
      <trkpt lat="46.90674" lon="-0.58705">
        <ele>167.3</ele>
        <time>2012-07-22T07:24:29Z</time>
      </trkpt>
      <trkpt lat="46.90677" lon="-0.587">
        <ele>167.6</ele>
        <time>2012-07-22T07:24:30Z</time>
      </trkpt>
      <trkpt lat="46.90685" lon="-0.58687">
        <ele>168.1</ele>
        <time>2012-07-22T07:24:33Z</time>
      </trkpt>
      <trkpt lat="46.90692" lon="-0.58678">
        <ele>168.3</ele>
        <time>2012-07-22T07:24:35Z</time>
      </trkpt>
      <trkpt lat="46.90698" lon="-0.58669">
        <ele>168.6</ele>
        <time>2012-07-22T07:24:37Z</time>
      </trkpt>
      <trkpt lat="46.90703" lon="-0.5866">
        <ele>168.8</ele>
        <time>2012-07-22T07:24:39Z</time>
      </trkpt>
      <trkpt lat="46.90706" lon="-0.58655">
        <ele>169</ele>
        <time>2012-07-22T07:24:40Z</time>
      </trkpt>
      <trkpt lat="46.90708" lon="-0.58649">
        <ele>169.3</ele>
        <time>2012-07-22T07:24:41Z</time>
      </trkpt>
      <trkpt lat="46.90711" lon="-0.58644">
        <ele>169.5</ele>
        <time>2012-07-22T07:24:42Z</time>
      </trkpt>
      <trkpt lat="46.90714" lon="-0.58638">
        <ele>169.6</ele>
        <time>2012-07-22T07:24:43Z</time>
      </trkpt>
      <trkpt lat="46.90716" lon="-0.58631">
        <ele>169.8</ele>
        <time>2012-07-22T07:24:44Z</time>
      </trkpt>
      <trkpt lat="46.90719" lon="-0.58625">
        <ele>170</ele>
        <time>2012-07-22T07:24:45Z</time>
      </trkpt>
      <trkpt lat="46.90722" lon="-0.58618">
        <ele>170.1</ele>
        <time>2012-07-22T07:24:46Z</time>
      </trkpt>
      <trkpt lat="46.90724" lon="-0.58611">
        <ele>170.3</ele>
        <time>2012-07-22T07:24:47Z</time>
      </trkpt>
      <trkpt lat="46.90727" lon="-0.58605">
        <ele>170.6</ele>
        <time>2012-07-22T07:24:48Z</time>
      </trkpt>
      <trkpt lat="46.90729" lon="-0.58598">
        <ele>170.8</ele>
        <time>2012-07-22T07:24:49Z</time>
      </trkpt>
      <trkpt lat="46.90731" lon="-0.58591">
        <ele>170.8</ele>
        <time>2012-07-22T07:24:50Z</time>
      </trkpt>
      <trkpt lat="46.90733" lon="-0.58584">
        <ele>171</ele>
        <time>2012-07-22T07:24:51Z</time>
      </trkpt>
      <trkpt lat="46.90736" lon="-0.58577">
        <ele>171</ele>
        <time>2012-07-22T07:24:52Z</time>
      </trkpt>
      <trkpt lat="46.90739" lon="-0.58569">
        <ele>170.8</ele>
        <time>2012-07-22T07:24:53Z</time>
      </trkpt>
      <trkpt lat="46.90743" lon="-0.58562">
        <ele>170.8</ele>
        <time>2012-07-22T07:24:54Z</time>
      </trkpt>
      <trkpt lat="46.90747" lon="-0.58555">
        <ele>170.6</ele>
        <time>2012-07-22T07:24:55Z</time>
      </trkpt>
      <trkpt lat="46.90751" lon="-0.58548">
        <ele>170.3</ele>
        <time>2012-07-22T07:24:56Z</time>
      </trkpt>
      <trkpt lat="46.90755" lon="-0.58541">
        <ele>170.1</ele>
        <time>2012-07-22T07:24:57Z</time>
      </trkpt>
      <trkpt lat="46.9076" lon="-0.58533">
        <ele>170</ele>
        <time>2012-07-22T07:24:58Z</time>
      </trkpt>
      <trkpt lat="46.90765" lon="-0.58525">
        <ele>169.8</ele>
        <time>2012-07-22T07:24:59Z</time>
      </trkpt>
      <trkpt lat="46.9077" lon="-0.58517">
        <ele>169.5</ele>
        <time>2012-07-22T07:25:00Z</time>
      </trkpt>
      <trkpt lat="46.90776" lon="-0.58509">
        <ele>169.1</ele>
        <time>2012-07-22T07:25:01Z</time>
      </trkpt>
      <trkpt lat="46.90781" lon="-0.58501">
        <ele>168.8</ele>
        <time>2012-07-22T07:25:02Z</time>
      </trkpt>
      <trkpt lat="46.90787" lon="-0.58492">
        <ele>168.3</ele>
        <time>2012-07-22T07:25:03Z</time>
      </trkpt>
      <trkpt lat="46.90792" lon="-0.58483">
        <ele>167.8</ele>
        <time>2012-07-22T07:25:04Z</time>
      </trkpt>
      <trkpt lat="46.90798" lon="-0.58473">
        <ele>167.1</ele>
        <time>2012-07-22T07:25:05Z</time>
      </trkpt>
      <trkpt lat="46.90803" lon="-0.58464">
        <ele>166.6</ele>
        <time>2012-07-22T07:25:06Z</time>
      </trkpt>
      <trkpt lat="46.90808" lon="-0.58455">
        <ele>166.1</ele>
        <time>2012-07-22T07:25:07Z</time>
      </trkpt>
      <trkpt lat="46.90814" lon="-0.58446">
        <ele>165.6</ele>
        <time>2012-07-22T07:25:08Z</time>
      </trkpt>
      <trkpt lat="46.90819" lon="-0.58436">
        <ele>165.1</ele>
        <time>2012-07-22T07:25:09Z</time>
      </trkpt>
      <trkpt lat="46.90824" lon="-0.58427">
        <ele>164.8</ele>
        <time>2012-07-22T07:25:10Z</time>
      </trkpt>
      <trkpt lat="46.90828" lon="-0.58418">
        <ele>164.6</ele>
        <time>2012-07-22T07:25:11Z</time>
      </trkpt>
      <trkpt lat="46.90832" lon="-0.58409">
        <ele>164.3</ele>
        <time>2012-07-22T07:25:12Z</time>
      </trkpt>
      <trkpt lat="46.90836" lon="-0.58401">
        <ele>164.1</ele>
        <time>2012-07-22T07:25:13Z</time>
      </trkpt>
      <trkpt lat="46.90839" lon="-0.58392">
        <ele>164</ele>
        <time>2012-07-22T07:25:14Z</time>
      </trkpt>
      <trkpt lat="46.90842" lon="-0.58384">
        <ele>163.8</ele>
        <time>2012-07-22T07:25:15Z</time>
      </trkpt>
      <trkpt lat="46.90845" lon="-0.58375">
        <ele>163.6</ele>
        <time>2012-07-22T07:25:16Z</time>
      </trkpt>
      <trkpt lat="46.90847" lon="-0.58367">
        <ele>163.3</ele>
        <time>2012-07-22T07:25:17Z</time>
      </trkpt>
      <trkpt lat="46.90849" lon="-0.58358">
        <ele>163.1</ele>
        <time>2012-07-22T07:25:18Z</time>
      </trkpt>
      <trkpt lat="46.90851" lon="-0.58349">
        <ele>163.1</ele>
        <time>2012-07-22T07:25:19Z</time>
      </trkpt>
      <trkpt lat="46.90853" lon="-0.58339">
        <ele>162.8</ele>
        <time>2012-07-22T07:25:20Z</time>
      </trkpt>
      <trkpt lat="46.90855" lon="-0.5833">
        <ele>162.6</ele>
        <time>2012-07-22T07:25:21Z</time>
      </trkpt>
      <trkpt lat="46.90857" lon="-0.5832">
        <ele>162.6</ele>
        <time>2012-07-22T07:25:22Z</time>
      </trkpt>
      <trkpt lat="46.90859" lon="-0.58311">
        <ele>162.6</ele>
        <time>2012-07-22T07:25:23Z</time>
      </trkpt>
      <trkpt lat="46.90862" lon="-0.58302">
        <ele>162.8</ele>
        <time>2012-07-22T07:25:24Z</time>
      </trkpt>
      <trkpt lat="46.90864" lon="-0.58294">
        <ele>163</ele>
        <time>2012-07-22T07:25:25Z</time>
      </trkpt>
      <trkpt lat="46.90867" lon="-0.58286">
        <ele>163.1</ele>
        <time>2012-07-22T07:25:26Z</time>
      </trkpt>
      <trkpt lat="46.9087" lon="-0.58278">
        <ele>163.3</ele>
        <time>2012-07-22T07:25:27Z</time>
      </trkpt>
      <trkpt lat="46.90873" lon="-0.58271">
        <ele>163.5</ele>
        <time>2012-07-22T07:25:28Z</time>
      </trkpt>
      <trkpt lat="46.90875" lon="-0.58264">
        <ele>163.6</ele>
        <time>2012-07-22T07:25:29Z</time>
      </trkpt>
      <trkpt lat="46.90877" lon="-0.58257">
        <ele>163.6</ele>
        <time>2012-07-22T07:25:30Z</time>
      </trkpt>
      <trkpt lat="46.9088" lon="-0.58251">
        <ele>163.6</ele>
        <time>2012-07-22T07:25:31Z</time>
      </trkpt>
      <trkpt lat="46.90882" lon="-0.58244">
        <ele>163.6</ele>
        <time>2012-07-22T07:25:32Z</time>
      </trkpt>
      <trkpt lat="46.90884" lon="-0.58237">
        <ele>163.6</ele>
        <time>2012-07-22T07:25:33Z</time>
      </trkpt>
      <trkpt lat="46.90887" lon="-0.58231">
        <ele>163.6</ele>
        <time>2012-07-22T07:25:34Z</time>
      </trkpt>
      <trkpt lat="46.90889" lon="-0.58225">
        <ele>163.6</ele>
        <time>2012-07-22T07:25:35Z</time>
      </trkpt>
      <trkpt lat="46.90891" lon="-0.58218">
        <ele>163.6</ele>
        <time>2012-07-22T07:25:36Z</time>
      </trkpt>
      <trkpt lat="46.90894" lon="-0.58212">
        <ele>163.6</ele>
        <time>2012-07-22T07:25:37Z</time>
      </trkpt>
      <trkpt lat="46.90896" lon="-0.58206">
        <ele>163.8</ele>
        <time>2012-07-22T07:25:38Z</time>
      </trkpt>
      <trkpt lat="46.90899" lon="-0.582">
        <ele>163.6</ele>
        <time>2012-07-22T07:25:39Z</time>
      </trkpt>
      <trkpt lat="46.90901" lon="-0.58194">
        <ele>163.6</ele>
        <time>2012-07-22T07:25:40Z</time>
      </trkpt>
      <trkpt lat="46.90905" lon="-0.58183">
        <ele>163.5</ele>
        <time>2012-07-22T07:25:42Z</time>
      </trkpt>
      <trkpt lat="46.90908" lon="-0.58172">
        <ele>163.3</ele>
        <time>2012-07-22T07:25:44Z</time>
      </trkpt>
      <trkpt lat="46.90911" lon="-0.58163">
        <ele>163.3</ele>
        <time>2012-07-22T07:25:46Z</time>
      </trkpt>
      <trkpt lat="46.90915" lon="-0.58153">
        <ele>163.3</ele>
        <time>2012-07-22T07:25:48Z</time>
      </trkpt>
      <trkpt lat="46.90918" lon="-0.58142">
        <ele>163.3</ele>
        <time>2012-07-22T07:25:50Z</time>
      </trkpt>
      <trkpt lat="46.90922" lon="-0.58132">
        <ele>163.3</ele>
        <time>2012-07-22T07:25:52Z</time>
      </trkpt>
      <trkpt lat="46.90926" lon="-0.58123">
        <ele>163.3</ele>
        <time>2012-07-22T07:25:54Z</time>
      </trkpt>
      <trkpt lat="46.9093" lon="-0.58114">
        <ele>163.1</ele>
        <time>2012-07-22T07:25:56Z</time>
      </trkpt>
      <trkpt lat="46.90934" lon="-0.58105">
        <ele>163.1</ele>
        <time>2012-07-22T07:25:58Z</time>
      </trkpt>
      <trkpt lat="46.90938" lon="-0.58095">
        <ele>163.3</ele>
        <time>2012-07-22T07:26:00Z</time>
      </trkpt>
      <trkpt lat="46.90943" lon="-0.58086">
        <ele>163.3</ele>
        <time>2012-07-22T07:26:02Z</time>
      </trkpt>
      <trkpt lat="46.90948" lon="-0.58077">
        <ele>163.3</ele>
        <time>2012-07-22T07:26:04Z</time>
      </trkpt>
      <trkpt lat="46.90953" lon="-0.58069">
        <ele>163.5</ele>
        <time>2012-07-22T07:26:06Z</time>
      </trkpt>
      <trkpt lat="46.90957" lon="-0.58062">
        <ele>163.5</ele>
        <time>2012-07-22T07:26:08Z</time>
      </trkpt>
      <trkpt lat="46.90964" lon="-0.58053">
        <ele>163.6</ele>
        <time>2012-07-22T07:26:11Z</time>
      </trkpt>
      <trkpt lat="46.90968" lon="-0.58047">
        <ele>163.6</ele>
        <time>2012-07-22T07:26:13Z</time>
      </trkpt>
      <trkpt lat="46.90972" lon="-0.58039">
        <ele>163.8</ele>
        <time>2012-07-22T07:26:15Z</time>
      </trkpt>
      <trkpt lat="46.90976" lon="-0.5803">
        <ele>163.8</ele>
        <time>2012-07-22T07:26:17Z</time>
      </trkpt>
      <trkpt lat="46.90981" lon="-0.58021">
        <ele>164</ele>
        <time>2012-07-22T07:26:19Z</time>
      </trkpt>
      <trkpt lat="46.90985" lon="-0.5801">
        <ele>165</ele>
        <time>2012-07-22T07:26:21Z</time>
      </trkpt>
      <trkpt lat="46.90988" lon="-0.58004">
        <ele>165.8</ele>
        <time>2012-07-22T07:26:22Z</time>
      </trkpt>
      <trkpt lat="46.9099" lon="-0.57998">
        <ele>166.5</ele>
        <time>2012-07-22T07:26:23Z</time>
      </trkpt>
      <trkpt lat="46.90992" lon="-0.57992">
        <ele>167</ele>
        <time>2012-07-22T07:26:24Z</time>
      </trkpt>
      <trkpt lat="46.90995" lon="-0.57986">
        <ele>167.3</ele>
        <time>2012-07-22T07:26:25Z</time>
      </trkpt>
      <trkpt lat="46.90998" lon="-0.5798">
        <ele>167.8</ele>
        <time>2012-07-22T07:26:26Z</time>
      </trkpt>
      <trkpt lat="46.91001" lon="-0.57974">
        <ele>168.1</ele>
        <time>2012-07-22T07:26:27Z</time>
      </trkpt>
      <trkpt lat="46.91004" lon="-0.57968">
        <ele>168.3</ele>
        <time>2012-07-22T07:26:28Z</time>
      </trkpt>
      <trkpt lat="46.91007" lon="-0.57962">
        <ele>168.5</ele>
        <time>2012-07-22T07:26:29Z</time>
      </trkpt>
      <trkpt lat="46.9101" lon="-0.57956">
        <ele>168.5</ele>
        <time>2012-07-22T07:26:30Z</time>
      </trkpt>
      <trkpt lat="46.91014" lon="-0.57949">
        <ele>168.6</ele>
        <time>2012-07-22T07:26:31Z</time>
      </trkpt>
      <trkpt lat="46.91017" lon="-0.57943">
        <ele>168.6</ele>
        <time>2012-07-22T07:26:32Z</time>
      </trkpt>
      <trkpt lat="46.91021" lon="-0.57935">
        <ele>168.8</ele>
        <time>2012-07-22T07:26:33Z</time>
      </trkpt>
      <trkpt lat="46.91024" lon="-0.57928">
        <ele>168.8</ele>
        <time>2012-07-22T07:26:34Z</time>
      </trkpt>
      <trkpt lat="46.91027" lon="-0.57921">
        <ele>168.8</ele>
        <time>2012-07-22T07:26:35Z</time>
      </trkpt>
      <trkpt lat="46.9103" lon="-0.57913">
        <ele>168.8</ele>
        <time>2012-07-22T07:26:36Z</time>
      </trkpt>
      <trkpt lat="46.91034" lon="-0.57905">
        <ele>168.8</ele>
        <time>2012-07-22T07:26:37Z</time>
      </trkpt>
      <trkpt lat="46.91037" lon="-0.57897">
        <ele>168.8</ele>
        <time>2012-07-22T07:26:38Z</time>
      </trkpt>
      <trkpt lat="46.9104" lon="-0.57888">
        <ele>169</ele>
        <time>2012-07-22T07:26:39Z</time>
      </trkpt>
      <trkpt lat="46.91043" lon="-0.5788">
        <ele>169.1</ele>
        <time>2012-07-22T07:26:40Z</time>
      </trkpt>
      <trkpt lat="46.91046" lon="-0.57872">
        <ele>169.1</ele>
        <time>2012-07-22T07:26:41Z</time>
      </trkpt>
      <trkpt lat="46.91049" lon="-0.57863">
        <ele>169.1</ele>
        <time>2012-07-22T07:26:42Z</time>
      </trkpt>
      <trkpt lat="46.91051" lon="-0.57854">
        <ele>169.3</ele>
        <time>2012-07-22T07:26:43Z</time>
      </trkpt>
      <trkpt lat="46.91054" lon="-0.57845">
        <ele>169.5</ele>
        <time>2012-07-22T07:26:44Z</time>
      </trkpt>
      <trkpt lat="46.91058" lon="-0.57837">
        <ele>169.6</ele>
        <time>2012-07-22T07:26:45Z</time>
      </trkpt>
      <trkpt lat="46.91061" lon="-0.5783">
        <ele>169.8</ele>
        <time>2012-07-22T07:26:46Z</time>
      </trkpt>
      <trkpt lat="46.91064" lon="-0.57822">
        <ele>169.8</ele>
        <time>2012-07-22T07:26:47Z</time>
      </trkpt>
      <trkpt lat="46.91068" lon="-0.57814">
        <ele>169.6</ele>
        <time>2012-07-22T07:26:48Z</time>
      </trkpt>
      <trkpt lat="46.91071" lon="-0.57806">
        <ele>169.6</ele>
        <time>2012-07-22T07:26:49Z</time>
      </trkpt>
      <trkpt lat="46.91074" lon="-0.57797">
        <ele>169.5</ele>
        <time>2012-07-22T07:26:50Z</time>
      </trkpt>
      <trkpt lat="46.91077" lon="-0.57788">
        <ele>169.3</ele>
        <time>2012-07-22T07:26:51Z</time>
      </trkpt>
      <trkpt lat="46.9108" lon="-0.57779">
        <ele>169.1</ele>
        <time>2012-07-22T07:26:52Z</time>
      </trkpt>
      <trkpt lat="46.91082" lon="-0.57769">
        <ele>169.1</ele>
        <time>2012-07-22T07:26:53Z</time>
      </trkpt>
      <trkpt lat="46.91085" lon="-0.5776">
        <ele>169.1</ele>
        <time>2012-07-22T07:26:54Z</time>
      </trkpt>
      <trkpt lat="46.91088" lon="-0.5775">
        <ele>169</ele>
        <time>2012-07-22T07:26:55Z</time>
      </trkpt>
      <trkpt lat="46.9109" lon="-0.57741">
        <ele>169</ele>
        <time>2012-07-22T07:26:56Z</time>
      </trkpt>
      <trkpt lat="46.91092" lon="-0.57732">
        <ele>169</ele>
        <time>2012-07-22T07:26:57Z</time>
      </trkpt>
      <trkpt lat="46.91095" lon="-0.57722">
        <ele>168.8</ele>
        <time>2012-07-22T07:26:58Z</time>
      </trkpt>
      <trkpt lat="46.91097" lon="-0.57713">
        <ele>168.8</ele>
        <time>2012-07-22T07:26:59Z</time>
      </trkpt>
      <trkpt lat="46.91099" lon="-0.57704">
        <ele>168.8</ele>
        <time>2012-07-22T07:27:00Z</time>
      </trkpt>
      <trkpt lat="46.91101" lon="-0.57695">
        <ele>168.8</ele>
        <time>2012-07-22T07:27:01Z</time>
      </trkpt>
      <trkpt lat="46.91103" lon="-0.57686">
        <ele>168.8</ele>
        <time>2012-07-22T07:27:02Z</time>
      </trkpt>
      <trkpt lat="46.91105" lon="-0.57678">
        <ele>168.8</ele>
        <time>2012-07-22T07:27:03Z</time>
      </trkpt>
      <trkpt lat="46.91108" lon="-0.57669">
        <ele>168.8</ele>
        <time>2012-07-22T07:27:04Z</time>
      </trkpt>
      <trkpt lat="46.9111" lon="-0.5766">
        <ele>168.8</ele>
        <time>2012-07-22T07:27:05Z</time>
      </trkpt>
      <trkpt lat="46.91113" lon="-0.57652">
        <ele>168.6</ele>
        <time>2012-07-22T07:27:06Z</time>
      </trkpt>
      <trkpt lat="46.91115" lon="-0.57643">
        <ele>168.5</ele>
        <time>2012-07-22T07:27:07Z</time>
      </trkpt>
      <trkpt lat="46.91118" lon="-0.57635">
        <ele>168.3</ele>
        <time>2012-07-22T07:27:08Z</time>
      </trkpt>
      <trkpt lat="46.91121" lon="-0.57626">
        <ele>168.1</ele>
        <time>2012-07-22T07:27:09Z</time>
      </trkpt>
      <trkpt lat="46.91124" lon="-0.57618">
        <ele>167.8</ele>
        <time>2012-07-22T07:27:10Z</time>
      </trkpt>
      <trkpt lat="46.91127" lon="-0.5761">
        <ele>167.6</ele>
        <time>2012-07-22T07:27:11Z</time>
      </trkpt>
      <trkpt lat="46.9113" lon="-0.57601">
        <ele>167.6</ele>
        <time>2012-07-22T07:27:12Z</time>
      </trkpt>
      <trkpt lat="46.91133" lon="-0.57593">
        <ele>167.5</ele>
        <time>2012-07-22T07:27:13Z</time>
      </trkpt>
      <trkpt lat="46.91136" lon="-0.57585">
        <ele>167.3</ele>
        <time>2012-07-22T07:27:14Z</time>
      </trkpt>
      <trkpt lat="46.91139" lon="-0.57577">
        <ele>167.3</ele>
        <time>2012-07-22T07:27:15Z</time>
      </trkpt>
      <trkpt lat="46.91142" lon="-0.57569">
        <ele>167.1</ele>
        <time>2012-07-22T07:27:16Z</time>
      </trkpt>
      <trkpt lat="46.91145" lon="-0.57562">
        <ele>167.1</ele>
        <time>2012-07-22T07:27:17Z</time>
      </trkpt>
      <trkpt lat="46.91148" lon="-0.57555">
        <ele>166.8</ele>
        <time>2012-07-22T07:27:18Z</time>
      </trkpt>
      <trkpt lat="46.91151" lon="-0.57549">
        <ele>166.6</ele>
        <time>2012-07-22T07:27:19Z</time>
      </trkpt>
      <trkpt lat="46.91153" lon="-0.57543">
        <ele>166.5</ele>
        <time>2012-07-22T07:27:20Z</time>
      </trkpt>
      <trkpt lat="46.91156" lon="-0.57537">
        <ele>166.3</ele>
        <time>2012-07-22T07:27:21Z</time>
      </trkpt>
      <trkpt lat="46.91159" lon="-0.57531">
        <ele>166.1</ele>
        <time>2012-07-22T07:27:22Z</time>
      </trkpt>
      <trkpt lat="46.91161" lon="-0.57525">
        <ele>166.1</ele>
        <time>2012-07-22T07:27:23Z</time>
      </trkpt>
      <trkpt lat="46.91164" lon="-0.57519">
        <ele>166.1</ele>
        <time>2012-07-22T07:27:24Z</time>
      </trkpt>
      <trkpt lat="46.91166" lon="-0.57512">
        <ele>166</ele>
        <time>2012-07-22T07:27:25Z</time>
      </trkpt>
      <trkpt lat="46.91169" lon="-0.57506">
        <ele>166</ele>
        <time>2012-07-22T07:27:26Z</time>
      </trkpt>
      <trkpt lat="46.91172" lon="-0.57499">
        <ele>165.8</ele>
        <time>2012-07-22T07:27:27Z</time>
      </trkpt>
      <trkpt lat="46.91174" lon="-0.57492">
        <ele>165.8</ele>
        <time>2012-07-22T07:27:28Z</time>
      </trkpt>
      <trkpt lat="46.91177" lon="-0.57485">
        <ele>165.8</ele>
        <time>2012-07-22T07:27:29Z</time>
      </trkpt>
      <trkpt lat="46.9118" lon="-0.57478">
        <ele>165.6</ele>
        <time>2012-07-22T07:27:30Z</time>
      </trkpt>
      <trkpt lat="46.91183" lon="-0.57471">
        <ele>165.6</ele>
        <time>2012-07-22T07:27:31Z</time>
      </trkpt>
      <trkpt lat="46.91186" lon="-0.57464">
        <ele>165.5</ele>
        <time>2012-07-22T07:27:32Z</time>
      </trkpt>
      <trkpt lat="46.91189" lon="-0.57456">
        <ele>165.3</ele>
        <time>2012-07-22T07:27:33Z</time>
      </trkpt>
      <trkpt lat="46.91192" lon="-0.57449">
        <ele>165.3</ele>
        <time>2012-07-22T07:27:34Z</time>
      </trkpt>
      <trkpt lat="46.91195" lon="-0.57442">
        <ele>165.1</ele>
        <time>2012-07-22T07:27:35Z</time>
      </trkpt>
      <trkpt lat="46.91199" lon="-0.57435">
        <ele>165</ele>
        <time>2012-07-22T07:27:36Z</time>
      </trkpt>
      <trkpt lat="46.91203" lon="-0.57428">
        <ele>164.8</ele>
        <time>2012-07-22T07:27:37Z</time>
      </trkpt>
      <trkpt lat="46.91207" lon="-0.57421">
        <ele>164.8</ele>
        <time>2012-07-22T07:27:38Z</time>
      </trkpt>
      <trkpt lat="46.91211" lon="-0.57414">
        <ele>164.6</ele>
        <time>2012-07-22T07:27:39Z</time>
      </trkpt>
      <trkpt lat="46.91215" lon="-0.57406">
        <ele>164.6</ele>
        <time>2012-07-22T07:27:40Z</time>
      </trkpt>
      <trkpt lat="46.91218" lon="-0.57398">
        <ele>164.5</ele>
        <time>2012-07-22T07:27:41Z</time>
      </trkpt>
      <trkpt lat="46.91222" lon="-0.5739">
        <ele>164.3</ele>
        <time>2012-07-22T07:27:42Z</time>
      </trkpt>
      <trkpt lat="46.91226" lon="-0.57382">
        <ele>164.3</ele>
        <time>2012-07-22T07:27:43Z</time>
      </trkpt>
      <trkpt lat="46.9123" lon="-0.57374">
        <ele>164.1</ele>
        <time>2012-07-22T07:27:44Z</time>
      </trkpt>
      <trkpt lat="46.91234" lon="-0.57365">
        <ele>164.1</ele>
        <time>2012-07-22T07:27:45Z</time>
      </trkpt>
      <trkpt lat="46.91238" lon="-0.57356">
        <ele>164</ele>
        <time>2012-07-22T07:27:46Z</time>
      </trkpt>
      <trkpt lat="46.91242" lon="-0.57347">
        <ele>163.8</ele>
        <time>2012-07-22T07:27:47Z</time>
      </trkpt>
      <trkpt lat="46.91245" lon="-0.57338">
        <ele>163.8</ele>
        <time>2012-07-22T07:27:48Z</time>
      </trkpt>
      <trkpt lat="46.91249" lon="-0.57329">
        <ele>163.6</ele>
        <time>2012-07-22T07:27:49Z</time>
      </trkpt>
      <trkpt lat="46.91253" lon="-0.5732">
        <ele>163.6</ele>
        <time>2012-07-22T07:27:50Z</time>
      </trkpt>
      <trkpt lat="46.91256" lon="-0.57311">
        <ele>163.6</ele>
        <time>2012-07-22T07:27:51Z</time>
      </trkpt>
      <trkpt lat="46.9126" lon="-0.57302">
        <ele>163.5</ele>
        <time>2012-07-22T07:27:52Z</time>
      </trkpt>
      <trkpt lat="46.91264" lon="-0.57293">
        <ele>163.3</ele>
        <time>2012-07-22T07:27:53Z</time>
      </trkpt>
      <trkpt lat="46.91267" lon="-0.57284">
        <ele>163.3</ele>
        <time>2012-07-22T07:27:54Z</time>
      </trkpt>
      <trkpt lat="46.91271" lon="-0.57275">
        <ele>163.3</ele>
        <time>2012-07-22T07:27:55Z</time>
      </trkpt>
      <trkpt lat="46.91274" lon="-0.57267">
        <ele>163.3</ele>
        <time>2012-07-22T07:27:56Z</time>
      </trkpt>
      <trkpt lat="46.91278" lon="-0.57258">
        <ele>163.1</ele>
        <time>2012-07-22T07:27:57Z</time>
      </trkpt>
      <trkpt lat="46.91282" lon="-0.57249">
        <ele>163.1</ele>
        <time>2012-07-22T07:27:58Z</time>
      </trkpt>
      <trkpt lat="46.91286" lon="-0.5724">
        <ele>163.1</ele>
        <time>2012-07-22T07:27:59Z</time>
      </trkpt>
      <trkpt lat="46.9129" lon="-0.57232">
        <ele>163</ele>
        <time>2012-07-22T07:28:00Z</time>
      </trkpt>
      <trkpt lat="46.91294" lon="-0.57224">
        <ele>163</ele>
        <time>2012-07-22T07:28:01Z</time>
      </trkpt>
      <trkpt lat="46.91298" lon="-0.57216">
        <ele>162.8</ele>
        <time>2012-07-22T07:28:02Z</time>
      </trkpt>
      <trkpt lat="46.91302" lon="-0.57209">
        <ele>162.8</ele>
        <time>2012-07-22T07:28:03Z</time>
      </trkpt>
      <trkpt lat="46.91307" lon="-0.57202">
        <ele>162.6</ele>
        <time>2012-07-22T07:28:04Z</time>
      </trkpt>
      <trkpt lat="46.91312" lon="-0.57195">
        <ele>162.6</ele>
        <time>2012-07-22T07:28:05Z</time>
      </trkpt>
      <trkpt lat="46.91317" lon="-0.57189">
        <ele>162.6</ele>
        <time>2012-07-22T07:28:06Z</time>
      </trkpt>
      <trkpt lat="46.91321" lon="-0.57182">
        <ele>162.6</ele>
        <time>2012-07-22T07:28:07Z</time>
      </trkpt>
      <trkpt lat="46.91326" lon="-0.57176">
        <ele>162.6</ele>
        <time>2012-07-22T07:28:08Z</time>
      </trkpt>
      <trkpt lat="46.91331" lon="-0.57169">
        <ele>162.6</ele>
        <time>2012-07-22T07:28:09Z</time>
      </trkpt>
      <trkpt lat="46.91336" lon="-0.57162">
        <ele>162.5</ele>
        <time>2012-07-22T07:28:10Z</time>
      </trkpt>
      <trkpt lat="46.91341" lon="-0.57155">
        <ele>162.3</ele>
        <time>2012-07-22T07:28:11Z</time>
      </trkpt>
      <trkpt lat="46.91345" lon="-0.57147">
        <ele>162.3</ele>
        <time>2012-07-22T07:28:12Z</time>
      </trkpt>
      <trkpt lat="46.9135" lon="-0.5714">
        <ele>162.1</ele>
        <time>2012-07-22T07:28:13Z</time>
      </trkpt>
      <trkpt lat="46.91355" lon="-0.57132">
        <ele>162</ele>
        <time>2012-07-22T07:28:14Z</time>
      </trkpt>
      <trkpt lat="46.9136" lon="-0.57124">
        <ele>161.8</ele>
        <time>2012-07-22T07:28:15Z</time>
      </trkpt>
      <trkpt lat="46.91366" lon="-0.57115">
        <ele>161.5</ele>
        <time>2012-07-22T07:28:16Z</time>
      </trkpt>
      <trkpt lat="46.91372" lon="-0.57107">
        <ele>161.3</ele>
        <time>2012-07-22T07:28:17Z</time>
      </trkpt>
      <trkpt lat="46.91377" lon="-0.57099">
        <ele>161</ele>
        <time>2012-07-22T07:28:18Z</time>
      </trkpt>
      <trkpt lat="46.91383" lon="-0.57091">
        <ele>160.6</ele>
        <time>2012-07-22T07:28:19Z</time>
      </trkpt>
      <trkpt lat="46.91389" lon="-0.57084">
        <ele>160.3</ele>
        <time>2012-07-22T07:28:20Z</time>
      </trkpt>
      <trkpt lat="46.91395" lon="-0.57075">
        <ele>160</ele>
        <time>2012-07-22T07:28:21Z</time>
      </trkpt>
      <trkpt lat="46.91402" lon="-0.57067">
        <ele>159.6</ele>
        <time>2012-07-22T07:28:22Z</time>
      </trkpt>
      <trkpt lat="46.91408" lon="-0.57059">
        <ele>159.3</ele>
        <time>2012-07-22T07:28:23Z</time>
      </trkpt>
      <trkpt lat="46.91415" lon="-0.57052">
        <ele>159</ele>
        <time>2012-07-22T07:28:24Z</time>
      </trkpt>
      <trkpt lat="46.91422" lon="-0.57044">
        <ele>158.6</ele>
        <time>2012-07-22T07:28:25Z</time>
      </trkpt>
      <trkpt lat="46.91429" lon="-0.57036">
        <ele>158.1</ele>
        <time>2012-07-22T07:28:26Z</time>
      </trkpt>
      <trkpt lat="46.91436" lon="-0.57028">
        <ele>157.8</ele>
        <time>2012-07-22T07:28:27Z</time>
      </trkpt>
      <trkpt lat="46.91442" lon="-0.57019">
        <ele>157.5</ele>
        <time>2012-07-22T07:28:28Z</time>
      </trkpt>
      <trkpt lat="46.91447" lon="-0.57008">
        <ele>157.1</ele>
        <time>2012-07-22T07:28:29Z</time>
      </trkpt>
      <trkpt lat="46.91452" lon="-0.56998">
        <ele>156.8</ele>
        <time>2012-07-22T07:28:30Z</time>
      </trkpt>
      <trkpt lat="46.91457" lon="-0.56987">
        <ele>156.6</ele>
        <time>2012-07-22T07:28:31Z</time>
      </trkpt>
      <trkpt lat="46.91462" lon="-0.56976">
        <ele>156.3</ele>
        <time>2012-07-22T07:28:32Z</time>
      </trkpt>
      <trkpt lat="46.91467" lon="-0.56966">
        <ele>156.1</ele>
        <time>2012-07-22T07:28:33Z</time>
      </trkpt>
      <trkpt lat="46.91473" lon="-0.56955">
        <ele>156</ele>
        <time>2012-07-22T07:28:34Z</time>
      </trkpt>
      <trkpt lat="46.91479" lon="-0.56944">
        <ele>155.8</ele>
        <time>2012-07-22T07:28:35Z</time>
      </trkpt>
      <trkpt lat="46.91484" lon="-0.56933">
        <ele>155.8</ele>
        <time>2012-07-22T07:28:36Z</time>
      </trkpt>
      <trkpt lat="46.9149" lon="-0.56923">
        <ele>155.6</ele>
        <time>2012-07-22T07:28:37Z</time>
      </trkpt>
      <trkpt lat="46.91496" lon="-0.56912">
        <ele>155.6</ele>
        <time>2012-07-22T07:28:38Z</time>
      </trkpt>
      <trkpt lat="46.91503" lon="-0.56903">
        <ele>155.6</ele>
        <time>2012-07-22T07:28:39Z</time>
      </trkpt>
      <trkpt lat="46.91509" lon="-0.56893">
        <ele>155.6</ele>
        <time>2012-07-22T07:28:40Z</time>
      </trkpt>
      <trkpt lat="46.91515" lon="-0.56883">
        <ele>155.6</ele>
        <time>2012-07-22T07:28:41Z</time>
      </trkpt>
      <trkpt lat="46.91521" lon="-0.56874">
        <ele>155.5</ele>
        <time>2012-07-22T07:28:42Z</time>
      </trkpt>
      <trkpt lat="46.91527" lon="-0.56865">
        <ele>155.3</ele>
        <time>2012-07-22T07:28:43Z</time>
      </trkpt>
      <trkpt lat="46.91533" lon="-0.56855">
        <ele>155.3</ele>
        <time>2012-07-22T07:28:44Z</time>
      </trkpt>
      <trkpt lat="46.9154" lon="-0.56846">
        <ele>155.1</ele>
        <time>2012-07-22T07:28:45Z</time>
      </trkpt>
      <trkpt lat="46.91546" lon="-0.56836">
        <ele>155</ele>
        <time>2012-07-22T07:28:46Z</time>
      </trkpt>
      <trkpt lat="46.91552" lon="-0.56826">
        <ele>154.8</ele>
        <time>2012-07-22T07:28:47Z</time>
      </trkpt>
      <trkpt lat="46.91559" lon="-0.56817">
        <ele>154.6</ele>
        <time>2012-07-22T07:28:48Z</time>
      </trkpt>
      <trkpt lat="46.91566" lon="-0.56807">
        <ele>154.3</ele>
        <time>2012-07-22T07:28:49Z</time>
      </trkpt>
      <trkpt lat="46.91573" lon="-0.56797">
        <ele>154.1</ele>
        <time>2012-07-22T07:28:50Z</time>
      </trkpt>
      <trkpt lat="46.9158" lon="-0.56787">
        <ele>153.8</ele>
        <time>2012-07-22T07:28:51Z</time>
      </trkpt>
      <trkpt lat="46.91587" lon="-0.56778">
        <ele>153.6</ele>
        <time>2012-07-22T07:28:52Z</time>
      </trkpt>
      <trkpt lat="46.91594" lon="-0.56768">
        <ele>153.6</ele>
        <time>2012-07-22T07:28:53Z</time>
      </trkpt>
      <trkpt lat="46.91601" lon="-0.56759">
        <ele>153.3</ele>
        <time>2012-07-22T07:28:54Z</time>
      </trkpt>
      <trkpt lat="46.91607" lon="-0.5675">
        <ele>153.3</ele>
        <time>2012-07-22T07:28:55Z</time>
      </trkpt>
      <trkpt lat="46.91614" lon="-0.56741">
        <ele>153.1</ele>
        <time>2012-07-22T07:28:56Z</time>
      </trkpt>
      <trkpt lat="46.9162" lon="-0.56733">
        <ele>153</ele>
        <time>2012-07-22T07:28:57Z</time>
      </trkpt>
      <trkpt lat="46.91625" lon="-0.56725">
        <ele>152.6</ele>
        <time>2012-07-22T07:28:58Z</time>
      </trkpt>
      <trkpt lat="46.9163" lon="-0.56718">
        <ele>152.3</ele>
        <time>2012-07-22T07:28:59Z</time>
      </trkpt>
      <trkpt lat="46.91635" lon="-0.56712">
        <ele>152</ele>
        <time>2012-07-22T07:29:00Z</time>
      </trkpt>
      <trkpt lat="46.91639" lon="-0.56707">
        <ele>151.6</ele>
        <time>2012-07-22T07:29:01Z</time>
      </trkpt>
      <trkpt lat="46.91644" lon="-0.56699">
        <ele>151.1</ele>
        <time>2012-07-22T07:29:03Z</time>
      </trkpt>
      <trkpt lat="46.91648" lon="-0.56692">
        <ele>151.1</ele>
        <time>2012-07-22T07:29:05Z</time>
      </trkpt>
      <trkpt lat="46.91654" lon="-0.56686">
        <ele>150.8</ele>
        <time>2012-07-22T07:29:07Z</time>
      </trkpt>
      <trkpt lat="46.91658" lon="-0.56682">
        <ele>150.3</ele>
        <time>2012-07-22T07:29:08Z</time>
      </trkpt>
      <trkpt lat="46.91663" lon="-0.56677">
        <ele>150</ele>
        <time>2012-07-22T07:29:09Z</time>
      </trkpt>
      <trkpt lat="46.91668" lon="-0.56671">
        <ele>149.6</ele>
        <time>2012-07-22T07:29:10Z</time>
      </trkpt>
      <trkpt lat="46.91673" lon="-0.56664">
        <ele>149.1</ele>
        <time>2012-07-22T07:29:11Z</time>
      </trkpt>
      <trkpt lat="46.91678" lon="-0.56656">
        <ele>148.8</ele>
        <time>2012-07-22T07:29:12Z</time>
      </trkpt>
      <trkpt lat="46.91683" lon="-0.56649">
        <ele>148.6</ele>
        <time>2012-07-22T07:29:13Z</time>
      </trkpt>
      <trkpt lat="46.91688" lon="-0.56641">
        <ele>148.5</ele>
        <time>2012-07-22T07:29:14Z</time>
      </trkpt>
      <trkpt lat="46.91693" lon="-0.56633">
        <ele>148.3</ele>
        <time>2012-07-22T07:29:15Z</time>
      </trkpt>
      <trkpt lat="46.91699" lon="-0.56625">
        <ele>148.3</ele>
        <time>2012-07-22T07:29:16Z</time>
      </trkpt>
      <trkpt lat="46.91704" lon="-0.56617">
        <ele>148.1</ele>
        <time>2012-07-22T07:29:17Z</time>
      </trkpt>
      <trkpt lat="46.9171" lon="-0.56609">
        <ele>148.1</ele>
        <time>2012-07-22T07:29:18Z</time>
      </trkpt>
      <trkpt lat="46.91715" lon="-0.56602">
        <ele>148</ele>
        <time>2012-07-22T07:29:19Z</time>
      </trkpt>
      <trkpt lat="46.91721" lon="-0.56594">
        <ele>148</ele>
        <time>2012-07-22T07:29:20Z</time>
      </trkpt>
      <trkpt lat="46.91727" lon="-0.56587">
        <ele>147.8</ele>
        <time>2012-07-22T07:29:21Z</time>
      </trkpt>
      <trkpt lat="46.91732" lon="-0.56579">
        <ele>147.8</ele>
        <time>2012-07-22T07:29:22Z</time>
      </trkpt>
      <trkpt lat="46.91738" lon="-0.56571">
        <ele>147.6</ele>
        <time>2012-07-22T07:29:23Z</time>
      </trkpt>
      <trkpt lat="46.91743" lon="-0.56564">
        <ele>147.5</ele>
        <time>2012-07-22T07:29:24Z</time>
      </trkpt>
      <trkpt lat="46.91749" lon="-0.56556">
        <ele>147.3</ele>
        <time>2012-07-22T07:29:25Z</time>
      </trkpt>
      <trkpt lat="46.91754" lon="-0.56548">
        <ele>147.1</ele>
        <time>2012-07-22T07:29:26Z</time>
      </trkpt>
      <trkpt lat="46.9176" lon="-0.5654">
        <ele>146.8</ele>
        <time>2012-07-22T07:29:27Z</time>
      </trkpt>
      <trkpt lat="46.91766" lon="-0.56531">
        <ele>146.8</ele>
        <time>2012-07-22T07:29:28Z</time>
      </trkpt>
      <trkpt lat="46.91771" lon="-0.56523">
        <ele>146.6</ele>
        <time>2012-07-22T07:29:29Z</time>
      </trkpt>
      <trkpt lat="46.91777" lon="-0.56514">
        <ele>146.5</ele>
        <time>2012-07-22T07:29:30Z</time>
      </trkpt>
      <trkpt lat="46.91782" lon="-0.56505">
        <ele>146.3</ele>
        <time>2012-07-22T07:29:31Z</time>
      </trkpt>
      <trkpt lat="46.91788" lon="-0.56496">
        <ele>146.3</ele>
        <time>2012-07-22T07:29:32Z</time>
      </trkpt>
      <trkpt lat="46.91793" lon="-0.56488">
        <ele>146.3</ele>
        <time>2012-07-22T07:29:33Z</time>
      </trkpt>
      <trkpt lat="46.91799" lon="-0.56479">
        <ele>146.1</ele>
        <time>2012-07-22T07:29:34Z</time>
      </trkpt>
      <trkpt lat="46.91804" lon="-0.56471">
        <ele>146.1</ele>
        <time>2012-07-22T07:29:35Z</time>
      </trkpt>
      <trkpt lat="46.91809" lon="-0.56463">
        <ele>146</ele>
        <time>2012-07-22T07:29:36Z</time>
      </trkpt>
      <trkpt lat="46.91815" lon="-0.56455">
        <ele>145.8</ele>
        <time>2012-07-22T07:29:37Z</time>
      </trkpt>
      <trkpt lat="46.9182" lon="-0.56448">
        <ele>145.6</ele>
        <time>2012-07-22T07:29:38Z</time>
      </trkpt>
      <trkpt lat="46.91825" lon="-0.5644">
        <ele>145.6</ele>
        <time>2012-07-22T07:29:39Z</time>
      </trkpt>
      <trkpt lat="46.91831" lon="-0.56433">
        <ele>145.3</ele>
        <time>2012-07-22T07:29:40Z</time>
      </trkpt>
      <trkpt lat="46.91836" lon="-0.56425">
        <ele>145.3</ele>
        <time>2012-07-22T07:29:41Z</time>
      </trkpt>
      <trkpt lat="46.91841" lon="-0.56418">
        <ele>145.1</ele>
        <time>2012-07-22T07:29:42Z</time>
      </trkpt>
      <trkpt lat="46.91847" lon="-0.5641">
        <ele>144.8</ele>
        <time>2012-07-22T07:29:43Z</time>
      </trkpt>
      <trkpt lat="46.91852" lon="-0.56403">
        <ele>144.8</ele>
        <time>2012-07-22T07:29:44Z</time>
      </trkpt>
      <trkpt lat="46.91858" lon="-0.56396">
        <ele>144.6</ele>
        <time>2012-07-22T07:29:45Z</time>
      </trkpt>
      <trkpt lat="46.91863" lon="-0.56388">
        <ele>144.5</ele>
        <time>2012-07-22T07:29:46Z</time>
      </trkpt>
      <trkpt lat="46.91869" lon="-0.56381">
        <ele>144.3</ele>
        <time>2012-07-22T07:29:47Z</time>
      </trkpt>
      <trkpt lat="46.91874" lon="-0.56373">
        <ele>144.1</ele>
        <time>2012-07-22T07:29:48Z</time>
      </trkpt>
      <trkpt lat="46.91879" lon="-0.56365">
        <ele>144.1</ele>
        <time>2012-07-22T07:29:49Z</time>
      </trkpt>
      <trkpt lat="46.91884" lon="-0.56357">
        <ele>143.8</ele>
        <time>2012-07-22T07:29:50Z</time>
      </trkpt>
      <trkpt lat="46.91888" lon="-0.5635">
        <ele>143.8</ele>
        <time>2012-07-22T07:29:51Z</time>
      </trkpt>
      <trkpt lat="46.91893" lon="-0.56342">
        <ele>143.6</ele>
        <time>2012-07-22T07:29:52Z</time>
      </trkpt>
      <trkpt lat="46.91897" lon="-0.56335">
        <ele>143.3</ele>
        <time>2012-07-22T07:29:53Z</time>
      </trkpt>
      <trkpt lat="46.91901" lon="-0.56327">
        <ele>143.1</ele>
        <time>2012-07-22T07:29:54Z</time>
      </trkpt>
      <trkpt lat="46.91906" lon="-0.5632">
        <ele>143</ele>
        <time>2012-07-22T07:29:55Z</time>
      </trkpt>
      <trkpt lat="46.9191" lon="-0.56312">
        <ele>142.8</ele>
        <time>2012-07-22T07:29:56Z</time>
      </trkpt>
      <trkpt lat="46.91914" lon="-0.56305">
        <ele>142.5</ele>
        <time>2012-07-22T07:29:57Z</time>
      </trkpt>
      <trkpt lat="46.91918" lon="-0.56298">
        <ele>142.3</ele>
        <time>2012-07-22T07:29:58Z</time>
      </trkpt>
      <trkpt lat="46.91923" lon="-0.56292">
        <ele>142</ele>
        <time>2012-07-22T07:29:59Z</time>
      </trkpt>
      <trkpt lat="46.91927" lon="-0.56286">
        <ele>141.6</ele>
        <time>2012-07-22T07:30:00Z</time>
      </trkpt>
      <trkpt lat="46.91931" lon="-0.5628">
        <ele>141.3</ele>
        <time>2012-07-22T07:30:01Z</time>
      </trkpt>
      <trkpt lat="46.91936" lon="-0.56274">
        <ele>141.1</ele>
        <time>2012-07-22T07:30:02Z</time>
      </trkpt>
      <trkpt lat="46.91941" lon="-0.56269">
        <ele>140.8</ele>
        <time>2012-07-22T07:30:03Z</time>
      </trkpt>
      <trkpt lat="46.91945" lon="-0.56263">
        <ele>140.6</ele>
        <time>2012-07-22T07:30:04Z</time>
      </trkpt>
      <trkpt lat="46.9195" lon="-0.56257">
        <ele>140.5</ele>
        <time>2012-07-22T07:30:05Z</time>
      </trkpt>
      <trkpt lat="46.91955" lon="-0.56252">
        <ele>140.3</ele>
        <time>2012-07-22T07:30:06Z</time>
      </trkpt>
      <trkpt lat="46.91959" lon="-0.56247">
        <ele>140.1</ele>
        <time>2012-07-22T07:30:07Z</time>
      </trkpt>
      <trkpt lat="46.91964" lon="-0.56241">
        <ele>140</ele>
        <time>2012-07-22T07:30:08Z</time>
      </trkpt>
      <trkpt lat="46.91969" lon="-0.56237">
        <ele>139.8</ele>
        <time>2012-07-22T07:30:09Z</time>
      </trkpt>
      <trkpt lat="46.91974" lon="-0.56232">
        <ele>139.6</ele>
        <time>2012-07-22T07:30:10Z</time>
      </trkpt>
      <trkpt lat="46.91979" lon="-0.56228">
        <ele>139.6</ele>
        <time>2012-07-22T07:30:11Z</time>
      </trkpt>
      <trkpt lat="46.91985" lon="-0.56223">
        <ele>139.5</ele>
        <time>2012-07-22T07:30:12Z</time>
      </trkpt>
      <trkpt lat="46.9199" lon="-0.56219">
        <ele>139.3</ele>
        <time>2012-07-22T07:30:13Z</time>
      </trkpt>
      <trkpt lat="46.91995" lon="-0.56215">
        <ele>139.1</ele>
        <time>2012-07-22T07:30:14Z</time>
      </trkpt>
      <trkpt lat="46.92" lon="-0.56211">
        <ele>139.1</ele>
        <time>2012-07-22T07:30:15Z</time>
      </trkpt>
      <trkpt lat="46.92006" lon="-0.56208">
        <ele>138.8</ele>
        <time>2012-07-22T07:30:16Z</time>
      </trkpt>
      <trkpt lat="46.92011" lon="-0.56204">
        <ele>138.6</ele>
        <time>2012-07-22T07:30:17Z</time>
      </trkpt>
      <trkpt lat="46.92016" lon="-0.562">
        <ele>138.6</ele>
        <time>2012-07-22T07:30:18Z</time>
      </trkpt>
      <trkpt lat="46.92021" lon="-0.56196">
        <ele>138.3</ele>
        <time>2012-07-22T07:30:19Z</time>
      </trkpt>
      <trkpt lat="46.92025" lon="-0.56193">
        <ele>138.3</ele>
        <time>2012-07-22T07:30:20Z</time>
      </trkpt>
      <trkpt lat="46.9203" lon="-0.56189">
        <ele>138.1</ele>
        <time>2012-07-22T07:30:21Z</time>
      </trkpt>
      <trkpt lat="46.92035" lon="-0.56185">
        <ele>138.1</ele>
        <time>2012-07-22T07:30:22Z</time>
      </trkpt>
      <trkpt lat="46.9204" lon="-0.56181">
        <ele>138</ele>
        <time>2012-07-22T07:30:23Z</time>
      </trkpt>
      <trkpt lat="46.92045" lon="-0.56177">
        <ele>137.8</ele>
        <time>2012-07-22T07:30:24Z</time>
      </trkpt>
      <trkpt lat="46.9205" lon="-0.56172">
        <ele>137.8</ele>
        <time>2012-07-22T07:30:25Z</time>
      </trkpt>
      <trkpt lat="46.92055" lon="-0.56168">
        <ele>137.8</ele>
        <time>2012-07-22T07:30:26Z</time>
      </trkpt>
      <trkpt lat="46.9206" lon="-0.56163">
        <ele>137.8</ele>
        <time>2012-07-22T07:30:27Z</time>
      </trkpt>
      <trkpt lat="46.92065" lon="-0.56157">
        <ele>137.8</ele>
        <time>2012-07-22T07:30:28Z</time>
      </trkpt>
      <trkpt lat="46.9207" lon="-0.56152">
        <ele>137.6</ele>
        <time>2012-07-22T07:30:29Z</time>
      </trkpt>
      <trkpt lat="46.92075" lon="-0.56146">
        <ele>137.6</ele>
        <time>2012-07-22T07:30:30Z</time>
      </trkpt>
      <trkpt lat="46.9208" lon="-0.5614">
        <ele>137.6</ele>
        <time>2012-07-22T07:30:31Z</time>
      </trkpt>
      <trkpt lat="46.92085" lon="-0.56134">
        <ele>137.5</ele>
        <time>2012-07-22T07:30:32Z</time>
      </trkpt>
      <trkpt lat="46.9209" lon="-0.56129">
        <ele>137.5</ele>
        <time>2012-07-22T07:30:33Z</time>
      </trkpt>
      <trkpt lat="46.92095" lon="-0.56124">
        <ele>137.5</ele>
        <time>2012-07-22T07:30:34Z</time>
      </trkpt>
      <trkpt lat="46.92099" lon="-0.56119">
        <ele>137.5</ele>
        <time>2012-07-22T07:30:35Z</time>
      </trkpt>
      <trkpt lat="46.92104" lon="-0.56115">
        <ele>137.3</ele>
        <time>2012-07-22T07:30:36Z</time>
      </trkpt>
      <trkpt lat="46.92109" lon="-0.5611">
        <ele>137.3</ele>
        <time>2012-07-22T07:30:37Z</time>
      </trkpt>
      <trkpt lat="46.92114" lon="-0.56106">
        <ele>137.1</ele>
        <time>2012-07-22T07:30:38Z</time>
      </trkpt>
      <trkpt lat="46.9212" lon="-0.56102">
        <ele>137</ele>
        <time>2012-07-22T07:30:39Z</time>
      </trkpt>
      <trkpt lat="46.92125" lon="-0.56098">
        <ele>136.8</ele>
        <time>2012-07-22T07:30:40Z</time>
      </trkpt>
      <trkpt lat="46.92131" lon="-0.56094">
        <ele>136.6</ele>
        <time>2012-07-22T07:30:41Z</time>
      </trkpt>
      <trkpt lat="46.92136" lon="-0.56091">
        <ele>136.5</ele>
        <time>2012-07-22T07:30:42Z</time>
      </trkpt>
      <trkpt lat="46.92142" lon="-0.56087">
        <ele>136.3</ele>
        <time>2012-07-22T07:30:43Z</time>
      </trkpt>
      <trkpt lat="46.92147" lon="-0.56084">
        <ele>136.1</ele>
        <time>2012-07-22T07:30:44Z</time>
      </trkpt>
      <trkpt lat="46.92153" lon="-0.5608">
        <ele>136</ele>
        <time>2012-07-22T07:30:45Z</time>
      </trkpt>
      <trkpt lat="46.92159" lon="-0.56077">
        <ele>135.8</ele>
        <time>2012-07-22T07:30:46Z</time>
      </trkpt>
      <trkpt lat="46.92164" lon="-0.56073">
        <ele>135.6</ele>
        <time>2012-07-22T07:30:47Z</time>
      </trkpt>
      <trkpt lat="46.9217" lon="-0.5607">
        <ele>135.3</ele>
        <time>2012-07-22T07:30:48Z</time>
      </trkpt>
      <trkpt lat="46.92176" lon="-0.56067">
        <ele>135.1</ele>
        <time>2012-07-22T07:30:49Z</time>
      </trkpt>
      <trkpt lat="46.92181" lon="-0.56063">
        <ele>135</ele>
        <time>2012-07-22T07:30:50Z</time>
      </trkpt>
      <trkpt lat="46.92187" lon="-0.5606">
        <ele>134.8</ele>
        <time>2012-07-22T07:30:51Z</time>
      </trkpt>
      <trkpt lat="46.92192" lon="-0.56057">
        <ele>134.6</ele>
        <time>2012-07-22T07:30:52Z</time>
      </trkpt>
      <trkpt lat="46.92198" lon="-0.56053">
        <ele>134.6</ele>
        <time>2012-07-22T07:30:53Z</time>
      </trkpt>
      <trkpt lat="46.92203" lon="-0.56049">
        <ele>134.6</ele>
        <time>2012-07-22T07:30:54Z</time>
      </trkpt>
      <trkpt lat="46.92208" lon="-0.56045">
        <ele>134.6</ele>
        <time>2012-07-22T07:30:55Z</time>
      </trkpt>
      <trkpt lat="46.92213" lon="-0.56041">
        <ele>134.6</ele>
        <time>2012-07-22T07:30:56Z</time>
      </trkpt>
      <trkpt lat="46.92218" lon="-0.56038">
        <ele>134.8</ele>
        <time>2012-07-22T07:30:57Z</time>
      </trkpt>
      <trkpt lat="46.92223" lon="-0.56034">
        <ele>135</ele>
        <time>2012-07-22T07:30:58Z</time>
      </trkpt>
      <trkpt lat="46.92228" lon="-0.56031">
        <ele>135.1</ele>
        <time>2012-07-22T07:30:59Z</time>
      </trkpt>
      <trkpt lat="46.92232" lon="-0.56029">
        <ele>135.3</ele>
        <time>2012-07-22T07:31:00Z</time>
      </trkpt>
      <trkpt lat="46.92237" lon="-0.56026">
        <ele>135.3</ele>
        <time>2012-07-22T07:31:01Z</time>
      </trkpt>
      <trkpt lat="46.92242" lon="-0.56025">
        <ele>135.5</ele>
        <time>2012-07-22T07:31:02Z</time>
      </trkpt>
      <trkpt lat="46.92246" lon="-0.56023">
        <ele>135.6</ele>
        <time>2012-07-22T07:31:03Z</time>
      </trkpt>
      <trkpt lat="46.92251" lon="-0.56021">
        <ele>136</ele>
        <time>2012-07-22T07:31:04Z</time>
      </trkpt>
      <trkpt lat="46.92256" lon="-0.5602">
        <ele>136.1</ele>
        <time>2012-07-22T07:31:05Z</time>
      </trkpt>
      <trkpt lat="46.92261" lon="-0.56018">
        <ele>136.5</ele>
        <time>2012-07-22T07:31:06Z</time>
      </trkpt>
      <trkpt lat="46.92269" lon="-0.56014">
        <ele>136.8</ele>
        <time>2012-07-22T07:31:08Z</time>
      </trkpt>
      <trkpt lat="46.92277" lon="-0.56009">
        <ele>137.5</ele>
        <time>2012-07-22T07:31:10Z</time>
      </trkpt>
      <trkpt lat="46.92282" lon="-0.56003">
        <ele>137.5</ele>
        <time>2012-07-22T07:31:12Z</time>
      </trkpt>
      <trkpt lat="46.92288" lon="-0.55996">
        <ele>137.6</ele>
        <time>2012-07-22T07:31:14Z</time>
      </trkpt>
      <trkpt lat="46.92295" lon="-0.55988">
        <ele>138</ele>
        <time>2012-07-22T07:31:16Z</time>
      </trkpt>
      <trkpt lat="46.92301" lon="-0.5598">
        <ele>138.3</ele>
        <time>2012-07-22T07:31:18Z</time>
      </trkpt>
      <trkpt lat="46.92307" lon="-0.55972">
        <ele>138.6</ele>
        <time>2012-07-22T07:31:20Z</time>
      </trkpt>
      <trkpt lat="46.92314" lon="-0.55965">
        <ele>139.1</ele>
        <time>2012-07-22T07:31:22Z</time>
      </trkpt>
      <trkpt lat="46.92321" lon="-0.55958">
        <ele>139.3</ele>
        <time>2012-07-22T07:31:24Z</time>
      </trkpt>
      <trkpt lat="46.92325" lon="-0.55955">
        <ele>139.6</ele>
        <time>2012-07-22T07:31:25Z</time>
      </trkpt>
      <trkpt lat="46.92329" lon="-0.55951">
        <ele>139.8</ele>
        <time>2012-07-22T07:31:26Z</time>
      </trkpt>
      <trkpt lat="46.92334" lon="-0.55948">
        <ele>140</ele>
        <time>2012-07-22T07:31:27Z</time>
      </trkpt>
      <trkpt lat="46.92338" lon="-0.55944">
        <ele>140.1</ele>
        <time>2012-07-22T07:31:28Z</time>
      </trkpt>
      <trkpt lat="46.92342" lon="-0.5594">
        <ele>140.1</ele>
        <time>2012-07-22T07:31:29Z</time>
      </trkpt>
      <trkpt lat="46.92347" lon="-0.55935">
        <ele>140</ele>
        <time>2012-07-22T07:31:30Z</time>
      </trkpt>
      <trkpt lat="46.92353" lon="-0.5593">
        <ele>139.8</ele>
        <time>2012-07-22T07:31:31Z</time>
      </trkpt>
      <trkpt lat="46.92359" lon="-0.55925">
        <ele>139.6</ele>
        <time>2012-07-22T07:31:32Z</time>
      </trkpt>
      <trkpt lat="46.92365" lon="-0.55919">
        <ele>139.5</ele>
        <time>2012-07-22T07:31:33Z</time>
      </trkpt>
      <trkpt lat="46.92371" lon="-0.55913">
        <ele>139.3</ele>
        <time>2012-07-22T07:31:34Z</time>
      </trkpt>
      <trkpt lat="46.92378" lon="-0.55906">
        <ele>139.1</ele>
        <time>2012-07-22T07:31:35Z</time>
      </trkpt>
      <trkpt lat="46.92385" lon="-0.559">
        <ele>139.1</ele>
        <time>2012-07-22T07:31:36Z</time>
      </trkpt>
      <trkpt lat="46.92391" lon="-0.55893">
        <ele>139</ele>
        <time>2012-07-22T07:31:37Z</time>
      </trkpt>
      <trkpt lat="46.92398" lon="-0.55886">
        <ele>138.8</ele>
        <time>2012-07-22T07:31:38Z</time>
      </trkpt>
      <trkpt lat="46.92405" lon="-0.55878">
        <ele>138.8</ele>
        <time>2012-07-22T07:31:39Z</time>
      </trkpt>
      <trkpt lat="46.92411" lon="-0.5587">
        <ele>138.8</ele>
        <time>2012-07-22T07:31:40Z</time>
      </trkpt>
      <trkpt lat="46.92417" lon="-0.55862">
        <ele>138.8</ele>
        <time>2012-07-22T07:31:41Z</time>
      </trkpt>
      <trkpt lat="46.92424" lon="-0.55852">
        <ele>138.8</ele>
        <time>2012-07-22T07:31:42Z</time>
      </trkpt>
      <trkpt lat="46.9243" lon="-0.55841">
        <ele>138.6</ele>
        <time>2012-07-22T07:31:43Z</time>
      </trkpt>
      <trkpt lat="46.92437" lon="-0.5583">
        <ele>138.6</ele>
        <time>2012-07-22T07:31:44Z</time>
      </trkpt>
      <trkpt lat="46.92444" lon="-0.55818">
        <ele>138.5</ele>
        <time>2012-07-22T07:31:45Z</time>
      </trkpt>
      <trkpt lat="46.92451" lon="-0.55806">
        <ele>138.3</ele>
        <time>2012-07-22T07:31:46Z</time>
      </trkpt>
      <trkpt lat="46.92458" lon="-0.55794">
        <ele>138.1</ele>
        <time>2012-07-22T07:31:47Z</time>
      </trkpt>
      <trkpt lat="46.92466" lon="-0.55782">
        <ele>137.8</ele>
        <time>2012-07-22T07:31:48Z</time>
      </trkpt>
      <trkpt lat="46.92474" lon="-0.55771">
        <ele>137.6</ele>
        <time>2012-07-22T07:31:49Z</time>
      </trkpt>
      <trkpt lat="46.92482" lon="-0.5576">
        <ele>137.3</ele>
        <time>2012-07-22T07:31:50Z</time>
      </trkpt>
      <trkpt lat="46.9249" lon="-0.55749">
        <ele>137.1</ele>
        <time>2012-07-22T07:31:51Z</time>
      </trkpt>
      <trkpt lat="46.92498" lon="-0.55739">
        <ele>136.8</ele>
        <time>2012-07-22T07:31:52Z</time>
      </trkpt>
      <trkpt lat="46.92505" lon="-0.55729">
        <ele>136.3</ele>
        <time>2012-07-22T07:31:53Z</time>
      </trkpt>
      <trkpt lat="46.92513" lon="-0.55719">
        <ele>136.1</ele>
        <time>2012-07-22T07:31:54Z</time>
      </trkpt>
      <trkpt lat="46.9252" lon="-0.55711">
        <ele>135.8</ele>
        <time>2012-07-22T07:31:55Z</time>
      </trkpt>
      <trkpt lat="46.92526" lon="-0.55703">
        <ele>135.6</ele>
        <time>2012-07-22T07:31:56Z</time>
      </trkpt>
      <trkpt lat="46.92532" lon="-0.55695">
        <ele>135.3</ele>
        <time>2012-07-22T07:31:57Z</time>
      </trkpt>
      <trkpt lat="46.92537" lon="-0.55689">
        <ele>134.8</ele>
        <time>2012-07-22T07:31:58Z</time>
      </trkpt>
      <trkpt lat="46.92542" lon="-0.55685">
        <ele>134.6</ele>
        <time>2012-07-22T07:31:59Z</time>
      </trkpt>
      <trkpt lat="46.92546" lon="-0.55681">
        <ele>134.3</ele>
        <time>2012-07-22T07:32:00Z</time>
      </trkpt>
      <trkpt lat="46.9255" lon="-0.55677">
        <ele>134</ele>
        <time>2012-07-22T07:32:01Z</time>
      </trkpt>
      <trkpt lat="46.92555" lon="-0.55674">
        <ele>133.6</ele>
        <time>2012-07-22T07:32:02Z</time>
      </trkpt>
      <trkpt lat="46.92559" lon="-0.5567">
        <ele>133.3</ele>
        <time>2012-07-22T07:32:03Z</time>
      </trkpt>
      <trkpt lat="46.92564" lon="-0.55666">
        <ele>133.1</ele>
        <time>2012-07-22T07:32:04Z</time>
      </trkpt>
      <trkpt lat="46.92569" lon="-0.55661">
        <ele>132.8</ele>
        <time>2012-07-22T07:32:05Z</time>
      </trkpt>
      <trkpt lat="46.92574" lon="-0.55656">
        <ele>132.5</ele>
        <time>2012-07-22T07:32:06Z</time>
      </trkpt>
      <trkpt lat="46.92578" lon="-0.55651">
        <ele>132.3</ele>
        <time>2012-07-22T07:32:07Z</time>
      </trkpt>
      <trkpt lat="46.92583" lon="-0.55646">
        <ele>132</ele>
        <time>2012-07-22T07:32:08Z</time>
      </trkpt>
      <trkpt lat="46.92587" lon="-0.5564">
        <ele>131.8</ele>
        <time>2012-07-22T07:32:09Z</time>
      </trkpt>
      <trkpt lat="46.92591" lon="-0.55635">
        <ele>131.5</ele>
        <time>2012-07-22T07:32:10Z</time>
      </trkpt>
      <trkpt lat="46.92595" lon="-0.5563">
        <ele>131.1</ele>
        <time>2012-07-22T07:32:11Z</time>
      </trkpt>
      <trkpt lat="46.92599" lon="-0.55625">
        <ele>130.8</ele>
        <time>2012-07-22T07:32:12Z</time>
      </trkpt>
      <trkpt lat="46.92603" lon="-0.55619">
        <ele>130.3</ele>
        <time>2012-07-22T07:32:13Z</time>
      </trkpt>
      <trkpt lat="46.92607" lon="-0.55614">
        <ele>130</ele>
        <time>2012-07-22T07:32:14Z</time>
      </trkpt>
      <trkpt lat="46.9261" lon="-0.55608">
        <ele>129.6</ele>
        <time>2012-07-22T07:32:15Z</time>
      </trkpt>
      <trkpt lat="46.92614" lon="-0.55603">
        <ele>129.3</ele>
        <time>2012-07-22T07:32:16Z</time>
      </trkpt>
      <trkpt lat="46.92618" lon="-0.55598">
        <ele>129.1</ele>
        <time>2012-07-22T07:32:17Z</time>
      </trkpt>
      <trkpt lat="46.92622" lon="-0.55592">
        <ele>128.8</ele>
        <time>2012-07-22T07:32:18Z</time>
      </trkpt>
      <trkpt lat="46.92625" lon="-0.55587">
        <ele>128.5</ele>
        <time>2012-07-22T07:32:19Z</time>
      </trkpt>
      <trkpt lat="46.92629" lon="-0.55581">
        <ele>128.1</ele>
        <time>2012-07-22T07:32:20Z</time>
      </trkpt>
      <trkpt lat="46.92633" lon="-0.55575">
        <ele>127.8</ele>
        <time>2012-07-22T07:32:21Z</time>
      </trkpt>
      <trkpt lat="46.92636" lon="-0.5557">
        <ele>127.5</ele>
        <time>2012-07-22T07:32:22Z</time>
      </trkpt>
      <trkpt lat="46.9264" lon="-0.55564">
        <ele>127</ele>
        <time>2012-07-22T07:32:23Z</time>
      </trkpt>
      <trkpt lat="46.92643" lon="-0.55557">
        <ele>126.9</ele>
        <time>2012-07-22T07:32:24Z</time>
      </trkpt>
      <trkpt lat="46.92647" lon="-0.55551">
        <ele>126.5</ele>
        <time>2012-07-22T07:32:25Z</time>
      </trkpt>
      <trkpt lat="46.92651" lon="-0.55544">
        <ele>126.3</ele>
        <time>2012-07-22T07:32:26Z</time>
      </trkpt>
      <trkpt lat="46.92654" lon="-0.55537">
        <ele>126</ele>
        <time>2012-07-22T07:32:27Z</time>
      </trkpt>
      <trkpt lat="46.92658" lon="-0.5553">
        <ele>125.9</ele>
        <time>2012-07-22T07:32:28Z</time>
      </trkpt>
      <trkpt lat="46.92661" lon="-0.55523">
        <ele>125.5</ele>
        <time>2012-07-22T07:32:29Z</time>
      </trkpt>
      <trkpt lat="46.92664" lon="-0.55516">
        <ele>125.3</ele>
        <time>2012-07-22T07:32:30Z</time>
      </trkpt>
      <trkpt lat="46.92667" lon="-0.55509">
        <ele>125</ele>
        <time>2012-07-22T07:32:31Z</time>
      </trkpt>
      <trkpt lat="46.92669" lon="-0.55501">
        <ele>124.8</ele>
        <time>2012-07-22T07:32:32Z</time>
      </trkpt>
      <trkpt lat="46.92671" lon="-0.55494">
        <ele>124.5</ele>
        <time>2012-07-22T07:32:33Z</time>
      </trkpt>
      <trkpt lat="46.92674" lon="-0.55486">
        <ele>124.4</ele>
        <time>2012-07-22T07:32:34Z</time>
      </trkpt>
      <trkpt lat="46.92675" lon="-0.55478">
        <ele>124</ele>
        <time>2012-07-22T07:32:35Z</time>
      </trkpt>
      <trkpt lat="46.92677" lon="-0.5547">
        <ele>123.9</ele>
        <time>2012-07-22T07:32:36Z</time>
      </trkpt>
      <trkpt lat="46.92679" lon="-0.55462">
        <ele>123.5</ele>
        <time>2012-07-22T07:32:37Z</time>
      </trkpt>
      <trkpt lat="46.9268" lon="-0.55455">
        <ele>123.4</ele>
        <time>2012-07-22T07:32:38Z</time>
      </trkpt>
      <trkpt lat="46.92682" lon="-0.55447">
        <ele>123</ele>
        <time>2012-07-22T07:32:39Z</time>
      </trkpt>
      <trkpt lat="46.92683" lon="-0.55439">
        <ele>122.9</ele>
        <time>2012-07-22T07:32:40Z</time>
      </trkpt>
      <trkpt lat="46.92684" lon="-0.55431">
        <ele>122.5</ele>
        <time>2012-07-22T07:32:41Z</time>
      </trkpt>
      <trkpt lat="46.92686" lon="-0.55423">
        <ele>122.4</ele>
        <time>2012-07-22T07:32:42Z</time>
      </trkpt>
      <trkpt lat="46.92687" lon="-0.55415">
        <ele>122</ele>
        <time>2012-07-22T07:32:43Z</time>
      </trkpt>
      <trkpt lat="46.92689" lon="-0.55406">
        <ele>121.9</ele>
        <time>2012-07-22T07:32:44Z</time>
      </trkpt>
      <trkpt lat="46.92691" lon="-0.55398">
        <ele>121.5</ele>
        <time>2012-07-22T07:32:45Z</time>
      </trkpt>
      <trkpt lat="46.92694" lon="-0.5539">
        <ele>121.3</ele>
        <time>2012-07-22T07:32:46Z</time>
      </trkpt>
      <trkpt lat="46.92697" lon="-0.55383">
        <ele>121</ele>
        <time>2012-07-22T07:32:47Z</time>
      </trkpt>
      <trkpt lat="46.927" lon="-0.55375">
        <ele>120.8</ele>
        <time>2012-07-22T07:32:48Z</time>
      </trkpt>
      <trkpt lat="46.92704" lon="-0.55368">
        <ele>120.5</ele>
        <time>2012-07-22T07:32:49Z</time>
      </trkpt>
      <trkpt lat="46.92707" lon="-0.5536">
        <ele>120.5</ele>
        <time>2012-07-22T07:32:50Z</time>
      </trkpt>
      <trkpt lat="46.9271" lon="-0.55353">
        <ele>120.4</ele>
        <time>2012-07-22T07:32:51Z</time>
      </trkpt>
      <trkpt lat="46.92713" lon="-0.55346">
        <ele>120.4</ele>
        <time>2012-07-22T07:32:52Z</time>
      </trkpt>
      <trkpt lat="46.92717" lon="-0.55339">
        <ele>120.3</ele>
        <time>2012-07-22T07:32:53Z</time>
      </trkpt>
      <trkpt lat="46.9272" lon="-0.55332">
        <ele>120</ele>
        <time>2012-07-22T07:32:54Z</time>
      </trkpt>
      <trkpt lat="46.92723" lon="-0.55326">
        <ele>120</ele>
        <time>2012-07-22T07:32:55Z</time>
      </trkpt>
      <trkpt lat="46.92726" lon="-0.5532">
        <ele>120</ele>
        <time>2012-07-22T07:32:56Z</time>
      </trkpt>
      <trkpt lat="46.92729" lon="-0.55314">
        <ele>120</ele>
        <time>2012-07-22T07:32:57Z</time>
      </trkpt>
      <trkpt lat="46.92733" lon="-0.55308">
        <ele>119.9</ele>
        <time>2012-07-22T07:32:58Z</time>
      </trkpt>
      <trkpt lat="46.92736" lon="-0.55302">
        <ele>119.9</ele>
        <time>2012-07-22T07:32:59Z</time>
      </trkpt>
      <trkpt lat="46.92739" lon="-0.55296">
        <ele>119.8</ele>
        <time>2012-07-22T07:33:00Z</time>
      </trkpt>
      <trkpt lat="46.92742" lon="-0.5529">
        <ele>119.8</ele>
        <time>2012-07-22T07:33:01Z</time>
      </trkpt>
      <trkpt lat="46.92744" lon="-0.55284">
        <ele>119.8</ele>
        <time>2012-07-22T07:33:02Z</time>
      </trkpt>
      <trkpt lat="46.92747" lon="-0.55278">
        <ele>119.8</ele>
        <time>2012-07-22T07:33:03Z</time>
      </trkpt>
      <trkpt lat="46.9275" lon="-0.55271">
        <ele>119.5</ele>
        <time>2012-07-22T07:33:04Z</time>
      </trkpt>
      <trkpt lat="46.92752" lon="-0.55265">
        <ele>119.5</ele>
        <time>2012-07-22T07:33:05Z</time>
      </trkpt>
      <trkpt lat="46.92755" lon="-0.55258">
        <ele>119.5</ele>
        <time>2012-07-22T07:33:06Z</time>
      </trkpt>
      <trkpt lat="46.92757" lon="-0.55252">
        <ele>119.5</ele>
        <time>2012-07-22T07:33:07Z</time>
      </trkpt>
      <trkpt lat="46.9276" lon="-0.55245">
        <ele>119.4</ele>
        <time>2012-07-22T07:33:08Z</time>
      </trkpt>
      <trkpt lat="46.92762" lon="-0.55238">
        <ele>119.4</ele>
        <time>2012-07-22T07:33:09Z</time>
      </trkpt>
      <trkpt lat="46.92765" lon="-0.55231">
        <ele>119.3</ele>
        <time>2012-07-22T07:33:10Z</time>
      </trkpt>
      <trkpt lat="46.92767" lon="-0.55225">
        <ele>119</ele>
        <time>2012-07-22T07:33:11Z</time>
      </trkpt>
      <trkpt lat="46.9277" lon="-0.55218">
        <ele>119</ele>
        <time>2012-07-22T07:33:12Z</time>
      </trkpt>
      <trkpt lat="46.92773" lon="-0.55211">
        <ele>119</ele>
        <time>2012-07-22T07:33:13Z</time>
      </trkpt>
      <trkpt lat="46.92775" lon="-0.55204">
        <ele>119</ele>
        <time>2012-07-22T07:33:14Z</time>
      </trkpt>
      <trkpt lat="46.92778" lon="-0.55197">
        <ele>119</ele>
        <time>2012-07-22T07:33:15Z</time>
      </trkpt>
      <trkpt lat="46.92781" lon="-0.5519">
        <ele>119</ele>
        <time>2012-07-22T07:33:16Z</time>
      </trkpt>
      <trkpt lat="46.92783" lon="-0.55183">
        <ele>118.9</ele>
        <time>2012-07-22T07:33:17Z</time>
      </trkpt>
      <trkpt lat="46.92786" lon="-0.55175">
        <ele>118.9</ele>
        <time>2012-07-22T07:33:18Z</time>
      </trkpt>
      <trkpt lat="46.92788" lon="-0.55168">
        <ele>118.9</ele>
        <time>2012-07-22T07:33:19Z</time>
      </trkpt>
      <trkpt lat="46.9279" lon="-0.55161">
        <ele>118.8</ele>
        <time>2012-07-22T07:33:20Z</time>
      </trkpt>
      <trkpt lat="46.92793" lon="-0.55153">
        <ele>118.5</ele>
        <time>2012-07-22T07:33:21Z</time>
      </trkpt>
      <trkpt lat="46.92795" lon="-0.55145">
        <ele>118.5</ele>
        <time>2012-07-22T07:33:22Z</time>
      </trkpt>
      <trkpt lat="46.92797" lon="-0.55138">
        <ele>118.5</ele>
        <time>2012-07-22T07:33:23Z</time>
      </trkpt>
      <trkpt lat="46.92799" lon="-0.5513">
        <ele>118.4</ele>
        <time>2012-07-22T07:33:24Z</time>
      </trkpt>
      <trkpt lat="46.92801" lon="-0.55123">
        <ele>118.3</ele>
        <time>2012-07-22T07:33:25Z</time>
      </trkpt>
      <trkpt lat="46.92804" lon="-0.55115">
        <ele>118.3</ele>
        <time>2012-07-22T07:33:26Z</time>
      </trkpt>
      <trkpt lat="46.92806" lon="-0.55107">
        <ele>118</ele>
        <time>2012-07-22T07:33:27Z</time>
      </trkpt>
      <trkpt lat="46.92808" lon="-0.551">
        <ele>118</ele>
        <time>2012-07-22T07:33:28Z</time>
      </trkpt>
      <trkpt lat="46.92811" lon="-0.55092">
        <ele>118</ele>
        <time>2012-07-22T07:33:29Z</time>
      </trkpt>
      <trkpt lat="46.92813" lon="-0.55084">
        <ele>118</ele>
        <time>2012-07-22T07:33:30Z</time>
      </trkpt>
      <trkpt lat="46.92816" lon="-0.55077">
        <ele>118</ele>
        <time>2012-07-22T07:33:31Z</time>
      </trkpt>
      <trkpt lat="46.92819" lon="-0.5507">
        <ele>118</ele>
        <time>2012-07-22T07:33:32Z</time>
      </trkpt>
      <trkpt lat="46.92822" lon="-0.55062">
        <ele>117.9</ele>
        <time>2012-07-22T07:33:33Z</time>
      </trkpt>
      <trkpt lat="46.92825" lon="-0.55055">
        <ele>117.9</ele>
        <time>2012-07-22T07:33:34Z</time>
      </trkpt>
      <trkpt lat="46.92827" lon="-0.55048">
        <ele>117.8</ele>
        <time>2012-07-22T07:33:35Z</time>
      </trkpt>
      <trkpt lat="46.9283" lon="-0.5504">
        <ele>117.8</ele>
        <time>2012-07-22T07:33:36Z</time>
      </trkpt>
      <trkpt lat="46.92833" lon="-0.55033">
        <ele>117.8</ele>
        <time>2012-07-22T07:33:37Z</time>
      </trkpt>
      <trkpt lat="46.92836" lon="-0.55025">
        <ele>117.8</ele>
        <time>2012-07-22T07:33:38Z</time>
      </trkpt>
      <trkpt lat="46.92839" lon="-0.55017">
        <ele>117.8</ele>
        <time>2012-07-22T07:33:39Z</time>
      </trkpt>
      <trkpt lat="46.92842" lon="-0.55009">
        <ele>117.8</ele>
        <time>2012-07-22T07:33:40Z</time>
      </trkpt>
      <trkpt lat="46.92845" lon="-0.55002">
        <ele>117.9</ele>
        <time>2012-07-22T07:33:41Z</time>
      </trkpt>
      <trkpt lat="46.92848" lon="-0.54994">
        <ele>117.8</ele>
        <time>2012-07-22T07:33:42Z</time>
      </trkpt>
      <trkpt lat="46.92851" lon="-0.54987">
        <ele>117.8</ele>
        <time>2012-07-22T07:33:43Z</time>
      </trkpt>
      <trkpt lat="46.92855" lon="-0.54981">
        <ele>117.8</ele>
        <time>2012-07-22T07:33:44Z</time>
      </trkpt>
      <trkpt lat="46.9286" lon="-0.54976">
        <ele>117.8</ele>
        <time>2012-07-22T07:33:45Z</time>
      </trkpt>
      <trkpt lat="46.92865" lon="-0.54972">
        <ele>117.8</ele>
        <time>2012-07-22T07:33:46Z</time>
      </trkpt>
      <trkpt lat="46.9287" lon="-0.5497">
        <ele>117.5</ele>
        <time>2012-07-22T07:33:47Z</time>
      </trkpt>
      <trkpt lat="46.92876" lon="-0.54968">
        <ele>117.5</ele>
        <time>2012-07-22T07:33:48Z</time>
      </trkpt>
      <trkpt lat="46.92881" lon="-0.54967">
        <ele>117.5</ele>
        <time>2012-07-22T07:33:49Z</time>
      </trkpt>
      <trkpt lat="46.92887" lon="-0.54965">
        <ele>117.5</ele>
        <time>2012-07-22T07:33:50Z</time>
      </trkpt>
      <trkpt lat="46.92893" lon="-0.54963">
        <ele>117.5</ele>
        <time>2012-07-22T07:33:51Z</time>
      </trkpt>
      <trkpt lat="46.92899" lon="-0.54961">
        <ele>117.4</ele>
        <time>2012-07-22T07:33:52Z</time>
      </trkpt>
      <trkpt lat="46.92905" lon="-0.54958">
        <ele>117.4</ele>
        <time>2012-07-22T07:33:53Z</time>
      </trkpt>
      <trkpt lat="46.92911" lon="-0.54956">
        <ele>117.4</ele>
        <time>2012-07-22T07:33:54Z</time>
      </trkpt>
      <trkpt lat="46.92916" lon="-0.54953">
        <ele>117.4</ele>
        <time>2012-07-22T07:33:55Z</time>
      </trkpt>
      <trkpt lat="46.92922" lon="-0.54951">
        <ele>117.5</ele>
        <time>2012-07-22T07:33:56Z</time>
      </trkpt>
      <trkpt lat="46.92927" lon="-0.54948">
        <ele>117.5</ele>
        <time>2012-07-22T07:33:57Z</time>
      </trkpt>
      <trkpt lat="46.92933" lon="-0.54945">
        <ele>117.4</ele>
        <time>2012-07-22T07:33:58Z</time>
      </trkpt>
      <trkpt lat="46.92938" lon="-0.54943">
        <ele>117.4</ele>
        <time>2012-07-22T07:33:59Z</time>
      </trkpt>
      <trkpt lat="46.92944" lon="-0.5494">
        <ele>117.3</ele>
        <time>2012-07-22T07:34:00Z</time>
      </trkpt>
      <trkpt lat="46.92949" lon="-0.54938">
        <ele>117</ele>
        <time>2012-07-22T07:34:01Z</time>
      </trkpt>
      <trkpt lat="46.92954" lon="-0.54935">
        <ele>117</ele>
        <time>2012-07-22T07:34:02Z</time>
      </trkpt>
      <trkpt lat="46.92959" lon="-0.54933">
        <ele>117</ele>
        <time>2012-07-22T07:34:03Z</time>
      </trkpt>
      <trkpt lat="46.92963" lon="-0.5493">
        <ele>117</ele>
        <time>2012-07-22T07:34:04Z</time>
      </trkpt>
      <trkpt lat="46.92968" lon="-0.54928">
        <ele>117</ele>
        <time>2012-07-22T07:34:05Z</time>
      </trkpt>
      <trkpt lat="46.92976" lon="-0.54924">
        <ele>117</ele>
        <time>2012-07-22T07:34:07Z</time>
      </trkpt>
      <trkpt lat="46.92984" lon="-0.54921">
        <ele>116.9</ele>
        <time>2012-07-22T07:34:09Z</time>
      </trkpt>
      <trkpt lat="46.92992" lon="-0.54917">
        <ele>116.8</ele>
        <time>2012-07-22T07:34:11Z</time>
      </trkpt>
      <trkpt lat="46.93" lon="-0.54913">
        <ele>116.8</ele>
        <time>2012-07-22T07:34:13Z</time>
      </trkpt>
      <trkpt lat="46.93002" lon="-0.549">
        <ele>116.5</ele>
        <time>2012-07-22T07:34:15Z</time>
      </trkpt>
      <trkpt lat="46.93001" lon="-0.54894">
        <ele>116.4</ele>
        <time>2012-07-22T07:34:16Z</time>
      </trkpt>
      <trkpt lat="46.93" lon="-0.54886">
        <ele>116</ele>
        <time>2012-07-22T07:34:17Z</time>
      </trkpt>
      <trkpt lat="46.92997" lon="-0.54878">
        <ele>116</ele>
        <time>2012-07-22T07:34:18Z</time>
      </trkpt>
      <trkpt lat="46.92995" lon="-0.5487">
        <ele>116</ele>
        <time>2012-07-22T07:34:19Z</time>
      </trkpt>
      <trkpt lat="46.92992" lon="-0.54861">
        <ele>116</ele>
        <time>2012-07-22T07:34:20Z</time>
      </trkpt>
      <trkpt lat="46.92989" lon="-0.54851">
        <ele>116</ele>
        <time>2012-07-22T07:34:21Z</time>
      </trkpt>
      <trkpt lat="46.92987" lon="-0.54842">
        <ele>116</ele>
        <time>2012-07-22T07:34:22Z</time>
      </trkpt>
      <trkpt lat="46.92984" lon="-0.54832">
        <ele>116</ele>
        <time>2012-07-22T07:34:23Z</time>
      </trkpt>
      <trkpt lat="46.92982" lon="-0.54822">
        <ele>116</ele>
        <time>2012-07-22T07:34:24Z</time>
      </trkpt>
      <trkpt lat="46.9298" lon="-0.54813">
        <ele>116.3</ele>
        <time>2012-07-22T07:34:25Z</time>
      </trkpt>
      <trkpt lat="46.92978" lon="-0.54803">
        <ele>116.3</ele>
        <time>2012-07-22T07:34:26Z</time>
      </trkpt>
      <trkpt lat="46.92976" lon="-0.54793">
        <ele>116.3</ele>
        <time>2012-07-22T07:34:27Z</time>
      </trkpt>
      <trkpt lat="46.92974" lon="-0.54783">
        <ele>116.4</ele>
        <time>2012-07-22T07:34:28Z</time>
      </trkpt>
      <trkpt lat="46.92972" lon="-0.54773">
        <ele>116.4</ele>
        <time>2012-07-22T07:34:29Z</time>
      </trkpt>
      <trkpt lat="46.9297" lon="-0.54763">
        <ele>116.4</ele>
        <time>2012-07-22T07:34:30Z</time>
      </trkpt>
      <trkpt lat="46.92968" lon="-0.54753">
        <ele>116.4</ele>
        <time>2012-07-22T07:34:31Z</time>
      </trkpt>
      <trkpt lat="46.92966" lon="-0.54743">
        <ele>116.4</ele>
        <time>2012-07-22T07:34:32Z</time>
      </trkpt>
      <trkpt lat="46.92964" lon="-0.54734">
        <ele>116.3</ele>
        <time>2012-07-22T07:34:33Z</time>
      </trkpt>
      <trkpt lat="46.92962" lon="-0.54725">
        <ele>116.3</ele>
        <time>2012-07-22T07:34:34Z</time>
      </trkpt>
      <trkpt lat="46.9296" lon="-0.54715">
        <ele>116.3</ele>
        <time>2012-07-22T07:34:35Z</time>
      </trkpt>
      <trkpt lat="46.92958" lon="-0.54706">
        <ele>116</ele>
        <time>2012-07-22T07:34:36Z</time>
      </trkpt>
      <trkpt lat="46.92956" lon="-0.54697">
        <ele>116</ele>
        <time>2012-07-22T07:34:37Z</time>
      </trkpt>
      <trkpt lat="46.92954" lon="-0.54688">
        <ele>116</ele>
        <time>2012-07-22T07:34:38Z</time>
      </trkpt>
      <trkpt lat="46.92952" lon="-0.54678">
        <ele>116</ele>
        <time>2012-07-22T07:34:39Z</time>
      </trkpt>
      <trkpt lat="46.9295" lon="-0.54669">
        <ele>116</ele>
        <time>2012-07-22T07:34:40Z</time>
      </trkpt>
      <trkpt lat="46.92948" lon="-0.5466">
        <ele>115.9</ele>
        <time>2012-07-22T07:34:41Z</time>
      </trkpt>
      <trkpt lat="46.92945" lon="-0.5465">
        <ele>115.8</ele>
        <time>2012-07-22T07:34:42Z</time>
      </trkpt>
      <trkpt lat="46.92943" lon="-0.5464">
        <ele>115.8</ele>
        <time>2012-07-22T07:34:43Z</time>
      </trkpt>
      <trkpt lat="46.92941" lon="-0.5463">
        <ele>115.8</ele>
        <time>2012-07-22T07:34:44Z</time>
      </trkpt>
      <trkpt lat="46.92939" lon="-0.5462">
        <ele>115.8</ele>
        <time>2012-07-22T07:34:45Z</time>
      </trkpt>
      <trkpt lat="46.92937" lon="-0.5461">
        <ele>115.9</ele>
        <time>2012-07-22T07:34:46Z</time>
      </trkpt>
      <trkpt lat="46.92934" lon="-0.546">
        <ele>115.9</ele>
        <time>2012-07-22T07:34:47Z</time>
      </trkpt>
      <trkpt lat="46.92932" lon="-0.5459">
        <ele>115.9</ele>
        <time>2012-07-22T07:34:48Z</time>
      </trkpt>
      <trkpt lat="46.9293" lon="-0.54581">
        <ele>116</ele>
        <time>2012-07-22T07:34:49Z</time>
      </trkpt>
      <trkpt lat="46.92928" lon="-0.54571">
        <ele>116</ele>
        <time>2012-07-22T07:34:50Z</time>
      </trkpt>
      <trkpt lat="46.92925" lon="-0.54561">
        <ele>116</ele>
        <time>2012-07-22T07:34:51Z</time>
      </trkpt>
      <trkpt lat="46.92923" lon="-0.54552">
        <ele>116</ele>
        <time>2012-07-22T07:34:52Z</time>
      </trkpt>
      <trkpt lat="46.92921" lon="-0.54542">
        <ele>116</ele>
        <time>2012-07-22T07:34:53Z</time>
      </trkpt>
      <trkpt lat="46.92919" lon="-0.54533">
        <ele>116</ele>
        <time>2012-07-22T07:34:54Z</time>
      </trkpt>
      <trkpt lat="46.92917" lon="-0.54523">
        <ele>116</ele>
        <time>2012-07-22T07:34:55Z</time>
      </trkpt>
      <trkpt lat="46.92915" lon="-0.54514">
        <ele>116</ele>
        <time>2012-07-22T07:34:56Z</time>
      </trkpt>
      <trkpt lat="46.92913" lon="-0.54506">
        <ele>116</ele>
        <time>2012-07-22T07:34:57Z</time>
      </trkpt>
      <trkpt lat="46.92911" lon="-0.54497">
        <ele>116</ele>
        <time>2012-07-22T07:34:58Z</time>
      </trkpt>
      <trkpt lat="46.92909" lon="-0.54488">
        <ele>116</ele>
        <time>2012-07-22T07:34:59Z</time>
      </trkpt>
      <trkpt lat="46.92908" lon="-0.54479">
        <ele>116</ele>
        <time>2012-07-22T07:35:00Z</time>
      </trkpt>
      <trkpt lat="46.92906" lon="-0.5447">
        <ele>116</ele>
        <time>2012-07-22T07:35:01Z</time>
      </trkpt>
      <trkpt lat="46.92904" lon="-0.54462">
        <ele>115.9</ele>
        <time>2012-07-22T07:35:02Z</time>
      </trkpt>
      <trkpt lat="46.92902" lon="-0.54453">
        <ele>115.8</ele>
        <time>2012-07-22T07:35:03Z</time>
      </trkpt>
      <trkpt lat="46.929" lon="-0.54445">
        <ele>115.5</ele>
        <time>2012-07-22T07:35:04Z</time>
      </trkpt>
      <trkpt lat="46.92898" lon="-0.54436">
        <ele>115.5</ele>
        <time>2012-07-22T07:35:05Z</time>
      </trkpt>
      <trkpt lat="46.92896" lon="-0.54427">
        <ele>115.4</ele>
        <time>2012-07-22T07:35:06Z</time>
      </trkpt>
      <trkpt lat="46.92894" lon="-0.54418">
        <ele>115.3</ele>
        <time>2012-07-22T07:35:07Z</time>
      </trkpt>
      <trkpt lat="46.92893" lon="-0.54409">
        <ele>115</ele>
        <time>2012-07-22T07:35:08Z</time>
      </trkpt>
      <trkpt lat="46.92891" lon="-0.54401">
        <ele>115</ele>
        <time>2012-07-22T07:35:09Z</time>
      </trkpt>
      <trkpt lat="46.92889" lon="-0.54392">
        <ele>115</ele>
        <time>2012-07-22T07:35:10Z</time>
      </trkpt>
      <trkpt lat="46.92887" lon="-0.54382">
        <ele>115</ele>
        <time>2012-07-22T07:35:11Z</time>
      </trkpt>
      <trkpt lat="46.92885" lon="-0.54373">
        <ele>115</ele>
        <time>2012-07-22T07:35:12Z</time>
      </trkpt>
      <trkpt lat="46.92883" lon="-0.54364">
        <ele>115</ele>
        <time>2012-07-22T07:35:13Z</time>
      </trkpt>
      <trkpt lat="46.92881" lon="-0.54354">
        <ele>115</ele>
        <time>2012-07-22T07:35:14Z</time>
      </trkpt>
      <trkpt lat="46.92879" lon="-0.54345">
        <ele>114.9</ele>
        <time>2012-07-22T07:35:15Z</time>
      </trkpt>
      <trkpt lat="46.92877" lon="-0.54335">
        <ele>114.9</ele>
        <time>2012-07-22T07:35:16Z</time>
      </trkpt>
      <trkpt lat="46.92876" lon="-0.54325">
        <ele>114.9</ele>
        <time>2012-07-22T07:35:17Z</time>
      </trkpt>
      <trkpt lat="46.92878" lon="-0.54316">
        <ele>114.9</ele>
        <time>2012-07-22T07:35:18Z</time>
      </trkpt>
      <trkpt lat="46.92881" lon="-0.54307">
        <ele>114.5</ele>
        <time>2012-07-22T07:35:19Z</time>
      </trkpt>
      <trkpt lat="46.92885" lon="-0.543">
        <ele>114.5</ele>
        <time>2012-07-22T07:35:20Z</time>
      </trkpt>
      <trkpt lat="46.92891" lon="-0.54293">
        <ele>114.5</ele>
        <time>2012-07-22T07:35:21Z</time>
      </trkpt>
      <trkpt lat="46.92897" lon="-0.54286">
        <ele>114</ele>
        <time>2012-07-22T07:35:22Z</time>
      </trkpt>
      <trkpt lat="46.92903" lon="-0.54279">
        <ele>114</ele>
        <time>2012-07-22T07:35:23Z</time>
      </trkpt>
      <trkpt lat="46.9291" lon="-0.54272">
        <ele>113.5</ele>
        <time>2012-07-22T07:35:24Z</time>
      </trkpt>
      <trkpt lat="46.92918" lon="-0.54266">
        <ele>113.4</ele>
        <time>2012-07-22T07:35:25Z</time>
      </trkpt>
      <trkpt lat="46.92926" lon="-0.54258">
        <ele>113</ele>
        <time>2012-07-22T07:35:26Z</time>
      </trkpt>
      <trkpt lat="46.92934" lon="-0.54251">
        <ele>112.9</ele>
        <time>2012-07-22T07:35:27Z</time>
      </trkpt>
      <trkpt lat="46.92942" lon="-0.54243">
        <ele>112.5</ele>
        <time>2012-07-22T07:35:28Z</time>
      </trkpt>
      <trkpt lat="46.9295" lon="-0.54236">
        <ele>112.5</ele>
        <time>2012-07-22T07:35:29Z</time>
      </trkpt>
      <trkpt lat="46.92958" lon="-0.54228">
        <ele>112.3</ele>
        <time>2012-07-22T07:35:30Z</time>
      </trkpt>
      <trkpt lat="46.92967" lon="-0.5422">
        <ele>112</ele>
        <time>2012-07-22T07:35:31Z</time>
      </trkpt>
      <trkpt lat="46.92975" lon="-0.54212">
        <ele>112</ele>
        <time>2012-07-22T07:35:32Z</time>
      </trkpt>
      <trkpt lat="46.92984" lon="-0.54204">
        <ele>111.9</ele>
        <time>2012-07-22T07:35:33Z</time>
      </trkpt>
      <trkpt lat="46.92992" lon="-0.54196">
        <ele>111.5</ele>
        <time>2012-07-22T07:35:34Z</time>
      </trkpt>
      <trkpt lat="46.93" lon="-0.54188">
        <ele>111.5</ele>
        <time>2012-07-22T07:35:35Z</time>
      </trkpt>
      <trkpt lat="46.93008" lon="-0.5418">
        <ele>111.4</ele>
        <time>2012-07-22T07:35:36Z</time>
      </trkpt>
      <trkpt lat="46.93016" lon="-0.54173">
        <ele>111.3</ele>
        <time>2012-07-22T07:35:37Z</time>
      </trkpt>
      <trkpt lat="46.93023" lon="-0.54166">
        <ele>111</ele>
        <time>2012-07-22T07:35:38Z</time>
      </trkpt>
      <trkpt lat="46.9303" lon="-0.54159">
        <ele>111</ele>
        <time>2012-07-22T07:35:39Z</time>
      </trkpt>
      <trkpt lat="46.93036" lon="-0.54153">
        <ele>111</ele>
        <time>2012-07-22T07:35:40Z</time>
      </trkpt>
      <trkpt lat="46.93041" lon="-0.54148">
        <ele>110.9</ele>
        <time>2012-07-22T07:35:41Z</time>
      </trkpt>
      <trkpt lat="46.93046" lon="-0.54142">
        <ele>110.5</ele>
        <time>2012-07-22T07:35:42Z</time>
      </trkpt>
      <trkpt lat="46.93051" lon="-0.54137">
        <ele>110.5</ele>
        <time>2012-07-22T07:35:43Z</time>
      </trkpt>
      <trkpt lat="46.93055" lon="-0.54132">
        <ele>110.5</ele>
        <time>2012-07-22T07:35:44Z</time>
      </trkpt>
      <trkpt lat="46.93059" lon="-0.54127">
        <ele>110.4</ele>
        <time>2012-07-22T07:35:45Z</time>
      </trkpt>
      <trkpt lat="46.93063" lon="-0.5412">
        <ele>110.3</ele>
        <time>2012-07-22T07:35:46Z</time>
      </trkpt>
      <trkpt lat="46.93066" lon="-0.54112">
        <ele>110</ele>
        <time>2012-07-22T07:35:47Z</time>
      </trkpt>
      <trkpt lat="46.93069" lon="-0.54104">
        <ele>110</ele>
        <time>2012-07-22T07:35:48Z</time>
      </trkpt>
      <trkpt lat="46.93072" lon="-0.54095">
        <ele>109.9</ele>
        <time>2012-07-22T07:35:49Z</time>
      </trkpt>
      <trkpt lat="46.93075" lon="-0.54086">
        <ele>109.5</ele>
        <time>2012-07-22T07:35:50Z</time>
      </trkpt>
      <trkpt lat="46.93078" lon="-0.54076">
        <ele>109.5</ele>
        <time>2012-07-22T07:35:51Z</time>
      </trkpt>
      <trkpt lat="46.93081" lon="-0.54067">
        <ele>109.3</ele>
        <time>2012-07-22T07:35:52Z</time>
      </trkpt>
      <trkpt lat="46.93083" lon="-0.54057">
        <ele>108.9</ele>
        <time>2012-07-22T07:35:53Z</time>
      </trkpt>
      <trkpt lat="46.93086" lon="-0.5405">
        <ele>108.5</ele>
        <time>2012-07-22T07:35:54Z</time>
      </trkpt>
      <trkpt lat="46.9309" lon="-0.5404">
        <ele>108</ele>
        <time>2012-07-22T07:35:56Z</time>
      </trkpt>
      <trkpt lat="46.93085" lon="-0.5403">
        <ele>108</ele>
        <time>2012-07-22T07:35:59Z</time>
      </trkpt>
      <trkpt lat="46.93078" lon="-0.5403">
        <ele>107.3</ele>
        <time>2012-07-22T07:36:01Z</time>
      </trkpt>
      <trkpt lat="46.93073" lon="-0.54031">
        <ele>106.5</ele>
        <time>2012-07-22T07:36:02Z</time>
      </trkpt>
      <trkpt lat="46.93068" lon="-0.54032">
        <ele>106</ele>
        <time>2012-07-22T07:36:03Z</time>
      </trkpt>
      <trkpt lat="46.93062" lon="-0.54033">
        <ele>105.5</ele>
        <time>2012-07-22T07:36:04Z</time>
      </trkpt>
      <trkpt lat="46.93056" lon="-0.54034">
        <ele>105</ele>
        <time>2012-07-22T07:36:05Z</time>
      </trkpt>
      <trkpt lat="46.9305" lon="-0.54035">
        <ele>104.5</ele>
        <time>2012-07-22T07:36:06Z</time>
      </trkpt>
      <trkpt lat="46.93043" lon="-0.54036">
        <ele>104</ele>
        <time>2012-07-22T07:36:07Z</time>
      </trkpt>
      <trkpt lat="46.93036" lon="-0.54037">
        <ele>103.9</ele>
        <time>2012-07-22T07:36:08Z</time>
      </trkpt>
      <trkpt lat="46.93029" lon="-0.54038">
        <ele>103.5</ele>
        <time>2012-07-22T07:36:09Z</time>
      </trkpt>
      <trkpt lat="46.93022" lon="-0.54039">
        <ele>103.3</ele>
        <time>2012-07-22T07:36:10Z</time>
      </trkpt>
      <trkpt lat="46.93016" lon="-0.5404">
        <ele>103</ele>
        <time>2012-07-22T07:36:11Z</time>
      </trkpt>
      <trkpt lat="46.93009" lon="-0.54037">
        <ele>102.9</ele>
        <time>2012-07-22T07:36:13Z</time>
      </trkpt>
      <trkpt lat="46.93006" lon="-0.5403">
        <ele>102.5</ele>
        <time>2012-07-22T07:36:16Z</time>
      </trkpt>
      <trkpt lat="46.93008" lon="-0.54017">
        <ele>100.8</ele>
        <time>2012-07-22T07:36:18Z</time>
      </trkpt>
      <trkpt lat="46.9301" lon="-0.54009">
        <ele>100</ele>
        <time>2012-07-22T07:36:19Z</time>
      </trkpt>
      <trkpt lat="46.93011" lon="-0.54">
        <ele>99.3</ele>
        <time>2012-07-22T07:36:20Z</time>
      </trkpt>
      <trkpt lat="46.93013" lon="-0.53992">
        <ele>98.5</ele>
        <time>2012-07-22T07:36:21Z</time>
      </trkpt>
      <trkpt lat="46.93015" lon="-0.53982">
        <ele>98</ele>
        <time>2012-07-22T07:36:22Z</time>
      </trkpt>
      <trkpt lat="46.93016" lon="-0.53973">
        <ele>97.8</ele>
        <time>2012-07-22T07:36:23Z</time>
      </trkpt>
      <trkpt lat="46.93018" lon="-0.53964">
        <ele>97.5</ele>
        <time>2012-07-22T07:36:24Z</time>
      </trkpt>
      <trkpt lat="46.9302" lon="-0.53954">
        <ele>97.4</ele>
        <time>2012-07-22T07:36:25Z</time>
      </trkpt>
      <trkpt lat="46.93022" lon="-0.53945">
        <ele>97.3</ele>
        <time>2012-07-22T07:36:26Z</time>
      </trkpt>
      <trkpt lat="46.93024" lon="-0.53935">
        <ele>97.3</ele>
        <time>2012-07-22T07:36:27Z</time>
      </trkpt>
      <trkpt lat="46.93026" lon="-0.53925">
        <ele>97.3</ele>
        <time>2012-07-22T07:36:28Z</time>
      </trkpt>
      <trkpt lat="46.93028" lon="-0.53916">
        <ele>97.4</ele>
        <time>2012-07-22T07:36:29Z</time>
      </trkpt>
      <trkpt lat="46.93029" lon="-0.53906">
        <ele>97.4</ele>
        <time>2012-07-22T07:36:30Z</time>
      </trkpt>
      <trkpt lat="46.93031" lon="-0.53897">
        <ele>97.5</ele>
        <time>2012-07-22T07:36:31Z</time>
      </trkpt>
      <trkpt lat="46.93033" lon="-0.53887">
        <ele>97.5</ele>
        <time>2012-07-22T07:36:32Z</time>
      </trkpt>
      <trkpt lat="46.93035" lon="-0.53878">
        <ele>97.5</ele>
        <time>2012-07-22T07:36:33Z</time>
      </trkpt>
      <trkpt lat="46.93036" lon="-0.53869">
        <ele>97.8</ele>
        <time>2012-07-22T07:36:34Z</time>
      </trkpt>
      <trkpt lat="46.93038" lon="-0.53861">
        <ele>97.9</ele>
        <time>2012-07-22T07:36:35Z</time>
      </trkpt>
      <trkpt lat="46.93039" lon="-0.53854">
        <ele>98</ele>
        <time>2012-07-22T07:36:36Z</time>
      </trkpt>
      <trkpt lat="46.93042" lon="-0.53848">
        <ele>98.3</ele>
        <time>2012-07-22T07:36:37Z</time>
      </trkpt>
      <trkpt lat="46.93044" lon="-0.53842">
        <ele>98.5</ele>
        <time>2012-07-22T07:36:38Z</time>
      </trkpt>
      <trkpt lat="46.93047" lon="-0.53836">
        <ele>98.5</ele>
        <time>2012-07-22T07:36:39Z</time>
      </trkpt>
      <trkpt lat="46.93049" lon="-0.5383">
        <ele>98.9</ele>
        <time>2012-07-22T07:36:40Z</time>
      </trkpt>
      <trkpt lat="46.93052" lon="-0.53824">
        <ele>99</ele>
        <time>2012-07-22T07:36:41Z</time>
      </trkpt>
      <trkpt lat="46.93054" lon="-0.53819">
        <ele>99.3</ele>
        <time>2012-07-22T07:36:42Z</time>
      </trkpt>
      <trkpt lat="46.93057" lon="-0.53813">
        <ele>99.4</ele>
        <time>2012-07-22T07:36:43Z</time>
      </trkpt>
      <trkpt lat="46.93059" lon="-0.53806">
        <ele>99.5</ele>
        <time>2012-07-22T07:36:44Z</time>
      </trkpt>
      <trkpt lat="46.93061" lon="-0.538">
        <ele>100</ele>
        <time>2012-07-22T07:36:45Z</time>
      </trkpt>
      <trkpt lat="46.93063" lon="-0.53793">
        <ele>100.5</ele>
        <time>2012-07-22T07:36:46Z</time>
      </trkpt>
      <trkpt lat="46.93065" lon="-0.53786">
        <ele>100.8</ele>
        <time>2012-07-22T07:36:47Z</time>
      </trkpt>
      <trkpt lat="46.93067" lon="-0.5378">
        <ele>101</ele>
        <time>2012-07-22T07:36:48Z</time>
      </trkpt>
      <trkpt lat="46.9307" lon="-0.53768">
        <ele>101.5</ele>
        <time>2012-07-22T07:36:50Z</time>
      </trkpt>
      <trkpt lat="46.93072" lon="-0.53762">
        <ele>101.5</ele>
        <time>2012-07-22T07:36:51Z</time>
      </trkpt>
      <trkpt lat="46.93074" lon="-0.53756">
        <ele>101.5</ele>
        <time>2012-07-22T07:36:52Z</time>
      </trkpt>
      <trkpt lat="46.93076" lon="-0.53749">
        <ele>101.5</ele>
        <time>2012-07-22T07:36:53Z</time>
      </trkpt>
      <trkpt lat="46.93077" lon="-0.53742">
        <ele>101.5</ele>
        <time>2012-07-22T07:36:54Z</time>
      </trkpt>
      <trkpt lat="46.93078" lon="-0.53736">
        <ele>101.5</ele>
        <time>2012-07-22T07:36:55Z</time>
      </trkpt>
      <trkpt lat="46.93079" lon="-0.53729">
        <ele>101.8</ele>
        <time>2012-07-22T07:36:56Z</time>
      </trkpt>
      <trkpt lat="46.9308" lon="-0.53723">
        <ele>101.9</ele>
        <time>2012-07-22T07:36:57Z</time>
      </trkpt>
      <trkpt lat="46.93081" lon="-0.53716">
        <ele>101.9</ele>
        <time>2012-07-22T07:36:58Z</time>
      </trkpt>
      <trkpt lat="46.93082" lon="-0.53709">
        <ele>101.9</ele>
        <time>2012-07-22T07:36:59Z</time>
      </trkpt>
      <trkpt lat="46.93082" lon="-0.53703">
        <ele>101.9</ele>
        <time>2012-07-22T07:37:00Z</time>
      </trkpt>
      <trkpt lat="46.93083" lon="-0.53696">
        <ele>101.9</ele>
        <time>2012-07-22T07:37:01Z</time>
      </trkpt>
      <trkpt lat="46.93083" lon="-0.53689">
        <ele>101.9</ele>
        <time>2012-07-22T07:37:02Z</time>
      </trkpt>
      <trkpt lat="46.93083" lon="-0.53676">
        <ele>101.8</ele>
        <time>2012-07-22T07:37:04Z</time>
      </trkpt>
      <trkpt lat="46.93083" lon="-0.53666">
        <ele>101.8</ele>
        <time>2012-07-22T07:37:06Z</time>
      </trkpt>
      <trkpt lat="46.93083" lon="-0.53655">
        <ele>101.8</ele>
        <time>2012-07-22T07:37:08Z</time>
      </trkpt>
      <trkpt lat="46.93082" lon="-0.53645">
        <ele>101.8</ele>
        <time>2012-07-22T07:37:10Z</time>
      </trkpt>
      <trkpt lat="46.93082" lon="-0.53636">
        <ele>101.8</ele>
        <time>2012-07-22T07:37:12Z</time>
      </trkpt>
      <trkpt lat="46.93082" lon="-0.53626">
        <ele>101.8</ele>
        <time>2012-07-22T07:37:14Z</time>
      </trkpt>
      <trkpt lat="46.93082" lon="-0.53616">
        <ele>101.8</ele>
        <time>2012-07-22T07:37:16Z</time>
      </trkpt>
      <trkpt lat="46.93081" lon="-0.53606">
        <ele>101.8</ele>
        <time>2012-07-22T07:37:18Z</time>
      </trkpt>
      <trkpt lat="46.9308" lon="-0.53596">
        <ele>101.8</ele>
        <time>2012-07-22T07:37:20Z</time>
      </trkpt>
      <trkpt lat="46.93078" lon="-0.53586">
        <ele>101.9</ele>
        <time>2012-07-22T07:37:22Z</time>
      </trkpt>
      <trkpt lat="46.93077" lon="-0.53575">
        <ele>102</ele>
        <time>2012-07-22T07:37:24Z</time>
      </trkpt>
      <trkpt lat="46.93076" lon="-0.53564">
        <ele>102</ele>
        <time>2012-07-22T07:37:26Z</time>
      </trkpt>
      <trkpt lat="46.93074" lon="-0.53553">
        <ele>102.4</ele>
        <time>2012-07-22T07:37:28Z</time>
      </trkpt>
      <trkpt lat="46.93072" lon="-0.53544">
        <ele>102.5</ele>
        <time>2012-07-22T07:37:30Z</time>
      </trkpt>
      <trkpt lat="46.93069" lon="-0.53534">
        <ele>102.5</ele>
        <time>2012-07-22T07:37:32Z</time>
      </trkpt>
      <trkpt lat="46.93064" lon="-0.53524">
        <ele>103.4</ele>
        <time>2012-07-22T07:37:34Z</time>
      </trkpt>
      <trkpt lat="46.93061" lon="-0.53518">
        <ele>103.8</ele>
        <time>2012-07-22T07:37:35Z</time>
      </trkpt>
      <trkpt lat="46.93058" lon="-0.53513">
        <ele>104</ele>
        <time>2012-07-22T07:37:36Z</time>
      </trkpt>
      <trkpt lat="46.93055" lon="-0.53507">
        <ele>104</ele>
        <time>2012-07-22T07:37:37Z</time>
      </trkpt>
      <trkpt lat="46.93052" lon="-0.53501">
        <ele>104.4</ele>
        <time>2012-07-22T07:37:38Z</time>
      </trkpt>
      <trkpt lat="46.9305" lon="-0.53495">
        <ele>104.5</ele>
        <time>2012-07-22T07:37:39Z</time>
      </trkpt>
      <trkpt lat="46.93048" lon="-0.53489">
        <ele>104.4</ele>
        <time>2012-07-22T07:37:40Z</time>
      </trkpt>
      <trkpt lat="46.93045" lon="-0.53483">
        <ele>104.3</ele>
        <time>2012-07-22T07:37:41Z</time>
      </trkpt>
      <trkpt lat="46.93043" lon="-0.53475">
        <ele>104.5</ele>
        <time>2012-07-22T07:37:42Z</time>
      </trkpt>
      <trkpt lat="46.9304" lon="-0.53468">
        <ele>105</ele>
        <time>2012-07-22T07:37:43Z</time>
      </trkpt>
      <trkpt lat="46.93038" lon="-0.53459">
        <ele>105.5</ele>
        <time>2012-07-22T07:37:44Z</time>
      </trkpt>
      <trkpt lat="46.93036" lon="-0.5345">
        <ele>106.3</ele>
        <time>2012-07-22T07:37:45Z</time>
      </trkpt>
      <trkpt lat="46.93035" lon="-0.53442">
        <ele>106.8</ele>
        <time>2012-07-22T07:37:46Z</time>
      </trkpt>
      <trkpt lat="46.93033" lon="-0.53433">
        <ele>107.3</ele>
        <time>2012-07-22T07:37:47Z</time>
      </trkpt>
      <trkpt lat="46.93032" lon="-0.53426">
        <ele>107.5</ele>
        <time>2012-07-22T07:37:48Z</time>
      </trkpt>
      <trkpt lat="46.93032" lon="-0.53418">
        <ele>108</ele>
        <time>2012-07-22T07:37:49Z</time>
      </trkpt>
      <trkpt lat="46.93031" lon="-0.53411">
        <ele>108.3</ele>
        <time>2012-07-22T07:37:50Z</time>
      </trkpt>
      <trkpt lat="46.93031" lon="-0.53404">
        <ele>108.5</ele>
        <time>2012-07-22T07:37:51Z</time>
      </trkpt>
      <trkpt lat="46.9303" lon="-0.53397">
        <ele>108.8</ele>
        <time>2012-07-22T07:37:52Z</time>
      </trkpt>
      <trkpt lat="46.9303" lon="-0.5339">
        <ele>109</ele>
        <time>2012-07-22T07:37:53Z</time>
      </trkpt>
      <trkpt lat="46.93029" lon="-0.53383">
        <ele>109.3</ele>
        <time>2012-07-22T07:37:54Z</time>
      </trkpt>
      <trkpt lat="46.93029" lon="-0.53375">
        <ele>109.5</ele>
        <time>2012-07-22T07:37:55Z</time>
      </trkpt>
      <trkpt lat="46.93029" lon="-0.53368">
        <ele>109.5</ele>
        <time>2012-07-22T07:37:56Z</time>
      </trkpt>
      <trkpt lat="46.93028" lon="-0.53361">
        <ele>109.9</ele>
        <time>2012-07-22T07:37:57Z</time>
      </trkpt>
      <trkpt lat="46.93028" lon="-0.53355">
        <ele>110</ele>
        <time>2012-07-22T07:37:58Z</time>
      </trkpt>
      <trkpt lat="46.93027" lon="-0.53342">
        <ele>110.3</ele>
        <time>2012-07-22T07:38:00Z</time>
      </trkpt>
      <trkpt lat="46.93027" lon="-0.53335">
        <ele>110.5</ele>
        <time>2012-07-22T07:38:01Z</time>
      </trkpt>
      <trkpt lat="46.93026" lon="-0.53328">
        <ele>110.5</ele>
        <time>2012-07-22T07:38:02Z</time>
      </trkpt>
      <trkpt lat="46.93025" lon="-0.5332">
        <ele>110.8</ele>
        <time>2012-07-22T07:38:03Z</time>
      </trkpt>
      <trkpt lat="46.93024" lon="-0.53312">
        <ele>110.5</ele>
        <time>2012-07-22T07:38:04Z</time>
      </trkpt>
      <trkpt lat="46.93023" lon="-0.53304">
        <ele>110.5</ele>
        <time>2012-07-22T07:38:05Z</time>
      </trkpt>
      <trkpt lat="46.93021" lon="-0.53294">
        <ele>110.5</ele>
        <time>2012-07-22T07:38:06Z</time>
      </trkpt>
      <trkpt lat="46.93019" lon="-0.53284">
        <ele>110.5</ele>
        <time>2012-07-22T07:38:07Z</time>
      </trkpt>
      <trkpt lat="46.93016" lon="-0.53274">
        <ele>110.5</ele>
        <time>2012-07-22T07:38:08Z</time>
      </trkpt>
      <trkpt lat="46.93014" lon="-0.53263">
        <ele>110.5</ele>
        <time>2012-07-22T07:38:09Z</time>
      </trkpt>
      <trkpt lat="46.93011" lon="-0.53252">
        <ele>110.5</ele>
        <time>2012-07-22T07:38:10Z</time>
      </trkpt>
      <trkpt lat="46.93008" lon="-0.53239">
        <ele>110.5</ele>
        <time>2012-07-22T07:38:11Z</time>
      </trkpt>
      <trkpt lat="46.93006" lon="-0.53226">
        <ele>110.3</ele>
        <time>2012-07-22T07:38:12Z</time>
      </trkpt>
      <trkpt lat="46.93003" lon="-0.53213">
        <ele>110</ele>
        <time>2012-07-22T07:38:13Z</time>
      </trkpt>
      <trkpt lat="46.93001" lon="-0.53199">
        <ele>109.8</ele>
        <time>2012-07-22T07:38:14Z</time>
      </trkpt>
      <trkpt lat="46.92998" lon="-0.53186">
        <ele>109.5</ele>
        <time>2012-07-22T07:38:15Z</time>
      </trkpt>
      <trkpt lat="46.92996" lon="-0.53171">
        <ele>109</ele>
        <time>2012-07-22T07:38:16Z</time>
      </trkpt>
      <trkpt lat="46.92994" lon="-0.53157">
        <ele>108.9</ele>
        <time>2012-07-22T07:38:17Z</time>
      </trkpt>
      <trkpt lat="46.92992" lon="-0.53142">
        <ele>108.5</ele>
        <time>2012-07-22T07:38:18Z</time>
      </trkpt>
      <trkpt lat="46.9299" lon="-0.53127">
        <ele>108.3</ele>
        <time>2012-07-22T07:38:19Z</time>
      </trkpt>
      <trkpt lat="46.92987" lon="-0.53113">
        <ele>108</ele>
        <time>2012-07-22T07:38:20Z</time>
      </trkpt>
      <trkpt lat="46.92985" lon="-0.53098">
        <ele>107.5</ele>
        <time>2012-07-22T07:38:21Z</time>
      </trkpt>
      <trkpt lat="46.92982" lon="-0.53083">
        <ele>107.4</ele>
        <time>2012-07-22T07:38:22Z</time>
      </trkpt>
      <trkpt lat="46.92979" lon="-0.53069">
        <ele>106.9</ele>
        <time>2012-07-22T07:38:23Z</time>
      </trkpt>
      <trkpt lat="46.92975" lon="-0.53055">
        <ele>106.5</ele>
        <time>2012-07-22T07:38:24Z</time>
      </trkpt>
      <trkpt lat="46.92972" lon="-0.53042">
        <ele>106</ele>
        <time>2012-07-22T07:38:25Z</time>
      </trkpt>
      <trkpt lat="46.92969" lon="-0.53029">
        <ele>106</ele>
        <time>2012-07-22T07:38:26Z</time>
      </trkpt>
      <trkpt lat="46.92966" lon="-0.53016">
        <ele>105.5</ele>
        <time>2012-07-22T07:38:27Z</time>
      </trkpt>
      <trkpt lat="46.92964" lon="-0.53003">
        <ele>105.5</ele>
        <time>2012-07-22T07:38:28Z</time>
      </trkpt>
      <trkpt lat="46.92962" lon="-0.5299">
        <ele>105</ele>
        <time>2012-07-22T07:38:29Z</time>
      </trkpt>
      <trkpt lat="46.92961" lon="-0.52978">
        <ele>104.9</ele>
        <time>2012-07-22T07:38:30Z</time>
      </trkpt>
      <trkpt lat="46.9296" lon="-0.52966">
        <ele>104.5</ele>
        <time>2012-07-22T07:38:31Z</time>
      </trkpt>
      <trkpt lat="46.92959" lon="-0.52954">
        <ele>104.5</ele>
        <time>2012-07-22T07:38:32Z</time>
      </trkpt>
      <trkpt lat="46.92958" lon="-0.52942">
        <ele>104.4</ele>
        <time>2012-07-22T07:38:33Z</time>
      </trkpt>
      <trkpt lat="46.92957" lon="-0.5293">
        <ele>104</ele>
        <time>2012-07-22T07:38:34Z</time>
      </trkpt>
      <trkpt lat="46.92956" lon="-0.52918">
        <ele>104</ele>
        <time>2012-07-22T07:38:35Z</time>
      </trkpt>
      <trkpt lat="46.92955" lon="-0.52906">
        <ele>103.8</ele>
        <time>2012-07-22T07:38:36Z</time>
      </trkpt>
      <trkpt lat="46.92954" lon="-0.52895">
        <ele>103.5</ele>
        <time>2012-07-22T07:38:37Z</time>
      </trkpt>
      <trkpt lat="46.92955" lon="-0.52884">
        <ele>103.4</ele>
        <time>2012-07-22T07:38:38Z</time>
      </trkpt>
      <trkpt lat="46.92956" lon="-0.52873">
        <ele>103.4</ele>
        <time>2012-07-22T07:38:39Z</time>
      </trkpt>
      <trkpt lat="46.92956" lon="-0.52862">
        <ele>103.5</ele>
        <time>2012-07-22T07:38:40Z</time>
      </trkpt>
      <trkpt lat="46.92957" lon="-0.52851">
        <ele>103.5</ele>
        <time>2012-07-22T07:38:41Z</time>
      </trkpt>
      <trkpt lat="46.92957" lon="-0.5284">
        <ele>104</ele>
        <time>2012-07-22T07:38:42Z</time>
      </trkpt>
      <trkpt lat="46.92958" lon="-0.52829">
        <ele>104.3</ele>
        <time>2012-07-22T07:38:43Z</time>
      </trkpt>
      <trkpt lat="46.92957" lon="-0.52817">
        <ele>104.5</ele>
        <time>2012-07-22T07:38:44Z</time>
      </trkpt>
      <trkpt lat="46.92957" lon="-0.52806">
        <ele>104.8</ele>
        <time>2012-07-22T07:38:45Z</time>
      </trkpt>
      <trkpt lat="46.92957" lon="-0.52794">
        <ele>105</ele>
        <time>2012-07-22T07:38:46Z</time>
      </trkpt>
      <trkpt lat="46.92957" lon="-0.52783">
        <ele>105</ele>
        <time>2012-07-22T07:38:47Z</time>
      </trkpt>
      <trkpt lat="46.92957" lon="-0.52773">
        <ele>105.4</ele>
        <time>2012-07-22T07:38:48Z</time>
      </trkpt>
      <trkpt lat="46.92957" lon="-0.52763">
        <ele>105.8</ele>
        <time>2012-07-22T07:38:49Z</time>
      </trkpt>
      <trkpt lat="46.92957" lon="-0.52753">
        <ele>106.3</ele>
        <time>2012-07-22T07:38:50Z</time>
      </trkpt>
      <trkpt lat="46.92959" lon="-0.52745">
        <ele>106.5</ele>
        <time>2012-07-22T07:38:51Z</time>
      </trkpt>
      <trkpt lat="46.9296" lon="-0.52736">
        <ele>106.9</ele>
        <time>2012-07-22T07:38:52Z</time>
      </trkpt>
      <trkpt lat="46.92962" lon="-0.52727">
        <ele>107.4</ele>
        <time>2012-07-22T07:38:53Z</time>
      </trkpt>
      <trkpt lat="46.92964" lon="-0.5272">
        <ele>107.5</ele>
        <time>2012-07-22T07:38:54Z</time>
      </trkpt>
      <trkpt lat="46.92966" lon="-0.52712">
        <ele>107.5</ele>
        <time>2012-07-22T07:38:55Z</time>
      </trkpt>
      <trkpt lat="46.92969" lon="-0.52705">
        <ele>107.5</ele>
        <time>2012-07-22T07:38:56Z</time>
      </trkpt>
      <trkpt lat="46.92972" lon="-0.52698">
        <ele>107.5</ele>
        <time>2012-07-22T07:38:57Z</time>
      </trkpt>
      <trkpt lat="46.92974" lon="-0.52691">
        <ele>107.4</ele>
        <time>2012-07-22T07:38:58Z</time>
      </trkpt>
      <trkpt lat="46.92976" lon="-0.52684">
        <ele>107.4</ele>
        <time>2012-07-22T07:38:59Z</time>
      </trkpt>
      <trkpt lat="46.92979" lon="-0.52678">
        <ele>107.4</ele>
        <time>2012-07-22T07:39:00Z</time>
      </trkpt>
      <trkpt lat="46.92981" lon="-0.52671">
        <ele>107.5</ele>
        <time>2012-07-22T07:39:01Z</time>
      </trkpt>
      <trkpt lat="46.92983" lon="-0.52664">
        <ele>107.5</ele>
        <time>2012-07-22T07:39:02Z</time>
      </trkpt>
      <trkpt lat="46.92984" lon="-0.52657">
        <ele>107.5</ele>
        <time>2012-07-22T07:39:03Z</time>
      </trkpt>
      <trkpt lat="46.92986" lon="-0.52651">
        <ele>107.5</ele>
        <time>2012-07-22T07:39:04Z</time>
      </trkpt>
      <trkpt lat="46.92988" lon="-0.52638">
        <ele>107.8</ele>
        <time>2012-07-22T07:39:06Z</time>
      </trkpt>
      <trkpt lat="46.92989" lon="-0.52629">
        <ele>107.5</ele>
        <time>2012-07-22T07:39:08Z</time>
      </trkpt>
      <trkpt lat="46.92989" lon="-0.52621">
        <ele>107.5</ele>
        <time>2012-07-22T07:39:13Z</time>
      </trkpt>
      <trkpt lat="46.92987" lon="-0.52607">
        <ele>107.8</ele>
        <time>2012-07-22T07:39:14Z</time>
      </trkpt>
      <trkpt lat="46.92985" lon="-0.52594">
        <ele>107.9</ele>
        <time>2012-07-22T07:39:17Z</time>
      </trkpt>
      <trkpt lat="46.92987" lon="-0.52584">
        <ele>108</ele>
        <time>2012-07-22T07:39:19Z</time>
      </trkpt>
      <trkpt lat="46.92989" lon="-0.52579">
        <ele>108</ele>
        <time>2012-07-22T07:39:20Z</time>
      </trkpt>
      <trkpt lat="46.92992" lon="-0.52572">
        <ele>108.3</ele>
        <time>2012-07-22T07:39:21Z</time>
      </trkpt>
      <trkpt lat="46.92995" lon="-0.52565">
        <ele>108.8</ele>
        <time>2012-07-22T07:39:22Z</time>
      </trkpt>
      <trkpt lat="46.92998" lon="-0.52559">
        <ele>109</ele>
        <time>2012-07-22T07:39:23Z</time>
      </trkpt>
      <trkpt lat="46.93001" lon="-0.52553">
        <ele>109.5</ele>
        <time>2012-07-22T07:39:24Z</time>
      </trkpt>
      <trkpt lat="46.93004" lon="-0.52547">
        <ele>109.8</ele>
        <time>2012-07-22T07:39:25Z</time>
      </trkpt>
      <trkpt lat="46.93007" lon="-0.52542">
        <ele>110</ele>
        <time>2012-07-22T07:39:26Z</time>
      </trkpt>
      <trkpt lat="46.9301" lon="-0.52536">
        <ele>110.3</ele>
        <time>2012-07-22T07:39:27Z</time>
      </trkpt>
      <trkpt lat="46.93013" lon="-0.5253">
        <ele>110.5</ele>
        <time>2012-07-22T07:39:28Z</time>
      </trkpt>
      <trkpt lat="46.93016" lon="-0.52523">
        <ele>110.5</ele>
        <time>2012-07-22T07:39:29Z</time>
      </trkpt>
      <trkpt lat="46.93019" lon="-0.52517">
        <ele>110.5</ele>
        <time>2012-07-22T07:39:30Z</time>
      </trkpt>
      <trkpt lat="46.93023" lon="-0.5251">
        <ele>110.5</ele>
        <time>2012-07-22T07:39:31Z</time>
      </trkpt>
      <trkpt lat="46.93026" lon="-0.52503">
        <ele>110.5</ele>
        <time>2012-07-22T07:39:32Z</time>
      </trkpt>
      <trkpt lat="46.93029" lon="-0.52496">
        <ele>110.4</ele>
        <time>2012-07-22T07:39:33Z</time>
      </trkpt>
      <trkpt lat="46.93032" lon="-0.5249">
        <ele>110.4</ele>
        <time>2012-07-22T07:39:34Z</time>
      </trkpt>
      <trkpt lat="46.93038" lon="-0.52483">
        <ele>110.3</ele>
        <time>2012-07-22T07:39:36Z</time>
      </trkpt>
      <trkpt lat="46.93046" lon="-0.52481">
        <ele>110.3</ele>
        <time>2012-07-22T07:39:38Z</time>
      </trkpt>
      <trkpt lat="46.93055" lon="-0.5248">
        <ele>110.3</ele>
        <time>2012-07-22T07:39:40Z</time>
      </trkpt>
      <trkpt lat="46.93059" lon="-0.52479">
        <ele>110.3</ele>
        <time>2012-07-22T07:39:41Z</time>
      </trkpt>
      <trkpt lat="46.93065" lon="-0.52478">
        <ele>110.3</ele>
        <time>2012-07-22T07:39:42Z</time>
      </trkpt>
      <trkpt lat="46.93071" lon="-0.52477">
        <ele>110</ele>
        <time>2012-07-22T07:39:43Z</time>
      </trkpt>
      <trkpt lat="46.93077" lon="-0.52477">
        <ele>109.9</ele>
        <time>2012-07-22T07:39:44Z</time>
      </trkpt>
      <trkpt lat="46.93084" lon="-0.52476">
        <ele>109.5</ele>
        <time>2012-07-22T07:39:45Z</time>
      </trkpt>
      <trkpt lat="46.93092" lon="-0.52477">
        <ele>109.4</ele>
        <time>2012-07-22T07:39:46Z</time>
      </trkpt>
      <trkpt lat="46.93099" lon="-0.52477">
        <ele>109</ele>
        <time>2012-07-22T07:39:47Z</time>
      </trkpt>
      <trkpt lat="46.93107" lon="-0.52477">
        <ele>108.9</ele>
        <time>2012-07-22T07:39:48Z</time>
      </trkpt>
      <trkpt lat="46.93115" lon="-0.52478">
        <ele>108.5</ele>
        <time>2012-07-22T07:39:49Z</time>
      </trkpt>
      <trkpt lat="46.93123" lon="-0.52479">
        <ele>108.5</ele>
        <time>2012-07-22T07:39:50Z</time>
      </trkpt>
      <trkpt lat="46.9313" lon="-0.5248">
        <ele>108.5</ele>
        <time>2012-07-22T07:39:51Z</time>
      </trkpt>
      <trkpt lat="46.93136" lon="-0.52484">
        <ele>108.3</ele>
        <time>2012-07-22T07:39:52Z</time>
      </trkpt>
      <trkpt lat="46.93142" lon="-0.52487">
        <ele>108</ele>
        <time>2012-07-22T07:39:53Z</time>
      </trkpt>
      <trkpt lat="46.93149" lon="-0.52487">
        <ele>107.9</ele>
        <time>2012-07-22T07:39:54Z</time>
      </trkpt>
      <trkpt lat="46.93155" lon="-0.52487">
        <ele>107.5</ele>
        <time>2012-07-22T07:39:55Z</time>
      </trkpt>
      <trkpt lat="46.93162" lon="-0.52486">
        <ele>107.5</ele>
        <time>2012-07-22T07:39:56Z</time>
      </trkpt>
      <trkpt lat="46.93169" lon="-0.52485">
        <ele>107.4</ele>
        <time>2012-07-22T07:39:57Z</time>
      </trkpt>
      <trkpt lat="46.93176" lon="-0.52484">
        <ele>107.3</ele>
        <time>2012-07-22T07:39:58Z</time>
      </trkpt>
      <trkpt lat="46.93183" lon="-0.52483">
        <ele>107</ele>
        <time>2012-07-22T07:39:59Z</time>
      </trkpt>
      <trkpt lat="46.93189" lon="-0.52482">
        <ele>107</ele>
        <time>2012-07-22T07:40:00Z</time>
      </trkpt>
      <trkpt lat="46.93196" lon="-0.5248">
        <ele>107</ele>
        <time>2012-07-22T07:40:01Z</time>
      </trkpt>
      <trkpt lat="46.93203" lon="-0.52478">
        <ele>107</ele>
        <time>2012-07-22T07:40:02Z</time>
      </trkpt>
      <trkpt lat="46.93211" lon="-0.52477">
        <ele>106.9</ele>
        <time>2012-07-22T07:40:03Z</time>
      </trkpt>
      <trkpt lat="46.93218" lon="-0.52475">
        <ele>106.5</ele>
        <time>2012-07-22T07:40:04Z</time>
      </trkpt>
      <trkpt lat="46.93225" lon="-0.52473">
        <ele>106.5</ele>
        <time>2012-07-22T07:40:05Z</time>
      </trkpt>
      <trkpt lat="46.93233" lon="-0.52471">
        <ele>106.3</ele>
        <time>2012-07-22T07:40:06Z</time>
      </trkpt>
      <trkpt lat="46.93241" lon="-0.52469">
        <ele>106</ele>
        <time>2012-07-22T07:40:07Z</time>
      </trkpt>
      <trkpt lat="46.93248" lon="-0.52466">
        <ele>105.8</ele>
        <time>2012-07-22T07:40:08Z</time>
      </trkpt>
      <trkpt lat="46.93256" lon="-0.52462">
        <ele>105.5</ele>
        <time>2012-07-22T07:40:09Z</time>
      </trkpt>
      <trkpt lat="46.93262" lon="-0.52455">
        <ele>105.4</ele>
        <time>2012-07-22T07:40:10Z</time>
      </trkpt>
      <trkpt lat="46.93269" lon="-0.52449">
        <ele>105</ele>
        <time>2012-07-22T07:40:11Z</time>
      </trkpt>
      <trkpt lat="46.93275" lon="-0.52441">
        <ele>105</ele>
        <time>2012-07-22T07:40:12Z</time>
      </trkpt>
      <trkpt lat="46.93282" lon="-0.52433">
        <ele>104.9</ele>
        <time>2012-07-22T07:40:13Z</time>
      </trkpt>
      <trkpt lat="46.93287" lon="-0.52424">
        <ele>104.5</ele>
        <time>2012-07-22T07:40:14Z</time>
      </trkpt>
      <trkpt lat="46.93293" lon="-0.52415">
        <ele>104.5</ele>
        <time>2012-07-22T07:40:15Z</time>
      </trkpt>
      <trkpt lat="46.93299" lon="-0.52406">
        <ele>104</ele>
        <time>2012-07-22T07:40:16Z</time>
      </trkpt>
      <trkpt lat="46.93305" lon="-0.52398">
        <ele>103.8</ele>
        <time>2012-07-22T07:40:17Z</time>
      </trkpt>
      <trkpt lat="46.9331" lon="-0.52391">
        <ele>103.4</ele>
        <time>2012-07-22T07:40:18Z</time>
      </trkpt>
      <trkpt lat="46.93316" lon="-0.52384">
        <ele>102.9</ele>
        <time>2012-07-22T07:40:19Z</time>
      </trkpt>
      <trkpt lat="46.93321" lon="-0.52377">
        <ele>102.4</ele>
        <time>2012-07-22T07:40:20Z</time>
      </trkpt>
      <trkpt lat="46.93326" lon="-0.52372">
        <ele>101.8</ele>
        <time>2012-07-22T07:40:21Z</time>
      </trkpt>
      <trkpt lat="46.9333" lon="-0.52368">
        <ele>101</ele>
        <time>2012-07-22T07:40:22Z</time>
      </trkpt>
      <trkpt lat="46.93336" lon="-0.52359">
        <ele>100.4</ele>
        <time>2012-07-22T07:40:24Z</time>
      </trkpt>
      <trkpt lat="46.93339" lon="-0.52349">
        <ele>100.3</ele>
        <time>2012-07-22T07:40:26Z</time>
      </trkpt>
      <trkpt lat="46.93343" lon="-0.52341">
        <ele>100</ele>
        <time>2012-07-22T07:40:28Z</time>
      </trkpt>
      <trkpt lat="46.93347" lon="-0.52332">
        <ele>100</ele>
        <time>2012-07-22T07:40:30Z</time>
      </trkpt>
      <trkpt lat="46.93351" lon="-0.52322">
        <ele>99.9</ele>
        <time>2012-07-22T07:40:32Z</time>
      </trkpt>
      <trkpt lat="46.93352" lon="-0.52315">
        <ele>99.5</ele>
        <time>2012-07-22T07:40:33Z</time>
      </trkpt>
      <trkpt lat="46.93354" lon="-0.52309">
        <ele>99.3</ele>
        <time>2012-07-22T07:40:34Z</time>
      </trkpt>
      <trkpt lat="46.93355" lon="-0.52296">
        <ele>98.4</ele>
        <time>2012-07-22T07:40:36Z</time>
      </trkpt>
      <trkpt lat="46.93352" lon="-0.52285">
        <ele>96.9</ele>
        <time>2012-07-22T07:40:38Z</time>
      </trkpt>
      <trkpt lat="46.93348" lon="-0.52275">
        <ele>96.5</ele>
        <time>2012-07-22T07:40:40Z</time>
      </trkpt>
      <trkpt lat="46.93345" lon="-0.52264">
        <ele>96.4</ele>
        <time>2012-07-22T07:40:43Z</time>
      </trkpt>
      <trkpt lat="46.93343" lon="-0.52253">
        <ele>96</ele>
        <time>2012-07-22T07:40:46Z</time>
      </trkpt>
      <trkpt lat="46.93349" lon="-0.52246">
        <ele>95.8</ele>
        <time>2012-07-22T07:40:52Z</time>
      </trkpt>
      <trkpt lat="46.93352" lon="-0.52246">
        <ele>95.8</ele>
        <time>2012-07-22T07:40:53Z</time>
      </trkpt>
      <trkpt lat="46.93363" lon="-0.52251">
        <ele>95.9</ele>
        <time>2012-07-22T07:43:48Z</time>
      </trkpt>
      <trkpt lat="46.93364" lon="-0.52252">
        <ele>95.9</ele>
        <time>2012-07-22T07:43:49Z</time>
      </trkpt>
      <trkpt lat="46.93358" lon="-0.52262">
        <ele>94.8</ele>
        <time>2012-07-22T07:45:41Z</time>
      </trkpt>
      <trkpt lat="46.93368" lon="-0.52265">
        <ele>94.8</ele>
        <time>2012-07-22T07:46:24Z</time>
      </trkpt>
      <trkpt lat="46.93361" lon="-0.52272">
        <ele>94.5</ele>
        <time>2012-07-22T07:46:53Z</time>
      </trkpt>
      <trkpt lat="46.93359" lon="-0.52271">
        <ele>94.5</ele>
        <time>2012-07-22T07:46:54Z</time>
      </trkpt>
      <trkpt lat="46.93355" lon="-0.52253">
        <ele>92.5</ele>
        <time>2012-07-22T07:47:25Z</time>
      </trkpt>
      <trkpt lat="46.9335" lon="-0.52263">
        <ele>93</ele>
        <time>2012-07-22T07:47:42Z</time>
      </trkpt>
      <trkpt lat="46.93355" lon="-0.5227">
        <ele>93</ele>
        <time>2012-07-22T07:47:44Z</time>
      </trkpt>
      <trkpt lat="46.93362" lon="-0.52275">
        <ele>93</ele>
        <time>2012-07-22T07:47:46Z</time>
      </trkpt>
      <trkpt lat="46.9337" lon="-0.52279">
        <ele>93.4</ele>
        <time>2012-07-22T07:47:49Z</time>
      </trkpt>
      <trkpt lat="46.93377" lon="-0.52282">
        <ele>94</ele>
        <time>2012-07-22T07:47:51Z</time>
      </trkpt>
      <trkpt lat="46.93381" lon="-0.52283">
        <ele>94.5</ele>
        <time>2012-07-22T07:47:52Z</time>
      </trkpt>
      <trkpt lat="46.9339" lon="-0.52286">
        <ele>94.8</ele>
        <time>2012-07-22T07:47:53Z</time>
      </trkpt>
      <trkpt lat="46.93395" lon="-0.52285">
        <ele>95</ele>
        <time>2012-07-22T07:47:54Z</time>
      </trkpt>
      <trkpt lat="46.934" lon="-0.52284">
        <ele>95</ele>
        <time>2012-07-22T07:47:55Z</time>
      </trkpt>
      <trkpt lat="46.93405" lon="-0.52282">
        <ele>95.3</ele>
        <time>2012-07-22T07:47:56Z</time>
      </trkpt>
      <trkpt lat="46.93413" lon="-0.52278">
        <ele>95.4</ele>
        <time>2012-07-22T07:47:58Z</time>
      </trkpt>
      <trkpt lat="46.9342" lon="-0.52273">
        <ele>95.4</ele>
        <time>2012-07-22T07:48:00Z</time>
      </trkpt>
      <trkpt lat="46.93426" lon="-0.52267">
        <ele>95.5</ele>
        <time>2012-07-22T07:48:02Z</time>
      </trkpt>
      <trkpt lat="46.93433" lon="-0.52262">
        <ele>95.5</ele>
        <time>2012-07-22T07:48:04Z</time>
      </trkpt>
      <trkpt lat="46.93439" lon="-0.52257">
        <ele>95.5</ele>
        <time>2012-07-22T07:48:06Z</time>
      </trkpt>
      <trkpt lat="46.93446" lon="-0.52253">
        <ele>95.5</ele>
        <time>2012-07-22T07:48:08Z</time>
      </trkpt>
      <trkpt lat="46.93453" lon="-0.52249">
        <ele>95.5</ele>
        <time>2012-07-22T07:48:10Z</time>
      </trkpt>
      <trkpt lat="46.9346" lon="-0.52245">
        <ele>95.5</ele>
        <time>2012-07-22T07:48:12Z</time>
      </trkpt>
      <trkpt lat="46.93468" lon="-0.52242">
        <ele>95.5</ele>
        <time>2012-07-22T07:48:14Z</time>
      </trkpt>
      <trkpt lat="46.93477" lon="-0.52241">
        <ele>95.8</ele>
        <time>2012-07-22T07:48:16Z</time>
      </trkpt>
      <trkpt lat="46.93481" lon="-0.52242">
        <ele>95.9</ele>
        <time>2012-07-22T07:48:17Z</time>
      </trkpt>
      <trkpt lat="46.93486" lon="-0.52242">
        <ele>96</ele>
        <time>2012-07-22T07:48:18Z</time>
      </trkpt>
      <trkpt lat="46.93495" lon="-0.52243">
        <ele>96</ele>
        <time>2012-07-22T07:48:20Z</time>
      </trkpt>
      <trkpt lat="46.93503" lon="-0.52245">
        <ele>96.4</ele>
        <time>2012-07-22T07:48:22Z</time>
      </trkpt>
      <trkpt lat="46.93509" lon="-0.5225">
        <ele>96.5</ele>
        <time>2012-07-22T07:48:24Z</time>
      </trkpt>
      <trkpt lat="46.93515" lon="-0.52255">
        <ele>96.8</ele>
        <time>2012-07-22T07:48:26Z</time>
      </trkpt>
      <trkpt lat="46.9352" lon="-0.52261">
        <ele>97</ele>
        <time>2012-07-22T07:48:28Z</time>
      </trkpt>
      <trkpt lat="46.93526" lon="-0.5227">
        <ele>97.3</ele>
        <time>2012-07-22T07:48:31Z</time>
      </trkpt>
      <trkpt lat="46.93532" lon="-0.52279">
        <ele>97.5</ele>
        <time>2012-07-22T07:48:34Z</time>
      </trkpt>
      <trkpt lat="46.93537" lon="-0.52287">
        <ele>98</ele>
        <time>2012-07-22T07:48:37Z</time>
      </trkpt>
      <trkpt lat="46.93543" lon="-0.52296">
        <ele>98.3</ele>
        <time>2012-07-22T07:48:40Z</time>
      </trkpt>
      <trkpt lat="46.93548" lon="-0.52303">
        <ele>98.4</ele>
        <time>2012-07-22T07:48:42Z</time>
      </trkpt>
      <trkpt lat="46.93553" lon="-0.52309">
        <ele>98.5</ele>
        <time>2012-07-22T07:48:44Z</time>
      </trkpt>
      <trkpt lat="46.93558" lon="-0.52317">
        <ele>99.9</ele>
        <time>2012-07-22T07:48:46Z</time>
      </trkpt>
      <trkpt lat="46.93563" lon="-0.52326">
        <ele>100.5</ele>
        <time>2012-07-22T07:48:48Z</time>
      </trkpt>
      <trkpt lat="46.93567" lon="-0.52335">
        <ele>101.3</ele>
        <time>2012-07-22T07:48:50Z</time>
      </trkpt>
      <trkpt lat="46.93572" lon="-0.52343">
        <ele>101.5</ele>
        <time>2012-07-22T07:48:52Z</time>
      </trkpt>
      <trkpt lat="46.93577" lon="-0.52353">
        <ele>102</ele>
        <time>2012-07-22T07:48:54Z</time>
      </trkpt>
      <trkpt lat="46.93583" lon="-0.52362">
        <ele>102</ele>
        <time>2012-07-22T07:48:56Z</time>
      </trkpt>
      <trkpt lat="46.93585" lon="-0.52366">
        <ele>102</ele>
        <time>2012-07-22T07:48:57Z</time>
      </trkpt>
      <trkpt lat="46.93594" lon="-0.52379">
        <ele>102.3</ele>
        <time>2012-07-22T07:49:01Z</time>
      </trkpt>
      <trkpt lat="46.93599" lon="-0.52387">
        <ele>102</ele>
        <time>2012-07-22T07:49:04Z</time>
      </trkpt>
      <trkpt lat="46.93604" lon="-0.52394">
        <ele>102</ele>
        <time>2012-07-22T07:49:07Z</time>
      </trkpt>
      <trkpt lat="46.93611" lon="-0.52402">
        <ele>102.3</ele>
        <time>2012-07-22T07:49:10Z</time>
      </trkpt>
      <trkpt lat="46.93617" lon="-0.52408">
        <ele>102.4</ele>
        <time>2012-07-22T07:49:12Z</time>
      </trkpt>
      <trkpt lat="46.93622" lon="-0.52415">
        <ele>102.5</ele>
        <time>2012-07-22T07:49:14Z</time>
      </trkpt>
      <trkpt lat="46.93626" lon="-0.52422">
        <ele>102.5</ele>
        <time>2012-07-22T07:49:16Z</time>
      </trkpt>
      <trkpt lat="46.93631" lon="-0.52429">
        <ele>102.9</ele>
        <time>2012-07-22T07:49:18Z</time>
      </trkpt>
      <trkpt lat="46.93636" lon="-0.52436">
        <ele>103</ele>
        <time>2012-07-22T07:49:20Z</time>
      </trkpt>
      <trkpt lat="46.93641" lon="-0.52443">
        <ele>103.3</ele>
        <time>2012-07-22T07:49:22Z</time>
      </trkpt>
      <trkpt lat="46.93646" lon="-0.52449">
        <ele>103.5</ele>
        <time>2012-07-22T07:49:24Z</time>
      </trkpt>
      <trkpt lat="46.93652" lon="-0.52456">
        <ele>103.9</ele>
        <time>2012-07-22T07:49:27Z</time>
      </trkpt>
      <trkpt lat="46.93659" lon="-0.52464">
        <ele>104</ele>
        <time>2012-07-22T07:49:30Z</time>
      </trkpt>
      <trkpt lat="46.93665" lon="-0.52472">
        <ele>104.5</ele>
        <time>2012-07-22T07:49:33Z</time>
      </trkpt>
      <trkpt lat="46.93672" lon="-0.52478">
        <ele>105</ele>
        <time>2012-07-22T07:49:36Z</time>
      </trkpt>
      <trkpt lat="46.93678" lon="-0.52484">
        <ele>105.3</ele>
        <time>2012-07-22T07:49:39Z</time>
      </trkpt>
      <trkpt lat="46.93686" lon="-0.52492">
        <ele>105.5</ele>
        <time>2012-07-22T07:49:42Z</time>
      </trkpt>
      <trkpt lat="46.93691" lon="-0.52497">
        <ele>105.9</ele>
        <time>2012-07-22T07:49:44Z</time>
      </trkpt>
      <trkpt lat="46.93696" lon="-0.52503">
        <ele>106</ele>
        <time>2012-07-22T07:49:46Z</time>
      </trkpt>
      <trkpt lat="46.93704" lon="-0.52509">
        <ele>106.5</ele>
        <time>2012-07-22T07:49:49Z</time>
      </trkpt>
      <trkpt lat="46.93712" lon="-0.52515">
        <ele>106.9</ele>
        <time>2012-07-22T07:49:53Z</time>
      </trkpt>
      <trkpt lat="46.93717" lon="-0.52523">
        <ele>107.5</ele>
        <time>2012-07-22T07:49:57Z</time>
      </trkpt>
      <trkpt lat="46.93718" lon="-0.52526">
        <ele>107.5</ele>
        <time>2012-07-22T07:49:58Z</time>
      </trkpt>
      <trkpt lat="46.93728" lon="-0.52538">
        <ele>109.3</ele>
        <time>2012-07-22T07:50:08Z</time>
      </trkpt>
      <trkpt lat="46.93735" lon="-0.52543">
        <ele>109.9</ele>
        <time>2012-07-22T07:50:11Z</time>
      </trkpt>
      <trkpt lat="46.93742" lon="-0.52547">
        <ele>110.5</ele>
        <time>2012-07-22T07:50:14Z</time>
      </trkpt>
      <trkpt lat="46.93748" lon="-0.52551">
        <ele>110.8</ele>
        <time>2012-07-22T07:50:16Z</time>
      </trkpt>
      <trkpt lat="46.93756" lon="-0.52556">
        <ele>111.3</ele>
        <time>2012-07-22T07:50:19Z</time>
      </trkpt>
      <trkpt lat="46.93763" lon="-0.52561">
        <ele>111.8</ele>
        <time>2012-07-22T07:50:22Z</time>
      </trkpt>
      <trkpt lat="46.93769" lon="-0.52564">
        <ele>112</ele>
        <time>2012-07-22T07:50:24Z</time>
      </trkpt>
      <trkpt lat="46.93776" lon="-0.52568">
        <ele>112.5</ele>
        <time>2012-07-22T07:50:27Z</time>
      </trkpt>
      <trkpt lat="46.93784" lon="-0.52574">
        <ele>113</ele>
        <time>2012-07-22T07:50:30Z</time>
      </trkpt>
      <trkpt lat="46.93791" lon="-0.52578">
        <ele>113.4</ele>
        <time>2012-07-22T07:50:33Z</time>
      </trkpt>
      <trkpt lat="46.93798" lon="-0.52581">
        <ele>113.8</ele>
        <time>2012-07-22T07:50:36Z</time>
      </trkpt>
      <trkpt lat="46.93805" lon="-0.52585">
        <ele>114</ele>
        <time>2012-07-22T07:50:39Z</time>
      </trkpt>
      <trkpt lat="46.93812" lon="-0.52589">
        <ele>114.4</ele>
        <time>2012-07-22T07:50:42Z</time>
      </trkpt>
      <trkpt lat="46.9382" lon="-0.52594">
        <ele>114.9</ele>
        <time>2012-07-22T07:50:46Z</time>
      </trkpt>
      <trkpt lat="46.93828" lon="-0.52597">
        <ele>115.4</ele>
        <time>2012-07-22T07:50:53Z</time>
      </trkpt>
      <trkpt lat="46.93837" lon="-0.52601">
        <ele>116</ele>
        <time>2012-07-22T07:50:57Z</time>
      </trkpt>
      <trkpt lat="46.93844" lon="-0.52605">
        <ele>116.9</ele>
        <time>2012-07-22T07:51:03Z</time>
      </trkpt>
      <trkpt lat="46.93846" lon="-0.52605">
        <ele>117</ele>
        <time>2012-07-22T07:51:04Z</time>
      </trkpt>
      <trkpt lat="46.93859" lon="-0.52612">
        <ele>118.4</ele>
        <time>2012-07-22T07:51:20Z</time>
      </trkpt>
      <trkpt lat="46.93867" lon="-0.52618">
        <ele>118.5</ele>
        <time>2012-07-22T07:51:24Z</time>
      </trkpt>
      <trkpt lat="46.93874" lon="-0.52621">
        <ele>119</ele>
        <time>2012-07-22T07:51:28Z</time>
      </trkpt>
      <trkpt lat="46.93883" lon="-0.52624">
        <ele>119.3</ele>
        <time>2012-07-22T07:51:32Z</time>
      </trkpt>
      <trkpt lat="46.9389" lon="-0.52626">
        <ele>119.8</ele>
        <time>2012-07-22T07:51:39Z</time>
      </trkpt>
      <trkpt lat="46.93898" lon="-0.5263">
        <ele>120</ele>
        <time>2012-07-22T07:51:43Z</time>
      </trkpt>
      <trkpt lat="46.93905" lon="-0.52635">
        <ele>120.5</ele>
        <time>2012-07-22T07:51:46Z</time>
      </trkpt>
      <trkpt lat="46.93911" lon="-0.5264">
        <ele>120.8</ele>
        <time>2012-07-22T07:51:49Z</time>
      </trkpt>
      <trkpt lat="46.93918" lon="-0.52645">
        <ele>121</ele>
        <time>2012-07-22T07:51:52Z</time>
      </trkpt>
      <trkpt lat="46.93925" lon="-0.52648">
        <ele>121.5</ele>
        <time>2012-07-22T07:51:55Z</time>
      </trkpt>
      <trkpt lat="46.93932" lon="-0.52651">
        <ele>121.8</ele>
        <time>2012-07-22T07:51:58Z</time>
      </trkpt>
      <trkpt lat="46.93939" lon="-0.52655">
        <ele>122</ele>
        <time>2012-07-22T07:52:01Z</time>
      </trkpt>
      <trkpt lat="46.93948" lon="-0.52658">
        <ele>122.5</ele>
        <time>2012-07-22T07:52:05Z</time>
      </trkpt>
      <trkpt lat="46.9395" lon="-0.52658">
        <ele>122.9</ele>
        <time>2012-07-22T07:52:06Z</time>
      </trkpt>
      <trkpt lat="46.9396" lon="-0.52664">
        <ele>123.4</ele>
        <time>2012-07-22T07:52:10Z</time>
      </trkpt>
      <trkpt lat="46.93967" lon="-0.52668">
        <ele>123.5</ele>
        <time>2012-07-22T07:52:12Z</time>
      </trkpt>
      <trkpt lat="46.93973" lon="-0.52673">
        <ele>124</ele>
        <time>2012-07-22T07:52:14Z</time>
      </trkpt>
      <trkpt lat="46.93979" lon="-0.52679">
        <ele>124.3</ele>
        <time>2012-07-22T07:52:16Z</time>
      </trkpt>
      <trkpt lat="46.93985" lon="-0.52685">
        <ele>124.5</ele>
        <time>2012-07-22T07:52:18Z</time>
      </trkpt>
      <trkpt lat="46.93992" lon="-0.5269">
        <ele>124.8</ele>
        <time>2012-07-22T07:52:20Z</time>
      </trkpt>
      <trkpt lat="46.93997" lon="-0.52695">
        <ele>125</ele>
        <time>2012-07-22T07:52:22Z</time>
      </trkpt>
      <trkpt lat="46.94004" lon="-0.52701">
        <ele>125.4</ele>
        <time>2012-07-22T07:52:24Z</time>
      </trkpt>
      <trkpt lat="46.9401" lon="-0.52708">
        <ele>127.8</ele>
        <time>2012-07-22T07:52:26Z</time>
      </trkpt>
      <trkpt lat="46.94017" lon="-0.52714">
        <ele>129.5</ele>
        <time>2012-07-22T07:52:28Z</time>
      </trkpt>
      <trkpt lat="46.94024" lon="-0.5272">
        <ele>130.6</ele>
        <time>2012-07-22T07:52:30Z</time>
      </trkpt>
      <trkpt lat="46.94032" lon="-0.52726">
        <ele>131.3</ele>
        <time>2012-07-22T07:52:32Z</time>
      </trkpt>
      <trkpt lat="46.94039" lon="-0.52732">
        <ele>131.8</ele>
        <time>2012-07-22T07:52:34Z</time>
      </trkpt>
      <trkpt lat="46.94046" lon="-0.52739">
        <ele>132.3</ele>
        <time>2012-07-22T07:52:36Z</time>
      </trkpt>
      <trkpt lat="46.94053" lon="-0.52746">
        <ele>132.6</ele>
        <time>2012-07-22T07:52:38Z</time>
      </trkpt>
      <trkpt lat="46.9406" lon="-0.52753">
        <ele>133</ele>
        <time>2012-07-22T07:52:40Z</time>
      </trkpt>
      <trkpt lat="46.94068" lon="-0.5276">
        <ele>133.3</ele>
        <time>2012-07-22T07:52:42Z</time>
      </trkpt>
      <trkpt lat="46.94075" lon="-0.52767">
        <ele>133.3</ele>
        <time>2012-07-22T07:52:44Z</time>
      </trkpt>
      <trkpt lat="46.94082" lon="-0.52774">
        <ele>133.6</ele>
        <time>2012-07-22T07:52:46Z</time>
      </trkpt>
      <trkpt lat="46.94088" lon="-0.5278">
        <ele>133.6</ele>
        <time>2012-07-22T07:52:48Z</time>
      </trkpt>
      <trkpt lat="46.94095" lon="-0.52786">
        <ele>133.6</ele>
        <time>2012-07-22T07:52:50Z</time>
      </trkpt>
      <trkpt lat="46.94102" lon="-0.52793">
        <ele>133.8</ele>
        <time>2012-07-22T07:52:52Z</time>
      </trkpt>
      <trkpt lat="46.9411" lon="-0.52801">
        <ele>133.8</ele>
        <time>2012-07-22T07:52:54Z</time>
      </trkpt>
      <trkpt lat="46.94117" lon="-0.52809">
        <ele>133.8</ele>
        <time>2012-07-22T07:52:56Z</time>
      </trkpt>
      <trkpt lat="46.94124" lon="-0.52816">
        <ele>133.8</ele>
        <time>2012-07-22T07:52:58Z</time>
      </trkpt>
      <trkpt lat="46.94132" lon="-0.52824">
        <ele>133.8</ele>
        <time>2012-07-22T07:53:00Z</time>
      </trkpt>
      <trkpt lat="46.94135" lon="-0.52828">
        <ele>133.8</ele>
        <time>2012-07-22T07:53:01Z</time>
      </trkpt>
      <trkpt lat="46.94139" lon="-0.52831">
        <ele>134</ele>
        <time>2012-07-22T07:53:02Z</time>
      </trkpt>
      <trkpt lat="46.94143" lon="-0.52835">
        <ele>134</ele>
        <time>2012-07-22T07:53:03Z</time>
      </trkpt>
      <trkpt lat="46.94147" lon="-0.52838">
        <ele>134</ele>
        <time>2012-07-22T07:53:04Z</time>
      </trkpt>
      <trkpt lat="46.94151" lon="-0.52842">
        <ele>134</ele>
        <time>2012-07-22T07:53:05Z</time>
      </trkpt>
      <trkpt lat="46.94155" lon="-0.52845">
        <ele>134</ele>
        <time>2012-07-22T07:53:06Z</time>
      </trkpt>
      <trkpt lat="46.94159" lon="-0.52849">
        <ele>134.1</ele>
        <time>2012-07-22T07:53:07Z</time>
      </trkpt>
      <trkpt lat="46.94163" lon="-0.52853">
        <ele>134.1</ele>
        <time>2012-07-22T07:53:08Z</time>
      </trkpt>
      <trkpt lat="46.94168" lon="-0.52857">
        <ele>134.3</ele>
        <time>2012-07-22T07:53:09Z</time>
      </trkpt>
      <trkpt lat="46.94172" lon="-0.52861">
        <ele>134.3</ele>
        <time>2012-07-22T07:53:10Z</time>
      </trkpt>
      <trkpt lat="46.94176" lon="-0.52865">
        <ele>134.6</ele>
        <time>2012-07-22T07:53:11Z</time>
      </trkpt>
      <trkpt lat="46.94181" lon="-0.52869">
        <ele>134.6</ele>
        <time>2012-07-22T07:53:12Z</time>
      </trkpt>
      <trkpt lat="46.94185" lon="-0.52873">
        <ele>134.8</ele>
        <time>2012-07-22T07:53:13Z</time>
      </trkpt>
      <trkpt lat="46.94189" lon="-0.52877">
        <ele>135</ele>
        <time>2012-07-22T07:53:14Z</time>
      </trkpt>
      <trkpt lat="46.94193" lon="-0.52882">
        <ele>135</ele>
        <time>2012-07-22T07:53:15Z</time>
      </trkpt>
      <trkpt lat="46.94198" lon="-0.52886">
        <ele>135.1</ele>
        <time>2012-07-22T07:53:16Z</time>
      </trkpt>
      <trkpt lat="46.94202" lon="-0.52889">
        <ele>135.1</ele>
        <time>2012-07-22T07:53:17Z</time>
      </trkpt>
      <trkpt lat="46.94207" lon="-0.52893">
        <ele>135.1</ele>
        <time>2012-07-22T07:53:18Z</time>
      </trkpt>
      <trkpt lat="46.94211" lon="-0.52897">
        <ele>135.1</ele>
        <time>2012-07-22T07:53:19Z</time>
      </trkpt>
      <trkpt lat="46.94216" lon="-0.529">
        <ele>135.1</ele>
        <time>2012-07-22T07:53:20Z</time>
      </trkpt>
      <trkpt lat="46.9422" lon="-0.52904">
        <ele>135.1</ele>
        <time>2012-07-22T07:53:21Z</time>
      </trkpt>
      <trkpt lat="46.94225" lon="-0.52906">
        <ele>135.1</ele>
        <time>2012-07-22T07:53:22Z</time>
      </trkpt>
      <trkpt lat="46.9423" lon="-0.52908">
        <ele>135.3</ele>
        <time>2012-07-22T07:53:23Z</time>
      </trkpt>
      <trkpt lat="46.94234" lon="-0.5291">
        <ele>135.3</ele>
        <time>2012-07-22T07:53:24Z</time>
      </trkpt>
      <trkpt lat="46.94238" lon="-0.52914">
        <ele>135.3</ele>
        <time>2012-07-22T07:53:25Z</time>
      </trkpt>
      <trkpt lat="46.94242" lon="-0.52919">
        <ele>135.3</ele>
        <time>2012-07-22T07:53:26Z</time>
      </trkpt>
      <trkpt lat="46.94246" lon="-0.52924">
        <ele>135.3</ele>
        <time>2012-07-22T07:53:27Z</time>
      </trkpt>
      <trkpt lat="46.9425" lon="-0.52928">
        <ele>135.3</ele>
        <time>2012-07-22T07:53:28Z</time>
      </trkpt>
      <trkpt lat="46.94254" lon="-0.52933">
        <ele>135.3</ele>
        <time>2012-07-22T07:53:29Z</time>
      </trkpt>
      <trkpt lat="46.94257" lon="-0.52938">
        <ele>135.5</ele>
        <time>2012-07-22T07:53:30Z</time>
      </trkpt>
      <trkpt lat="46.94261" lon="-0.52942">
        <ele>135.5</ele>
        <time>2012-07-22T07:53:31Z</time>
      </trkpt>
      <trkpt lat="46.94265" lon="-0.52947">
        <ele>135.5</ele>
        <time>2012-07-22T07:53:32Z</time>
      </trkpt>
      <trkpt lat="46.94268" lon="-0.52952">
        <ele>135.5</ele>
        <time>2012-07-22T07:53:33Z</time>
      </trkpt>
      <trkpt lat="46.94272" lon="-0.52957">
        <ele>135.3</ele>
        <time>2012-07-22T07:53:34Z</time>
      </trkpt>
      <trkpt lat="46.94276" lon="-0.52961">
        <ele>135.3</ele>
        <time>2012-07-22T07:53:35Z</time>
      </trkpt>
      <trkpt lat="46.94279" lon="-0.52966">
        <ele>135.1</ele>
        <time>2012-07-22T07:53:36Z</time>
      </trkpt>
      <trkpt lat="46.94283" lon="-0.5297">
        <ele>135</ele>
        <time>2012-07-22T07:53:37Z</time>
      </trkpt>
      <trkpt lat="46.94287" lon="-0.52974">
        <ele>135</ele>
        <time>2012-07-22T07:53:38Z</time>
      </trkpt>
      <trkpt lat="46.94291" lon="-0.52978">
        <ele>134.8</ele>
        <time>2012-07-22T07:53:39Z</time>
      </trkpt>
      <trkpt lat="46.94294" lon="-0.52982">
        <ele>135</ele>
        <time>2012-07-22T07:53:40Z</time>
      </trkpt>
      <trkpt lat="46.94298" lon="-0.52986">
        <ele>135.1</ele>
        <time>2012-07-22T07:53:41Z</time>
      </trkpt>
      <trkpt lat="46.94306" lon="-0.52993">
        <ele>135.1</ele>
        <time>2012-07-22T07:53:43Z</time>
      </trkpt>
      <trkpt lat="46.94309" lon="-0.52997">
        <ele>135.3</ele>
        <time>2012-07-22T07:53:44Z</time>
      </trkpt>
      <trkpt lat="46.94313" lon="-0.53001">
        <ele>135.3</ele>
        <time>2012-07-22T07:53:45Z</time>
      </trkpt>
      <trkpt lat="46.94317" lon="-0.53005">
        <ele>135.1</ele>
        <time>2012-07-22T07:53:46Z</time>
      </trkpt>
      <trkpt lat="46.94321" lon="-0.53009">
        <ele>135</ele>
        <time>2012-07-22T07:53:47Z</time>
      </trkpt>
      <trkpt lat="46.94325" lon="-0.53014">
        <ele>135</ele>
        <time>2012-07-22T07:53:48Z</time>
      </trkpt>
      <trkpt lat="46.94329" lon="-0.53018">
        <ele>135</ele>
        <time>2012-07-22T07:53:49Z</time>
      </trkpt>
      <trkpt lat="46.94333" lon="-0.53022">
        <ele>135.1</ele>
        <time>2012-07-22T07:53:50Z</time>
      </trkpt>
      <trkpt lat="46.94337" lon="-0.53026">
        <ele>135.1</ele>
        <time>2012-07-22T07:53:51Z</time>
      </trkpt>
      <trkpt lat="46.94344" lon="-0.53033">
        <ele>135.5</ele>
        <time>2012-07-22T07:53:53Z</time>
      </trkpt>
      <trkpt lat="46.94351" lon="-0.5304">
        <ele>135.6</ele>
        <time>2012-07-22T07:53:55Z</time>
      </trkpt>
      <trkpt lat="46.94358" lon="-0.53047">
        <ele>135.8</ele>
        <time>2012-07-22T07:53:57Z</time>
      </trkpt>
      <trkpt lat="46.94362" lon="-0.5305">
        <ele>135.8</ele>
        <time>2012-07-22T07:53:58Z</time>
      </trkpt>
      <trkpt lat="46.94366" lon="-0.53054">
        <ele>135.8</ele>
        <time>2012-07-22T07:53:59Z</time>
      </trkpt>
      <trkpt lat="46.9437" lon="-0.53057">
        <ele>136</ele>
        <time>2012-07-22T07:54:00Z</time>
      </trkpt>
      <trkpt lat="46.94374" lon="-0.53061">
        <ele>136.1</ele>
        <time>2012-07-22T07:54:01Z</time>
      </trkpt>
      <trkpt lat="46.94378" lon="-0.53064">
        <ele>136.3</ele>
        <time>2012-07-22T07:54:02Z</time>
      </trkpt>
      <trkpt lat="46.94386" lon="-0.5307">
        <ele>136.6</ele>
        <time>2012-07-22T07:54:04Z</time>
      </trkpt>
      <trkpt lat="46.94393" lon="-0.53076">
        <ele>136.8</ele>
        <time>2012-07-22T07:54:06Z</time>
      </trkpt>
      <trkpt lat="46.94401" lon="-0.5308">
        <ele>136.8</ele>
        <time>2012-07-22T07:54:08Z</time>
      </trkpt>
      <trkpt lat="46.94404" lon="-0.5308">
        <ele>136.8</ele>
        <time>2012-07-22T07:54:09Z</time>
      </trkpt>
      <trkpt lat="46.94411" lon="-0.53069">
        <ele>137</ele>
        <time>2012-07-22T07:54:13Z</time>
      </trkpt>
      <trkpt lat="46.94413" lon="-0.53058">
        <ele>138.6</ele>
        <time>2012-07-22T07:54:15Z</time>
      </trkpt>
      <trkpt lat="46.94418" lon="-0.53049">
        <ele>140.1</ele>
        <time>2012-07-22T07:54:17Z</time>
      </trkpt>
      <trkpt lat="46.94427" lon="-0.53045">
        <ele>141.3</ele>
        <time>2012-07-22T07:54:19Z</time>
      </trkpt>
      <trkpt lat="46.94431" lon="-0.53044">
        <ele>141.8</ele>
        <time>2012-07-22T07:54:20Z</time>
      </trkpt>
      <trkpt lat="46.94436" lon="-0.53043">
        <ele>142.1</ele>
        <time>2012-07-22T07:54:21Z</time>
      </trkpt>
      <trkpt lat="46.9444" lon="-0.53044">
        <ele>142.3</ele>
        <time>2012-07-22T07:54:22Z</time>
      </trkpt>
      <trkpt lat="46.94449" lon="-0.53046">
        <ele>142.6</ele>
        <time>2012-07-22T07:54:24Z</time>
      </trkpt>
      <trkpt lat="46.94454" lon="-0.53048">
        <ele>142.8</ele>
        <time>2012-07-22T07:54:25Z</time>
      </trkpt>
      <trkpt lat="46.94458" lon="-0.5305">
        <ele>142.8</ele>
        <time>2012-07-22T07:54:26Z</time>
      </trkpt>
      <trkpt lat="46.94463" lon="-0.53052">
        <ele>142.8</ele>
        <time>2012-07-22T07:54:27Z</time>
      </trkpt>
      <trkpt lat="46.94467" lon="-0.53055">
        <ele>142.8</ele>
        <time>2012-07-22T07:54:28Z</time>
      </trkpt>
      <trkpt lat="46.94472" lon="-0.53057">
        <ele>142.8</ele>
        <time>2012-07-22T07:54:29Z</time>
      </trkpt>
      <trkpt lat="46.9448" lon="-0.53061">
        <ele>142.8</ele>
        <time>2012-07-22T07:54:31Z</time>
      </trkpt>
      <trkpt lat="46.94488" lon="-0.53066">
        <ele>143</ele>
        <time>2012-07-22T07:54:33Z</time>
      </trkpt>
      <trkpt lat="46.94496" lon="-0.5307">
        <ele>143</ele>
        <time>2012-07-22T07:54:35Z</time>
      </trkpt>
      <trkpt lat="46.94504" lon="-0.53075">
        <ele>143</ele>
        <time>2012-07-22T07:54:37Z</time>
      </trkpt>
      <trkpt lat="46.94512" lon="-0.53079">
        <ele>143.1</ele>
        <time>2012-07-22T07:54:39Z</time>
      </trkpt>
      <trkpt lat="46.9452" lon="-0.53083">
        <ele>143.1</ele>
        <time>2012-07-22T07:54:41Z</time>
      </trkpt>
      <trkpt lat="46.94529" lon="-0.53087">
        <ele>143.1</ele>
        <time>2012-07-22T07:54:43Z</time>
      </trkpt>
      <trkpt lat="46.94537" lon="-0.53091">
        <ele>143.3</ele>
        <time>2012-07-22T07:54:45Z</time>
      </trkpt>
      <trkpt lat="46.94541" lon="-0.53093">
        <ele>143.3</ele>
        <time>2012-07-22T07:54:46Z</time>
      </trkpt>
      <trkpt lat="46.94546" lon="-0.53095">
        <ele>143.3</ele>
        <time>2012-07-22T07:54:47Z</time>
      </trkpt>
      <trkpt lat="46.9455" lon="-0.53097">
        <ele>143.3</ele>
        <time>2012-07-22T07:54:48Z</time>
      </trkpt>
      <trkpt lat="46.94555" lon="-0.53099">
        <ele>143.1</ele>
        <time>2012-07-22T07:54:49Z</time>
      </trkpt>
      <trkpt lat="46.94559" lon="-0.53101">
        <ele>143.1</ele>
        <time>2012-07-22T07:54:50Z</time>
      </trkpt>
      <trkpt lat="46.94567" lon="-0.53105">
        <ele>143</ele>
        <time>2012-07-22T07:54:52Z</time>
      </trkpt>
      <trkpt lat="46.94572" lon="-0.53107">
        <ele>142.8</ele>
        <time>2012-07-22T07:54:53Z</time>
      </trkpt>
      <trkpt lat="46.94576" lon="-0.53108">
        <ele>142.8</ele>
        <time>2012-07-22T07:54:54Z</time>
      </trkpt>
      <trkpt lat="46.94581" lon="-0.5311">
        <ele>142.6</ele>
        <time>2012-07-22T07:54:55Z</time>
      </trkpt>
      <trkpt lat="46.94585" lon="-0.53111">
        <ele>142.6</ele>
        <time>2012-07-22T07:54:56Z</time>
      </trkpt>
      <trkpt lat="46.9459" lon="-0.5311">
        <ele>142.6</ele>
        <time>2012-07-22T07:54:57Z</time>
      </trkpt>
      <trkpt lat="46.94594" lon="-0.53109">
        <ele>142.6</ele>
        <time>2012-07-22T07:54:58Z</time>
      </trkpt>
      <trkpt lat="46.94603" lon="-0.53107">
        <ele>142.6</ele>
        <time>2012-07-22T07:55:00Z</time>
      </trkpt>
      <trkpt lat="46.94611" lon="-0.53103">
        <ele>142.5</ele>
        <time>2012-07-22T07:55:02Z</time>
      </trkpt>
      <trkpt lat="46.94619" lon="-0.531">
        <ele>142.3</ele>
        <time>2012-07-22T07:55:04Z</time>
      </trkpt>
      <trkpt lat="46.94628" lon="-0.53097">
        <ele>142.1</ele>
        <time>2012-07-22T07:55:06Z</time>
      </trkpt>
      <trkpt lat="46.94636" lon="-0.53094">
        <ele>141.8</ele>
        <time>2012-07-22T07:55:08Z</time>
      </trkpt>
      <trkpt lat="46.94644" lon="-0.53089">
        <ele>141.5</ele>
        <time>2012-07-22T07:55:10Z</time>
      </trkpt>
      <trkpt lat="46.94648" lon="-0.53086">
        <ele>141.1</ele>
        <time>2012-07-22T07:55:11Z</time>
      </trkpt>
      <trkpt lat="46.94656" lon="-0.53081">
        <ele>140.6</ele>
        <time>2012-07-22T07:55:13Z</time>
      </trkpt>
      <trkpt lat="46.94663" lon="-0.53077">
        <ele>140.1</ele>
        <time>2012-07-22T07:55:15Z</time>
      </trkpt>
      <trkpt lat="46.94671" lon="-0.53071">
        <ele>139.6</ele>
        <time>2012-07-22T07:55:17Z</time>
      </trkpt>
      <trkpt lat="46.94678" lon="-0.53064">
        <ele>139</ele>
        <time>2012-07-22T07:55:19Z</time>
      </trkpt>
      <trkpt lat="46.94682" lon="-0.5306">
        <ele>138.8</ele>
        <time>2012-07-22T07:55:20Z</time>
      </trkpt>
      <trkpt lat="46.94686" lon="-0.53056">
        <ele>138.5</ele>
        <time>2012-07-22T07:55:21Z</time>
      </trkpt>
      <trkpt lat="46.9469" lon="-0.53052">
        <ele>138.1</ele>
        <time>2012-07-22T07:55:22Z</time>
      </trkpt>
      <trkpt lat="46.94694" lon="-0.53047">
        <ele>138</ele>
        <time>2012-07-22T07:55:23Z</time>
      </trkpt>
      <trkpt lat="46.94698" lon="-0.53043">
        <ele>137.8</ele>
        <time>2012-07-22T07:55:24Z</time>
      </trkpt>
      <trkpt lat="46.94702" lon="-0.53039">
        <ele>137.6</ele>
        <time>2012-07-22T07:55:25Z</time>
      </trkpt>
      <trkpt lat="46.94706" lon="-0.53035">
        <ele>137.3</ele>
        <time>2012-07-22T07:55:26Z</time>
      </trkpt>
      <trkpt lat="46.9471" lon="-0.5303">
        <ele>137.1</ele>
        <time>2012-07-22T07:55:27Z</time>
      </trkpt>
      <trkpt lat="46.94714" lon="-0.53026">
        <ele>137</ele>
        <time>2012-07-22T07:55:28Z</time>
      </trkpt>
      <trkpt lat="46.94721" lon="-0.53018">
        <ele>136.5</ele>
        <time>2012-07-22T07:55:30Z</time>
      </trkpt>
      <trkpt lat="46.94725" lon="-0.53014">
        <ele>136.1</ele>
        <time>2012-07-22T07:55:31Z</time>
      </trkpt>
      <trkpt lat="46.94728" lon="-0.5301">
        <ele>135.8</ele>
        <time>2012-07-22T07:55:32Z</time>
      </trkpt>
      <trkpt lat="46.94733" lon="-0.53005">
        <ele>135.8</ele>
        <time>2012-07-22T07:55:33Z</time>
      </trkpt>
      <trkpt lat="46.94737" lon="-0.53001">
        <ele>135.8</ele>
        <time>2012-07-22T07:55:34Z</time>
      </trkpt>
      <trkpt lat="46.94742" lon="-0.52996">
        <ele>136</ele>
        <time>2012-07-22T07:55:35Z</time>
      </trkpt>
      <trkpt lat="46.94746" lon="-0.52991">
        <ele>136</ele>
        <time>2012-07-22T07:55:36Z</time>
      </trkpt>
      <trkpt lat="46.94751" lon="-0.52987">
        <ele>136</ele>
        <time>2012-07-22T07:55:37Z</time>
      </trkpt>
      <trkpt lat="46.94755" lon="-0.52983">
        <ele>135.8</ele>
        <time>2012-07-22T07:55:38Z</time>
      </trkpt>
      <trkpt lat="46.94759" lon="-0.52978">
        <ele>135.8</ele>
        <time>2012-07-22T07:55:39Z</time>
      </trkpt>
      <trkpt lat="46.94764" lon="-0.52974">
        <ele>135.8</ele>
        <time>2012-07-22T07:55:40Z</time>
      </trkpt>
      <trkpt lat="46.94769" lon="-0.52969">
        <ele>136.1</ele>
        <time>2012-07-22T07:55:41Z</time>
      </trkpt>
      <trkpt lat="46.94773" lon="-0.52963">
        <ele>136.1</ele>
        <time>2012-07-22T07:55:42Z</time>
      </trkpt>
      <trkpt lat="46.94778" lon="-0.52958">
        <ele>136.3</ele>
        <time>2012-07-22T07:55:43Z</time>
      </trkpt>
      <trkpt lat="46.94784" lon="-0.52953">
        <ele>136.3</ele>
        <time>2012-07-22T07:55:44Z</time>
      </trkpt>
      <trkpt lat="46.9479" lon="-0.52948">
        <ele>136.3</ele>
        <time>2012-07-22T07:55:45Z</time>
      </trkpt>
      <trkpt lat="46.94796" lon="-0.52945">
        <ele>136.3</ele>
        <time>2012-07-22T07:55:46Z</time>
      </trkpt>
      <trkpt lat="46.94802" lon="-0.52942">
        <ele>136.3</ele>
        <time>2012-07-22T07:55:47Z</time>
      </trkpt>
      <trkpt lat="46.94808" lon="-0.52939">
        <ele>136.5</ele>
        <time>2012-07-22T07:55:48Z</time>
      </trkpt>
      <trkpt lat="46.94814" lon="-0.52937">
        <ele>136.5</ele>
        <time>2012-07-22T07:55:49Z</time>
      </trkpt>
      <trkpt lat="46.94821" lon="-0.52935">
        <ele>136.5</ele>
        <time>2012-07-22T07:55:50Z</time>
      </trkpt>
      <trkpt lat="46.94827" lon="-0.52934">
        <ele>136.5</ele>
        <time>2012-07-22T07:55:51Z</time>
      </trkpt>
      <trkpt lat="46.94834" lon="-0.52933">
        <ele>136.5</ele>
        <time>2012-07-22T07:55:52Z</time>
      </trkpt>
      <trkpt lat="46.9484" lon="-0.52932">
        <ele>136.3</ele>
        <time>2012-07-22T07:55:53Z</time>
      </trkpt>
      <trkpt lat="46.94846" lon="-0.5293">
        <ele>136.3</ele>
        <time>2012-07-22T07:55:54Z</time>
      </trkpt>
      <trkpt lat="46.94852" lon="-0.52929">
        <ele>136.3</ele>
        <time>2012-07-22T07:55:55Z</time>
      </trkpt>
      <trkpt lat="46.94859" lon="-0.52928">
        <ele>136.3</ele>
        <time>2012-07-22T07:55:56Z</time>
      </trkpt>
      <trkpt lat="46.94865" lon="-0.52927">
        <ele>136.3</ele>
        <time>2012-07-22T07:55:57Z</time>
      </trkpt>
      <trkpt lat="46.94871" lon="-0.52925">
        <ele>136.6</ele>
        <time>2012-07-22T07:55:58Z</time>
      </trkpt>
      <trkpt lat="46.94877" lon="-0.52924">
        <ele>137.1</ele>
        <time>2012-07-22T07:55:59Z</time>
      </trkpt>
      <trkpt lat="46.94884" lon="-0.52922">
        <ele>137.6</ele>
        <time>2012-07-22T07:56:00Z</time>
      </trkpt>
      <trkpt lat="46.94889" lon="-0.52921">
        <ele>138.1</ele>
        <time>2012-07-22T07:56:01Z</time>
      </trkpt>
      <trkpt lat="46.94895" lon="-0.5292">
        <ele>138.5</ele>
        <time>2012-07-22T07:56:02Z</time>
      </trkpt>
      <trkpt lat="46.94902" lon="-0.52918">
        <ele>138.8</ele>
        <time>2012-07-22T07:56:03Z</time>
      </trkpt>
      <trkpt lat="46.94908" lon="-0.52917">
        <ele>139</ele>
        <time>2012-07-22T07:56:04Z</time>
      </trkpt>
      <trkpt lat="46.94914" lon="-0.52916">
        <ele>139.1</ele>
        <time>2012-07-22T07:56:05Z</time>
      </trkpt>
      <trkpt lat="46.94921" lon="-0.52915">
        <ele>139.3</ele>
        <time>2012-07-22T07:56:06Z</time>
      </trkpt>
      <trkpt lat="46.94927" lon="-0.52914">
        <ele>139.8</ele>
        <time>2012-07-22T07:56:07Z</time>
      </trkpt>
      <trkpt lat="46.94934" lon="-0.52913">
        <ele>140</ele>
        <time>2012-07-22T07:56:08Z</time>
      </trkpt>
      <trkpt lat="46.9494" lon="-0.52912">
        <ele>140.1</ele>
        <time>2012-07-22T07:56:09Z</time>
      </trkpt>
      <trkpt lat="46.94947" lon="-0.52911">
        <ele>140.3</ele>
        <time>2012-07-22T07:56:10Z</time>
      </trkpt>
      <trkpt lat="46.94953" lon="-0.5291">
        <ele>140.3</ele>
        <time>2012-07-22T07:56:11Z</time>
      </trkpt>
      <trkpt lat="46.9496" lon="-0.52908">
        <ele>140.5</ele>
        <time>2012-07-22T07:56:12Z</time>
      </trkpt>
      <trkpt lat="46.94966" lon="-0.52907">
        <ele>140.6</ele>
        <time>2012-07-22T07:56:13Z</time>
      </trkpt>
      <trkpt lat="46.94972" lon="-0.52906">
        <ele>140.8</ele>
        <time>2012-07-22T07:56:14Z</time>
      </trkpt>
      <trkpt lat="46.94978" lon="-0.52906">
        <ele>141</ele>
        <time>2012-07-22T07:56:15Z</time>
      </trkpt>
      <trkpt lat="46.94984" lon="-0.52905">
        <ele>141.1</ele>
        <time>2012-07-22T07:56:16Z</time>
      </trkpt>
      <trkpt lat="46.94991" lon="-0.52904">
        <ele>141.3</ele>
        <time>2012-07-22T07:56:17Z</time>
      </trkpt>
      <trkpt lat="46.94997" lon="-0.52903">
        <ele>141.5</ele>
        <time>2012-07-22T07:56:18Z</time>
      </trkpt>
      <trkpt lat="46.95003" lon="-0.52902">
        <ele>141.6</ele>
        <time>2012-07-22T07:56:19Z</time>
      </trkpt>
      <trkpt lat="46.9501" lon="-0.52901">
        <ele>141.8</ele>
        <time>2012-07-22T07:56:20Z</time>
      </trkpt>
      <trkpt lat="46.95016" lon="-0.52901">
        <ele>141.8</ele>
        <time>2012-07-22T07:56:21Z</time>
      </trkpt>
      <trkpt lat="46.95021" lon="-0.52901">
        <ele>141.8</ele>
        <time>2012-07-22T07:56:22Z</time>
      </trkpt>
      <trkpt lat="46.95027" lon="-0.52901">
        <ele>141.8</ele>
        <time>2012-07-22T07:56:23Z</time>
      </trkpt>
      <trkpt lat="46.95035" lon="-0.52903">
        <ele>141.8</ele>
        <time>2012-07-22T07:56:25Z</time>
      </trkpt>
      <trkpt lat="46.95043" lon="-0.52905">
        <ele>141.8</ele>
        <time>2012-07-22T07:56:27Z</time>
      </trkpt>
      <trkpt lat="46.95048" lon="-0.52904">
        <ele>142.1</ele>
        <time>2012-07-22T07:56:28Z</time>
      </trkpt>
      <trkpt lat="46.95052" lon="-0.52902">
        <ele>142.3</ele>
        <time>2012-07-22T07:56:29Z</time>
      </trkpt>
      <trkpt lat="46.95057" lon="-0.52897">
        <ele>142.6</ele>
        <time>2012-07-22T07:56:30Z</time>
      </trkpt>
      <trkpt lat="46.95062" lon="-0.52892">
        <ele>143</ele>
        <time>2012-07-22T07:56:31Z</time>
      </trkpt>
      <trkpt lat="46.95066" lon="-0.52887">
        <ele>143.3</ele>
        <time>2012-07-22T07:56:32Z</time>
      </trkpt>
      <trkpt lat="46.95071" lon="-0.52882">
        <ele>143.3</ele>
        <time>2012-07-22T07:56:33Z</time>
      </trkpt>
      <trkpt lat="46.95074" lon="-0.52876">
        <ele>143.6</ele>
        <time>2012-07-22T07:56:34Z</time>
      </trkpt>
      <trkpt lat="46.95079" lon="-0.5287">
        <ele>143.8</ele>
        <time>2012-07-22T07:56:35Z</time>
      </trkpt>
      <trkpt lat="46.95083" lon="-0.52864">
        <ele>144.3</ele>
        <time>2012-07-22T07:56:36Z</time>
      </trkpt>
      <trkpt lat="46.95088" lon="-0.52857">
        <ele>144.6</ele>
        <time>2012-07-22T07:56:37Z</time>
      </trkpt>
      <trkpt lat="46.95092" lon="-0.52851">
        <ele>144.8</ele>
        <time>2012-07-22T07:56:38Z</time>
      </trkpt>
      <trkpt lat="46.95096" lon="-0.52844">
        <ele>145.1</ele>
        <time>2012-07-22T07:56:39Z</time>
      </trkpt>
      <trkpt lat="46.951" lon="-0.52838">
        <ele>145.5</ele>
        <time>2012-07-22T07:56:40Z</time>
      </trkpt>
      <trkpt lat="46.95105" lon="-0.52831">
        <ele>145.6</ele>
        <time>2012-07-22T07:56:41Z</time>
      </trkpt>
      <trkpt lat="46.95109" lon="-0.52824">
        <ele>145.6</ele>
        <time>2012-07-22T07:56:42Z</time>
      </trkpt>
      <trkpt lat="46.95114" lon="-0.52818">
        <ele>145.6</ele>
        <time>2012-07-22T07:56:43Z</time>
      </trkpt>
      <trkpt lat="46.95119" lon="-0.52811">
        <ele>145.5</ele>
        <time>2012-07-22T07:56:44Z</time>
      </trkpt>
      <trkpt lat="46.95123" lon="-0.52804">
        <ele>145.1</ele>
        <time>2012-07-22T07:56:45Z</time>
      </trkpt>
      <trkpt lat="46.95127" lon="-0.52797">
        <ele>144.8</ele>
        <time>2012-07-22T07:56:46Z</time>
      </trkpt>
      <trkpt lat="46.9513" lon="-0.52792">
        <ele>144.3</ele>
        <time>2012-07-22T07:56:47Z</time>
      </trkpt>
      <trkpt lat="46.95135" lon="-0.52783">
        <ele>144</ele>
        <time>2012-07-22T07:56:49Z</time>
      </trkpt>
      <trkpt lat="46.9514" lon="-0.52776">
        <ele>143.8</ele>
        <time>2012-07-22T07:56:51Z</time>
      </trkpt>
      <trkpt lat="46.95145" lon="-0.52768">
        <ele>143.6</ele>
        <time>2012-07-22T07:56:53Z</time>
      </trkpt>
      <trkpt lat="46.95148" lon="-0.52763">
        <ele>142.8</ele>
        <time>2012-07-22T07:56:54Z</time>
      </trkpt>
      <trkpt lat="46.95152" lon="-0.52758">
        <ele>141.8</ele>
        <time>2012-07-22T07:56:55Z</time>
      </trkpt>
      <trkpt lat="46.95155" lon="-0.52752">
        <ele>141.1</ele>
        <time>2012-07-22T07:56:56Z</time>
      </trkpt>
      <trkpt lat="46.95159" lon="-0.52746">
        <ele>140.6</ele>
        <time>2012-07-22T07:56:57Z</time>
      </trkpt>
      <trkpt lat="46.95164" lon="-0.5274">
        <ele>140.3</ele>
        <time>2012-07-22T07:56:58Z</time>
      </trkpt>
      <trkpt lat="46.95168" lon="-0.52734">
        <ele>140.1</ele>
        <time>2012-07-22T07:56:59Z</time>
      </trkpt>
      <trkpt lat="46.95172" lon="-0.52727">
        <ele>140</ele>
        <time>2012-07-22T07:57:00Z</time>
      </trkpt>
      <trkpt lat="46.95177" lon="-0.52721">
        <ele>139.8</ele>
        <time>2012-07-22T07:57:01Z</time>
      </trkpt>
      <trkpt lat="46.95181" lon="-0.52715">
        <ele>139.8</ele>
        <time>2012-07-22T07:57:02Z</time>
      </trkpt>
      <trkpt lat="46.95186" lon="-0.52709">
        <ele>139.6</ele>
        <time>2012-07-22T07:57:03Z</time>
      </trkpt>
      <trkpt lat="46.9519" lon="-0.52703">
        <ele>139.5</ele>
        <time>2012-07-22T07:57:04Z</time>
      </trkpt>
      <trkpt lat="46.95195" lon="-0.52697">
        <ele>139.3</ele>
        <time>2012-07-22T07:57:05Z</time>
      </trkpt>
      <trkpt lat="46.95199" lon="-0.5269">
        <ele>139.1</ele>
        <time>2012-07-22T07:57:06Z</time>
      </trkpt>
      <trkpt lat="46.95203" lon="-0.52684">
        <ele>139.1</ele>
        <time>2012-07-22T07:57:07Z</time>
      </trkpt>
      <trkpt lat="46.95207" lon="-0.52679">
        <ele>139.1</ele>
        <time>2012-07-22T07:57:08Z</time>
      </trkpt>
      <trkpt lat="46.95211" lon="-0.52673">
        <ele>139.1</ele>
        <time>2012-07-22T07:57:09Z</time>
      </trkpt>
      <trkpt lat="46.95214" lon="-0.52668">
        <ele>139</ele>
        <time>2012-07-22T07:57:10Z</time>
      </trkpt>
      <trkpt lat="46.95218" lon="-0.52663">
        <ele>139</ele>
        <time>2012-07-22T07:57:11Z</time>
      </trkpt>
      <trkpt lat="46.95221" lon="-0.52658">
        <ele>139.1</ele>
        <time>2012-07-22T07:57:12Z</time>
      </trkpt>
      <trkpt lat="46.95224" lon="-0.52653">
        <ele>139.1</ele>
        <time>2012-07-22T07:57:13Z</time>
      </trkpt>
      <trkpt lat="46.95229" lon="-0.52645">
        <ele>139.1</ele>
        <time>2012-07-22T07:57:18Z</time>
      </trkpt>
      <trkpt lat="46.95237" lon="-0.52634">
        <ele>139.3</ele>
        <time>2012-07-22T07:57:19Z</time>
      </trkpt>
      <trkpt lat="46.9524" lon="-0.52625">
        <ele>139.3</ele>
        <time>2012-07-22T07:57:21Z</time>
      </trkpt>
      <trkpt lat="46.95245" lon="-0.52615">
        <ele>140.1</ele>
        <time>2012-07-22T07:57:23Z</time>
      </trkpt>
      <trkpt lat="46.95247" lon="-0.52609">
        <ele>140.6</ele>
        <time>2012-07-22T07:57:24Z</time>
      </trkpt>
      <trkpt lat="46.9525" lon="-0.52603">
        <ele>141.1</ele>
        <time>2012-07-22T07:57:25Z</time>
      </trkpt>
      <trkpt lat="46.95254" lon="-0.52597">
        <ele>141.3</ele>
        <time>2012-07-22T07:57:26Z</time>
      </trkpt>
      <trkpt lat="46.95257" lon="-0.52591">
        <ele>141.6</ele>
        <time>2012-07-22T07:57:27Z</time>
      </trkpt>
      <trkpt lat="46.9526" lon="-0.52586">
        <ele>142</ele>
        <time>2012-07-22T07:57:28Z</time>
      </trkpt>
      <trkpt lat="46.95263" lon="-0.52581">
        <ele>142.1</ele>
        <time>2012-07-22T07:57:29Z</time>
      </trkpt>
      <trkpt lat="46.95267" lon="-0.52575">
        <ele>142.5</ele>
        <time>2012-07-22T07:57:30Z</time>
      </trkpt>
      <trkpt lat="46.9527" lon="-0.52569">
        <ele>142.6</ele>
        <time>2012-07-22T07:57:31Z</time>
      </trkpt>
      <trkpt lat="46.95273" lon="-0.52563">
        <ele>142.6</ele>
        <time>2012-07-22T07:57:32Z</time>
      </trkpt>
      <trkpt lat="46.95277" lon="-0.52557">
        <ele>142.3</ele>
        <time>2012-07-22T07:57:33Z</time>
      </trkpt>
      <trkpt lat="46.95281" lon="-0.52552">
        <ele>142</ele>
        <time>2012-07-22T07:57:34Z</time>
      </trkpt>
      <trkpt lat="46.95285" lon="-0.52546">
        <ele>141.3</ele>
        <time>2012-07-22T07:57:35Z</time>
      </trkpt>
      <trkpt lat="46.95289" lon="-0.52541">
        <ele>140.8</ele>
        <time>2012-07-22T07:57:36Z</time>
      </trkpt>
      <trkpt lat="46.95294" lon="-0.52535">
        <ele>140.3</ele>
        <time>2012-07-22T07:57:37Z</time>
      </trkpt>
      <trkpt lat="46.95299" lon="-0.5253">
        <ele>140.1</ele>
        <time>2012-07-22T07:57:38Z</time>
      </trkpt>
      <trkpt lat="46.95303" lon="-0.52524">
        <ele>140</ele>
        <time>2012-07-22T07:57:39Z</time>
      </trkpt>
      <trkpt lat="46.95308" lon="-0.52519">
        <ele>139.8</ele>
        <time>2012-07-22T07:57:40Z</time>
      </trkpt>
      <trkpt lat="46.95312" lon="-0.52514">
        <ele>140</ele>
        <time>2012-07-22T07:57:41Z</time>
      </trkpt>
      <trkpt lat="46.95317" lon="-0.52509">
        <ele>140.1</ele>
        <time>2012-07-22T07:57:42Z</time>
      </trkpt>
      <trkpt lat="46.95322" lon="-0.52503">
        <ele>140.3</ele>
        <time>2012-07-22T07:57:43Z</time>
      </trkpt>
      <trkpt lat="46.95327" lon="-0.52498">
        <ele>140.8</ele>
        <time>2012-07-22T07:57:44Z</time>
      </trkpt>
      <trkpt lat="46.95332" lon="-0.52492">
        <ele>141.3</ele>
        <time>2012-07-22T07:57:45Z</time>
      </trkpt>
      <trkpt lat="46.95337" lon="-0.52487">
        <ele>141.6</ele>
        <time>2012-07-22T07:57:46Z</time>
      </trkpt>
      <trkpt lat="46.95342" lon="-0.52481">
        <ele>141.8</ele>
        <time>2012-07-22T07:57:47Z</time>
      </trkpt>
      <trkpt lat="46.95347" lon="-0.52476">
        <ele>142</ele>
        <time>2012-07-22T07:57:48Z</time>
      </trkpt>
      <trkpt lat="46.95352" lon="-0.52471">
        <ele>142.1</ele>
        <time>2012-07-22T07:57:49Z</time>
      </trkpt>
      <trkpt lat="46.95356" lon="-0.52466">
        <ele>142.3</ele>
        <time>2012-07-22T07:57:50Z</time>
      </trkpt>
      <trkpt lat="46.95361" lon="-0.52462">
        <ele>142.5</ele>
        <time>2012-07-22T07:57:51Z</time>
      </trkpt>
      <trkpt lat="46.95366" lon="-0.52457">
        <ele>142.6</ele>
        <time>2012-07-22T07:57:52Z</time>
      </trkpt>
      <trkpt lat="46.95371" lon="-0.52452">
        <ele>142.8</ele>
        <time>2012-07-22T07:57:53Z</time>
      </trkpt>
      <trkpt lat="46.95375" lon="-0.52447">
        <ele>143.1</ele>
        <time>2012-07-22T07:57:54Z</time>
      </trkpt>
      <trkpt lat="46.95378" lon="-0.52441">
        <ele>143.1</ele>
        <time>2012-07-22T07:57:55Z</time>
      </trkpt>
      <trkpt lat="46.95385" lon="-0.52432">
        <ele>143.1</ele>
        <time>2012-07-22T07:57:57Z</time>
      </trkpt>
      <trkpt lat="46.95391" lon="-0.52423">
        <ele>143</ele>
        <time>2012-07-22T07:57:59Z</time>
      </trkpt>
      <trkpt lat="46.95394" lon="-0.52419">
        <ele>142.3</ele>
        <time>2012-07-22T07:58:00Z</time>
      </trkpt>
      <trkpt lat="46.95398" lon="-0.52414">
        <ele>141.5</ele>
        <time>2012-07-22T07:58:01Z</time>
      </trkpt>
      <trkpt lat="46.95402" lon="-0.52408">
        <ele>140.6</ele>
        <time>2012-07-22T07:58:02Z</time>
      </trkpt>
      <trkpt lat="46.95405" lon="-0.52403">
        <ele>140</ele>
        <time>2012-07-22T07:58:03Z</time>
      </trkpt>
      <trkpt lat="46.95409" lon="-0.52399">
        <ele>139.6</ele>
        <time>2012-07-22T07:58:04Z</time>
      </trkpt>
      <trkpt lat="46.95413" lon="-0.52394">
        <ele>139.6</ele>
        <time>2012-07-22T07:58:05Z</time>
      </trkpt>
      <trkpt lat="46.95418" lon="-0.52389">
        <ele>139.8</ele>
        <time>2012-07-22T07:58:06Z</time>
      </trkpt>
      <trkpt lat="46.95422" lon="-0.52384">
        <ele>140</ele>
        <time>2012-07-22T07:58:07Z</time>
      </trkpt>
      <trkpt lat="46.95426" lon="-0.52378">
        <ele>140</ele>
        <time>2012-07-22T07:58:08Z</time>
      </trkpt>
      <trkpt lat="46.95427" lon="-0.5237">
        <ele>140</ele>
        <time>2012-07-22T07:58:09Z</time>
      </trkpt>
      <trkpt lat="46.95427" lon="-0.52363">
        <ele>140</ele>
        <time>2012-07-22T07:58:10Z</time>
      </trkpt>
      <trkpt lat="46.95428" lon="-0.5235">
        <ele>139.8</ele>
        <time>2012-07-22T07:58:12Z</time>
      </trkpt>
      <trkpt lat="46.95428" lon="-0.52346">
        <ele>139.8</ele>
        <time>2012-07-22T07:58:15Z</time>
      </trkpt>
      <trkpt lat="46.95429" lon="-0.52336">
        <ele>139.8</ele>
        <time>2012-07-22T07:58:16Z</time>
      </trkpt>
      <trkpt lat="46.95441" lon="-0.52338">
        <ele>139.1</ele>
        <time>2012-07-22T07:58:19Z</time>
      </trkpt>
      <trkpt lat="46.95446" lon="-0.52338">
        <ele>138.8</ele>
        <time>2012-07-22T07:58:20Z</time>
      </trkpt>
      <trkpt lat="46.9545" lon="-0.52339">
        <ele>138.3</ele>
        <time>2012-07-22T07:58:21Z</time>
      </trkpt>
      <trkpt lat="46.95455" lon="-0.5234">
        <ele>138</ele>
        <time>2012-07-22T07:58:22Z</time>
      </trkpt>
      <trkpt lat="46.9546" lon="-0.52342">
        <ele>137.6</ele>
        <time>2012-07-22T07:58:23Z</time>
      </trkpt>
      <trkpt lat="46.95465" lon="-0.52343">
        <ele>137.5</ele>
        <time>2012-07-22T07:58:24Z</time>
      </trkpt>
      <trkpt lat="46.9547" lon="-0.52345">
        <ele>137.3</ele>
        <time>2012-07-22T07:58:25Z</time>
      </trkpt>
      <trkpt lat="46.95476" lon="-0.52347">
        <ele>137.1</ele>
        <time>2012-07-22T07:58:26Z</time>
      </trkpt>
      <trkpt lat="46.95481" lon="-0.5235">
        <ele>136.8</ele>
        <time>2012-07-22T07:58:27Z</time>
      </trkpt>
      <trkpt lat="46.95487" lon="-0.52354">
        <ele>136.6</ele>
        <time>2012-07-22T07:58:28Z</time>
      </trkpt>
      <trkpt lat="46.95492" lon="-0.52359">
        <ele>136.5</ele>
        <time>2012-07-22T07:58:29Z</time>
      </trkpt>
      <trkpt lat="46.95498" lon="-0.52364">
        <ele>136.3</ele>
        <time>2012-07-22T07:58:30Z</time>
      </trkpt>
      <trkpt lat="46.95503" lon="-0.52369">
        <ele>136.1</ele>
        <time>2012-07-22T07:58:31Z</time>
      </trkpt>
      <trkpt lat="46.95508" lon="-0.52375">
        <ele>136.1</ele>
        <time>2012-07-22T07:58:32Z</time>
      </trkpt>
      <trkpt lat="46.95513" lon="-0.52381">
        <ele>136</ele>
        <time>2012-07-22T07:58:33Z</time>
      </trkpt>
      <trkpt lat="46.95517" lon="-0.52387">
        <ele>136</ele>
        <time>2012-07-22T07:58:34Z</time>
      </trkpt>
      <trkpt lat="46.95522" lon="-0.52393">
        <ele>135.8</ele>
        <time>2012-07-22T07:58:35Z</time>
      </trkpt>
      <trkpt lat="46.95527" lon="-0.52399">
        <ele>135.8</ele>
        <time>2012-07-22T07:58:36Z</time>
      </trkpt>
      <trkpt lat="46.95531" lon="-0.52405">
        <ele>135.8</ele>
        <time>2012-07-22T07:58:37Z</time>
      </trkpt>
      <trkpt lat="46.95535" lon="-0.52411">
        <ele>135.8</ele>
        <time>2012-07-22T07:58:38Z</time>
      </trkpt>
      <trkpt lat="46.9554" lon="-0.52416">
        <ele>135.8</ele>
        <time>2012-07-22T07:58:39Z</time>
      </trkpt>
      <trkpt lat="46.95544" lon="-0.52422">
        <ele>135.8</ele>
        <time>2012-07-22T07:58:40Z</time>
      </trkpt>
      <trkpt lat="46.95549" lon="-0.52427">
        <ele>135.8</ele>
        <time>2012-07-22T07:58:41Z</time>
      </trkpt>
      <trkpt lat="46.95553" lon="-0.52433">
        <ele>135.8</ele>
        <time>2012-07-22T07:58:42Z</time>
      </trkpt>
      <trkpt lat="46.95558" lon="-0.52438">
        <ele>135.8</ele>
        <time>2012-07-22T07:58:43Z</time>
      </trkpt>
      <trkpt lat="46.95563" lon="-0.52442">
        <ele>135.8</ele>
        <time>2012-07-22T07:58:44Z</time>
      </trkpt>
      <trkpt lat="46.95568" lon="-0.52447">
        <ele>135.8</ele>
        <time>2012-07-22T07:58:45Z</time>
      </trkpt>
      <trkpt lat="46.95573" lon="-0.52451">
        <ele>135.6</ele>
        <time>2012-07-22T07:58:46Z</time>
      </trkpt>
      <trkpt lat="46.95578" lon="-0.52456">
        <ele>135.3</ele>
        <time>2012-07-22T07:58:47Z</time>
      </trkpt>
      <trkpt lat="46.95583" lon="-0.5246">
        <ele>135.3</ele>
        <time>2012-07-22T07:58:48Z</time>
      </trkpt>
      <trkpt lat="46.95587" lon="-0.52464">
        <ele>135.1</ele>
        <time>2012-07-22T07:58:49Z</time>
      </trkpt>
      <trkpt lat="46.95592" lon="-0.52469">
        <ele>135</ele>
        <time>2012-07-22T07:58:50Z</time>
      </trkpt>
      <trkpt lat="46.95597" lon="-0.52474">
        <ele>134.8</ele>
        <time>2012-07-22T07:58:51Z</time>
      </trkpt>
      <trkpt lat="46.95601" lon="-0.52479">
        <ele>134.8</ele>
        <time>2012-07-22T07:58:52Z</time>
      </trkpt>
      <trkpt lat="46.95606" lon="-0.52485">
        <ele>134.6</ele>
        <time>2012-07-22T07:58:53Z</time>
      </trkpt>
      <trkpt lat="46.9561" lon="-0.52492">
        <ele>134.5</ele>
        <time>2012-07-22T07:58:54Z</time>
      </trkpt>
      <trkpt lat="46.95614" lon="-0.52499">
        <ele>134.3</ele>
        <time>2012-07-22T07:58:55Z</time>
      </trkpt>
      <trkpt lat="46.95618" lon="-0.52506">
        <ele>134.3</ele>
        <time>2012-07-22T07:58:56Z</time>
      </trkpt>
      <trkpt lat="46.95622" lon="-0.52513">
        <ele>134.3</ele>
        <time>2012-07-22T07:58:57Z</time>
      </trkpt>
      <trkpt lat="46.95625" lon="-0.52519">
        <ele>134.1</ele>
        <time>2012-07-22T07:58:58Z</time>
      </trkpt>
      <trkpt lat="46.95629" lon="-0.52525">
        <ele>133.8</ele>
        <time>2012-07-22T07:58:59Z</time>
      </trkpt>
      <trkpt lat="46.95633" lon="-0.52532">
        <ele>133.8</ele>
        <time>2012-07-22T07:59:00Z</time>
      </trkpt>
      <trkpt lat="46.95637" lon="-0.52538">
        <ele>133.6</ele>
        <time>2012-07-22T07:59:01Z</time>
      </trkpt>
      <trkpt lat="46.95641" lon="-0.52544">
        <ele>133.5</ele>
        <time>2012-07-22T07:59:02Z</time>
      </trkpt>
      <trkpt lat="46.95645" lon="-0.5255">
        <ele>133.5</ele>
        <time>2012-07-22T07:59:03Z</time>
      </trkpt>
      <trkpt lat="46.9565" lon="-0.52556">
        <ele>133.3</ele>
        <time>2012-07-22T07:59:04Z</time>
      </trkpt>
      <trkpt lat="46.95656" lon="-0.52562">
        <ele>133.3</ele>
        <time>2012-07-22T07:59:05Z</time>
      </trkpt>
      <trkpt lat="46.95661" lon="-0.52568">
        <ele>133.3</ele>
        <time>2012-07-22T07:59:06Z</time>
      </trkpt>
      <trkpt lat="46.95666" lon="-0.52574">
        <ele>133.1</ele>
        <time>2012-07-22T07:59:07Z</time>
      </trkpt>
      <trkpt lat="46.95671" lon="-0.5258">
        <ele>133.1</ele>
        <time>2012-07-22T07:59:08Z</time>
      </trkpt>
      <trkpt lat="46.95675" lon="-0.52586">
        <ele>133.1</ele>
        <time>2012-07-22T07:59:09Z</time>
      </trkpt>
      <trkpt lat="46.9568" lon="-0.52592">
        <ele>133.1</ele>
        <time>2012-07-22T07:59:10Z</time>
      </trkpt>
      <trkpt lat="46.95684" lon="-0.52598">
        <ele>133</ele>
        <time>2012-07-22T07:59:11Z</time>
      </trkpt>
      <trkpt lat="46.95689" lon="-0.52605">
        <ele>133</ele>
        <time>2012-07-22T07:59:12Z</time>
      </trkpt>
      <trkpt lat="46.95693" lon="-0.52611">
        <ele>133</ele>
        <time>2012-07-22T07:59:13Z</time>
      </trkpt>
      <trkpt lat="46.95697" lon="-0.52617">
        <ele>132.8</ele>
        <time>2012-07-22T07:59:14Z</time>
      </trkpt>
      <trkpt lat="46.95701" lon="-0.52623">
        <ele>132.8</ele>
        <time>2012-07-22T07:59:15Z</time>
      </trkpt>
      <trkpt lat="46.95704" lon="-0.52629">
        <ele>132.8</ele>
        <time>2012-07-22T07:59:16Z</time>
      </trkpt>
      <trkpt lat="46.95708" lon="-0.52635">
        <ele>132.6</ele>
        <time>2012-07-22T07:59:17Z</time>
      </trkpt>
      <trkpt lat="46.95711" lon="-0.52641">
        <ele>132.6</ele>
        <time>2012-07-22T07:59:18Z</time>
      </trkpt>
      <trkpt lat="46.95715" lon="-0.52646">
        <ele>132.3</ele>
        <time>2012-07-22T07:59:19Z</time>
      </trkpt>
      <trkpt lat="46.95718" lon="-0.52652">
        <ele>132.1</ele>
        <time>2012-07-22T07:59:20Z</time>
      </trkpt>
      <trkpt lat="46.95721" lon="-0.52658">
        <ele>132</ele>
        <time>2012-07-22T07:59:21Z</time>
      </trkpt>
      <trkpt lat="46.95725" lon="-0.52664">
        <ele>131.6</ele>
        <time>2012-07-22T07:59:22Z</time>
      </trkpt>
      <trkpt lat="46.95728" lon="-0.5267">
        <ele>131.5</ele>
        <time>2012-07-22T07:59:23Z</time>
      </trkpt>
      <trkpt lat="46.95731" lon="-0.52676">
        <ele>131.3</ele>
        <time>2012-07-22T07:59:24Z</time>
      </trkpt>
      <trkpt lat="46.95734" lon="-0.52682">
        <ele>131.1</ele>
        <time>2012-07-22T07:59:25Z</time>
      </trkpt>
      <trkpt lat="46.95737" lon="-0.52688">
        <ele>131</ele>
        <time>2012-07-22T07:59:26Z</time>
      </trkpt>
      <trkpt lat="46.9574" lon="-0.52694">
        <ele>130.8</ele>
        <time>2012-07-22T07:59:27Z</time>
      </trkpt>
      <trkpt lat="46.95743" lon="-0.52699">
        <ele>130.6</ele>
        <time>2012-07-22T07:59:28Z</time>
      </trkpt>
      <trkpt lat="46.95747" lon="-0.52705">
        <ele>130.3</ele>
        <time>2012-07-22T07:59:29Z</time>
      </trkpt>
      <trkpt lat="46.9575" lon="-0.5271">
        <ele>130.1</ele>
        <time>2012-07-22T07:59:30Z</time>
      </trkpt>
      <trkpt lat="46.95754" lon="-0.52715">
        <ele>130</ele>
        <time>2012-07-22T07:59:31Z</time>
      </trkpt>
      <trkpt lat="46.9576" lon="-0.52725">
        <ele>129.6</ele>
        <time>2012-07-22T07:59:33Z</time>
      </trkpt>
      <trkpt lat="46.95765" lon="-0.52733">
        <ele>129.3</ele>
        <time>2012-07-22T07:59:35Z</time>
      </trkpt>
      <trkpt lat="46.95772" lon="-0.52733">
        <ele>129.3</ele>
        <time>2012-07-22T07:59:38Z</time>
      </trkpt>
      <trkpt lat="46.95776" lon="-0.52727">
        <ele>129.1</ele>
        <time>2012-07-22T07:59:40Z</time>
      </trkpt>
      <trkpt lat="46.95781" lon="-0.52716">
        <ele>128.6</ele>
        <time>2012-07-22T07:59:42Z</time>
      </trkpt>
      <trkpt lat="46.95783" lon="-0.5271">
        <ele>128.3</ele>
        <time>2012-07-22T07:59:43Z</time>
      </trkpt>
      <trkpt lat="46.95786" lon="-0.52704">
        <ele>128.1</ele>
        <time>2012-07-22T07:59:44Z</time>
      </trkpt>
      <trkpt lat="46.95789" lon="-0.52692">
        <ele>128.6</ele>
        <time>2012-07-22T07:59:46Z</time>
      </trkpt>
      <trkpt lat="46.95791" lon="-0.52679">
        <ele>129.1</ele>
        <time>2012-07-22T07:59:48Z</time>
      </trkpt>
      <trkpt lat="46.95792" lon="-0.52672">
        <ele>129.6</ele>
        <time>2012-07-22T07:59:49Z</time>
      </trkpt>
      <trkpt lat="46.95793" lon="-0.52665">
        <ele>130.1</ele>
        <time>2012-07-22T07:59:50Z</time>
      </trkpt>
      <trkpt lat="46.95794" lon="-0.52657">
        <ele>130.3</ele>
        <time>2012-07-22T07:59:51Z</time>
      </trkpt>
      <trkpt lat="46.95795" lon="-0.52649">
        <ele>130.5</ele>
        <time>2012-07-22T07:59:52Z</time>
      </trkpt>
      <trkpt lat="46.95795" lon="-0.5264">
        <ele>130.1</ele>
        <time>2012-07-22T07:59:53Z</time>
      </trkpt>
      <trkpt lat="46.95796" lon="-0.52631">
        <ele>129.8</ele>
        <time>2012-07-22T07:59:54Z</time>
      </trkpt>
      <trkpt lat="46.95796" lon="-0.52621">
        <ele>129.1</ele>
        <time>2012-07-22T07:59:55Z</time>
      </trkpt>
      <trkpt lat="46.95797" lon="-0.52611">
        <ele>128.6</ele>
        <time>2012-07-22T07:59:56Z</time>
      </trkpt>
      <trkpt lat="46.95798" lon="-0.52602">
        <ele>128.1</ele>
        <time>2012-07-22T07:59:57Z</time>
      </trkpt>
      <trkpt lat="46.95799" lon="-0.52592">
        <ele>127.5</ele>
        <time>2012-07-22T07:59:58Z</time>
      </trkpt>
      <trkpt lat="46.95799" lon="-0.52583">
        <ele>127.3</ele>
        <time>2012-07-22T07:59:59Z</time>
      </trkpt>
      <trkpt lat="46.95802" lon="-0.52574">
        <ele>127</ele>
        <time>2012-07-22T08:00:00Z</time>
      </trkpt>
      <trkpt lat="46.95804" lon="-0.52565">
        <ele>126.8</ele>
        <time>2012-07-22T08:00:01Z</time>
      </trkpt>
      <trkpt lat="46.95806" lon="-0.52558">
        <ele>126.4</ele>
        <time>2012-07-22T08:00:02Z</time>
      </trkpt>
      <trkpt lat="46.95808" lon="-0.5255">
        <ele>126</ele>
        <time>2012-07-22T08:00:03Z</time>
      </trkpt>
      <trkpt lat="46.9581" lon="-0.52543">
        <ele>125.8</ele>
        <time>2012-07-22T08:00:04Z</time>
      </trkpt>
      <trkpt lat="46.95812" lon="-0.52535">
        <ele>125.5</ele>
        <time>2012-07-22T08:00:05Z</time>
      </trkpt>
      <trkpt lat="46.95815" lon="-0.52527">
        <ele>125.4</ele>
        <time>2012-07-22T08:00:06Z</time>
      </trkpt>
      <trkpt lat="46.95819" lon="-0.52519">
        <ele>125.3</ele>
        <time>2012-07-22T08:00:07Z</time>
      </trkpt>
      <trkpt lat="46.95822" lon="-0.52511">
        <ele>125.5</ele>
        <time>2012-07-22T08:00:08Z</time>
      </trkpt>
      <trkpt lat="46.95825" lon="-0.52501">
        <ele>125.9</ele>
        <time>2012-07-22T08:00:09Z</time>
      </trkpt>
      <trkpt lat="46.95828" lon="-0.52492">
        <ele>126</ele>
        <time>2012-07-22T08:00:10Z</time>
      </trkpt>
      <trkpt lat="46.95831" lon="-0.52482">
        <ele>126.4</ele>
        <time>2012-07-22T08:00:11Z</time>
      </trkpt>
      <trkpt lat="46.95834" lon="-0.52473">
        <ele>126.5</ele>
        <time>2012-07-22T08:00:12Z</time>
      </trkpt>
      <trkpt lat="46.95837" lon="-0.52465">
        <ele>126.9</ele>
        <time>2012-07-22T08:00:13Z</time>
      </trkpt>
      <trkpt lat="46.9584" lon="-0.52457">
        <ele>127</ele>
        <time>2012-07-22T08:00:14Z</time>
      </trkpt>
      <trkpt lat="46.95843" lon="-0.52449">
        <ele>126.8</ele>
        <time>2012-07-22T08:00:15Z</time>
      </trkpt>
      <trkpt lat="46.95846" lon="-0.52441">
        <ele>126.4</ele>
        <time>2012-07-22T08:00:16Z</time>
      </trkpt>
      <trkpt lat="46.9585" lon="-0.52432">
        <ele>125.9</ele>
        <time>2012-07-22T08:00:17Z</time>
      </trkpt>
      <trkpt lat="46.95853" lon="-0.52423">
        <ele>125.5</ele>
        <time>2012-07-22T08:00:18Z</time>
      </trkpt>
      <trkpt lat="46.95857" lon="-0.52415">
        <ele>125</ele>
        <time>2012-07-22T08:00:19Z</time>
      </trkpt>
      <trkpt lat="46.95861" lon="-0.52407">
        <ele>124.5</ele>
        <time>2012-07-22T08:00:20Z</time>
      </trkpt>
      <trkpt lat="46.95864" lon="-0.52398">
        <ele>124</ele>
        <time>2012-07-22T08:00:21Z</time>
      </trkpt>
      <trkpt lat="46.95868" lon="-0.5239">
        <ele>123.8</ele>
        <time>2012-07-22T08:00:22Z</time>
      </trkpt>
      <trkpt lat="46.95872" lon="-0.52381">
        <ele>123.5</ele>
        <time>2012-07-22T08:00:23Z</time>
      </trkpt>
      <trkpt lat="46.95877" lon="-0.52373">
        <ele>123</ele>
        <time>2012-07-22T08:00:24Z</time>
      </trkpt>
      <trkpt lat="46.95881" lon="-0.52365">
        <ele>122.5</ele>
        <time>2012-07-22T08:00:25Z</time>
      </trkpt>
      <trkpt lat="46.95887" lon="-0.52357">
        <ele>122.3</ele>
        <time>2012-07-22T08:00:26Z</time>
      </trkpt>
      <trkpt lat="46.95892" lon="-0.52349">
        <ele>122</ele>
        <time>2012-07-22T08:00:27Z</time>
      </trkpt>
      <trkpt lat="46.95898" lon="-0.52341">
        <ele>121.8</ele>
        <time>2012-07-22T08:00:28Z</time>
      </trkpt>
      <trkpt lat="46.95904" lon="-0.52334">
        <ele>121.5</ele>
        <time>2012-07-22T08:00:29Z</time>
      </trkpt>
      <trkpt lat="46.9591" lon="-0.52327">
        <ele>121</ele>
        <time>2012-07-22T08:00:30Z</time>
      </trkpt>
      <trkpt lat="46.95916" lon="-0.5232">
        <ele>120.9</ele>
        <time>2012-07-22T08:00:31Z</time>
      </trkpt>
      <trkpt lat="46.95922" lon="-0.52313">
        <ele>120.5</ele>
        <time>2012-07-22T08:00:32Z</time>
      </trkpt>
      <trkpt lat="46.95928" lon="-0.52306">
        <ele>120.3</ele>
        <time>2012-07-22T08:00:33Z</time>
      </trkpt>
      <trkpt lat="46.95934" lon="-0.52299">
        <ele>120</ele>
        <time>2012-07-22T08:00:34Z</time>
      </trkpt>
      <trkpt lat="46.9594" lon="-0.52292">
        <ele>119.9</ele>
        <time>2012-07-22T08:00:35Z</time>
      </trkpt>
      <trkpt lat="46.95946" lon="-0.52284">
        <ele>119.8</ele>
        <time>2012-07-22T08:00:36Z</time>
      </trkpt>
      <trkpt lat="46.95953" lon="-0.52277">
        <ele>119.5</ele>
        <time>2012-07-22T08:00:37Z</time>
      </trkpt>
      <trkpt lat="46.95959" lon="-0.5227">
        <ele>119.5</ele>
        <time>2012-07-22T08:00:38Z</time>
      </trkpt>
      <trkpt lat="46.95964" lon="-0.52262">
        <ele>119.3</ele>
        <time>2012-07-22T08:00:39Z</time>
      </trkpt>
      <trkpt lat="46.9597" lon="-0.52255">
        <ele>119</ele>
        <time>2012-07-22T08:00:40Z</time>
      </trkpt>
      <trkpt lat="46.95975" lon="-0.52247">
        <ele>118.9</ele>
        <time>2012-07-22T08:00:41Z</time>
      </trkpt>
      <trkpt lat="46.95981" lon="-0.52239">
        <ele>118.5</ele>
        <time>2012-07-22T08:00:42Z</time>
      </trkpt>
      <trkpt lat="46.95987" lon="-0.52231">
        <ele>118.5</ele>
        <time>2012-07-22T08:00:43Z</time>
      </trkpt>
      <trkpt lat="46.95992" lon="-0.52224">
        <ele>118.3</ele>
        <time>2012-07-22T08:00:44Z</time>
      </trkpt>
      <trkpt lat="46.95998" lon="-0.52217">
        <ele>118</ele>
        <time>2012-07-22T08:00:45Z</time>
      </trkpt>
      <trkpt lat="46.96004" lon="-0.52211">
        <ele>118</ele>
        <time>2012-07-22T08:00:46Z</time>
      </trkpt>
      <trkpt lat="46.96011" lon="-0.52204">
        <ele>118</ele>
        <time>2012-07-22T08:00:47Z</time>
      </trkpt>
      <trkpt lat="46.96017" lon="-0.52198">
        <ele>118.3</ele>
        <time>2012-07-22T08:00:48Z</time>
      </trkpt>
      <trkpt lat="46.96023" lon="-0.52192">
        <ele>118.4</ele>
        <time>2012-07-22T08:00:49Z</time>
      </trkpt>
      <trkpt lat="46.9603" lon="-0.52186">
        <ele>118.5</ele>
        <time>2012-07-22T08:00:50Z</time>
      </trkpt>
      <trkpt lat="46.96036" lon="-0.52181">
        <ele>118.5</ele>
        <time>2012-07-22T08:00:51Z</time>
      </trkpt>
      <trkpt lat="46.96043" lon="-0.52176">
        <ele>118.8</ele>
        <time>2012-07-22T08:00:52Z</time>
      </trkpt>
      <trkpt lat="46.96049" lon="-0.52172">
        <ele>119</ele>
        <time>2012-07-22T08:00:53Z</time>
      </trkpt>
      <trkpt lat="46.96055" lon="-0.52167">
        <ele>119</ele>
        <time>2012-07-22T08:00:54Z</time>
      </trkpt>
      <trkpt lat="46.96061" lon="-0.52162">
        <ele>119</ele>
        <time>2012-07-22T08:00:55Z</time>
      </trkpt>
      <trkpt lat="46.96067" lon="-0.52157">
        <ele>119</ele>
        <time>2012-07-22T08:00:56Z</time>
      </trkpt>
      <trkpt lat="46.96073" lon="-0.52153">
        <ele>119.3</ele>
        <time>2012-07-22T08:00:57Z</time>
      </trkpt>
      <trkpt lat="46.96079" lon="-0.52148">
        <ele>119.5</ele>
        <time>2012-07-22T08:00:58Z</time>
      </trkpt>
      <trkpt lat="46.96085" lon="-0.52143">
        <ele>119.5</ele>
        <time>2012-07-22T08:00:59Z</time>
      </trkpt>
      <trkpt lat="46.96091" lon="-0.52138">
        <ele>119.5</ele>
        <time>2012-07-22T08:01:00Z</time>
      </trkpt>
      <trkpt lat="46.96096" lon="-0.52133">
        <ele>119.5</ele>
        <time>2012-07-22T08:01:01Z</time>
      </trkpt>
      <trkpt lat="46.96102" lon="-0.52128">
        <ele>119.4</ele>
        <time>2012-07-22T08:01:02Z</time>
      </trkpt>
      <trkpt lat="46.96107" lon="-0.52123">
        <ele>119.3</ele>
        <time>2012-07-22T08:01:03Z</time>
      </trkpt>
      <trkpt lat="46.96113" lon="-0.52118">
        <ele>119</ele>
        <time>2012-07-22T08:01:04Z</time>
      </trkpt>
      <trkpt lat="46.96118" lon="-0.52113">
        <ele>119</ele>
        <time>2012-07-22T08:01:05Z</time>
      </trkpt>
      <trkpt lat="46.96123" lon="-0.52108">
        <ele>118.9</ele>
        <time>2012-07-22T08:01:06Z</time>
      </trkpt>
      <trkpt lat="46.96129" lon="-0.52103">
        <ele>118.5</ele>
        <time>2012-07-22T08:01:07Z</time>
      </trkpt>
      <trkpt lat="46.96134" lon="-0.52098">
        <ele>118.5</ele>
        <time>2012-07-22T08:01:08Z</time>
      </trkpt>
      <trkpt lat="46.96139" lon="-0.52094">
        <ele>118.4</ele>
        <time>2012-07-22T08:01:09Z</time>
      </trkpt>
      <trkpt lat="46.96144" lon="-0.52089">
        <ele>118</ele>
        <time>2012-07-22T08:01:10Z</time>
      </trkpt>
      <trkpt lat="46.96149" lon="-0.52084">
        <ele>117.9</ele>
        <time>2012-07-22T08:01:11Z</time>
      </trkpt>
      <trkpt lat="46.96154" lon="-0.5208">
        <ele>117.5</ele>
        <time>2012-07-22T08:01:12Z</time>
      </trkpt>
      <trkpt lat="46.96158" lon="-0.52075">
        <ele>117.5</ele>
        <time>2012-07-22T08:01:13Z</time>
      </trkpt>
      <trkpt lat="46.96163" lon="-0.52071">
        <ele>117.3</ele>
        <time>2012-07-22T08:01:14Z</time>
      </trkpt>
      <trkpt lat="46.96167" lon="-0.52066">
        <ele>117</ele>
        <time>2012-07-22T08:01:15Z</time>
      </trkpt>
      <trkpt lat="46.96173" lon="-0.52061">
        <ele>117</ele>
        <time>2012-07-22T08:01:16Z</time>
      </trkpt>
      <trkpt lat="46.96178" lon="-0.52054">
        <ele>117.3</ele>
        <time>2012-07-22T08:01:17Z</time>
      </trkpt>
      <trkpt lat="46.96183" lon="-0.52047">
        <ele>117.4</ele>
        <time>2012-07-22T08:01:18Z</time>
      </trkpt>
      <trkpt lat="46.96189" lon="-0.52039">
        <ele>117.4</ele>
        <time>2012-07-22T08:01:19Z</time>
      </trkpt>
      <trkpt lat="46.96194" lon="-0.52031">
        <ele>117.4</ele>
        <time>2012-07-22T08:01:20Z</time>
      </trkpt>
      <trkpt lat="46.962" lon="-0.52023">
        <ele>117.5</ele>
        <time>2012-07-22T08:01:21Z</time>
      </trkpt>
      <trkpt lat="46.96205" lon="-0.52014">
        <ele>117.5</ele>
        <time>2012-07-22T08:01:22Z</time>
      </trkpt>
      <trkpt lat="46.96209" lon="-0.52006">
        <ele>117.4</ele>
        <time>2012-07-22T08:01:23Z</time>
      </trkpt>
      <trkpt lat="46.96214" lon="-0.51998">
        <ele>116.9</ele>
        <time>2012-07-22T08:01:24Z</time>
      </trkpt>
      <trkpt lat="46.96218" lon="-0.5199">
        <ele>116.5</ele>
        <time>2012-07-22T08:01:25Z</time>
      </trkpt>
      <trkpt lat="46.96222" lon="-0.51982">
        <ele>116.3</ele>
        <time>2012-07-22T08:01:26Z</time>
      </trkpt>
      <trkpt lat="46.96226" lon="-0.51975">
        <ele>116</ele>
        <time>2012-07-22T08:01:27Z</time>
      </trkpt>
      <trkpt lat="46.9623" lon="-0.51967">
        <ele>116.5</ele>
        <time>2012-07-22T08:01:28Z</time>
      </trkpt>
      <trkpt lat="46.96232" lon="-0.51959">
        <ele>116.9</ele>
        <time>2012-07-22T08:01:29Z</time>
      </trkpt>
      <trkpt lat="46.96235" lon="-0.51952">
        <ele>117.3</ele>
        <time>2012-07-22T08:01:30Z</time>
      </trkpt>
      <trkpt lat="46.96238" lon="-0.51945">
        <ele>117.5</ele>
        <time>2012-07-22T08:01:31Z</time>
      </trkpt>
      <trkpt lat="46.96241" lon="-0.51938">
        <ele>117.8</ele>
        <time>2012-07-22T08:01:32Z</time>
      </trkpt>
      <trkpt lat="46.96243" lon="-0.51932">
        <ele>117.8</ele>
        <time>2012-07-22T08:01:33Z</time>
      </trkpt>
      <trkpt lat="46.96247" lon="-0.5192">
        <ele>117.5</ele>
        <time>2012-07-22T08:01:35Z</time>
      </trkpt>
      <trkpt lat="46.96248" lon="-0.51914">
        <ele>117.5</ele>
        <time>2012-07-22T08:01:36Z</time>
      </trkpt>
      <trkpt lat="46.96251" lon="-0.51907">
        <ele>117.5</ele>
        <time>2012-07-22T08:01:37Z</time>
      </trkpt>
      <trkpt lat="46.96253" lon="-0.51901">
        <ele>117.5</ele>
        <time>2012-07-22T08:01:38Z</time>
      </trkpt>
      <trkpt lat="46.96254" lon="-0.51894">
        <ele>117.4</ele>
        <time>2012-07-22T08:01:39Z</time>
      </trkpt>
      <trkpt lat="46.96255" lon="-0.51886">
        <ele>117</ele>
        <time>2012-07-22T08:01:40Z</time>
      </trkpt>
      <trkpt lat="46.96256" lon="-0.51879">
        <ele>117</ele>
        <time>2012-07-22T08:01:41Z</time>
      </trkpt>
      <trkpt lat="46.96258" lon="-0.51872">
        <ele>117</ele>
        <time>2012-07-22T08:01:42Z</time>
      </trkpt>
      <trkpt lat="46.96259" lon="-0.51865">
        <ele>116.9</ele>
        <time>2012-07-22T08:01:43Z</time>
      </trkpt>
      <trkpt lat="46.9626" lon="-0.51858">
        <ele>116.9</ele>
        <time>2012-07-22T08:01:44Z</time>
      </trkpt>
      <trkpt lat="46.96261" lon="-0.51851">
        <ele>116.9</ele>
        <time>2012-07-22T08:01:45Z</time>
      </trkpt>
      <trkpt lat="46.96262" lon="-0.51844">
        <ele>116.9</ele>
        <time>2012-07-22T08:01:46Z</time>
      </trkpt>
      <trkpt lat="46.96264" lon="-0.51836">
        <ele>116.9</ele>
        <time>2012-07-22T08:01:47Z</time>
      </trkpt>
      <trkpt lat="46.96265" lon="-0.51828">
        <ele>116.8</ele>
        <time>2012-07-22T08:01:48Z</time>
      </trkpt>
      <trkpt lat="46.96267" lon="-0.51818">
        <ele>116.5</ele>
        <time>2012-07-22T08:01:49Z</time>
      </trkpt>
      <trkpt lat="46.9627" lon="-0.51809">
        <ele>116.5</ele>
        <time>2012-07-22T08:01:50Z</time>
      </trkpt>
      <trkpt lat="46.96272" lon="-0.518">
        <ele>116.4</ele>
        <time>2012-07-22T08:01:51Z</time>
      </trkpt>
      <trkpt lat="46.96275" lon="-0.51791">
        <ele>116.3</ele>
        <time>2012-07-22T08:01:52Z</time>
      </trkpt>
      <trkpt lat="46.96279" lon="-0.51783">
        <ele>116</ele>
        <time>2012-07-22T08:01:53Z</time>
      </trkpt>
      <trkpt lat="46.96282" lon="-0.51775">
        <ele>116</ele>
        <time>2012-07-22T08:01:54Z</time>
      </trkpt>
      <trkpt lat="46.96286" lon="-0.51768">
        <ele>116</ele>
        <time>2012-07-22T08:01:55Z</time>
      </trkpt>
      <trkpt lat="46.9629" lon="-0.5176">
        <ele>116</ele>
        <time>2012-07-22T08:01:56Z</time>
      </trkpt>
      <trkpt lat="46.96295" lon="-0.51753">
        <ele>115.8</ele>
        <time>2012-07-22T08:01:57Z</time>
      </trkpt>
      <trkpt lat="46.96299" lon="-0.51746">
        <ele>115.5</ele>
        <time>2012-07-22T08:01:58Z</time>
      </trkpt>
      <trkpt lat="46.96304" lon="-0.51738">
        <ele>115.5</ele>
        <time>2012-07-22T08:01:59Z</time>
      </trkpt>
      <trkpt lat="46.96308" lon="-0.51731">
        <ele>115.4</ele>
        <time>2012-07-22T08:02:00Z</time>
      </trkpt>
      <trkpt lat="46.96313" lon="-0.51724">
        <ele>115.3</ele>
        <time>2012-07-22T08:02:01Z</time>
      </trkpt>
      <trkpt lat="46.96317" lon="-0.51716">
        <ele>115</ele>
        <time>2012-07-22T08:02:02Z</time>
      </trkpt>
      <trkpt lat="46.96321" lon="-0.51707">
        <ele>115</ele>
        <time>2012-07-22T08:02:03Z</time>
      </trkpt>
      <trkpt lat="46.96325" lon="-0.51698">
        <ele>115</ele>
        <time>2012-07-22T08:02:04Z</time>
      </trkpt>
      <trkpt lat="46.96329" lon="-0.51689">
        <ele>115</ele>
        <time>2012-07-22T08:02:05Z</time>
      </trkpt>
      <trkpt lat="46.96333" lon="-0.51679">
        <ele>115</ele>
        <time>2012-07-22T08:02:06Z</time>
      </trkpt>
      <trkpt lat="46.96336" lon="-0.51669">
        <ele>115</ele>
        <time>2012-07-22T08:02:07Z</time>
      </trkpt>
      <trkpt lat="46.96339" lon="-0.51659">
        <ele>114.9</ele>
        <time>2012-07-22T08:02:08Z</time>
      </trkpt>
      <trkpt lat="46.96341" lon="-0.51649">
        <ele>114.5</ele>
        <time>2012-07-22T08:02:09Z</time>
      </trkpt>
      <trkpt lat="46.96343" lon="-0.51639">
        <ele>114.3</ele>
        <time>2012-07-22T08:02:10Z</time>
      </trkpt>
      <trkpt lat="46.96346" lon="-0.51628">
        <ele>114</ele>
        <time>2012-07-22T08:02:11Z</time>
      </trkpt>
      <trkpt lat="46.96348" lon="-0.51618">
        <ele>113.5</ele>
        <time>2012-07-22T08:02:12Z</time>
      </trkpt>
      <trkpt lat="46.9635" lon="-0.51608">
        <ele>113.3</ele>
        <time>2012-07-22T08:02:13Z</time>
      </trkpt>
      <trkpt lat="46.96352" lon="-0.51598">
        <ele>113</ele>
        <time>2012-07-22T08:02:14Z</time>
      </trkpt>
      <trkpt lat="46.96355" lon="-0.51588">
        <ele>112.9</ele>
        <time>2012-07-22T08:02:15Z</time>
      </trkpt>
      <trkpt lat="46.96358" lon="-0.51579">
        <ele>112.5</ele>
        <time>2012-07-22T08:02:16Z</time>
      </trkpt>
      <trkpt lat="46.96361" lon="-0.51569">
        <ele>112.5</ele>
        <time>2012-07-22T08:02:17Z</time>
      </trkpt>
      <trkpt lat="46.96364" lon="-0.5156">
        <ele>112.4</ele>
        <time>2012-07-22T08:02:18Z</time>
      </trkpt>
      <trkpt lat="46.96368" lon="-0.51551">
        <ele>112.3</ele>
        <time>2012-07-22T08:02:19Z</time>
      </trkpt>
      <trkpt lat="46.96372" lon="-0.51542">
        <ele>112</ele>
        <time>2012-07-22T08:02:20Z</time>
      </trkpt>
      <trkpt lat="46.96376" lon="-0.51533">
        <ele>112</ele>
        <time>2012-07-22T08:02:21Z</time>
      </trkpt>
      <trkpt lat="46.9638" lon="-0.51524">
        <ele>111.8</ele>
        <time>2012-07-22T08:02:22Z</time>
      </trkpt>
      <trkpt lat="46.96385" lon="-0.51514">
        <ele>111.5</ele>
        <time>2012-07-22T08:02:23Z</time>
      </trkpt>
      <trkpt lat="46.9639" lon="-0.51505">
        <ele>111.5</ele>
        <time>2012-07-22T08:02:24Z</time>
      </trkpt>
      <trkpt lat="46.96394" lon="-0.51494">
        <ele>111.5</ele>
        <time>2012-07-22T08:02:25Z</time>
      </trkpt>
      <trkpt lat="46.96398" lon="-0.51483">
        <ele>111.4</ele>
        <time>2012-07-22T08:02:26Z</time>
      </trkpt>
      <trkpt lat="46.96401" lon="-0.51471">
        <ele>111</ele>
        <time>2012-07-22T08:02:27Z</time>
      </trkpt>
      <trkpt lat="46.96402" lon="-0.51457">
        <ele>111</ele>
        <time>2012-07-22T08:02:28Z</time>
      </trkpt>
      <trkpt lat="46.96403" lon="-0.51444">
        <ele>110.8</ele>
        <time>2012-07-22T08:02:29Z</time>
      </trkpt>
      <trkpt lat="46.96405" lon="-0.51431">
        <ele>110.5</ele>
        <time>2012-07-22T08:02:30Z</time>
      </trkpt>
      <trkpt lat="46.96406" lon="-0.51417">
        <ele>110.5</ele>
        <time>2012-07-22T08:02:31Z</time>
      </trkpt>
      <trkpt lat="46.96407" lon="-0.51404">
        <ele>110.3</ele>
        <time>2012-07-22T08:02:32Z</time>
      </trkpt>
      <trkpt lat="46.96407" lon="-0.51392">
        <ele>110</ele>
        <time>2012-07-22T08:02:33Z</time>
      </trkpt>
      <trkpt lat="46.96408" lon="-0.51379">
        <ele>109.9</ele>
        <time>2012-07-22T08:02:34Z</time>
      </trkpt>
      <trkpt lat="46.96409" lon="-0.51367">
        <ele>109.5</ele>
        <time>2012-07-22T08:02:35Z</time>
      </trkpt>
      <trkpt lat="46.9641" lon="-0.51356">
        <ele>109.4</ele>
        <time>2012-07-22T08:02:36Z</time>
      </trkpt>
      <trkpt lat="46.96411" lon="-0.51345">
        <ele>109</ele>
        <time>2012-07-22T08:02:37Z</time>
      </trkpt>
      <trkpt lat="46.96412" lon="-0.51334">
        <ele>108.9</ele>
        <time>2012-07-22T08:02:38Z</time>
      </trkpt>
      <trkpt lat="46.96413" lon="-0.51323">
        <ele>108.5</ele>
        <time>2012-07-22T08:02:39Z</time>
      </trkpt>
      <trkpt lat="46.96413" lon="-0.51313">
        <ele>108.4</ele>
        <time>2012-07-22T08:02:40Z</time>
      </trkpt>
      <trkpt lat="46.96412" lon="-0.51302">
        <ele>108</ele>
        <time>2012-07-22T08:02:41Z</time>
      </trkpt>
      <trkpt lat="46.96411" lon="-0.51292">
        <ele>108</ele>
        <time>2012-07-22T08:02:42Z</time>
      </trkpt>
      <trkpt lat="46.9641" lon="-0.51281">
        <ele>107.8</ele>
        <time>2012-07-22T08:02:43Z</time>
      </trkpt>
      <trkpt lat="46.96409" lon="-0.51271">
        <ele>107.5</ele>
        <time>2012-07-22T08:02:44Z</time>
      </trkpt>
      <trkpt lat="46.96408" lon="-0.51261">
        <ele>107.4</ele>
        <time>2012-07-22T08:02:45Z</time>
      </trkpt>
      <trkpt lat="46.96407" lon="-0.51251">
        <ele>107.3</ele>
        <time>2012-07-22T08:02:46Z</time>
      </trkpt>
      <trkpt lat="46.96406" lon="-0.51241">
        <ele>107</ele>
        <time>2012-07-22T08:02:47Z</time>
      </trkpt>
      <trkpt lat="46.96405" lon="-0.51232">
        <ele>106.9</ele>
        <time>2012-07-22T08:02:48Z</time>
      </trkpt>
      <trkpt lat="46.96404" lon="-0.51222">
        <ele>106.8</ele>
        <time>2012-07-22T08:02:49Z</time>
      </trkpt>
      <trkpt lat="46.96403" lon="-0.51213">
        <ele>106.5</ele>
        <time>2012-07-22T08:02:50Z</time>
      </trkpt>
      <trkpt lat="46.96402" lon="-0.51203">
        <ele>106.5</ele>
        <time>2012-07-22T08:02:51Z</time>
      </trkpt>
      <trkpt lat="46.96401" lon="-0.51194">
        <ele>106.4</ele>
        <time>2012-07-22T08:02:52Z</time>
      </trkpt>
      <trkpt lat="46.964" lon="-0.51185">
        <ele>106.3</ele>
        <time>2012-07-22T08:02:53Z</time>
      </trkpt>
      <trkpt lat="46.96399" lon="-0.51176">
        <ele>106</ele>
        <time>2012-07-22T08:02:54Z</time>
      </trkpt>
      <trkpt lat="46.96398" lon="-0.51167">
        <ele>106</ele>
        <time>2012-07-22T08:02:55Z</time>
      </trkpt>
      <trkpt lat="46.96396" lon="-0.51158">
        <ele>106</ele>
        <time>2012-07-22T08:02:56Z</time>
      </trkpt>
      <trkpt lat="46.96395" lon="-0.51149">
        <ele>106</ele>
        <time>2012-07-22T08:02:57Z</time>
      </trkpt>
      <trkpt lat="46.96394" lon="-0.5114">
        <ele>105.8</ele>
        <time>2012-07-22T08:02:58Z</time>
      </trkpt>
      <trkpt lat="46.96393" lon="-0.51131">
        <ele>105.5</ele>
        <time>2012-07-22T08:02:59Z</time>
      </trkpt>
      <trkpt lat="46.96392" lon="-0.51121">
        <ele>105.5</ele>
        <time>2012-07-22T08:03:00Z</time>
      </trkpt>
      <trkpt lat="46.96392" lon="-0.51112">
        <ele>105.5</ele>
        <time>2012-07-22T08:03:01Z</time>
      </trkpt>
      <trkpt lat="46.96391" lon="-0.51102">
        <ele>105.5</ele>
        <time>2012-07-22T08:03:02Z</time>
      </trkpt>
      <trkpt lat="46.96389" lon="-0.51093">
        <ele>105.4</ele>
        <time>2012-07-22T08:03:03Z</time>
      </trkpt>
      <trkpt lat="46.96387" lon="-0.51085">
        <ele>105.3</ele>
        <time>2012-07-22T08:03:04Z</time>
      </trkpt>
      <trkpt lat="46.96386" lon="-0.51076">
        <ele>105.3</ele>
        <time>2012-07-22T08:03:05Z</time>
      </trkpt>
      <trkpt lat="46.96385" lon="-0.51067">
        <ele>105</ele>
        <time>2012-07-22T08:03:06Z</time>
      </trkpt>
      <trkpt lat="46.96384" lon="-0.51059">
        <ele>105</ele>
        <time>2012-07-22T08:03:07Z</time>
      </trkpt>
      <trkpt lat="46.96383" lon="-0.51051">
        <ele>105</ele>
        <time>2012-07-22T08:03:08Z</time>
      </trkpt>
      <trkpt lat="46.96382" lon="-0.51043">
        <ele>105</ele>
        <time>2012-07-22T08:03:09Z</time>
      </trkpt>
      <trkpt lat="46.96381" lon="-0.51035">
        <ele>105</ele>
        <time>2012-07-22T08:03:10Z</time>
      </trkpt>
      <trkpt lat="46.96379" lon="-0.51027">
        <ele>105</ele>
        <time>2012-07-22T08:03:11Z</time>
      </trkpt>
      <trkpt lat="46.96378" lon="-0.5102">
        <ele>105.3</ele>
        <time>2012-07-22T08:03:12Z</time>
      </trkpt>
      <trkpt lat="46.96377" lon="-0.51012">
        <ele>105.3</ele>
        <time>2012-07-22T08:03:13Z</time>
      </trkpt>
      <trkpt lat="46.96377" lon="-0.51004">
        <ele>105.3</ele>
        <time>2012-07-22T08:03:14Z</time>
      </trkpt>
      <trkpt lat="46.96377" lon="-0.50996">
        <ele>105.3</ele>
        <time>2012-07-22T08:03:15Z</time>
      </trkpt>
      <trkpt lat="46.96379" lon="-0.50988">
        <ele>105</ele>
        <time>2012-07-22T08:03:16Z</time>
      </trkpt>
      <trkpt lat="46.96381" lon="-0.5098">
        <ele>105</ele>
        <time>2012-07-22T08:03:17Z</time>
      </trkpt>
      <trkpt lat="46.96383" lon="-0.50973">
        <ele>105</ele>
        <time>2012-07-22T08:03:18Z</time>
      </trkpt>
      <trkpt lat="46.96386" lon="-0.50965">
        <ele>105</ele>
        <time>2012-07-22T08:03:19Z</time>
      </trkpt>
      <trkpt lat="46.96388" lon="-0.50957">
        <ele>104.8</ele>
        <time>2012-07-22T08:03:20Z</time>
      </trkpt>
      <trkpt lat="46.9639" lon="-0.50948">
        <ele>104.8</ele>
        <time>2012-07-22T08:03:21Z</time>
      </trkpt>
      <trkpt lat="46.96392" lon="-0.5094">
        <ele>104.5</ele>
        <time>2012-07-22T08:03:22Z</time>
      </trkpt>
      <trkpt lat="46.96395" lon="-0.50931">
        <ele>104.5</ele>
        <time>2012-07-22T08:03:23Z</time>
      </trkpt>
      <trkpt lat="46.96397" lon="-0.50921">
        <ele>104.3</ele>
        <time>2012-07-22T08:03:24Z</time>
      </trkpt>
      <trkpt lat="46.96399" lon="-0.50911">
        <ele>104</ele>
        <time>2012-07-22T08:03:25Z</time>
      </trkpt>
      <trkpt lat="46.96399" lon="-0.509">
        <ele>103.5</ele>
        <time>2012-07-22T08:03:26Z</time>
      </trkpt>
      <trkpt lat="46.96399" lon="-0.5089">
        <ele>103.4</ele>
        <time>2012-07-22T08:03:27Z</time>
      </trkpt>
      <trkpt lat="46.964" lon="-0.50878">
        <ele>103</ele>
        <time>2012-07-22T08:03:28Z</time>
      </trkpt>
      <trkpt lat="46.96399" lon="-0.50867">
        <ele>102.8</ele>
        <time>2012-07-22T08:03:29Z</time>
      </trkpt>
      <trkpt lat="46.96398" lon="-0.50856">
        <ele>102.5</ele>
        <time>2012-07-22T08:03:30Z</time>
      </trkpt>
      <trkpt lat="46.96397" lon="-0.50845">
        <ele>102.3</ele>
        <time>2012-07-22T08:03:31Z</time>
      </trkpt>
      <trkpt lat="46.96395" lon="-0.50836">
        <ele>102</ele>
        <time>2012-07-22T08:03:32Z</time>
      </trkpt>
      <trkpt lat="46.96394" lon="-0.50826">
        <ele>101.9</ele>
        <time>2012-07-22T08:03:33Z</time>
      </trkpt>
      <trkpt lat="46.96392" lon="-0.50817">
        <ele>101.5</ele>
        <time>2012-07-22T08:03:34Z</time>
      </trkpt>
      <trkpt lat="46.96391" lon="-0.50809">
        <ele>101.5</ele>
        <time>2012-07-22T08:03:35Z</time>
      </trkpt>
      <trkpt lat="46.96389" lon="-0.508">
        <ele>101.5</ele>
        <time>2012-07-22T08:03:36Z</time>
      </trkpt>
      <trkpt lat="46.96389" lon="-0.50792">
        <ele>101.5</ele>
        <time>2012-07-22T08:03:37Z</time>
      </trkpt>
      <trkpt lat="46.96388" lon="-0.50785">
        <ele>101.3</ele>
        <time>2012-07-22T08:03:38Z</time>
      </trkpt>
      <trkpt lat="46.96388" lon="-0.50777">
        <ele>101</ele>
        <time>2012-07-22T08:03:39Z</time>
      </trkpt>
      <trkpt lat="46.96388" lon="-0.50768">
        <ele>100.8</ele>
        <time>2012-07-22T08:03:40Z</time>
      </trkpt>
      <trkpt lat="46.96387" lon="-0.50759">
        <ele>100.4</ele>
        <time>2012-07-22T08:03:41Z</time>
      </trkpt>
      <trkpt lat="46.96387" lon="-0.5075">
        <ele>100</ele>
        <time>2012-07-22T08:03:42Z</time>
      </trkpt>
      <trkpt lat="46.96387" lon="-0.50741">
        <ele>99.5</ele>
        <time>2012-07-22T08:03:43Z</time>
      </trkpt>
      <trkpt lat="46.96387" lon="-0.50732">
        <ele>99</ele>
        <time>2012-07-22T08:03:44Z</time>
      </trkpt>
      <trkpt lat="46.96387" lon="-0.50723">
        <ele>98.8</ele>
        <time>2012-07-22T08:03:45Z</time>
      </trkpt>
      <trkpt lat="46.96387" lon="-0.50714">
        <ele>98.5</ele>
        <time>2012-07-22T08:03:46Z</time>
      </trkpt>
      <trkpt lat="46.96388" lon="-0.50706">
        <ele>98.4</ele>
        <time>2012-07-22T08:03:47Z</time>
      </trkpt>
      <trkpt lat="46.96388" lon="-0.50697">
        <ele>98.3</ele>
        <time>2012-07-22T08:03:48Z</time>
      </trkpt>
      <trkpt lat="46.9639" lon="-0.50689">
        <ele>98</ele>
        <time>2012-07-22T08:03:49Z</time>
      </trkpt>
      <trkpt lat="46.96391" lon="-0.50682">
        <ele>98</ele>
        <time>2012-07-22T08:03:50Z</time>
      </trkpt>
      <trkpt lat="46.96393" lon="-0.50675">
        <ele>98</ele>
        <time>2012-07-22T08:03:51Z</time>
      </trkpt>
      <trkpt lat="46.96395" lon="-0.50668">
        <ele>98</ele>
        <time>2012-07-22T08:03:52Z</time>
      </trkpt>
      <trkpt lat="46.96397" lon="-0.50662">
        <ele>98</ele>
        <time>2012-07-22T08:03:53Z</time>
      </trkpt>
      <trkpt lat="46.96399" lon="-0.50655">
        <ele>98</ele>
        <time>2012-07-22T08:03:54Z</time>
      </trkpt>
      <trkpt lat="46.96401" lon="-0.50649">
        <ele>98</ele>
        <time>2012-07-22T08:03:55Z</time>
      </trkpt>
      <trkpt lat="46.96403" lon="-0.50642">
        <ele>98.3</ele>
        <time>2012-07-22T08:03:56Z</time>
      </trkpt>
      <trkpt lat="46.96405" lon="-0.50636">
        <ele>98.3</ele>
        <time>2012-07-22T08:03:57Z</time>
      </trkpt>
      <trkpt lat="46.96408" lon="-0.50625">
        <ele>98</ele>
        <time>2012-07-22T08:03:59Z</time>
      </trkpt>
      <trkpt lat="46.96408" lon="-0.50613">
        <ele>98</ele>
        <time>2012-07-22T08:04:02Z</time>
      </trkpt>
      <trkpt lat="46.96409" lon="-0.50603">
        <ele>98.3</ele>
        <time>2012-07-22T08:04:04Z</time>
      </trkpt>
      <trkpt lat="46.96408" lon="-0.5059">
        <ele>98.5</ele>
        <time>2012-07-22T08:04:06Z</time>
      </trkpt>
      <trkpt lat="46.96407" lon="-0.50583">
        <ele>98.5</ele>
        <time>2012-07-22T08:04:07Z</time>
      </trkpt>
      <trkpt lat="46.96406" lon="-0.50576">
        <ele>98.5</ele>
        <time>2012-07-22T08:04:08Z</time>
      </trkpt>
      <trkpt lat="46.96406" lon="-0.50569">
        <ele>98.5</ele>
        <time>2012-07-22T08:04:09Z</time>
      </trkpt>
      <trkpt lat="46.96405" lon="-0.50562">
        <ele>98.5</ele>
        <time>2012-07-22T08:04:10Z</time>
      </trkpt>
      <trkpt lat="46.96404" lon="-0.50555">
        <ele>98.5</ele>
        <time>2012-07-22T08:04:11Z</time>
      </trkpt>
      <trkpt lat="46.96403" lon="-0.50548">
        <ele>98.5</ele>
        <time>2012-07-22T08:04:12Z</time>
      </trkpt>
      <trkpt lat="46.96403" lon="-0.5054">
        <ele>98.5</ele>
        <time>2012-07-22T08:04:13Z</time>
      </trkpt>
      <trkpt lat="46.96402" lon="-0.50532">
        <ele>98.5</ele>
        <time>2012-07-22T08:04:14Z</time>
      </trkpt>
      <trkpt lat="46.96402" lon="-0.50524">
        <ele>98.5</ele>
        <time>2012-07-22T08:04:15Z</time>
      </trkpt>
      <trkpt lat="46.96402" lon="-0.50516">
        <ele>98.5</ele>
        <time>2012-07-22T08:04:16Z</time>
      </trkpt>
      <trkpt lat="46.96401" lon="-0.50508">
        <ele>98.5</ele>
        <time>2012-07-22T08:04:17Z</time>
      </trkpt>
      <trkpt lat="46.96401" lon="-0.505">
        <ele>98.5</ele>
        <time>2012-07-22T08:04:18Z</time>
      </trkpt>
      <trkpt lat="46.96401" lon="-0.50492">
        <ele>98.5</ele>
        <time>2012-07-22T08:04:19Z</time>
      </trkpt>
      <trkpt lat="46.96401" lon="-0.50484">
        <ele>98.5</ele>
        <time>2012-07-22T08:04:20Z</time>
      </trkpt>
      <trkpt lat="46.96401" lon="-0.50477">
        <ele>98.5</ele>
        <time>2012-07-22T08:04:21Z</time>
      </trkpt>
      <trkpt lat="46.96402" lon="-0.50469">
        <ele>98.5</ele>
        <time>2012-07-22T08:04:22Z</time>
      </trkpt>
      <trkpt lat="46.96402" lon="-0.50462">
        <ele>98.5</ele>
        <time>2012-07-22T08:04:23Z</time>
      </trkpt>
      <trkpt lat="46.96403" lon="-0.50454">
        <ele>98.5</ele>
        <time>2012-07-22T08:04:24Z</time>
      </trkpt>
      <trkpt lat="46.96405" lon="-0.50447">
        <ele>98.8</ele>
        <time>2012-07-22T08:04:25Z</time>
      </trkpt>
      <trkpt lat="46.96408" lon="-0.5044">
        <ele>98.8</ele>
        <time>2012-07-22T08:04:26Z</time>
      </trkpt>
      <trkpt lat="46.9641" lon="-0.50433">
        <ele>98.5</ele>
        <time>2012-07-22T08:04:27Z</time>
      </trkpt>
      <trkpt lat="46.96413" lon="-0.50427">
        <ele>98.5</ele>
        <time>2012-07-22T08:04:28Z</time>
      </trkpt>
      <trkpt lat="46.96417" lon="-0.50421">
        <ele>98.5</ele>
        <time>2012-07-22T08:04:29Z</time>
      </trkpt>
      <trkpt lat="46.9642" lon="-0.50416">
        <ele>98.3</ele>
        <time>2012-07-22T08:04:30Z</time>
      </trkpt>
      <trkpt lat="46.96423" lon="-0.5041">
        <ele>98</ele>
        <time>2012-07-22T08:04:31Z</time>
      </trkpt>
      <trkpt lat="46.96426" lon="-0.50404">
        <ele>98</ele>
        <time>2012-07-22T08:04:32Z</time>
      </trkpt>
      <trkpt lat="46.96429" lon="-0.50399">
        <ele>97.9</ele>
        <time>2012-07-22T08:04:33Z</time>
      </trkpt>
      <trkpt lat="46.96432" lon="-0.50393">
        <ele>97.5</ele>
        <time>2012-07-22T08:04:34Z</time>
      </trkpt>
      <trkpt lat="46.96434" lon="-0.50387">
        <ele>97.5</ele>
        <time>2012-07-22T08:04:35Z</time>
      </trkpt>
      <trkpt lat="46.96437" lon="-0.5038">
        <ele>97.4</ele>
        <time>2012-07-22T08:04:36Z</time>
      </trkpt>
      <trkpt lat="46.96439" lon="-0.50374">
        <ele>97</ele>
        <time>2012-07-22T08:04:37Z</time>
      </trkpt>
      <trkpt lat="46.96444" lon="-0.50364">
        <ele>96.5</ele>
        <time>2012-07-22T08:04:39Z</time>
      </trkpt>
      <trkpt lat="46.96452" lon="-0.50359">
        <ele>96.3</ele>
        <time>2012-07-22T08:04:41Z</time>
      </trkpt>
      <trkpt lat="46.9646" lon="-0.50357">
        <ele>96</ele>
        <time>2012-07-22T08:04:44Z</time>
      </trkpt>
      <trkpt lat="46.96468" lon="-0.50356">
        <ele>96</ele>
        <time>2012-07-22T08:04:47Z</time>
      </trkpt>
      <trkpt lat="46.96475" lon="-0.50357">
        <ele>95.5</ele>
        <time>2012-07-22T08:04:50Z</time>
      </trkpt>
      <trkpt lat="46.96482" lon="-0.50358">
        <ele>95.4</ele>
        <time>2012-07-22T08:04:53Z</time>
      </trkpt>
      <trkpt lat="46.9649" lon="-0.50358">
        <ele>95</ele>
        <time>2012-07-22T08:04:56Z</time>
      </trkpt>
      <trkpt lat="46.96499" lon="-0.50359">
        <ele>94.5</ele>
        <time>2012-07-22T08:04:59Z</time>
      </trkpt>
      <trkpt lat="46.96508" lon="-0.50359">
        <ele>94</ele>
        <time>2012-07-22T08:05:02Z</time>
      </trkpt>
      <trkpt lat="46.96515" lon="-0.50358">
        <ele>93.9</ele>
        <time>2012-07-22T08:05:04Z</time>
      </trkpt>
      <trkpt lat="46.96522" lon="-0.50357">
        <ele>93.5</ele>
        <time>2012-07-22T08:05:06Z</time>
      </trkpt>
      <trkpt lat="46.9653" lon="-0.50356">
        <ele>93.4</ele>
        <time>2012-07-22T08:05:08Z</time>
      </trkpt>
      <trkpt lat="46.96538" lon="-0.50354">
        <ele>91.5</ele>
        <time>2012-07-22T08:05:10Z</time>
      </trkpt>
      <trkpt lat="46.96546" lon="-0.50353">
        <ele>91.4</ele>
        <time>2012-07-22T08:05:12Z</time>
      </trkpt>
      <trkpt lat="46.96554" lon="-0.50353">
        <ele>91.3</ele>
        <time>2012-07-22T08:05:14Z</time>
      </trkpt>
      <trkpt lat="46.96562" lon="-0.50352">
        <ele>91</ele>
        <time>2012-07-22T08:05:16Z</time>
      </trkpt>
      <trkpt lat="46.9657" lon="-0.5035">
        <ele>90.9</ele>
        <time>2012-07-22T08:05:18Z</time>
      </trkpt>
      <trkpt lat="46.96578" lon="-0.50348">
        <ele>90.5</ele>
        <time>2012-07-22T08:05:20Z</time>
      </trkpt>
      <trkpt lat="46.96587" lon="-0.50345">
        <ele>90.5</ele>
        <time>2012-07-22T08:05:22Z</time>
      </trkpt>
      <trkpt lat="46.96596" lon="-0.50343">
        <ele>90.5</ele>
        <time>2012-07-22T08:05:24Z</time>
      </trkpt>
      <trkpt lat="46.966" lon="-0.50342">
        <ele>90.9</ele>
        <time>2012-07-22T08:05:25Z</time>
      </trkpt>
      <trkpt lat="46.96612" lon="-0.5034">
        <ele>91</ele>
        <time>2012-07-22T08:05:28Z</time>
      </trkpt>
      <trkpt lat="46.9662" lon="-0.50339">
        <ele>91</ele>
        <time>2012-07-22T08:05:30Z</time>
      </trkpt>
      <trkpt lat="46.96627" lon="-0.50338">
        <ele>91</ele>
        <time>2012-07-22T08:05:32Z</time>
      </trkpt>
      <trkpt lat="46.96634" lon="-0.50338">
        <ele>91.3</ele>
        <time>2012-07-22T08:05:34Z</time>
      </trkpt>
      <trkpt lat="46.96641" lon="-0.50338">
        <ele>91.4</ele>
        <time>2012-07-22T08:05:36Z</time>
      </trkpt>
      <trkpt lat="46.96649" lon="-0.50337">
        <ele>91.5</ele>
        <time>2012-07-22T08:05:38Z</time>
      </trkpt>
      <trkpt lat="46.96657" lon="-0.50337">
        <ele>91.5</ele>
        <time>2012-07-22T08:05:40Z</time>
      </trkpt>
      <trkpt lat="46.96664" lon="-0.50336">
        <ele>91.8</ele>
        <time>2012-07-22T08:05:42Z</time>
      </trkpt>
      <trkpt lat="46.96671" lon="-0.50336">
        <ele>91.9</ele>
        <time>2012-07-22T08:05:44Z</time>
      </trkpt>
      <trkpt lat="46.96679" lon="-0.50335">
        <ele>92</ele>
        <time>2012-07-22T08:05:47Z</time>
      </trkpt>
      <trkpt lat="46.96688" lon="-0.50335">
        <ele>92.4</ele>
        <time>2012-07-22T08:05:50Z</time>
      </trkpt>
      <trkpt lat="46.96693" lon="-0.50334">
        <ele>92.5</ele>
        <time>2012-07-22T08:05:55Z</time>
      </trkpt>
      <trkpt lat="46.96701" lon="-0.50332">
        <ele>93</ele>
        <time>2012-07-22T08:05:58Z</time>
      </trkpt>
      <trkpt lat="46.96708" lon="-0.50331">
        <ele>93.3</ele>
        <time>2012-07-22T08:06:01Z</time>
      </trkpt>
      <trkpt lat="46.96713" lon="-0.5033">
        <ele>93.5</ele>
        <time>2012-07-22T08:06:04Z</time>
      </trkpt>
      <trkpt lat="46.96719" lon="-0.50329">
        <ele>94</ele>
        <time>2012-07-22T08:06:07Z</time>
      </trkpt>
      <trkpt lat="46.96725" lon="-0.50326">
        <ele>94.5</ele>
        <time>2012-07-22T08:06:10Z</time>
      </trkpt>
      <trkpt lat="46.96731" lon="-0.50324">
        <ele>95.3</ele>
        <time>2012-07-22T08:06:13Z</time>
      </trkpt>
      <trkpt lat="46.96737" lon="-0.50323">
        <ele>95.8</ele>
        <time>2012-07-22T08:06:15Z</time>
      </trkpt>
      <trkpt lat="46.96742" lon="-0.50322">
        <ele>96</ele>
        <time>2012-07-22T08:06:17Z</time>
      </trkpt>
      <trkpt lat="46.96747" lon="-0.5032">
        <ele>96.5</ele>
        <time>2012-07-22T08:06:19Z</time>
      </trkpt>
      <trkpt lat="46.96752" lon="-0.50319">
        <ele>97</ele>
        <time>2012-07-22T08:06:21Z</time>
      </trkpt>
      <trkpt lat="46.9676" lon="-0.50317">
        <ele>97.8</ele>
        <time>2012-07-22T08:06:23Z</time>
      </trkpt>
      <trkpt lat="46.96768" lon="-0.50315">
        <ele>98.5</ele>
        <time>2012-07-22T08:06:26Z</time>
      </trkpt>
      <trkpt lat="46.96771" lon="-0.50314">
        <ele>98.8</ele>
        <time>2012-07-22T08:06:27Z</time>
      </trkpt>
      <trkpt lat="46.96785" lon="-0.50311">
        <ele>99.9</ele>
        <time>2012-07-22T08:06:32Z</time>
      </trkpt>
      <trkpt lat="46.96794" lon="-0.5031">
        <ele>100.5</ele>
        <time>2012-07-22T08:06:35Z</time>
      </trkpt>
      <trkpt lat="46.96802" lon="-0.50309">
        <ele>101.3</ele>
        <time>2012-07-22T08:06:38Z</time>
      </trkpt>
      <trkpt lat="46.9681" lon="-0.50307">
        <ele>101.9</ele>
        <time>2012-07-22T08:06:41Z</time>
      </trkpt>
      <trkpt lat="46.96817" lon="-0.50304">
        <ele>102.5</ele>
        <time>2012-07-22T08:06:44Z</time>
      </trkpt>
      <trkpt lat="46.96825" lon="-0.50301">
        <ele>103</ele>
        <time>2012-07-22T08:06:47Z</time>
      </trkpt>
      <trkpt lat="46.96834" lon="-0.50297">
        <ele>103.5</ele>
        <time>2012-07-22T08:06:50Z</time>
      </trkpt>
      <trkpt lat="46.96842" lon="-0.50292">
        <ele>104.3</ele>
        <time>2012-07-22T08:06:53Z</time>
      </trkpt>
      <trkpt lat="46.9685" lon="-0.50287">
        <ele>104.8</ele>
        <time>2012-07-22T08:06:56Z</time>
      </trkpt>
      <trkpt lat="46.96855" lon="-0.50283">
        <ele>105</ele>
        <time>2012-07-22T08:06:58Z</time>
      </trkpt>
      <trkpt lat="46.96861" lon="-0.50279">
        <ele>105.5</ele>
        <time>2012-07-22T08:07:00Z</time>
      </trkpt>
      <trkpt lat="46.96868" lon="-0.50274">
        <ele>105.9</ele>
        <time>2012-07-22T08:07:02Z</time>
      </trkpt>
      <trkpt lat="46.96874" lon="-0.5027">
        <ele>106.3</ele>
        <time>2012-07-22T08:07:04Z</time>
      </trkpt>
      <trkpt lat="46.96881" lon="-0.50266">
        <ele>106.5</ele>
        <time>2012-07-22T08:07:06Z</time>
      </trkpt>
      <trkpt lat="46.96887" lon="-0.50263">
        <ele>107</ele>
        <time>2012-07-22T08:07:08Z</time>
      </trkpt>
      <trkpt lat="46.96894" lon="-0.5026">
        <ele>107.3</ele>
        <time>2012-07-22T08:07:10Z</time>
      </trkpt>
      <trkpt lat="46.969" lon="-0.50258">
        <ele>107.5</ele>
        <time>2012-07-22T08:07:12Z</time>
      </trkpt>
      <trkpt lat="46.96906" lon="-0.50255">
        <ele>108</ele>
        <time>2012-07-22T08:07:14Z</time>
      </trkpt>
      <trkpt lat="46.96914" lon="-0.50251">
        <ele>108.5</ele>
        <time>2012-07-22T08:07:17Z</time>
      </trkpt>
      <trkpt lat="46.9692" lon="-0.50248">
        <ele>108.8</ele>
        <time>2012-07-22T08:07:19Z</time>
      </trkpt>
      <trkpt lat="46.96926" lon="-0.50245">
        <ele>109</ele>
        <time>2012-07-22T08:07:21Z</time>
      </trkpt>
      <trkpt lat="46.96933" lon="-0.50242">
        <ele>109.3</ele>
        <time>2012-07-22T08:07:23Z</time>
      </trkpt>
      <trkpt lat="46.96939" lon="-0.50237">
        <ele>109.5</ele>
        <time>2012-07-22T08:07:25Z</time>
      </trkpt>
      <trkpt lat="46.96946" lon="-0.50232">
        <ele>109.9</ele>
        <time>2012-07-22T08:07:27Z</time>
      </trkpt>
      <trkpt lat="46.9695" lon="-0.5023">
        <ele>111</ele>
        <time>2012-07-22T08:07:28Z</time>
      </trkpt>
      <trkpt lat="46.9696" lon="-0.50223">
        <ele>113.5</ele>
        <time>2012-07-22T08:07:31Z</time>
      </trkpt>
      <trkpt lat="46.96968" lon="-0.50219">
        <ele>114.5</ele>
        <time>2012-07-22T08:07:33Z</time>
      </trkpt>
      <trkpt lat="46.96976" lon="-0.50216">
        <ele>115.5</ele>
        <time>2012-07-22T08:07:35Z</time>
      </trkpt>
      <trkpt lat="46.96983" lon="-0.50213">
        <ele>116</ele>
        <time>2012-07-22T08:07:37Z</time>
      </trkpt>
      <trkpt lat="46.96991" lon="-0.50209">
        <ele>116.5</ele>
        <time>2012-07-22T08:07:39Z</time>
      </trkpt>
      <trkpt lat="46.97" lon="-0.50205">
        <ele>117.3</ele>
        <time>2012-07-22T08:07:41Z</time>
      </trkpt>
      <trkpt lat="46.97008" lon="-0.50201">
        <ele>117.9</ele>
        <time>2012-07-22T08:07:43Z</time>
      </trkpt>
      <trkpt lat="46.97015" lon="-0.50197">
        <ele>118.5</ele>
        <time>2012-07-22T08:07:45Z</time>
      </trkpt>
      <trkpt lat="46.97023" lon="-0.50193">
        <ele>118.9</ele>
        <time>2012-07-22T08:07:47Z</time>
      </trkpt>
      <trkpt lat="46.97031" lon="-0.50189">
        <ele>119</ele>
        <time>2012-07-22T08:07:49Z</time>
      </trkpt>
      <trkpt lat="46.97039" lon="-0.50186">
        <ele>119.5</ele>
        <time>2012-07-22T08:07:51Z</time>
      </trkpt>
      <trkpt lat="46.97047" lon="-0.50182">
        <ele>119.8</ele>
        <time>2012-07-22T08:07:53Z</time>
      </trkpt>
      <trkpt lat="46.97054" lon="-0.50179">
        <ele>119.9</ele>
        <time>2012-07-22T08:07:55Z</time>
      </trkpt>
      <trkpt lat="46.97061" lon="-0.50176">
        <ele>119.9</ele>
        <time>2012-07-22T08:07:57Z</time>
      </trkpt>
      <trkpt lat="46.97068" lon="-0.50172">
        <ele>119.9</ele>
        <time>2012-07-22T08:07:59Z</time>
      </trkpt>
      <trkpt lat="46.97074" lon="-0.50168">
        <ele>119.8</ele>
        <time>2012-07-22T08:08:01Z</time>
      </trkpt>
      <trkpt lat="46.9708" lon="-0.50162">
        <ele>119.8</ele>
        <time>2012-07-22T08:08:03Z</time>
      </trkpt>
      <trkpt lat="46.97082" lon="-0.50153">
        <ele>119.8</ele>
        <time>2012-07-22T08:08:05Z</time>
      </trkpt>
      <trkpt lat="46.97081" lon="-0.50143">
        <ele>120</ele>
        <time>2012-07-22T08:08:07Z</time>
      </trkpt>
      <trkpt lat="46.97079" lon="-0.50133">
        <ele>120.3</ele>
        <time>2012-07-22T08:08:09Z</time>
      </trkpt>
      <trkpt lat="46.97077" lon="-0.50124">
        <ele>120.5</ele>
        <time>2012-07-22T08:08:11Z</time>
      </trkpt>
      <trkpt lat="46.97075" lon="-0.50114">
        <ele>120.9</ele>
        <time>2012-07-22T08:08:13Z</time>
      </trkpt>
      <trkpt lat="46.97074" lon="-0.50103">
        <ele>123</ele>
        <time>2012-07-22T08:08:15Z</time>
      </trkpt>
      <trkpt lat="46.97072" lon="-0.50091">
        <ele>123.9</ele>
        <time>2012-07-22T08:08:17Z</time>
      </trkpt>
      <trkpt lat="46.97069" lon="-0.50081">
        <ele>124</ele>
        <time>2012-07-22T08:08:19Z</time>
      </trkpt>
      <trkpt lat="46.97067" lon="-0.50071">
        <ele>124</ele>
        <time>2012-07-22T08:08:21Z</time>
      </trkpt>
      <trkpt lat="46.97065" lon="-0.5006">
        <ele>124.5</ele>
        <time>2012-07-22T08:08:23Z</time>
      </trkpt>
      <trkpt lat="46.97062" lon="-0.50049">
        <ele>125.5</ele>
        <time>2012-07-22T08:08:25Z</time>
      </trkpt>
      <trkpt lat="46.97059" lon="-0.50038">
        <ele>126</ele>
        <time>2012-07-22T08:08:27Z</time>
      </trkpt>
      <trkpt lat="46.97056" lon="-0.50027">
        <ele>126.4</ele>
        <time>2012-07-22T08:08:29Z</time>
      </trkpt>
      <trkpt lat="46.97055" lon="-0.50022">
        <ele>126.5</ele>
        <time>2012-07-22T08:08:30Z</time>
      </trkpt>
      <trkpt lat="46.97049" lon="-0.50005">
        <ele>126.8</ele>
        <time>2012-07-22T08:08:33Z</time>
      </trkpt>
      <trkpt lat="46.97046" lon="-0.49993">
        <ele>126.9</ele>
        <time>2012-07-22T08:08:35Z</time>
      </trkpt>
      <trkpt lat="46.97044" lon="-0.49987">
        <ele>126.9</ele>
        <time>2012-07-22T08:08:36Z</time>
      </trkpt>
      <trkpt lat="46.97042" lon="-0.49981">
        <ele>126.8</ele>
        <time>2012-07-22T08:08:37Z</time>
      </trkpt>
      <trkpt lat="46.97039" lon="-0.49975">
        <ele>126.8</ele>
        <time>2012-07-22T08:08:38Z</time>
      </trkpt>
      <trkpt lat="46.97037" lon="-0.49969">
        <ele>126.8</ele>
        <time>2012-07-22T08:08:39Z</time>
      </trkpt>
      <trkpt lat="46.97035" lon="-0.49963">
        <ele>126.5</ele>
        <time>2012-07-22T08:08:40Z</time>
      </trkpt>
      <trkpt lat="46.97033" lon="-0.49957">
        <ele>126.5</ele>
        <time>2012-07-22T08:08:41Z</time>
      </trkpt>
      <trkpt lat="46.9703" lon="-0.4995">
        <ele>126.5</ele>
        <time>2012-07-22T08:08:42Z</time>
      </trkpt>
      <trkpt lat="46.97028" lon="-0.49944">
        <ele>126.5</ele>
        <time>2012-07-22T08:08:43Z</time>
      </trkpt>
      <trkpt lat="46.97026" lon="-0.49937">
        <ele>126.5</ele>
        <time>2012-07-22T08:08:44Z</time>
      </trkpt>
      <trkpt lat="46.97024" lon="-0.4993">
        <ele>126.4</ele>
        <time>2012-07-22T08:08:45Z</time>
      </trkpt>
      <trkpt lat="46.97022" lon="-0.49924">
        <ele>126.4</ele>
        <time>2012-07-22T08:08:46Z</time>
      </trkpt>
      <trkpt lat="46.9702" lon="-0.49916">
        <ele>126.3</ele>
        <time>2012-07-22T08:08:47Z</time>
      </trkpt>
      <trkpt lat="46.97018" lon="-0.49909">
        <ele>126</ele>
        <time>2012-07-22T08:08:48Z</time>
      </trkpt>
      <trkpt lat="46.97016" lon="-0.49902">
        <ele>126</ele>
        <time>2012-07-22T08:08:49Z</time>
      </trkpt>
      <trkpt lat="46.97015" lon="-0.49895">
        <ele>126</ele>
        <time>2012-07-22T08:08:50Z</time>
      </trkpt>
      <trkpt lat="46.97013" lon="-0.49888">
        <ele>126</ele>
        <time>2012-07-22T08:08:51Z</time>
      </trkpt>
      <trkpt lat="46.97011" lon="-0.4988">
        <ele>126</ele>
        <time>2012-07-22T08:08:52Z</time>
      </trkpt>
      <trkpt lat="46.97009" lon="-0.49873">
        <ele>126</ele>
        <time>2012-07-22T08:08:53Z</time>
      </trkpt>
      <trkpt lat="46.97007" lon="-0.49865">
        <ele>125.9</ele>
        <time>2012-07-22T08:08:54Z</time>
      </trkpt>
      <trkpt lat="46.97005" lon="-0.49858">
        <ele>125.9</ele>
        <time>2012-07-22T08:08:55Z</time>
      </trkpt>
      <trkpt lat="46.97004" lon="-0.4985">
        <ele>125.8</ele>
        <time>2012-07-22T08:08:56Z</time>
      </trkpt>
      <trkpt lat="46.97002" lon="-0.49843">
        <ele>125.8</ele>
        <time>2012-07-22T08:08:57Z</time>
      </trkpt>
      <trkpt lat="46.97" lon="-0.49835">
        <ele>125.8</ele>
        <time>2012-07-22T08:08:58Z</time>
      </trkpt>
      <trkpt lat="46.96998" lon="-0.49828">
        <ele>125.8</ele>
        <time>2012-07-22T08:08:59Z</time>
      </trkpt>
      <trkpt lat="46.96996" lon="-0.4982">
        <ele>125.8</ele>
        <time>2012-07-22T08:09:00Z</time>
      </trkpt>
      <trkpt lat="46.96995" lon="-0.49812">
        <ele>125.8</ele>
        <time>2012-07-22T08:09:01Z</time>
      </trkpt>
      <trkpt lat="46.96993" lon="-0.49804">
        <ele>125.8</ele>
        <time>2012-07-22T08:09:02Z</time>
      </trkpt>
      <trkpt lat="46.96991" lon="-0.49796">
        <ele>125.8</ele>
        <time>2012-07-22T08:09:03Z</time>
      </trkpt>
      <trkpt lat="46.9699" lon="-0.49788">
        <ele>125.8</ele>
        <time>2012-07-22T08:09:04Z</time>
      </trkpt>
      <trkpt lat="46.9699" lon="-0.4978">
        <ele>125.5</ele>
        <time>2012-07-22T08:09:05Z</time>
      </trkpt>
      <trkpt lat="46.96989" lon="-0.49772">
        <ele>125.5</ele>
        <time>2012-07-22T08:09:06Z</time>
      </trkpt>
      <trkpt lat="46.96989" lon="-0.49764">
        <ele>125.5</ele>
        <time>2012-07-22T08:09:07Z</time>
      </trkpt>
      <trkpt lat="46.96989" lon="-0.49756">
        <ele>125.5</ele>
        <time>2012-07-22T08:09:08Z</time>
      </trkpt>
      <trkpt lat="46.96988" lon="-0.49748">
        <ele>125.5</ele>
        <time>2012-07-22T08:09:09Z</time>
      </trkpt>
      <trkpt lat="46.96987" lon="-0.4974">
        <ele>125.5</ele>
        <time>2012-07-22T08:09:10Z</time>
      </trkpt>
      <trkpt lat="46.96986" lon="-0.49732">
        <ele>125.5</ele>
        <time>2012-07-22T08:09:11Z</time>
      </trkpt>
      <trkpt lat="46.96984" lon="-0.49724">
        <ele>125.5</ele>
        <time>2012-07-22T08:09:12Z</time>
      </trkpt>
      <trkpt lat="46.96983" lon="-0.49715">
        <ele>125.4</ele>
        <time>2012-07-22T08:09:13Z</time>
      </trkpt>
      <trkpt lat="46.96981" lon="-0.49707">
        <ele>125.4</ele>
        <time>2012-07-22T08:09:14Z</time>
      </trkpt>
      <trkpt lat="46.96979" lon="-0.49699">
        <ele>125.4</ele>
        <time>2012-07-22T08:09:15Z</time>
      </trkpt>
      <trkpt lat="46.96976" lon="-0.49692">
        <ele>125.4</ele>
        <time>2012-07-22T08:09:16Z</time>
      </trkpt>
      <trkpt lat="46.96974" lon="-0.49684">
        <ele>125.3</ele>
        <time>2012-07-22T08:09:17Z</time>
      </trkpt>
      <trkpt lat="46.96971" lon="-0.49676">
        <ele>125.3</ele>
        <time>2012-07-22T08:09:18Z</time>
      </trkpt>
      <trkpt lat="46.96968" lon="-0.49668">
        <ele>125.3</ele>
        <time>2012-07-22T08:09:19Z</time>
      </trkpt>
      <trkpt lat="46.96965" lon="-0.49661">
        <ele>125</ele>
        <time>2012-07-22T08:09:20Z</time>
      </trkpt>
      <trkpt lat="46.96962" lon="-0.49653">
        <ele>125</ele>
        <time>2012-07-22T08:09:21Z</time>
      </trkpt>
      <trkpt lat="46.96959" lon="-0.49646">
        <ele>125</ele>
        <time>2012-07-22T08:09:22Z</time>
      </trkpt>
      <trkpt lat="46.96956" lon="-0.49638">
        <ele>125</ele>
        <time>2012-07-22T08:09:23Z</time>
      </trkpt>
      <trkpt lat="46.96953" lon="-0.49631">
        <ele>124.9</ele>
        <time>2012-07-22T08:09:24Z</time>
      </trkpt>
      <trkpt lat="46.9695" lon="-0.49623">
        <ele>124.8</ele>
        <time>2012-07-22T08:09:25Z</time>
      </trkpt>
      <trkpt lat="46.96948" lon="-0.49615">
        <ele>124.5</ele>
        <time>2012-07-22T08:09:26Z</time>
      </trkpt>
      <trkpt lat="46.96947" lon="-0.49606">
        <ele>124.5</ele>
        <time>2012-07-22T08:09:27Z</time>
      </trkpt>
      <trkpt lat="46.96947" lon="-0.49598">
        <ele>124.5</ele>
        <time>2012-07-22T08:09:28Z</time>
      </trkpt>
      <trkpt lat="46.96948" lon="-0.49589">
        <ele>124.3</ele>
        <time>2012-07-22T08:09:29Z</time>
      </trkpt>
      <trkpt lat="46.96951" lon="-0.49581">
        <ele>124</ele>
        <time>2012-07-22T08:09:30Z</time>
      </trkpt>
      <trkpt lat="46.96956" lon="-0.49574">
        <ele>124</ele>
        <time>2012-07-22T08:09:31Z</time>
      </trkpt>
      <trkpt lat="46.9696" lon="-0.49568">
        <ele>123.5</ele>
        <time>2012-07-22T08:09:32Z</time>
      </trkpt>
      <trkpt lat="46.96965" lon="-0.49562">
        <ele>123.4</ele>
        <time>2012-07-22T08:09:33Z</time>
      </trkpt>
      <trkpt lat="46.96971" lon="-0.49557">
        <ele>123</ele>
        <time>2012-07-22T08:09:34Z</time>
      </trkpt>
      <trkpt lat="46.96977" lon="-0.49552">
        <ele>122.8</ele>
        <time>2012-07-22T08:09:35Z</time>
      </trkpt>
      <trkpt lat="46.96983" lon="-0.49548">
        <ele>122.5</ele>
        <time>2012-07-22T08:09:36Z</time>
      </trkpt>
      <trkpt lat="46.96989" lon="-0.49544">
        <ele>122</ele>
        <time>2012-07-22T08:09:37Z</time>
      </trkpt>
      <trkpt lat="46.96995" lon="-0.49541">
        <ele>121.9</ele>
        <time>2012-07-22T08:09:38Z</time>
      </trkpt>
      <trkpt lat="46.97001" lon="-0.49536">
        <ele>121.5</ele>
        <time>2012-07-22T08:09:39Z</time>
      </trkpt>
      <trkpt lat="46.97004" lon="-0.49529">
        <ele>121.4</ele>
        <time>2012-07-22T08:09:40Z</time>
      </trkpt>
      <trkpt lat="46.97005" lon="-0.4952">
        <ele>121</ele>
        <time>2012-07-22T08:09:41Z</time>
      </trkpt>
      <trkpt lat="46.97005" lon="-0.4951">
        <ele>120.9</ele>
        <time>2012-07-22T08:09:42Z</time>
      </trkpt>
      <trkpt lat="46.97004" lon="-0.49499">
        <ele>120.5</ele>
        <time>2012-07-22T08:09:43Z</time>
      </trkpt>
      <trkpt lat="46.97002" lon="-0.49489">
        <ele>120.3</ele>
        <time>2012-07-22T08:09:44Z</time>
      </trkpt>
      <trkpt lat="46.97" lon="-0.49478">
        <ele>120</ele>
        <time>2012-07-22T08:09:45Z</time>
      </trkpt>
      <trkpt lat="46.96997" lon="-0.49468">
        <ele>119.8</ele>
        <time>2012-07-22T08:09:46Z</time>
      </trkpt>
      <trkpt lat="46.96993" lon="-0.49457">
        <ele>119.5</ele>
        <time>2012-07-22T08:09:47Z</time>
      </trkpt>
      <trkpt lat="46.9699" lon="-0.49447">
        <ele>119.4</ele>
        <time>2012-07-22T08:09:48Z</time>
      </trkpt>
      <trkpt lat="46.96986" lon="-0.49437">
        <ele>119</ele>
        <time>2012-07-22T08:09:49Z</time>
      </trkpt>
      <trkpt lat="46.96983" lon="-0.49426">
        <ele>118.9</ele>
        <time>2012-07-22T08:09:50Z</time>
      </trkpt>
      <trkpt lat="46.9698" lon="-0.49415">
        <ele>118.5</ele>
        <time>2012-07-22T08:09:51Z</time>
      </trkpt>
      <trkpt lat="46.96976" lon="-0.49405">
        <ele>118.4</ele>
        <time>2012-07-22T08:09:52Z</time>
      </trkpt>
      <trkpt lat="46.96973" lon="-0.49394">
        <ele>118</ele>
        <time>2012-07-22T08:09:53Z</time>
      </trkpt>
      <trkpt lat="46.96969" lon="-0.49384">
        <ele>117.8</ele>
        <time>2012-07-22T08:09:54Z</time>
      </trkpt>
      <trkpt lat="46.96966" lon="-0.49372">
        <ele>117.5</ele>
        <time>2012-07-22T08:09:55Z</time>
      </trkpt>
      <trkpt lat="46.96963" lon="-0.4936">
        <ele>117.4</ele>
        <time>2012-07-22T08:09:56Z</time>
      </trkpt>
      <trkpt lat="46.96959" lon="-0.49348">
        <ele>117</ele>
        <time>2012-07-22T08:09:57Z</time>
      </trkpt>
      <trkpt lat="46.96956" lon="-0.49336">
        <ele>117</ele>
        <time>2012-07-22T08:09:58Z</time>
      </trkpt>
      <trkpt lat="46.96953" lon="-0.49323">
        <ele>116.9</ele>
        <time>2012-07-22T08:09:59Z</time>
      </trkpt>
      <trkpt lat="46.96949" lon="-0.4931">
        <ele>116.8</ele>
        <time>2012-07-22T08:10:00Z</time>
      </trkpt>
      <trkpt lat="46.96946" lon="-0.49298">
        <ele>116.8</ele>
        <time>2012-07-22T08:10:01Z</time>
      </trkpt>
      <trkpt lat="46.96943" lon="-0.49285">
        <ele>116.5</ele>
        <time>2012-07-22T08:10:02Z</time>
      </trkpt>
      <trkpt lat="46.9694" lon="-0.49272">
        <ele>116.5</ele>
        <time>2012-07-22T08:10:03Z</time>
      </trkpt>
      <trkpt lat="46.96937" lon="-0.49259">
        <ele>116.4</ele>
        <time>2012-07-22T08:10:04Z</time>
      </trkpt>
      <trkpt lat="46.96934" lon="-0.49246">
        <ele>116.3</ele>
        <time>2012-07-22T08:10:05Z</time>
      </trkpt>
      <trkpt lat="46.96931" lon="-0.49234">
        <ele>116</ele>
        <time>2012-07-22T08:10:06Z</time>
      </trkpt>
      <trkpt lat="46.96928" lon="-0.49222">
        <ele>116</ele>
        <time>2012-07-22T08:10:07Z</time>
      </trkpt>
      <trkpt lat="46.96925" lon="-0.49209">
        <ele>115.9</ele>
        <time>2012-07-22T08:10:08Z</time>
      </trkpt>
      <trkpt lat="46.96922" lon="-0.49197">
        <ele>115.5</ele>
        <time>2012-07-22T08:10:09Z</time>
      </trkpt>
      <trkpt lat="46.96918" lon="-0.49184">
        <ele>115.5</ele>
        <time>2012-07-22T08:10:10Z</time>
      </trkpt>
      <trkpt lat="46.96915" lon="-0.49172">
        <ele>115.3</ele>
        <time>2012-07-22T08:10:11Z</time>
      </trkpt>
      <trkpt lat="46.96912" lon="-0.4916">
        <ele>115</ele>
        <time>2012-07-22T08:10:12Z</time>
      </trkpt>
      <trkpt lat="46.96909" lon="-0.49147">
        <ele>114.5</ele>
        <time>2012-07-22T08:10:13Z</time>
      </trkpt>
      <trkpt lat="46.96906" lon="-0.49135">
        <ele>114.5</ele>
        <time>2012-07-22T08:10:14Z</time>
      </trkpt>
      <trkpt lat="46.96903" lon="-0.49123">
        <ele>114</ele>
        <time>2012-07-22T08:10:15Z</time>
      </trkpt>
      <trkpt lat="46.96899" lon="-0.49112">
        <ele>114</ele>
        <time>2012-07-22T08:10:16Z</time>
      </trkpt>
      <trkpt lat="46.96896" lon="-0.491">
        <ele>113.8</ele>
        <time>2012-07-22T08:10:17Z</time>
      </trkpt>
      <trkpt lat="46.96893" lon="-0.49089">
        <ele>113.5</ele>
        <time>2012-07-22T08:10:18Z</time>
      </trkpt>
      <trkpt lat="46.96891" lon="-0.49077">
        <ele>113.4</ele>
        <time>2012-07-22T08:10:19Z</time>
      </trkpt>
      <trkpt lat="46.96888" lon="-0.49066">
        <ele>113</ele>
        <time>2012-07-22T08:10:20Z</time>
      </trkpt>
      <trkpt lat="46.96886" lon="-0.49055">
        <ele>113</ele>
        <time>2012-07-22T08:10:21Z</time>
      </trkpt>
      <trkpt lat="46.96883" lon="-0.49044">
        <ele>112.9</ele>
        <time>2012-07-22T08:10:22Z</time>
      </trkpt>
      <trkpt lat="46.96881" lon="-0.49033">
        <ele>112.8</ele>
        <time>2012-07-22T08:10:23Z</time>
      </trkpt>
      <trkpt lat="46.9688" lon="-0.49022">
        <ele>112.5</ele>
        <time>2012-07-22T08:10:24Z</time>
      </trkpt>
      <trkpt lat="46.96878" lon="-0.49013">
        <ele>112.5</ele>
        <time>2012-07-22T08:10:25Z</time>
      </trkpt>
      <trkpt lat="46.96877" lon="-0.49005">
        <ele>112.5</ele>
        <time>2012-07-22T08:10:26Z</time>
      </trkpt>
      <trkpt lat="46.96878" lon="-0.48992">
        <ele>112</ele>
        <time>2012-07-22T08:10:28Z</time>
      </trkpt>
      <trkpt lat="46.96883" lon="-0.48984">
        <ele>111.8</ele>
        <time>2012-07-22T08:10:30Z</time>
      </trkpt>
      <trkpt lat="46.96886" lon="-0.4898">
        <ele>111.5</ele>
        <time>2012-07-22T08:10:31Z</time>
      </trkpt>
      <trkpt lat="46.9689" lon="-0.48976">
        <ele>111</ele>
        <time>2012-07-22T08:10:32Z</time>
      </trkpt>
      <trkpt lat="46.96894" lon="-0.48972">
        <ele>110.9</ele>
        <time>2012-07-22T08:10:33Z</time>
      </trkpt>
      <trkpt lat="46.96898" lon="-0.48968">
        <ele>110.5</ele>
        <time>2012-07-22T08:10:34Z</time>
      </trkpt>
      <trkpt lat="46.96902" lon="-0.48963">
        <ele>110</ele>
        <time>2012-07-22T08:10:35Z</time>
      </trkpt>
      <trkpt lat="46.96906" lon="-0.48958">
        <ele>109.8</ele>
        <time>2012-07-22T08:10:36Z</time>
      </trkpt>
      <trkpt lat="46.96911" lon="-0.48953">
        <ele>109.4</ele>
        <time>2012-07-22T08:10:37Z</time>
      </trkpt>
      <trkpt lat="46.96915" lon="-0.48947">
        <ele>109</ele>
        <time>2012-07-22T08:10:38Z</time>
      </trkpt>
      <trkpt lat="46.96919" lon="-0.48942">
        <ele>108.5</ele>
        <time>2012-07-22T08:10:39Z</time>
      </trkpt>
      <trkpt lat="46.96924" lon="-0.48937">
        <ele>108</ele>
        <time>2012-07-22T08:10:40Z</time>
      </trkpt>
      <trkpt lat="46.96928" lon="-0.48933">
        <ele>107.8</ele>
        <time>2012-07-22T08:10:41Z</time>
      </trkpt>
      <trkpt lat="46.96933" lon="-0.48928">
        <ele>107.5</ele>
        <time>2012-07-22T08:10:42Z</time>
      </trkpt>
      <trkpt lat="46.96937" lon="-0.48924">
        <ele>107.3</ele>
        <time>2012-07-22T08:10:43Z</time>
      </trkpt>
      <trkpt lat="46.96941" lon="-0.48919">
        <ele>107</ele>
        <time>2012-07-22T08:10:44Z</time>
      </trkpt>
      <trkpt lat="46.96945" lon="-0.48914">
        <ele>106.9</ele>
        <time>2012-07-22T08:10:45Z</time>
      </trkpt>
      <trkpt lat="46.96949" lon="-0.48909">
        <ele>106.5</ele>
        <time>2012-07-22T08:10:46Z</time>
      </trkpt>
      <trkpt lat="46.96953" lon="-0.48904">
        <ele>106.5</ele>
        <time>2012-07-22T08:10:47Z</time>
      </trkpt>
      <trkpt lat="46.96957" lon="-0.48898">
        <ele>106.4</ele>
        <time>2012-07-22T08:10:48Z</time>
      </trkpt>
      <trkpt lat="46.96961" lon="-0.48893">
        <ele>106</ele>
        <time>2012-07-22T08:10:49Z</time>
      </trkpt>
      <trkpt lat="46.96965" lon="-0.48888">
        <ele>105.9</ele>
        <time>2012-07-22T08:10:50Z</time>
      </trkpt>
      <trkpt lat="46.96968" lon="-0.48884">
        <ele>105.5</ele>
        <time>2012-07-22T08:10:51Z</time>
      </trkpt>
      <trkpt lat="46.96972" lon="-0.48879">
        <ele>105</ele>
        <time>2012-07-22T08:10:52Z</time>
      </trkpt>
      <trkpt lat="46.96975" lon="-0.48874">
        <ele>105</ele>
        <time>2012-07-22T08:10:53Z</time>
      </trkpt>
      <trkpt lat="46.96978" lon="-0.4887">
        <ele>105</ele>
        <time>2012-07-22T08:10:54Z</time>
      </trkpt>
      <trkpt lat="46.96985" lon="-0.48861">
        <ele>105</ele>
        <time>2012-07-22T08:10:56Z</time>
      </trkpt>
      <trkpt lat="46.9699" lon="-0.48853">
        <ele>105</ele>
        <time>2012-07-22T08:10:58Z</time>
      </trkpt>
      <trkpt lat="46.96996" lon="-0.48845">
        <ele>105.3</ele>
        <time>2012-07-22T08:11:00Z</time>
      </trkpt>
      <trkpt lat="46.97001" lon="-0.48836">
        <ele>105.4</ele>
        <time>2012-07-22T08:11:02Z</time>
      </trkpt>
      <trkpt lat="46.97006" lon="-0.48827">
        <ele>105.5</ele>
        <time>2012-07-22T08:11:04Z</time>
      </trkpt>
      <trkpt lat="46.97011" lon="-0.48818">
        <ele>105.5</ele>
        <time>2012-07-22T08:11:06Z</time>
      </trkpt>
      <trkpt lat="46.97016" lon="-0.4881">
        <ele>106</ele>
        <time>2012-07-22T08:11:08Z</time>
      </trkpt>
      <trkpt lat="46.97021" lon="-0.48801">
        <ele>106.5</ele>
        <time>2012-07-22T08:11:10Z</time>
      </trkpt>
      <trkpt lat="46.97026" lon="-0.48792">
        <ele>106.3</ele>
        <time>2012-07-22T08:11:12Z</time>
      </trkpt>
      <trkpt lat="46.97031" lon="-0.48782">
        <ele>106.3</ele>
        <time>2012-07-22T08:11:14Z</time>
      </trkpt>
      <trkpt lat="46.97035" lon="-0.48771">
        <ele>106.3</ele>
        <time>2012-07-22T08:11:16Z</time>
      </trkpt>
      <trkpt lat="46.97039" lon="-0.4876">
        <ele>106.4</ele>
        <time>2012-07-22T08:11:18Z</time>
      </trkpt>
      <trkpt lat="46.97044" lon="-0.4875">
        <ele>106.9</ele>
        <time>2012-07-22T08:11:20Z</time>
      </trkpt>
      <trkpt lat="46.97048" lon="-0.4874">
        <ele>107.3</ele>
        <time>2012-07-22T08:11:22Z</time>
      </trkpt>
      <trkpt lat="46.97053" lon="-0.4873">
        <ele>106.9</ele>
        <time>2012-07-22T08:11:24Z</time>
      </trkpt>
      <trkpt lat="46.97058" lon="-0.48719">
        <ele>106.5</ele>
        <time>2012-07-22T08:11:26Z</time>
      </trkpt>
      <trkpt lat="46.97063" lon="-0.48708">
        <ele>106.5</ele>
        <time>2012-07-22T08:11:28Z</time>
      </trkpt>
      <trkpt lat="46.97065" lon="-0.48703">
        <ele>106.9</ele>
        <time>2012-07-22T08:11:29Z</time>
      </trkpt>
      <trkpt lat="46.97068" lon="-0.48697">
        <ele>107</ele>
        <time>2012-07-22T08:11:30Z</time>
      </trkpt>
      <trkpt lat="46.9707" lon="-0.48691">
        <ele>107.4</ele>
        <time>2012-07-22T08:11:31Z</time>
      </trkpt>
      <trkpt lat="46.97073" lon="-0.48685">
        <ele>107.5</ele>
        <time>2012-07-22T08:11:32Z</time>
      </trkpt>
      <trkpt lat="46.97076" lon="-0.48679">
        <ele>108</ele>
        <time>2012-07-22T08:11:33Z</time>
      </trkpt>
      <trkpt lat="46.97078" lon="-0.48672">
        <ele>108.8</ele>
        <time>2012-07-22T08:11:34Z</time>
      </trkpt>
      <trkpt lat="46.97081" lon="-0.48666">
        <ele>109.3</ele>
        <time>2012-07-22T08:11:35Z</time>
      </trkpt>
      <trkpt lat="46.97083" lon="-0.4866">
        <ele>109.9</ele>
        <time>2012-07-22T08:11:36Z</time>
      </trkpt>
      <trkpt lat="46.97086" lon="-0.48654">
        <ele>110</ele>
        <time>2012-07-22T08:11:37Z</time>
      </trkpt>
      <trkpt lat="46.97088" lon="-0.48648">
        <ele>110.3</ele>
        <time>2012-07-22T08:11:38Z</time>
      </trkpt>
      <trkpt lat="46.97091" lon="-0.48641">
        <ele>110.4</ele>
        <time>2012-07-22T08:11:39Z</time>
      </trkpt>
      <trkpt lat="46.97094" lon="-0.48634">
        <ele>110.5</ele>
        <time>2012-07-22T08:11:40Z</time>
      </trkpt>
      <trkpt lat="46.97096" lon="-0.48628">
        <ele>110.5</ele>
        <time>2012-07-22T08:11:41Z</time>
      </trkpt>
      <trkpt lat="46.97099" lon="-0.48621">
        <ele>110.8</ele>
        <time>2012-07-22T08:11:42Z</time>
      </trkpt>
      <trkpt lat="46.97101" lon="-0.48615">
        <ele>110.9</ele>
        <time>2012-07-22T08:11:43Z</time>
      </trkpt>
      <trkpt lat="46.97103" lon="-0.48609">
        <ele>111</ele>
        <time>2012-07-22T08:11:44Z</time>
      </trkpt>
      <trkpt lat="46.97105" lon="-0.48603">
        <ele>111</ele>
        <time>2012-07-22T08:11:45Z</time>
      </trkpt>
      <trkpt lat="46.97107" lon="-0.48596">
        <ele>111</ele>
        <time>2012-07-22T08:11:46Z</time>
      </trkpt>
      <trkpt lat="46.97109" lon="-0.4859">
        <ele>111</ele>
        <time>2012-07-22T08:11:47Z</time>
      </trkpt>
      <trkpt lat="46.97111" lon="-0.48583">
        <ele>111.3</ele>
        <time>2012-07-22T08:11:48Z</time>
      </trkpt>
      <trkpt lat="46.97113" lon="-0.48577">
        <ele>111.4</ele>
        <time>2012-07-22T08:11:49Z</time>
      </trkpt>
      <trkpt lat="46.97116" lon="-0.4857">
        <ele>111.3</ele>
        <time>2012-07-22T08:11:50Z</time>
      </trkpt>
      <trkpt lat="46.97118" lon="-0.48564">
        <ele>111.3</ele>
        <time>2012-07-22T08:11:51Z</time>
      </trkpt>
      <trkpt lat="46.9712" lon="-0.48558">
        <ele>111</ele>
        <time>2012-07-22T08:11:52Z</time>
      </trkpt>
      <trkpt lat="46.97123" lon="-0.48552">
        <ele>111</ele>
        <time>2012-07-22T08:11:53Z</time>
      </trkpt>
      <trkpt lat="46.97125" lon="-0.48546">
        <ele>110.9</ele>
        <time>2012-07-22T08:11:54Z</time>
      </trkpt>
      <trkpt lat="46.97128" lon="-0.4854">
        <ele>110.5</ele>
        <time>2012-07-22T08:11:55Z</time>
      </trkpt>
      <trkpt lat="46.97131" lon="-0.48533">
        <ele>110.5</ele>
        <time>2012-07-22T08:11:56Z</time>
      </trkpt>
      <trkpt lat="46.97135" lon="-0.48527">
        <ele>110.9</ele>
        <time>2012-07-22T08:11:57Z</time>
      </trkpt>
      <trkpt lat="46.97139" lon="-0.4852">
        <ele>111</ele>
        <time>2012-07-22T08:11:58Z</time>
      </trkpt>
      <trkpt lat="46.97142" lon="-0.48513">
        <ele>111.5</ele>
        <time>2012-07-22T08:11:59Z</time>
      </trkpt>
      <trkpt lat="46.97146" lon="-0.48508">
        <ele>111.5</ele>
        <time>2012-07-22T08:12:00Z</time>
      </trkpt>
      <trkpt lat="46.97149" lon="-0.48502">
        <ele>111.9</ele>
        <time>2012-07-22T08:12:01Z</time>
      </trkpt>
      <trkpt lat="46.97152" lon="-0.48497">
        <ele>112</ele>
        <time>2012-07-22T08:12:02Z</time>
      </trkpt>
      <trkpt lat="46.97155" lon="-0.48491">
        <ele>112.4</ele>
        <time>2012-07-22T08:12:03Z</time>
      </trkpt>
      <trkpt lat="46.97158" lon="-0.48486">
        <ele>112.5</ele>
        <time>2012-07-22T08:12:04Z</time>
      </trkpt>
      <trkpt lat="46.97161" lon="-0.4848">
        <ele>112.5</ele>
        <time>2012-07-22T08:12:05Z</time>
      </trkpt>
      <trkpt lat="46.97164" lon="-0.48475">
        <ele>112.5</ele>
        <time>2012-07-22T08:12:06Z</time>
      </trkpt>
      <trkpt lat="46.9717" lon="-0.48465">
        <ele>112.8</ele>
        <time>2012-07-22T08:12:08Z</time>
      </trkpt>
      <trkpt lat="46.97173" lon="-0.4846">
        <ele>113</ele>
        <time>2012-07-22T08:12:09Z</time>
      </trkpt>
      <trkpt lat="46.97176" lon="-0.48455">
        <ele>113</ele>
        <time>2012-07-22T08:12:10Z</time>
      </trkpt>
      <trkpt lat="46.97179" lon="-0.4845">
        <ele>113.4</ele>
        <time>2012-07-22T08:12:11Z</time>
      </trkpt>
      <trkpt lat="46.97182" lon="-0.48444">
        <ele>113.5</ele>
        <time>2012-07-22T08:12:12Z</time>
      </trkpt>
      <trkpt lat="46.97186" lon="-0.48439">
        <ele>113.8</ele>
        <time>2012-07-22T08:12:13Z</time>
      </trkpt>
      <trkpt lat="46.97189" lon="-0.48433">
        <ele>113.9</ele>
        <time>2012-07-22T08:12:14Z</time>
      </trkpt>
      <trkpt lat="46.97192" lon="-0.48428">
        <ele>113.9</ele>
        <time>2012-07-22T08:12:15Z</time>
      </trkpt>
      <trkpt lat="46.97196" lon="-0.48423">
        <ele>113.9</ele>
        <time>2012-07-22T08:12:16Z</time>
      </trkpt>
      <trkpt lat="46.972" lon="-0.48418">
        <ele>113.8</ele>
        <time>2012-07-22T08:12:17Z</time>
      </trkpt>
      <trkpt lat="46.97204" lon="-0.48412">
        <ele>113.8</ele>
        <time>2012-07-22T08:12:18Z</time>
      </trkpt>
      <trkpt lat="46.97207" lon="-0.48406">
        <ele>113.5</ele>
        <time>2012-07-22T08:12:19Z</time>
      </trkpt>
      <trkpt lat="46.97211" lon="-0.484">
        <ele>113.5</ele>
        <time>2012-07-22T08:12:20Z</time>
      </trkpt>
      <trkpt lat="46.97215" lon="-0.48395">
        <ele>113.5</ele>
        <time>2012-07-22T08:12:21Z</time>
      </trkpt>
      <trkpt lat="46.97219" lon="-0.48389">
        <ele>113.5</ele>
        <time>2012-07-22T08:12:22Z</time>
      </trkpt>
      <trkpt lat="46.97223" lon="-0.48383">
        <ele>113.4</ele>
        <time>2012-07-22T08:12:23Z</time>
      </trkpt>
      <trkpt lat="46.97226" lon="-0.48378">
        <ele>113.4</ele>
        <time>2012-07-22T08:12:24Z</time>
      </trkpt>
      <trkpt lat="46.97229" lon="-0.48373">
        <ele>113.4</ele>
        <time>2012-07-22T08:12:25Z</time>
      </trkpt>
      <trkpt lat="46.97233" lon="-0.48369">
        <ele>113.4</ele>
        <time>2012-07-22T08:12:26Z</time>
      </trkpt>
      <trkpt lat="46.97236" lon="-0.48364">
        <ele>113.4</ele>
        <time>2012-07-22T08:12:27Z</time>
      </trkpt>
      <trkpt lat="46.9724" lon="-0.48359">
        <ele>113.4</ele>
        <time>2012-07-22T08:12:28Z</time>
      </trkpt>
      <trkpt lat="46.97243" lon="-0.48354">
        <ele>113.4</ele>
        <time>2012-07-22T08:12:29Z</time>
      </trkpt>
      <trkpt lat="46.97246" lon="-0.48348">
        <ele>113.4</ele>
        <time>2012-07-22T08:12:30Z</time>
      </trkpt>
      <trkpt lat="46.9725" lon="-0.48343">
        <ele>113.4</ele>
        <time>2012-07-22T08:12:31Z</time>
      </trkpt>
      <trkpt lat="46.97253" lon="-0.48337">
        <ele>113.3</ele>
        <time>2012-07-22T08:12:32Z</time>
      </trkpt>
      <trkpt lat="46.97256" lon="-0.48331">
        <ele>113.3</ele>
        <time>2012-07-22T08:12:33Z</time>
      </trkpt>
      <trkpt lat="46.9726" lon="-0.48325">
        <ele>113.4</ele>
        <time>2012-07-22T08:12:34Z</time>
      </trkpt>
      <trkpt lat="46.97263" lon="-0.48319">
        <ele>113.5</ele>
        <time>2012-07-22T08:12:35Z</time>
      </trkpt>
      <trkpt lat="46.97266" lon="-0.48312">
        <ele>113.5</ele>
        <time>2012-07-22T08:12:36Z</time>
      </trkpt>
      <trkpt lat="46.97269" lon="-0.48306">
        <ele>113.5</ele>
        <time>2012-07-22T08:12:37Z</time>
      </trkpt>
      <trkpt lat="46.97273" lon="-0.48299">
        <ele>113.5</ele>
        <time>2012-07-22T08:12:38Z</time>
      </trkpt>
      <trkpt lat="46.97276" lon="-0.48293">
        <ele>113.5</ele>
        <time>2012-07-22T08:12:39Z</time>
      </trkpt>
      <trkpt lat="46.97279" lon="-0.48287">
        <ele>113.5</ele>
        <time>2012-07-22T08:12:40Z</time>
      </trkpt>
      <trkpt lat="46.97283" lon="-0.48281">
        <ele>113.5</ele>
        <time>2012-07-22T08:12:41Z</time>
      </trkpt>
      <trkpt lat="46.97286" lon="-0.48275">
        <ele>113.5</ele>
        <time>2012-07-22T08:12:42Z</time>
      </trkpt>
      <trkpt lat="46.97289" lon="-0.48269">
        <ele>113.5</ele>
        <time>2012-07-22T08:12:43Z</time>
      </trkpt>
      <trkpt lat="46.97292" lon="-0.48263">
        <ele>113.5</ele>
        <time>2012-07-22T08:12:44Z</time>
      </trkpt>
      <trkpt lat="46.97296" lon="-0.48257">
        <ele>113.8</ele>
        <time>2012-07-22T08:12:45Z</time>
      </trkpt>
      <trkpt lat="46.97299" lon="-0.48251">
        <ele>113.9</ele>
        <time>2012-07-22T08:12:46Z</time>
      </trkpt>
      <trkpt lat="46.97302" lon="-0.48239">
        <ele>114</ele>
        <time>2012-07-22T08:12:48Z</time>
      </trkpt>
      <trkpt lat="46.97303" lon="-0.48227">
        <ele>114</ele>
        <time>2012-07-22T08:12:50Z</time>
      </trkpt>
      <trkpt lat="46.97304" lon="-0.48214">
        <ele>114</ele>
        <time>2012-07-22T08:12:52Z</time>
      </trkpt>
      <trkpt lat="46.97305" lon="-0.48207">
        <ele>114</ele>
        <time>2012-07-22T08:12:53Z</time>
      </trkpt>
      <trkpt lat="46.97306" lon="-0.48201">
        <ele>114.3</ele>
        <time>2012-07-22T08:12:54Z</time>
      </trkpt>
      <trkpt lat="46.97308" lon="-0.48195">
        <ele>114.3</ele>
        <time>2012-07-22T08:12:55Z</time>
      </trkpt>
      <trkpt lat="46.97311" lon="-0.48183">
        <ele>114.4</ele>
        <time>2012-07-22T08:12:57Z</time>
      </trkpt>
      <trkpt lat="46.97315" lon="-0.48172">
        <ele>114.5</ele>
        <time>2012-07-22T08:12:59Z</time>
      </trkpt>
      <trkpt lat="46.97317" lon="-0.48166">
        <ele>114.5</ele>
        <time>2012-07-22T08:13:00Z</time>
      </trkpt>
      <trkpt lat="46.97319" lon="-0.4816">
        <ele>114.5</ele>
        <time>2012-07-22T08:13:01Z</time>
      </trkpt>
      <trkpt lat="46.97323" lon="-0.48148">
        <ele>114.9</ele>
        <time>2012-07-22T08:13:03Z</time>
      </trkpt>
      <trkpt lat="46.97328" lon="-0.48137">
        <ele>115</ele>
        <time>2012-07-22T08:13:05Z</time>
      </trkpt>
      <trkpt lat="46.97332" lon="-0.48127">
        <ele>115</ele>
        <time>2012-07-22T08:13:07Z</time>
      </trkpt>
      <trkpt lat="46.97337" lon="-0.48117">
        <ele>115</ele>
        <time>2012-07-22T08:13:09Z</time>
      </trkpt>
      <trkpt lat="46.97342" lon="-0.48107">
        <ele>115.4</ele>
        <time>2012-07-22T08:13:11Z</time>
      </trkpt>
      <trkpt lat="46.97347" lon="-0.48098">
        <ele>115.5</ele>
        <time>2012-07-22T08:13:13Z</time>
      </trkpt>
      <trkpt lat="46.97352" lon="-0.4809">
        <ele>115.8</ele>
        <time>2012-07-22T08:13:15Z</time>
      </trkpt>
      <trkpt lat="46.97357" lon="-0.48082">
        <ele>115.8</ele>
        <time>2012-07-22T08:13:17Z</time>
      </trkpt>
      <trkpt lat="46.97362" lon="-0.48075">
        <ele>115.9</ele>
        <time>2012-07-22T08:13:19Z</time>
      </trkpt>
      <trkpt lat="46.9737" lon="-0.48069">
        <ele>116</ele>
        <time>2012-07-22T08:13:22Z</time>
      </trkpt>
      <trkpt lat="46.97378" lon="-0.48068">
        <ele>116</ele>
        <time>2012-07-22T08:13:25Z</time>
      </trkpt>
      <trkpt lat="46.97384" lon="-0.48067">
        <ele>116.4</ele>
        <time>2012-07-22T08:13:27Z</time>
      </trkpt>
      <trkpt lat="46.97391" lon="-0.48068">
        <ele>116.5</ele>
        <time>2012-07-22T08:13:29Z</time>
      </trkpt>
      <trkpt lat="46.97397" lon="-0.48069">
        <ele>116.5</ele>
        <time>2012-07-22T08:13:31Z</time>
      </trkpt>
      <trkpt lat="46.97405" lon="-0.48071">
        <ele>116.5</ele>
        <time>2012-07-22T08:13:34Z</time>
      </trkpt>
      <trkpt lat="46.97413" lon="-0.48073">
        <ele>116.9</ele>
        <time>2012-07-22T08:13:37Z</time>
      </trkpt>
      <trkpt lat="46.97415" lon="-0.48073">
        <ele>116.9</ele>
        <time>2012-07-22T08:13:38Z</time>
      </trkpt>
      <trkpt lat="46.97428" lon="-0.48074">
        <ele>117</ele>
        <time>2012-07-22T08:13:43Z</time>
      </trkpt>
      <trkpt lat="46.97436" lon="-0.48073">
        <ele>117.3</ele>
        <time>2012-07-22T08:13:46Z</time>
      </trkpt>
      <trkpt lat="46.97444" lon="-0.48073">
        <ele>117.5</ele>
        <time>2012-07-22T08:13:49Z</time>
      </trkpt>
      <trkpt lat="46.9745" lon="-0.48072">
        <ele>117.5</ele>
        <time>2012-07-22T08:13:51Z</time>
      </trkpt>
      <trkpt lat="46.97459" lon="-0.48069">
        <ele>118</ele>
        <time>2012-07-22T08:13:54Z</time>
      </trkpt>
      <trkpt lat="46.97466" lon="-0.48063">
        <ele>118.5</ele>
        <time>2012-07-22T08:13:57Z</time>
      </trkpt>
      <trkpt lat="46.97472" lon="-0.48058">
        <ele>118.8</ele>
        <time>2012-07-22T08:13:59Z</time>
      </trkpt>
      <trkpt lat="46.97478" lon="-0.48053">
        <ele>119</ele>
        <time>2012-07-22T08:14:01Z</time>
      </trkpt>
      <trkpt lat="46.97485" lon="-0.48048">
        <ele>119.5</ele>
        <time>2012-07-22T08:14:03Z</time>
      </trkpt>
      <trkpt lat="46.97491" lon="-0.48041">
        <ele>121.3</ele>
        <time>2012-07-22T08:14:05Z</time>
      </trkpt>
      <trkpt lat="46.97497" lon="-0.48034">
        <ele>123.9</ele>
        <time>2012-07-22T08:14:07Z</time>
      </trkpt>
      <trkpt lat="46.97504" lon="-0.48027">
        <ele>125.5</ele>
        <time>2012-07-22T08:14:09Z</time>
      </trkpt>
      <trkpt lat="46.9751" lon="-0.4802">
        <ele>126.5</ele>
        <time>2012-07-22T08:14:11Z</time>
      </trkpt>
      <trkpt lat="46.97516" lon="-0.48012">
        <ele>127.4</ele>
        <time>2012-07-22T08:14:13Z</time>
      </trkpt>
      <trkpt lat="46.97522" lon="-0.48005">
        <ele>127.9</ele>
        <time>2012-07-22T08:14:15Z</time>
      </trkpt>
      <trkpt lat="46.97528" lon="-0.47998">
        <ele>128.1</ele>
        <time>2012-07-22T08:14:17Z</time>
      </trkpt>
      <trkpt lat="46.97534" lon="-0.4799">
        <ele>128.3</ele>
        <time>2012-07-22T08:14:19Z</time>
      </trkpt>
      <trkpt lat="46.9754" lon="-0.47982">
        <ele>128.6</ele>
        <time>2012-07-22T08:14:21Z</time>
      </trkpt>
      <trkpt lat="46.97546" lon="-0.47974">
        <ele>128.6</ele>
        <time>2012-07-22T08:14:23Z</time>
      </trkpt>
      <trkpt lat="46.97552" lon="-0.47966">
        <ele>128.8</ele>
        <time>2012-07-22T08:14:25Z</time>
      </trkpt>
      <trkpt lat="46.97558" lon="-0.47959">
        <ele>128.8</ele>
        <time>2012-07-22T08:14:27Z</time>
      </trkpt>
      <trkpt lat="46.97564" lon="-0.47951">
        <ele>128.8</ele>
        <time>2012-07-22T08:14:29Z</time>
      </trkpt>
      <trkpt lat="46.97569" lon="-0.47945">
        <ele>128.8</ele>
        <time>2012-07-22T08:14:31Z</time>
      </trkpt>
      <trkpt lat="46.97575" lon="-0.47939">
        <ele>128.8</ele>
        <time>2012-07-22T08:14:33Z</time>
      </trkpt>
      <trkpt lat="46.97581" lon="-0.47932">
        <ele>128.8</ele>
        <time>2012-07-22T08:14:35Z</time>
      </trkpt>
      <trkpt lat="46.97587" lon="-0.47924">
        <ele>129.3</ele>
        <time>2012-07-22T08:14:37Z</time>
      </trkpt>
      <trkpt lat="46.97593" lon="-0.47916">
        <ele>129.8</ele>
        <time>2012-07-22T08:14:39Z</time>
      </trkpt>
      <trkpt lat="46.97596" lon="-0.47911">
        <ele>130.1</ele>
        <time>2012-07-22T08:14:40Z</time>
      </trkpt>
      <trkpt lat="46.97602" lon="-0.47901">
        <ele>130.6</ele>
        <time>2012-07-22T08:14:42Z</time>
      </trkpt>
      <trkpt lat="46.97606" lon="-0.47896">
        <ele>130.8</ele>
        <time>2012-07-22T08:14:43Z</time>
      </trkpt>
      <trkpt lat="46.97609" lon="-0.4789">
        <ele>131.1</ele>
        <time>2012-07-22T08:14:44Z</time>
      </trkpt>
      <trkpt lat="46.97613" lon="-0.47884">
        <ele>131.3</ele>
        <time>2012-07-22T08:14:45Z</time>
      </trkpt>
      <trkpt lat="46.97616" lon="-0.47877">
        <ele>131.6</ele>
        <time>2012-07-22T08:14:46Z</time>
      </trkpt>
      <trkpt lat="46.9762" lon="-0.4787">
        <ele>131.8</ele>
        <time>2012-07-22T08:14:47Z</time>
      </trkpt>
      <trkpt lat="46.97624" lon="-0.47863">
        <ele>132</ele>
        <time>2012-07-22T08:14:48Z</time>
      </trkpt>
      <trkpt lat="46.97627" lon="-0.47855">
        <ele>132.1</ele>
        <time>2012-07-22T08:14:49Z</time>
      </trkpt>
      <trkpt lat="46.97631" lon="-0.47847">
        <ele>132.3</ele>
        <time>2012-07-22T08:14:50Z</time>
      </trkpt>
      <trkpt lat="46.97636" lon="-0.4784">
        <ele>132.3</ele>
        <time>2012-07-22T08:14:51Z</time>
      </trkpt>
      <trkpt lat="46.97641" lon="-0.47832">
        <ele>132.3</ele>
        <time>2012-07-22T08:14:52Z</time>
      </trkpt>
      <trkpt lat="46.97646" lon="-0.47824">
        <ele>132.3</ele>
        <time>2012-07-22T08:14:53Z</time>
      </trkpt>
      <trkpt lat="46.97651" lon="-0.47817">
        <ele>132.3</ele>
        <time>2012-07-22T08:14:54Z</time>
      </trkpt>
      <trkpt lat="46.97656" lon="-0.47809">
        <ele>132.3</ele>
        <time>2012-07-22T08:14:55Z</time>
      </trkpt>
      <trkpt lat="46.97662" lon="-0.478">
        <ele>132.1</ele>
        <time>2012-07-22T08:14:56Z</time>
      </trkpt>
      <trkpt lat="46.97667" lon="-0.4779">
        <ele>132.1</ele>
        <time>2012-07-22T08:14:57Z</time>
      </trkpt>
      <trkpt lat="46.97672" lon="-0.4778">
        <ele>132.1</ele>
        <time>2012-07-22T08:14:58Z</time>
      </trkpt>
      <trkpt lat="46.97676" lon="-0.47768">
        <ele>132</ele>
        <time>2012-07-22T08:14:59Z</time>
      </trkpt>
      <trkpt lat="46.97681" lon="-0.47755">
        <ele>131.8</ele>
        <time>2012-07-22T08:15:00Z</time>
      </trkpt>
      <trkpt lat="46.97685" lon="-0.47743">
        <ele>131.6</ele>
        <time>2012-07-22T08:15:01Z</time>
      </trkpt>
      <trkpt lat="46.9769" lon="-0.47729">
        <ele>131.5</ele>
        <time>2012-07-22T08:15:02Z</time>
      </trkpt>
      <trkpt lat="46.97694" lon="-0.47716">
        <ele>131.3</ele>
        <time>2012-07-22T08:15:03Z</time>
      </trkpt>
      <trkpt lat="46.97698" lon="-0.47702">
        <ele>131.1</ele>
        <time>2012-07-22T08:15:04Z</time>
      </trkpt>
      <trkpt lat="46.97701" lon="-0.47688">
        <ele>131</ele>
        <time>2012-07-22T08:15:05Z</time>
      </trkpt>
      <trkpt lat="46.97705" lon="-0.47675">
        <ele>130.8</ele>
        <time>2012-07-22T08:15:06Z</time>
      </trkpt>
      <trkpt lat="46.97708" lon="-0.47663">
        <ele>130.3</ele>
        <time>2012-07-22T08:15:07Z</time>
      </trkpt>
      <trkpt lat="46.97712" lon="-0.47652">
        <ele>130</ele>
        <time>2012-07-22T08:15:08Z</time>
      </trkpt>
      <trkpt lat="46.97717" lon="-0.47641">
        <ele>129.5</ele>
        <time>2012-07-22T08:15:09Z</time>
      </trkpt>
      <trkpt lat="46.97721" lon="-0.4763">
        <ele>129</ele>
        <time>2012-07-22T08:15:10Z</time>
      </trkpt>
      <trkpt lat="46.97726" lon="-0.4762">
        <ele>128.5</ele>
        <time>2012-07-22T08:15:11Z</time>
      </trkpt>
      <trkpt lat="46.97731" lon="-0.4761">
        <ele>128.1</ele>
        <time>2012-07-22T08:15:12Z</time>
      </trkpt>
      <trkpt lat="46.97736" lon="-0.476">
        <ele>127.8</ele>
        <time>2012-07-22T08:15:13Z</time>
      </trkpt>
      <trkpt lat="46.97741" lon="-0.4759">
        <ele>127.4</ele>
        <time>2012-07-22T08:15:14Z</time>
      </trkpt>
      <trkpt lat="46.97746" lon="-0.47581">
        <ele>127</ele>
        <time>2012-07-22T08:15:15Z</time>
      </trkpt>
      <trkpt lat="46.9775" lon="-0.47571">
        <ele>126.8</ele>
        <time>2012-07-22T08:15:16Z</time>
      </trkpt>
      <trkpt lat="46.97755" lon="-0.47562">
        <ele>126.5</ele>
        <time>2012-07-22T08:15:17Z</time>
      </trkpt>
      <trkpt lat="46.97759" lon="-0.47553">
        <ele>126.5</ele>
        <time>2012-07-22T08:15:18Z</time>
      </trkpt>
      <trkpt lat="46.97764" lon="-0.47544">
        <ele>126.4</ele>
        <time>2012-07-22T08:15:19Z</time>
      </trkpt>
      <trkpt lat="46.97768" lon="-0.47535">
        <ele>126.3</ele>
        <time>2012-07-22T08:15:20Z</time>
      </trkpt>
      <trkpt lat="46.97773" lon="-0.47527">
        <ele>126.3</ele>
        <time>2012-07-22T08:15:21Z</time>
      </trkpt>
      <trkpt lat="46.97777" lon="-0.47518">
        <ele>126</ele>
        <time>2012-07-22T08:15:22Z</time>
      </trkpt>
      <trkpt lat="46.97781" lon="-0.47509">
        <ele>126</ele>
        <time>2012-07-22T08:15:23Z</time>
      </trkpt>
      <trkpt lat="46.97785" lon="-0.47501">
        <ele>126</ele>
        <time>2012-07-22T08:15:24Z</time>
      </trkpt>
      <trkpt lat="46.9779" lon="-0.47493">
        <ele>126</ele>
        <time>2012-07-22T08:15:25Z</time>
      </trkpt>
      <trkpt lat="46.97793" lon="-0.47485">
        <ele>126</ele>
        <time>2012-07-22T08:15:26Z</time>
      </trkpt>
      <trkpt lat="46.97797" lon="-0.47477">
        <ele>125.9</ele>
        <time>2012-07-22T08:15:27Z</time>
      </trkpt>
      <trkpt lat="46.97801" lon="-0.47469">
        <ele>125.9</ele>
        <time>2012-07-22T08:15:28Z</time>
      </trkpt>
      <trkpt lat="46.97805" lon="-0.47462">
        <ele>125.9</ele>
        <time>2012-07-22T08:15:29Z</time>
      </trkpt>
      <trkpt lat="46.97809" lon="-0.47454">
        <ele>125.9</ele>
        <time>2012-07-22T08:15:30Z</time>
      </trkpt>
      <trkpt lat="46.97812" lon="-0.47447">
        <ele>125.9</ele>
        <time>2012-07-22T08:15:31Z</time>
      </trkpt>
      <trkpt lat="46.97815" lon="-0.47441">
        <ele>125.9</ele>
        <time>2012-07-22T08:15:32Z</time>
      </trkpt>
      <trkpt lat="46.97821" lon="-0.4743">
        <ele>125.9</ele>
        <time>2012-07-22T08:15:34Z</time>
      </trkpt>
      <trkpt lat="46.97825" lon="-0.47421">
        <ele>125.9</ele>
        <time>2012-07-22T08:15:37Z</time>
      </trkpt>
      <trkpt lat="46.9782" lon="-0.4741">
        <ele>125.8</ele>
        <time>2012-07-22T08:16:06Z</time>
      </trkpt>
      <trkpt lat="46.97818" lon="-0.47407">
        <ele>125.8</ele>
        <time>2012-07-22T08:16:07Z</time>
      </trkpt>
      <trkpt lat="46.97811" lon="-0.47396">
        <ele>126</ele>
        <time>2012-07-22T08:16:10Z</time>
      </trkpt>
      <trkpt lat="46.97806" lon="-0.47387">
        <ele>126</ele>
        <time>2012-07-22T08:16:12Z</time>
      </trkpt>
      <trkpt lat="46.97801" lon="-0.47379">
        <ele>126</ele>
        <time>2012-07-22T08:16:14Z</time>
      </trkpt>
      <trkpt lat="46.97796" lon="-0.4737">
        <ele>126</ele>
        <time>2012-07-22T08:16:16Z</time>
      </trkpt>
      <trkpt lat="46.9779" lon="-0.47361">
        <ele>125.8</ele>
        <time>2012-07-22T08:16:18Z</time>
      </trkpt>
      <trkpt lat="46.97783" lon="-0.47352">
        <ele>125.5</ele>
        <time>2012-07-22T08:16:20Z</time>
      </trkpt>
      <trkpt lat="46.97776" lon="-0.47344">
        <ele>125.5</ele>
        <time>2012-07-22T08:16:22Z</time>
      </trkpt>
      <trkpt lat="46.9777" lon="-0.47337">
        <ele>125.5</ele>
        <time>2012-07-22T08:16:24Z</time>
      </trkpt>
      <trkpt lat="46.97764" lon="-0.47329">
        <ele>125.5</ele>
        <time>2012-07-22T08:16:26Z</time>
      </trkpt>
      <trkpt lat="46.97759" lon="-0.4732">
        <ele>125.5</ele>
        <time>2012-07-22T08:16:28Z</time>
      </trkpt>
      <trkpt lat="46.97755" lon="-0.47309">
        <ele>125.8</ele>
        <time>2012-07-22T08:16:30Z</time>
      </trkpt>
      <trkpt lat="46.9775" lon="-0.47299">
        <ele>125.5</ele>
        <time>2012-07-22T08:16:32Z</time>
      </trkpt>
      <trkpt lat="46.97745" lon="-0.47289">
        <ele>125.5</ele>
        <time>2012-07-22T08:16:34Z</time>
      </trkpt>
      <trkpt lat="46.9774" lon="-0.4728">
        <ele>125.5</ele>
        <time>2012-07-22T08:16:36Z</time>
      </trkpt>
      <trkpt lat="46.97735" lon="-0.47271">
        <ele>125.5</ele>
        <time>2012-07-22T08:16:38Z</time>
      </trkpt>
      <trkpt lat="46.97729" lon="-0.47263">
        <ele>125.5</ele>
        <time>2012-07-22T08:16:40Z</time>
      </trkpt>
      <trkpt lat="46.97722" lon="-0.47256">
        <ele>125.5</ele>
        <time>2012-07-22T08:16:43Z</time>
      </trkpt>
      <trkpt lat="46.97714" lon="-0.47254">
        <ele>125.5</ele>
        <time>2012-07-22T08:16:46Z</time>
      </trkpt>
      <trkpt lat="46.97706" lon="-0.47251">
        <ele>125</ele>
        <time>2012-07-22T08:16:48Z</time>
      </trkpt>
      <trkpt lat="46.97698" lon="-0.47248">
        <ele>124.5</ele>
        <time>2012-07-22T08:16:50Z</time>
      </trkpt>
      <trkpt lat="46.97693" lon="-0.47247">
        <ele>124.5</ele>
        <time>2012-07-22T08:16:51Z</time>
      </trkpt>
      <trkpt lat="46.97688" lon="-0.47246">
        <ele>124.4</ele>
        <time>2012-07-22T08:16:52Z</time>
      </trkpt>
      <trkpt lat="46.97684" lon="-0.47245">
        <ele>124.3</ele>
        <time>2012-07-22T08:16:53Z</time>
      </trkpt>
      <trkpt lat="46.97679" lon="-0.47245">
        <ele>124</ele>
        <time>2012-07-22T08:16:54Z</time>
      </trkpt>
      <trkpt lat="46.97675" lon="-0.47245">
        <ele>124</ele>
        <time>2012-07-22T08:16:55Z</time>
      </trkpt>
      <trkpt lat="46.9767" lon="-0.47246">
        <ele>124</ele>
        <time>2012-07-22T08:16:56Z</time>
      </trkpt>
      <trkpt lat="46.97662" lon="-0.47249">
        <ele>124</ele>
        <time>2012-07-22T08:16:58Z</time>
      </trkpt>
      <trkpt lat="46.97654" lon="-0.47252">
        <ele>123.8</ele>
        <time>2012-07-22T08:17:00Z</time>
      </trkpt>
      <trkpt lat="46.97647" lon="-0.47246">
        <ele>123.5</ele>
        <time>2012-07-22T08:17:02Z</time>
      </trkpt>
      <trkpt lat="46.97644" lon="-0.47241">
        <ele>123.4</ele>
        <time>2012-07-22T08:17:03Z</time>
      </trkpt>
      <trkpt lat="46.97641" lon="-0.47235">
        <ele>123.3</ele>
        <time>2012-07-22T08:17:04Z</time>
      </trkpt>
      <trkpt lat="46.97639" lon="-0.47229">
        <ele>123</ele>
        <time>2012-07-22T08:17:05Z</time>
      </trkpt>
      <trkpt lat="46.97637" lon="-0.47222">
        <ele>123</ele>
        <time>2012-07-22T08:17:06Z</time>
      </trkpt>
      <trkpt lat="46.97635" lon="-0.47214">
        <ele>123</ele>
        <time>2012-07-22T08:17:07Z</time>
      </trkpt>
      <trkpt lat="46.97632" lon="-0.47207">
        <ele>122.8</ele>
        <time>2012-07-22T08:17:08Z</time>
      </trkpt>
      <trkpt lat="46.9763" lon="-0.47199">
        <ele>122.5</ele>
        <time>2012-07-22T08:17:09Z</time>
      </trkpt>
      <trkpt lat="46.97628" lon="-0.4719">
        <ele>122.4</ele>
        <time>2012-07-22T08:17:10Z</time>
      </trkpt>
      <trkpt lat="46.97625" lon="-0.47182">
        <ele>122.3</ele>
        <time>2012-07-22T08:17:11Z</time>
      </trkpt>
      <trkpt lat="46.97622" lon="-0.47175">
        <ele>122</ele>
        <time>2012-07-22T08:17:12Z</time>
      </trkpt>
      <trkpt lat="46.97619" lon="-0.47167">
        <ele>121.9</ele>
        <time>2012-07-22T08:17:13Z</time>
      </trkpt>
      <trkpt lat="46.97615" lon="-0.47159">
        <ele>121.8</ele>
        <time>2012-07-22T08:17:14Z</time>
      </trkpt>
      <trkpt lat="46.97611" lon="-0.47152">
        <ele>121.5</ele>
        <time>2012-07-22T08:17:15Z</time>
      </trkpt>
      <trkpt lat="46.97607" lon="-0.47144">
        <ele>121.5</ele>
        <time>2012-07-22T08:17:16Z</time>
      </trkpt>
      <trkpt lat="46.97602" lon="-0.47136">
        <ele>121.3</ele>
        <time>2012-07-22T08:17:17Z</time>
      </trkpt>
      <trkpt lat="46.97597" lon="-0.47129">
        <ele>121</ele>
        <time>2012-07-22T08:17:18Z</time>
      </trkpt>
      <trkpt lat="46.97593" lon="-0.47123">
        <ele>120.9</ele>
        <time>2012-07-22T08:17:19Z</time>
      </trkpt>
      <trkpt lat="46.97589" lon="-0.47119">
        <ele>120.5</ele>
        <time>2012-07-22T08:17:20Z</time>
      </trkpt>
      <trkpt lat="46.9758" lon="-0.47119">
        <ele>120</ele>
        <time>2012-07-22T08:17:22Z</time>
      </trkpt>
      <trkpt lat="46.97575" lon="-0.47122">
        <ele>119.8</ele>
        <time>2012-07-22T08:17:23Z</time>
      </trkpt>
      <trkpt lat="46.97571" lon="-0.47125">
        <ele>119.5</ele>
        <time>2012-07-22T08:17:24Z</time>
      </trkpt>
      <trkpt lat="46.97565" lon="-0.47129">
        <ele>119.4</ele>
        <time>2012-07-22T08:17:25Z</time>
      </trkpt>
      <trkpt lat="46.97559" lon="-0.47133">
        <ele>119</ele>
        <time>2012-07-22T08:17:26Z</time>
      </trkpt>
      <trkpt lat="46.97553" lon="-0.47135">
        <ele>118.9</ele>
        <time>2012-07-22T08:17:27Z</time>
      </trkpt>
      <trkpt lat="46.97547" lon="-0.47136">
        <ele>118.5</ele>
        <time>2012-07-22T08:17:28Z</time>
      </trkpt>
      <trkpt lat="46.9754" lon="-0.47137">
        <ele>118.4</ele>
        <time>2012-07-22T08:17:29Z</time>
      </trkpt>
      <trkpt lat="46.97535" lon="-0.47139">
        <ele>118</ele>
        <time>2012-07-22T08:17:30Z</time>
      </trkpt>
      <trkpt lat="46.9753" lon="-0.47143">
        <ele>117.5</ele>
        <time>2012-07-22T08:17:31Z</time>
      </trkpt>
      <trkpt lat="46.97526" lon="-0.47154">
        <ele>117.3</ele>
        <time>2012-07-22T08:17:33Z</time>
      </trkpt>
      <trkpt lat="46.97524" lon="-0.47166">
        <ele>116.5</ele>
        <time>2012-07-22T08:17:35Z</time>
      </trkpt>
      <trkpt lat="46.97524" lon="-0.47173">
        <ele>116.3</ele>
        <time>2012-07-22T08:17:36Z</time>
      </trkpt>
      <trkpt lat="46.97524" lon="-0.4718">
        <ele>115.8</ele>
        <time>2012-07-22T08:17:37Z</time>
      </trkpt>
      <trkpt lat="46.97524" lon="-0.47186">
        <ele>115.4</ele>
        <time>2012-07-22T08:17:38Z</time>
      </trkpt>
      <trkpt lat="46.97522" lon="-0.47198">
        <ele>114.5</ele>
        <time>2012-07-22T08:17:40Z</time>
      </trkpt>
      <trkpt lat="46.97515" lon="-0.47204">
        <ele>114</ele>
        <time>2012-07-22T08:17:42Z</time>
      </trkpt>
      <trkpt lat="46.9751" lon="-0.47206">
        <ele>114</ele>
        <time>2012-07-22T08:17:43Z</time>
      </trkpt>
      <trkpt lat="46.97506" lon="-0.47208">
        <ele>114</ele>
        <time>2012-07-22T08:17:44Z</time>
      </trkpt>
      <trkpt lat="46.97501" lon="-0.47208">
        <ele>113.9</ele>
        <time>2012-07-22T08:17:45Z</time>
      </trkpt>
      <trkpt lat="46.97495" lon="-0.47209">
        <ele>113.8</ele>
        <time>2012-07-22T08:17:46Z</time>
      </trkpt>
      <trkpt lat="46.9749" lon="-0.47209">
        <ele>113.8</ele>
        <time>2012-07-22T08:17:47Z</time>
      </trkpt>
      <trkpt lat="46.97485" lon="-0.47207">
        <ele>113.5</ele>
        <time>2012-07-22T08:17:48Z</time>
      </trkpt>
      <trkpt lat="46.9748" lon="-0.47205">
        <ele>113.5</ele>
        <time>2012-07-22T08:17:49Z</time>
      </trkpt>
      <trkpt lat="46.97475" lon="-0.47203">
        <ele>113.5</ele>
        <time>2012-07-22T08:17:50Z</time>
      </trkpt>
      <trkpt lat="46.97469" lon="-0.47202">
        <ele>113.5</ele>
        <time>2012-07-22T08:17:51Z</time>
      </trkpt>
      <trkpt lat="46.97464" lon="-0.47201">
        <ele>113.5</ele>
        <time>2012-07-22T08:17:52Z</time>
      </trkpt>
      <trkpt lat="46.97459" lon="-0.47201">
        <ele>113.5</ele>
        <time>2012-07-22T08:17:53Z</time>
      </trkpt>
      <trkpt lat="46.97454" lon="-0.472">
        <ele>113.4</ele>
        <time>2012-07-22T08:17:54Z</time>
      </trkpt>
      <trkpt lat="46.9745" lon="-0.472">
        <ele>113.3</ele>
        <time>2012-07-22T08:17:55Z</time>
      </trkpt>
      <trkpt lat="46.97445" lon="-0.47199">
        <ele>113</ele>
        <time>2012-07-22T08:17:56Z</time>
      </trkpt>
      <trkpt lat="46.9744" lon="-0.47198">
        <ele>113</ele>
        <time>2012-07-22T08:17:57Z</time>
      </trkpt>
      <trkpt lat="46.97436" lon="-0.47196">
        <ele>113</ele>
        <time>2012-07-22T08:17:58Z</time>
      </trkpt>
      <trkpt lat="46.97431" lon="-0.47195">
        <ele>113</ele>
        <time>2012-07-22T08:17:59Z</time>
      </trkpt>
      <trkpt lat="46.97422" lon="-0.47193">
        <ele>113</ele>
        <time>2012-07-22T08:18:01Z</time>
      </trkpt>
      <trkpt lat="46.97414" lon="-0.47192">
        <ele>113</ele>
        <time>2012-07-22T08:18:03Z</time>
      </trkpt>
      <trkpt lat="46.97406" lon="-0.47194">
        <ele>113.3</ele>
        <time>2012-07-22T08:18:05Z</time>
      </trkpt>
      <trkpt lat="46.97401" lon="-0.472">
        <ele>113.3</ele>
        <time>2012-07-22T08:18:07Z</time>
      </trkpt>
      <trkpt lat="46.97398" lon="-0.47208">
        <ele>113.4</ele>
        <time>2012-07-22T08:18:09Z</time>
      </trkpt>
      <trkpt lat="46.97396" lon="-0.47212">
        <ele>113.4</ele>
        <time>2012-07-22T08:18:10Z</time>
      </trkpt>
      <trkpt lat="46.97391" lon="-0.47226">
        <ele>113.5</ele>
        <time>2012-07-22T08:18:13Z</time>
      </trkpt>
      <trkpt lat="46.97388" lon="-0.47235">
        <ele>113.8</ele>
        <time>2012-07-22T08:18:15Z</time>
      </trkpt>
      <trkpt lat="46.97384" lon="-0.47245">
        <ele>113.9</ele>
        <time>2012-07-22T08:18:17Z</time>
      </trkpt>
      <trkpt lat="46.9738" lon="-0.47255">
        <ele>114.5</ele>
        <time>2012-07-22T08:18:19Z</time>
      </trkpt>
      <trkpt lat="46.97375" lon="-0.47266">
        <ele>115.5</ele>
        <time>2012-07-22T08:18:21Z</time>
      </trkpt>
      <trkpt lat="46.97371" lon="-0.47277">
        <ele>116.4</ele>
        <time>2012-07-22T08:18:23Z</time>
      </trkpt>
      <trkpt lat="46.97368" lon="-0.47283">
        <ele>116.5</ele>
        <time>2012-07-22T08:18:24Z</time>
      </trkpt>
      <trkpt lat="46.97366" lon="-0.47289">
        <ele>117</ele>
        <time>2012-07-22T08:18:25Z</time>
      </trkpt>
      <trkpt lat="46.97363" lon="-0.47296">
        <ele>117</ele>
        <time>2012-07-22T08:18:26Z</time>
      </trkpt>
      <trkpt lat="46.9736" lon="-0.47303">
        <ele>117.4</ele>
        <time>2012-07-22T08:18:27Z</time>
      </trkpt>
      <trkpt lat="46.97357" lon="-0.4731">
        <ele>117.5</ele>
        <time>2012-07-22T08:18:28Z</time>
      </trkpt>
      <trkpt lat="46.97355" lon="-0.47318">
        <ele>117.5</ele>
        <time>2012-07-22T08:18:29Z</time>
      </trkpt>
      <trkpt lat="46.97352" lon="-0.47326">
        <ele>117.8</ele>
        <time>2012-07-22T08:18:30Z</time>
      </trkpt>
      <trkpt lat="46.97349" lon="-0.47335">
        <ele>117.8</ele>
        <time>2012-07-22T08:18:31Z</time>
      </trkpt>
      <trkpt lat="46.97346" lon="-0.47344">
        <ele>117.9</ele>
        <time>2012-07-22T08:18:32Z</time>
      </trkpt>
      <trkpt lat="46.97343" lon="-0.47352">
        <ele>118</ele>
        <time>2012-07-22T08:18:33Z</time>
      </trkpt>
      <trkpt lat="46.9734" lon="-0.47361">
        <ele>118</ele>
        <time>2012-07-22T08:18:34Z</time>
      </trkpt>
      <trkpt lat="46.97336" lon="-0.47369">
        <ele>118</ele>
        <time>2012-07-22T08:18:35Z</time>
      </trkpt>
      <trkpt lat="46.97333" lon="-0.47378">
        <ele>118.3</ele>
        <time>2012-07-22T08:18:36Z</time>
      </trkpt>
      <trkpt lat="46.9733" lon="-0.47386">
        <ele>118.3</ele>
        <time>2012-07-22T08:18:37Z</time>
      </trkpt>
      <trkpt lat="46.97327" lon="-0.47395">
        <ele>118</ele>
        <time>2012-07-22T08:18:38Z</time>
      </trkpt>
      <trkpt lat="46.97325" lon="-0.47404">
        <ele>118</ele>
        <time>2012-07-22T08:18:39Z</time>
      </trkpt>
      <trkpt lat="46.97322" lon="-0.47412">
        <ele>118</ele>
        <time>2012-07-22T08:18:40Z</time>
      </trkpt>
      <trkpt lat="46.97318" lon="-0.47419">
        <ele>118</ele>
        <time>2012-07-22T08:18:41Z</time>
      </trkpt>
      <trkpt lat="46.97314" lon="-0.47426">
        <ele>117.8</ele>
        <time>2012-07-22T08:18:42Z</time>
      </trkpt>
      <trkpt lat="46.9731" lon="-0.47433">
        <ele>117.5</ele>
        <time>2012-07-22T08:18:43Z</time>
      </trkpt>
      <trkpt lat="46.97306" lon="-0.4744">
        <ele>117.4</ele>
        <time>2012-07-22T08:18:44Z</time>
      </trkpt>
      <trkpt lat="46.97301" lon="-0.47446">
        <ele>117</ele>
        <time>2012-07-22T08:18:45Z</time>
      </trkpt>
      <trkpt lat="46.97296" lon="-0.47452">
        <ele>116.9</ele>
        <time>2012-07-22T08:18:46Z</time>
      </trkpt>
      <trkpt lat="46.97293" lon="-0.4746">
        <ele>116.5</ele>
        <time>2012-07-22T08:18:47Z</time>
      </trkpt>
      <trkpt lat="46.97289" lon="-0.47468">
        <ele>116.5</ele>
        <time>2012-07-22T08:18:48Z</time>
      </trkpt>
      <trkpt lat="46.97287" lon="-0.47476">
        <ele>116.3</ele>
        <time>2012-07-22T08:18:49Z</time>
      </trkpt>
      <trkpt lat="46.97284" lon="-0.47486">
        <ele>116.3</ele>
        <time>2012-07-22T08:18:51Z</time>
      </trkpt>
      <trkpt lat="46.97278" lon="-0.47492">
        <ele>116</ele>
        <time>2012-07-22T08:18:54Z</time>
      </trkpt>
      <trkpt lat="46.97271" lon="-0.47488">
        <ele>115.8</ele>
        <time>2012-07-22T08:18:58Z</time>
      </trkpt>
      <trkpt lat="46.97267" lon="-0.47479">
        <ele>114.9</ele>
        <time>2012-07-22T08:19:00Z</time>
      </trkpt>
      <trkpt lat="46.97264" lon="-0.47474">
        <ele>113.5</ele>
        <time>2012-07-22T08:19:01Z</time>
      </trkpt>
      <trkpt lat="46.9726" lon="-0.47467">
        <ele>112</ele>
        <time>2012-07-22T08:19:02Z</time>
      </trkpt>
      <trkpt lat="46.97256" lon="-0.4746">
        <ele>110.8</ele>
        <time>2012-07-22T08:19:03Z</time>
      </trkpt>
      <trkpt lat="46.97251" lon="-0.47455">
        <ele>109.5</ele>
        <time>2012-07-22T08:19:04Z</time>
      </trkpt>
      <trkpt lat="46.97246" lon="-0.47452">
        <ele>108.3</ele>
        <time>2012-07-22T08:19:05Z</time>
      </trkpt>
      <trkpt lat="46.9724" lon="-0.47452">
        <ele>107</ele>
        <time>2012-07-22T08:19:06Z</time>
      </trkpt>
      <trkpt lat="46.97235" lon="-0.47451">
        <ele>106</ele>
        <time>2012-07-22T08:19:07Z</time>
      </trkpt>
      <trkpt lat="46.9723" lon="-0.47453">
        <ele>105.4</ele>
        <time>2012-07-22T08:19:08Z</time>
      </trkpt>
      <trkpt lat="46.97225" lon="-0.47454">
        <ele>104.5</ele>
        <time>2012-07-22T08:19:09Z</time>
      </trkpt>
      <trkpt lat="46.9722" lon="-0.47456">
        <ele>104</ele>
        <time>2012-07-22T08:19:10Z</time>
      </trkpt>
      <trkpt lat="46.97215" lon="-0.47458">
        <ele>103.5</ele>
        <time>2012-07-22T08:19:11Z</time>
      </trkpt>
      <trkpt lat="46.9721" lon="-0.4746">
        <ele>103.4</ele>
        <time>2012-07-22T08:19:12Z</time>
      </trkpt>
      <trkpt lat="46.97202" lon="-0.47463">
        <ele>102.8</ele>
        <time>2012-07-22T08:19:14Z</time>
      </trkpt>
      <trkpt lat="46.97196" lon="-0.47467">
        <ele>102.8</ele>
        <time>2012-07-22T08:19:16Z</time>
      </trkpt>
      <trkpt lat="46.9719" lon="-0.47471">
        <ele>102.5</ele>
        <time>2012-07-22T08:19:18Z</time>
      </trkpt>
      <trkpt lat="46.97185" lon="-0.47476">
        <ele>102.5</ele>
        <time>2012-07-22T08:19:20Z</time>
      </trkpt>
      <trkpt lat="46.97179" lon="-0.47482">
        <ele>102.5</ele>
        <time>2012-07-22T08:19:22Z</time>
      </trkpt>
      <trkpt lat="46.97171" lon="-0.47487">
        <ele>102.5</ele>
        <time>2012-07-22T08:19:24Z</time>
      </trkpt>
      <trkpt lat="46.97166" lon="-0.47489">
        <ele>102.5</ele>
        <time>2012-07-22T08:19:25Z</time>
      </trkpt>
      <trkpt lat="46.97162" lon="-0.47491">
        <ele>102.5</ele>
        <time>2012-07-22T08:19:26Z</time>
      </trkpt>
      <trkpt lat="46.97157" lon="-0.47493">
        <ele>102.5</ele>
        <time>2012-07-22T08:19:27Z</time>
      </trkpt>
      <trkpt lat="46.97152" lon="-0.47494">
        <ele>102.5</ele>
        <time>2012-07-22T08:19:28Z</time>
      </trkpt>
      <trkpt lat="46.97147" lon="-0.47496">
        <ele>102.5</ele>
        <time>2012-07-22T08:19:29Z</time>
      </trkpt>
      <trkpt lat="46.97142" lon="-0.47497">
        <ele>102.4</ele>
        <time>2012-07-22T08:19:30Z</time>
      </trkpt>
      <trkpt lat="46.97136" lon="-0.47499">
        <ele>102.4</ele>
        <time>2012-07-22T08:19:31Z</time>
      </trkpt>
      <trkpt lat="46.97131" lon="-0.475">
        <ele>102.3</ele>
        <time>2012-07-22T08:19:32Z</time>
      </trkpt>
      <trkpt lat="46.97125" lon="-0.47502">
        <ele>102</ele>
        <time>2012-07-22T08:19:33Z</time>
      </trkpt>
      <trkpt lat="46.97118" lon="-0.47503">
        <ele>102</ele>
        <time>2012-07-22T08:19:34Z</time>
      </trkpt>
      <trkpt lat="46.97111" lon="-0.47505">
        <ele>102</ele>
        <time>2012-07-22T08:19:35Z</time>
      </trkpt>
      <trkpt lat="46.97104" lon="-0.47506">
        <ele>101.9</ele>
        <time>2012-07-22T08:19:36Z</time>
      </trkpt>
      <trkpt lat="46.97097" lon="-0.47509">
        <ele>101.8</ele>
        <time>2012-07-22T08:19:37Z</time>
      </trkpt>
      <trkpt lat="46.9709" lon="-0.47514">
        <ele>101.5</ele>
        <time>2012-07-22T08:19:38Z</time>
      </trkpt>
      <trkpt lat="46.97084" lon="-0.47519">
        <ele>101</ele>
        <time>2012-07-22T08:19:39Z</time>
      </trkpt>
      <trkpt lat="46.97077" lon="-0.47525">
        <ele>100.9</ele>
        <time>2012-07-22T08:19:40Z</time>
      </trkpt>
      <trkpt lat="46.9707" lon="-0.47532">
        <ele>100.5</ele>
        <time>2012-07-22T08:19:41Z</time>
      </trkpt>
      <trkpt lat="46.97064" lon="-0.4754">
        <ele>100.4</ele>
        <time>2012-07-22T08:19:42Z</time>
      </trkpt>
      <trkpt lat="46.97058" lon="-0.47547">
        <ele>100.3</ele>
        <time>2012-07-22T08:19:43Z</time>
      </trkpt>
      <trkpt lat="46.97052" lon="-0.47555">
        <ele>100</ele>
        <time>2012-07-22T08:19:44Z</time>
      </trkpt>
      <trkpt lat="46.97046" lon="-0.47563">
        <ele>100</ele>
        <time>2012-07-22T08:19:45Z</time>
      </trkpt>
      <trkpt lat="46.97041" lon="-0.4757">
        <ele>100</ele>
        <time>2012-07-22T08:19:46Z</time>
      </trkpt>
      <trkpt lat="46.97035" lon="-0.47577">
        <ele>100</ele>
        <time>2012-07-22T08:19:47Z</time>
      </trkpt>
      <trkpt lat="46.9703" lon="-0.47585">
        <ele>99.9</ele>
        <time>2012-07-22T08:19:48Z</time>
      </trkpt>
      <trkpt lat="46.97024" lon="-0.47591">
        <ele>99.8</ele>
        <time>2012-07-22T08:19:49Z</time>
      </trkpt>
      <trkpt lat="46.97018" lon="-0.47597">
        <ele>99.5</ele>
        <time>2012-07-22T08:19:50Z</time>
      </trkpt>
      <trkpt lat="46.97012" lon="-0.47602">
        <ele>99.4</ele>
        <time>2012-07-22T08:19:51Z</time>
      </trkpt>
      <trkpt lat="46.97007" lon="-0.47607">
        <ele>99.3</ele>
        <time>2012-07-22T08:19:52Z</time>
      </trkpt>
      <trkpt lat="46.97002" lon="-0.47612">
        <ele>99</ele>
        <time>2012-07-22T08:19:53Z</time>
      </trkpt>
      <trkpt lat="46.96997" lon="-0.47616">
        <ele>99</ele>
        <time>2012-07-22T08:19:54Z</time>
      </trkpt>
      <trkpt lat="46.96993" lon="-0.47621">
        <ele>99</ele>
        <time>2012-07-22T08:19:55Z</time>
      </trkpt>
      <trkpt lat="46.96989" lon="-0.47626">
        <ele>98.9</ele>
        <time>2012-07-22T08:19:56Z</time>
      </trkpt>
      <trkpt lat="46.96985" lon="-0.4763">
        <ele>98.8</ele>
        <time>2012-07-22T08:19:57Z</time>
      </trkpt>
      <trkpt lat="46.96982" lon="-0.47635">
        <ele>98.5</ele>
        <time>2012-07-22T08:19:58Z</time>
      </trkpt>
      <trkpt lat="46.96978" lon="-0.4764">
        <ele>98.4</ele>
        <time>2012-07-22T08:19:59Z</time>
      </trkpt>
      <trkpt lat="46.96974" lon="-0.47645">
        <ele>98</ele>
        <time>2012-07-22T08:20:00Z</time>
      </trkpt>
      <trkpt lat="46.96971" lon="-0.4765">
        <ele>98</ele>
        <time>2012-07-22T08:20:01Z</time>
      </trkpt>
      <trkpt lat="46.96967" lon="-0.47655">
        <ele>97.9</ele>
        <time>2012-07-22T08:20:02Z</time>
      </trkpt>
      <trkpt lat="46.96964" lon="-0.47661">
        <ele>97.5</ele>
        <time>2012-07-22T08:20:03Z</time>
      </trkpt>
      <trkpt lat="46.9696" lon="-0.47667">
        <ele>97.5</ele>
        <time>2012-07-22T08:20:04Z</time>
      </trkpt>
      <trkpt lat="46.96957" lon="-0.47674">
        <ele>97.4</ele>
        <time>2012-07-22T08:20:05Z</time>
      </trkpt>
      <trkpt lat="46.96954" lon="-0.47681">
        <ele>97</ele>
        <time>2012-07-22T08:20:06Z</time>
      </trkpt>
      <trkpt lat="46.9695" lon="-0.4769">
        <ele>97</ele>
        <time>2012-07-22T08:20:07Z</time>
      </trkpt>
      <trkpt lat="46.96947" lon="-0.47698">
        <ele>96.8</ele>
        <time>2012-07-22T08:20:08Z</time>
      </trkpt>
      <trkpt lat="46.96944" lon="-0.47707">
        <ele>96.5</ele>
        <time>2012-07-22T08:20:09Z</time>
      </trkpt>
      <trkpt lat="46.96941" lon="-0.47716">
        <ele>96.5</ele>
        <time>2012-07-22T08:20:10Z</time>
      </trkpt>
      <trkpt lat="46.96938" lon="-0.47725">
        <ele>96.5</ele>
        <time>2012-07-22T08:20:11Z</time>
      </trkpt>
      <trkpt lat="46.96935" lon="-0.47733">
        <ele>96.3</ele>
        <time>2012-07-22T08:20:12Z</time>
      </trkpt>
      <trkpt lat="46.96931" lon="-0.47742">
        <ele>96</ele>
        <time>2012-07-22T08:20:13Z</time>
      </trkpt>
      <trkpt lat="46.96928" lon="-0.47751">
        <ele>95.5</ele>
        <time>2012-07-22T08:20:14Z</time>
      </trkpt>
      <trkpt lat="46.96925" lon="-0.4776">
        <ele>95.3</ele>
        <time>2012-07-22T08:20:15Z</time>
      </trkpt>
      <trkpt lat="46.96923" lon="-0.4777">
        <ele>94.9</ele>
        <time>2012-07-22T08:20:16Z</time>
      </trkpt>
      <trkpt lat="46.9692" lon="-0.47781">
        <ele>94.5</ele>
        <time>2012-07-22T08:20:17Z</time>
      </trkpt>
      <trkpt lat="46.96919" lon="-0.47792">
        <ele>94</ele>
        <time>2012-07-22T08:20:18Z</time>
      </trkpt>
      <trkpt lat="46.96918" lon="-0.47803">
        <ele>94</ele>
        <time>2012-07-22T08:20:19Z</time>
      </trkpt>
      <trkpt lat="46.96917" lon="-0.47813">
        <ele>93.5</ele>
        <time>2012-07-22T08:20:20Z</time>
      </trkpt>
      <trkpt lat="46.96918" lon="-0.47824">
        <ele>93.5</ele>
        <time>2012-07-22T08:20:21Z</time>
      </trkpt>
      <trkpt lat="46.96919" lon="-0.47834">
        <ele>93.3</ele>
        <time>2012-07-22T08:20:22Z</time>
      </trkpt>
      <trkpt lat="46.9692" lon="-0.47845">
        <ele>93</ele>
        <time>2012-07-22T08:20:23Z</time>
      </trkpt>
      <trkpt lat="46.96922" lon="-0.47856">
        <ele>92.5</ele>
        <time>2012-07-22T08:20:24Z</time>
      </trkpt>
      <trkpt lat="46.96926" lon="-0.47868">
        <ele>92</ele>
        <time>2012-07-22T08:20:25Z</time>
      </trkpt>
      <trkpt lat="46.96929" lon="-0.4788">
        <ele>91.4</ele>
        <time>2012-07-22T08:20:26Z</time>
      </trkpt>
      <trkpt lat="46.96933" lon="-0.47893">
        <ele>91</ele>
        <time>2012-07-22T08:20:27Z</time>
      </trkpt>
      <trkpt lat="46.96935" lon="-0.47904">
        <ele>90.5</ele>
        <time>2012-07-22T08:20:28Z</time>
      </trkpt>
      <trkpt lat="46.96937" lon="-0.47916">
        <ele>90</ele>
        <time>2012-07-22T08:20:29Z</time>
      </trkpt>
      <trkpt lat="46.96938" lon="-0.47928">
        <ele>89.8</ele>
        <time>2012-07-22T08:20:30Z</time>
      </trkpt>
      <trkpt lat="46.96938" lon="-0.47939">
        <ele>89.4</ele>
        <time>2012-07-22T08:20:31Z</time>
      </trkpt>
      <trkpt lat="46.96937" lon="-0.4795">
        <ele>89</ele>
        <time>2012-07-22T08:20:32Z</time>
      </trkpt>
      <trkpt lat="46.96937" lon="-0.47962">
        <ele>88.5</ele>
        <time>2012-07-22T08:20:33Z</time>
      </trkpt>
      <trkpt lat="46.96935" lon="-0.47972">
        <ele>88.5</ele>
        <time>2012-07-22T08:20:34Z</time>
      </trkpt>
      <trkpt lat="46.96932" lon="-0.47983">
        <ele>88</ele>
        <time>2012-07-22T08:20:35Z</time>
      </trkpt>
      <trkpt lat="46.96929" lon="-0.47993">
        <ele>88</ele>
        <time>2012-07-22T08:20:36Z</time>
      </trkpt>
      <trkpt lat="46.96924" lon="-0.48002">
        <ele>87.9</ele>
        <time>2012-07-22T08:20:37Z</time>
      </trkpt>
      <trkpt lat="46.96919" lon="-0.48012">
        <ele>87.8</ele>
        <time>2012-07-22T08:20:38Z</time>
      </trkpt>
      <trkpt lat="46.96914" lon="-0.48022">
        <ele>87.5</ele>
        <time>2012-07-22T08:20:39Z</time>
      </trkpt>
      <trkpt lat="46.96909" lon="-0.48031">
        <ele>87.5</ele>
        <time>2012-07-22T08:20:40Z</time>
      </trkpt>
      <trkpt lat="46.96903" lon="-0.4804">
        <ele>87.5</ele>
        <time>2012-07-22T08:20:41Z</time>
      </trkpt>
      <trkpt lat="46.96897" lon="-0.48046">
        <ele>87.5</ele>
        <time>2012-07-22T08:20:42Z</time>
      </trkpt>
      <trkpt lat="46.96889" lon="-0.48053">
        <ele>87.8</ele>
        <time>2012-07-22T08:20:43Z</time>
      </trkpt>
      <trkpt lat="46.96882" lon="-0.4806">
        <ele>87.8</ele>
        <time>2012-07-22T08:20:44Z</time>
      </trkpt>
      <trkpt lat="46.96875" lon="-0.48067">
        <ele>87.8</ele>
        <time>2012-07-22T08:20:45Z</time>
      </trkpt>
      <trkpt lat="46.96867" lon="-0.48073">
        <ele>87.9</ele>
        <time>2012-07-22T08:20:46Z</time>
      </trkpt>
      <trkpt lat="46.96861" lon="-0.48078">
        <ele>87.9</ele>
        <time>2012-07-22T08:20:47Z</time>
      </trkpt>
      <trkpt lat="46.96854" lon="-0.4808">
        <ele>87.9</ele>
        <time>2012-07-22T08:20:48Z</time>
      </trkpt>
      <trkpt lat="46.96846" lon="-0.48082">
        <ele>87.8</ele>
        <time>2012-07-22T08:20:49Z</time>
      </trkpt>
      <trkpt lat="46.96839" lon="-0.48085">
        <ele>87.5</ele>
        <time>2012-07-22T08:20:50Z</time>
      </trkpt>
      <trkpt lat="46.96833" lon="-0.48089">
        <ele>87.5</ele>
        <time>2012-07-22T08:20:51Z</time>
      </trkpt>
      <trkpt lat="46.96826" lon="-0.48093">
        <ele>87.5</ele>
        <time>2012-07-22T08:20:52Z</time>
      </trkpt>
      <trkpt lat="46.9682" lon="-0.48096">
        <ele>87.4</ele>
        <time>2012-07-22T08:20:53Z</time>
      </trkpt>
      <trkpt lat="46.96813" lon="-0.481">
        <ele>87.4</ele>
        <time>2012-07-22T08:20:54Z</time>
      </trkpt>
      <trkpt lat="46.96807" lon="-0.48103">
        <ele>87.3</ele>
        <time>2012-07-22T08:20:55Z</time>
      </trkpt>
      <trkpt lat="46.96801" lon="-0.48109">
        <ele>87.3</ele>
        <time>2012-07-22T08:20:56Z</time>
      </trkpt>
      <trkpt lat="46.96796" lon="-0.48113">
        <ele>87</ele>
        <time>2012-07-22T08:20:57Z</time>
      </trkpt>
      <trkpt lat="46.96791" lon="-0.48118">
        <ele>87</ele>
        <time>2012-07-22T08:20:58Z</time>
      </trkpt>
      <trkpt lat="46.96786" lon="-0.48122">
        <ele>87</ele>
        <time>2012-07-22T08:20:59Z</time>
      </trkpt>
      <trkpt lat="46.96782" lon="-0.48126">
        <ele>87</ele>
        <time>2012-07-22T08:21:00Z</time>
      </trkpt>
      <trkpt lat="46.96777" lon="-0.48129">
        <ele>87</ele>
        <time>2012-07-22T08:21:01Z</time>
      </trkpt>
      <trkpt lat="46.96773" lon="-0.48132">
        <ele>87</ele>
        <time>2012-07-22T08:21:02Z</time>
      </trkpt>
      <trkpt lat="46.96766" lon="-0.4814">
        <ele>86.9</ele>
        <time>2012-07-22T08:21:04Z</time>
      </trkpt>
      <trkpt lat="46.96765" lon="-0.4815">
        <ele>86.9</ele>
        <time>2012-07-22T08:21:06Z</time>
      </trkpt>
      <trkpt lat="46.96764" lon="-0.4816">
        <ele>86.8</ele>
        <time>2012-07-22T08:21:08Z</time>
      </trkpt>
      <trkpt lat="46.96765" lon="-0.4817">
        <ele>86.8</ele>
        <time>2012-07-22T08:21:10Z</time>
      </trkpt>
      <trkpt lat="46.96767" lon="-0.48181">
        <ele>86.8</ele>
        <time>2012-07-22T08:21:13Z</time>
      </trkpt>
      <trkpt lat="46.9677" lon="-0.48193">
        <ele>86.9</ele>
        <time>2012-07-22T08:21:17Z</time>
      </trkpt>
      <trkpt lat="46.96771" lon="-0.48196">
        <ele>86.9</ele>
        <time>2012-07-22T08:21:18Z</time>
      </trkpt>
      <trkpt lat="46.96772" lon="-0.48216">
        <ele>87</ele>
        <time>2012-07-22T08:21:25Z</time>
      </trkpt>
      <trkpt lat="46.9677" lon="-0.48227">
        <ele>87.3</ele>
        <time>2012-07-22T08:21:29Z</time>
      </trkpt>
      <trkpt lat="46.96768" lon="-0.48239">
        <ele>87.5</ele>
        <time>2012-07-22T08:21:33Z</time>
      </trkpt>
      <trkpt lat="46.96765" lon="-0.4825">
        <ele>87.8</ele>
        <time>2012-07-22T08:21:37Z</time>
      </trkpt>
      <trkpt lat="46.96763" lon="-0.48263">
        <ele>88</ele>
        <time>2012-07-22T08:21:42Z</time>
      </trkpt>
      <trkpt lat="46.96761" lon="-0.48273">
        <ele>88.4</ele>
        <time>2012-07-22T08:21:46Z</time>
      </trkpt>
      <trkpt lat="46.9676" lon="-0.48285">
        <ele>88.5</ele>
        <time>2012-07-22T08:21:50Z</time>
      </trkpt>
      <trkpt lat="46.96759" lon="-0.48295">
        <ele>88.9</ele>
        <time>2012-07-22T08:21:53Z</time>
      </trkpt>
      <trkpt lat="46.96758" lon="-0.48307">
        <ele>89</ele>
        <time>2012-07-22T08:21:56Z</time>
      </trkpt>
      <trkpt lat="46.96757" lon="-0.48316">
        <ele>89.3</ele>
        <time>2012-07-22T08:21:58Z</time>
      </trkpt>
      <trkpt lat="46.96757" lon="-0.48327">
        <ele>90</ele>
        <time>2012-07-22T08:22:00Z</time>
      </trkpt>
      <trkpt lat="46.96756" lon="-0.48338">
        <ele>91</ele>
        <time>2012-07-22T08:22:02Z</time>
      </trkpt>
      <trkpt lat="46.96755" lon="-0.4835">
        <ele>91.5</ele>
        <time>2012-07-22T08:22:04Z</time>
      </trkpt>
      <trkpt lat="46.96754" lon="-0.48362">
        <ele>91.8</ele>
        <time>2012-07-22T08:22:06Z</time>
      </trkpt>
      <trkpt lat="46.96753" lon="-0.48374">
        <ele>92</ele>
        <time>2012-07-22T08:22:08Z</time>
      </trkpt>
      <trkpt lat="46.96753" lon="-0.48381">
        <ele>92</ele>
        <time>2012-07-22T08:22:09Z</time>
      </trkpt>
      <trkpt lat="46.96752" lon="-0.48388">
        <ele>92.3</ele>
        <time>2012-07-22T08:22:10Z</time>
      </trkpt>
      <trkpt lat="46.96752" lon="-0.48395">
        <ele>92.4</ele>
        <time>2012-07-22T08:22:11Z</time>
      </trkpt>
      <trkpt lat="46.96751" lon="-0.48402">
        <ele>92.5</ele>
        <time>2012-07-22T08:22:12Z</time>
      </trkpt>
      <trkpt lat="46.96751" lon="-0.48408">
        <ele>92.5</ele>
        <time>2012-07-22T08:22:13Z</time>
      </trkpt>
      <trkpt lat="46.9675" lon="-0.48415">
        <ele>92.9</ele>
        <time>2012-07-22T08:22:14Z</time>
      </trkpt>
      <trkpt lat="46.9675" lon="-0.48423">
        <ele>93</ele>
        <time>2012-07-22T08:22:15Z</time>
      </trkpt>
      <trkpt lat="46.96749" lon="-0.4843">
        <ele>93</ele>
        <time>2012-07-22T08:22:16Z</time>
      </trkpt>
      <trkpt lat="46.96749" lon="-0.48437">
        <ele>93</ele>
        <time>2012-07-22T08:22:17Z</time>
      </trkpt>
      <trkpt lat="46.96748" lon="-0.48444">
        <ele>93.3</ele>
        <time>2012-07-22T08:22:18Z</time>
      </trkpt>
      <trkpt lat="46.96748" lon="-0.48451">
        <ele>93.3</ele>
        <time>2012-07-22T08:22:19Z</time>
      </trkpt>
      <trkpt lat="46.96747" lon="-0.48458">
        <ele>93.4</ele>
        <time>2012-07-22T08:22:20Z</time>
      </trkpt>
      <trkpt lat="46.96746" lon="-0.48471">
        <ele>93.5</ele>
        <time>2012-07-22T08:22:22Z</time>
      </trkpt>
      <trkpt lat="46.96745" lon="-0.48482">
        <ele>93.5</ele>
        <time>2012-07-22T08:22:24Z</time>
      </trkpt>
      <trkpt lat="46.96744" lon="-0.48494">
        <ele>93.5</ele>
        <time>2012-07-22T08:22:27Z</time>
      </trkpt>
      <trkpt lat="46.96741" lon="-0.48503">
        <ele>93.5</ele>
        <time>2012-07-22T08:22:30Z</time>
      </trkpt>
      <trkpt lat="46.96737" lon="-0.48508">
        <ele>93.5</ele>
        <time>2012-07-22T08:22:32Z</time>
      </trkpt>
      <trkpt lat="46.96731" lon="-0.48513">
        <ele>93.8</ele>
        <time>2012-07-22T08:22:34Z</time>
      </trkpt>
      <trkpt lat="46.96728" lon="-0.48524">
        <ele>93.9</ele>
        <time>2012-07-22T08:22:37Z</time>
      </trkpt>
      <trkpt lat="46.96728" lon="-0.48537">
        <ele>94.4</ele>
        <time>2012-07-22T08:22:45Z</time>
      </trkpt>
      <trkpt lat="46.96728" lon="-0.48548">
        <ele>94.5</ele>
        <time>2012-07-22T08:22:51Z</time>
      </trkpt>
      <trkpt lat="46.96723" lon="-0.48537">
        <ele>95</ele>
        <time>2012-07-22T08:22:59Z</time>
      </trkpt>
      <trkpt lat="46.9672" lon="-0.48528">
        <ele>95.3</ele>
        <time>2012-07-22T08:23:03Z</time>
      </trkpt>
      <trkpt lat="46.96713" lon="-0.48528">
        <ele>95.5</ele>
        <time>2012-07-22T08:23:06Z</time>
      </trkpt>
      <trkpt lat="46.96705" lon="-0.48533">
        <ele>96.3</ele>
        <time>2012-07-22T08:23:08Z</time>
      </trkpt>
      <trkpt lat="46.967" lon="-0.48536">
        <ele>96.5</ele>
        <time>2012-07-22T08:23:09Z</time>
      </trkpt>
      <trkpt lat="46.96695" lon="-0.48539">
        <ele>96.5</ele>
        <time>2012-07-22T08:23:10Z</time>
      </trkpt>
      <trkpt lat="46.9669" lon="-0.48543">
        <ele>96.8</ele>
        <time>2012-07-22T08:23:11Z</time>
      </trkpt>
      <trkpt lat="46.96684" lon="-0.48548">
        <ele>96.8</ele>
        <time>2012-07-22T08:23:12Z</time>
      </trkpt>
      <trkpt lat="46.96678" lon="-0.48552">
        <ele>96.8</ele>
        <time>2012-07-22T08:23:13Z</time>
      </trkpt>
      <trkpt lat="46.96672" lon="-0.48556">
        <ele>96.9</ele>
        <time>2012-07-22T08:23:14Z</time>
      </trkpt>
      <trkpt lat="46.96666" lon="-0.4856">
        <ele>97</ele>
        <time>2012-07-22T08:23:15Z</time>
      </trkpt>
      <trkpt lat="46.9666" lon="-0.48565">
        <ele>97</ele>
        <time>2012-07-22T08:23:16Z</time>
      </trkpt>
      <trkpt lat="46.96654" lon="-0.48569">
        <ele>97</ele>
        <time>2012-07-22T08:23:17Z</time>
      </trkpt>
      <trkpt lat="46.96648" lon="-0.48573">
        <ele>97</ele>
        <time>2012-07-22T08:23:18Z</time>
      </trkpt>
      <trkpt lat="46.96642" lon="-0.48577">
        <ele>97.4</ele>
        <time>2012-07-22T08:23:19Z</time>
      </trkpt>
      <trkpt lat="46.96635" lon="-0.48581">
        <ele>97.4</ele>
        <time>2012-07-22T08:23:20Z</time>
      </trkpt>
      <trkpt lat="46.96629" lon="-0.48585">
        <ele>97.5</ele>
        <time>2012-07-22T08:23:21Z</time>
      </trkpt>
      <trkpt lat="46.96623" lon="-0.48589">
        <ele>97.5</ele>
        <time>2012-07-22T08:23:22Z</time>
      </trkpt>
      <trkpt lat="46.96617" lon="-0.48594">
        <ele>97.5</ele>
        <time>2012-07-22T08:23:23Z</time>
      </trkpt>
      <trkpt lat="46.96611" lon="-0.486">
        <ele>97.5</ele>
        <time>2012-07-22T08:23:24Z</time>
      </trkpt>
      <trkpt lat="46.96605" lon="-0.48606">
        <ele>97.4</ele>
        <time>2012-07-22T08:23:25Z</time>
      </trkpt>
      <trkpt lat="46.96598" lon="-0.48612">
        <ele>97.3</ele>
        <time>2012-07-22T08:23:26Z</time>
      </trkpt>
      <trkpt lat="46.96591" lon="-0.48619">
        <ele>97</ele>
        <time>2012-07-22T08:23:27Z</time>
      </trkpt>
      <trkpt lat="46.96584" lon="-0.48626">
        <ele>97</ele>
        <time>2012-07-22T08:23:28Z</time>
      </trkpt>
      <trkpt lat="46.96576" lon="-0.48634">
        <ele>96.8</ele>
        <time>2012-07-22T08:23:29Z</time>
      </trkpt>
      <trkpt lat="46.96568" lon="-0.48642">
        <ele>96.5</ele>
        <time>2012-07-22T08:23:30Z</time>
      </trkpt>
      <trkpt lat="46.96561" lon="-0.4865">
        <ele>96.4</ele>
        <time>2012-07-22T08:23:31Z</time>
      </trkpt>
      <trkpt lat="46.96553" lon="-0.48658">
        <ele>96</ele>
        <time>2012-07-22T08:23:32Z</time>
      </trkpt>
      <trkpt lat="46.96545" lon="-0.48667">
        <ele>96</ele>
        <time>2012-07-22T08:23:33Z</time>
      </trkpt>
      <trkpt lat="46.96538" lon="-0.48675">
        <ele>95.5</ele>
        <time>2012-07-22T08:23:34Z</time>
      </trkpt>
      <trkpt lat="46.9653" lon="-0.48683">
        <ele>95.4</ele>
        <time>2012-07-22T08:23:35Z</time>
      </trkpt>
      <trkpt lat="46.96522" lon="-0.48692">
        <ele>95</ele>
        <time>2012-07-22T08:23:36Z</time>
      </trkpt>
      <trkpt lat="46.96515" lon="-0.487">
        <ele>95</ele>
        <time>2012-07-22T08:23:37Z</time>
      </trkpt>
      <trkpt lat="46.96507" lon="-0.48708">
        <ele>94.9</ele>
        <time>2012-07-22T08:23:38Z</time>
      </trkpt>
      <trkpt lat="46.965" lon="-0.48716">
        <ele>94.8</ele>
        <time>2012-07-22T08:23:39Z</time>
      </trkpt>
      <trkpt lat="46.96492" lon="-0.48723">
        <ele>94.5</ele>
        <time>2012-07-22T08:23:40Z</time>
      </trkpt>
      <trkpt lat="46.96485" lon="-0.4873">
        <ele>94.5</ele>
        <time>2012-07-22T08:23:41Z</time>
      </trkpt>
      <trkpt lat="46.96477" lon="-0.48737">
        <ele>94.5</ele>
        <time>2012-07-22T08:23:42Z</time>
      </trkpt>
      <trkpt lat="46.9647" lon="-0.48744">
        <ele>94.4</ele>
        <time>2012-07-22T08:23:43Z</time>
      </trkpt>
      <trkpt lat="46.96463" lon="-0.48751">
        <ele>94.3</ele>
        <time>2012-07-22T08:23:44Z</time>
      </trkpt>
      <trkpt lat="46.96456" lon="-0.48757">
        <ele>94</ele>
        <time>2012-07-22T08:23:45Z</time>
      </trkpt>
      <trkpt lat="46.96449" lon="-0.48764">
        <ele>94</ele>
        <time>2012-07-22T08:23:46Z</time>
      </trkpt>
      <trkpt lat="46.96442" lon="-0.4877">
        <ele>93.5</ele>
        <time>2012-07-22T08:23:47Z</time>
      </trkpt>
      <trkpt lat="46.96436" lon="-0.48775">
        <ele>93.5</ele>
        <time>2012-07-22T08:23:48Z</time>
      </trkpt>
      <trkpt lat="46.9643" lon="-0.48781">
        <ele>93.3</ele>
        <time>2012-07-22T08:23:49Z</time>
      </trkpt>
      <trkpt lat="46.96424" lon="-0.48787">
        <ele>93</ele>
        <time>2012-07-22T08:23:50Z</time>
      </trkpt>
      <trkpt lat="46.96418" lon="-0.48793">
        <ele>92.9</ele>
        <time>2012-07-22T08:23:51Z</time>
      </trkpt>
      <trkpt lat="46.96412" lon="-0.48798">
        <ele>92.5</ele>
        <time>2012-07-22T08:23:52Z</time>
      </trkpt>
      <trkpt lat="46.96407" lon="-0.48803">
        <ele>92.5</ele>
        <time>2012-07-22T08:23:53Z</time>
      </trkpt>
      <trkpt lat="46.96402" lon="-0.48808">
        <ele>92.5</ele>
        <time>2012-07-22T08:23:54Z</time>
      </trkpt>
      <trkpt lat="46.96397" lon="-0.48813">
        <ele>92.3</ele>
        <time>2012-07-22T08:23:55Z</time>
      </trkpt>
      <trkpt lat="46.96393" lon="-0.48817">
        <ele>92</ele>
        <time>2012-07-22T08:23:56Z</time>
      </trkpt>
      <trkpt lat="46.96388" lon="-0.48822">
        <ele>92</ele>
        <time>2012-07-22T08:23:57Z</time>
      </trkpt>
      <trkpt lat="46.96383" lon="-0.48827">
        <ele>92</ele>
        <time>2012-07-22T08:23:58Z</time>
      </trkpt>
      <trkpt lat="46.96379" lon="-0.48831">
        <ele>91.8</ele>
        <time>2012-07-22T08:23:59Z</time>
      </trkpt>
      <trkpt lat="46.96375" lon="-0.48835">
        <ele>91.5</ele>
        <time>2012-07-22T08:24:00Z</time>
      </trkpt>
      <trkpt lat="46.9637" lon="-0.4884">
        <ele>91.4</ele>
        <time>2012-07-22T08:24:01Z</time>
      </trkpt>
      <trkpt lat="46.96366" lon="-0.48844">
        <ele>91.3</ele>
        <time>2012-07-22T08:24:02Z</time>
      </trkpt>
      <trkpt lat="46.96361" lon="-0.48848">
        <ele>91</ele>
        <time>2012-07-22T08:24:03Z</time>
      </trkpt>
      <trkpt lat="46.96356" lon="-0.48853">
        <ele>91</ele>
        <time>2012-07-22T08:24:04Z</time>
      </trkpt>
      <trkpt lat="46.96352" lon="-0.48857">
        <ele>90.9</ele>
        <time>2012-07-22T08:24:05Z</time>
      </trkpt>
      <trkpt lat="46.96347" lon="-0.48861">
        <ele>90.8</ele>
        <time>2012-07-22T08:24:06Z</time>
      </trkpt>
      <trkpt lat="46.96342" lon="-0.48865">
        <ele>90.5</ele>
        <time>2012-07-22T08:24:07Z</time>
      </trkpt>
      <trkpt lat="46.96338" lon="-0.4887">
        <ele>90.5</ele>
        <time>2012-07-22T08:24:08Z</time>
      </trkpt>
      <trkpt lat="46.96333" lon="-0.48874">
        <ele>90.5</ele>
        <time>2012-07-22T08:24:09Z</time>
      </trkpt>
      <trkpt lat="46.96328" lon="-0.48878">
        <ele>90.4</ele>
        <time>2012-07-22T08:24:10Z</time>
      </trkpt>
      <trkpt lat="46.96324" lon="-0.48883">
        <ele>90.4</ele>
        <time>2012-07-22T08:24:11Z</time>
      </trkpt>
      <trkpt lat="46.96319" lon="-0.48887">
        <ele>90.3</ele>
        <time>2012-07-22T08:24:12Z</time>
      </trkpt>
      <trkpt lat="46.96314" lon="-0.48891">
        <ele>90</ele>
        <time>2012-07-22T08:24:13Z</time>
      </trkpt>
      <trkpt lat="46.96309" lon="-0.48896">
        <ele>90</ele>
        <time>2012-07-22T08:24:14Z</time>
      </trkpt>
      <trkpt lat="46.96304" lon="-0.48901">
        <ele>89.9</ele>
        <time>2012-07-22T08:24:15Z</time>
      </trkpt>
      <trkpt lat="46.96299" lon="-0.48906">
        <ele>89.8</ele>
        <time>2012-07-22T08:24:16Z</time>
      </trkpt>
      <trkpt lat="46.96294" lon="-0.48911">
        <ele>89.8</ele>
        <time>2012-07-22T08:24:17Z</time>
      </trkpt>
      <trkpt lat="46.96289" lon="-0.48916">
        <ele>89.5</ele>
        <time>2012-07-22T08:24:18Z</time>
      </trkpt>
      <trkpt lat="46.96284" lon="-0.4892">
        <ele>89.5</ele>
        <time>2012-07-22T08:24:19Z</time>
      </trkpt>
      <trkpt lat="46.96279" lon="-0.48925">
        <ele>89.5</ele>
        <time>2012-07-22T08:24:20Z</time>
      </trkpt>
      <trkpt lat="46.96274" lon="-0.4893">
        <ele>89.5</ele>
        <time>2012-07-22T08:24:21Z</time>
      </trkpt>
      <trkpt lat="46.96269" lon="-0.48935">
        <ele>89.5</ele>
        <time>2012-07-22T08:24:22Z</time>
      </trkpt>
      <trkpt lat="46.96264" lon="-0.48939">
        <ele>89.5</ele>
        <time>2012-07-22T08:24:23Z</time>
      </trkpt>
      <trkpt lat="46.96259" lon="-0.48944">
        <ele>89.5</ele>
        <time>2012-07-22T08:24:24Z</time>
      </trkpt>
      <trkpt lat="46.96254" lon="-0.48948">
        <ele>89.5</ele>
        <time>2012-07-22T08:24:25Z</time>
      </trkpt>
      <trkpt lat="46.96249" lon="-0.48952">
        <ele>89.5</ele>
        <time>2012-07-22T08:24:26Z</time>
      </trkpt>
      <trkpt lat="46.96244" lon="-0.48957">
        <ele>89.5</ele>
        <time>2012-07-22T08:24:27Z</time>
      </trkpt>
      <trkpt lat="46.96239" lon="-0.48961">
        <ele>89.5</ele>
        <time>2012-07-22T08:24:28Z</time>
      </trkpt>
      <trkpt lat="46.96234" lon="-0.48965">
        <ele>89.4</ele>
        <time>2012-07-22T08:24:29Z</time>
      </trkpt>
      <trkpt lat="46.96229" lon="-0.48969">
        <ele>89.4</ele>
        <time>2012-07-22T08:24:30Z</time>
      </trkpt>
      <trkpt lat="46.96224" lon="-0.48974">
        <ele>89.4</ele>
        <time>2012-07-22T08:24:31Z</time>
      </trkpt>
      <trkpt lat="46.96219" lon="-0.48979">
        <ele>89.5</ele>
        <time>2012-07-22T08:24:32Z</time>
      </trkpt>
      <trkpt lat="46.96214" lon="-0.48984">
        <ele>89.5</ele>
        <time>2012-07-22T08:24:33Z</time>
      </trkpt>
      <trkpt lat="46.96209" lon="-0.48988">
        <ele>89.4</ele>
        <time>2012-07-22T08:24:34Z</time>
      </trkpt>
      <trkpt lat="46.96204" lon="-0.48993">
        <ele>89.3</ele>
        <time>2012-07-22T08:24:35Z</time>
      </trkpt>
      <trkpt lat="46.96199" lon="-0.48997">
        <ele>89</ele>
        <time>2012-07-22T08:24:36Z</time>
      </trkpt>
      <trkpt lat="46.96194" lon="-0.49001">
        <ele>89</ele>
        <time>2012-07-22T08:24:37Z</time>
      </trkpt>
      <trkpt lat="46.96189" lon="-0.49005">
        <ele>89</ele>
        <time>2012-07-22T08:24:38Z</time>
      </trkpt>
      <trkpt lat="46.96184" lon="-0.49008">
        <ele>88.8</ele>
        <time>2012-07-22T08:24:39Z</time>
      </trkpt>
      <trkpt lat="46.96179" lon="-0.49011">
        <ele>88.5</ele>
        <time>2012-07-22T08:24:40Z</time>
      </trkpt>
      <trkpt lat="46.96175" lon="-0.49014">
        <ele>88.5</ele>
        <time>2012-07-22T08:24:41Z</time>
      </trkpt>
      <trkpt lat="46.96171" lon="-0.49017">
        <ele>88.5</ele>
        <time>2012-07-22T08:24:42Z</time>
      </trkpt>
      <trkpt lat="46.96166" lon="-0.49019">
        <ele>88.4</ele>
        <time>2012-07-22T08:24:43Z</time>
      </trkpt>
      <trkpt lat="46.96161" lon="-0.49022">
        <ele>88.3</ele>
        <time>2012-07-22T08:24:44Z</time>
      </trkpt>
      <trkpt lat="46.96156" lon="-0.49024">
        <ele>88.3</ele>
        <time>2012-07-22T08:24:45Z</time>
      </trkpt>
      <trkpt lat="46.9615" lon="-0.49027">
        <ele>88.3</ele>
        <time>2012-07-22T08:24:46Z</time>
      </trkpt>
      <trkpt lat="46.96144" lon="-0.4903">
        <ele>88.3</ele>
        <time>2012-07-22T08:24:47Z</time>
      </trkpt>
      <trkpt lat="46.96139" lon="-0.49033">
        <ele>88.3</ele>
        <time>2012-07-22T08:24:48Z</time>
      </trkpt>
      <trkpt lat="46.96133" lon="-0.49036">
        <ele>88.4</ele>
        <time>2012-07-22T08:24:49Z</time>
      </trkpt>
      <trkpt lat="46.96127" lon="-0.49039">
        <ele>88.4</ele>
        <time>2012-07-22T08:24:50Z</time>
      </trkpt>
      <trkpt lat="46.9612" lon="-0.49042">
        <ele>88.5</ele>
        <time>2012-07-22T08:24:51Z</time>
      </trkpt>
      <trkpt lat="46.96114" lon="-0.49045">
        <ele>88.5</ele>
        <time>2012-07-22T08:24:52Z</time>
      </trkpt>
      <trkpt lat="46.96108" lon="-0.49048">
        <ele>88.5</ele>
        <time>2012-07-22T08:24:53Z</time>
      </trkpt>
      <trkpt lat="46.96103" lon="-0.49051">
        <ele>88.5</ele>
        <time>2012-07-22T08:24:54Z</time>
      </trkpt>
      <trkpt lat="46.96097" lon="-0.49053">
        <ele>88.9</ele>
        <time>2012-07-22T08:24:55Z</time>
      </trkpt>
      <trkpt lat="46.96093" lon="-0.49055">
        <ele>89</ele>
        <time>2012-07-22T08:24:56Z</time>
      </trkpt>
      <trkpt lat="46.96088" lon="-0.49058">
        <ele>89</ele>
        <time>2012-07-22T08:24:57Z</time>
      </trkpt>
      <trkpt lat="46.96083" lon="-0.49061">
        <ele>88.9</ele>
        <time>2012-07-22T08:24:58Z</time>
      </trkpt>
      <trkpt lat="46.96077" lon="-0.49064">
        <ele>88.9</ele>
        <time>2012-07-22T08:24:59Z</time>
      </trkpt>
      <trkpt lat="46.96072" lon="-0.49067">
        <ele>88.8</ele>
        <time>2012-07-22T08:25:00Z</time>
      </trkpt>
      <trkpt lat="46.96066" lon="-0.4907">
        <ele>88.5</ele>
        <time>2012-07-22T08:25:01Z</time>
      </trkpt>
      <trkpt lat="46.96061" lon="-0.49073">
        <ele>88.5</ele>
        <time>2012-07-22T08:25:02Z</time>
      </trkpt>
      <trkpt lat="46.96055" lon="-0.49076">
        <ele>88.5</ele>
        <time>2012-07-22T08:25:03Z</time>
      </trkpt>
      <trkpt lat="46.96049" lon="-0.49079">
        <ele>88.5</ele>
        <time>2012-07-22T08:25:04Z</time>
      </trkpt>
      <trkpt lat="46.96044" lon="-0.49083">
        <ele>88.5</ele>
        <time>2012-07-22T08:25:05Z</time>
      </trkpt>
      <trkpt lat="46.96038" lon="-0.49086">
        <ele>88.5</ele>
        <time>2012-07-22T08:25:06Z</time>
      </trkpt>
      <trkpt lat="46.96033" lon="-0.4909">
        <ele>88.4</ele>
        <time>2012-07-22T08:25:07Z</time>
      </trkpt>
      <trkpt lat="46.96028" lon="-0.49095">
        <ele>88.4</ele>
        <time>2012-07-22T08:25:08Z</time>
      </trkpt>
      <trkpt lat="46.96023" lon="-0.49099">
        <ele>88.3</ele>
        <time>2012-07-22T08:25:09Z</time>
      </trkpt>
      <trkpt lat="46.96018" lon="-0.49103">
        <ele>88</ele>
        <time>2012-07-22T08:25:10Z</time>
      </trkpt>
      <trkpt lat="46.96013" lon="-0.49108">
        <ele>88</ele>
        <time>2012-07-22T08:25:11Z</time>
      </trkpt>
      <trkpt lat="46.96008" lon="-0.49112">
        <ele>88</ele>
        <time>2012-07-22T08:25:12Z</time>
      </trkpt>
      <trkpt lat="46.96003" lon="-0.49117">
        <ele>88</ele>
        <time>2012-07-22T08:25:13Z</time>
      </trkpt>
      <trkpt lat="46.95999" lon="-0.49122">
        <ele>88</ele>
        <time>2012-07-22T08:25:14Z</time>
      </trkpt>
      <trkpt lat="46.95994" lon="-0.49127">
        <ele>88</ele>
        <time>2012-07-22T08:25:15Z</time>
      </trkpt>
      <trkpt lat="46.95989" lon="-0.49132">
        <ele>88</ele>
        <time>2012-07-22T08:25:16Z</time>
      </trkpt>
      <trkpt lat="46.95984" lon="-0.49137">
        <ele>88</ele>
        <time>2012-07-22T08:25:17Z</time>
      </trkpt>
      <trkpt lat="46.95978" lon="-0.49142">
        <ele>88.3</ele>
        <time>2012-07-22T08:25:18Z</time>
      </trkpt>
      <trkpt lat="46.95973" lon="-0.49148">
        <ele>88.3</ele>
        <time>2012-07-22T08:25:19Z</time>
      </trkpt>
      <trkpt lat="46.95967" lon="-0.49153">
        <ele>88.3</ele>
        <time>2012-07-22T08:25:20Z</time>
      </trkpt>
      <trkpt lat="46.95962" lon="-0.49158">
        <ele>88.3</ele>
        <time>2012-07-22T08:25:21Z</time>
      </trkpt>
      <trkpt lat="46.95956" lon="-0.49164">
        <ele>88</ele>
        <time>2012-07-22T08:25:22Z</time>
      </trkpt>
      <trkpt lat="46.95951" lon="-0.49169">
        <ele>88</ele>
        <time>2012-07-22T08:25:23Z</time>
      </trkpt>
      <trkpt lat="46.95946" lon="-0.49173">
        <ele>88</ele>
        <time>2012-07-22T08:25:24Z</time>
      </trkpt>
      <trkpt lat="46.95941" lon="-0.49177">
        <ele>87.9</ele>
        <time>2012-07-22T08:25:25Z</time>
      </trkpt>
      <trkpt lat="46.95936" lon="-0.49181">
        <ele>87.9</ele>
        <time>2012-07-22T08:25:26Z</time>
      </trkpt>
      <trkpt lat="46.95931" lon="-0.49185">
        <ele>87.9</ele>
        <time>2012-07-22T08:25:27Z</time>
      </trkpt>
      <trkpt lat="46.95926" lon="-0.49189">
        <ele>87.9</ele>
        <time>2012-07-22T08:25:28Z</time>
      </trkpt>
      <trkpt lat="46.95921" lon="-0.49194">
        <ele>87.9</ele>
        <time>2012-07-22T08:25:29Z</time>
      </trkpt>
      <trkpt lat="46.95916" lon="-0.49198">
        <ele>87.9</ele>
        <time>2012-07-22T08:25:30Z</time>
      </trkpt>
      <trkpt lat="46.95911" lon="-0.49202">
        <ele>88</ele>
        <time>2012-07-22T08:25:31Z</time>
      </trkpt>
      <trkpt lat="46.95907" lon="-0.49206">
        <ele>88</ele>
        <time>2012-07-22T08:25:32Z</time>
      </trkpt>
      <trkpt lat="46.95902" lon="-0.49209">
        <ele>88</ele>
        <time>2012-07-22T08:25:33Z</time>
      </trkpt>
      <trkpt lat="46.95897" lon="-0.49213">
        <ele>88</ele>
        <time>2012-07-22T08:25:34Z</time>
      </trkpt>
      <trkpt lat="46.95893" lon="-0.49217">
        <ele>87.9</ele>
        <time>2012-07-22T08:25:35Z</time>
      </trkpt>
      <trkpt lat="46.95889" lon="-0.4922">
        <ele>87.9</ele>
        <time>2012-07-22T08:25:36Z</time>
      </trkpt>
      <trkpt lat="46.95884" lon="-0.49224">
        <ele>87.9</ele>
        <time>2012-07-22T08:25:37Z</time>
      </trkpt>
      <trkpt lat="46.9588" lon="-0.49228">
        <ele>88</ele>
        <time>2012-07-22T08:25:38Z</time>
      </trkpt>
      <trkpt lat="46.95876" lon="-0.49232">
        <ele>88</ele>
        <time>2012-07-22T08:25:39Z</time>
      </trkpt>
      <trkpt lat="46.95871" lon="-0.49235">
        <ele>88</ele>
        <time>2012-07-22T08:25:40Z</time>
      </trkpt>
      <trkpt lat="46.95866" lon="-0.49239">
        <ele>88</ele>
        <time>2012-07-22T08:25:41Z</time>
      </trkpt>
      <trkpt lat="46.95862" lon="-0.49242">
        <ele>88</ele>
        <time>2012-07-22T08:25:42Z</time>
      </trkpt>
      <trkpt lat="46.95857" lon="-0.49245">
        <ele>88</ele>
        <time>2012-07-22T08:25:43Z</time>
      </trkpt>
      <trkpt lat="46.95853" lon="-0.49249">
        <ele>88</ele>
        <time>2012-07-22T08:25:44Z</time>
      </trkpt>
      <trkpt lat="46.95849" lon="-0.49252">
        <ele>88.3</ele>
        <time>2012-07-22T08:25:45Z</time>
      </trkpt>
      <trkpt lat="46.95845" lon="-0.49256">
        <ele>88.5</ele>
        <time>2012-07-22T08:25:46Z</time>
      </trkpt>
      <trkpt lat="46.95841" lon="-0.4926">
        <ele>88.5</ele>
        <time>2012-07-22T08:25:47Z</time>
      </trkpt>
      <trkpt lat="46.95837" lon="-0.49264">
        <ele>88.8</ele>
        <time>2012-07-22T08:25:48Z</time>
      </trkpt>
      <trkpt lat="46.95833" lon="-0.49268">
        <ele>88.9</ele>
        <time>2012-07-22T08:25:49Z</time>
      </trkpt>
      <trkpt lat="46.95829" lon="-0.49272">
        <ele>89</ele>
        <time>2012-07-22T08:25:50Z</time>
      </trkpt>
      <trkpt lat="46.95826" lon="-0.49277">
        <ele>89</ele>
        <time>2012-07-22T08:25:51Z</time>
      </trkpt>
      <trkpt lat="46.95822" lon="-0.49281">
        <ele>89.4</ele>
        <time>2012-07-22T08:25:52Z</time>
      </trkpt>
      <trkpt lat="46.95818" lon="-0.49286">
        <ele>89.5</ele>
        <time>2012-07-22T08:25:53Z</time>
      </trkpt>
      <trkpt lat="46.95814" lon="-0.49291">
        <ele>89.5</ele>
        <time>2012-07-22T08:25:54Z</time>
      </trkpt>
      <trkpt lat="46.95809" lon="-0.49297">
        <ele>89.5</ele>
        <time>2012-07-22T08:25:55Z</time>
      </trkpt>
      <trkpt lat="46.95805" lon="-0.49303">
        <ele>89.5</ele>
        <time>2012-07-22T08:25:56Z</time>
      </trkpt>
      <trkpt lat="46.95801" lon="-0.49309">
        <ele>89.5</ele>
        <time>2012-07-22T08:25:57Z</time>
      </trkpt>
      <trkpt lat="46.95796" lon="-0.49314">
        <ele>89.8</ele>
        <time>2012-07-22T08:25:58Z</time>
      </trkpt>
      <trkpt lat="46.95793" lon="-0.4932">
        <ele>89.8</ele>
        <time>2012-07-22T08:25:59Z</time>
      </trkpt>
      <trkpt lat="46.95789" lon="-0.49325">
        <ele>89.9</ele>
        <time>2012-07-22T08:26:00Z</time>
      </trkpt>
      <trkpt lat="46.95785" lon="-0.4933">
        <ele>90</ele>
        <time>2012-07-22T08:26:01Z</time>
      </trkpt>
      <trkpt lat="46.95782" lon="-0.49336">
        <ele>90</ele>
        <time>2012-07-22T08:26:02Z</time>
      </trkpt>
      <trkpt lat="46.95778" lon="-0.49341">
        <ele>90</ele>
        <time>2012-07-22T08:26:03Z</time>
      </trkpt>
      <trkpt lat="46.95775" lon="-0.49346">
        <ele>90</ele>
        <time>2012-07-22T08:26:04Z</time>
      </trkpt>
      <trkpt lat="46.95771" lon="-0.49351">
        <ele>90</ele>
        <time>2012-07-22T08:26:05Z</time>
      </trkpt>
      <trkpt lat="46.95768" lon="-0.49356">
        <ele>90</ele>
        <time>2012-07-22T08:26:06Z</time>
      </trkpt>
      <trkpt lat="46.95764" lon="-0.49361">
        <ele>90</ele>
        <time>2012-07-22T08:26:07Z</time>
      </trkpt>
      <trkpt lat="46.95761" lon="-0.49367">
        <ele>90</ele>
        <time>2012-07-22T08:26:08Z</time>
      </trkpt>
      <trkpt lat="46.95758" lon="-0.49372">
        <ele>90.3</ele>
        <time>2012-07-22T08:26:09Z</time>
      </trkpt>
      <trkpt lat="46.95754" lon="-0.49378">
        <ele>90.4</ele>
        <time>2012-07-22T08:26:10Z</time>
      </trkpt>
      <trkpt lat="46.95751" lon="-0.49384">
        <ele>90.5</ele>
        <time>2012-07-22T08:26:11Z</time>
      </trkpt>
      <trkpt lat="46.95747" lon="-0.4939">
        <ele>90.5</ele>
        <time>2012-07-22T08:26:12Z</time>
      </trkpt>
      <trkpt lat="46.95744" lon="-0.49396">
        <ele>90.8</ele>
        <time>2012-07-22T08:26:13Z</time>
      </trkpt>
      <trkpt lat="46.95741" lon="-0.49402">
        <ele>90.9</ele>
        <time>2012-07-22T08:26:14Z</time>
      </trkpt>
      <trkpt lat="46.95738" lon="-0.49408">
        <ele>91</ele>
        <time>2012-07-22T08:26:15Z</time>
      </trkpt>
      <trkpt lat="46.95734" lon="-0.49414">
        <ele>91</ele>
        <time>2012-07-22T08:26:16Z</time>
      </trkpt>
      <trkpt lat="46.9573" lon="-0.4942">
        <ele>91</ele>
        <time>2012-07-22T08:26:17Z</time>
      </trkpt>
      <trkpt lat="46.95726" lon="-0.49427">
        <ele>91.4</ele>
        <time>2012-07-22T08:26:18Z</time>
      </trkpt>
      <trkpt lat="46.95722" lon="-0.49433">
        <ele>91.5</ele>
        <time>2012-07-22T08:26:19Z</time>
      </trkpt>
      <trkpt lat="46.95718" lon="-0.4944">
        <ele>91.5</ele>
        <time>2012-07-22T08:26:20Z</time>
      </trkpt>
      <trkpt lat="46.95713" lon="-0.49446">
        <ele>91.5</ele>
        <time>2012-07-22T08:26:21Z</time>
      </trkpt>
      <trkpt lat="46.95709" lon="-0.49452">
        <ele>91.8</ele>
        <time>2012-07-22T08:26:22Z</time>
      </trkpt>
      <trkpt lat="46.95704" lon="-0.49458">
        <ele>91.8</ele>
        <time>2012-07-22T08:26:23Z</time>
      </trkpt>
      <trkpt lat="46.95699" lon="-0.49464">
        <ele>91.8</ele>
        <time>2012-07-22T08:26:24Z</time>
      </trkpt>
      <trkpt lat="46.95694" lon="-0.4947">
        <ele>91.9</ele>
        <time>2012-07-22T08:26:25Z</time>
      </trkpt>
      <trkpt lat="46.95689" lon="-0.49476">
        <ele>91.9</ele>
        <time>2012-07-22T08:26:26Z</time>
      </trkpt>
      <trkpt lat="46.95683" lon="-0.49482">
        <ele>91.9</ele>
        <time>2012-07-22T08:26:27Z</time>
      </trkpt>
      <trkpt lat="46.95678" lon="-0.49488">
        <ele>92</ele>
        <time>2012-07-22T08:26:28Z</time>
      </trkpt>
      <trkpt lat="46.95672" lon="-0.49494">
        <ele>91.9</ele>
        <time>2012-07-22T08:26:29Z</time>
      </trkpt>
      <trkpt lat="46.95667" lon="-0.495">
        <ele>91.9</ele>
        <time>2012-07-22T08:26:30Z</time>
      </trkpt>
      <trkpt lat="46.95661" lon="-0.49506">
        <ele>91.8</ele>
        <time>2012-07-22T08:26:31Z</time>
      </trkpt>
      <trkpt lat="46.95655" lon="-0.49512">
        <ele>91.5</ele>
        <time>2012-07-22T08:26:32Z</time>
      </trkpt>
      <trkpt lat="46.9565" lon="-0.49519">
        <ele>91.5</ele>
        <time>2012-07-22T08:26:33Z</time>
      </trkpt>
      <trkpt lat="46.95644" lon="-0.49525">
        <ele>91.4</ele>
        <time>2012-07-22T08:26:34Z</time>
      </trkpt>
      <trkpt lat="46.95638" lon="-0.49532">
        <ele>91</ele>
        <time>2012-07-22T08:26:35Z</time>
      </trkpt>
      <trkpt lat="46.95632" lon="-0.49539">
        <ele>91</ele>
        <time>2012-07-22T08:26:36Z</time>
      </trkpt>
      <trkpt lat="46.95626" lon="-0.49547">
        <ele>91</ele>
        <time>2012-07-22T08:26:37Z</time>
      </trkpt>
      <trkpt lat="46.95621" lon="-0.49555">
        <ele>90.9</ele>
        <time>2012-07-22T08:26:38Z</time>
      </trkpt>
      <trkpt lat="46.95616" lon="-0.49564">
        <ele>90.8</ele>
        <time>2012-07-22T08:26:39Z</time>
      </trkpt>
      <trkpt lat="46.95611" lon="-0.49573">
        <ele>90.5</ele>
        <time>2012-07-22T08:26:40Z</time>
      </trkpt>
      <trkpt lat="46.95607" lon="-0.49582">
        <ele>90.5</ele>
        <time>2012-07-22T08:26:41Z</time>
      </trkpt>
      <trkpt lat="46.95603" lon="-0.4959">
        <ele>90.5</ele>
        <time>2012-07-22T08:26:42Z</time>
      </trkpt>
      <trkpt lat="46.95599" lon="-0.49599">
        <ele>90.4</ele>
        <time>2012-07-22T08:26:43Z</time>
      </trkpt>
      <trkpt lat="46.95595" lon="-0.49608">
        <ele>90.3</ele>
        <time>2012-07-22T08:26:44Z</time>
      </trkpt>
      <trkpt lat="46.95591" lon="-0.49617">
        <ele>90</ele>
        <time>2012-07-22T08:26:45Z</time>
      </trkpt>
      <trkpt lat="46.95588" lon="-0.49625">
        <ele>90</ele>
        <time>2012-07-22T08:26:46Z</time>
      </trkpt>
      <trkpt lat="46.95584" lon="-0.49633">
        <ele>90</ele>
        <time>2012-07-22T08:26:47Z</time>
      </trkpt>
      <trkpt lat="46.9558" lon="-0.49641">
        <ele>89.9</ele>
        <time>2012-07-22T08:26:48Z</time>
      </trkpt>
      <trkpt lat="46.95577" lon="-0.4965">
        <ele>89.9</ele>
        <time>2012-07-22T08:26:49Z</time>
      </trkpt>
      <trkpt lat="46.95573" lon="-0.49657">
        <ele>89.9</ele>
        <time>2012-07-22T08:26:50Z</time>
      </trkpt>
      <trkpt lat="46.95569" lon="-0.49666">
        <ele>89.9</ele>
        <time>2012-07-22T08:26:51Z</time>
      </trkpt>
      <trkpt lat="46.95565" lon="-0.49674">
        <ele>89.9</ele>
        <time>2012-07-22T08:26:52Z</time>
      </trkpt>
      <trkpt lat="46.95561" lon="-0.49682">
        <ele>89.9</ele>
        <time>2012-07-22T08:26:53Z</time>
      </trkpt>
      <trkpt lat="46.95557" lon="-0.49689">
        <ele>89.9</ele>
        <time>2012-07-22T08:26:54Z</time>
      </trkpt>
      <trkpt lat="46.95553" lon="-0.49697">
        <ele>89.8</ele>
        <time>2012-07-22T08:26:55Z</time>
      </trkpt>
      <trkpt lat="46.95549" lon="-0.49705">
        <ele>89.8</ele>
        <time>2012-07-22T08:26:56Z</time>
      </trkpt>
      <trkpt lat="46.95546" lon="-0.49712">
        <ele>89.5</ele>
        <time>2012-07-22T08:26:57Z</time>
      </trkpt>
      <trkpt lat="46.95542" lon="-0.49719">
        <ele>89.5</ele>
        <time>2012-07-22T08:26:58Z</time>
      </trkpt>
      <trkpt lat="46.95539" lon="-0.49727">
        <ele>89.5</ele>
        <time>2012-07-22T08:26:59Z</time>
      </trkpt>
      <trkpt lat="46.95535" lon="-0.49734">
        <ele>89.5</ele>
        <time>2012-07-22T08:27:00Z</time>
      </trkpt>
      <trkpt lat="46.95531" lon="-0.49742">
        <ele>89.5</ele>
        <time>2012-07-22T08:27:01Z</time>
      </trkpt>
      <trkpt lat="46.95528" lon="-0.49749">
        <ele>89.5</ele>
        <time>2012-07-22T08:27:02Z</time>
      </trkpt>
      <trkpt lat="46.95524" lon="-0.49757">
        <ele>89.5</ele>
        <time>2012-07-22T08:27:03Z</time>
      </trkpt>
      <trkpt lat="46.9552" lon="-0.49765">
        <ele>89.4</ele>
        <time>2012-07-22T08:27:04Z</time>
      </trkpt>
      <trkpt lat="46.95516" lon="-0.49772">
        <ele>89.3</ele>
        <time>2012-07-22T08:27:05Z</time>
      </trkpt>
      <trkpt lat="46.95512" lon="-0.4978">
        <ele>89.3</ele>
        <time>2012-07-22T08:27:06Z</time>
      </trkpt>
      <trkpt lat="46.95508" lon="-0.49788">
        <ele>89</ele>
        <time>2012-07-22T08:27:07Z</time>
      </trkpt>
      <trkpt lat="46.95504" lon="-0.49796">
        <ele>89</ele>
        <time>2012-07-22T08:27:08Z</time>
      </trkpt>
      <trkpt lat="46.955" lon="-0.49803">
        <ele>89.3</ele>
        <time>2012-07-22T08:27:09Z</time>
      </trkpt>
      <trkpt lat="46.95496" lon="-0.49811">
        <ele>89.3</ele>
        <time>2012-07-22T08:27:10Z</time>
      </trkpt>
      <trkpt lat="46.95493" lon="-0.49818">
        <ele>89.3</ele>
        <time>2012-07-22T08:27:11Z</time>
      </trkpt>
      <trkpt lat="46.95489" lon="-0.49824">
        <ele>89.3</ele>
        <time>2012-07-22T08:27:12Z</time>
      </trkpt>
      <trkpt lat="46.95486" lon="-0.4983">
        <ele>89.4</ele>
        <time>2012-07-22T08:27:13Z</time>
      </trkpt>
      <trkpt lat="46.95481" lon="-0.49833">
        <ele>89.4</ele>
        <time>2012-07-22T08:27:14Z</time>
      </trkpt>
      <trkpt lat="46.95476" lon="-0.49833">
        <ele>89.3</ele>
        <time>2012-07-22T08:27:15Z</time>
      </trkpt>
      <trkpt lat="46.95472" lon="-0.49832">
        <ele>89.3</ele>
        <time>2012-07-22T08:27:16Z</time>
      </trkpt>
      <trkpt lat="46.95467" lon="-0.4983">
        <ele>89</ele>
        <time>2012-07-22T08:27:17Z</time>
      </trkpt>
      <trkpt lat="46.95462" lon="-0.49828">
        <ele>89</ele>
        <time>2012-07-22T08:27:18Z</time>
      </trkpt>
      <trkpt lat="46.95456" lon="-0.49827">
        <ele>89</ele>
        <time>2012-07-22T08:27:19Z</time>
      </trkpt>
      <trkpt lat="46.9545" lon="-0.49826">
        <ele>89</ele>
        <time>2012-07-22T08:27:20Z</time>
      </trkpt>
      <trkpt lat="46.95445" lon="-0.49825">
        <ele>89</ele>
        <time>2012-07-22T08:27:21Z</time>
      </trkpt>
      <trkpt lat="46.95439" lon="-0.49825">
        <ele>89</ele>
        <time>2012-07-22T08:27:22Z</time>
      </trkpt>
      <trkpt lat="46.95432" lon="-0.49825">
        <ele>89</ele>
        <time>2012-07-22T08:27:23Z</time>
      </trkpt>
      <trkpt lat="46.95425" lon="-0.49824">
        <ele>89</ele>
        <time>2012-07-22T08:27:24Z</time>
      </trkpt>
      <trkpt lat="46.95419" lon="-0.49824">
        <ele>89</ele>
        <time>2012-07-22T08:27:25Z</time>
      </trkpt>
      <trkpt lat="46.95413" lon="-0.49824">
        <ele>89</ele>
        <time>2012-07-22T08:27:26Z</time>
      </trkpt>
      <trkpt lat="46.95407" lon="-0.49824">
        <ele>89</ele>
        <time>2012-07-22T08:27:27Z</time>
      </trkpt>
      <trkpt lat="46.95401" lon="-0.49823">
        <ele>89</ele>
        <time>2012-07-22T08:27:28Z</time>
      </trkpt>
      <trkpt lat="46.95395" lon="-0.49822">
        <ele>89</ele>
        <time>2012-07-22T08:27:29Z</time>
      </trkpt>
      <trkpt lat="46.95389" lon="-0.4982">
        <ele>88.9</ele>
        <time>2012-07-22T08:27:30Z</time>
      </trkpt>
      <trkpt lat="46.95383" lon="-0.49819">
        <ele>88.8</ele>
        <time>2012-07-22T08:27:31Z</time>
      </trkpt>
      <trkpt lat="46.95377" lon="-0.49817">
        <ele>88.5</ele>
        <time>2012-07-22T08:27:32Z</time>
      </trkpt>
      <trkpt lat="46.95371" lon="-0.49815">
        <ele>88.5</ele>
        <time>2012-07-22T08:27:33Z</time>
      </trkpt>
      <trkpt lat="46.95364" lon="-0.49813">
        <ele>88.4</ele>
        <time>2012-07-22T08:27:34Z</time>
      </trkpt>
      <trkpt lat="46.95358" lon="-0.49811">
        <ele>88</ele>
        <time>2012-07-22T08:27:35Z</time>
      </trkpt>
      <trkpt lat="46.95352" lon="-0.49809">
        <ele>88</ele>
        <time>2012-07-22T08:27:36Z</time>
      </trkpt>
      <trkpt lat="46.95346" lon="-0.49807">
        <ele>87.8</ele>
        <time>2012-07-22T08:27:37Z</time>
      </trkpt>
      <trkpt lat="46.9534" lon="-0.49805">
        <ele>87.5</ele>
        <time>2012-07-22T08:27:38Z</time>
      </trkpt>
      <trkpt lat="46.95334" lon="-0.49803">
        <ele>87.3</ele>
        <time>2012-07-22T08:27:39Z</time>
      </trkpt>
      <trkpt lat="46.95328" lon="-0.49802">
        <ele>87</ele>
        <time>2012-07-22T08:27:40Z</time>
      </trkpt>
      <trkpt lat="46.95322" lon="-0.498">
        <ele>86.8</ele>
        <time>2012-07-22T08:27:41Z</time>
      </trkpt>
      <trkpt lat="46.95316" lon="-0.49799">
        <ele>86.5</ele>
        <time>2012-07-22T08:27:42Z</time>
      </trkpt>
      <trkpt lat="46.95309" lon="-0.49798">
        <ele>86.3</ele>
        <time>2012-07-22T08:27:43Z</time>
      </trkpt>
      <trkpt lat="46.95302" lon="-0.49798">
        <ele>86</ele>
        <time>2012-07-22T08:27:44Z</time>
      </trkpt>
      <trkpt lat="46.95296" lon="-0.49798">
        <ele>85.8</ele>
        <time>2012-07-22T08:27:45Z</time>
      </trkpt>
      <trkpt lat="46.95289" lon="-0.498">
        <ele>85.5</ele>
        <time>2012-07-22T08:27:46Z</time>
      </trkpt>
      <trkpt lat="46.95282" lon="-0.49802">
        <ele>85.5</ele>
        <time>2012-07-22T08:27:47Z</time>
      </trkpt>
      <trkpt lat="46.95276" lon="-0.49805">
        <ele>85.4</ele>
        <time>2012-07-22T08:27:48Z</time>
      </trkpt>
      <trkpt lat="46.95269" lon="-0.49808">
        <ele>85.4</ele>
        <time>2012-07-22T08:27:49Z</time>
      </trkpt>
      <trkpt lat="46.95262" lon="-0.49812">
        <ele>85.3</ele>
        <time>2012-07-22T08:27:50Z</time>
      </trkpt>
      <trkpt lat="46.95256" lon="-0.49816">
        <ele>85</ele>
        <time>2012-07-22T08:27:51Z</time>
      </trkpt>
      <trkpt lat="46.95249" lon="-0.49821">
        <ele>85</ele>
        <time>2012-07-22T08:27:52Z</time>
      </trkpt>
      <trkpt lat="46.95243" lon="-0.49826">
        <ele>85</ele>
        <time>2012-07-22T08:27:53Z</time>
      </trkpt>
      <trkpt lat="46.95238" lon="-0.49831">
        <ele>85</ele>
        <time>2012-07-22T08:27:54Z</time>
      </trkpt>
      <trkpt lat="46.95232" lon="-0.49837">
        <ele>85</ele>
        <time>2012-07-22T08:27:55Z</time>
      </trkpt>
      <trkpt lat="46.95227" lon="-0.49843">
        <ele>85</ele>
        <time>2012-07-22T08:27:56Z</time>
      </trkpt>
      <trkpt lat="46.95223" lon="-0.49848">
        <ele>85.3</ele>
        <time>2012-07-22T08:27:57Z</time>
      </trkpt>
      <trkpt lat="46.95219" lon="-0.49853">
        <ele>85.5</ele>
        <time>2012-07-22T08:27:58Z</time>
      </trkpt>
      <trkpt lat="46.95215" lon="-0.49858">
        <ele>85.5</ele>
        <time>2012-07-22T08:27:59Z</time>
      </trkpt>
      <trkpt lat="46.95211" lon="-0.49863">
        <ele>85.8</ele>
        <time>2012-07-22T08:28:00Z</time>
      </trkpt>
      <trkpt lat="46.95207" lon="-0.49868">
        <ele>85.8</ele>
        <time>2012-07-22T08:28:01Z</time>
      </trkpt>
      <trkpt lat="46.95203" lon="-0.49874">
        <ele>86</ele>
        <time>2012-07-22T08:28:02Z</time>
      </trkpt>
      <trkpt lat="46.95198" lon="-0.49879">
        <ele>86</ele>
        <time>2012-07-22T08:28:03Z</time>
      </trkpt>
      <trkpt lat="46.95192" lon="-0.49882">
        <ele>86.3</ele>
        <time>2012-07-22T08:28:04Z</time>
      </trkpt>
      <trkpt lat="46.95186" lon="-0.49884">
        <ele>86.5</ele>
        <time>2012-07-22T08:28:05Z</time>
      </trkpt>
      <trkpt lat="46.95179" lon="-0.49884">
        <ele>86.5</ele>
        <time>2012-07-22T08:28:06Z</time>
      </trkpt>
      <trkpt lat="46.95172" lon="-0.49884">
        <ele>86.9</ele>
        <time>2012-07-22T08:28:07Z</time>
      </trkpt>
      <trkpt lat="46.95165" lon="-0.49884">
        <ele>86.9</ele>
        <time>2012-07-22T08:28:08Z</time>
      </trkpt>
      <trkpt lat="46.95159" lon="-0.49885">
        <ele>86.9</ele>
        <time>2012-07-22T08:28:09Z</time>
      </trkpt>
      <trkpt lat="46.95152" lon="-0.49887">
        <ele>87</ele>
        <time>2012-07-22T08:28:10Z</time>
      </trkpt>
      <trkpt lat="46.95146" lon="-0.4989">
        <ele>87</ele>
        <time>2012-07-22T08:28:11Z</time>
      </trkpt>
      <trkpt lat="46.9514" lon="-0.49894">
        <ele>87</ele>
        <time>2012-07-22T08:28:12Z</time>
      </trkpt>
      <trkpt lat="46.95134" lon="-0.49898">
        <ele>87.3</ele>
        <time>2012-07-22T08:28:13Z</time>
      </trkpt>
      <trkpt lat="46.95127" lon="-0.49901">
        <ele>87.4</ele>
        <time>2012-07-22T08:28:14Z</time>
      </trkpt>
      <trkpt lat="46.9512" lon="-0.49905">
        <ele>87.5</ele>
        <time>2012-07-22T08:28:15Z</time>
      </trkpt>
      <trkpt lat="46.95115" lon="-0.49908">
        <ele>87.5</ele>
        <time>2012-07-22T08:28:16Z</time>
      </trkpt>
      <trkpt lat="46.95109" lon="-0.49911">
        <ele>87.8</ele>
        <time>2012-07-22T08:28:17Z</time>
      </trkpt>
      <trkpt lat="46.95103" lon="-0.49914">
        <ele>87.8</ele>
        <time>2012-07-22T08:28:18Z</time>
      </trkpt>
      <trkpt lat="46.95097" lon="-0.49917">
        <ele>87.9</ele>
        <time>2012-07-22T08:28:19Z</time>
      </trkpt>
      <trkpt lat="46.95091" lon="-0.49919">
        <ele>88</ele>
        <time>2012-07-22T08:28:20Z</time>
      </trkpt>
      <trkpt lat="46.95085" lon="-0.49921">
        <ele>88</ele>
        <time>2012-07-22T08:28:21Z</time>
      </trkpt>
      <trkpt lat="46.95079" lon="-0.49923">
        <ele>88</ele>
        <time>2012-07-22T08:28:22Z</time>
      </trkpt>
      <trkpt lat="46.95072" lon="-0.49925">
        <ele>88.3</ele>
        <time>2012-07-22T08:28:23Z</time>
      </trkpt>
      <trkpt lat="46.95066" lon="-0.49927">
        <ele>88.4</ele>
        <time>2012-07-22T08:28:24Z</time>
      </trkpt>
      <trkpt lat="46.9506" lon="-0.49928">
        <ele>88.5</ele>
        <time>2012-07-22T08:28:25Z</time>
      </trkpt>
      <trkpt lat="46.95054" lon="-0.4993">
        <ele>88.5</ele>
        <time>2012-07-22T08:28:26Z</time>
      </trkpt>
      <trkpt lat="46.95048" lon="-0.49931">
        <ele>88.5</ele>
        <time>2012-07-22T08:28:27Z</time>
      </trkpt>
      <trkpt lat="46.95041" lon="-0.49933">
        <ele>88.8</ele>
        <time>2012-07-22T08:28:28Z</time>
      </trkpt>
      <trkpt lat="46.95035" lon="-0.49934">
        <ele>88.9</ele>
        <time>2012-07-22T08:28:29Z</time>
      </trkpt>
      <trkpt lat="46.95029" lon="-0.49935">
        <ele>89</ele>
        <time>2012-07-22T08:28:30Z</time>
      </trkpt>
      <trkpt lat="46.95023" lon="-0.49936">
        <ele>89</ele>
        <time>2012-07-22T08:28:31Z</time>
      </trkpt>
      <trkpt lat="46.95017" lon="-0.49937">
        <ele>89.3</ele>
        <time>2012-07-22T08:28:32Z</time>
      </trkpt>
      <trkpt lat="46.95011" lon="-0.49938">
        <ele>89.3</ele>
        <time>2012-07-22T08:28:33Z</time>
      </trkpt>
      <trkpt lat="46.95005" lon="-0.49939">
        <ele>89.4</ele>
        <time>2012-07-22T08:28:34Z</time>
      </trkpt>
      <trkpt lat="46.94998" lon="-0.49942">
        <ele>89.4</ele>
        <time>2012-07-22T08:28:35Z</time>
      </trkpt>
      <trkpt lat="46.94992" lon="-0.49944">
        <ele>89.4</ele>
        <time>2012-07-22T08:28:36Z</time>
      </trkpt>
      <trkpt lat="46.94987" lon="-0.49947">
        <ele>89.4</ele>
        <time>2012-07-22T08:28:37Z</time>
      </trkpt>
      <trkpt lat="46.94981" lon="-0.49951">
        <ele>89.3</ele>
        <time>2012-07-22T08:28:38Z</time>
      </trkpt>
      <trkpt lat="46.94976" lon="-0.49956">
        <ele>89.3</ele>
        <time>2012-07-22T08:28:39Z</time>
      </trkpt>
      <trkpt lat="46.9497" lon="-0.49961">
        <ele>89</ele>
        <time>2012-07-22T08:28:40Z</time>
      </trkpt>
      <trkpt lat="46.94966" lon="-0.49966">
        <ele>89</ele>
        <time>2012-07-22T08:28:41Z</time>
      </trkpt>
      <trkpt lat="46.94961" lon="-0.4997">
        <ele>89</ele>
        <time>2012-07-22T08:28:42Z</time>
      </trkpt>
      <trkpt lat="46.94955" lon="-0.49973">
        <ele>89.3</ele>
        <time>2012-07-22T08:28:43Z</time>
      </trkpt>
      <trkpt lat="46.94951" lon="-0.49977">
        <ele>89</ele>
        <time>2012-07-22T08:28:44Z</time>
      </trkpt>
      <trkpt lat="46.94946" lon="-0.4998">
        <ele>89</ele>
        <time>2012-07-22T08:28:45Z</time>
      </trkpt>
      <trkpt lat="46.94942" lon="-0.49983">
        <ele>89</ele>
        <time>2012-07-22T08:28:46Z</time>
      </trkpt>
      <trkpt lat="46.94938" lon="-0.49987">
        <ele>89</ele>
        <time>2012-07-22T08:28:47Z</time>
      </trkpt>
      <trkpt lat="46.94934" lon="-0.49991">
        <ele>89</ele>
        <time>2012-07-22T08:28:48Z</time>
      </trkpt>
      <trkpt lat="46.94929" lon="-0.49995">
        <ele>89</ele>
        <time>2012-07-22T08:28:49Z</time>
      </trkpt>
      <trkpt lat="46.94925" lon="-0.49998">
        <ele>89</ele>
        <time>2012-07-22T08:28:50Z</time>
      </trkpt>
      <trkpt lat="46.94921" lon="-0.50001">
        <ele>89</ele>
        <time>2012-07-22T08:28:51Z</time>
      </trkpt>
      <trkpt lat="46.94917" lon="-0.50005">
        <ele>89</ele>
        <time>2012-07-22T08:28:52Z</time>
      </trkpt>
      <trkpt lat="46.94913" lon="-0.50008">
        <ele>89</ele>
        <time>2012-07-22T08:28:53Z</time>
      </trkpt>
      <trkpt lat="46.94909" lon="-0.50011">
        <ele>89.3</ele>
        <time>2012-07-22T08:28:54Z</time>
      </trkpt>
      <trkpt lat="46.94905" lon="-0.50015">
        <ele>89.4</ele>
        <time>2012-07-22T08:28:55Z</time>
      </trkpt>
      <trkpt lat="46.94897" lon="-0.50021">
        <ele>89.5</ele>
        <time>2012-07-22T08:28:57Z</time>
      </trkpt>
      <trkpt lat="46.9489" lon="-0.50027">
        <ele>89.9</ele>
        <time>2012-07-22T08:28:59Z</time>
      </trkpt>
      <trkpt lat="46.94883" lon="-0.50033">
        <ele>90</ele>
        <time>2012-07-22T08:29:01Z</time>
      </trkpt>
      <trkpt lat="46.94877" lon="-0.50039">
        <ele>90.4</ele>
        <time>2012-07-22T08:29:03Z</time>
      </trkpt>
      <trkpt lat="46.9487" lon="-0.50047">
        <ele>90.5</ele>
        <time>2012-07-22T08:29:05Z</time>
      </trkpt>
      <trkpt lat="46.94863" lon="-0.50055">
        <ele>91</ele>
        <time>2012-07-22T08:29:07Z</time>
      </trkpt>
      <trkpt lat="46.9486" lon="-0.50059">
        <ele>91</ele>
        <time>2012-07-22T08:29:08Z</time>
      </trkpt>
      <trkpt lat="46.94856" lon="-0.50064">
        <ele>91.3</ele>
        <time>2012-07-22T08:29:09Z</time>
      </trkpt>
      <trkpt lat="46.9485" lon="-0.50072">
        <ele>91.5</ele>
        <time>2012-07-22T08:29:11Z</time>
      </trkpt>
      <trkpt lat="46.94844" lon="-0.5008">
        <ele>91.9</ele>
        <time>2012-07-22T08:29:13Z</time>
      </trkpt>
      <trkpt lat="46.9484" lon="-0.50084">
        <ele>92</ele>
        <time>2012-07-22T08:29:14Z</time>
      </trkpt>
      <trkpt lat="46.94836" lon="-0.50088">
        <ele>92</ele>
        <time>2012-07-22T08:29:15Z</time>
      </trkpt>
      <trkpt lat="46.94832" lon="-0.50093">
        <ele>92.3</ele>
        <time>2012-07-22T08:29:16Z</time>
      </trkpt>
      <trkpt lat="46.94828" lon="-0.50097">
        <ele>92.3</ele>
        <time>2012-07-22T08:29:17Z</time>
      </trkpt>
      <trkpt lat="46.94824" lon="-0.50101">
        <ele>92.3</ele>
        <time>2012-07-22T08:29:18Z</time>
      </trkpt>
      <trkpt lat="46.9482" lon="-0.50105">
        <ele>92.4</ele>
        <time>2012-07-22T08:29:19Z</time>
      </trkpt>
      <trkpt lat="46.94816" lon="-0.50109">
        <ele>92.4</ele>
        <time>2012-07-22T08:29:20Z</time>
      </trkpt>
      <trkpt lat="46.94813" lon="-0.50113">
        <ele>92.5</ele>
        <time>2012-07-22T08:29:21Z</time>
      </trkpt>
      <trkpt lat="46.94809" lon="-0.50117">
        <ele>92.5</ele>
        <time>2012-07-22T08:29:22Z</time>
      </trkpt>
      <trkpt lat="46.94802" lon="-0.50124">
        <ele>92.4</ele>
        <time>2012-07-22T08:29:24Z</time>
      </trkpt>
      <trkpt lat="46.94796" lon="-0.5013">
        <ele>92.4</ele>
        <time>2012-07-22T08:29:26Z</time>
      </trkpt>
      <trkpt lat="46.9479" lon="-0.50137">
        <ele>92.3</ele>
        <time>2012-07-22T08:29:28Z</time>
      </trkpt>
      <trkpt lat="46.94786" lon="-0.5014">
        <ele>92</ele>
        <time>2012-07-22T08:29:29Z</time>
      </trkpt>
      <trkpt lat="46.94778" lon="-0.50148">
        <ele>91.8</ele>
        <time>2012-07-22T08:29:31Z</time>
      </trkpt>
      <trkpt lat="46.94774" lon="-0.50152">
        <ele>91.5</ele>
        <time>2012-07-22T08:29:32Z</time>
      </trkpt>
      <trkpt lat="46.9477" lon="-0.50155">
        <ele>91.5</ele>
        <time>2012-07-22T08:29:33Z</time>
      </trkpt>
      <trkpt lat="46.94766" lon="-0.5016">
        <ele>91.4</ele>
        <time>2012-07-22T08:29:34Z</time>
      </trkpt>
      <trkpt lat="46.94761" lon="-0.50164">
        <ele>91.3</ele>
        <time>2012-07-22T08:29:35Z</time>
      </trkpt>
      <trkpt lat="46.94756" lon="-0.50168">
        <ele>91</ele>
        <time>2012-07-22T08:29:36Z</time>
      </trkpt>
      <trkpt lat="46.94751" lon="-0.50173">
        <ele>90.9</ele>
        <time>2012-07-22T08:29:37Z</time>
      </trkpt>
      <trkpt lat="46.94745" lon="-0.50177">
        <ele>90.8</ele>
        <time>2012-07-22T08:29:38Z</time>
      </trkpt>
      <trkpt lat="46.9474" lon="-0.50181">
        <ele>90.5</ele>
        <time>2012-07-22T08:29:39Z</time>
      </trkpt>
      <trkpt lat="46.94735" lon="-0.50185">
        <ele>90.5</ele>
        <time>2012-07-22T08:29:40Z</time>
      </trkpt>
      <trkpt lat="46.9473" lon="-0.50189">
        <ele>90.3</ele>
        <time>2012-07-22T08:29:41Z</time>
      </trkpt>
      <trkpt lat="46.94725" lon="-0.50194">
        <ele>90</ele>
        <time>2012-07-22T08:29:42Z</time>
      </trkpt>
      <trkpt lat="46.9472" lon="-0.50198">
        <ele>90</ele>
        <time>2012-07-22T08:29:43Z</time>
      </trkpt>
      <trkpt lat="46.94715" lon="-0.50202">
        <ele>89.8</ele>
        <time>2012-07-22T08:29:44Z</time>
      </trkpt>
      <trkpt lat="46.94711" lon="-0.50206">
        <ele>89.8</ele>
        <time>2012-07-22T08:29:45Z</time>
      </trkpt>
      <trkpt lat="46.94703" lon="-0.50213">
        <ele>89.8</ele>
        <time>2012-07-22T08:29:47Z</time>
      </trkpt>
      <trkpt lat="46.94699" lon="-0.50217">
        <ele>89.8</ele>
        <time>2012-07-22T08:29:48Z</time>
      </trkpt>
      <trkpt lat="46.94695" lon="-0.5022">
        <ele>89.5</ele>
        <time>2012-07-22T08:29:49Z</time>
      </trkpt>
      <trkpt lat="46.94689" lon="-0.50229">
        <ele>89.5</ele>
        <time>2012-07-22T08:29:51Z</time>
      </trkpt>
      <trkpt lat="46.94684" lon="-0.50239">
        <ele>89.5</ele>
        <time>2012-07-22T08:29:53Z</time>
      </trkpt>
      <trkpt lat="46.94679" lon="-0.50247">
        <ele>89.5</ele>
        <time>2012-07-22T08:29:55Z</time>
      </trkpt>
      <trkpt lat="46.94675" lon="-0.50256">
        <ele>89.5</ele>
        <time>2012-07-22T08:29:57Z</time>
      </trkpt>
      <trkpt lat="46.94671" lon="-0.50264">
        <ele>89.5</ele>
        <time>2012-07-22T08:29:59Z</time>
      </trkpt>
      <trkpt lat="46.94668" lon="-0.50272">
        <ele>89.5</ele>
        <time>2012-07-22T08:30:01Z</time>
      </trkpt>
      <trkpt lat="46.94664" lon="-0.5028">
        <ele>89.5</ele>
        <time>2012-07-22T08:30:03Z</time>
      </trkpt>
      <trkpt lat="46.9466" lon="-0.50288">
        <ele>89.5</ele>
        <time>2012-07-22T08:30:05Z</time>
      </trkpt>
      <trkpt lat="46.94657" lon="-0.50298">
        <ele>89.5</ele>
        <time>2012-07-22T08:30:08Z</time>
      </trkpt>
      <trkpt lat="46.9465" lon="-0.50304">
        <ele>90</ele>
        <time>2012-07-22T08:30:14Z</time>
      </trkpt>
      <trkpt lat="46.94641" lon="-0.50304">
        <ele>91</ele>
        <time>2012-07-22T08:30:17Z</time>
      </trkpt>
      <trkpt lat="46.94632" lon="-0.50306">
        <ele>91.4</ele>
        <time>2012-07-22T08:30:20Z</time>
      </trkpt>
      <trkpt lat="46.94625" lon="-0.50311">
        <ele>91.8</ele>
        <time>2012-07-22T08:30:26Z</time>
      </trkpt>
      <trkpt lat="46.94622" lon="-0.50299">
        <ele>92</ele>
        <time>2012-07-22T08:30:29Z</time>
      </trkpt>
      <trkpt lat="46.94622" lon="-0.50289">
        <ele>92.4</ele>
        <time>2012-07-22T08:30:32Z</time>
      </trkpt>
      <trkpt lat="46.94623" lon="-0.50286">
        <ele>92.5</ele>
        <time>2012-07-22T08:30:33Z</time>
      </trkpt>
      <trkpt lat="46.94624" lon="-0.50268">
        <ele>93</ele>
        <time>2012-07-22T08:31:23Z</time>
      </trkpt>
      <trkpt lat="46.94624" lon="-0.50257">
        <ele>93</ele>
        <time>2012-07-22T08:31:25Z</time>
      </trkpt>
      <trkpt lat="46.94625" lon="-0.50245">
        <ele>94.4</ele>
        <time>2012-07-22T08:31:27Z</time>
      </trkpt>
      <trkpt lat="46.94626" lon="-0.50238">
        <ele>94.9</ele>
        <time>2012-07-22T08:31:28Z</time>
      </trkpt>
      <trkpt lat="46.94626" lon="-0.50231">
        <ele>95</ele>
        <time>2012-07-22T08:31:29Z</time>
      </trkpt>
      <trkpt lat="46.94627" lon="-0.50223">
        <ele>95.4</ele>
        <time>2012-07-22T08:31:30Z</time>
      </trkpt>
      <trkpt lat="46.94627" lon="-0.50215">
        <ele>95.5</ele>
        <time>2012-07-22T08:31:31Z</time>
      </trkpt>
      <trkpt lat="46.94627" lon="-0.50206">
        <ele>95.5</ele>
        <time>2012-07-22T08:31:32Z</time>
      </trkpt>
      <trkpt lat="46.94628" lon="-0.50197">
        <ele>95.5</ele>
        <time>2012-07-22T08:31:33Z</time>
      </trkpt>
      <trkpt lat="46.94628" lon="-0.50188">
        <ele>95.5</ele>
        <time>2012-07-22T08:31:34Z</time>
      </trkpt>
      <trkpt lat="46.94629" lon="-0.50179">
        <ele>95.8</ele>
        <time>2012-07-22T08:31:35Z</time>
      </trkpt>
      <trkpt lat="46.94629" lon="-0.5017">
        <ele>95.9</ele>
        <time>2012-07-22T08:31:36Z</time>
      </trkpt>
      <trkpt lat="46.94629" lon="-0.50161">
        <ele>96</ele>
        <time>2012-07-22T08:31:37Z</time>
      </trkpt>
      <trkpt lat="46.9463" lon="-0.50153">
        <ele>96</ele>
        <time>2012-07-22T08:31:38Z</time>
      </trkpt>
      <trkpt lat="46.9463" lon="-0.50145">
        <ele>96</ele>
        <time>2012-07-22T08:31:39Z</time>
      </trkpt>
      <trkpt lat="46.9463" lon="-0.50139">
        <ele>96</ele>
        <time>2012-07-22T08:31:40Z</time>
      </trkpt>
      <trkpt lat="46.94631" lon="-0.50125">
        <ele>95.9</ele>
        <time>2012-07-22T08:31:42Z</time>
      </trkpt>
      <trkpt lat="46.94631" lon="-0.50113">
        <ele>95.8</ele>
        <time>2012-07-22T08:31:44Z</time>
      </trkpt>
      <trkpt lat="46.94632" lon="-0.50101">
        <ele>95.5</ele>
        <time>2012-07-22T08:31:46Z</time>
      </trkpt>
      <trkpt lat="46.94633" lon="-0.50089">
        <ele>95.5</ele>
        <time>2012-07-22T08:31:48Z</time>
      </trkpt>
      <trkpt lat="46.94633" lon="-0.50082">
        <ele>95.5</ele>
        <time>2012-07-22T08:31:49Z</time>
      </trkpt>
      <trkpt lat="46.94633" lon="-0.50075">
        <ele>95.5</ele>
        <time>2012-07-22T08:31:50Z</time>
      </trkpt>
      <trkpt lat="46.94634" lon="-0.50068">
        <ele>95.5</ele>
        <time>2012-07-22T08:31:51Z</time>
      </trkpt>
      <trkpt lat="46.94634" lon="-0.50061">
        <ele>95.5</ele>
        <time>2012-07-22T08:31:52Z</time>
      </trkpt>
      <trkpt lat="46.94634" lon="-0.50054">
        <ele>95.5</ele>
        <time>2012-07-22T08:31:53Z</time>
      </trkpt>
      <trkpt lat="46.94634" lon="-0.50047">
        <ele>95.5</ele>
        <time>2012-07-22T08:31:54Z</time>
      </trkpt>
      <trkpt lat="46.94635" lon="-0.50039">
        <ele>95.4</ele>
        <time>2012-07-22T08:31:55Z</time>
      </trkpt>
      <trkpt lat="46.94635" lon="-0.50031">
        <ele>95.4</ele>
        <time>2012-07-22T08:31:56Z</time>
      </trkpt>
      <trkpt lat="46.94634" lon="-0.50024">
        <ele>95.4</ele>
        <time>2012-07-22T08:31:57Z</time>
      </trkpt>
      <trkpt lat="46.9463" lon="-0.50017">
        <ele>95.4</ele>
        <time>2012-07-22T08:31:58Z</time>
      </trkpt>
      <trkpt lat="46.94626" lon="-0.50012">
        <ele>95.4</ele>
        <time>2012-07-22T08:31:59Z</time>
      </trkpt>
      <trkpt lat="46.94621" lon="-0.50007">
        <ele>95.3</ele>
        <time>2012-07-22T08:32:00Z</time>
      </trkpt>
      <trkpt lat="46.94616" lon="-0.50005">
        <ele>95</ele>
        <time>2012-07-22T08:32:01Z</time>
      </trkpt>
      <trkpt lat="46.9461" lon="-0.50003">
        <ele>95</ele>
        <time>2012-07-22T08:32:02Z</time>
      </trkpt>
      <trkpt lat="46.94605" lon="-0.5">
        <ele>95</ele>
        <time>2012-07-22T08:32:03Z</time>
      </trkpt>
      <trkpt lat="46.946" lon="-0.49998">
        <ele>95</ele>
        <time>2012-07-22T08:32:04Z</time>
      </trkpt>
      <trkpt lat="46.94596" lon="-0.49995">
        <ele>94.9</ele>
        <time>2012-07-22T08:32:05Z</time>
      </trkpt>
      <trkpt lat="46.94591" lon="-0.49992">
        <ele>94.8</ele>
        <time>2012-07-22T08:32:06Z</time>
      </trkpt>
      <trkpt lat="46.94587" lon="-0.49987">
        <ele>94.5</ele>
        <time>2012-07-22T08:32:07Z</time>
      </trkpt>
      <trkpt lat="46.94583" lon="-0.49981">
        <ele>94.5</ele>
        <time>2012-07-22T08:32:08Z</time>
      </trkpt>
      <trkpt lat="46.94578" lon="-0.49974">
        <ele>94.3</ele>
        <time>2012-07-22T08:32:09Z</time>
      </trkpt>
      <trkpt lat="46.94574" lon="-0.49968">
        <ele>94</ele>
        <time>2012-07-22T08:32:10Z</time>
      </trkpt>
      <trkpt lat="46.94571" lon="-0.4996">
        <ele>94</ele>
        <time>2012-07-22T08:32:11Z</time>
      </trkpt>
      <trkpt lat="46.94567" lon="-0.49953">
        <ele>94</ele>
        <time>2012-07-22T08:32:12Z</time>
      </trkpt>
      <trkpt lat="46.94564" lon="-0.49945">
        <ele>94</ele>
        <time>2012-07-22T08:32:13Z</time>
      </trkpt>
      <trkpt lat="46.94561" lon="-0.49938">
        <ele>94</ele>
        <time>2012-07-22T08:32:14Z</time>
      </trkpt>
      <trkpt lat="46.94558" lon="-0.49931">
        <ele>94</ele>
        <time>2012-07-22T08:32:15Z</time>
      </trkpt>
      <trkpt lat="46.94555" lon="-0.49924">
        <ele>94</ele>
        <time>2012-07-22T08:32:16Z</time>
      </trkpt>
      <trkpt lat="46.94552" lon="-0.49918">
        <ele>94</ele>
        <time>2012-07-22T08:32:17Z</time>
      </trkpt>
      <trkpt lat="46.94549" lon="-0.49912">
        <ele>94.3</ele>
        <time>2012-07-22T08:32:18Z</time>
      </trkpt>
      <trkpt lat="46.94546" lon="-0.49907">
        <ele>94.4</ele>
        <time>2012-07-22T08:32:19Z</time>
      </trkpt>
      <trkpt lat="46.94543" lon="-0.49902">
        <ele>94.5</ele>
        <time>2012-07-22T08:32:20Z</time>
      </trkpt>
      <trkpt lat="46.94539" lon="-0.49898">
        <ele>94.5</ele>
        <time>2012-07-22T08:32:21Z</time>
      </trkpt>
      <trkpt lat="46.94536" lon="-0.49894">
        <ele>94.5</ele>
        <time>2012-07-22T08:32:22Z</time>
      </trkpt>
      <trkpt lat="46.94532" lon="-0.4989">
        <ele>94.5</ele>
        <time>2012-07-22T08:32:23Z</time>
      </trkpt>
      <trkpt lat="46.94527" lon="-0.49887">
        <ele>94.5</ele>
        <time>2012-07-22T08:32:24Z</time>
      </trkpt>
      <trkpt lat="46.94523" lon="-0.49884">
        <ele>94.5</ele>
        <time>2012-07-22T08:32:25Z</time>
      </trkpt>
      <trkpt lat="46.94518" lon="-0.49881">
        <ele>94.4</ele>
        <time>2012-07-22T08:32:26Z</time>
      </trkpt>
      <trkpt lat="46.94512" lon="-0.4988">
        <ele>94.3</ele>
        <time>2012-07-22T08:32:27Z</time>
      </trkpt>
      <trkpt lat="46.94507" lon="-0.49879">
        <ele>94.3</ele>
        <time>2012-07-22T08:32:28Z</time>
      </trkpt>
      <trkpt lat="46.94501" lon="-0.4988">
        <ele>94.3</ele>
        <time>2012-07-22T08:32:29Z</time>
      </trkpt>
      <trkpt lat="46.94495" lon="-0.49882">
        <ele>94.3</ele>
        <time>2012-07-22T08:32:30Z</time>
      </trkpt>
      <trkpt lat="46.94489" lon="-0.49886">
        <ele>94.3</ele>
        <time>2012-07-22T08:32:31Z</time>
      </trkpt>
      <trkpt lat="46.94484" lon="-0.49889">
        <ele>94.4</ele>
        <time>2012-07-22T08:32:32Z</time>
      </trkpt>
      <trkpt lat="46.94479" lon="-0.49893">
        <ele>94.3</ele>
        <time>2012-07-22T08:32:33Z</time>
      </trkpt>
      <trkpt lat="46.94474" lon="-0.49897">
        <ele>94.3</ele>
        <time>2012-07-22T08:32:34Z</time>
      </trkpt>
      <trkpt lat="46.94469" lon="-0.49901">
        <ele>94</ele>
        <time>2012-07-22T08:32:35Z</time>
      </trkpt>
      <trkpt lat="46.94464" lon="-0.49905">
        <ele>94</ele>
        <time>2012-07-22T08:32:36Z</time>
      </trkpt>
      <trkpt lat="46.94459" lon="-0.49908">
        <ele>94</ele>
        <time>2012-07-22T08:32:37Z</time>
      </trkpt>
      <trkpt lat="46.94454" lon="-0.49911">
        <ele>94</ele>
        <time>2012-07-22T08:32:38Z</time>
      </trkpt>
      <trkpt lat="46.9445" lon="-0.49914">
        <ele>94</ele>
        <time>2012-07-22T08:32:39Z</time>
      </trkpt>
      <trkpt lat="46.94445" lon="-0.49917">
        <ele>94</ele>
        <time>2012-07-22T08:32:40Z</time>
      </trkpt>
      <trkpt lat="46.94441" lon="-0.4992">
        <ele>94</ele>
        <time>2012-07-22T08:32:41Z</time>
      </trkpt>
      <trkpt lat="46.94437" lon="-0.49922">
        <ele>94.3</ele>
        <time>2012-07-22T08:32:42Z</time>
      </trkpt>
      <trkpt lat="46.94428" lon="-0.49926">
        <ele>94</ele>
        <time>2012-07-22T08:32:44Z</time>
      </trkpt>
      <trkpt lat="46.94424" lon="-0.49928">
        <ele>94</ele>
        <time>2012-07-22T08:32:45Z</time>
      </trkpt>
      <trkpt lat="46.9442" lon="-0.4993">
        <ele>94</ele>
        <time>2012-07-22T08:32:46Z</time>
      </trkpt>
      <trkpt lat="46.94415" lon="-0.49933">
        <ele>93.9</ele>
        <time>2012-07-22T08:32:47Z</time>
      </trkpt>
      <trkpt lat="46.9441" lon="-0.49936">
        <ele>93.8</ele>
        <time>2012-07-22T08:32:48Z</time>
      </trkpt>
      <trkpt lat="46.94404" lon="-0.49939">
        <ele>93.5</ele>
        <time>2012-07-22T08:32:49Z</time>
      </trkpt>
      <trkpt lat="46.944" lon="-0.49942">
        <ele>93.5</ele>
        <time>2012-07-22T08:32:50Z</time>
      </trkpt>
      <trkpt lat="46.94395" lon="-0.49945">
        <ele>93.5</ele>
        <time>2012-07-22T08:32:51Z</time>
      </trkpt>
      <trkpt lat="46.9439" lon="-0.49948">
        <ele>93.4</ele>
        <time>2012-07-22T08:32:52Z</time>
      </trkpt>
      <trkpt lat="46.94385" lon="-0.49951">
        <ele>93.3</ele>
        <time>2012-07-22T08:32:53Z</time>
      </trkpt>
      <trkpt lat="46.9438" lon="-0.49954">
        <ele>93</ele>
        <time>2012-07-22T08:32:54Z</time>
      </trkpt>
      <trkpt lat="46.94374" lon="-0.49957">
        <ele>93</ele>
        <time>2012-07-22T08:32:55Z</time>
      </trkpt>
      <trkpt lat="46.94367" lon="-0.49961">
        <ele>92.5</ele>
        <time>2012-07-22T08:32:56Z</time>
      </trkpt>
      <trkpt lat="46.9436" lon="-0.49965">
        <ele>92.3</ele>
        <time>2012-07-22T08:32:57Z</time>
      </trkpt>
      <trkpt lat="46.94354" lon="-0.49968">
        <ele>91.5</ele>
        <time>2012-07-22T08:32:58Z</time>
      </trkpt>
      <trkpt lat="46.94347" lon="-0.4997">
        <ele>91</ele>
        <time>2012-07-22T08:32:59Z</time>
      </trkpt>
      <trkpt lat="46.94342" lon="-0.49968">
        <ele>90.8</ele>
        <time>2012-07-22T08:33:00Z</time>
      </trkpt>
      <trkpt lat="46.94337" lon="-0.49967">
        <ele>90.3</ele>
        <time>2012-07-22T08:33:01Z</time>
      </trkpt>
      <trkpt lat="46.94332" lon="-0.49963">
        <ele>89.8</ele>
        <time>2012-07-22T08:33:02Z</time>
      </trkpt>
      <trkpt lat="46.94328" lon="-0.49959">
        <ele>89.5</ele>
        <time>2012-07-22T08:33:03Z</time>
      </trkpt>
      <trkpt lat="46.94323" lon="-0.49954">
        <ele>89</ele>
        <time>2012-07-22T08:33:04Z</time>
      </trkpt>
      <trkpt lat="46.94319" lon="-0.49949">
        <ele>89</ele>
        <time>2012-07-22T08:33:05Z</time>
      </trkpt>
      <trkpt lat="46.94314" lon="-0.49944">
        <ele>88.9</ele>
        <time>2012-07-22T08:33:06Z</time>
      </trkpt>
      <trkpt lat="46.94309" lon="-0.49939">
        <ele>88.5</ele>
        <time>2012-07-22T08:33:07Z</time>
      </trkpt>
      <trkpt lat="46.94305" lon="-0.49934">
        <ele>88.5</ele>
        <time>2012-07-22T08:33:08Z</time>
      </trkpt>
      <trkpt lat="46.943" lon="-0.49929">
        <ele>88.3</ele>
        <time>2012-07-22T08:33:09Z</time>
      </trkpt>
      <trkpt lat="46.94295" lon="-0.49923">
        <ele>88</ele>
        <time>2012-07-22T08:33:10Z</time>
      </trkpt>
      <trkpt lat="46.94291" lon="-0.49918">
        <ele>88</ele>
        <time>2012-07-22T08:33:11Z</time>
      </trkpt>
      <trkpt lat="46.94286" lon="-0.49912">
        <ele>87.8</ele>
        <time>2012-07-22T08:33:12Z</time>
      </trkpt>
      <trkpt lat="46.94282" lon="-0.49907">
        <ele>87.5</ele>
        <time>2012-07-22T08:33:13Z</time>
      </trkpt>
      <trkpt lat="46.94278" lon="-0.49902">
        <ele>87.4</ele>
        <time>2012-07-22T08:33:14Z</time>
      </trkpt>
      <trkpt lat="46.94274" lon="-0.49897">
        <ele>87</ele>
        <time>2012-07-22T08:33:15Z</time>
      </trkpt>
      <trkpt lat="46.94269" lon="-0.49892">
        <ele>87</ele>
        <time>2012-07-22T08:33:16Z</time>
      </trkpt>
      <trkpt lat="46.94265" lon="-0.49888">
        <ele>86.8</ele>
        <time>2012-07-22T08:33:17Z</time>
      </trkpt>
      <trkpt lat="46.94261" lon="-0.49883">
        <ele>86.5</ele>
        <time>2012-07-22T08:33:18Z</time>
      </trkpt>
      <trkpt lat="46.94257" lon="-0.49879">
        <ele>86.3</ele>
        <time>2012-07-22T08:33:19Z</time>
      </trkpt>
      <trkpt lat="46.94253" lon="-0.49874">
        <ele>86</ele>
        <time>2012-07-22T08:33:20Z</time>
      </trkpt>
      <trkpt lat="46.94249" lon="-0.4987">
        <ele>85.5</ele>
        <time>2012-07-22T08:33:21Z</time>
      </trkpt>
      <trkpt lat="46.94245" lon="-0.49865">
        <ele>85.3</ele>
        <time>2012-07-22T08:33:22Z</time>
      </trkpt>
      <trkpt lat="46.94241" lon="-0.4986">
        <ele>85</ele>
        <time>2012-07-22T08:33:23Z</time>
      </trkpt>
      <trkpt lat="46.94236" lon="-0.49855">
        <ele>84.5</ele>
        <time>2012-07-22T08:33:24Z</time>
      </trkpt>
      <trkpt lat="46.94232" lon="-0.49851">
        <ele>84.5</ele>
        <time>2012-07-22T08:33:25Z</time>
      </trkpt>
      <trkpt lat="46.94227" lon="-0.49848">
        <ele>84.3</ele>
        <time>2012-07-22T08:33:26Z</time>
      </trkpt>
      <trkpt lat="46.94222" lon="-0.49845">
        <ele>84</ele>
        <time>2012-07-22T08:33:27Z</time>
      </trkpt>
      <trkpt lat="46.94217" lon="-0.49844">
        <ele>84</ele>
        <time>2012-07-22T08:33:28Z</time>
      </trkpt>
      <trkpt lat="46.94212" lon="-0.49843">
        <ele>84.5</ele>
        <time>2012-07-22T08:33:29Z</time>
      </trkpt>
      <trkpt lat="46.94206" lon="-0.49843">
        <ele>85</ele>
        <time>2012-07-22T08:33:30Z</time>
      </trkpt>
      <trkpt lat="46.942" lon="-0.49842">
        <ele>86</ele>
        <time>2012-07-22T08:33:31Z</time>
      </trkpt>
      <trkpt lat="46.94194" lon="-0.49842">
        <ele>87</ele>
        <time>2012-07-22T08:33:32Z</time>
      </trkpt>
      <trkpt lat="46.94189" lon="-0.49843">
        <ele>87.5</ele>
        <time>2012-07-22T08:33:33Z</time>
      </trkpt>
      <trkpt lat="46.94183" lon="-0.49844">
        <ele>88.3</ele>
        <time>2012-07-22T08:33:34Z</time>
      </trkpt>
      <trkpt lat="46.94178" lon="-0.49844">
        <ele>88.5</ele>
        <time>2012-07-22T08:33:35Z</time>
      </trkpt>
      <trkpt lat="46.94172" lon="-0.49844">
        <ele>89</ele>
        <time>2012-07-22T08:33:36Z</time>
      </trkpt>
      <trkpt lat="46.94167" lon="-0.49845">
        <ele>89.5</ele>
        <time>2012-07-22T08:33:37Z</time>
      </trkpt>
      <trkpt lat="46.94162" lon="-0.49845">
        <ele>89.8</ele>
        <time>2012-07-22T08:33:38Z</time>
      </trkpt>
      <trkpt lat="46.94158" lon="-0.49845">
        <ele>90</ele>
        <time>2012-07-22T08:33:39Z</time>
      </trkpt>
      <trkpt lat="46.94149" lon="-0.49847">
        <ele>90.5</ele>
        <time>2012-07-22T08:33:41Z</time>
      </trkpt>
      <trkpt lat="46.94142" lon="-0.49849">
        <ele>90.5</ele>
        <time>2012-07-22T08:33:43Z</time>
      </trkpt>
      <trkpt lat="46.94138" lon="-0.49851">
        <ele>91</ele>
        <time>2012-07-22T08:33:44Z</time>
      </trkpt>
      <trkpt lat="46.94133" lon="-0.49853">
        <ele>91.4</ele>
        <time>2012-07-22T08:33:45Z</time>
      </trkpt>
      <trkpt lat="46.94128" lon="-0.49855">
        <ele>92</ele>
        <time>2012-07-22T08:33:46Z</time>
      </trkpt>
      <trkpt lat="46.94123" lon="-0.49857">
        <ele>92.5</ele>
        <time>2012-07-22T08:33:47Z</time>
      </trkpt>
      <trkpt lat="46.94118" lon="-0.4986">
        <ele>93</ele>
        <time>2012-07-22T08:33:48Z</time>
      </trkpt>
      <trkpt lat="46.94113" lon="-0.49862">
        <ele>93.4</ele>
        <time>2012-07-22T08:33:49Z</time>
      </trkpt>
      <trkpt lat="46.94108" lon="-0.49864">
        <ele>93.8</ele>
        <time>2012-07-22T08:33:50Z</time>
      </trkpt>
      <trkpt lat="46.94104" lon="-0.49867">
        <ele>94</ele>
        <time>2012-07-22T08:33:51Z</time>
      </trkpt>
      <trkpt lat="46.941" lon="-0.49869">
        <ele>94.5</ele>
        <time>2012-07-22T08:33:52Z</time>
      </trkpt>
      <trkpt lat="46.94095" lon="-0.49872">
        <ele>95</ele>
        <time>2012-07-22T08:33:53Z</time>
      </trkpt>
      <trkpt lat="46.94091" lon="-0.49874">
        <ele>95.5</ele>
        <time>2012-07-22T08:33:54Z</time>
      </trkpt>
      <trkpt lat="46.94087" lon="-0.49877">
        <ele>95.8</ele>
        <time>2012-07-22T08:33:55Z</time>
      </trkpt>
      <trkpt lat="46.94082" lon="-0.49879">
        <ele>96</ele>
        <time>2012-07-22T08:33:56Z</time>
      </trkpt>
      <trkpt lat="46.94078" lon="-0.49882">
        <ele>96.4</ele>
        <time>2012-07-22T08:33:57Z</time>
      </trkpt>
      <trkpt lat="46.94073" lon="-0.49885">
        <ele>96.5</ele>
        <time>2012-07-22T08:33:58Z</time>
      </trkpt>
      <trkpt lat="46.94065" lon="-0.49889">
        <ele>96.5</ele>
        <time>2012-07-22T08:34:00Z</time>
      </trkpt>
      <trkpt lat="46.94058" lon="-0.49893">
        <ele>96.5</ele>
        <time>2012-07-22T08:34:02Z</time>
      </trkpt>
      <trkpt lat="46.94051" lon="-0.49896">
        <ele>96.4</ele>
        <time>2012-07-22T08:34:04Z</time>
      </trkpt>
      <trkpt lat="46.94044" lon="-0.49899">
        <ele>96</ele>
        <time>2012-07-22T08:34:06Z</time>
      </trkpt>
      <trkpt lat="46.94037" lon="-0.499">
        <ele>96</ele>
        <time>2012-07-22T08:34:08Z</time>
      </trkpt>
      <trkpt lat="46.9403" lon="-0.49902">
        <ele>96</ele>
        <time>2012-07-22T08:34:10Z</time>
      </trkpt>
      <trkpt lat="46.94023" lon="-0.49903">
        <ele>95.9</ele>
        <time>2012-07-22T08:34:12Z</time>
      </trkpt>
      <trkpt lat="46.94015" lon="-0.49903">
        <ele>95.8</ele>
        <time>2012-07-22T08:34:14Z</time>
      </trkpt>
      <trkpt lat="46.94007" lon="-0.49903">
        <ele>95.5</ele>
        <time>2012-07-22T08:34:16Z</time>
      </trkpt>
      <trkpt lat="46.94002" lon="-0.49902">
        <ele>95</ele>
        <time>2012-07-22T08:34:17Z</time>
      </trkpt>
      <trkpt lat="46.93998" lon="-0.49902">
        <ele>94.5</ele>
        <time>2012-07-22T08:34:18Z</time>
      </trkpt>
      <trkpt lat="46.93993" lon="-0.49901">
        <ele>94</ele>
        <time>2012-07-22T08:34:19Z</time>
      </trkpt>
      <trkpt lat="46.93988" lon="-0.499">
        <ele>93.8</ele>
        <time>2012-07-22T08:34:20Z</time>
      </trkpt>
      <trkpt lat="46.93983" lon="-0.499">
        <ele>93.5</ele>
        <time>2012-07-22T08:34:21Z</time>
      </trkpt>
      <trkpt lat="46.93977" lon="-0.49899">
        <ele>93.4</ele>
        <time>2012-07-22T08:34:22Z</time>
      </trkpt>
      <trkpt lat="46.93972" lon="-0.49899">
        <ele>93.3</ele>
        <time>2012-07-22T08:34:23Z</time>
      </trkpt>
      <trkpt lat="46.93966" lon="-0.49898">
        <ele>93.3</ele>
        <time>2012-07-22T08:34:24Z</time>
      </trkpt>
      <trkpt lat="46.9396" lon="-0.49897">
        <ele>93.3</ele>
        <time>2012-07-22T08:34:25Z</time>
      </trkpt>
      <trkpt lat="46.93955" lon="-0.49897">
        <ele>93.3</ele>
        <time>2012-07-22T08:34:26Z</time>
      </trkpt>
      <trkpt lat="46.93949" lon="-0.49896">
        <ele>93</ele>
        <time>2012-07-22T08:34:27Z</time>
      </trkpt>
      <trkpt lat="46.93943" lon="-0.49896">
        <ele>93</ele>
        <time>2012-07-22T08:34:28Z</time>
      </trkpt>
      <trkpt lat="46.93937" lon="-0.49896">
        <ele>93</ele>
        <time>2012-07-22T08:34:29Z</time>
      </trkpt>
      <trkpt lat="46.93931" lon="-0.49895">
        <ele>93</ele>
        <time>2012-07-22T08:34:30Z</time>
      </trkpt>
      <trkpt lat="46.93925" lon="-0.49895">
        <ele>93</ele>
        <time>2012-07-22T08:34:31Z</time>
      </trkpt>
      <trkpt lat="46.93919" lon="-0.49896">
        <ele>93</ele>
        <time>2012-07-22T08:34:32Z</time>
      </trkpt>
      <trkpt lat="46.93913" lon="-0.49896">
        <ele>93.3</ele>
        <time>2012-07-22T08:34:33Z</time>
      </trkpt>
      <trkpt lat="46.93907" lon="-0.49897">
        <ele>93.5</ele>
        <time>2012-07-22T08:34:34Z</time>
      </trkpt>
      <trkpt lat="46.93901" lon="-0.49897">
        <ele>93.9</ele>
        <time>2012-07-22T08:34:35Z</time>
      </trkpt>
      <trkpt lat="46.93894" lon="-0.49897">
        <ele>94</ele>
        <time>2012-07-22T08:34:36Z</time>
      </trkpt>
      <trkpt lat="46.93887" lon="-0.49898">
        <ele>94</ele>
        <time>2012-07-22T08:34:37Z</time>
      </trkpt>
      <trkpt lat="46.93879" lon="-0.49899">
        <ele>94</ele>
        <time>2012-07-22T08:34:38Z</time>
      </trkpt>
      <trkpt lat="46.93872" lon="-0.499">
        <ele>94.3</ele>
        <time>2012-07-22T08:34:39Z</time>
      </trkpt>
      <trkpt lat="46.93864" lon="-0.499">
        <ele>94.3</ele>
        <time>2012-07-22T08:34:40Z</time>
      </trkpt>
      <trkpt lat="46.93856" lon="-0.499">
        <ele>94.4</ele>
        <time>2012-07-22T08:34:41Z</time>
      </trkpt>
      <trkpt lat="46.93849" lon="-0.499">
        <ele>94.5</ele>
        <time>2012-07-22T08:34:42Z</time>
      </trkpt>
      <trkpt lat="46.93842" lon="-0.49898">
        <ele>94.5</ele>
        <time>2012-07-22T08:34:43Z</time>
      </trkpt>
      <trkpt lat="46.93837" lon="-0.49894">
        <ele>94.5</ele>
        <time>2012-07-22T08:34:44Z</time>
      </trkpt>
      <trkpt lat="46.93832" lon="-0.49889">
        <ele>94.5</ele>
        <time>2012-07-22T08:34:45Z</time>
      </trkpt>
      <trkpt lat="46.93829" lon="-0.49884">
        <ele>94.5</ele>
        <time>2012-07-22T08:34:46Z</time>
      </trkpt>
      <trkpt lat="46.93825" lon="-0.49879">
        <ele>94.4</ele>
        <time>2012-07-22T08:34:47Z</time>
      </trkpt>
      <trkpt lat="46.93819" lon="-0.49869">
        <ele>94</ele>
        <time>2012-07-22T08:34:49Z</time>
      </trkpt>
      <trkpt lat="46.93814" lon="-0.49861">
        <ele>93.9</ele>
        <time>2012-07-22T08:34:51Z</time>
      </trkpt>
      <trkpt lat="46.9381" lon="-0.49853">
        <ele>93.9</ele>
        <time>2012-07-22T08:34:53Z</time>
      </trkpt>
      <trkpt lat="46.93805" lon="-0.49843">
        <ele>93.9</ele>
        <time>2012-07-22T08:34:56Z</time>
      </trkpt>
      <trkpt lat="46.93801" lon="-0.49836">
        <ele>93.8</ele>
        <time>2012-07-22T08:34:58Z</time>
      </trkpt>
      <trkpt lat="46.93795" lon="-0.49826">
        <ele>93.9</ele>
        <time>2012-07-22T08:35:01Z</time>
      </trkpt>
      <trkpt lat="46.9379" lon="-0.49818">
        <ele>94</ele>
        <time>2012-07-22T08:35:04Z</time>
      </trkpt>
      <trkpt lat="46.93785" lon="-0.4981">
        <ele>94</ele>
        <time>2012-07-22T08:35:07Z</time>
      </trkpt>
      <trkpt lat="46.93779" lon="-0.49802">
        <ele>94.4</ele>
        <time>2012-07-22T08:35:10Z</time>
      </trkpt>
      <trkpt lat="46.93774" lon="-0.49793">
        <ele>94.5</ele>
        <time>2012-07-22T08:35:13Z</time>
      </trkpt>
      <trkpt lat="46.93768" lon="-0.49783">
        <ele>95</ele>
        <time>2012-07-22T08:35:16Z</time>
      </trkpt>
      <trkpt lat="46.93763" lon="-0.49775">
        <ele>95.4</ele>
        <time>2012-07-22T08:35:19Z</time>
      </trkpt>
      <trkpt lat="46.93757" lon="-0.49767">
        <ele>95.9</ele>
        <time>2012-07-22T08:35:22Z</time>
      </trkpt>
      <trkpt lat="46.93751" lon="-0.49759">
        <ele>96.3</ele>
        <time>2012-07-22T08:35:25Z</time>
      </trkpt>
      <trkpt lat="46.93745" lon="-0.49751">
        <ele>96.8</ele>
        <time>2012-07-22T08:35:28Z</time>
      </trkpt>
      <trkpt lat="46.93738" lon="-0.49744">
        <ele>97.3</ele>
        <time>2012-07-22T08:35:31Z</time>
      </trkpt>
      <trkpt lat="46.93731" lon="-0.49737">
        <ele>97.5</ele>
        <time>2012-07-22T08:35:34Z</time>
      </trkpt>
      <trkpt lat="46.93724" lon="-0.49731">
        <ele>98</ele>
        <time>2012-07-22T08:35:37Z</time>
      </trkpt>
      <trkpt lat="46.93717" lon="-0.49725">
        <ele>98.5</ele>
        <time>2012-07-22T08:35:40Z</time>
      </trkpt>
      <trkpt lat="46.93715" lon="-0.49723">
        <ele>98.8</ele>
        <time>2012-07-22T08:35:41Z</time>
      </trkpt>
      <trkpt lat="46.93704" lon="-0.49713">
        <ele>99.5</ele>
        <time>2012-07-22T08:35:46Z</time>
      </trkpt>
      <trkpt lat="46.93697" lon="-0.49707">
        <ele>100</ele>
        <time>2012-07-22T08:35:49Z</time>
      </trkpt>
      <trkpt lat="46.9369" lon="-0.49701">
        <ele>100.4</ele>
        <time>2012-07-22T08:35:52Z</time>
      </trkpt>
      <trkpt lat="46.93684" lon="-0.49695">
        <ele>100.8</ele>
        <time>2012-07-22T08:35:55Z</time>
      </trkpt>
      <trkpt lat="46.93677" lon="-0.49689">
        <ele>101.3</ele>
        <time>2012-07-22T08:35:58Z</time>
      </trkpt>
      <trkpt lat="46.93671" lon="-0.49683">
        <ele>101.5</ele>
        <time>2012-07-22T08:36:01Z</time>
      </trkpt>
      <trkpt lat="46.93664" lon="-0.49676">
        <ele>102</ele>
        <time>2012-07-22T08:36:04Z</time>
      </trkpt>
      <trkpt lat="46.93657" lon="-0.4967">
        <ele>102.5</ele>
        <time>2012-07-22T08:36:07Z</time>
      </trkpt>
      <trkpt lat="46.93651" lon="-0.49664">
        <ele>103</ele>
        <time>2012-07-22T08:36:09Z</time>
      </trkpt>
      <trkpt lat="46.93646" lon="-0.49658">
        <ele>103.5</ele>
        <time>2012-07-22T08:36:11Z</time>
      </trkpt>
      <trkpt lat="46.9364" lon="-0.49649">
        <ele>104</ele>
        <time>2012-07-22T08:36:14Z</time>
      </trkpt>
      <trkpt lat="46.93634" lon="-0.49642">
        <ele>104.5</ele>
        <time>2012-07-22T08:36:17Z</time>
      </trkpt>
      <trkpt lat="46.93627" lon="-0.49635">
        <ele>105</ele>
        <time>2012-07-22T08:36:20Z</time>
      </trkpt>
      <trkpt lat="46.93622" lon="-0.4963">
        <ele>105.5</ele>
        <time>2012-07-22T08:36:22Z</time>
      </trkpt>
      <trkpt lat="46.93617" lon="-0.49626">
        <ele>105.8</ele>
        <time>2012-07-22T08:36:24Z</time>
      </trkpt>
      <trkpt lat="46.93611" lon="-0.49622">
        <ele>106</ele>
        <time>2012-07-22T08:36:26Z</time>
      </trkpt>
      <trkpt lat="46.93604" lon="-0.49619">
        <ele>106.5</ele>
        <time>2012-07-22T08:36:28Z</time>
      </trkpt>
      <trkpt lat="46.93598" lon="-0.49614">
        <ele>106.8</ele>
        <time>2012-07-22T08:36:30Z</time>
      </trkpt>
      <trkpt lat="46.93591" lon="-0.4961">
        <ele>107</ele>
        <time>2012-07-22T08:36:32Z</time>
      </trkpt>
      <trkpt lat="46.93584" lon="-0.49605">
        <ele>107.5</ele>
        <time>2012-07-22T08:36:34Z</time>
      </trkpt>
      <trkpt lat="46.93577" lon="-0.49601">
        <ele>107.8</ele>
        <time>2012-07-22T08:36:36Z</time>
      </trkpt>
      <trkpt lat="46.9357" lon="-0.49597">
        <ele>109.5</ele>
        <time>2012-07-22T08:36:38Z</time>
      </trkpt>
      <trkpt lat="46.93562" lon="-0.49592">
        <ele>111.8</ele>
        <time>2012-07-22T08:36:40Z</time>
      </trkpt>
      <trkpt lat="46.93555" lon="-0.49587">
        <ele>113.3</ele>
        <time>2012-07-22T08:36:42Z</time>
      </trkpt>
      <trkpt lat="46.93552" lon="-0.49585">
        <ele>113.8</ele>
        <time>2012-07-22T08:36:43Z</time>
      </trkpt>
      <trkpt lat="46.93541" lon="-0.49578">
        <ele>114.5</ele>
        <time>2012-07-22T08:36:46Z</time>
      </trkpt>
      <trkpt lat="46.93534" lon="-0.49573">
        <ele>114.8</ele>
        <time>2012-07-22T08:36:48Z</time>
      </trkpt>
      <trkpt lat="46.93528" lon="-0.49569">
        <ele>114.9</ele>
        <time>2012-07-22T08:36:50Z</time>
      </trkpt>
      <trkpt lat="46.93522" lon="-0.49566">
        <ele>115</ele>
        <time>2012-07-22T08:36:52Z</time>
      </trkpt>
      <trkpt lat="46.93515" lon="-0.49562">
        <ele>115</ele>
        <time>2012-07-22T08:36:54Z</time>
      </trkpt>
      <trkpt lat="46.93509" lon="-0.49558">
        <ele>115</ele>
        <time>2012-07-22T08:36:56Z</time>
      </trkpt>
      <trkpt lat="46.93503" lon="-0.49554">
        <ele>115.4</ele>
        <time>2012-07-22T08:36:58Z</time>
      </trkpt>
      <trkpt lat="46.93497" lon="-0.4955">
        <ele>115.5</ele>
        <time>2012-07-22T08:37:00Z</time>
      </trkpt>
      <trkpt lat="46.93491" lon="-0.49546">
        <ele>115.5</ele>
        <time>2012-07-22T08:37:02Z</time>
      </trkpt>
      <trkpt lat="46.93485" lon="-0.49541">
        <ele>115.5</ele>
        <time>2012-07-22T08:37:04Z</time>
      </trkpt>
      <trkpt lat="46.93478" lon="-0.49534">
        <ele>116.4</ele>
        <time>2012-07-22T08:37:06Z</time>
      </trkpt>
      <trkpt lat="46.93472" lon="-0.49527">
        <ele>117.4</ele>
        <time>2012-07-22T08:37:08Z</time>
      </trkpt>
      <trkpt lat="46.93467" lon="-0.49523">
        <ele>117.4</ele>
        <time>2012-07-22T08:37:46Z</time>
      </trkpt>
      <trkpt lat="46.93463" lon="-0.4952">
        <ele>117.9</ele>
        <time>2012-07-22T08:37:47Z</time>
      </trkpt>
      <trkpt lat="46.93461" lon="-0.49543">
        <ele>120</ele>
        <time>2012-07-22T08:38:00Z</time>
      </trkpt>
      <trkpt lat="46.9346" lon="-0.49556">
        <ele>120.5</ele>
        <time>2012-07-22T08:38:02Z</time>
      </trkpt>
      <trkpt lat="46.93458" lon="-0.49568">
        <ele>120.8</ele>
        <time>2012-07-22T08:38:04Z</time>
      </trkpt>
      <trkpt lat="46.93456" lon="-0.49578">
        <ele>120.9</ele>
        <time>2012-07-22T08:38:06Z</time>
      </trkpt>
      <trkpt lat="46.93454" lon="-0.49591">
        <ele>120.9</ele>
        <time>2012-07-22T08:38:09Z</time>
      </trkpt>
      <trkpt lat="46.93453" lon="-0.496">
        <ele>120.8</ele>
        <time>2012-07-22T08:38:12Z</time>
      </trkpt>
      <trkpt lat="46.93451" lon="-0.49612">
        <ele>120.5</ele>
        <time>2012-07-22T08:38:15Z</time>
      </trkpt>
      <trkpt lat="46.93449" lon="-0.49623">
        <ele>120.5</ele>
        <time>2012-07-22T08:38:18Z</time>
      </trkpt>
      <trkpt lat="46.93451" lon="-0.49634">
        <ele>120.3</ele>
        <time>2012-07-22T08:38:21Z</time>
      </trkpt>
      <trkpt lat="46.9345" lon="-0.49644">
        <ele>120</ele>
        <time>2012-07-22T08:38:23Z</time>
      </trkpt>
      <trkpt lat="46.93447" lon="-0.49655">
        <ele>118.9</ele>
        <time>2012-07-22T08:38:25Z</time>
      </trkpt>
      <trkpt lat="46.93445" lon="-0.49662">
        <ele>117.8</ele>
        <time>2012-07-22T08:38:26Z</time>
      </trkpt>
      <trkpt lat="46.93444" lon="-0.49669">
        <ele>116.5</ele>
        <time>2012-07-22T08:38:27Z</time>
      </trkpt>
      <trkpt lat="46.93442" lon="-0.49677">
        <ele>115.8</ele>
        <time>2012-07-22T08:38:28Z</time>
      </trkpt>
      <trkpt lat="46.93439" lon="-0.49685">
        <ele>115</ele>
        <time>2012-07-22T08:38:29Z</time>
      </trkpt>
      <trkpt lat="46.93437" lon="-0.49693">
        <ele>114.5</ele>
        <time>2012-07-22T08:38:30Z</time>
      </trkpt>
      <trkpt lat="46.93435" lon="-0.49701">
        <ele>114</ele>
        <time>2012-07-22T08:38:31Z</time>
      </trkpt>
      <trkpt lat="46.93432" lon="-0.4971">
        <ele>113.5</ele>
        <time>2012-07-22T08:38:32Z</time>
      </trkpt>
      <trkpt lat="46.9343" lon="-0.49719">
        <ele>113.4</ele>
        <time>2012-07-22T08:38:33Z</time>
      </trkpt>
      <trkpt lat="46.93427" lon="-0.49729">
        <ele>113</ele>
        <time>2012-07-22T08:38:34Z</time>
      </trkpt>
      <trkpt lat="46.93424" lon="-0.49737">
        <ele>112.9</ele>
        <time>2012-07-22T08:38:35Z</time>
      </trkpt>
      <trkpt lat="46.93421" lon="-0.49746">
        <ele>112.5</ele>
        <time>2012-07-22T08:38:36Z</time>
      </trkpt>
      <trkpt lat="46.93419" lon="-0.49755">
        <ele>112.4</ele>
        <time>2012-07-22T08:38:37Z</time>
      </trkpt>
      <trkpt lat="46.93416" lon="-0.49763">
        <ele>112</ele>
        <time>2012-07-22T08:38:38Z</time>
      </trkpt>
      <trkpt lat="46.93413" lon="-0.49772">
        <ele>111.8</ele>
        <time>2012-07-22T08:38:39Z</time>
      </trkpt>
      <trkpt lat="46.9341" lon="-0.4978">
        <ele>111.5</ele>
        <time>2012-07-22T08:38:40Z</time>
      </trkpt>
      <trkpt lat="46.93407" lon="-0.49788">
        <ele>111</ele>
        <time>2012-07-22T08:38:41Z</time>
      </trkpt>
      <trkpt lat="46.93404" lon="-0.49795">
        <ele>110.9</ele>
        <time>2012-07-22T08:38:42Z</time>
      </trkpt>
      <trkpt lat="46.93399" lon="-0.49805">
        <ele>109.8</ele>
        <time>2012-07-22T08:38:44Z</time>
      </trkpt>
      <trkpt lat="46.93393" lon="-0.49815">
        <ele>108.4</ele>
        <time>2012-07-22T08:38:46Z</time>
      </trkpt>
      <trkpt lat="46.93388" lon="-0.49824">
        <ele>107.5</ele>
        <time>2012-07-22T08:38:48Z</time>
      </trkpt>
      <trkpt lat="46.93388" lon="-0.49829">
        <ele>107.5</ele>
        <time>2012-07-22T08:38:49Z</time>
      </trkpt>
      <trkpt lat="46.93384" lon="-0.49848">
        <ele>107</ele>
        <time>2012-07-22T08:38:55Z</time>
      </trkpt>
      <trkpt lat="46.93382" lon="-0.4986">
        <ele>106.8</ele>
        <time>2012-07-22T08:38:59Z</time>
      </trkpt>
      <trkpt lat="46.93379" lon="-0.49871">
        <ele>106.4</ele>
        <time>2012-07-22T08:39:03Z</time>
      </trkpt>
      <trkpt lat="46.93374" lon="-0.49879">
        <ele>106</ele>
        <time>2012-07-22T08:39:06Z</time>
      </trkpt>
      <trkpt lat="46.93367" lon="-0.49888">
        <ele>105.8</ele>
        <time>2012-07-22T08:39:10Z</time>
      </trkpt>
      <trkpt lat="46.93366" lon="-0.49898">
        <ele>105.5</ele>
        <time>2012-07-22T08:39:13Z</time>
      </trkpt>
      <trkpt lat="46.93367" lon="-0.49909">
        <ele>104.4</ele>
        <time>2012-07-22T08:39:15Z</time>
      </trkpt>
      <trkpt lat="46.93369" lon="-0.4992">
        <ele>102.5</ele>
        <time>2012-07-22T08:39:17Z</time>
      </trkpt>
      <trkpt lat="46.93366" lon="-0.49931">
        <ele>102</ele>
        <time>2012-07-22T08:39:19Z</time>
      </trkpt>
      <trkpt lat="46.93363" lon="-0.49938">
        <ele>101.5</ele>
        <time>2012-07-22T08:39:20Z</time>
      </trkpt>
      <trkpt lat="46.9336" lon="-0.49944">
        <ele>101</ele>
        <time>2012-07-22T08:39:21Z</time>
      </trkpt>
      <trkpt lat="46.93357" lon="-0.49952">
        <ele>100.5</ele>
        <time>2012-07-22T08:39:22Z</time>
      </trkpt>
      <trkpt lat="46.93353" lon="-0.49959">
        <ele>100.4</ele>
        <time>2012-07-22T08:39:23Z</time>
      </trkpt>
      <trkpt lat="46.9335" lon="-0.49968">
        <ele>100</ele>
        <time>2012-07-22T08:39:24Z</time>
      </trkpt>
      <trkpt lat="46.93347" lon="-0.49977">
        <ele>99.9</ele>
        <time>2012-07-22T08:39:25Z</time>
      </trkpt>
      <trkpt lat="46.93344" lon="-0.49986">
        <ele>99.8</ele>
        <time>2012-07-22T08:39:26Z</time>
      </trkpt>
      <trkpt lat="46.93342" lon="-0.49996">
        <ele>99.5</ele>
        <time>2012-07-22T08:39:27Z</time>
      </trkpt>
      <trkpt lat="46.9334" lon="-0.50006">
        <ele>99.5</ele>
        <time>2012-07-22T08:39:28Z</time>
      </trkpt>
      <trkpt lat="46.93338" lon="-0.50015">
        <ele>99.5</ele>
        <time>2012-07-22T08:39:29Z</time>
      </trkpt>
      <trkpt lat="46.93337" lon="-0.50024">
        <ele>99.5</ele>
        <time>2012-07-22T08:39:30Z</time>
      </trkpt>
      <trkpt lat="46.93336" lon="-0.50033">
        <ele>99.5</ele>
        <time>2012-07-22T08:39:31Z</time>
      </trkpt>
      <trkpt lat="46.93335" lon="-0.50042">
        <ele>99.5</ele>
        <time>2012-07-22T08:39:32Z</time>
      </trkpt>
      <trkpt lat="46.93334" lon="-0.50051">
        <ele>99.5</ele>
        <time>2012-07-22T08:39:33Z</time>
      </trkpt>
      <trkpt lat="46.93334" lon="-0.5006">
        <ele>99.5</ele>
        <time>2012-07-22T08:39:34Z</time>
      </trkpt>
      <trkpt lat="46.93333" lon="-0.50068">
        <ele>99.5</ele>
        <time>2012-07-22T08:39:35Z</time>
      </trkpt>
      <trkpt lat="46.93333" lon="-0.50076">
        <ele>99.5</ele>
        <time>2012-07-22T08:39:36Z</time>
      </trkpt>
      <trkpt lat="46.93334" lon="-0.50085">
        <ele>99.5</ele>
        <time>2012-07-22T08:39:37Z</time>
      </trkpt>
      <trkpt lat="46.93333" lon="-0.50092">
        <ele>99.5</ele>
        <time>2012-07-22T08:39:38Z</time>
      </trkpt>
      <trkpt lat="46.93333" lon="-0.501">
        <ele>99.5</ele>
        <time>2012-07-22T08:39:39Z</time>
      </trkpt>
      <trkpt lat="46.93334" lon="-0.50112">
        <ele>99.5</ele>
        <time>2012-07-22T08:39:41Z</time>
      </trkpt>
      <trkpt lat="46.93333" lon="-0.50123">
        <ele>99.5</ele>
        <time>2012-07-22T08:39:44Z</time>
      </trkpt>
      <trkpt lat="46.93333" lon="-0.50134">
        <ele>99.5</ele>
        <time>2012-07-22T08:39:56Z</time>
      </trkpt>
      <trkpt lat="46.93333" lon="-0.50139">
        <ele>99.5</ele>
        <time>2012-07-22T08:39:57Z</time>
      </trkpt>
      <trkpt lat="46.9333" lon="-0.50157">
        <ele>99.8</ele>
        <time>2012-07-22T08:40:04Z</time>
      </trkpt>
      <trkpt lat="46.93328" lon="-0.50169">
        <ele>99.9</ele>
        <time>2012-07-22T08:40:08Z</time>
      </trkpt>
      <trkpt lat="46.93327" lon="-0.5018">
        <ele>100</ele>
        <time>2012-07-22T08:40:11Z</time>
      </trkpt>
      <trkpt lat="46.93326" lon="-0.5019">
        <ele>100</ele>
        <time>2012-07-22T08:40:14Z</time>
      </trkpt>
      <trkpt lat="46.93325" lon="-0.50201">
        <ele>100</ele>
        <time>2012-07-22T08:40:17Z</time>
      </trkpt>
      <trkpt lat="46.93324" lon="-0.50211">
        <ele>100</ele>
        <time>2012-07-22T08:40:20Z</time>
      </trkpt>
      <trkpt lat="46.93323" lon="-0.50221">
        <ele>100</ele>
        <time>2012-07-22T08:40:23Z</time>
      </trkpt>
      <trkpt lat="46.93324" lon="-0.50234">
        <ele>100</ele>
        <time>2012-07-22T08:40:27Z</time>
      </trkpt>
      <trkpt lat="46.93325" lon="-0.50246">
        <ele>100</ele>
        <time>2012-07-22T08:40:30Z</time>
      </trkpt>
      <trkpt lat="46.93327" lon="-0.50256">
        <ele>100.3</ele>
        <time>2012-07-22T08:40:33Z</time>
      </trkpt>
      <trkpt lat="46.93331" lon="-0.50267">
        <ele>100.4</ele>
        <time>2012-07-22T08:40:36Z</time>
      </trkpt>
      <trkpt lat="46.93332" lon="-0.50276">
        <ele>100.5</ele>
        <time>2012-07-22T08:40:38Z</time>
      </trkpt>
      <trkpt lat="46.93333" lon="-0.50285">
        <ele>100.5</ele>
        <time>2012-07-22T08:40:40Z</time>
      </trkpt>
      <trkpt lat="46.93333" lon="-0.50298">
        <ele>100.8</ele>
        <time>2012-07-22T08:40:43Z</time>
      </trkpt>
      <trkpt lat="46.93334" lon="-0.5031">
        <ele>101</ele>
        <time>2012-07-22T08:40:46Z</time>
      </trkpt>
      <trkpt lat="46.93335" lon="-0.50321">
        <ele>101.3</ele>
        <time>2012-07-22T08:40:49Z</time>
      </trkpt>
      <trkpt lat="46.93336" lon="-0.50333">
        <ele>101.5</ele>
        <time>2012-07-22T08:40:52Z</time>
      </trkpt>
      <trkpt lat="46.93337" lon="-0.50344">
        <ele>101.9</ele>
        <time>2012-07-22T08:40:55Z</time>
      </trkpt>
      <trkpt lat="46.93338" lon="-0.50356">
        <ele>102.3</ele>
        <time>2012-07-22T08:40:58Z</time>
      </trkpt>
      <trkpt lat="46.93339" lon="-0.5036">
        <ele>102.5</ele>
        <time>2012-07-22T08:40:59Z</time>
      </trkpt>
      <trkpt lat="46.9334" lon="-0.50374">
        <ele>103</ele>
        <time>2012-07-22T08:41:02Z</time>
      </trkpt>
      <trkpt lat="46.93339" lon="-0.50384">
        <ele>103.3</ele>
        <time>2012-07-22T08:41:04Z</time>
      </trkpt>
      <trkpt lat="46.93339" lon="-0.50394">
        <ele>103.5</ele>
        <time>2012-07-22T08:41:06Z</time>
      </trkpt>
      <trkpt lat="46.93339" lon="-0.50405">
        <ele>103.9</ele>
        <time>2012-07-22T08:41:08Z</time>
      </trkpt>
      <trkpt lat="46.93338" lon="-0.50415">
        <ele>104</ele>
        <time>2012-07-22T08:41:10Z</time>
      </trkpt>
      <trkpt lat="46.93337" lon="-0.50426">
        <ele>107</ele>
        <time>2012-07-22T08:41:12Z</time>
      </trkpt>
      <trkpt lat="46.93335" lon="-0.50437">
        <ele>108.9</ele>
        <time>2012-07-22T08:41:14Z</time>
      </trkpt>
      <trkpt lat="46.93333" lon="-0.50449">
        <ele>110</ele>
        <time>2012-07-22T08:41:16Z</time>
      </trkpt>
      <trkpt lat="46.93331" lon="-0.50459">
        <ele>110</ele>
        <time>2012-07-22T08:41:18Z</time>
      </trkpt>
      <trkpt lat="46.93329" lon="-0.50471">
        <ele>110.3</ele>
        <time>2012-07-22T08:42:31Z</time>
      </trkpt>
      <trkpt lat="46.93329" lon="-0.50475">
        <ele>110.8</ele>
        <time>2012-07-22T08:42:32Z</time>
      </trkpt>
      <trkpt lat="46.93331" lon="-0.50492">
        <ele>110.8</ele>
        <time>2012-07-22T08:42:37Z</time>
      </trkpt>
      <trkpt lat="46.93327" lon="-0.50504">
        <ele>110.8</ele>
        <time>2012-07-22T08:42:40Z</time>
      </trkpt>
      <trkpt lat="46.93324" lon="-0.50516">
        <ele>110.8</ele>
        <time>2012-07-22T08:42:43Z</time>
      </trkpt>
      <trkpt lat="46.93322" lon="-0.50525">
        <ele>110.9</ele>
        <time>2012-07-22T08:42:45Z</time>
      </trkpt>
      <trkpt lat="46.9332" lon="-0.50535">
        <ele>110.9</ele>
        <time>2012-07-22T08:42:47Z</time>
      </trkpt>
      <trkpt lat="46.93318" lon="-0.50544">
        <ele>111</ele>
        <time>2012-07-22T08:42:49Z</time>
      </trkpt>
      <trkpt lat="46.93317" lon="-0.50554">
        <ele>111</ele>
        <time>2012-07-22T08:42:51Z</time>
      </trkpt>
      <trkpt lat="46.93315" lon="-0.50565">
        <ele>111</ele>
        <time>2012-07-22T08:42:53Z</time>
      </trkpt>
      <trkpt lat="46.93314" lon="-0.50575">
        <ele>111.5</ele>
        <time>2012-07-22T08:42:55Z</time>
      </trkpt>
      <trkpt lat="46.93312" lon="-0.50586">
        <ele>112</ele>
        <time>2012-07-22T08:42:57Z</time>
      </trkpt>
      <trkpt lat="46.9331" lon="-0.50597">
        <ele>112.5</ele>
        <time>2012-07-22T08:42:59Z</time>
      </trkpt>
      <trkpt lat="46.93309" lon="-0.50608">
        <ele>112.9</ele>
        <time>2012-07-22T08:43:01Z</time>
      </trkpt>
      <trkpt lat="46.93307" lon="-0.5062">
        <ele>113</ele>
        <time>2012-07-22T08:43:03Z</time>
      </trkpt>
      <trkpt lat="46.93305" lon="-0.50632">
        <ele>113.3</ele>
        <time>2012-07-22T08:43:05Z</time>
      </trkpt>
      <trkpt lat="46.93303" lon="-0.50644">
        <ele>113.4</ele>
        <time>2012-07-22T08:43:07Z</time>
      </trkpt>
      <trkpt lat="46.93302" lon="-0.50651">
        <ele>113.5</ele>
        <time>2012-07-22T08:43:08Z</time>
      </trkpt>
      <trkpt lat="46.93301" lon="-0.50658">
        <ele>113.5</ele>
        <time>2012-07-22T08:43:09Z</time>
      </trkpt>
      <trkpt lat="46.933" lon="-0.50665">
        <ele>113.5</ele>
        <time>2012-07-22T08:43:10Z</time>
      </trkpt>
      <trkpt lat="46.93299" lon="-0.50672">
        <ele>113.5</ele>
        <time>2012-07-22T08:43:11Z</time>
      </trkpt>
      <trkpt lat="46.93298" lon="-0.50679">
        <ele>113.8</ele>
        <time>2012-07-22T08:43:12Z</time>
      </trkpt>
      <trkpt lat="46.93297" lon="-0.50687">
        <ele>113.8</ele>
        <time>2012-07-22T08:43:13Z</time>
      </trkpt>
      <trkpt lat="46.93296" lon="-0.50694">
        <ele>113.9</ele>
        <time>2012-07-22T08:43:14Z</time>
      </trkpt>
      <trkpt lat="46.93295" lon="-0.50702">
        <ele>113.9</ele>
        <time>2012-07-22T08:43:15Z</time>
      </trkpt>
      <trkpt lat="46.93294" lon="-0.50709">
        <ele>113.9</ele>
        <time>2012-07-22T08:43:16Z</time>
      </trkpt>
      <trkpt lat="46.93293" lon="-0.50717">
        <ele>113.9</ele>
        <time>2012-07-22T08:43:17Z</time>
      </trkpt>
      <trkpt lat="46.93292" lon="-0.50725">
        <ele>113.9</ele>
        <time>2012-07-22T08:43:18Z</time>
      </trkpt>
      <trkpt lat="46.9329" lon="-0.50733">
        <ele>113.9</ele>
        <time>2012-07-22T08:43:19Z</time>
      </trkpt>
      <trkpt lat="46.93289" lon="-0.50741">
        <ele>114</ele>
        <time>2012-07-22T08:43:20Z</time>
      </trkpt>
      <trkpt lat="46.93288" lon="-0.50749">
        <ele>114</ele>
        <time>2012-07-22T08:43:21Z</time>
      </trkpt>
      <trkpt lat="46.93287" lon="-0.50757">
        <ele>114</ele>
        <time>2012-07-22T08:43:22Z</time>
      </trkpt>
      <trkpt lat="46.93286" lon="-0.50765">
        <ele>114</ele>
        <time>2012-07-22T08:43:23Z</time>
      </trkpt>
      <trkpt lat="46.93285" lon="-0.50772">
        <ele>114</ele>
        <time>2012-07-22T08:43:24Z</time>
      </trkpt>
      <trkpt lat="46.93284" lon="-0.5078">
        <ele>114</ele>
        <time>2012-07-22T08:43:25Z</time>
      </trkpt>
      <trkpt lat="46.93283" lon="-0.50787">
        <ele>114</ele>
        <time>2012-07-22T08:43:26Z</time>
      </trkpt>
      <trkpt lat="46.93282" lon="-0.50795">
        <ele>114</ele>
        <time>2012-07-22T08:43:27Z</time>
      </trkpt>
      <trkpt lat="46.93281" lon="-0.50802">
        <ele>114</ele>
        <time>2012-07-22T08:43:28Z</time>
      </trkpt>
      <trkpt lat="46.9328" lon="-0.5081">
        <ele>114</ele>
        <time>2012-07-22T08:43:29Z</time>
      </trkpt>
      <trkpt lat="46.9328" lon="-0.50817">
        <ele>114</ele>
        <time>2012-07-22T08:43:30Z</time>
      </trkpt>
      <trkpt lat="46.93279" lon="-0.50825">
        <ele>114</ele>
        <time>2012-07-22T08:43:31Z</time>
      </trkpt>
      <trkpt lat="46.93278" lon="-0.50832">
        <ele>114</ele>
        <time>2012-07-22T08:43:32Z</time>
      </trkpt>
      <trkpt lat="46.93277" lon="-0.5084">
        <ele>114</ele>
        <time>2012-07-22T08:43:33Z</time>
      </trkpt>
      <trkpt lat="46.93276" lon="-0.50847">
        <ele>114</ele>
        <time>2012-07-22T08:43:34Z</time>
      </trkpt>
      <trkpt lat="46.93275" lon="-0.50854">
        <ele>114</ele>
        <time>2012-07-22T08:43:35Z</time>
      </trkpt>
      <trkpt lat="46.93275" lon="-0.50862">
        <ele>114</ele>
        <time>2012-07-22T08:43:36Z</time>
      </trkpt>
      <trkpt lat="46.93274" lon="-0.50869">
        <ele>114</ele>
        <time>2012-07-22T08:43:37Z</time>
      </trkpt>
      <trkpt lat="46.93273" lon="-0.50877">
        <ele>114</ele>
        <time>2012-07-22T08:43:38Z</time>
      </trkpt>
      <trkpt lat="46.93272" lon="-0.50884">
        <ele>114</ele>
        <time>2012-07-22T08:43:39Z</time>
      </trkpt>
      <trkpt lat="46.93271" lon="-0.50892">
        <ele>114</ele>
        <time>2012-07-22T08:43:40Z</time>
      </trkpt>
      <trkpt lat="46.9327" lon="-0.509">
        <ele>114</ele>
        <time>2012-07-22T08:43:41Z</time>
      </trkpt>
      <trkpt lat="46.93269" lon="-0.50907">
        <ele>114</ele>
        <time>2012-07-22T08:43:42Z</time>
      </trkpt>
      <trkpt lat="46.93268" lon="-0.50915">
        <ele>114</ele>
        <time>2012-07-22T08:43:43Z</time>
      </trkpt>
      <trkpt lat="46.93267" lon="-0.50922">
        <ele>114</ele>
        <time>2012-07-22T08:43:44Z</time>
      </trkpt>
      <trkpt lat="46.93267" lon="-0.50929">
        <ele>114</ele>
        <time>2012-07-22T08:43:45Z</time>
      </trkpt>
      <trkpt lat="46.93265" lon="-0.50941">
        <ele>114</ele>
        <time>2012-07-22T08:43:47Z</time>
      </trkpt>
      <trkpt lat="46.93264" lon="-0.50953">
        <ele>114</ele>
        <time>2012-07-22T08:43:49Z</time>
      </trkpt>
      <trkpt lat="46.93263" lon="-0.50965">
        <ele>113.9</ele>
        <time>2012-07-22T08:43:51Z</time>
      </trkpt>
      <trkpt lat="46.93262" lon="-0.50977">
        <ele>113.9</ele>
        <time>2012-07-22T08:43:53Z</time>
      </trkpt>
      <trkpt lat="46.9326" lon="-0.50988">
        <ele>113.9</ele>
        <time>2012-07-22T08:43:55Z</time>
      </trkpt>
      <trkpt lat="46.9326" lon="-0.50997">
        <ele>113.9</ele>
        <time>2012-07-22T08:43:57Z</time>
      </trkpt>
      <trkpt lat="46.93259" lon="-0.51006">
        <ele>113.9</ele>
        <time>2012-07-22T08:43:59Z</time>
      </trkpt>
      <trkpt lat="46.93258" lon="-0.51016">
        <ele>113.9</ele>
        <time>2012-07-22T08:44:01Z</time>
      </trkpt>
      <trkpt lat="46.93257" lon="-0.51026">
        <ele>113.5</ele>
        <time>2012-07-22T08:44:03Z</time>
      </trkpt>
      <trkpt lat="46.93256" lon="-0.51039">
        <ele>113.5</ele>
        <time>2012-07-22T08:44:05Z</time>
      </trkpt>
      <trkpt lat="46.93254" lon="-0.51051">
        <ele>113.5</ele>
        <time>2012-07-22T08:44:07Z</time>
      </trkpt>
      <trkpt lat="46.93252" lon="-0.51064">
        <ele>113.4</ele>
        <time>2012-07-22T08:44:09Z</time>
      </trkpt>
      <trkpt lat="46.93251" lon="-0.51071">
        <ele>113.4</ele>
        <time>2012-07-22T08:44:10Z</time>
      </trkpt>
      <trkpt lat="46.9325" lon="-0.51077">
        <ele>113.3</ele>
        <time>2012-07-22T08:44:11Z</time>
      </trkpt>
      <trkpt lat="46.93249" lon="-0.51084">
        <ele>113.3</ele>
        <time>2012-07-22T08:44:12Z</time>
      </trkpt>
      <trkpt lat="46.93248" lon="-0.51091">
        <ele>113.3</ele>
        <time>2012-07-22T08:44:13Z</time>
      </trkpt>
      <trkpt lat="46.93247" lon="-0.51097">
        <ele>113.3</ele>
        <time>2012-07-22T08:44:14Z</time>
      </trkpt>
      <trkpt lat="46.93246" lon="-0.51104">
        <ele>113</ele>
        <time>2012-07-22T08:44:15Z</time>
      </trkpt>
      <trkpt lat="46.93245" lon="-0.51117">
        <ele>113</ele>
        <time>2012-07-22T08:44:17Z</time>
      </trkpt>
      <trkpt lat="46.93244" lon="-0.51128">
        <ele>113</ele>
        <time>2012-07-22T08:44:19Z</time>
      </trkpt>
      <trkpt lat="46.93242" lon="-0.51141">
        <ele>113</ele>
        <time>2012-07-22T08:44:21Z</time>
      </trkpt>
      <trkpt lat="46.93242" lon="-0.51153">
        <ele>113</ele>
        <time>2012-07-22T08:44:23Z</time>
      </trkpt>
      <trkpt lat="46.93241" lon="-0.51166">
        <ele>113</ele>
        <time>2012-07-22T08:44:25Z</time>
      </trkpt>
      <trkpt lat="46.9324" lon="-0.51178">
        <ele>113</ele>
        <time>2012-07-22T08:44:27Z</time>
      </trkpt>
      <trkpt lat="46.93239" lon="-0.51185">
        <ele>113</ele>
        <time>2012-07-22T08:44:28Z</time>
      </trkpt>
      <trkpt lat="46.93239" lon="-0.51192">
        <ele>113</ele>
        <time>2012-07-22T08:44:29Z</time>
      </trkpt>
      <trkpt lat="46.93238" lon="-0.51199">
        <ele>113</ele>
        <time>2012-07-22T08:44:30Z</time>
      </trkpt>
      <trkpt lat="46.93237" lon="-0.51206">
        <ele>113</ele>
        <time>2012-07-22T08:44:31Z</time>
      </trkpt>
      <trkpt lat="46.93237" lon="-0.51213">
        <ele>112.9</ele>
        <time>2012-07-22T08:44:32Z</time>
      </trkpt>
      <trkpt lat="46.93236" lon="-0.5122">
        <ele>112.9</ele>
        <time>2012-07-22T08:44:33Z</time>
      </trkpt>
      <trkpt lat="46.93235" lon="-0.51227">
        <ele>112.9</ele>
        <time>2012-07-22T08:44:34Z</time>
      </trkpt>
      <trkpt lat="46.93235" lon="-0.51234">
        <ele>112.9</ele>
        <time>2012-07-22T08:44:35Z</time>
      </trkpt>
      <trkpt lat="46.93234" lon="-0.5124">
        <ele>112.9</ele>
        <time>2012-07-22T08:44:36Z</time>
      </trkpt>
      <trkpt lat="46.93233" lon="-0.51247">
        <ele>113</ele>
        <time>2012-07-22T08:44:37Z</time>
      </trkpt>
      <trkpt lat="46.93233" lon="-0.51254">
        <ele>113</ele>
        <time>2012-07-22T08:44:38Z</time>
      </trkpt>
      <trkpt lat="46.93232" lon="-0.51261">
        <ele>113</ele>
        <time>2012-07-22T08:44:39Z</time>
      </trkpt>
      <trkpt lat="46.93231" lon="-0.51267">
        <ele>113</ele>
        <time>2012-07-22T08:44:40Z</time>
      </trkpt>
      <trkpt lat="46.9323" lon="-0.51274">
        <ele>113</ele>
        <time>2012-07-22T08:44:41Z</time>
      </trkpt>
      <trkpt lat="46.93228" lon="-0.51281">
        <ele>113.3</ele>
        <time>2012-07-22T08:44:42Z</time>
      </trkpt>
      <trkpt lat="46.93227" lon="-0.51288">
        <ele>113.3</ele>
        <time>2012-07-22T08:44:43Z</time>
      </trkpt>
      <trkpt lat="46.93226" lon="-0.51294">
        <ele>113.4</ele>
        <time>2012-07-22T08:44:44Z</time>
      </trkpt>
      <trkpt lat="46.93225" lon="-0.51301">
        <ele>113.5</ele>
        <time>2012-07-22T08:44:45Z</time>
      </trkpt>
      <trkpt lat="46.93224" lon="-0.51308">
        <ele>113.5</ele>
        <time>2012-07-22T08:44:46Z</time>
      </trkpt>
      <trkpt lat="46.93223" lon="-0.51314">
        <ele>113.5</ele>
        <time>2012-07-22T08:44:47Z</time>
      </trkpt>
      <trkpt lat="46.93221" lon="-0.51321">
        <ele>113.5</ele>
        <time>2012-07-22T08:44:48Z</time>
      </trkpt>
      <trkpt lat="46.9322" lon="-0.51327">
        <ele>113.5</ele>
        <time>2012-07-22T08:44:49Z</time>
      </trkpt>
      <trkpt lat="46.93219" lon="-0.51334">
        <ele>113.5</ele>
        <time>2012-07-22T08:44:50Z</time>
      </trkpt>
      <trkpt lat="46.93218" lon="-0.51347">
        <ele>113.8</ele>
        <time>2012-07-22T08:44:52Z</time>
      </trkpt>
      <trkpt lat="46.93216" lon="-0.51359">
        <ele>113.9</ele>
        <time>2012-07-22T08:44:54Z</time>
      </trkpt>
      <trkpt lat="46.93214" lon="-0.51372">
        <ele>114</ele>
        <time>2012-07-22T08:44:56Z</time>
      </trkpt>
      <trkpt lat="46.93212" lon="-0.51384">
        <ele>114</ele>
        <time>2012-07-22T08:44:58Z</time>
      </trkpt>
      <trkpt lat="46.9321" lon="-0.51397">
        <ele>114</ele>
        <time>2012-07-22T08:45:00Z</time>
      </trkpt>
      <trkpt lat="46.93209" lon="-0.51403">
        <ele>114</ele>
        <time>2012-07-22T08:45:01Z</time>
      </trkpt>
      <trkpt lat="46.93208" lon="-0.5141">
        <ele>114</ele>
        <time>2012-07-22T08:45:02Z</time>
      </trkpt>
      <trkpt lat="46.93207" lon="-0.51416">
        <ele>114.3</ele>
        <time>2012-07-22T08:45:03Z</time>
      </trkpt>
      <trkpt lat="46.93206" lon="-0.51423">
        <ele>114.4</ele>
        <time>2012-07-22T08:45:04Z</time>
      </trkpt>
      <trkpt lat="46.93204" lon="-0.51429">
        <ele>114.5</ele>
        <time>2012-07-22T08:45:05Z</time>
      </trkpt>
      <trkpt lat="46.93203" lon="-0.51442">
        <ele>114.5</ele>
        <time>2012-07-22T08:45:07Z</time>
      </trkpt>
      <trkpt lat="46.93201" lon="-0.51454">
        <ele>115</ele>
        <time>2012-07-22T08:45:09Z</time>
      </trkpt>
      <trkpt lat="46.932" lon="-0.51466">
        <ele>115</ele>
        <time>2012-07-22T08:45:11Z</time>
      </trkpt>
      <trkpt lat="46.932" lon="-0.51478">
        <ele>115.3</ele>
        <time>2012-07-22T08:45:13Z</time>
      </trkpt>
      <trkpt lat="46.932" lon="-0.51484">
        <ele>115.4</ele>
        <time>2012-07-22T08:45:14Z</time>
      </trkpt>
      <trkpt lat="46.932" lon="-0.51491">
        <ele>115.4</ele>
        <time>2012-07-22T08:45:15Z</time>
      </trkpt>
      <trkpt lat="46.932" lon="-0.51498">
        <ele>115.5</ele>
        <time>2012-07-22T08:45:16Z</time>
      </trkpt>
      <trkpt lat="46.932" lon="-0.51505">
        <ele>115.5</ele>
        <time>2012-07-22T08:45:17Z</time>
      </trkpt>
      <trkpt lat="46.932" lon="-0.51513">
        <ele>115.5</ele>
        <time>2012-07-22T08:45:18Z</time>
      </trkpt>
      <trkpt lat="46.932" lon="-0.51521">
        <ele>115.5</ele>
        <time>2012-07-22T08:45:19Z</time>
      </trkpt>
      <trkpt lat="46.932" lon="-0.51528">
        <ele>115.5</ele>
        <time>2012-07-22T08:45:20Z</time>
      </trkpt>
      <trkpt lat="46.93201" lon="-0.51536">
        <ele>115.5</ele>
        <time>2012-07-22T08:45:21Z</time>
      </trkpt>
      <trkpt lat="46.93201" lon="-0.51544">
        <ele>115.5</ele>
        <time>2012-07-22T08:45:22Z</time>
      </trkpt>
      <trkpt lat="46.93201" lon="-0.51551">
        <ele>115.5</ele>
        <time>2012-07-22T08:45:23Z</time>
      </trkpt>
      <trkpt lat="46.93201" lon="-0.51559">
        <ele>115.5</ele>
        <time>2012-07-22T08:45:24Z</time>
      </trkpt>
      <trkpt lat="46.93202" lon="-0.51567">
        <ele>115.5</ele>
        <time>2012-07-22T08:45:25Z</time>
      </trkpt>
      <trkpt lat="46.93202" lon="-0.51574">
        <ele>115.5</ele>
        <time>2012-07-22T08:45:26Z</time>
      </trkpt>
      <trkpt lat="46.93202" lon="-0.51582">
        <ele>115.5</ele>
        <time>2012-07-22T08:45:27Z</time>
      </trkpt>
      <trkpt lat="46.93201" lon="-0.5159">
        <ele>115.5</ele>
        <time>2012-07-22T08:45:28Z</time>
      </trkpt>
      <trkpt lat="46.93201" lon="-0.51598">
        <ele>115.5</ele>
        <time>2012-07-22T08:45:29Z</time>
      </trkpt>
      <trkpt lat="46.932" lon="-0.51605">
        <ele>115.5</ele>
        <time>2012-07-22T08:45:30Z</time>
      </trkpt>
      <trkpt lat="46.93199" lon="-0.51613">
        <ele>115.4</ele>
        <time>2012-07-22T08:45:31Z</time>
      </trkpt>
      <trkpt lat="46.93198" lon="-0.51621">
        <ele>115.4</ele>
        <time>2012-07-22T08:45:32Z</time>
      </trkpt>
      <trkpt lat="46.93196" lon="-0.51628">
        <ele>115.4</ele>
        <time>2012-07-22T08:45:33Z</time>
      </trkpt>
      <trkpt lat="46.93194" lon="-0.51635">
        <ele>115.4</ele>
        <time>2012-07-22T08:45:34Z</time>
      </trkpt>
      <trkpt lat="46.93192" lon="-0.51643">
        <ele>115.4</ele>
        <time>2012-07-22T08:45:35Z</time>
      </trkpt>
      <trkpt lat="46.93191" lon="-0.5165">
        <ele>115.4</ele>
        <time>2012-07-22T08:45:36Z</time>
      </trkpt>
      <trkpt lat="46.93189" lon="-0.51657">
        <ele>115.3</ele>
        <time>2012-07-22T08:45:37Z</time>
      </trkpt>
      <trkpt lat="46.93187" lon="-0.51664">
        <ele>115.3</ele>
        <time>2012-07-22T08:45:38Z</time>
      </trkpt>
      <trkpt lat="46.93186" lon="-0.51671">
        <ele>115</ele>
        <time>2012-07-22T08:45:39Z</time>
      </trkpt>
      <trkpt lat="46.93184" lon="-0.51678">
        <ele>115</ele>
        <time>2012-07-22T08:45:40Z</time>
      </trkpt>
      <trkpt lat="46.93183" lon="-0.51686">
        <ele>115</ele>
        <time>2012-07-22T08:45:41Z</time>
      </trkpt>
      <trkpt lat="46.93182" lon="-0.51693">
        <ele>115</ele>
        <time>2012-07-22T08:45:42Z</time>
      </trkpt>
      <trkpt lat="46.93182" lon="-0.517">
        <ele>115</ele>
        <time>2012-07-22T08:45:43Z</time>
      </trkpt>
      <trkpt lat="46.93182" lon="-0.51713">
        <ele>114.9</ele>
        <time>2012-07-22T08:45:45Z</time>
      </trkpt>
      <trkpt lat="46.93181" lon="-0.51723">
        <ele>114.9</ele>
        <time>2012-07-22T08:45:47Z</time>
      </trkpt>
      <trkpt lat="46.93176" lon="-0.51732">
        <ele>114.8</ele>
        <time>2012-07-22T08:45:49Z</time>
      </trkpt>
      <trkpt lat="46.93176" lon="-0.51738">
        <ele>114.5</ele>
        <time>2012-07-22T08:45:50Z</time>
      </trkpt>
      <trkpt lat="46.93175" lon="-0.51745">
        <ele>114.5</ele>
        <time>2012-07-22T08:45:51Z</time>
      </trkpt>
      <trkpt lat="46.93176" lon="-0.51753">
        <ele>114.5</ele>
        <time>2012-07-22T08:45:52Z</time>
      </trkpt>
      <trkpt lat="46.93176" lon="-0.51761">
        <ele>114.5</ele>
        <time>2012-07-22T08:45:53Z</time>
      </trkpt>
      <trkpt lat="46.93176" lon="-0.5177">
        <ele>114.5</ele>
        <time>2012-07-22T08:45:54Z</time>
      </trkpt>
      <trkpt lat="46.93176" lon="-0.51778">
        <ele>114.5</ele>
        <time>2012-07-22T08:45:55Z</time>
      </trkpt>
      <trkpt lat="46.93176" lon="-0.51787">
        <ele>114.5</ele>
        <time>2012-07-22T08:45:56Z</time>
      </trkpt>
      <trkpt lat="46.93176" lon="-0.51796">
        <ele>114.5</ele>
        <time>2012-07-22T08:45:57Z</time>
      </trkpt>
      <trkpt lat="46.93176" lon="-0.51805">
        <ele>114.5</ele>
        <time>2012-07-22T08:45:58Z</time>
      </trkpt>
      <trkpt lat="46.93176" lon="-0.51814">
        <ele>114.5</ele>
        <time>2012-07-22T08:45:59Z</time>
      </trkpt>
      <trkpt lat="46.93176" lon="-0.51823">
        <ele>114.5</ele>
        <time>2012-07-22T08:46:00Z</time>
      </trkpt>
      <trkpt lat="46.93175" lon="-0.51832">
        <ele>114.4</ele>
        <time>2012-07-22T08:46:01Z</time>
      </trkpt>
      <trkpt lat="46.93175" lon="-0.5184">
        <ele>114.4</ele>
        <time>2012-07-22T08:46:02Z</time>
      </trkpt>
      <trkpt lat="46.93175" lon="-0.51849">
        <ele>114</ele>
        <time>2012-07-22T08:46:03Z</time>
      </trkpt>
      <trkpt lat="46.93175" lon="-0.51858">
        <ele>114</ele>
        <time>2012-07-22T08:46:04Z</time>
      </trkpt>
      <trkpt lat="46.93172" lon="-0.51867">
        <ele>113.9</ele>
        <time>2012-07-22T08:46:05Z</time>
      </trkpt>
      <trkpt lat="46.93167" lon="-0.51874">
        <ele>113.5</ele>
        <time>2012-07-22T08:46:06Z</time>
      </trkpt>
      <trkpt lat="46.93162" lon="-0.51881">
        <ele>113.5</ele>
        <time>2012-07-22T08:46:07Z</time>
      </trkpt>
      <trkpt lat="46.93157" lon="-0.51889">
        <ele>113.3</ele>
        <time>2012-07-22T08:46:08Z</time>
      </trkpt>
      <trkpt lat="46.93152" lon="-0.51896">
        <ele>113</ele>
        <time>2012-07-22T08:46:09Z</time>
      </trkpt>
      <trkpt lat="46.93146" lon="-0.51903">
        <ele>112.9</ele>
        <time>2012-07-22T08:46:10Z</time>
      </trkpt>
      <trkpt lat="46.93141" lon="-0.51909">
        <ele>112.8</ele>
        <time>2012-07-22T08:46:11Z</time>
      </trkpt>
      <trkpt lat="46.93136" lon="-0.51917">
        <ele>112.5</ele>
        <time>2012-07-22T08:46:12Z</time>
      </trkpt>
      <trkpt lat="46.9313" lon="-0.51924">
        <ele>112.5</ele>
        <time>2012-07-22T08:46:13Z</time>
      </trkpt>
      <trkpt lat="46.93124" lon="-0.51931">
        <ele>112.5</ele>
        <time>2012-07-22T08:46:14Z</time>
      </trkpt>
      <trkpt lat="46.93119" lon="-0.51938">
        <ele>112.4</ele>
        <time>2012-07-22T08:46:15Z</time>
      </trkpt>
      <trkpt lat="46.93113" lon="-0.51945">
        <ele>112.3</ele>
        <time>2012-07-22T08:46:16Z</time>
      </trkpt>
      <trkpt lat="46.93108" lon="-0.51953">
        <ele>112.3</ele>
        <time>2012-07-22T08:46:17Z</time>
      </trkpt>
      <trkpt lat="46.93104" lon="-0.51962">
        <ele>112.3</ele>
        <time>2012-07-22T08:46:18Z</time>
      </trkpt>
      <trkpt lat="46.93102" lon="-0.51973">
        <ele>112.4</ele>
        <time>2012-07-22T08:46:19Z</time>
      </trkpt>
      <trkpt lat="46.931" lon="-0.51983">
        <ele>112.4</ele>
        <time>2012-07-22T08:46:20Z</time>
      </trkpt>
      <trkpt lat="46.93098" lon="-0.51994">
        <ele>112.5</ele>
        <time>2012-07-22T08:46:21Z</time>
      </trkpt>
      <trkpt lat="46.93097" lon="-0.52005">
        <ele>112.5</ele>
        <time>2012-07-22T08:46:22Z</time>
      </trkpt>
      <trkpt lat="46.93096" lon="-0.52016">
        <ele>112.5</ele>
        <time>2012-07-22T08:46:23Z</time>
      </trkpt>
      <trkpt lat="46.93094" lon="-0.52027">
        <ele>112.8</ele>
        <time>2012-07-22T08:46:24Z</time>
      </trkpt>
      <trkpt lat="46.93093" lon="-0.52039">
        <ele>112.8</ele>
        <time>2012-07-22T08:46:25Z</time>
      </trkpt>
      <trkpt lat="46.93092" lon="-0.5205">
        <ele>112.8</ele>
        <time>2012-07-22T08:46:26Z</time>
      </trkpt>
      <trkpt lat="46.93091" lon="-0.52061">
        <ele>112.8</ele>
        <time>2012-07-22T08:46:27Z</time>
      </trkpt>
      <trkpt lat="46.9309" lon="-0.52072">
        <ele>112.5</ele>
        <time>2012-07-22T08:46:28Z</time>
      </trkpt>
      <trkpt lat="46.93089" lon="-0.52083">
        <ele>112.5</ele>
        <time>2012-07-22T08:46:29Z</time>
      </trkpt>
      <trkpt lat="46.93087" lon="-0.52094">
        <ele>112.5</ele>
        <time>2012-07-22T08:46:30Z</time>
      </trkpt>
      <trkpt lat="46.93085" lon="-0.52105">
        <ele>112.4</ele>
        <time>2012-07-22T08:46:31Z</time>
      </trkpt>
      <trkpt lat="46.93083" lon="-0.52116">
        <ele>112.3</ele>
        <time>2012-07-22T08:46:32Z</time>
      </trkpt>
      <trkpt lat="46.93081" lon="-0.52126">
        <ele>112</ele>
        <time>2012-07-22T08:46:33Z</time>
      </trkpt>
      <trkpt lat="46.93078" lon="-0.52137">
        <ele>112</ele>
        <time>2012-07-22T08:46:34Z</time>
      </trkpt>
      <trkpt lat="46.93076" lon="-0.52147">
        <ele>112</ele>
        <time>2012-07-22T08:46:35Z</time>
      </trkpt>
      <trkpt lat="46.93073" lon="-0.52157">
        <ele>112</ele>
        <time>2012-07-22T08:46:36Z</time>
      </trkpt>
      <trkpt lat="46.9307" lon="-0.52167">
        <ele>111.9</ele>
        <time>2012-07-22T08:46:37Z</time>
      </trkpt>
      <trkpt lat="46.93067" lon="-0.52177">
        <ele>111.8</ele>
        <time>2012-07-22T08:46:38Z</time>
      </trkpt>
      <trkpt lat="46.93064" lon="-0.52187">
        <ele>111.8</ele>
        <time>2012-07-22T08:46:39Z</time>
      </trkpt>
      <trkpt lat="46.93061" lon="-0.52196">
        <ele>111.8</ele>
        <time>2012-07-22T08:46:40Z</time>
      </trkpt>
      <trkpt lat="46.93058" lon="-0.52205">
        <ele>111.8</ele>
        <time>2012-07-22T08:46:41Z</time>
      </trkpt>
      <trkpt lat="46.93056" lon="-0.52215">
        <ele>111.8</ele>
        <time>2012-07-22T08:46:42Z</time>
      </trkpt>
      <trkpt lat="46.93053" lon="-0.52224">
        <ele>111.5</ele>
        <time>2012-07-22T08:46:43Z</time>
      </trkpt>
      <trkpt lat="46.9305" lon="-0.52233">
        <ele>111.5</ele>
        <time>2012-07-22T08:46:44Z</time>
      </trkpt>
      <trkpt lat="46.93047" lon="-0.52242">
        <ele>111.4</ele>
        <time>2012-07-22T08:46:45Z</time>
      </trkpt>
      <trkpt lat="46.93045" lon="-0.52251">
        <ele>111.4</ele>
        <time>2012-07-22T08:46:46Z</time>
      </trkpt>
      <trkpt lat="46.93043" lon="-0.5226">
        <ele>111.3</ele>
        <time>2012-07-22T08:46:47Z</time>
      </trkpt>
      <trkpt lat="46.93041" lon="-0.52269">
        <ele>111.3</ele>
        <time>2012-07-22T08:46:48Z</time>
      </trkpt>
      <trkpt lat="46.93039" lon="-0.52278">
        <ele>111</ele>
        <time>2012-07-22T08:46:49Z</time>
      </trkpt>
      <trkpt lat="46.93038" lon="-0.52287">
        <ele>111</ele>
        <time>2012-07-22T08:46:50Z</time>
      </trkpt>
      <trkpt lat="46.93037" lon="-0.52296">
        <ele>111</ele>
        <time>2012-07-22T08:46:51Z</time>
      </trkpt>
      <trkpt lat="46.93037" lon="-0.52306">
        <ele>111</ele>
        <time>2012-07-22T08:46:52Z</time>
      </trkpt>
      <trkpt lat="46.93037" lon="-0.52316">
        <ele>110.9</ele>
        <time>2012-07-22T08:46:53Z</time>
      </trkpt>
      <trkpt lat="46.93038" lon="-0.52326">
        <ele>110.9</ele>
        <time>2012-07-22T08:46:54Z</time>
      </trkpt>
      <trkpt lat="46.93039" lon="-0.52335">
        <ele>110.8</ele>
        <time>2012-07-22T08:46:55Z</time>
      </trkpt>
      <trkpt lat="46.9304" lon="-0.52345">
        <ele>110.8</ele>
        <time>2012-07-22T08:46:56Z</time>
      </trkpt>
      <trkpt lat="46.93041" lon="-0.52354">
        <ele>110.8</ele>
        <time>2012-07-22T08:46:57Z</time>
      </trkpt>
      <trkpt lat="46.93042" lon="-0.52363">
        <ele>110.8</ele>
        <time>2012-07-22T08:46:58Z</time>
      </trkpt>
      <trkpt lat="46.93044" lon="-0.52372">
        <ele>110.8</ele>
        <time>2012-07-22T08:46:59Z</time>
      </trkpt>
      <trkpt lat="46.93045" lon="-0.52381">
        <ele>110.8</ele>
        <time>2012-07-22T08:47:00Z</time>
      </trkpt>
      <trkpt lat="46.93045" lon="-0.52391">
        <ele>110.9</ele>
        <time>2012-07-22T08:47:01Z</time>
      </trkpt>
      <trkpt lat="46.93046" lon="-0.524">
        <ele>110.9</ele>
        <time>2012-07-22T08:47:02Z</time>
      </trkpt>
      <trkpt lat="46.93046" lon="-0.5241">
        <ele>110.9</ele>
        <time>2012-07-22T08:47:03Z</time>
      </trkpt>
      <trkpt lat="46.93045" lon="-0.5242">
        <ele>110.9</ele>
        <time>2012-07-22T08:47:04Z</time>
      </trkpt>
      <trkpt lat="46.93045" lon="-0.52429">
        <ele>111</ele>
        <time>2012-07-22T08:47:05Z</time>
      </trkpt>
      <trkpt lat="46.93044" lon="-0.52439">
        <ele>111</ele>
        <time>2012-07-22T08:47:06Z</time>
      </trkpt>
      <trkpt lat="46.93043" lon="-0.52449">
        <ele>111</ele>
        <time>2012-07-22T08:47:07Z</time>
      </trkpt>
      <trkpt lat="46.93042" lon="-0.52458">
        <ele>110.9</ele>
        <time>2012-07-22T08:47:08Z</time>
      </trkpt>
      <trkpt lat="46.9304" lon="-0.52468">
        <ele>110.9</ele>
        <time>2012-07-22T08:47:09Z</time>
      </trkpt>
      <trkpt lat="46.93038" lon="-0.52476">
        <ele>110.9</ele>
        <time>2012-07-22T08:47:10Z</time>
      </trkpt>
      <trkpt lat="46.93035" lon="-0.52485">
        <ele>110.9</ele>
        <time>2012-07-22T08:47:11Z</time>
      </trkpt>
      <trkpt lat="46.93031" lon="-0.52494">
        <ele>110.8</ele>
        <time>2012-07-22T08:47:12Z</time>
      </trkpt>
      <trkpt lat="46.93027" lon="-0.52502">
        <ele>110.5</ele>
        <time>2012-07-22T08:47:13Z</time>
      </trkpt>
      <trkpt lat="46.93023" lon="-0.52509">
        <ele>110.5</ele>
        <time>2012-07-22T08:47:14Z</time>
      </trkpt>
      <trkpt lat="46.93018" lon="-0.52515">
        <ele>110.3</ele>
        <time>2012-07-22T08:47:15Z</time>
      </trkpt>
      <trkpt lat="46.93014" lon="-0.52522">
        <ele>110</ele>
        <time>2012-07-22T08:47:16Z</time>
      </trkpt>
      <trkpt lat="46.93009" lon="-0.52528">
        <ele>109.9</ele>
        <time>2012-07-22T08:47:17Z</time>
      </trkpt>
      <trkpt lat="46.93004" lon="-0.52534">
        <ele>109.5</ele>
        <time>2012-07-22T08:47:18Z</time>
      </trkpt>
      <trkpt lat="46.93" lon="-0.5254">
        <ele>109.4</ele>
        <time>2012-07-22T08:47:19Z</time>
      </trkpt>
      <trkpt lat="46.92995" lon="-0.52545">
        <ele>109</ele>
        <time>2012-07-22T08:47:20Z</time>
      </trkpt>
      <trkpt lat="46.92991" lon="-0.5255">
        <ele>109</ele>
        <time>2012-07-22T08:47:21Z</time>
      </trkpt>
      <trkpt lat="46.92988" lon="-0.52556">
        <ele>109</ele>
        <time>2012-07-22T08:47:22Z</time>
      </trkpt>
      <trkpt lat="46.92986" lon="-0.52563">
        <ele>108.9</ele>
        <time>2012-07-22T08:47:23Z</time>
      </trkpt>
      <trkpt lat="46.92987" lon="-0.5257">
        <ele>108.9</ele>
        <time>2012-07-22T08:47:24Z</time>
      </trkpt>
      <trkpt lat="46.92987" lon="-0.52578">
        <ele>108.9</ele>
        <time>2012-07-22T08:47:25Z</time>
      </trkpt>
      <trkpt lat="46.92988" lon="-0.52586">
        <ele>109</ele>
        <time>2012-07-22T08:47:26Z</time>
      </trkpt>
      <trkpt lat="46.9299" lon="-0.52595">
        <ele>109</ele>
        <time>2012-07-22T08:47:27Z</time>
      </trkpt>
      <trkpt lat="46.92991" lon="-0.52604">
        <ele>108.9</ele>
        <time>2012-07-22T08:47:28Z</time>
      </trkpt>
      <trkpt lat="46.92993" lon="-0.52614">
        <ele>108.5</ele>
        <time>2012-07-22T08:47:29Z</time>
      </trkpt>
      <trkpt lat="46.92993" lon="-0.52625">
        <ele>108.5</ele>
        <time>2012-07-22T08:47:30Z</time>
      </trkpt>
      <trkpt lat="46.92992" lon="-0.52637">
        <ele>108.4</ele>
        <time>2012-07-22T08:47:31Z</time>
      </trkpt>
      <trkpt lat="46.92991" lon="-0.52649">
        <ele>108.3</ele>
        <time>2012-07-22T08:47:32Z</time>
      </trkpt>
      <trkpt lat="46.92987" lon="-0.52661">
        <ele>108</ele>
        <time>2012-07-22T08:47:33Z</time>
      </trkpt>
      <trkpt lat="46.92984" lon="-0.52672">
        <ele>108</ele>
        <time>2012-07-22T08:47:34Z</time>
      </trkpt>
      <trkpt lat="46.9298" lon="-0.52684">
        <ele>107.8</ele>
        <time>2012-07-22T08:47:35Z</time>
      </trkpt>
      <trkpt lat="46.92976" lon="-0.52695">
        <ele>107.5</ele>
        <time>2012-07-22T08:47:36Z</time>
      </trkpt>
      <trkpt lat="46.92973" lon="-0.52707">
        <ele>107.4</ele>
        <time>2012-07-22T08:47:37Z</time>
      </trkpt>
      <trkpt lat="46.92969" lon="-0.52718">
        <ele>107</ele>
        <time>2012-07-22T08:47:38Z</time>
      </trkpt>
      <trkpt lat="46.92965" lon="-0.52731">
        <ele>106.5</ele>
        <time>2012-07-22T08:47:39Z</time>
      </trkpt>
      <trkpt lat="46.92964" lon="-0.52745">
        <ele>106.4</ele>
        <time>2012-07-22T08:47:40Z</time>
      </trkpt>
      <trkpt lat="46.92962" lon="-0.5276">
        <ele>106.3</ele>
        <time>2012-07-22T08:47:41Z</time>
      </trkpt>
      <trkpt lat="46.92961" lon="-0.52775">
        <ele>106.3</ele>
        <time>2012-07-22T08:47:42Z</time>
      </trkpt>
      <trkpt lat="46.9296" lon="-0.5279">
        <ele>106.3</ele>
        <time>2012-07-22T08:47:43Z</time>
      </trkpt>
      <trkpt lat="46.92959" lon="-0.52804">
        <ele>106.3</ele>
        <time>2012-07-22T08:47:44Z</time>
      </trkpt>
      <trkpt lat="46.92957" lon="-0.52819">
        <ele>106.4</ele>
        <time>2012-07-22T08:47:45Z</time>
      </trkpt>
      <trkpt lat="46.92956" lon="-0.52832">
        <ele>106.4</ele>
        <time>2012-07-22T08:47:46Z</time>
      </trkpt>
      <trkpt lat="46.92955" lon="-0.52846">
        <ele>106.5</ele>
        <time>2012-07-22T08:47:47Z</time>
      </trkpt>
      <trkpt lat="46.92954" lon="-0.52859">
        <ele>106.4</ele>
        <time>2012-07-22T08:47:48Z</time>
      </trkpt>
      <trkpt lat="46.92953" lon="-0.52871">
        <ele>106.5</ele>
        <time>2012-07-22T08:47:49Z</time>
      </trkpt>
      <trkpt lat="46.92952" lon="-0.52884">
        <ele>106.5</ele>
        <time>2012-07-22T08:47:50Z</time>
      </trkpt>
      <trkpt lat="46.92952" lon="-0.52895">
        <ele>106.5</ele>
        <time>2012-07-22T08:47:51Z</time>
      </trkpt>
      <trkpt lat="46.92952" lon="-0.52907">
        <ele>106.8</ele>
        <time>2012-07-22T08:47:52Z</time>
      </trkpt>
      <trkpt lat="46.92953" lon="-0.52919">
        <ele>107</ele>
        <time>2012-07-22T08:47:53Z</time>
      </trkpt>
      <trkpt lat="46.92953" lon="-0.52931">
        <ele>107</ele>
        <time>2012-07-22T08:47:54Z</time>
      </trkpt>
      <trkpt lat="46.92954" lon="-0.52943">
        <ele>107</ele>
        <time>2012-07-22T08:47:55Z</time>
      </trkpt>
      <trkpt lat="46.92955" lon="-0.52954">
        <ele>107</ele>
        <time>2012-07-22T08:47:56Z</time>
      </trkpt>
      <trkpt lat="46.92956" lon="-0.52966">
        <ele>107</ele>
        <time>2012-07-22T08:47:57Z</time>
      </trkpt>
      <trkpt lat="46.92958" lon="-0.52976">
        <ele>107</ele>
        <time>2012-07-22T08:47:58Z</time>
      </trkpt>
      <trkpt lat="46.92959" lon="-0.52987">
        <ele>107</ele>
        <time>2012-07-22T08:47:59Z</time>
      </trkpt>
      <trkpt lat="46.92961" lon="-0.52997">
        <ele>107</ele>
        <time>2012-07-22T08:48:00Z</time>
      </trkpt>
      <trkpt lat="46.92963" lon="-0.53007">
        <ele>106.9</ele>
        <time>2012-07-22T08:48:01Z</time>
      </trkpt>
      <trkpt lat="46.92965" lon="-0.53017">
        <ele>106.8</ele>
        <time>2012-07-22T08:48:02Z</time>
      </trkpt>
      <trkpt lat="46.92967" lon="-0.53027">
        <ele>106.8</ele>
        <time>2012-07-22T08:48:03Z</time>
      </trkpt>
      <trkpt lat="46.92969" lon="-0.53037">
        <ele>107</ele>
        <time>2012-07-22T08:48:04Z</time>
      </trkpt>
      <trkpt lat="46.92971" lon="-0.53047">
        <ele>107</ele>
        <time>2012-07-22T08:48:05Z</time>
      </trkpt>
      <trkpt lat="46.92973" lon="-0.53056">
        <ele>107</ele>
        <time>2012-07-22T08:48:06Z</time>
      </trkpt>
      <trkpt lat="46.92975" lon="-0.53065">
        <ele>106.8</ele>
        <time>2012-07-22T08:48:07Z</time>
      </trkpt>
      <trkpt lat="46.92977" lon="-0.53075">
        <ele>106.5</ele>
        <time>2012-07-22T08:48:08Z</time>
      </trkpt>
      <trkpt lat="46.92979" lon="-0.53083">
        <ele>106.4</ele>
        <time>2012-07-22T08:48:09Z</time>
      </trkpt>
      <trkpt lat="46.9298" lon="-0.53092">
        <ele>106.3</ele>
        <time>2012-07-22T08:48:10Z</time>
      </trkpt>
      <trkpt lat="46.92981" lon="-0.531">
        <ele>106</ele>
        <time>2012-07-22T08:48:11Z</time>
      </trkpt>
      <trkpt lat="46.92982" lon="-0.53108">
        <ele>105.8</ele>
        <time>2012-07-22T08:48:12Z</time>
      </trkpt>
      <trkpt lat="46.92983" lon="-0.53116">
        <ele>105.5</ele>
        <time>2012-07-22T08:48:13Z</time>
      </trkpt>
      <trkpt lat="46.92984" lon="-0.53123">
        <ele>105.5</ele>
        <time>2012-07-22T08:48:14Z</time>
      </trkpt>
      <trkpt lat="46.92985" lon="-0.53131">
        <ele>105.5</ele>
        <time>2012-07-22T08:48:15Z</time>
      </trkpt>
      <trkpt lat="46.92986" lon="-0.53138">
        <ele>105.5</ele>
        <time>2012-07-22T08:48:16Z</time>
      </trkpt>
      <trkpt lat="46.92987" lon="-0.53151">
        <ele>106</ele>
        <time>2012-07-22T08:48:18Z</time>
      </trkpt>
      <trkpt lat="46.92989" lon="-0.53164">
        <ele>106.5</ele>
        <time>2012-07-22T08:48:20Z</time>
      </trkpt>
      <trkpt lat="46.9299" lon="-0.53176">
        <ele>106.5</ele>
        <time>2012-07-22T08:48:22Z</time>
      </trkpt>
      <trkpt lat="46.92992" lon="-0.53189">
        <ele>106.5</ele>
        <time>2012-07-22T08:48:24Z</time>
      </trkpt>
      <trkpt lat="46.92993" lon="-0.53196">
        <ele>106.5</ele>
        <time>2012-07-22T08:48:25Z</time>
      </trkpt>
      <trkpt lat="46.92994" lon="-0.53202">
        <ele>106.8</ele>
        <time>2012-07-22T08:48:26Z</time>
      </trkpt>
      <trkpt lat="46.92994" lon="-0.53209">
        <ele>106.8</ele>
        <time>2012-07-22T08:48:27Z</time>
      </trkpt>
      <trkpt lat="46.92997" lon="-0.53221">
        <ele>106.8</ele>
        <time>2012-07-22T08:48:29Z</time>
      </trkpt>
      <trkpt lat="46.93" lon="-0.53232">
        <ele>106.8</ele>
        <time>2012-07-22T08:48:31Z</time>
      </trkpt>
      <trkpt lat="46.93002" lon="-0.53243">
        <ele>106.8</ele>
        <time>2012-07-22T08:48:33Z</time>
      </trkpt>
      <trkpt lat="46.93003" lon="-0.53253">
        <ele>106.8</ele>
        <time>2012-07-22T08:48:35Z</time>
      </trkpt>
      <trkpt lat="46.93005" lon="-0.53264">
        <ele>106.5</ele>
        <time>2012-07-22T08:48:37Z</time>
      </trkpt>
      <trkpt lat="46.93007" lon="-0.53275">
        <ele>106.5</ele>
        <time>2012-07-22T08:48:39Z</time>
      </trkpt>
      <trkpt lat="46.93009" lon="-0.53287">
        <ele>106.5</ele>
        <time>2012-07-22T08:48:41Z</time>
      </trkpt>
      <trkpt lat="46.9301" lon="-0.53299">
        <ele>106.8</ele>
        <time>2012-07-22T08:48:43Z</time>
      </trkpt>
      <trkpt lat="46.93011" lon="-0.53305">
        <ele>107</ele>
        <time>2012-07-22T08:48:44Z</time>
      </trkpt>
      <trkpt lat="46.93012" lon="-0.53319">
        <ele>107.5</ele>
        <time>2012-07-22T08:48:46Z</time>
      </trkpt>
      <trkpt lat="46.93012" lon="-0.53325">
        <ele>107.9</ele>
        <time>2012-07-22T08:48:47Z</time>
      </trkpt>
      <trkpt lat="46.93013" lon="-0.53332">
        <ele>108</ele>
        <time>2012-07-22T08:48:48Z</time>
      </trkpt>
      <trkpt lat="46.93013" lon="-0.53339">
        <ele>108.3</ele>
        <time>2012-07-22T08:48:49Z</time>
      </trkpt>
      <trkpt lat="46.93014" lon="-0.53347">
        <ele>108.4</ele>
        <time>2012-07-22T08:48:50Z</time>
      </trkpt>
      <trkpt lat="46.93015" lon="-0.53355">
        <ele>109</ele>
        <time>2012-07-22T08:48:51Z</time>
      </trkpt>
      <trkpt lat="46.93017" lon="-0.53364">
        <ele>109.5</ele>
        <time>2012-07-22T08:48:52Z</time>
      </trkpt>
      <trkpt lat="46.93018" lon="-0.53373">
        <ele>110.3</ele>
        <time>2012-07-22T08:48:53Z</time>
      </trkpt>
      <trkpt lat="46.9302" lon="-0.53382">
        <ele>110.8</ele>
        <time>2012-07-22T08:48:54Z</time>
      </trkpt>
      <trkpt lat="46.93021" lon="-0.53392">
        <ele>111.3</ele>
        <time>2012-07-22T08:48:55Z</time>
      </trkpt>
      <trkpt lat="46.93023" lon="-0.53402">
        <ele>111.8</ele>
        <time>2012-07-22T08:48:56Z</time>
      </trkpt>
      <trkpt lat="46.93024" lon="-0.53412">
        <ele>112</ele>
        <time>2012-07-22T08:48:57Z</time>
      </trkpt>
      <trkpt lat="46.93025" lon="-0.53422">
        <ele>112.3</ele>
        <time>2012-07-22T08:48:58Z</time>
      </trkpt>
      <trkpt lat="46.93027" lon="-0.53431">
        <ele>112.5</ele>
        <time>2012-07-22T08:48:59Z</time>
      </trkpt>
      <trkpt lat="46.93028" lon="-0.53441">
        <ele>112.8</ele>
        <time>2012-07-22T08:49:00Z</time>
      </trkpt>
      <trkpt lat="46.9303" lon="-0.53449">
        <ele>112.9</ele>
        <time>2012-07-22T08:49:01Z</time>
      </trkpt>
      <trkpt lat="46.93032" lon="-0.53458">
        <ele>113</ele>
        <time>2012-07-22T08:49:02Z</time>
      </trkpt>
      <trkpt lat="46.93035" lon="-0.53464">
        <ele>113</ele>
        <time>2012-07-22T08:49:03Z</time>
      </trkpt>
      <trkpt lat="46.93037" lon="-0.53471">
        <ele>112.9</ele>
        <time>2012-07-22T08:49:04Z</time>
      </trkpt>
      <trkpt lat="46.93038" lon="-0.53483">
        <ele>112.4</ele>
        <time>2012-07-22T08:49:06Z</time>
      </trkpt>
      <trkpt lat="46.93034" lon="-0.53492">
        <ele>112</ele>
        <time>2012-07-22T08:49:08Z</time>
      </trkpt>
      <trkpt lat="46.93028" lon="-0.53498">
        <ele>111.3</ele>
        <time>2012-07-22T08:49:10Z</time>
      </trkpt>
      <trkpt lat="46.93022" lon="-0.53503">
        <ele>111</ele>
        <time>2012-07-22T08:49:12Z</time>
      </trkpt>
      <trkpt lat="46.93015" lon="-0.53508">
        <ele>111.3</ele>
        <time>2012-07-22T08:49:14Z</time>
      </trkpt>
      <trkpt lat="46.93009" lon="-0.53511">
        <ele>111.4</ele>
        <time>2012-07-22T08:49:16Z</time>
      </trkpt>
      <trkpt lat="46.93001" lon="-0.53515">
        <ele>111.4</ele>
        <time>2012-07-22T08:49:19Z</time>
      </trkpt>
      <trkpt lat="46.92995" lon="-0.53518">
        <ele>111.5</ele>
        <time>2012-07-22T08:49:22Z</time>
      </trkpt>
      <trkpt lat="46.92987" lon="-0.53522">
        <ele>111.5</ele>
        <time>2012-07-22T08:49:25Z</time>
      </trkpt>
      <trkpt lat="46.92979" lon="-0.53527">
        <ele>111.8</ele>
        <time>2012-07-22T08:49:28Z</time>
      </trkpt>
      <trkpt lat="46.9297" lon="-0.53531">
        <ele>111.9</ele>
        <time>2012-07-22T08:49:31Z</time>
      </trkpt>
      <trkpt lat="46.92963" lon="-0.53535">
        <ele>112</ele>
        <time>2012-07-22T08:49:34Z</time>
      </trkpt>
      <trkpt lat="46.92957" lon="-0.53537">
        <ele>112</ele>
        <time>2012-07-22T08:49:36Z</time>
      </trkpt>
      <trkpt lat="46.92948" lon="-0.53541">
        <ele>112.5</ele>
        <time>2012-07-22T08:49:39Z</time>
      </trkpt>
      <trkpt lat="46.92942" lon="-0.53544">
        <ele>112.5</ele>
        <time>2012-07-22T08:49:41Z</time>
      </trkpt>
      <trkpt lat="46.92938" lon="-0.53547">
        <ele>112.5</ele>
        <time>2012-07-22T08:49:42Z</time>
      </trkpt>
      <trkpt lat="46.92933" lon="-0.53549">
        <ele>112.5</ele>
        <time>2012-07-22T08:49:43Z</time>
      </trkpt>
      <trkpt lat="46.92928" lon="-0.53551">
        <ele>112.4</ele>
        <time>2012-07-22T08:49:44Z</time>
      </trkpt>
      <trkpt lat="46.9292" lon="-0.53554">
        <ele>112.4</ele>
        <time>2012-07-22T08:49:46Z</time>
      </trkpt>
      <trkpt lat="46.92916" lon="-0.53556">
        <ele>112.3</ele>
        <time>2012-07-22T08:49:47Z</time>
      </trkpt>
      <trkpt lat="46.92906" lon="-0.5356">
        <ele>112</ele>
        <time>2012-07-22T08:49:50Z</time>
      </trkpt>
      <trkpt lat="46.929" lon="-0.53562">
        <ele>112</ele>
        <time>2012-07-22T08:49:52Z</time>
      </trkpt>
      <trkpt lat="46.92892" lon="-0.53565">
        <ele>112</ele>
        <time>2012-07-22T08:49:54Z</time>
      </trkpt>
      <trkpt lat="46.92886" lon="-0.53567">
        <ele>112.3</ele>
        <time>2012-07-22T08:49:56Z</time>
      </trkpt>
      <trkpt lat="46.9288" lon="-0.53569">
        <ele>112.4</ele>
        <time>2012-07-22T08:49:58Z</time>
      </trkpt>
      <trkpt lat="46.92873" lon="-0.53572">
        <ele>112.5</ele>
        <time>2012-07-22T08:50:00Z</time>
      </trkpt>
      <trkpt lat="46.92867" lon="-0.53574">
        <ele>112.8</ele>
        <time>2012-07-22T08:50:02Z</time>
      </trkpt>
      <trkpt lat="46.92859" lon="-0.53577">
        <ele>113</ele>
        <time>2012-07-22T08:50:05Z</time>
      </trkpt>
      <trkpt lat="46.92851" lon="-0.53581">
        <ele>113.4</ele>
        <time>2012-07-22T08:50:09Z</time>
      </trkpt>
      <trkpt lat="46.92843" lon="-0.53583">
        <ele>113.5</ele>
        <time>2012-07-22T08:50:11Z</time>
      </trkpt>
      <trkpt lat="46.92837" lon="-0.53585">
        <ele>113.9</ele>
        <time>2012-07-22T08:50:13Z</time>
      </trkpt>
      <trkpt lat="46.9283" lon="-0.53587">
        <ele>114</ele>
        <time>2012-07-22T08:50:15Z</time>
      </trkpt>
      <trkpt lat="46.92823" lon="-0.5359">
        <ele>114</ele>
        <time>2012-07-22T08:50:17Z</time>
      </trkpt>
      <trkpt lat="46.92816" lon="-0.53593">
        <ele>114.4</ele>
        <time>2012-07-22T08:50:19Z</time>
      </trkpt>
      <trkpt lat="46.92809" lon="-0.53595">
        <ele>114.5</ele>
        <time>2012-07-22T08:50:21Z</time>
      </trkpt>
      <trkpt lat="46.92802" lon="-0.53597">
        <ele>114.5</ele>
        <time>2012-07-22T08:50:23Z</time>
      </trkpt>
      <trkpt lat="46.92794" lon="-0.53599">
        <ele>114.5</ele>
        <time>2012-07-22T08:50:25Z</time>
      </trkpt>
      <trkpt lat="46.92787" lon="-0.53601">
        <ele>114.8</ele>
        <time>2012-07-22T08:50:27Z</time>
      </trkpt>
      <trkpt lat="46.9278" lon="-0.53603">
        <ele>114.9</ele>
        <time>2012-07-22T08:50:29Z</time>
      </trkpt>
      <trkpt lat="46.92773" lon="-0.53605">
        <ele>114.9</ele>
        <time>2012-07-22T08:50:31Z</time>
      </trkpt>
      <trkpt lat="46.92765" lon="-0.53608">
        <ele>114.5</ele>
        <time>2012-07-22T08:50:33Z</time>
      </trkpt>
      <trkpt lat="46.9276" lon="-0.53607">
        <ele>114.5</ele>
        <time>2012-07-22T08:50:34Z</time>
      </trkpt>
      <trkpt lat="46.92755" lon="-0.53606">
        <ele>114.5</ele>
        <time>2012-07-22T08:50:35Z</time>
      </trkpt>
      <trkpt lat="46.9275" lon="-0.53602">
        <ele>114.4</ele>
        <time>2012-07-22T08:50:36Z</time>
      </trkpt>
      <trkpt lat="46.92744" lon="-0.53598">
        <ele>114.3</ele>
        <time>2012-07-22T08:50:37Z</time>
      </trkpt>
      <trkpt lat="46.92739" lon="-0.53594">
        <ele>114</ele>
        <time>2012-07-22T08:50:38Z</time>
      </trkpt>
      <trkpt lat="46.92734" lon="-0.5359">
        <ele>113.9</ele>
        <time>2012-07-22T08:50:39Z</time>
      </trkpt>
      <trkpt lat="46.92727" lon="-0.53587">
        <ele>113.8</ele>
        <time>2012-07-22T08:50:44Z</time>
      </trkpt>
      <trkpt lat="46.92719" lon="-0.53591">
        <ele>114</ele>
        <time>2012-07-22T08:50:47Z</time>
      </trkpt>
      <trkpt lat="46.9272" lon="-0.53601">
        <ele>114.3</ele>
        <time>2012-07-22T08:50:49Z</time>
      </trkpt>
      <trkpt lat="46.92721" lon="-0.53605">
        <ele>114.4</ele>
        <time>2012-07-22T08:50:50Z</time>
      </trkpt>
      <trkpt lat="46.92726" lon="-0.5362">
        <ele>114.8</ele>
        <time>2012-07-22T08:50:54Z</time>
      </trkpt>
      <trkpt lat="46.92728" lon="-0.53631">
        <ele>115</ele>
        <time>2012-07-22T08:50:56Z</time>
      </trkpt>
      <trkpt lat="46.9273" lon="-0.53643">
        <ele>118</ele>
        <time>2012-07-22T08:50:58Z</time>
      </trkpt>
      <trkpt lat="46.92731" lon="-0.53655">
        <ele>119.5</ele>
        <time>2012-07-22T08:51:00Z</time>
      </trkpt>
      <trkpt lat="46.92733" lon="-0.53668">
        <ele>120.5</ele>
        <time>2012-07-22T08:51:02Z</time>
      </trkpt>
      <trkpt lat="46.92733" lon="-0.53675">
        <ele>121</ele>
        <time>2012-07-22T08:51:03Z</time>
      </trkpt>
      <trkpt lat="46.92734" lon="-0.53682">
        <ele>121.5</ele>
        <time>2012-07-22T08:51:04Z</time>
      </trkpt>
      <trkpt lat="46.92734" lon="-0.53689">
        <ele>121.8</ele>
        <time>2012-07-22T08:51:05Z</time>
      </trkpt>
      <trkpt lat="46.92735" lon="-0.53696">
        <ele>122</ele>
        <time>2012-07-22T08:51:06Z</time>
      </trkpt>
      <trkpt lat="46.92736" lon="-0.53703">
        <ele>122.3</ele>
        <time>2012-07-22T08:51:07Z</time>
      </trkpt>
      <trkpt lat="46.92737" lon="-0.53709">
        <ele>122.5</ele>
        <time>2012-07-22T08:51:08Z</time>
      </trkpt>
      <trkpt lat="46.92739" lon="-0.53721">
        <ele>123</ele>
        <time>2012-07-22T08:51:10Z</time>
      </trkpt>
      <trkpt lat="46.92741" lon="-0.53728">
        <ele>123</ele>
        <time>2012-07-22T08:51:11Z</time>
      </trkpt>
      <trkpt lat="46.92742" lon="-0.53735">
        <ele>123</ele>
        <time>2012-07-22T08:51:12Z</time>
      </trkpt>
      <trkpt lat="46.92743" lon="-0.53742">
        <ele>123</ele>
        <time>2012-07-22T08:51:13Z</time>
      </trkpt>
      <trkpt lat="46.92745" lon="-0.53748">
        <ele>123</ele>
        <time>2012-07-22T08:51:14Z</time>
      </trkpt>
      <trkpt lat="46.92747" lon="-0.53755">
        <ele>123</ele>
        <time>2012-07-22T08:51:15Z</time>
      </trkpt>
      <trkpt lat="46.92749" lon="-0.53762">
        <ele>122.8</ele>
        <time>2012-07-22T08:51:16Z</time>
      </trkpt>
      <trkpt lat="46.9275" lon="-0.53769">
        <ele>122.5</ele>
        <time>2012-07-22T08:51:17Z</time>
      </trkpt>
      <trkpt lat="46.92752" lon="-0.53776">
        <ele>122.9</ele>
        <time>2012-07-22T08:51:18Z</time>
      </trkpt>
      <trkpt lat="46.92754" lon="-0.53783">
        <ele>123</ele>
        <time>2012-07-22T08:51:19Z</time>
      </trkpt>
      <trkpt lat="46.92757" lon="-0.5379">
        <ele>123</ele>
        <time>2012-07-22T08:51:20Z</time>
      </trkpt>
      <trkpt lat="46.92759" lon="-0.53797">
        <ele>123</ele>
        <time>2012-07-22T08:51:21Z</time>
      </trkpt>
      <trkpt lat="46.92761" lon="-0.53805">
        <ele>123</ele>
        <time>2012-07-22T08:51:22Z</time>
      </trkpt>
      <trkpt lat="46.92763" lon="-0.53812">
        <ele>123</ele>
        <time>2012-07-22T08:51:23Z</time>
      </trkpt>
      <trkpt lat="46.92765" lon="-0.5382">
        <ele>123.3</ele>
        <time>2012-07-22T08:51:24Z</time>
      </trkpt>
      <trkpt lat="46.92767" lon="-0.53827">
        <ele>123.4</ele>
        <time>2012-07-22T08:51:25Z</time>
      </trkpt>
      <trkpt lat="46.92769" lon="-0.53834">
        <ele>123.4</ele>
        <time>2012-07-22T08:51:26Z</time>
      </trkpt>
      <trkpt lat="46.92771" lon="-0.53841">
        <ele>123.4</ele>
        <time>2012-07-22T08:51:27Z</time>
      </trkpt>
      <trkpt lat="46.92773" lon="-0.53848">
        <ele>123.4</ele>
        <time>2012-07-22T08:51:28Z</time>
      </trkpt>
      <trkpt lat="46.92774" lon="-0.53856">
        <ele>123.4</ele>
        <time>2012-07-22T08:51:29Z</time>
      </trkpt>
      <trkpt lat="46.92776" lon="-0.53865">
        <ele>123.4</ele>
        <time>2012-07-22T08:51:30Z</time>
      </trkpt>
      <trkpt lat="46.92778" lon="-0.53873">
        <ele>123.4</ele>
        <time>2012-07-22T08:51:31Z</time>
      </trkpt>
      <trkpt lat="46.9278" lon="-0.53882">
        <ele>123.4</ele>
        <time>2012-07-22T08:51:32Z</time>
      </trkpt>
      <trkpt lat="46.92781" lon="-0.53891">
        <ele>123.5</ele>
        <time>2012-07-22T08:51:33Z</time>
      </trkpt>
      <trkpt lat="46.92782" lon="-0.539">
        <ele>123.5</ele>
        <time>2012-07-22T08:51:34Z</time>
      </trkpt>
      <trkpt lat="46.92784" lon="-0.5391">
        <ele>123.8</ele>
        <time>2012-07-22T08:51:35Z</time>
      </trkpt>
      <trkpt lat="46.92785" lon="-0.5392">
        <ele>123.9</ele>
        <time>2012-07-22T08:51:36Z</time>
      </trkpt>
      <trkpt lat="46.92786" lon="-0.5393">
        <ele>124</ele>
        <time>2012-07-22T08:51:37Z</time>
      </trkpt>
      <trkpt lat="46.92787" lon="-0.5394">
        <ele>124.3</ele>
        <time>2012-07-22T08:51:38Z</time>
      </trkpt>
      <trkpt lat="46.92788" lon="-0.53949">
        <ele>124.3</ele>
        <time>2012-07-22T08:51:39Z</time>
      </trkpt>
      <trkpt lat="46.92789" lon="-0.53957">
        <ele>124.4</ele>
        <time>2012-07-22T08:51:40Z</time>
      </trkpt>
      <trkpt lat="46.9279" lon="-0.5397">
        <ele>124.5</ele>
        <time>2012-07-22T08:51:42Z</time>
      </trkpt>
      <trkpt lat="46.92791" lon="-0.53979">
        <ele>124.5</ele>
        <time>2012-07-22T08:51:44Z</time>
      </trkpt>
      <trkpt lat="46.92793" lon="-0.53988">
        <ele>124.5</ele>
        <time>2012-07-22T08:51:46Z</time>
      </trkpt>
      <trkpt lat="46.92794" lon="-0.53997">
        <ele>124.5</ele>
        <time>2012-07-22T08:51:48Z</time>
      </trkpt>
      <trkpt lat="46.92795" lon="-0.54001">
        <ele>124.5</ele>
        <time>2012-07-22T08:51:53Z</time>
      </trkpt>
      <trkpt lat="46.92797" lon="-0.54011">
        <ele>124.8</ele>
        <time>2012-07-22T08:51:54Z</time>
      </trkpt>
      <trkpt lat="46.92799" lon="-0.54018">
        <ele>124.5</ele>
        <time>2012-07-22T08:52:01Z</time>
      </trkpt>
      <trkpt lat="46.92797" lon="-0.54026">
        <ele>124.5</ele>
        <time>2012-07-22T08:52:17Z</time>
      </trkpt>
      <trkpt lat="46.92797" lon="-0.54039">
        <ele>124.4</ele>
        <time>2012-07-22T08:52:23Z</time>
      </trkpt>
      <trkpt lat="46.928" lon="-0.54051">
        <ele>124</ele>
        <time>2012-07-22T08:52:27Z</time>
      </trkpt>
      <trkpt lat="46.92802" lon="-0.54062">
        <ele>124</ele>
        <time>2012-07-22T08:52:30Z</time>
      </trkpt>
      <trkpt lat="46.92804" lon="-0.54071">
        <ele>124</ele>
        <time>2012-07-22T08:52:32Z</time>
      </trkpt>
      <trkpt lat="46.92806" lon="-0.5408">
        <ele>123.9</ele>
        <time>2012-07-22T08:52:34Z</time>
      </trkpt>
      <trkpt lat="46.92808" lon="-0.54089">
        <ele>123.8</ele>
        <time>2012-07-22T08:52:36Z</time>
      </trkpt>
      <trkpt lat="46.9281" lon="-0.54099">
        <ele>123.5</ele>
        <time>2012-07-22T08:52:38Z</time>
      </trkpt>
      <trkpt lat="46.92813" lon="-0.5411">
        <ele>123</ele>
        <time>2012-07-22T08:52:40Z</time>
      </trkpt>
      <trkpt lat="46.92815" lon="-0.54123">
        <ele>122.3</ele>
        <time>2012-07-22T08:52:42Z</time>
      </trkpt>
      <trkpt lat="46.92817" lon="-0.5413">
        <ele>122</ele>
        <time>2012-07-22T08:52:43Z</time>
      </trkpt>
      <trkpt lat="46.92818" lon="-0.54136">
        <ele>121.8</ele>
        <time>2012-07-22T08:52:44Z</time>
      </trkpt>
      <trkpt lat="46.9282" lon="-0.54143">
        <ele>121.5</ele>
        <time>2012-07-22T08:52:45Z</time>
      </trkpt>
      <trkpt lat="46.92822" lon="-0.5415">
        <ele>121.4</ele>
        <time>2012-07-22T08:52:46Z</time>
      </trkpt>
      <trkpt lat="46.92823" lon="-0.54158">
        <ele>121</ele>
        <time>2012-07-22T08:52:47Z</time>
      </trkpt>
      <trkpt lat="46.92825" lon="-0.54165">
        <ele>121</ele>
        <time>2012-07-22T08:52:48Z</time>
      </trkpt>
      <trkpt lat="46.92827" lon="-0.54173">
        <ele>120.9</ele>
        <time>2012-07-22T08:52:49Z</time>
      </trkpt>
      <trkpt lat="46.92829" lon="-0.5418">
        <ele>120.5</ele>
        <time>2012-07-22T08:52:50Z</time>
      </trkpt>
      <trkpt lat="46.9283" lon="-0.54188">
        <ele>120.5</ele>
        <time>2012-07-22T08:52:51Z</time>
      </trkpt>
      <trkpt lat="46.92832" lon="-0.54196">
        <ele>120.4</ele>
        <time>2012-07-22T08:52:52Z</time>
      </trkpt>
      <trkpt lat="46.92834" lon="-0.54204">
        <ele>120</ele>
        <time>2012-07-22T08:52:53Z</time>
      </trkpt>
      <trkpt lat="46.92836" lon="-0.54212">
        <ele>120</ele>
        <time>2012-07-22T08:52:54Z</time>
      </trkpt>
      <trkpt lat="46.92838" lon="-0.5422">
        <ele>119.8</ele>
        <time>2012-07-22T08:52:55Z</time>
      </trkpt>
      <trkpt lat="46.92839" lon="-0.54228">
        <ele>119.5</ele>
        <time>2012-07-22T08:52:56Z</time>
      </trkpt>
      <trkpt lat="46.92841" lon="-0.54236">
        <ele>119.4</ele>
        <time>2012-07-22T08:52:57Z</time>
      </trkpt>
      <trkpt lat="46.92842" lon="-0.54243">
        <ele>119</ele>
        <time>2012-07-22T08:52:58Z</time>
      </trkpt>
      <trkpt lat="46.92844" lon="-0.54249">
        <ele>118.8</ele>
        <time>2012-07-22T08:52:59Z</time>
      </trkpt>
      <trkpt lat="46.92845" lon="-0.54256">
        <ele>118.5</ele>
        <time>2012-07-22T08:53:00Z</time>
      </trkpt>
      <trkpt lat="46.92847" lon="-0.54262">
        <ele>118.4</ele>
        <time>2012-07-22T08:53:01Z</time>
      </trkpt>
      <trkpt lat="46.92849" lon="-0.54269">
        <ele>118</ele>
        <time>2012-07-22T08:53:02Z</time>
      </trkpt>
      <trkpt lat="46.9285" lon="-0.54277">
        <ele>118</ele>
        <time>2012-07-22T08:53:03Z</time>
      </trkpt>
      <trkpt lat="46.92852" lon="-0.54284">
        <ele>117.8</ele>
        <time>2012-07-22T08:53:04Z</time>
      </trkpt>
      <trkpt lat="46.92854" lon="-0.54292">
        <ele>117.5</ele>
        <time>2012-07-22T08:53:05Z</time>
      </trkpt>
      <trkpt lat="46.92855" lon="-0.543">
        <ele>117.5</ele>
        <time>2012-07-22T08:53:06Z</time>
      </trkpt>
      <trkpt lat="46.92857" lon="-0.54307">
        <ele>117.5</ele>
        <time>2012-07-22T08:53:07Z</time>
      </trkpt>
      <trkpt lat="46.92859" lon="-0.54315">
        <ele>117.3</ele>
        <time>2012-07-22T08:53:08Z</time>
      </trkpt>
      <trkpt lat="46.92861" lon="-0.54322">
        <ele>117</ele>
        <time>2012-07-22T08:53:09Z</time>
      </trkpt>
      <trkpt lat="46.92862" lon="-0.54329">
        <ele>117</ele>
        <time>2012-07-22T08:53:10Z</time>
      </trkpt>
      <trkpt lat="46.92864" lon="-0.54336">
        <ele>117</ele>
        <time>2012-07-22T08:53:11Z</time>
      </trkpt>
      <trkpt lat="46.92865" lon="-0.54342">
        <ele>116.9</ele>
        <time>2012-07-22T08:53:12Z</time>
      </trkpt>
      <trkpt lat="46.92867" lon="-0.54349">
        <ele>116.8</ele>
        <time>2012-07-22T08:53:13Z</time>
      </trkpt>
      <trkpt lat="46.9287" lon="-0.54361">
        <ele>116.5</ele>
        <time>2012-07-22T08:53:15Z</time>
      </trkpt>
      <trkpt lat="46.92872" lon="-0.54373">
        <ele>116.5</ele>
        <time>2012-07-22T08:53:17Z</time>
      </trkpt>
      <trkpt lat="46.92874" lon="-0.54385">
        <ele>116.9</ele>
        <time>2012-07-22T08:53:19Z</time>
      </trkpt>
      <trkpt lat="46.92876" lon="-0.54397">
        <ele>117</ele>
        <time>2012-07-22T08:53:21Z</time>
      </trkpt>
      <trkpt lat="46.92878" lon="-0.54409">
        <ele>117.3</ele>
        <time>2012-07-22T08:53:23Z</time>
      </trkpt>
      <trkpt lat="46.92881" lon="-0.54419">
        <ele>117.3</ele>
        <time>2012-07-22T08:53:25Z</time>
      </trkpt>
      <trkpt lat="46.92883" lon="-0.5443">
        <ele>117.4</ele>
        <time>2012-07-22T08:53:27Z</time>
      </trkpt>
      <trkpt lat="46.92885" lon="-0.54441">
        <ele>117.4</ele>
        <time>2012-07-22T08:53:29Z</time>
      </trkpt>
      <trkpt lat="46.92888" lon="-0.54453">
        <ele>117.4</ele>
        <time>2012-07-22T08:53:31Z</time>
      </trkpt>
      <trkpt lat="46.9289" lon="-0.54465">
        <ele>117.3</ele>
        <time>2012-07-22T08:53:33Z</time>
      </trkpt>
      <trkpt lat="46.92893" lon="-0.54477">
        <ele>117</ele>
        <time>2012-07-22T08:53:35Z</time>
      </trkpt>
      <trkpt lat="46.92896" lon="-0.54489">
        <ele>116.9</ele>
        <time>2012-07-22T08:53:37Z</time>
      </trkpt>
      <trkpt lat="46.92899" lon="-0.54501">
        <ele>116.5</ele>
        <time>2012-07-22T08:53:39Z</time>
      </trkpt>
      <trkpt lat="46.929" lon="-0.54508">
        <ele>116.5</ele>
        <time>2012-07-22T08:53:40Z</time>
      </trkpt>
      <trkpt lat="46.92902" lon="-0.54514">
        <ele>116.4</ele>
        <time>2012-07-22T08:53:41Z</time>
      </trkpt>
      <trkpt lat="46.92903" lon="-0.54521">
        <ele>116.3</ele>
        <time>2012-07-22T08:53:42Z</time>
      </trkpt>
      <trkpt lat="46.92905" lon="-0.54528">
        <ele>116</ele>
        <time>2012-07-22T08:53:43Z</time>
      </trkpt>
      <trkpt lat="46.92906" lon="-0.54535">
        <ele>116</ele>
        <time>2012-07-22T08:53:44Z</time>
      </trkpt>
      <trkpt lat="46.92908" lon="-0.54542">
        <ele>116</ele>
        <time>2012-07-22T08:53:45Z</time>
      </trkpt>
      <trkpt lat="46.92909" lon="-0.54549">
        <ele>116</ele>
        <time>2012-07-22T08:53:46Z</time>
      </trkpt>
      <trkpt lat="46.92911" lon="-0.54556">
        <ele>115.9</ele>
        <time>2012-07-22T08:53:47Z</time>
      </trkpt>
      <trkpt lat="46.92912" lon="-0.54564">
        <ele>115.8</ele>
        <time>2012-07-22T08:53:48Z</time>
      </trkpt>
      <trkpt lat="46.92914" lon="-0.54571">
        <ele>115.8</ele>
        <time>2012-07-22T08:53:49Z</time>
      </trkpt>
      <trkpt lat="46.92916" lon="-0.54579">
        <ele>115.5</ele>
        <time>2012-07-22T08:53:50Z</time>
      </trkpt>
      <trkpt lat="46.92917" lon="-0.54586">
        <ele>115.5</ele>
        <time>2012-07-22T08:53:51Z</time>
      </trkpt>
      <trkpt lat="46.92919" lon="-0.54594">
        <ele>115.5</ele>
        <time>2012-07-22T08:53:52Z</time>
      </trkpt>
      <trkpt lat="46.9292" lon="-0.54601">
        <ele>115.5</ele>
        <time>2012-07-22T08:53:53Z</time>
      </trkpt>
      <trkpt lat="46.92922" lon="-0.54609">
        <ele>115.5</ele>
        <time>2012-07-22T08:53:54Z</time>
      </trkpt>
      <trkpt lat="46.92924" lon="-0.54616">
        <ele>115.4</ele>
        <time>2012-07-22T08:53:55Z</time>
      </trkpt>
      <trkpt lat="46.92925" lon="-0.54624">
        <ele>115.4</ele>
        <time>2012-07-22T08:53:56Z</time>
      </trkpt>
      <trkpt lat="46.92927" lon="-0.54632">
        <ele>115.5</ele>
        <time>2012-07-22T08:53:57Z</time>
      </trkpt>
      <trkpt lat="46.92929" lon="-0.54639">
        <ele>115.5</ele>
        <time>2012-07-22T08:53:58Z</time>
      </trkpt>
      <trkpt lat="46.92931" lon="-0.54647">
        <ele>115.5</ele>
        <time>2012-07-22T08:53:59Z</time>
      </trkpt>
      <trkpt lat="46.92932" lon="-0.54655">
        <ele>115.5</ele>
        <time>2012-07-22T08:54:00Z</time>
      </trkpt>
      <trkpt lat="46.92934" lon="-0.54662">
        <ele>115.5</ele>
        <time>2012-07-22T08:54:01Z</time>
      </trkpt>
      <trkpt lat="46.92936" lon="-0.5467">
        <ele>115.5</ele>
        <time>2012-07-22T08:54:02Z</time>
      </trkpt>
      <trkpt lat="46.92937" lon="-0.54678">
        <ele>115.5</ele>
        <time>2012-07-22T08:54:03Z</time>
      </trkpt>
      <trkpt lat="46.92939" lon="-0.54686">
        <ele>115.5</ele>
        <time>2012-07-22T08:54:04Z</time>
      </trkpt>
      <trkpt lat="46.92941" lon="-0.54694">
        <ele>115.5</ele>
        <time>2012-07-22T08:54:05Z</time>
      </trkpt>
      <trkpt lat="46.92942" lon="-0.54702">
        <ele>115.5</ele>
        <time>2012-07-22T08:54:06Z</time>
      </trkpt>
      <trkpt lat="46.92944" lon="-0.5471">
        <ele>115.4</ele>
        <time>2012-07-22T08:54:07Z</time>
      </trkpt>
      <trkpt lat="46.92946" lon="-0.54717">
        <ele>115.4</ele>
        <time>2012-07-22T08:54:08Z</time>
      </trkpt>
      <trkpt lat="46.92948" lon="-0.54725">
        <ele>115.4</ele>
        <time>2012-07-22T08:54:09Z</time>
      </trkpt>
      <trkpt lat="46.9295" lon="-0.54733">
        <ele>115.4</ele>
        <time>2012-07-22T08:54:10Z</time>
      </trkpt>
      <trkpt lat="46.92952" lon="-0.54741">
        <ele>115.4</ele>
        <time>2012-07-22T08:54:11Z</time>
      </trkpt>
      <trkpt lat="46.92953" lon="-0.54748">
        <ele>115.3</ele>
        <time>2012-07-22T08:54:12Z</time>
      </trkpt>
      <trkpt lat="46.92955" lon="-0.54755">
        <ele>115.3</ele>
        <time>2012-07-22T08:54:13Z</time>
      </trkpt>
      <trkpt lat="46.92957" lon="-0.54763">
        <ele>115</ele>
        <time>2012-07-22T08:54:14Z</time>
      </trkpt>
      <trkpt lat="46.92958" lon="-0.5477">
        <ele>115</ele>
        <time>2012-07-22T08:54:15Z</time>
      </trkpt>
      <trkpt lat="46.92959" lon="-0.54778">
        <ele>115</ele>
        <time>2012-07-22T08:54:16Z</time>
      </trkpt>
      <trkpt lat="46.92961" lon="-0.54786">
        <ele>115</ele>
        <time>2012-07-22T08:54:17Z</time>
      </trkpt>
      <trkpt lat="46.92962" lon="-0.54795">
        <ele>114.9</ele>
        <time>2012-07-22T08:54:18Z</time>
      </trkpt>
      <trkpt lat="46.92964" lon="-0.54803">
        <ele>114.8</ele>
        <time>2012-07-22T08:54:19Z</time>
      </trkpt>
      <trkpt lat="46.92966" lon="-0.54811">
        <ele>114.5</ele>
        <time>2012-07-22T08:54:20Z</time>
      </trkpt>
      <trkpt lat="46.92968" lon="-0.5482">
        <ele>114.5</ele>
        <time>2012-07-22T08:54:21Z</time>
      </trkpt>
      <trkpt lat="46.9297" lon="-0.54828">
        <ele>114.5</ele>
        <time>2012-07-22T08:54:22Z</time>
      </trkpt>
      <trkpt lat="46.92972" lon="-0.54837">
        <ele>114.5</ele>
        <time>2012-07-22T08:54:23Z</time>
      </trkpt>
      <trkpt lat="46.92974" lon="-0.54845">
        <ele>114.5</ele>
        <time>2012-07-22T08:54:24Z</time>
      </trkpt>
      <trkpt lat="46.92976" lon="-0.54853">
        <ele>114.5</ele>
        <time>2012-07-22T08:54:25Z</time>
      </trkpt>
      <trkpt lat="46.92978" lon="-0.54862">
        <ele>114.4</ele>
        <time>2012-07-22T08:54:26Z</time>
      </trkpt>
      <trkpt lat="46.9298" lon="-0.54871">
        <ele>114.3</ele>
        <time>2012-07-22T08:54:27Z</time>
      </trkpt>
      <trkpt lat="46.92982" lon="-0.54879">
        <ele>114</ele>
        <time>2012-07-22T08:54:28Z</time>
      </trkpt>
      <trkpt lat="46.92984" lon="-0.54888">
        <ele>114</ele>
        <time>2012-07-22T08:54:29Z</time>
      </trkpt>
      <trkpt lat="46.92986" lon="-0.54898">
        <ele>113.9</ele>
        <time>2012-07-22T08:54:30Z</time>
      </trkpt>
      <trkpt lat="46.92988" lon="-0.54907">
        <ele>113.5</ele>
        <time>2012-07-22T08:54:31Z</time>
      </trkpt>
      <trkpt lat="46.9299" lon="-0.54917">
        <ele>113.5</ele>
        <time>2012-07-22T08:54:32Z</time>
      </trkpt>
      <trkpt lat="46.92993" lon="-0.54926">
        <ele>113.5</ele>
        <time>2012-07-22T08:54:33Z</time>
      </trkpt>
      <trkpt lat="46.92995" lon="-0.54936">
        <ele>113.4</ele>
        <time>2012-07-22T08:54:34Z</time>
      </trkpt>
      <trkpt lat="46.92997" lon="-0.54945">
        <ele>113</ele>
        <time>2012-07-22T08:54:35Z</time>
      </trkpt>
      <trkpt lat="46.92999" lon="-0.54955">
        <ele>113</ele>
        <time>2012-07-22T08:54:36Z</time>
      </trkpt>
      <trkpt lat="46.93001" lon="-0.54964">
        <ele>112.8</ele>
        <time>2012-07-22T08:54:37Z</time>
      </trkpt>
      <trkpt lat="46.93003" lon="-0.54974">
        <ele>112.5</ele>
        <time>2012-07-22T08:54:38Z</time>
      </trkpt>
      <trkpt lat="46.93005" lon="-0.54984">
        <ele>112.5</ele>
        <time>2012-07-22T08:54:39Z</time>
      </trkpt>
      <trkpt lat="46.93007" lon="-0.54993">
        <ele>112.5</ele>
        <time>2012-07-22T08:54:40Z</time>
      </trkpt>
      <trkpt lat="46.93009" lon="-0.55002">
        <ele>112.5</ele>
        <time>2012-07-22T08:54:41Z</time>
      </trkpt>
      <trkpt lat="46.93011" lon="-0.55011">
        <ele>112.5</ele>
        <time>2012-07-22T08:54:42Z</time>
      </trkpt>
      <trkpt lat="46.93013" lon="-0.5502">
        <ele>112.5</ele>
        <time>2012-07-22T08:54:43Z</time>
      </trkpt>
      <trkpt lat="46.93015" lon="-0.55029">
        <ele>112.5</ele>
        <time>2012-07-22T08:54:44Z</time>
      </trkpt>
      <trkpt lat="46.93017" lon="-0.55038">
        <ele>112.5</ele>
        <time>2012-07-22T08:54:45Z</time>
      </trkpt>
      <trkpt lat="46.93019" lon="-0.55046">
        <ele>112.5</ele>
        <time>2012-07-22T08:54:46Z</time>
      </trkpt>
      <trkpt lat="46.9302" lon="-0.55055">
        <ele>112.5</ele>
        <time>2012-07-22T08:54:47Z</time>
      </trkpt>
      <trkpt lat="46.93022" lon="-0.55064">
        <ele>112.5</ele>
        <time>2012-07-22T08:54:48Z</time>
      </trkpt>
      <trkpt lat="46.93024" lon="-0.55073">
        <ele>112.5</ele>
        <time>2012-07-22T08:54:49Z</time>
      </trkpt>
      <trkpt lat="46.93026" lon="-0.55082">
        <ele>112.8</ele>
        <time>2012-07-22T08:54:50Z</time>
      </trkpt>
      <trkpt lat="46.93028" lon="-0.5509">
        <ele>112.8</ele>
        <time>2012-07-22T08:54:51Z</time>
      </trkpt>
      <trkpt lat="46.9303" lon="-0.551">
        <ele>113</ele>
        <time>2012-07-22T08:54:52Z</time>
      </trkpt>
      <trkpt lat="46.93032" lon="-0.55109">
        <ele>113.3</ele>
        <time>2012-07-22T08:54:53Z</time>
      </trkpt>
      <trkpt lat="46.93034" lon="-0.55118">
        <ele>113.5</ele>
        <time>2012-07-22T08:54:54Z</time>
      </trkpt>
      <trkpt lat="46.93035" lon="-0.55128">
        <ele>113.8</ele>
        <time>2012-07-22T08:54:55Z</time>
      </trkpt>
      <trkpt lat="46.93037" lon="-0.55137">
        <ele>114</ele>
        <time>2012-07-22T08:54:56Z</time>
      </trkpt>
      <trkpt lat="46.93038" lon="-0.55147">
        <ele>114</ele>
        <time>2012-07-22T08:54:57Z</time>
      </trkpt>
      <trkpt lat="46.9304" lon="-0.55156">
        <ele>114.4</ele>
        <time>2012-07-22T08:54:58Z</time>
      </trkpt>
      <trkpt lat="46.93042" lon="-0.55165">
        <ele>114.5</ele>
        <time>2012-07-22T08:54:59Z</time>
      </trkpt>
      <trkpt lat="46.93044" lon="-0.55174">
        <ele>114.5</ele>
        <time>2012-07-22T08:55:00Z</time>
      </trkpt>
      <trkpt lat="46.93046" lon="-0.55183">
        <ele>114.8</ele>
        <time>2012-07-22T08:55:01Z</time>
      </trkpt>
      <trkpt lat="46.93048" lon="-0.55192">
        <ele>115</ele>
        <time>2012-07-22T08:55:02Z</time>
      </trkpt>
      <trkpt lat="46.9305" lon="-0.55201">
        <ele>115.3</ele>
        <time>2012-07-22T08:55:03Z</time>
      </trkpt>
      <trkpt lat="46.93053" lon="-0.55209">
        <ele>115.5</ele>
        <time>2012-07-22T08:55:04Z</time>
      </trkpt>
      <trkpt lat="46.93055" lon="-0.55218">
        <ele>115.8</ele>
        <time>2012-07-22T08:55:05Z</time>
      </trkpt>
      <trkpt lat="46.93058" lon="-0.55227">
        <ele>116</ele>
        <time>2012-07-22T08:55:06Z</time>
      </trkpt>
      <trkpt lat="46.9306" lon="-0.55236">
        <ele>116.3</ele>
        <time>2012-07-22T08:55:07Z</time>
      </trkpt>
      <trkpt lat="46.93063" lon="-0.55245">
        <ele>116.5</ele>
        <time>2012-07-22T08:55:08Z</time>
      </trkpt>
      <trkpt lat="46.93065" lon="-0.55254">
        <ele>116.5</ele>
        <time>2012-07-22T08:55:09Z</time>
      </trkpt>
      <trkpt lat="46.93067" lon="-0.55263">
        <ele>116.9</ele>
        <time>2012-07-22T08:55:10Z</time>
      </trkpt>
      <trkpt lat="46.93069" lon="-0.55273">
        <ele>117</ele>
        <time>2012-07-22T08:55:11Z</time>
      </trkpt>
      <trkpt lat="46.93071" lon="-0.55282">
        <ele>117</ele>
        <time>2012-07-22T08:55:12Z</time>
      </trkpt>
      <trkpt lat="46.93074" lon="-0.55291">
        <ele>117</ele>
        <time>2012-07-22T08:55:13Z</time>
      </trkpt>
      <trkpt lat="46.93076" lon="-0.55301">
        <ele>117.3</ele>
        <time>2012-07-22T08:55:14Z</time>
      </trkpt>
      <trkpt lat="46.93078" lon="-0.5531">
        <ele>117.3</ele>
        <time>2012-07-22T08:55:15Z</time>
      </trkpt>
      <trkpt lat="46.9308" lon="-0.5532">
        <ele>117.4</ele>
        <time>2012-07-22T08:55:16Z</time>
      </trkpt>
      <trkpt lat="46.93082" lon="-0.55329">
        <ele>117.4</ele>
        <time>2012-07-22T08:55:17Z</time>
      </trkpt>
      <trkpt lat="46.93084" lon="-0.55338">
        <ele>117.4</ele>
        <time>2012-07-22T08:55:18Z</time>
      </trkpt>
      <trkpt lat="46.93086" lon="-0.55348">
        <ele>117.4</ele>
        <time>2012-07-22T08:55:19Z</time>
      </trkpt>
      <trkpt lat="46.93088" lon="-0.55357">
        <ele>117.4</ele>
        <time>2012-07-22T08:55:20Z</time>
      </trkpt>
      <trkpt lat="46.9309" lon="-0.55366">
        <ele>117.4</ele>
        <time>2012-07-22T08:55:21Z</time>
      </trkpt>
      <trkpt lat="46.93093" lon="-0.55375">
        <ele>117.3</ele>
        <time>2012-07-22T08:55:22Z</time>
      </trkpt>
      <trkpt lat="46.93095" lon="-0.55384">
        <ele>117.3</ele>
        <time>2012-07-22T08:55:23Z</time>
      </trkpt>
      <trkpt lat="46.93097" lon="-0.55394">
        <ele>117.3</ele>
        <time>2012-07-22T08:55:24Z</time>
      </trkpt>
      <trkpt lat="46.93098" lon="-0.55403">
        <ele>117</ele>
        <time>2012-07-22T08:55:25Z</time>
      </trkpt>
      <trkpt lat="46.931" lon="-0.55412">
        <ele>117</ele>
        <time>2012-07-22T08:55:26Z</time>
      </trkpt>
      <trkpt lat="46.93102" lon="-0.55421">
        <ele>117</ele>
        <time>2012-07-22T08:55:27Z</time>
      </trkpt>
      <trkpt lat="46.93104" lon="-0.55431">
        <ele>117</ele>
        <time>2012-07-22T08:55:28Z</time>
      </trkpt>
      <trkpt lat="46.93106" lon="-0.5544">
        <ele>117</ele>
        <time>2012-07-22T08:55:29Z</time>
      </trkpt>
      <trkpt lat="46.93108" lon="-0.55449">
        <ele>116.9</ele>
        <time>2012-07-22T08:55:30Z</time>
      </trkpt>
      <trkpt lat="46.9311" lon="-0.55459">
        <ele>116.9</ele>
        <time>2012-07-22T08:55:31Z</time>
      </trkpt>
      <trkpt lat="46.93112" lon="-0.55468">
        <ele>116.8</ele>
        <time>2012-07-22T08:55:32Z</time>
      </trkpt>
      <trkpt lat="46.93114" lon="-0.55477">
        <ele>116.8</ele>
        <time>2012-07-22T08:55:33Z</time>
      </trkpt>
      <trkpt lat="46.93116" lon="-0.55486">
        <ele>116.5</ele>
        <time>2012-07-22T08:55:34Z</time>
      </trkpt>
      <trkpt lat="46.93119" lon="-0.55494">
        <ele>116.5</ele>
        <time>2012-07-22T08:55:35Z</time>
      </trkpt>
      <trkpt lat="46.93121" lon="-0.55503">
        <ele>116.5</ele>
        <time>2012-07-22T08:55:36Z</time>
      </trkpt>
      <trkpt lat="46.93123" lon="-0.55512">
        <ele>116.5</ele>
        <time>2012-07-22T08:55:37Z</time>
      </trkpt>
      <trkpt lat="46.93125" lon="-0.55521">
        <ele>116.5</ele>
        <time>2012-07-22T08:55:38Z</time>
      </trkpt>
      <trkpt lat="46.93127" lon="-0.55529">
        <ele>116.4</ele>
        <time>2012-07-22T08:55:39Z</time>
      </trkpt>
      <trkpt lat="46.93129" lon="-0.55538">
        <ele>116.3</ele>
        <time>2012-07-22T08:55:40Z</time>
      </trkpt>
      <trkpt lat="46.93131" lon="-0.55546">
        <ele>116</ele>
        <time>2012-07-22T08:55:41Z</time>
      </trkpt>
      <trkpt lat="46.93133" lon="-0.55554">
        <ele>116</ele>
        <time>2012-07-22T08:55:42Z</time>
      </trkpt>
      <trkpt lat="46.93135" lon="-0.55562">
        <ele>116</ele>
        <time>2012-07-22T08:55:43Z</time>
      </trkpt>
      <trkpt lat="46.93137" lon="-0.5557">
        <ele>115.8</ele>
        <time>2012-07-22T08:55:44Z</time>
      </trkpt>
      <trkpt lat="46.93139" lon="-0.55579">
        <ele>115.5</ele>
        <time>2012-07-22T08:55:45Z</time>
      </trkpt>
      <trkpt lat="46.93141" lon="-0.55587">
        <ele>115.5</ele>
        <time>2012-07-22T08:55:46Z</time>
      </trkpt>
      <trkpt lat="46.93143" lon="-0.55596">
        <ele>115.4</ele>
        <time>2012-07-22T08:55:47Z</time>
      </trkpt>
      <trkpt lat="46.93145" lon="-0.55604">
        <ele>115.3</ele>
        <time>2012-07-22T08:55:48Z</time>
      </trkpt>
      <trkpt lat="46.93147" lon="-0.55613">
        <ele>115</ele>
        <time>2012-07-22T08:55:49Z</time>
      </trkpt>
      <trkpt lat="46.93149" lon="-0.55622">
        <ele>115</ele>
        <time>2012-07-22T08:55:50Z</time>
      </trkpt>
      <trkpt lat="46.93151" lon="-0.5563">
        <ele>115</ele>
        <time>2012-07-22T08:55:51Z</time>
      </trkpt>
      <trkpt lat="46.93153" lon="-0.55638">
        <ele>114.9</ele>
        <time>2012-07-22T08:55:52Z</time>
      </trkpt>
      <trkpt lat="46.93155" lon="-0.55647">
        <ele>114.8</ele>
        <time>2012-07-22T08:55:53Z</time>
      </trkpt>
      <trkpt lat="46.93157" lon="-0.55655">
        <ele>114.5</ele>
        <time>2012-07-22T08:55:54Z</time>
      </trkpt>
      <trkpt lat="46.93159" lon="-0.55663">
        <ele>114.5</ele>
        <time>2012-07-22T08:55:55Z</time>
      </trkpt>
      <trkpt lat="46.9316" lon="-0.55671">
        <ele>114.5</ele>
        <time>2012-07-22T08:55:56Z</time>
      </trkpt>
      <trkpt lat="46.93162" lon="-0.5568">
        <ele>114.4</ele>
        <time>2012-07-22T08:55:57Z</time>
      </trkpt>
      <trkpt lat="46.93164" lon="-0.55687">
        <ele>114.4</ele>
        <time>2012-07-22T08:55:58Z</time>
      </trkpt>
      <trkpt lat="46.93166" lon="-0.55695">
        <ele>114.3</ele>
        <time>2012-07-22T08:55:59Z</time>
      </trkpt>
      <trkpt lat="46.93167" lon="-0.55703">
        <ele>114</ele>
        <time>2012-07-22T08:56:00Z</time>
      </trkpt>
      <trkpt lat="46.93169" lon="-0.5571">
        <ele>114</ele>
        <time>2012-07-22T08:56:01Z</time>
      </trkpt>
      <trkpt lat="46.9317" lon="-0.55718">
        <ele>114</ele>
        <time>2012-07-22T08:56:02Z</time>
      </trkpt>
      <trkpt lat="46.93172" lon="-0.55726">
        <ele>113.9</ele>
        <time>2012-07-22T08:56:03Z</time>
      </trkpt>
      <trkpt lat="46.93173" lon="-0.55734">
        <ele>113.8</ele>
        <time>2012-07-22T08:56:04Z</time>
      </trkpt>
      <trkpt lat="46.93175" lon="-0.55742">
        <ele>113.5</ele>
        <time>2012-07-22T08:56:05Z</time>
      </trkpt>
      <trkpt lat="46.93177" lon="-0.5575">
        <ele>113.5</ele>
        <time>2012-07-22T08:56:06Z</time>
      </trkpt>
      <trkpt lat="46.93179" lon="-0.55758">
        <ele>113.5</ele>
        <time>2012-07-22T08:56:07Z</time>
      </trkpt>
      <trkpt lat="46.93181" lon="-0.55767">
        <ele>113.5</ele>
        <time>2012-07-22T08:56:08Z</time>
      </trkpt>
      <trkpt lat="46.93183" lon="-0.55776">
        <ele>113.4</ele>
        <time>2012-07-22T08:56:09Z</time>
      </trkpt>
      <trkpt lat="46.93184" lon="-0.55785">
        <ele>113.4</ele>
        <time>2012-07-22T08:56:10Z</time>
      </trkpt>
      <trkpt lat="46.93186" lon="-0.55794">
        <ele>113.3</ele>
        <time>2012-07-22T08:56:11Z</time>
      </trkpt>
      <trkpt lat="46.93188" lon="-0.55803">
        <ele>113.3</ele>
        <time>2012-07-22T08:56:12Z</time>
      </trkpt>
      <trkpt lat="46.9319" lon="-0.55812">
        <ele>113.3</ele>
        <time>2012-07-22T08:56:13Z</time>
      </trkpt>
      <trkpt lat="46.93192" lon="-0.55821">
        <ele>113.4</ele>
        <time>2012-07-22T08:56:14Z</time>
      </trkpt>
      <trkpt lat="46.93194" lon="-0.55831">
        <ele>113.5</ele>
        <time>2012-07-22T08:56:15Z</time>
      </trkpt>
      <trkpt lat="46.93195" lon="-0.5584">
        <ele>113.5</ele>
        <time>2012-07-22T08:56:16Z</time>
      </trkpt>
      <trkpt lat="46.93197" lon="-0.55849">
        <ele>113.5</ele>
        <time>2012-07-22T08:56:17Z</time>
      </trkpt>
      <trkpt lat="46.93199" lon="-0.55858">
        <ele>113.8</ele>
        <time>2012-07-22T08:56:18Z</time>
      </trkpt>
      <trkpt lat="46.93201" lon="-0.55868">
        <ele>113.9</ele>
        <time>2012-07-22T08:56:19Z</time>
      </trkpt>
      <trkpt lat="46.93203" lon="-0.55877">
        <ele>114</ele>
        <time>2012-07-22T08:56:20Z</time>
      </trkpt>
      <trkpt lat="46.93205" lon="-0.55886">
        <ele>114</ele>
        <time>2012-07-22T08:56:21Z</time>
      </trkpt>
      <trkpt lat="46.93207" lon="-0.55895">
        <ele>114</ele>
        <time>2012-07-22T08:56:22Z</time>
      </trkpt>
      <trkpt lat="46.93209" lon="-0.55904">
        <ele>114.3</ele>
        <time>2012-07-22T08:56:23Z</time>
      </trkpt>
      <trkpt lat="46.93211" lon="-0.55913">
        <ele>114.4</ele>
        <time>2012-07-22T08:56:24Z</time>
      </trkpt>
      <trkpt lat="46.93213" lon="-0.55921">
        <ele>114.4</ele>
        <time>2012-07-22T08:56:25Z</time>
      </trkpt>
      <trkpt lat="46.93215" lon="-0.5593">
        <ele>114.4</ele>
        <time>2012-07-22T08:56:26Z</time>
      </trkpt>
      <trkpt lat="46.93217" lon="-0.55938">
        <ele>114.3</ele>
        <time>2012-07-22T08:56:27Z</time>
      </trkpt>
      <trkpt lat="46.93219" lon="-0.55947">
        <ele>114</ele>
        <time>2012-07-22T08:56:28Z</time>
      </trkpt>
      <trkpt lat="46.93221" lon="-0.55956">
        <ele>114</ele>
        <time>2012-07-22T08:56:29Z</time>
      </trkpt>
      <trkpt lat="46.93223" lon="-0.55965">
        <ele>114</ele>
        <time>2012-07-22T08:56:30Z</time>
      </trkpt>
      <trkpt lat="46.93225" lon="-0.55974">
        <ele>113.9</ele>
        <time>2012-07-22T08:56:31Z</time>
      </trkpt>
      <trkpt lat="46.93227" lon="-0.55983">
        <ele>113.9</ele>
        <time>2012-07-22T08:56:32Z</time>
      </trkpt>
      <trkpt lat="46.93229" lon="-0.55991">
        <ele>113.9</ele>
        <time>2012-07-22T08:56:33Z</time>
      </trkpt>
      <trkpt lat="46.93232" lon="-0.56">
        <ele>113.8</ele>
        <time>2012-07-22T08:56:34Z</time>
      </trkpt>
      <trkpt lat="46.93234" lon="-0.56009">
        <ele>113.5</ele>
        <time>2012-07-22T08:56:35Z</time>
      </trkpt>
      <trkpt lat="46.93236" lon="-0.56018">
        <ele>113.4</ele>
        <time>2012-07-22T08:56:36Z</time>
      </trkpt>
      <trkpt lat="46.93238" lon="-0.56027">
        <ele>113.3</ele>
        <time>2012-07-22T08:56:37Z</time>
      </trkpt>
      <trkpt lat="46.9324" lon="-0.56036">
        <ele>113</ele>
        <time>2012-07-22T08:56:38Z</time>
      </trkpt>
      <trkpt lat="46.93242" lon="-0.56045">
        <ele>113</ele>
        <time>2012-07-22T08:56:39Z</time>
      </trkpt>
      <trkpt lat="46.93244" lon="-0.56054">
        <ele>113</ele>
        <time>2012-07-22T08:56:40Z</time>
      </trkpt>
      <trkpt lat="46.93246" lon="-0.56063">
        <ele>113</ele>
        <time>2012-07-22T08:56:41Z</time>
      </trkpt>
      <trkpt lat="46.93248" lon="-0.56071">
        <ele>112.9</ele>
        <time>2012-07-22T08:56:42Z</time>
      </trkpt>
      <trkpt lat="46.9325" lon="-0.56081">
        <ele>112.5</ele>
        <time>2012-07-22T08:56:43Z</time>
      </trkpt>
      <trkpt lat="46.93252" lon="-0.5609">
        <ele>112.5</ele>
        <time>2012-07-22T08:56:44Z</time>
      </trkpt>
      <trkpt lat="46.93254" lon="-0.56099">
        <ele>112</ele>
        <time>2012-07-22T08:56:45Z</time>
      </trkpt>
      <trkpt lat="46.93256" lon="-0.56108">
        <ele>111.9</ele>
        <time>2012-07-22T08:56:46Z</time>
      </trkpt>
      <trkpt lat="46.93258" lon="-0.56118">
        <ele>111.5</ele>
        <time>2012-07-22T08:56:47Z</time>
      </trkpt>
      <trkpt lat="46.9326" lon="-0.56128">
        <ele>111.3</ele>
        <time>2012-07-22T08:56:48Z</time>
      </trkpt>
      <trkpt lat="46.93262" lon="-0.56138">
        <ele>111</ele>
        <time>2012-07-22T08:56:49Z</time>
      </trkpt>
      <trkpt lat="46.93264" lon="-0.56148">
        <ele>110.9</ele>
        <time>2012-07-22T08:56:50Z</time>
      </trkpt>
      <trkpt lat="46.93267" lon="-0.56158">
        <ele>110.8</ele>
        <time>2012-07-22T08:56:51Z</time>
      </trkpt>
      <trkpt lat="46.93269" lon="-0.56168">
        <ele>110.8</ele>
        <time>2012-07-22T08:56:52Z</time>
      </trkpt>
      <trkpt lat="46.93271" lon="-0.56178">
        <ele>110.8</ele>
        <time>2012-07-22T08:56:53Z</time>
      </trkpt>
      <trkpt lat="46.93273" lon="-0.56188">
        <ele>110.8</ele>
        <time>2012-07-22T08:56:54Z</time>
      </trkpt>
      <trkpt lat="46.93275" lon="-0.56198">
        <ele>110.5</ele>
        <time>2012-07-22T08:56:55Z</time>
      </trkpt>
      <trkpt lat="46.93277" lon="-0.56207">
        <ele>110.8</ele>
        <time>2012-07-22T08:56:56Z</time>
      </trkpt>
      <trkpt lat="46.93279" lon="-0.56217">
        <ele>111</ele>
        <time>2012-07-22T08:56:57Z</time>
      </trkpt>
      <trkpt lat="46.93281" lon="-0.56227">
        <ele>111</ele>
        <time>2012-07-22T08:56:58Z</time>
      </trkpt>
      <trkpt lat="46.93283" lon="-0.56236">
        <ele>111.5</ele>
        <time>2012-07-22T08:56:59Z</time>
      </trkpt>
      <trkpt lat="46.93285" lon="-0.56246">
        <ele>111.8</ele>
        <time>2012-07-22T08:57:00Z</time>
      </trkpt>
      <trkpt lat="46.93287" lon="-0.56256">
        <ele>112.3</ele>
        <time>2012-07-22T08:57:01Z</time>
      </trkpt>
      <trkpt lat="46.93289" lon="-0.56266">
        <ele>113</ele>
        <time>2012-07-22T08:57:02Z</time>
      </trkpt>
      <trkpt lat="46.93291" lon="-0.56277">
        <ele>113.5</ele>
        <time>2012-07-22T08:57:03Z</time>
      </trkpt>
      <trkpt lat="46.93293" lon="-0.56287">
        <ele>114</ele>
        <time>2012-07-22T08:57:04Z</time>
      </trkpt>
      <trkpt lat="46.93295" lon="-0.56297">
        <ele>114.3</ele>
        <time>2012-07-22T08:57:05Z</time>
      </trkpt>
      <trkpt lat="46.93297" lon="-0.56307">
        <ele>114.5</ele>
        <time>2012-07-22T08:57:06Z</time>
      </trkpt>
      <trkpt lat="46.93299" lon="-0.56317">
        <ele>114.8</ele>
        <time>2012-07-22T08:57:07Z</time>
      </trkpt>
      <trkpt lat="46.93301" lon="-0.56327">
        <ele>115</ele>
        <time>2012-07-22T08:57:08Z</time>
      </trkpt>
      <trkpt lat="46.93303" lon="-0.56338">
        <ele>115</ele>
        <time>2012-07-22T08:57:09Z</time>
      </trkpt>
      <trkpt lat="46.93305" lon="-0.56348">
        <ele>115.4</ele>
        <time>2012-07-22T08:57:10Z</time>
      </trkpt>
      <trkpt lat="46.93307" lon="-0.56357">
        <ele>115.5</ele>
        <time>2012-07-22T08:57:11Z</time>
      </trkpt>
      <trkpt lat="46.93309" lon="-0.56367">
        <ele>115.5</ele>
        <time>2012-07-22T08:57:12Z</time>
      </trkpt>
      <trkpt lat="46.93312" lon="-0.56377">
        <ele>115.9</ele>
        <time>2012-07-22T08:57:13Z</time>
      </trkpt>
      <trkpt lat="46.93314" lon="-0.56387">
        <ele>116</ele>
        <time>2012-07-22T08:57:14Z</time>
      </trkpt>
      <trkpt lat="46.93316" lon="-0.56397">
        <ele>116</ele>
        <time>2012-07-22T08:57:15Z</time>
      </trkpt>
      <trkpt lat="46.93318" lon="-0.56407">
        <ele>116</ele>
        <time>2012-07-22T08:57:16Z</time>
      </trkpt>
      <trkpt lat="46.9332" lon="-0.56417">
        <ele>116</ele>
        <time>2012-07-22T08:57:17Z</time>
      </trkpt>
      <trkpt lat="46.93323" lon="-0.56428">
        <ele>116</ele>
        <time>2012-07-22T08:57:18Z</time>
      </trkpt>
      <trkpt lat="46.93325" lon="-0.56438">
        <ele>116</ele>
        <time>2012-07-22T08:57:19Z</time>
      </trkpt>
      <trkpt lat="46.93327" lon="-0.56448">
        <ele>116</ele>
        <time>2012-07-22T08:57:20Z</time>
      </trkpt>
      <trkpt lat="46.93329" lon="-0.56458">
        <ele>116</ele>
        <time>2012-07-22T08:57:21Z</time>
      </trkpt>
      <trkpt lat="46.93332" lon="-0.56468">
        <ele>115.9</ele>
        <time>2012-07-22T08:57:22Z</time>
      </trkpt>
      <trkpt lat="46.93334" lon="-0.56478">
        <ele>115.8</ele>
        <time>2012-07-22T08:57:23Z</time>
      </trkpt>
      <trkpt lat="46.93336" lon="-0.56488">
        <ele>115.8</ele>
        <time>2012-07-22T08:57:24Z</time>
      </trkpt>
      <trkpt lat="46.93338" lon="-0.56499">
        <ele>115.5</ele>
        <time>2012-07-22T08:57:25Z</time>
      </trkpt>
      <trkpt lat="46.93341" lon="-0.56509">
        <ele>115.5</ele>
        <time>2012-07-22T08:57:26Z</time>
      </trkpt>
      <trkpt lat="46.93343" lon="-0.56519">
        <ele>115.5</ele>
        <time>2012-07-22T08:57:27Z</time>
      </trkpt>
      <trkpt lat="46.93345" lon="-0.5653">
        <ele>115.4</ele>
        <time>2012-07-22T08:57:28Z</time>
      </trkpt>
      <trkpt lat="46.93348" lon="-0.5654">
        <ele>115.4</ele>
        <time>2012-07-22T08:57:29Z</time>
      </trkpt>
      <trkpt lat="46.9335" lon="-0.5655">
        <ele>115.3</ele>
        <time>2012-07-22T08:57:30Z</time>
      </trkpt>
      <trkpt lat="46.93352" lon="-0.56561">
        <ele>115</ele>
        <time>2012-07-22T08:57:31Z</time>
      </trkpt>
      <trkpt lat="46.93354" lon="-0.56571">
        <ele>115</ele>
        <time>2012-07-22T08:57:32Z</time>
      </trkpt>
      <trkpt lat="46.93356" lon="-0.56581">
        <ele>115</ele>
        <time>2012-07-22T08:57:33Z</time>
      </trkpt>
      <trkpt lat="46.93358" lon="-0.56591">
        <ele>115</ele>
        <time>2012-07-22T08:57:34Z</time>
      </trkpt>
      <trkpt lat="46.9336" lon="-0.56601">
        <ele>114.9</ele>
        <time>2012-07-22T08:57:35Z</time>
      </trkpt>
      <trkpt lat="46.93363" lon="-0.56611">
        <ele>114.8</ele>
        <time>2012-07-22T08:57:36Z</time>
      </trkpt>
      <trkpt lat="46.93365" lon="-0.56622">
        <ele>114.8</ele>
        <time>2012-07-22T08:57:37Z</time>
      </trkpt>
      <trkpt lat="46.93367" lon="-0.56631">
        <ele>114.5</ele>
        <time>2012-07-22T08:57:38Z</time>
      </trkpt>
      <trkpt lat="46.93369" lon="-0.56641">
        <ele>114.5</ele>
        <time>2012-07-22T08:57:39Z</time>
      </trkpt>
      <trkpt lat="46.93371" lon="-0.56651">
        <ele>114.3</ele>
        <time>2012-07-22T08:57:40Z</time>
      </trkpt>
      <trkpt lat="46.93373" lon="-0.56661">
        <ele>114</ele>
        <time>2012-07-22T08:57:41Z</time>
      </trkpt>
      <trkpt lat="46.93376" lon="-0.56671">
        <ele>114</ele>
        <time>2012-07-22T08:57:42Z</time>
      </trkpt>
      <trkpt lat="46.93378" lon="-0.56681">
        <ele>113.9</ele>
        <time>2012-07-22T08:57:43Z</time>
      </trkpt>
      <trkpt lat="46.9338" lon="-0.56691">
        <ele>113.8</ele>
        <time>2012-07-22T08:57:44Z</time>
      </trkpt>
      <trkpt lat="46.93383" lon="-0.56701">
        <ele>113.5</ele>
        <time>2012-07-22T08:57:45Z</time>
      </trkpt>
      <trkpt lat="46.93385" lon="-0.56711">
        <ele>113.5</ele>
        <time>2012-07-22T08:57:46Z</time>
      </trkpt>
      <trkpt lat="46.93388" lon="-0.56722">
        <ele>113.5</ele>
        <time>2012-07-22T08:57:47Z</time>
      </trkpt>
      <trkpt lat="46.9339" lon="-0.56733">
        <ele>113.5</ele>
        <time>2012-07-22T08:57:48Z</time>
      </trkpt>
      <trkpt lat="46.93392" lon="-0.56743">
        <ele>113.5</ele>
        <time>2012-07-22T08:57:49Z</time>
      </trkpt>
      <trkpt lat="46.93395" lon="-0.56754">
        <ele>113.5</ele>
        <time>2012-07-22T08:57:50Z</time>
      </trkpt>
      <trkpt lat="46.93397" lon="-0.56765">
        <ele>113.5</ele>
        <time>2012-07-22T08:57:51Z</time>
      </trkpt>
      <trkpt lat="46.934" lon="-0.56776">
        <ele>113.8</ele>
        <time>2012-07-22T08:57:52Z</time>
      </trkpt>
      <trkpt lat="46.93402" lon="-0.56787">
        <ele>113.9</ele>
        <time>2012-07-22T08:57:53Z</time>
      </trkpt>
      <trkpt lat="46.93404" lon="-0.56797">
        <ele>113.9</ele>
        <time>2012-07-22T08:57:54Z</time>
      </trkpt>
      <trkpt lat="46.93406" lon="-0.56808">
        <ele>113.9</ele>
        <time>2012-07-22T08:57:55Z</time>
      </trkpt>
      <trkpt lat="46.93409" lon="-0.56818">
        <ele>113.9</ele>
        <time>2012-07-22T08:57:56Z</time>
      </trkpt>
      <trkpt lat="46.93411" lon="-0.56829">
        <ele>113.9</ele>
        <time>2012-07-22T08:57:57Z</time>
      </trkpt>
      <trkpt lat="46.93414" lon="-0.5684">
        <ele>113.8</ele>
        <time>2012-07-22T08:57:58Z</time>
      </trkpt>
      <trkpt lat="46.93416" lon="-0.5685">
        <ele>113.8</ele>
        <time>2012-07-22T08:57:59Z</time>
      </trkpt>
      <trkpt lat="46.93418" lon="-0.5686">
        <ele>113.8</ele>
        <time>2012-07-22T08:58:00Z</time>
      </trkpt>
      <trkpt lat="46.9342" lon="-0.56869">
        <ele>113.8</ele>
        <time>2012-07-22T08:58:01Z</time>
      </trkpt>
      <trkpt lat="46.93423" lon="-0.56879">
        <ele>113.5</ele>
        <time>2012-07-22T08:58:02Z</time>
      </trkpt>
      <trkpt lat="46.93425" lon="-0.56889">
        <ele>113.5</ele>
        <time>2012-07-22T08:58:03Z</time>
      </trkpt>
      <trkpt lat="46.93427" lon="-0.56898">
        <ele>113.5</ele>
        <time>2012-07-22T08:58:04Z</time>
      </trkpt>
      <trkpt lat="46.93429" lon="-0.56907">
        <ele>113.5</ele>
        <time>2012-07-22T08:58:05Z</time>
      </trkpt>
      <trkpt lat="46.93431" lon="-0.56916">
        <ele>113.5</ele>
        <time>2012-07-22T08:58:06Z</time>
      </trkpt>
      <trkpt lat="46.93432" lon="-0.56925">
        <ele>113.5</ele>
        <time>2012-07-22T08:58:07Z</time>
      </trkpt>
      <trkpt lat="46.93434" lon="-0.56934">
        <ele>113.4</ele>
        <time>2012-07-22T08:58:08Z</time>
      </trkpt>
      <trkpt lat="46.93436" lon="-0.56943">
        <ele>113</ele>
        <time>2012-07-22T08:58:09Z</time>
      </trkpt>
      <trkpt lat="46.93439" lon="-0.56952">
        <ele>113</ele>
        <time>2012-07-22T08:58:10Z</time>
      </trkpt>
      <trkpt lat="46.93441" lon="-0.56961">
        <ele>112.9</ele>
        <time>2012-07-22T08:58:11Z</time>
      </trkpt>
      <trkpt lat="46.93443" lon="-0.56969">
        <ele>112.8</ele>
        <time>2012-07-22T08:58:12Z</time>
      </trkpt>
      <trkpt lat="46.93445" lon="-0.56977">
        <ele>112.5</ele>
        <time>2012-07-22T08:58:13Z</time>
      </trkpt>
      <trkpt lat="46.93447" lon="-0.56986">
        <ele>112.5</ele>
        <time>2012-07-22T08:58:14Z</time>
      </trkpt>
      <trkpt lat="46.93449" lon="-0.56995">
        <ele>112.4</ele>
        <time>2012-07-22T08:58:15Z</time>
      </trkpt>
      <trkpt lat="46.93451" lon="-0.57003">
        <ele>112.3</ele>
        <time>2012-07-22T08:58:16Z</time>
      </trkpt>
      <trkpt lat="46.93452" lon="-0.57011">
        <ele>112</ele>
        <time>2012-07-22T08:58:17Z</time>
      </trkpt>
      <trkpt lat="46.93454" lon="-0.57018">
        <ele>112</ele>
        <time>2012-07-22T08:58:18Z</time>
      </trkpt>
      <trkpt lat="46.93456" lon="-0.57025">
        <ele>111.9</ele>
        <time>2012-07-22T08:58:19Z</time>
      </trkpt>
      <trkpt lat="46.93456" lon="-0.57033">
        <ele>111.8</ele>
        <time>2012-07-22T08:58:20Z</time>
      </trkpt>
      <trkpt lat="46.93457" lon="-0.5704">
        <ele>111.8</ele>
        <time>2012-07-22T08:58:21Z</time>
      </trkpt>
      <trkpt lat="46.9346" lon="-0.57051">
        <ele>111.5</ele>
        <time>2012-07-22T08:58:23Z</time>
      </trkpt>
      <trkpt lat="46.93465" lon="-0.57059">
        <ele>111.8</ele>
        <time>2012-07-22T08:58:25Z</time>
      </trkpt>
      <trkpt lat="46.93467" lon="-0.5707">
        <ele>111.5</ele>
        <time>2012-07-22T08:58:43Z</time>
      </trkpt>
      <trkpt lat="46.93468" lon="-0.5708">
        <ele>111.8</ele>
        <time>2012-07-22T08:58:46Z</time>
      </trkpt>
      <trkpt lat="46.9347" lon="-0.57089">
        <ele>111.8</ele>
        <time>2012-07-22T08:58:48Z</time>
      </trkpt>
      <trkpt lat="46.93472" lon="-0.57101">
        <ele>112</ele>
        <time>2012-07-22T08:58:50Z</time>
      </trkpt>
      <trkpt lat="46.93475" lon="-0.57112">
        <ele>112.3</ele>
        <time>2012-07-22T08:58:52Z</time>
      </trkpt>
      <trkpt lat="46.93478" lon="-0.57125">
        <ele>112.5</ele>
        <time>2012-07-22T08:58:54Z</time>
      </trkpt>
      <trkpt lat="46.93479" lon="-0.57131">
        <ele>112.5</ele>
        <time>2012-07-22T08:58:55Z</time>
      </trkpt>
      <trkpt lat="46.93481" lon="-0.57138">
        <ele>112.5</ele>
        <time>2012-07-22T08:58:56Z</time>
      </trkpt>
      <trkpt lat="46.93482" lon="-0.57144">
        <ele>112.5</ele>
        <time>2012-07-22T08:58:57Z</time>
      </trkpt>
      <trkpt lat="46.93484" lon="-0.57151">
        <ele>112.5</ele>
        <time>2012-07-22T08:58:58Z</time>
      </trkpt>
      <trkpt lat="46.93485" lon="-0.57158">
        <ele>112.5</ele>
        <time>2012-07-22T08:58:59Z</time>
      </trkpt>
      <trkpt lat="46.93487" lon="-0.57165">
        <ele>112.5</ele>
        <time>2012-07-22T08:59:00Z</time>
      </trkpt>
      <trkpt lat="46.93488" lon="-0.57172">
        <ele>112.5</ele>
        <time>2012-07-22T08:59:01Z</time>
      </trkpt>
      <trkpt lat="46.9349" lon="-0.57179">
        <ele>112.5</ele>
        <time>2012-07-22T08:59:02Z</time>
      </trkpt>
      <trkpt lat="46.93491" lon="-0.57187">
        <ele>112.5</ele>
        <time>2012-07-22T08:59:03Z</time>
      </trkpt>
      <trkpt lat="46.93493" lon="-0.57195">
        <ele>112.5</ele>
        <time>2012-07-22T08:59:04Z</time>
      </trkpt>
      <trkpt lat="46.93495" lon="-0.57203">
        <ele>112.5</ele>
        <time>2012-07-22T08:59:05Z</time>
      </trkpt>
      <trkpt lat="46.93496" lon="-0.57211">
        <ele>112.5</ele>
        <time>2012-07-22T08:59:06Z</time>
      </trkpt>
      <trkpt lat="46.93498" lon="-0.57219">
        <ele>112.4</ele>
        <time>2012-07-22T08:59:07Z</time>
      </trkpt>
      <trkpt lat="46.935" lon="-0.57228">
        <ele>112.4</ele>
        <time>2012-07-22T08:59:08Z</time>
      </trkpt>
      <trkpt lat="46.93501" lon="-0.57236">
        <ele>112.4</ele>
        <time>2012-07-22T08:59:09Z</time>
      </trkpt>
      <trkpt lat="46.93503" lon="-0.57244">
        <ele>112.4</ele>
        <time>2012-07-22T08:59:10Z</time>
      </trkpt>
      <trkpt lat="46.93505" lon="-0.57252">
        <ele>112.4</ele>
        <time>2012-07-22T08:59:11Z</time>
      </trkpt>
      <trkpt lat="46.93507" lon="-0.57261">
        <ele>112.4</ele>
        <time>2012-07-22T08:59:12Z</time>
      </trkpt>
      <trkpt lat="46.93509" lon="-0.5727">
        <ele>112.4</ele>
        <time>2012-07-22T08:59:13Z</time>
      </trkpt>
      <trkpt lat="46.93511" lon="-0.57278">
        <ele>112.3</ele>
        <time>2012-07-22T08:59:14Z</time>
      </trkpt>
      <trkpt lat="46.93513" lon="-0.57287">
        <ele>112.3</ele>
        <time>2012-07-22T08:59:15Z</time>
      </trkpt>
      <trkpt lat="46.93515" lon="-0.57296">
        <ele>112</ele>
        <time>2012-07-22T08:59:16Z</time>
      </trkpt>
      <trkpt lat="46.93517" lon="-0.57304">
        <ele>112</ele>
        <time>2012-07-22T08:59:17Z</time>
      </trkpt>
      <trkpt lat="46.93519" lon="-0.57313">
        <ele>112</ele>
        <time>2012-07-22T08:59:18Z</time>
      </trkpt>
      <trkpt lat="46.93521" lon="-0.57321">
        <ele>112</ele>
        <time>2012-07-22T08:59:19Z</time>
      </trkpt>
      <trkpt lat="46.93523" lon="-0.5733">
        <ele>111.8</ele>
        <time>2012-07-22T08:59:20Z</time>
      </trkpt>
      <trkpt lat="46.93524" lon="-0.57337">
        <ele>111.5</ele>
        <time>2012-07-22T08:59:21Z</time>
      </trkpt>
      <trkpt lat="46.93526" lon="-0.57345">
        <ele>111.5</ele>
        <time>2012-07-22T08:59:22Z</time>
      </trkpt>
      <trkpt lat="46.93528" lon="-0.57353">
        <ele>111.5</ele>
        <time>2012-07-22T08:59:23Z</time>
      </trkpt>
      <trkpt lat="46.9353" lon="-0.57361">
        <ele>111.5</ele>
        <time>2012-07-22T08:59:24Z</time>
      </trkpt>
      <trkpt lat="46.93532" lon="-0.57369">
        <ele>111.5</ele>
        <time>2012-07-22T08:59:25Z</time>
      </trkpt>
      <trkpt lat="46.93534" lon="-0.57377">
        <ele>111.5</ele>
        <time>2012-07-22T08:59:26Z</time>
      </trkpt>
      <trkpt lat="46.93536" lon="-0.57385">
        <ele>111.5</ele>
        <time>2012-07-22T08:59:27Z</time>
      </trkpt>
      <trkpt lat="46.93537" lon="-0.57393">
        <ele>111.5</ele>
        <time>2012-07-22T08:59:28Z</time>
      </trkpt>
      <trkpt lat="46.93539" lon="-0.57401">
        <ele>111.9</ele>
        <time>2012-07-22T08:59:29Z</time>
      </trkpt>
      <trkpt lat="46.93541" lon="-0.57409">
        <ele>111.9</ele>
        <time>2012-07-22T08:59:30Z</time>
      </trkpt>
      <trkpt lat="46.93543" lon="-0.57416">
        <ele>112</ele>
        <time>2012-07-22T08:59:31Z</time>
      </trkpt>
      <trkpt lat="46.93544" lon="-0.57423">
        <ele>112</ele>
        <time>2012-07-22T08:59:32Z</time>
      </trkpt>
      <trkpt lat="46.93546" lon="-0.57431">
        <ele>112</ele>
        <time>2012-07-22T08:59:33Z</time>
      </trkpt>
      <trkpt lat="46.93548" lon="-0.57438">
        <ele>112</ele>
        <time>2012-07-22T08:59:34Z</time>
      </trkpt>
      <trkpt lat="46.9355" lon="-0.57446">
        <ele>112</ele>
        <time>2012-07-22T08:59:35Z</time>
      </trkpt>
      <trkpt lat="46.93552" lon="-0.57454">
        <ele>112</ele>
        <time>2012-07-22T08:59:36Z</time>
      </trkpt>
      <trkpt lat="46.93554" lon="-0.57462">
        <ele>112.3</ele>
        <time>2012-07-22T08:59:37Z</time>
      </trkpt>
      <trkpt lat="46.93556" lon="-0.5747">
        <ele>112.3</ele>
        <time>2012-07-22T08:59:38Z</time>
      </trkpt>
      <trkpt lat="46.93558" lon="-0.57477">
        <ele>112.4</ele>
        <time>2012-07-22T08:59:39Z</time>
      </trkpt>
      <trkpt lat="46.93561" lon="-0.57485">
        <ele>112.3</ele>
        <time>2012-07-22T08:59:40Z</time>
      </trkpt>
      <trkpt lat="46.93563" lon="-0.57492">
        <ele>112.3</ele>
        <time>2012-07-22T08:59:41Z</time>
      </trkpt>
      <trkpt lat="46.93565" lon="-0.57499">
        <ele>112</ele>
        <time>2012-07-22T08:59:42Z</time>
      </trkpt>
      <trkpt lat="46.93567" lon="-0.57507">
        <ele>112.3</ele>
        <time>2012-07-22T08:59:43Z</time>
      </trkpt>
      <trkpt lat="46.93569" lon="-0.57514">
        <ele>112.4</ele>
        <time>2012-07-22T08:59:44Z</time>
      </trkpt>
      <trkpt lat="46.93571" lon="-0.57521">
        <ele>112.4</ele>
        <time>2012-07-22T08:59:45Z</time>
      </trkpt>
      <trkpt lat="46.93574" lon="-0.57529">
        <ele>112.4</ele>
        <time>2012-07-22T08:59:46Z</time>
      </trkpt>
      <trkpt lat="46.93576" lon="-0.57536">
        <ele>112.4</ele>
        <time>2012-07-22T08:59:47Z</time>
      </trkpt>
      <trkpt lat="46.93578" lon="-0.57544">
        <ele>112.4</ele>
        <time>2012-07-22T08:59:48Z</time>
      </trkpt>
      <trkpt lat="46.9358" lon="-0.57551">
        <ele>112.4</ele>
        <time>2012-07-22T08:59:49Z</time>
      </trkpt>
      <trkpt lat="46.93583" lon="-0.57559">
        <ele>112.4</ele>
        <time>2012-07-22T08:59:50Z</time>
      </trkpt>
      <trkpt lat="46.93585" lon="-0.57566">
        <ele>112.4</ele>
        <time>2012-07-22T08:59:51Z</time>
      </trkpt>
      <trkpt lat="46.93587" lon="-0.57574">
        <ele>112.3</ele>
        <time>2012-07-22T08:59:52Z</time>
      </trkpt>
      <trkpt lat="46.93589" lon="-0.57581">
        <ele>112.3</ele>
        <time>2012-07-22T08:59:53Z</time>
      </trkpt>
      <trkpt lat="46.93592" lon="-0.57589">
        <ele>112.3</ele>
        <time>2012-07-22T08:59:54Z</time>
      </trkpt>
      <trkpt lat="46.93594" lon="-0.57597">
        <ele>112.3</ele>
        <time>2012-07-22T08:59:55Z</time>
      </trkpt>
      <trkpt lat="46.93596" lon="-0.57604">
        <ele>112.3</ele>
        <time>2012-07-22T08:59:56Z</time>
      </trkpt>
      <trkpt lat="46.93598" lon="-0.57611">
        <ele>112.4</ele>
        <time>2012-07-22T08:59:57Z</time>
      </trkpt>
      <trkpt lat="46.936" lon="-0.57618">
        <ele>112.5</ele>
        <time>2012-07-22T08:59:58Z</time>
      </trkpt>
      <trkpt lat="46.93602" lon="-0.57625">
        <ele>112.5</ele>
        <time>2012-07-22T08:59:59Z</time>
      </trkpt>
      <trkpt lat="46.93605" lon="-0.57632">
        <ele>112.5</ele>
        <time>2012-07-22T09:00:00Z</time>
      </trkpt>
      <trkpt lat="46.93607" lon="-0.57639">
        <ele>112.5</ele>
        <time>2012-07-22T09:00:01Z</time>
      </trkpt>
      <trkpt lat="46.93609" lon="-0.57646">
        <ele>112.5</ele>
        <time>2012-07-22T09:00:02Z</time>
      </trkpt>
      <trkpt lat="46.93611" lon="-0.57654">
        <ele>112.8</ele>
        <time>2012-07-22T09:00:03Z</time>
      </trkpt>
      <trkpt lat="46.93614" lon="-0.57662">
        <ele>113</ele>
        <time>2012-07-22T09:00:04Z</time>
      </trkpt>
      <trkpt lat="46.93616" lon="-0.57669">
        <ele>113.5</ele>
        <time>2012-07-22T09:00:05Z</time>
      </trkpt>
      <trkpt lat="46.93617" lon="-0.57677">
        <ele>113.9</ele>
        <time>2012-07-22T09:00:06Z</time>
      </trkpt>
      <trkpt lat="46.93619" lon="-0.57684">
        <ele>114</ele>
        <time>2012-07-22T09:00:07Z</time>
      </trkpt>
      <trkpt lat="46.93622" lon="-0.57691">
        <ele>114.5</ele>
        <time>2012-07-22T09:00:08Z</time>
      </trkpt>
      <trkpt lat="46.93624" lon="-0.57698">
        <ele>114.8</ele>
        <time>2012-07-22T09:00:09Z</time>
      </trkpt>
      <trkpt lat="46.93626" lon="-0.57705">
        <ele>115</ele>
        <time>2012-07-22T09:00:10Z</time>
      </trkpt>
      <trkpt lat="46.93628" lon="-0.57712">
        <ele>115.3</ele>
        <time>2012-07-22T09:00:11Z</time>
      </trkpt>
      <trkpt lat="46.93631" lon="-0.57719">
        <ele>115.5</ele>
        <time>2012-07-22T09:00:12Z</time>
      </trkpt>
      <trkpt lat="46.93633" lon="-0.57727">
        <ele>115.9</ele>
        <time>2012-07-22T09:00:13Z</time>
      </trkpt>
      <trkpt lat="46.93635" lon="-0.57734">
        <ele>116</ele>
        <time>2012-07-22T09:00:14Z</time>
      </trkpt>
      <trkpt lat="46.93637" lon="-0.57741">
        <ele>116</ele>
        <time>2012-07-22T09:00:15Z</time>
      </trkpt>
      <trkpt lat="46.93639" lon="-0.57749">
        <ele>116.3</ele>
        <time>2012-07-22T09:00:16Z</time>
      </trkpt>
      <trkpt lat="46.93642" lon="-0.57756">
        <ele>116.5</ele>
        <time>2012-07-22T09:00:17Z</time>
      </trkpt>
      <trkpt lat="46.93644" lon="-0.57762">
        <ele>116.5</ele>
        <time>2012-07-22T09:00:18Z</time>
      </trkpt>
      <trkpt lat="46.93646" lon="-0.57769">
        <ele>116.5</ele>
        <time>2012-07-22T09:00:19Z</time>
      </trkpt>
      <trkpt lat="46.93648" lon="-0.57776">
        <ele>116.4</ele>
        <time>2012-07-22T09:00:20Z</time>
      </trkpt>
      <trkpt lat="46.9365" lon="-0.57782">
        <ele>116.3</ele>
        <time>2012-07-22T09:00:21Z</time>
      </trkpt>
      <trkpt lat="46.93653" lon="-0.57788">
        <ele>116</ele>
        <time>2012-07-22T09:00:22Z</time>
      </trkpt>
      <trkpt lat="46.93655" lon="-0.57795">
        <ele>116</ele>
        <time>2012-07-22T09:00:23Z</time>
      </trkpt>
      <trkpt lat="46.93657" lon="-0.57801">
        <ele>116</ele>
        <time>2012-07-22T09:00:24Z</time>
      </trkpt>
      <trkpt lat="46.9366" lon="-0.57807">
        <ele>116</ele>
        <time>2012-07-22T09:00:25Z</time>
      </trkpt>
      <trkpt lat="46.93662" lon="-0.57813">
        <ele>116</ele>
        <time>2012-07-22T09:00:26Z</time>
      </trkpt>
      <trkpt lat="46.93665" lon="-0.5782">
        <ele>116</ele>
        <time>2012-07-22T09:00:27Z</time>
      </trkpt>
      <trkpt lat="46.93668" lon="-0.57826">
        <ele>116</ele>
        <time>2012-07-22T09:00:28Z</time>
      </trkpt>
      <trkpt lat="46.9367" lon="-0.57833">
        <ele>116.3</ele>
        <time>2012-07-22T09:00:29Z</time>
      </trkpt>
      <trkpt lat="46.93673" lon="-0.57839">
        <ele>116.3</ele>
        <time>2012-07-22T09:00:30Z</time>
      </trkpt>
      <trkpt lat="46.93676" lon="-0.57846">
        <ele>116.4</ele>
        <time>2012-07-22T09:00:31Z</time>
      </trkpt>
      <trkpt lat="46.93678" lon="-0.57852">
        <ele>116.4</ele>
        <time>2012-07-22T09:00:32Z</time>
      </trkpt>
      <trkpt lat="46.93681" lon="-0.57858">
        <ele>116.3</ele>
        <time>2012-07-22T09:00:33Z</time>
      </trkpt>
      <trkpt lat="46.93684" lon="-0.57865">
        <ele>116.3</ele>
        <time>2012-07-22T09:00:34Z</time>
      </trkpt>
      <trkpt lat="46.93686" lon="-0.57871">
        <ele>116</ele>
        <time>2012-07-22T09:00:35Z</time>
      </trkpt>
      <trkpt lat="46.93689" lon="-0.57877">
        <ele>116</ele>
        <time>2012-07-22T09:00:36Z</time>
      </trkpt>
      <trkpt lat="46.93692" lon="-0.57884">
        <ele>116</ele>
        <time>2012-07-22T09:00:37Z</time>
      </trkpt>
      <trkpt lat="46.93694" lon="-0.5789">
        <ele>116.4</ele>
        <time>2012-07-22T09:00:38Z</time>
      </trkpt>
      <trkpt lat="46.93697" lon="-0.57897">
        <ele>116.5</ele>
        <time>2012-07-22T09:00:39Z</time>
      </trkpt>
      <trkpt lat="46.937" lon="-0.57904">
        <ele>116.5</ele>
        <time>2012-07-22T09:00:40Z</time>
      </trkpt>
      <trkpt lat="46.93703" lon="-0.5791">
        <ele>116.5</ele>
        <time>2012-07-22T09:00:41Z</time>
      </trkpt>
      <trkpt lat="46.93706" lon="-0.57918">
        <ele>116.5</ele>
        <time>2012-07-22T09:00:42Z</time>
      </trkpt>
      <trkpt lat="46.93709" lon="-0.57925">
        <ele>116.5</ele>
        <time>2012-07-22T09:00:43Z</time>
      </trkpt>
      <trkpt lat="46.93711" lon="-0.57932">
        <ele>116.5</ele>
        <time>2012-07-22T09:00:44Z</time>
      </trkpt>
      <trkpt lat="46.93714" lon="-0.57939">
        <ele>116.5</ele>
        <time>2012-07-22T09:00:45Z</time>
      </trkpt>
      <trkpt lat="46.93717" lon="-0.57946">
        <ele>116.5</ele>
        <time>2012-07-22T09:00:46Z</time>
      </trkpt>
      <trkpt lat="46.93719" lon="-0.57952">
        <ele>116.4</ele>
        <time>2012-07-22T09:00:47Z</time>
      </trkpt>
      <trkpt lat="46.93722" lon="-0.57959">
        <ele>116</ele>
        <time>2012-07-22T09:00:48Z</time>
      </trkpt>
      <trkpt lat="46.93725" lon="-0.57965">
        <ele>116</ele>
        <time>2012-07-22T09:00:49Z</time>
      </trkpt>
      <trkpt lat="46.93728" lon="-0.57972">
        <ele>115.9</ele>
        <time>2012-07-22T09:00:50Z</time>
      </trkpt>
      <trkpt lat="46.93731" lon="-0.57978">
        <ele>115.5</ele>
        <time>2012-07-22T09:00:51Z</time>
      </trkpt>
      <trkpt lat="46.93734" lon="-0.57985">
        <ele>115.5</ele>
        <time>2012-07-22T09:00:52Z</time>
      </trkpt>
      <trkpt lat="46.93737" lon="-0.57991">
        <ele>115.3</ele>
        <time>2012-07-22T09:00:53Z</time>
      </trkpt>
      <trkpt lat="46.93739" lon="-0.57998">
        <ele>115</ele>
        <time>2012-07-22T09:00:54Z</time>
      </trkpt>
      <trkpt lat="46.93742" lon="-0.58005">
        <ele>115</ele>
        <time>2012-07-22T09:00:55Z</time>
      </trkpt>
      <trkpt lat="46.93745" lon="-0.58012">
        <ele>115</ele>
        <time>2012-07-22T09:00:56Z</time>
      </trkpt>
      <trkpt lat="46.93748" lon="-0.58019">
        <ele>115</ele>
        <time>2012-07-22T09:00:57Z</time>
      </trkpt>
      <trkpt lat="46.9375" lon="-0.58026">
        <ele>115</ele>
        <time>2012-07-22T09:00:58Z</time>
      </trkpt>
      <trkpt lat="46.93753" lon="-0.58033">
        <ele>114.9</ele>
        <time>2012-07-22T09:00:59Z</time>
      </trkpt>
      <trkpt lat="46.93755" lon="-0.5804">
        <ele>115</ele>
        <time>2012-07-22T09:01:00Z</time>
      </trkpt>
      <trkpt lat="46.93758" lon="-0.58046">
        <ele>115</ele>
        <time>2012-07-22T09:01:01Z</time>
      </trkpt>
      <trkpt lat="46.9376" lon="-0.58053">
        <ele>115</ele>
        <time>2012-07-22T09:01:02Z</time>
      </trkpt>
      <trkpt lat="46.93763" lon="-0.5806">
        <ele>115</ele>
        <time>2012-07-22T09:01:03Z</time>
      </trkpt>
      <trkpt lat="46.93766" lon="-0.58067">
        <ele>115.3</ele>
        <time>2012-07-22T09:01:04Z</time>
      </trkpt>
      <trkpt lat="46.93768" lon="-0.58074">
        <ele>115.5</ele>
        <time>2012-07-22T09:01:05Z</time>
      </trkpt>
      <trkpt lat="46.93771" lon="-0.58081">
        <ele>115.5</ele>
        <time>2012-07-22T09:01:06Z</time>
      </trkpt>
      <trkpt lat="46.93773" lon="-0.58089">
        <ele>115.9</ele>
        <time>2012-07-22T09:01:07Z</time>
      </trkpt>
      <trkpt lat="46.93776" lon="-0.58096">
        <ele>116</ele>
        <time>2012-07-22T09:01:08Z</time>
      </trkpt>
      <trkpt lat="46.93778" lon="-0.58104">
        <ele>116.4</ele>
        <time>2012-07-22T09:01:09Z</time>
      </trkpt>
      <trkpt lat="46.93781" lon="-0.58111">
        <ele>116.5</ele>
        <time>2012-07-22T09:01:10Z</time>
      </trkpt>
      <trkpt lat="46.93784" lon="-0.58118">
        <ele>116.8</ele>
        <time>2012-07-22T09:01:11Z</time>
      </trkpt>
      <trkpt lat="46.93786" lon="-0.58125">
        <ele>116.9</ele>
        <time>2012-07-22T09:01:12Z</time>
      </trkpt>
      <trkpt lat="46.93789" lon="-0.58131">
        <ele>116.9</ele>
        <time>2012-07-22T09:01:13Z</time>
      </trkpt>
      <trkpt lat="46.93792" lon="-0.58138">
        <ele>117</ele>
        <time>2012-07-22T09:01:14Z</time>
      </trkpt>
      <trkpt lat="46.93795" lon="-0.58145">
        <ele>117</ele>
        <time>2012-07-22T09:01:15Z</time>
      </trkpt>
      <trkpt lat="46.93798" lon="-0.58152">
        <ele>117</ele>
        <time>2012-07-22T09:01:16Z</time>
      </trkpt>
      <trkpt lat="46.938" lon="-0.58159">
        <ele>117</ele>
        <time>2012-07-22T09:01:17Z</time>
      </trkpt>
      <trkpt lat="46.93803" lon="-0.58165">
        <ele>117</ele>
        <time>2012-07-22T09:01:18Z</time>
      </trkpt>
      <trkpt lat="46.93806" lon="-0.58172">
        <ele>117</ele>
        <time>2012-07-22T09:01:19Z</time>
      </trkpt>
      <trkpt lat="46.93809" lon="-0.58179">
        <ele>117</ele>
        <time>2012-07-22T09:01:20Z</time>
      </trkpt>
      <trkpt lat="46.93812" lon="-0.58186">
        <ele>116.9</ele>
        <time>2012-07-22T09:01:21Z</time>
      </trkpt>
      <trkpt lat="46.93815" lon="-0.58193">
        <ele>116.8</ele>
        <time>2012-07-22T09:01:22Z</time>
      </trkpt>
      <trkpt lat="46.93817" lon="-0.582">
        <ele>116.8</ele>
        <time>2012-07-22T09:01:23Z</time>
      </trkpt>
      <trkpt lat="46.9382" lon="-0.58207">
        <ele>116.5</ele>
        <time>2012-07-22T09:01:24Z</time>
      </trkpt>
      <trkpt lat="46.93823" lon="-0.58215">
        <ele>116.5</ele>
        <time>2012-07-22T09:01:25Z</time>
      </trkpt>
      <trkpt lat="46.93826" lon="-0.58222">
        <ele>116.5</ele>
        <time>2012-07-22T09:01:26Z</time>
      </trkpt>
      <trkpt lat="46.93829" lon="-0.58229">
        <ele>116.5</ele>
        <time>2012-07-22T09:01:27Z</time>
      </trkpt>
      <trkpt lat="46.93832" lon="-0.58236">
        <ele>116.5</ele>
        <time>2012-07-22T09:01:28Z</time>
      </trkpt>
      <trkpt lat="46.93835" lon="-0.58244">
        <ele>116.4</ele>
        <time>2012-07-22T09:01:29Z</time>
      </trkpt>
      <trkpt lat="46.93838" lon="-0.58251">
        <ele>116.4</ele>
        <time>2012-07-22T09:01:30Z</time>
      </trkpt>
      <trkpt lat="46.93841" lon="-0.58258">
        <ele>116.4</ele>
        <time>2012-07-22T09:01:31Z</time>
      </trkpt>
      <trkpt lat="46.93844" lon="-0.58265">
        <ele>116.4</ele>
        <time>2012-07-22T09:01:32Z</time>
      </trkpt>
      <trkpt lat="46.93847" lon="-0.58272">
        <ele>116.4</ele>
        <time>2012-07-22T09:01:33Z</time>
      </trkpt>
      <trkpt lat="46.9385" lon="-0.58279">
        <ele>116.3</ele>
        <time>2012-07-22T09:01:34Z</time>
      </trkpt>
      <trkpt lat="46.93852" lon="-0.58286">
        <ele>116.3</ele>
        <time>2012-07-22T09:01:35Z</time>
      </trkpt>
      <trkpt lat="46.93855" lon="-0.58292">
        <ele>116</ele>
        <time>2012-07-22T09:01:36Z</time>
      </trkpt>
      <trkpt lat="46.93857" lon="-0.58299">
        <ele>116</ele>
        <time>2012-07-22T09:01:37Z</time>
      </trkpt>
      <trkpt lat="46.9386" lon="-0.58305">
        <ele>116</ele>
        <time>2012-07-22T09:01:38Z</time>
      </trkpt>
      <trkpt lat="46.93863" lon="-0.58311">
        <ele>116</ele>
        <time>2012-07-22T09:01:39Z</time>
      </trkpt>
      <trkpt lat="46.93865" lon="-0.58318">
        <ele>115.9</ele>
        <time>2012-07-22T09:01:40Z</time>
      </trkpt>
      <trkpt lat="46.93868" lon="-0.58325">
        <ele>115.8</ele>
        <time>2012-07-22T09:01:41Z</time>
      </trkpt>
      <trkpt lat="46.9387" lon="-0.58331">
        <ele>115.5</ele>
        <time>2012-07-22T09:01:42Z</time>
      </trkpt>
      <trkpt lat="46.93873" lon="-0.58338">
        <ele>115.5</ele>
        <time>2012-07-22T09:01:43Z</time>
      </trkpt>
      <trkpt lat="46.93876" lon="-0.58345">
        <ele>115.4</ele>
        <time>2012-07-22T09:01:44Z</time>
      </trkpt>
      <trkpt lat="46.93878" lon="-0.58353">
        <ele>115.4</ele>
        <time>2012-07-22T09:01:45Z</time>
      </trkpt>
      <trkpt lat="46.93881" lon="-0.5836">
        <ele>115.4</ele>
        <time>2012-07-22T09:01:46Z</time>
      </trkpt>
      <trkpt lat="46.93884" lon="-0.58368">
        <ele>115.5</ele>
        <time>2012-07-22T09:01:47Z</time>
      </trkpt>
      <trkpt lat="46.93886" lon="-0.58375">
        <ele>115.5</ele>
        <time>2012-07-22T09:01:48Z</time>
      </trkpt>
      <trkpt lat="46.93889" lon="-0.58383">
        <ele>115.5</ele>
        <time>2012-07-22T09:01:49Z</time>
      </trkpt>
      <trkpt lat="46.93892" lon="-0.5839">
        <ele>115.5</ele>
        <time>2012-07-22T09:01:50Z</time>
      </trkpt>
      <trkpt lat="46.93894" lon="-0.58397">
        <ele>115.8</ele>
        <time>2012-07-22T09:01:51Z</time>
      </trkpt>
      <trkpt lat="46.93897" lon="-0.58404">
        <ele>115.9</ele>
        <time>2012-07-22T09:01:52Z</time>
      </trkpt>
      <trkpt lat="46.93899" lon="-0.58412">
        <ele>116</ele>
        <time>2012-07-22T09:01:53Z</time>
      </trkpt>
      <trkpt lat="46.93901" lon="-0.5842">
        <ele>116.5</ele>
        <time>2012-07-22T09:01:54Z</time>
      </trkpt>
      <trkpt lat="46.93903" lon="-0.58428">
        <ele>116.8</ele>
        <time>2012-07-22T09:01:55Z</time>
      </trkpt>
      <trkpt lat="46.93906" lon="-0.58436">
        <ele>117</ele>
        <time>2012-07-22T09:01:56Z</time>
      </trkpt>
      <trkpt lat="46.93908" lon="-0.58443">
        <ele>117.3</ele>
        <time>2012-07-22T09:01:57Z</time>
      </trkpt>
      <trkpt lat="46.9391" lon="-0.5845">
        <ele>117.5</ele>
        <time>2012-07-22T09:01:58Z</time>
      </trkpt>
      <trkpt lat="46.93913" lon="-0.58457">
        <ele>117.5</ele>
        <time>2012-07-22T09:01:59Z</time>
      </trkpt>
      <trkpt lat="46.93915" lon="-0.58464">
        <ele>117.8</ele>
        <time>2012-07-22T09:02:00Z</time>
      </trkpt>
      <trkpt lat="46.93918" lon="-0.58472">
        <ele>118</ele>
        <time>2012-07-22T09:02:01Z</time>
      </trkpt>
      <trkpt lat="46.9392" lon="-0.58479">
        <ele>118</ele>
        <time>2012-07-22T09:02:02Z</time>
      </trkpt>
      <trkpt lat="46.93923" lon="-0.58486">
        <ele>118.4</ele>
        <time>2012-07-22T09:02:03Z</time>
      </trkpt>
      <trkpt lat="46.93925" lon="-0.58494">
        <ele>118.5</ele>
        <time>2012-07-22T09:02:04Z</time>
      </trkpt>
      <trkpt lat="46.93928" lon="-0.58501">
        <ele>118.8</ele>
        <time>2012-07-22T09:02:05Z</time>
      </trkpt>
      <trkpt lat="46.9393" lon="-0.58509">
        <ele>119</ele>
        <time>2012-07-22T09:02:06Z</time>
      </trkpt>
      <trkpt lat="46.93933" lon="-0.58517">
        <ele>119</ele>
        <time>2012-07-22T09:02:07Z</time>
      </trkpt>
      <trkpt lat="46.93935" lon="-0.58525">
        <ele>119</ele>
        <time>2012-07-22T09:02:08Z</time>
      </trkpt>
      <trkpt lat="46.93937" lon="-0.58532">
        <ele>119.3</ele>
        <time>2012-07-22T09:02:09Z</time>
      </trkpt>
      <trkpt lat="46.93939" lon="-0.5854">
        <ele>119.4</ele>
        <time>2012-07-22T09:02:10Z</time>
      </trkpt>
      <trkpt lat="46.93942" lon="-0.58548">
        <ele>119.5</ele>
        <time>2012-07-22T09:02:11Z</time>
      </trkpt>
      <trkpt lat="46.93944" lon="-0.58555">
        <ele>119.5</ele>
        <time>2012-07-22T09:02:12Z</time>
      </trkpt>
      <trkpt lat="46.93946" lon="-0.58562">
        <ele>119.5</ele>
        <time>2012-07-22T09:02:13Z</time>
      </trkpt>
      <trkpt lat="46.93948" lon="-0.58569">
        <ele>119.5</ele>
        <time>2012-07-22T09:02:14Z</time>
      </trkpt>
      <trkpt lat="46.93952" lon="-0.58581">
        <ele>119.5</ele>
        <time>2012-07-22T09:02:16Z</time>
      </trkpt>
      <trkpt lat="46.93955" lon="-0.58592">
        <ele>119.5</ele>
        <time>2012-07-22T09:02:18Z</time>
      </trkpt>
      <trkpt lat="46.93958" lon="-0.58602">
        <ele>119.5</ele>
        <time>2012-07-22T09:02:20Z</time>
      </trkpt>
      <trkpt lat="46.93961" lon="-0.5861">
        <ele>119.5</ele>
        <time>2012-07-22T09:02:22Z</time>
      </trkpt>
      <trkpt lat="46.93964" lon="-0.58622">
        <ele>119.5</ele>
        <time>2012-07-22T09:02:25Z</time>
      </trkpt>
      <trkpt lat="46.93968" lon="-0.58633">
        <ele>119.5</ele>
        <time>2012-07-22T09:02:28Z</time>
      </trkpt>
      <trkpt lat="46.93971" lon="-0.58643">
        <ele>119.5</ele>
        <time>2012-07-22T09:02:31Z</time>
      </trkpt>
      <trkpt lat="46.93974" lon="-0.58653">
        <ele>119.5</ele>
        <time>2012-07-22T09:02:42Z</time>
      </trkpt>
      <trkpt lat="46.93973" lon="-0.58665">
        <ele>119.5</ele>
        <time>2012-07-22T09:02:45Z</time>
      </trkpt>
      <trkpt lat="46.9397" lon="-0.58676">
        <ele>119.5</ele>
        <time>2012-07-22T09:02:48Z</time>
      </trkpt>
      <trkpt lat="46.93964" lon="-0.58686">
        <ele>119.5</ele>
        <time>2012-07-22T09:02:51Z</time>
      </trkpt>
      <trkpt lat="46.93959" lon="-0.58692">
        <ele>119.8</ele>
        <time>2012-07-22T09:02:53Z</time>
      </trkpt>
      <trkpt lat="46.93955" lon="-0.58699">
        <ele>119.9</ele>
        <time>2012-07-22T09:02:55Z</time>
      </trkpt>
      <trkpt lat="46.9395" lon="-0.58707">
        <ele>120</ele>
        <time>2012-07-22T09:02:57Z</time>
      </trkpt>
      <trkpt lat="46.93945" lon="-0.58715">
        <ele>120</ele>
        <time>2012-07-22T09:02:59Z</time>
      </trkpt>
      <trkpt lat="46.9394" lon="-0.58722">
        <ele>120</ele>
        <time>2012-07-22T09:03:01Z</time>
      </trkpt>
      <trkpt lat="46.93934" lon="-0.58729">
        <ele>120.8</ele>
        <time>2012-07-22T09:03:03Z</time>
      </trkpt>
      <trkpt lat="46.93928" lon="-0.58738">
        <ele>121.5</ele>
        <time>2012-07-22T09:03:05Z</time>
      </trkpt>
      <trkpt lat="46.93922" lon="-0.58746">
        <ele>122</ele>
        <time>2012-07-22T09:03:07Z</time>
      </trkpt>
      <trkpt lat="46.93916" lon="-0.58752">
        <ele>122</ele>
        <time>2012-07-22T09:03:09Z</time>
      </trkpt>
      <trkpt lat="46.93912" lon="-0.5876">
        <ele>122.3</ele>
        <time>2012-07-22T09:03:11Z</time>
      </trkpt>
      <trkpt lat="46.93908" lon="-0.58767">
        <ele>122.3</ele>
        <time>2012-07-22T09:03:13Z</time>
      </trkpt>
      <trkpt lat="46.93905" lon="-0.5877">
        <ele>122.4</ele>
        <time>2012-07-22T09:03:14Z</time>
      </trkpt>
      <trkpt lat="46.93895" lon="-0.58776">
        <ele>122.4</ele>
        <time>2012-07-22T09:03:17Z</time>
      </trkpt>
      <trkpt lat="46.93889" lon="-0.58782">
        <ele>122.5</ele>
        <time>2012-07-22T09:03:19Z</time>
      </trkpt>
      <trkpt lat="46.93882" lon="-0.58789">
        <ele>122.8</ele>
        <time>2012-07-22T09:03:21Z</time>
      </trkpt>
      <trkpt lat="46.93875" lon="-0.58796">
        <ele>122.9</ele>
        <time>2012-07-22T09:03:23Z</time>
      </trkpt>
      <trkpt lat="46.93871" lon="-0.588">
        <ele>122.9</ele>
        <time>2012-07-22T09:03:24Z</time>
      </trkpt>
      <trkpt lat="46.93864" lon="-0.58808">
        <ele>122.9</ele>
        <time>2012-07-22T09:03:26Z</time>
      </trkpt>
      <trkpt lat="46.93857" lon="-0.58815">
        <ele>123</ele>
        <time>2012-07-22T09:03:28Z</time>
      </trkpt>
      <trkpt lat="46.93851" lon="-0.5882">
        <ele>123</ele>
        <time>2012-07-22T09:03:30Z</time>
      </trkpt>
      <trkpt lat="46.93844" lon="-0.58827">
        <ele>123</ele>
        <time>2012-07-22T09:03:33Z</time>
      </trkpt>
      <trkpt lat="46.93839" lon="-0.58833">
        <ele>123</ele>
        <time>2012-07-22T09:03:35Z</time>
      </trkpt>
      <trkpt lat="46.93834" lon="-0.58839">
        <ele>123</ele>
        <time>2012-07-22T09:03:37Z</time>
      </trkpt>
      <trkpt lat="46.93827" lon="-0.58845">
        <ele>123.5</ele>
        <time>2012-07-22T09:03:39Z</time>
      </trkpt>
      <trkpt lat="46.9382" lon="-0.58849">
        <ele>123.8</ele>
        <time>2012-07-22T09:03:41Z</time>
      </trkpt>
      <trkpt lat="46.93813" lon="-0.58853">
        <ele>123.9</ele>
        <time>2012-07-22T09:03:43Z</time>
      </trkpt>
      <trkpt lat="46.93806" lon="-0.58857">
        <ele>123.9</ele>
        <time>2012-07-22T09:03:45Z</time>
      </trkpt>
      <trkpt lat="46.938" lon="-0.58861">
        <ele>123.9</ele>
        <time>2012-07-22T09:03:47Z</time>
      </trkpt>
      <trkpt lat="46.93793" lon="-0.58867">
        <ele>124</ele>
        <time>2012-07-22T09:03:50Z</time>
      </trkpt>
      <trkpt lat="46.93788" lon="-0.58871">
        <ele>124</ele>
        <time>2012-07-22T09:03:52Z</time>
      </trkpt>
      <trkpt lat="46.93781" lon="-0.58875">
        <ele>124</ele>
        <time>2012-07-22T09:03:54Z</time>
      </trkpt>
      <trkpt lat="46.93774" lon="-0.5888">
        <ele>124</ele>
        <time>2012-07-22T09:03:56Z</time>
      </trkpt>
      <trkpt lat="46.93767" lon="-0.58885">
        <ele>124.5</ele>
        <time>2012-07-22T09:03:58Z</time>
      </trkpt>
      <trkpt lat="46.93758" lon="-0.5889">
        <ele>124.5</ele>
        <time>2012-07-22T09:04:00Z</time>
      </trkpt>
      <trkpt lat="46.9375" lon="-0.58893">
        <ele>124.8</ele>
        <time>2012-07-22T09:04:02Z</time>
      </trkpt>
      <trkpt lat="46.93742" lon="-0.58896">
        <ele>124.9</ele>
        <time>2012-07-22T09:04:04Z</time>
      </trkpt>
      <trkpt lat="46.93734" lon="-0.58899">
        <ele>124.9</ele>
        <time>2012-07-22T09:04:06Z</time>
      </trkpt>
      <trkpt lat="46.93726" lon="-0.58901">
        <ele>124.8</ele>
        <time>2012-07-22T09:04:08Z</time>
      </trkpt>
      <trkpt lat="46.93718" lon="-0.58902">
        <ele>124.8</ele>
        <time>2012-07-22T09:04:10Z</time>
      </trkpt>
      <trkpt lat="46.93711" lon="-0.58902">
        <ele>124.8</ele>
        <time>2012-07-22T09:04:12Z</time>
      </trkpt>
      <trkpt lat="46.93704" lon="-0.58902">
        <ele>124.8</ele>
        <time>2012-07-22T09:04:14Z</time>
      </trkpt>
      <trkpt lat="46.93701" lon="-0.58902">
        <ele>124.8</ele>
        <time>2012-07-22T09:04:15Z</time>
      </trkpt>
      <trkpt lat="46.93693" lon="-0.5891">
        <ele>125</ele>
        <time>2012-07-22T09:07:09Z</time>
      </trkpt>
      <trkpt lat="46.93691" lon="-0.58914">
        <ele>129.1</ele>
        <time>2012-07-22T09:07:10Z</time>
      </trkpt>
      <trkpt lat="46.93708" lon="-0.58922">
        <ele>130</ele>
        <time>2012-07-22T09:07:49Z</time>
      </trkpt>
      <trkpt lat="46.93702" lon="-0.5893">
        <ele>133</ele>
        <time>2012-07-22T09:10:07Z</time>
      </trkpt>
      <trkpt lat="46.93701" lon="-0.58931">
        <ele>133</ele>
        <time>2012-07-22T09:10:08Z</time>
      </trkpt>
      <trkpt lat="46.937" lon="-0.5895">
        <ele>132.8</ele>
        <time>2012-07-22T09:10:35Z</time>
      </trkpt>
      <trkpt lat="46.93693" lon="-0.58958">
        <ele>132.1</ele>
        <time>2012-07-22T09:11:20Z</time>
      </trkpt>
      <trkpt lat="46.93692" lon="-0.58958">
        <ele>132.1</ele>
        <time>2012-07-22T09:11:21Z</time>
      </trkpt>
      <trkpt lat="46.93684" lon="-0.58935">
        <ele>131.3</ele>
        <time>2012-07-22T09:12:44Z</time>
      </trkpt>
      <trkpt lat="46.93684" lon="-0.58935">
        <ele>131.3</ele>
        <time>2012-07-22T09:12:45Z</time>
      </trkpt>
      <trkpt lat="46.93695" lon="-0.58925">
        <ele>131.1</ele>
        <time>2012-07-22T09:17:55Z</time>
      </trkpt>
      <trkpt lat="46.93695" lon="-0.58925">
        <ele>131.1</ele>
        <time>2012-07-22T09:17:56Z</time>
      </trkpt>
      <trkpt lat="46.93696" lon="-0.58925">
        <ele>131.1</ele>
        <time>2012-07-22T09:21:09Z</time>
      </trkpt>
      <trkpt lat="46.93696" lon="-0.58925">
        <ele>131.1</ele>
        <time>2012-07-22T09:21:11Z</time>
      </trkpt>
      <trkpt lat="46.93696" lon="-0.58925">
        <ele>131.1</ele>
        <time>2012-07-22T09:21:12Z</time>
      </trkpt>
      <trkpt lat="46.93697" lon="-0.58924">
        <ele>131.1</ele>
        <time>2012-07-22T09:21:16Z</time>
      </trkpt>
    </trkseg>
  </trk>
</gpx>